<?xml version='1.0' encoding='UTF-8'?><gpx version="1.1" creator="JPX - https://github.com/jenetics/jpx" xmlns="http://www.topografix.com/GPX/1/1"><trk><trkseg><trkpt lat="41.09191174204102" lon="14.263467127439347"><ele>43.5</ele><time>2026-04-04T12:09:24.393Z</time></trkpt><trkpt lat="41.09152341886101" lon="14.263484504382445"><ele>44.0</ele><time>2026-04-04T12:09:29.191Z</time></trkpt><trkpt lat="41.091366251968864" lon="14.263250185190014"><ele>44.0</ele><time>2026-04-04T12:09:30Z</time></trkpt><trkpt lat="41.09145590725575" lon="14.263272112562772"><ele>44.0</ele><time>2026-04-04T12:09:35.996Z</time></trkpt><trkpt lat="41.09137614668222" lon="14.263293341222598"><ele>44.0</ele><time>2026-04-04T12:10:35Z</time></trkpt><trkpt lat="41.09131394796099" lon="14.263115142931222"><ele>44.0</ele><time>2026-04-04T12:10:37Z</time></trkpt><trkpt lat="41.09131607217335" lon="14.262968987524648"><ele>44.0</ele><time>2026-04-04T12:10:38Z</time></trkpt><trkpt lat="41.091385685807" lon="14.262848526474851"><ele>43.6</ele><time>2026-04-04T12:10:39Z</time></trkpt><trkpt lat="41.091371256163534" lon="14.262718327053744"><ele>43.2</ele><time>2026-04-04T12:10:40Z</time></trkpt><trkpt lat="41.09137451321724" lon="14.262596030536047"><ele>42.800000000000004</ele><time>2026-04-04T12:10:41Z</time></trkpt><trkpt lat="41.0913864051181" lon="14.262457799095607"><ele>42.400000000000006</ele><time>2026-04-04T12:10:42Z</time></trkpt><trkpt lat="41.09137329215852" lon="14.26232934977704"><ele>42.0</ele><time>2026-04-04T12:10:43Z</time></trkpt><trkpt lat="41.09137357787135" lon="14.262214017637547"><ele>41.8</ele><time>2026-04-04T12:10:44Z</time></trkpt><trkpt lat="41.091372363993365" lon="14.262082437826141"><ele>41.6</ele><time>2026-04-04T12:10:45Z</time></trkpt><trkpt lat="41.0913729708763" lon="14.261948905726403"><ele>41.4</ele><time>2026-04-04T12:10:46Z</time></trkpt><trkpt lat="41.09137201268687" lon="14.261823344215363"><ele>41.199999999999996</ele><time>2026-04-04T12:10:47Z</time></trkpt><trkpt lat="41.09137283612278" lon="14.261706753061054"><ele>41.0</ele><time>2026-04-04T12:10:48Z</time></trkpt><trkpt lat="41.09137427266721" lon="14.26158042451483"><ele>40.8</ele><time>2026-04-04T12:10:49Z</time></trkpt><trkpt lat="41.09137343413613" lon="14.261444037641223"><ele>40.599999999999994</ele><time>2026-04-04T12:10:50Z</time></trkpt><trkpt lat="41.09137310345942" lon="14.26131210254973"><ele>40.4</ele><time>2026-04-04T12:10:51Z</time></trkpt><trkpt lat="41.09138808760711" lon="14.261177305812025"><ele>40.2</ele><time>2026-04-04T12:10:52Z</time></trkpt><trkpt lat="41.0913879752906" lon="14.261034494885685"><ele>40.0</ele><time>2026-04-04T12:10:53Z</time></trkpt><trkpt lat="41.09139410211735" lon="14.260908610243563"><ele>40.0</ele><time>2026-04-04T12:10:54Z</time></trkpt><trkpt lat="41.09140262544451" lon="14.260780488313216"><ele>40.0</ele><time>2026-04-04T12:10:55Z</time></trkpt><trkpt lat="41.09140631184234" lon="14.260656494367984"><ele>40.0</ele><time>2026-04-04T12:10:56Z</time></trkpt><trkpt lat="41.09140867202338" lon="14.260533776255697"><ele>40.0</ele><time>2026-04-04T12:10:57Z</time></trkpt><trkpt lat="41.09140889223436" lon="14.26042687463183"><ele>40.0</ele><time>2026-04-04T12:10:58Z</time></trkpt><trkpt lat="41.091408522358954" lon="14.260336307316972"><ele>40.0</ele><time>2026-04-04T12:10:59Z</time></trkpt><trkpt lat="41.0914094986717" lon="14.260251485250555"><ele>39.8</ele><time>2026-04-04T12:11:00Z</time></trkpt><trkpt lat="41.09140610650924" lon="14.260107926973273"><ele>39.6</ele><time>2026-04-04T12:11:02Z</time></trkpt><trkpt lat="41.09139063854874" lon="14.259963097521277"><ele>39.4</ele><time>2026-04-04T12:11:04Z</time></trkpt><trkpt lat="41.09138292751975" lon="14.25984285601116"><ele>39.2</ele><time>2026-04-04T12:11:06Z</time></trkpt><trkpt lat="41.09140302910499" lon="14.259717558583116"><ele>39.0</ele><time>2026-04-04T12:11:08Z</time></trkpt><trkpt lat="41.09154760351221" lon="14.259770218731429"><ele>39.0</ele><time>2026-04-04T12:11:09Z</time></trkpt><trkpt lat="41.09164069320282" lon="14.259514518609986"><ele>39.0</ele><time>2026-04-04T12:11:11Z</time></trkpt><trkpt lat="41.09164402962009" lon="14.259382944834792"><ele>39.0</ele><time>2026-04-04T12:11:12Z</time></trkpt><trkpt lat="41.09164677690365" lon="14.259222269380974"><ele>39.0</ele><time>2026-04-04T12:11:13.001Z</time></trkpt><trkpt lat="41.09164645946263" lon="14.259020146739324"><ele>38.666666666666664</ele><time>2026-04-04T12:11:14.001Z</time></trkpt><trkpt lat="41.0916212771819" lon="14.258793114609794"><ele>38.33333333333333</ele><time>2026-04-04T12:11:15.001Z</time></trkpt><trkpt lat="41.09160947240875" lon="14.25859614706245"><ele>38.0</ele><time>2026-04-04T12:11:16.001Z</time></trkpt><trkpt lat="41.09158622613165" lon="14.258427399675133"><ele>38.0</ele><time>2026-04-04T12:11:17.001Z</time></trkpt><trkpt lat="41.09157014668033" lon="14.258275866019472"><ele>38.0</ele><time>2026-04-04T12:11:18.001Z</time></trkpt><trkpt lat="41.0915526898452" lon="14.258137499857753"><ele>38.0</ele><time>2026-04-04T12:11:19.001Z</time></trkpt><trkpt lat="41.09152424388835" lon="14.257997709810105"><ele>38.0</ele><time>2026-04-04T12:11:20.001Z</time></trkpt><trkpt lat="41.09148776804259" lon="14.257857178330083"><ele>38.0</ele><time>2026-04-04T12:11:21.001Z</time></trkpt><trkpt lat="41.09146893582683" lon="14.257746952409079"><ele>38.33333333333333</ele><time>2026-04-04T12:11:22.001Z</time></trkpt><trkpt lat="41.091453186250774" lon="14.257651924345346"><ele>38.666666666666664</ele><time>2026-04-04T12:11:23.001Z</time></trkpt><trkpt lat="41.091440330636225" lon="14.257562850626057"><ele>39.0</ele><time>2026-04-04T12:11:24.001Z</time></trkpt><trkpt lat="41.0914324376258" lon="14.257423217816461"><ele>39.333333333333336</ele><time>2026-04-04T12:11:26.001Z</time></trkpt><trkpt lat="41.091407554907505" lon="14.2573177839632"><ele>39.66666666666667</ele><time>2026-04-04T12:11:51Z</time></trkpt><trkpt lat="41.09140211947324" lon="14.257232326348008"><ele>40.0</ele><time>2026-04-04T12:12:58Z</time></trkpt><trkpt lat="41.091468209172724" lon="14.257140918622932"><ele>40.5</ele><time>2026-04-04T12:13:01Z</time></trkpt><trkpt lat="41.09154055230267" lon="14.257138570617991"><ele>41.0</ele><time>2026-04-04T12:13:02.001Z</time></trkpt><trkpt lat="41.09165804763755" lon="14.257114284424956"><ele>41.5</ele><time>2026-04-04T12:13:03.001Z</time></trkpt><trkpt lat="41.09178607308044" lon="14.257114689720018"><ele>42.0</ele><time>2026-04-04T12:13:04.001Z</time></trkpt><trkpt lat="41.0919398959059" lon="14.257134877280135"><ele>40.666666666666664</ele><time>2026-04-04T12:13:05.001Z</time></trkpt><trkpt lat="41.09210612541127" lon="14.257152166657052"><ele>39.33333333333333</ele><time>2026-04-04T12:13:06.001Z</time></trkpt><trkpt lat="41.09227295418788" lon="14.25715430463314"><ele>38.0</ele><time>2026-04-04T12:13:07.001Z</time></trkpt><trkpt lat="41.09244388544073" lon="14.257149793964453"><ele>37.33333333333333</ele><time>2026-04-04T12:13:08.001Z</time></trkpt><trkpt lat="41.0926150284276" lon="14.257145674755133"><ele>36.666666666666664</ele><time>2026-04-04T12:13:09.001Z</time></trkpt><trkpt lat="41.092785325303375" lon="14.257148949015313"><ele>36.0</ele><time>2026-04-04T12:13:10.001Z</time></trkpt><trkpt lat="41.092957418180276" lon="14.25714598248723"><ele>36.0</ele><time>2026-04-04T12:13:11.001Z</time></trkpt><trkpt lat="41.09314080431869" lon="14.257135322331523"><ele>36.0</ele><time>2026-04-04T12:13:12.001Z</time></trkpt><trkpt lat="41.09332164443911" lon="14.257125099272738"><ele>36.0</ele><time>2026-04-04T12:13:13.001Z</time></trkpt><trkpt lat="41.093491931223625" lon="14.257121843716323"><ele>36.0</ele><time>2026-04-04T12:13:14.001Z</time></trkpt><trkpt lat="41.09364163256883" lon="14.2571184932813"><ele>36.0</ele><time>2026-04-04T12:13:15.001Z</time></trkpt><trkpt lat="41.09377213038166" lon="14.257105289173687"><ele>36.0</ele><time>2026-04-04T12:13:16.001Z</time></trkpt><trkpt lat="41.093884400723326" lon="14.257090958410908"><ele>36.0</ele><time>2026-04-04T12:13:17.001Z</time></trkpt><trkpt lat="41.09397555109485" lon="14.257082056192331"><ele>36.0</ele><time>2026-04-04T12:13:18.001Z</time></trkpt><trkpt lat="41.094053646661784" lon="14.257083733567347"><ele>36.0</ele><time>2026-04-04T12:13:19.001Z</time></trkpt><trkpt lat="41.09412107898125" lon="14.257107378837155"><ele>36.0</ele><time>2026-04-04T12:13:20.001Z</time></trkpt><trkpt lat="41.094186700064554" lon="14.257113737489503"><ele>36.0</ele><time>2026-04-04T12:13:21.001Z</time></trkpt><trkpt lat="41.09424029723049" lon="14.257164825455282"><ele>36.0</ele><time>2026-04-04T12:13:22.001Z</time></trkpt><trkpt lat="41.09431691446191" lon="14.2571026294779"><ele>36.0</ele><time>2026-04-04T12:13:24.001Z</time></trkpt><trkpt lat="41.094309381864605" lon="14.256950999745206"><ele>36.0</ele><time>2026-04-04T12:13:26.001Z</time></trkpt><trkpt lat="41.09425705519064" lon="14.256847561158747"><ele>36.0</ele><time>2026-04-04T12:13:27.001Z</time></trkpt><trkpt lat="41.09427061546296" lon="14.25667060060779"><ele>36.0</ele><time>2026-04-04T12:13:28.001Z</time></trkpt><trkpt lat="41.094290910922055" lon="14.256506607831392"><ele>36.0</ele><time>2026-04-04T12:13:29.001Z</time></trkpt><trkpt lat="41.094299497159696" lon="14.256325701388349"><ele>35.666666666666664</ele><time>2026-04-04T12:13:30.001Z</time></trkpt><trkpt lat="41.094297993683455" lon="14.256147339216668"><ele>35.33333333333333</ele><time>2026-04-04T12:13:31.001Z</time></trkpt><trkpt lat="41.09430012018778" lon="14.255933886782387"><ele>35.0</ele><time>2026-04-04T12:13:32.001Z</time></trkpt><trkpt lat="41.09430142914684" lon="14.255711597119596"><ele>35.33333333333333</ele><time>2026-04-04T12:13:33.001Z</time></trkpt><trkpt lat="41.094302827668116" lon="14.255469072359736"><ele>35.666666666666664</ele><time>2026-04-04T12:13:34.001Z</time></trkpt><trkpt lat="41.09431178987315" lon="14.255215606238382"><ele>36.0</ele><time>2026-04-04T12:13:35.001Z</time></trkpt><trkpt lat="41.09432797229985" lon="14.254979660544663"><ele>35.75</ele><time>2026-04-04T12:13:36.001Z</time></trkpt><trkpt lat="41.09434011138122" lon="14.254787339956438"><ele>35.5</ele><time>2026-04-04T12:13:37.001Z</time></trkpt><trkpt lat="41.094349629591754" lon="14.254608125347385"><ele>35.25</ele><time>2026-04-04T12:13:38.001Z</time></trkpt><trkpt lat="41.0943581958956" lon="14.254439348937304"><ele>35.0</ele><time>2026-04-04T12:13:39.001Z</time></trkpt><trkpt lat="41.09437112089599" lon="14.25428202667604"><ele>35.0</ele><time>2026-04-04T12:13:40.001Z</time></trkpt><trkpt lat="41.09438196983338" lon="14.254141336016742"><ele>35.0</ele><time>2026-04-04T12:13:41.001Z</time></trkpt><trkpt lat="41.09439461247883" lon="14.254000414714936"><ele>35.0</ele><time>2026-04-04T12:13:42.001Z</time></trkpt><trkpt lat="41.09441273866244" lon="14.253861772706074"><ele>35.0</ele><time>2026-04-04T12:13:43.001Z</time></trkpt><trkpt lat="41.09442291734517" lon="14.25374011471541"><ele>35.0</ele><time>2026-04-04T12:13:44.001Z</time></trkpt><trkpt lat="41.09441776478935" lon="14.253629311469554"><ele>34.8</ele><time>2026-04-04T12:13:45.001Z</time></trkpt><trkpt lat="41.09440453638615" lon="14.253514820100818"><ele>34.6</ele><time>2026-04-04T12:13:46.001Z</time></trkpt><trkpt lat="41.09440743630641" lon="14.25342309354015"><ele>34.4</ele><time>2026-04-04T12:13:47Z</time></trkpt><trkpt lat="41.09443157075733" lon="14.253292991657984"><ele>34.2</ele><time>2026-04-04T12:13:49Z</time></trkpt><trkpt lat="41.09457056899417" lon="14.253170362769927"><ele>34.0</ele><time>2026-04-04T12:13:51Z</time></trkpt><trkpt lat="41.094656055931296" lon="14.253165951030914"><ele>34.0</ele><time>2026-04-04T12:13:52Z</time></trkpt><trkpt lat="41.094760678552376" lon="14.253132459923032"><ele>34.0</ele><time>2026-04-04T12:13:53Z</time></trkpt><trkpt lat="41.094892717346106" lon="14.253108637536995"><ele>34.0</ele><time>2026-04-04T12:13:54Z</time></trkpt><trkpt lat="41.09504687425293" lon="14.253097009369357"><ele>34.0</ele><time>2026-04-04T12:13:55Z</time></trkpt><trkpt lat="41.095211998168516" lon="14.253086518939813"><ele>34.0</ele><time>2026-04-04T12:13:56Z</time></trkpt><trkpt lat="41.095387413467726" lon="14.253069928176071"><ele>34.0</ele><time>2026-04-04T12:13:57Z</time></trkpt><trkpt lat="41.09556294813295" lon="14.253051816276749"><ele>34.0</ele><time>2026-04-04T12:13:58Z</time></trkpt><trkpt lat="41.09572230998322" lon="14.253037376478062"><ele>34.0</ele><time>2026-04-04T12:13:59Z</time></trkpt><trkpt lat="41.09586717757023" lon="14.253024546860857"><ele>34.0</ele><time>2026-04-04T12:14:00Z</time></trkpt><trkpt lat="41.09600523461466" lon="14.253010630478931"><ele>34.0</ele><time>2026-04-04T12:14:01Z</time></trkpt><trkpt lat="41.09612795662308" lon="14.253014062079666"><ele>34.0</ele><time>2026-04-04T12:14:02Z</time></trkpt><trkpt lat="41.09623667099099" lon="14.253036216079364"><ele>34.0</ele><time>2026-04-04T12:14:03Z</time></trkpt><trkpt lat="41.096332970381766" lon="14.253066864120893"><ele>34.0</ele><time>2026-04-04T12:14:04Z</time></trkpt><trkpt lat="41.096423253678694" lon="14.253103540742238"><ele>34.0</ele><time>2026-04-04T12:14:05Z</time></trkpt><trkpt lat="41.09650236506332" lon="14.253150328212673"><ele>34.0</ele><time>2026-04-04T12:14:06Z</time></trkpt><trkpt lat="41.09657222660991" lon="14.253200127587304"><ele>34.0</ele><time>2026-04-04T12:14:07Z</time></trkpt><trkpt lat="41.0966596170463" lon="14.253288993536247"><ele>34.0</ele><time>2026-04-04T12:14:09Z</time></trkpt><trkpt lat="41.09673097133724" lon="14.253437767716973"><ele>34.0</ele><time>2026-04-04T12:14:11Z</time></trkpt><trkpt lat="41.09677532120243" lon="14.253509626228325"><ele>34.0</ele><time>2026-04-04T12:14:12Z</time></trkpt><trkpt lat="41.096832241589695" lon="14.25356583861027"><ele>34.0</ele><time>2026-04-04T12:14:13Z</time></trkpt><trkpt lat="41.09691684624931" lon="14.253609293144052"><ele>34.0</ele><time>2026-04-04T12:14:14Z</time></trkpt><trkpt lat="41.09700886505049" lon="14.253609633697714"><ele>34.0</ele><time>2026-04-04T12:14:15Z</time></trkpt><trkpt lat="41.09709366146348" lon="14.253561967571597"><ele>34.0</ele><time>2026-04-04T12:14:16Z</time></trkpt><trkpt lat="41.097161624912665" lon="14.25348256938513"><ele>34.0</ele><time>2026-04-04T12:14:17Z</time></trkpt><trkpt lat="41.097201149088896" lon="14.253379589020055"><ele>34.0</ele><time>2026-04-04T12:14:18Z</time></trkpt><trkpt lat="41.09721626883549" lon="14.253260629173413"><ele>34.0</ele><time>2026-04-04T12:14:19Z</time></trkpt><trkpt lat="41.09722821673302" lon="14.253140261042937"><ele>34.5</ele><time>2026-04-04T12:14:20Z</time></trkpt><trkpt lat="41.097237900518586" lon="14.253053279770329"><ele>35.0</ele><time>2026-04-04T12:14:21Z</time></trkpt><trkpt lat="41.097371558531385" lon="14.252944454078634"><ele>35.5</ele><time>2026-04-04T12:14:22Z</time></trkpt><trkpt lat="41.09749096676838" lon="14.25285764103577"><ele>36.0</ele><time>2026-04-04T12:14:23Z</time></trkpt><trkpt lat="41.09763654023758" lon="14.252809884617943"><ele>36.0</ele><time>2026-04-04T12:14:24Z</time></trkpt><trkpt lat="41.09781128974408" lon="14.252781768500045"><ele>36.0</ele><time>2026-04-04T12:14:25Z</time></trkpt><trkpt lat="41.097997082770924" lon="14.252770002358007"><ele>36.0</ele><time>2026-04-04T12:14:26Z</time></trkpt><trkpt lat="41.098192622106076" lon="14.252751027520242"><ele>35.666666666666664</ele><time>2026-04-04T12:14:27Z</time></trkpt><trkpt lat="41.09840303571384" lon="14.252725145845748"><ele>35.33333333333333</ele><time>2026-04-04T12:14:28Z</time></trkpt><trkpt lat="41.098624211262624" lon="14.252707497625604"><ele>35.0</ele><time>2026-04-04T12:14:29Z</time></trkpt><trkpt lat="41.098851829313745" lon="14.25268692196402"><ele>35.0</ele><time>2026-04-04T12:14:30Z</time></trkpt><trkpt lat="41.09908722882634" lon="14.252661659029886"><ele>35.0</ele><time>2026-04-04T12:14:31Z</time></trkpt><trkpt lat="41.09931711795701" lon="14.252630184025914"><ele>35.0</ele><time>2026-04-04T12:14:32Z</time></trkpt><trkpt lat="41.09954906443717" lon="14.252596473612417"><ele>35.0</ele><time>2026-04-04T12:14:33Z</time></trkpt><trkpt lat="41.09976807017824" lon="14.252568045098846"><ele>34.666666666666664</ele><time>2026-04-04T12:14:34Z</time></trkpt><trkpt lat="41.09997007517813" lon="14.25254528404045"><ele>34.333333333333336</ele><time>2026-04-04T12:14:35Z</time></trkpt><trkpt lat="41.10016004367743" lon="14.25252410163829"><ele>34.0</ele><time>2026-04-04T12:14:36Z</time></trkpt><trkpt lat="41.100349520860874" lon="14.252505217727641"><ele>34.0</ele><time>2026-04-04T12:14:37Z</time></trkpt><trkpt lat="41.1005363734684" lon="14.252481865519533"><ele>34.0</ele><time>2026-04-04T12:14:38Z</time></trkpt><trkpt lat="41.10071987133687" lon="14.252461963900512"><ele>34.0</ele><time>2026-04-04T12:14:39Z</time></trkpt><trkpt lat="41.10091198395654" lon="14.252444876270483"><ele>34.333333333333336</ele><time>2026-04-04T12:14:40Z</time></trkpt><trkpt lat="41.101103186840156" lon="14.252423813531166"><ele>34.666666666666664</ele><time>2026-04-04T12:14:41Z</time></trkpt><trkpt lat="41.10130104196031" lon="14.25240039515564"><ele>35.0</ele><time>2026-04-04T12:14:42Z</time></trkpt><trkpt lat="41.10150810300597" lon="14.252376907954726"><ele>35.33333333333333</ele><time>2026-04-04T12:14:43Z</time></trkpt><trkpt lat="41.10172679735059" lon="14.25235247832609"><ele>35.666666666666664</ele><time>2026-04-04T12:14:44Z</time></trkpt><trkpt lat="41.1019555038792" lon="14.252325340678244"><ele>36.0</ele><time>2026-04-04T12:14:45Z</time></trkpt><trkpt lat="41.10219065029473" lon="14.252302940658213"><ele>34.5</ele><time>2026-04-04T12:14:46Z</time></trkpt><trkpt lat="41.10242944021851" lon="14.252280221191867"><ele>33.0</ele><time>2026-04-04T12:14:47Z</time></trkpt><trkpt lat="41.102673965016976" lon="14.252254484206908"><ele>33.0</ele><time>2026-04-04T12:14:48Z</time></trkpt><trkpt lat="41.102924277315196" lon="14.25222884276014"><ele>33.0</ele><time>2026-04-04T12:14:49Z</time></trkpt><trkpt lat="41.103180850475425" lon="14.2522067829222"><ele>34.0</ele><time>2026-04-04T12:14:50Z</time></trkpt><trkpt lat="41.10343801159053" lon="14.252176402008736"><ele>35.0</ele><time>2026-04-04T12:14:51Z</time></trkpt><trkpt lat="41.10369463167705" lon="14.252146378041404"><ele>35.0</ele><time>2026-04-04T12:14:52Z</time></trkpt><trkpt lat="41.10395361739602" lon="14.252112924252"><ele>35.0</ele><time>2026-04-04T12:14:53Z</time></trkpt><trkpt lat="41.1042181108038" lon="14.252076649008192"><ele>35.0</ele><time>2026-04-04T12:14:54Z</time></trkpt><trkpt lat="41.104485736475375" lon="14.252047340658413"><ele>35.0</ele><time>2026-04-04T12:14:55.001Z</time></trkpt><trkpt lat="41.10475901981916" lon="14.252027911944422"><ele>34.5</ele><time>2026-04-04T12:14:56.001Z</time></trkpt><trkpt lat="41.10503319039124" lon="14.252003837699268"><ele>34.0</ele><time>2026-04-04T12:14:57.001Z</time></trkpt><trkpt lat="41.10530308738114" lon="14.251976201597811"><ele>34.0</ele><time>2026-04-04T12:14:58.001Z</time></trkpt><trkpt lat="41.10555139243178" lon="14.251950067511508"><ele>34.0</ele><time>2026-04-04T12:14:59.001Z</time></trkpt><trkpt lat="41.105796579864375" lon="14.251918566400132"><ele>34.333333333333336</ele><time>2026-04-04T12:15:00.001Z</time></trkpt><trkpt lat="41.10602893018607" lon="14.25189661059244"><ele>34.666666666666664</ele><time>2026-04-04T12:15:01.001Z</time></trkpt><trkpt lat="41.106243282901374" lon="14.251875797167331"><ele>35.0</ele><time>2026-04-04T12:15:02.001Z</time></trkpt><trkpt lat="41.106453279407795" lon="14.251848087334363"><ele>35.33333333333333</ele><time>2026-04-04T12:15:03.001Z</time></trkpt><trkpt lat="41.10665979369022" lon="14.251824179786924"><ele>35.666666666666664</ele><time>2026-04-04T12:15:04.001Z</time></trkpt><trkpt lat="41.10685983360254" lon="14.2518092319191"><ele>36.0</ele><time>2026-04-04T12:15:05.001Z</time></trkpt><trkpt lat="41.107061305165594" lon="14.251792208244474"><ele>36.0</ele><time>2026-04-04T12:15:06.001Z</time></trkpt><trkpt lat="41.10726478897374" lon="14.251767812242502"><ele>36.0</ele><time>2026-04-04T12:15:07.001Z</time></trkpt><trkpt lat="41.10747400185702" lon="14.251743165041026"><ele>36.0</ele><time>2026-04-04T12:15:08.001Z</time></trkpt><trkpt lat="41.10767077966907" lon="14.251725308799752"><ele>36.333333333333336</ele><time>2026-04-04T12:15:09.001Z</time></trkpt><trkpt lat="41.10786013062446" lon="14.251710752075589"><ele>36.66666666666667</ele><time>2026-04-04T12:15:10.001Z</time></trkpt><trkpt lat="41.1080374777358" lon="14.251693943417033"><ele>37.0</ele><time>2026-04-04T12:15:11.001Z</time></trkpt><trkpt lat="41.108186601524025" lon="14.251679047956697"><ele>37.2</ele><time>2026-04-04T12:15:12.001Z</time></trkpt><trkpt lat="41.1083063085695" lon="14.25166686697843"><ele>37.400000000000006</ele><time>2026-04-04T12:15:13.001Z</time></trkpt><trkpt lat="41.10840241554272" lon="14.251652601359751"><ele>37.599999999999994</ele><time>2026-04-04T12:15:14.001Z</time></trkpt><trkpt lat="41.108476946779966" lon="14.251640796298144"><ele>37.8</ele><time>2026-04-04T12:15:15.001Z</time></trkpt><trkpt lat="41.10857870278004" lon="14.251616941866121"><ele>38.0</ele><time>2026-04-04T12:15:17.001Z</time></trkpt><trkpt lat="41.10870016494177" lon="14.251587445776181"><ele>38.0</ele><time>2026-04-04T12:15:19.001Z</time></trkpt><trkpt lat="41.108789807402786" lon="14.251579136801402"><ele>38.0</ele><time>2026-04-04T12:15:20.001Z</time></trkpt><trkpt lat="41.10890244415096" lon="14.251581677017091"><ele>38.0</ele><time>2026-04-04T12:15:21.001Z</time></trkpt><trkpt lat="41.10901941614711" lon="14.251566882653755"><ele>38.0</ele><time>2026-04-04T12:15:22.001Z</time></trkpt><trkpt lat="41.109163284208755" lon="14.251525358650547"><ele>38.0</ele><time>2026-04-04T12:15:23.001Z</time></trkpt><trkpt lat="41.109305456503414" lon="14.251514227884044"><ele>38.0</ele><time>2026-04-04T12:15:24.001Z</time></trkpt><trkpt lat="41.10945649240531" lon="14.251513979519082"><ele>38.0</ele><time>2026-04-04T12:15:25.001Z</time></trkpt><trkpt lat="41.10961845393385" lon="14.251504563463163"><ele>38.0</ele><time>2026-04-04T12:15:26.001Z</time></trkpt><trkpt lat="41.10979501614534" lon="14.251480512167088"><ele>38.0</ele><time>2026-04-04T12:15:27.001Z</time></trkpt><trkpt lat="41.1099736561048" lon="14.251457251546372"><ele>38.0</ele><time>2026-04-04T12:15:28.001Z</time></trkpt><trkpt lat="41.11016393726499" lon="14.251435859525756"><ele>38.0</ele><time>2026-04-04T12:15:29.001Z</time></trkpt><trkpt lat="41.11037005212974" lon="14.251412603625104"><ele>38.0</ele><time>2026-04-04T12:15:30.001Z</time></trkpt><trkpt lat="41.110585879907454" lon="14.251392560139028"><ele>38.0</ele><time>2026-04-04T12:15:31.001Z</time></trkpt><trkpt lat="41.11081128082059" lon="14.251367436612322"><ele>38.0</ele><time>2026-04-04T12:15:32.001Z</time></trkpt><trkpt lat="41.11104916471438" lon="14.251358530949076"><ele>38.0</ele><time>2026-04-04T12:15:33.001Z</time></trkpt><trkpt lat="41.11127151753294" lon="14.251335224455406"><ele>38.0</ele><time>2026-04-04T12:15:34.001Z</time></trkpt><trkpt lat="41.111472972001714" lon="14.25131437622427"><ele>38.0</ele><time>2026-04-04T12:15:35.001Z</time></trkpt><trkpt lat="41.11164953779691" lon="14.251286771952064"><ele>38.0</ele><time>2026-04-04T12:15:36.001Z</time></trkpt><trkpt lat="41.11180870696645" lon="14.25128580431039"><ele>38.75</ele><time>2026-04-04T12:15:37.001Z</time></trkpt><trkpt lat="41.11195134552661" lon="14.251277143519985"><ele>39.5</ele><time>2026-04-04T12:15:38.001Z</time></trkpt><trkpt lat="41.11208314406674" lon="14.251261596409595"><ele>40.25</ele><time>2026-04-04T12:15:39.001Z</time></trkpt><trkpt lat="41.112226500930774" lon="14.25123571712437"><ele>41.0</ele><time>2026-04-04T12:15:40.001Z</time></trkpt><trkpt lat="41.11237945476622" lon="14.25120309655459"><ele>41.25</ele><time>2026-04-04T12:15:41.001Z</time></trkpt><trkpt lat="41.11250815439349" lon="14.25118842732956"><ele>41.5</ele><time>2026-04-04T12:15:42.001Z</time></trkpt><trkpt lat="41.11264561207378" lon="14.251177752192229"><ele>41.75</ele><time>2026-04-04T12:15:43.001Z</time></trkpt><trkpt lat="41.1127811025972" lon="14.251169231764152"><ele>42.0</ele><time>2026-04-04T12:15:44.001Z</time></trkpt><trkpt lat="41.11290153065248" lon="14.251148272472022"><ele>42.0</ele><time>2026-04-04T12:15:45.001Z</time></trkpt><trkpt lat="41.113028196352445" lon="14.251134439074045"><ele>42.0</ele><time>2026-04-04T12:15:46.001Z</time></trkpt><trkpt lat="41.11315851253021" lon="14.251123439707786"><ele>42.0</ele><time>2026-04-04T12:15:47.001Z</time></trkpt><trkpt lat="41.113289283602796" lon="14.251114607719598"><ele>42.0</ele><time>2026-04-04T12:15:48.001Z</time></trkpt><trkpt lat="41.113438987293826" lon="14.251087161628352"><ele>42.25</ele><time>2026-04-04T12:15:49.001Z</time></trkpt><trkpt lat="41.11358688965496" lon="14.251065183213308"><ele>42.5</ele><time>2026-04-04T12:15:50.001Z</time></trkpt><trkpt lat="41.11373512052308" lon="14.251051636499676"><ele>42.75</ele><time>2026-04-04T12:15:51.001Z</time></trkpt><trkpt lat="41.113881974102554" lon="14.251040690170331"><ele>43.0</ele><time>2026-04-04T12:15:52.001Z</time></trkpt><trkpt lat="41.11402069592634" lon="14.251024434798442"><ele>43.25</ele><time>2026-04-04T12:15:53Z</time></trkpt><trkpt lat="41.1141520767482" lon="14.251004533139636"><ele>43.5</ele><time>2026-04-04T12:15:54Z</time></trkpt><trkpt lat="41.11428382443905" lon="14.250987147581226"><ele>43.75</ele><time>2026-04-04T12:15:55Z</time></trkpt><trkpt lat="41.114410790885835" lon="14.250972230875785"><ele>44.0</ele><time>2026-04-04T12:15:56Z</time></trkpt><trkpt lat="41.11452956087046" lon="14.250960293827985"><ele>44.0</ele><time>2026-04-04T12:15:57Z</time></trkpt><trkpt lat="41.11465303266844" lon="14.25094680061406"><ele>44.0</ele><time>2026-04-04T12:15:58Z</time></trkpt><trkpt lat="41.11477739665628" lon="14.250933962113058"><ele>44.0</ele><time>2026-04-04T12:15:59Z</time></trkpt><trkpt lat="41.11490743586381" lon="14.250923381244975"><ele>44.0</ele><time>2026-04-04T12:16:00Z</time></trkpt><trkpt lat="41.1150566218434" lon="14.2509054563106"><ele>44.0</ele><time>2026-04-04T12:16:01Z</time></trkpt><trkpt lat="41.11521307522831" lon="14.250871443491816"><ele>44.0</ele><time>2026-04-04T12:16:02Z</time></trkpt><trkpt lat="41.11538136538901" lon="14.250848420545253"><ele>44.0</ele><time>2026-04-04T12:16:03Z</time></trkpt><trkpt lat="41.11553792598208" lon="14.250829002975449"><ele>44.0</ele><time>2026-04-04T12:16:04Z</time></trkpt><trkpt lat="41.11567853178465" lon="14.250815346271265"><ele>44.0</ele><time>2026-04-04T12:16:05Z</time></trkpt><trkpt lat="41.11581355143521" lon="14.250805074241747"><ele>44.0</ele><time>2026-04-04T12:16:06Z</time></trkpt><trkpt lat="41.115927665751485" lon="14.250796014932234"><ele>44.0</ele><time>2026-04-04T12:16:07Z</time></trkpt><trkpt lat="41.11604639204842" lon="14.250783535552642"><ele>43.666666666666664</ele><time>2026-04-04T12:16:08Z</time></trkpt><trkpt lat="41.11618195088762" lon="14.250776176876329"><ele>43.333333333333336</ele><time>2026-04-04T12:16:09Z</time></trkpt><trkpt lat="41.11633365005285" lon="14.250764404140968"><ele>43.0</ele><time>2026-04-04T12:16:10Z</time></trkpt><trkpt lat="41.1165078041919" lon="14.250728307413802"><ele>42.333333333333336</ele><time>2026-04-04T12:16:11Z</time></trkpt><trkpt lat="41.116711187076376" lon="14.250712192794253"><ele>41.666666666666664</ele><time>2026-04-04T12:16:12Z</time></trkpt><trkpt lat="41.11693072653005" lon="14.250688675808934"><ele>41.0</ele><time>2026-04-04T12:16:13Z</time></trkpt><trkpt lat="41.11716545192489" lon="14.250662259766045"><ele>41.5</ele><time>2026-04-04T12:16:14Z</time></trkpt><trkpt lat="41.117412415584084" lon="14.250634466427405"><ele>42.0</ele><time>2026-04-04T12:16:15Z</time></trkpt><trkpt lat="41.11766129937332" lon="14.250605171001123"><ele>42.0</ele><time>2026-04-04T12:16:16Z</time></trkpt><trkpt lat="41.117898886516734" lon="14.250577533624513"><ele>42.0</ele><time>2026-04-04T12:16:17Z</time></trkpt><trkpt lat="41.11811578950871" lon="14.250532733249798"><ele>42.666666666666664</ele><time>2026-04-04T12:16:18Z</time></trkpt><trkpt lat="41.11830819255168" lon="14.250515383556115"><ele>43.33333333333333</ele><time>2026-04-04T12:16:19Z</time></trkpt><trkpt lat="41.11848524511597" lon="14.250503587267326"><ele>44.0</ele><time>2026-04-04T12:16:20Z</time></trkpt><trkpt lat="41.11865054326012" lon="14.250504384319534"><ele>44.0</ele><time>2026-04-04T12:16:21Z</time></trkpt><trkpt lat="41.11879970733674" lon="14.25051677565452"><ele>44.0</ele><time>2026-04-04T12:16:22Z</time></trkpt><trkpt lat="41.11894302987135" lon="14.250534172823683"><ele>44.0</ele><time>2026-04-04T12:16:23Z</time></trkpt><trkpt lat="41.11905439514052" lon="14.250550292380229"><ele>44.0</ele><time>2026-04-04T12:16:24Z</time></trkpt><trkpt lat="41.1191579730235" lon="14.250574053461033"><ele>44.5</ele><time>2026-04-04T12:16:25Z</time></trkpt><trkpt lat="41.11924900347711" lon="14.250598733448859"><ele>45.0</ele><time>2026-04-04T12:16:26Z</time></trkpt><trkpt lat="41.1193356759468" lon="14.250613904433457"><ele>45.5</ele><time>2026-04-04T12:16:27Z</time></trkpt><trkpt lat="41.11941016331522" lon="14.25062882684861"><ele>46.0</ele><time>2026-04-04T12:16:28Z</time></trkpt><trkpt lat="41.11947920430578" lon="14.2506445818965"><ele>46.5</ele><time>2026-04-04T12:16:29Z</time></trkpt><trkpt lat="41.11954657059202" lon="14.250659955446693"><ele>47.0</ele><time>2026-04-04T12:16:30Z</time></trkpt><trkpt lat="41.1196224069903" lon="14.250670974615435"><ele>47.0</ele><time>2026-04-04T12:16:31Z</time></trkpt><trkpt lat="41.11969697496126" lon="14.250682608985462"><ele>47.0</ele><time>2026-04-04T12:16:32Z</time></trkpt><trkpt lat="41.1197708169814" lon="14.250691938264344"><ele>47.0</ele><time>2026-04-04T12:16:33Z</time></trkpt><trkpt lat="41.11985391896035" lon="14.250701012226257"><ele>47.0</ele><time>2026-04-04T12:16:34Z</time></trkpt><trkpt lat="41.11995299361282" lon="14.250707125700709"><ele>47.0</ele><time>2026-04-04T12:16:35Z</time></trkpt><trkpt lat="41.12004904818184" lon="14.250718238675137"><ele>47.0</ele><time>2026-04-04T12:16:36Z</time></trkpt><trkpt lat="41.12012549420987" lon="14.250728843976978"><ele>47.166666666666664</ele><time>2026-04-04T12:16:37Z</time></trkpt><trkpt lat="41.120197416872294" lon="14.25073702727144"><ele>47.33333333333333</ele><time>2026-04-04T12:16:38Z</time></trkpt><trkpt lat="41.12026076029339" lon="14.250740456610103"><ele>47.5</ele><time>2026-04-04T12:16:39Z</time></trkpt><trkpt lat="41.12032688061115" lon="14.25075014573546"><ele>47.666666666666664</ele><time>2026-04-04T12:16:40Z</time></trkpt><trkpt lat="41.12044133863003" lon="14.250753130130548"><ele>47.833333333333336</ele><time>2026-04-04T12:16:42Z</time></trkpt><trkpt lat="41.12051818680075" lon="14.250778452731343"><ele>48.0</ele><time>2026-04-04T12:16:43Z</time></trkpt><trkpt lat="41.1206392278908" lon="14.25078674799147"><ele>47.666666666666664</ele><time>2026-04-04T12:16:44Z</time></trkpt><trkpt lat="41.12077978265385" lon="14.250823796471076"><ele>47.33333333333333</ele><time>2026-04-04T12:16:45Z</time></trkpt><trkpt lat="41.12094612182808" lon="14.25085525948635"><ele>47.0</ele><time>2026-04-04T12:16:46Z</time></trkpt><trkpt lat="41.121125680824456" lon="14.250878680428597"><ele>47.0</ele><time>2026-04-04T12:16:47Z</time></trkpt><trkpt lat="41.12128149154252" lon="14.250896863930553"><ele>47.0</ele><time>2026-04-04T12:16:48Z</time></trkpt><trkpt lat="41.12140608952287" lon="14.250912027439647"><ele>47.0</ele><time>2026-04-04T12:16:49Z</time></trkpt><trkpt lat="41.12152599855427" lon="14.25092603709975"><ele>47.0</ele><time>2026-04-04T12:16:50Z</time></trkpt><trkpt lat="41.12166773437113" lon="14.25094123570305"><ele>47.33333333333333</ele><time>2026-04-04T12:16:51Z</time></trkpt><trkpt lat="41.121836116014464" lon="14.25096756953841"><ele>47.666666666666664</ele><time>2026-04-04T12:16:52Z</time></trkpt><trkpt lat="41.12200502015543" lon="14.250992416146483"><ele>48.0</ele><time>2026-04-04T12:16:53.001Z</time></trkpt><trkpt lat="41.122157031485344" lon="14.25101293849881"><ele>48.0</ele><time>2026-04-04T12:16:54.001Z</time></trkpt><trkpt lat="41.12229694826449" lon="14.25102986258469"><ele>48.0</ele><time>2026-04-04T12:16:55.001Z</time></trkpt><trkpt lat="41.12243406609016" lon="14.251047046368203"><ele>48.0</ele><time>2026-04-04T12:16:56.001Z</time></trkpt><trkpt lat="41.12256419908524" lon="14.251069389345503"><ele>48.0</ele><time>2026-04-04T12:16:57.001Z</time></trkpt><trkpt lat="41.1226704822551" lon="14.251100328391257"><ele>48.0</ele><time>2026-04-04T12:16:58.001Z</time></trkpt><trkpt lat="41.12278540198513" lon="14.251106122179912"><ele>48.0</ele><time>2026-04-04T12:16:59.001Z</time></trkpt><trkpt lat="41.122935139316624" lon="14.251102324268581"><ele>48.0</ele><time>2026-04-04T12:17:00.001Z</time></trkpt><trkpt lat="41.12309664069321" lon="14.251117200051285"><ele>48.0</ele><time>2026-04-04T12:17:01.001Z</time></trkpt><trkpt lat="41.12327045148193" lon="14.2511395684093"><ele>48.33333333333333</ele><time>2026-04-04T12:17:02.001Z</time></trkpt><trkpt lat="41.123455620076214" lon="14.251170117398907"><ele>48.666666666666664</ele><time>2026-04-04T12:17:03.001Z</time></trkpt><trkpt lat="41.123632643430724" lon="14.251193840075643"><ele>49.0</ele><time>2026-04-04T12:17:04.001Z</time></trkpt><trkpt lat="41.12378225561961" lon="14.251213928599528"><ele>49.0</ele><time>2026-04-04T12:17:05.001Z</time></trkpt><trkpt lat="41.123902253947485" lon="14.251227925525491"><ele>49.0</ele><time>2026-04-04T12:17:06.001Z</time></trkpt><trkpt lat="41.12402184000938" lon="14.251242687294294"><ele>49.0</ele><time>2026-04-04T12:17:07.001Z</time></trkpt><trkpt lat="41.12416072918622" lon="14.25125743125344"><ele>49.0</ele><time>2026-04-04T12:17:08.001Z</time></trkpt><trkpt lat="41.12430419684862" lon="14.251281169307202"><ele>48.75</ele><time>2026-04-04T12:17:09.001Z</time></trkpt><trkpt lat="41.12445056348561" lon="14.251297693395712"><ele>48.5</ele><time>2026-04-04T12:17:10.001Z</time></trkpt><trkpt lat="41.12458239775079" lon="14.251311662189641"><ele>48.25</ele><time>2026-04-04T12:17:11.001Z</time></trkpt><trkpt lat="41.12471116487942" lon="14.251324716135406"><ele>48.0</ele><time>2026-04-04T12:17:12.001Z</time></trkpt><trkpt lat="41.12484171385475" lon="14.251345910509379"><ele>48.5</ele><time>2026-04-04T12:17:13.001Z</time></trkpt><trkpt lat="41.124971468300515" lon="14.251372407737811"><ele>49.0</ele><time>2026-04-04T12:17:14.001Z</time></trkpt><trkpt lat="41.12510294213874" lon="14.251395008785812"><ele>49.5</ele><time>2026-04-04T12:17:15.001Z</time></trkpt><trkpt lat="41.125246869640215" lon="14.25143479730724"><ele>50.0</ele><time>2026-04-04T12:17:16.001Z</time></trkpt><trkpt lat="41.125404979106506" lon="14.251514108013055"><ele>50.0</ele><time>2026-04-04T12:17:17.001Z</time></trkpt><trkpt lat="41.12557982846221" lon="14.251606287494361"><ele>50.0</ele><time>2026-04-04T12:17:18.001Z</time></trkpt><trkpt lat="41.12577739711674" lon="14.251699785215257"><ele>50.0</ele><time>2026-04-04T12:17:19.001Z</time></trkpt><trkpt lat="41.12597779279977" lon="14.251798003846"><ele>49.66666666666667</ele><time>2026-04-04T12:17:20.001Z</time></trkpt><trkpt lat="41.12617697575214" lon="14.25190256161497"><ele>49.33333333333333</ele><time>2026-04-04T12:17:21.001Z</time></trkpt><trkpt lat="41.126374123443405" lon="14.252025834820577"><ele>49.0</ele><time>2026-04-04T12:17:22.001Z</time></trkpt><trkpt lat="41.126563558589034" lon="14.252165710887107"><ele>48.33333333333333</ele><time>2026-04-04T12:17:23.001Z</time></trkpt><trkpt lat="41.12673999135705" lon="14.252324700107787"><ele>47.666666666666664</ele><time>2026-04-04T12:17:24.001Z</time></trkpt><trkpt lat="41.12691157521115" lon="14.252487464596445"><ele>47.0</ele><time>2026-04-04T12:17:25.001Z</time></trkpt><trkpt lat="41.12708021549954" lon="14.252668484479482"><ele>47.0</ele><time>2026-04-04T12:17:26.001Z</time></trkpt><trkpt lat="41.127246296313395" lon="14.25286520123322"><ele>47.0</ele><time>2026-04-04T12:17:27.001Z</time></trkpt><trkpt lat="41.12741132521972" lon="14.253076907564493"><ele>45.0</ele><time>2026-04-04T12:17:28.001Z</time></trkpt><trkpt lat="41.127576987059776" lon="14.253295818375532"><ele>43.0</ele><time>2026-04-04T12:17:29.001Z</time></trkpt><trkpt lat="41.127743542843625" lon="14.253532546076402"><ele>43.0</ele><time>2026-04-04T12:17:30.001Z</time></trkpt><trkpt lat="41.12790788782134" lon="14.253774077357802"><ele>43.0</ele><time>2026-04-04T12:17:31.001Z</time></trkpt><trkpt lat="41.128072409646705" lon="14.254020107951503"><ele>42.5</ele><time>2026-04-04T12:17:32.001Z</time></trkpt><trkpt lat="41.12823153194661" lon="14.25427656877288"><ele>42.0</ele><time>2026-04-04T12:17:33.001Z</time></trkpt><trkpt lat="41.128386952419675" lon="14.254538343353186"><ele>42.5</ele><time>2026-04-04T12:17:34.001Z</time></trkpt><trkpt lat="41.12853707279558" lon="14.25480358087672"><ele>43.0</ele><time>2026-04-04T12:17:35.001Z</time></trkpt><trkpt lat="41.1286709180598" lon="14.255065801068403"><ele>43.0</ele><time>2026-04-04T12:17:36.001Z</time></trkpt><trkpt lat="41.12879029820388" lon="14.255315997006868"><ele>43.0</ele><time>2026-04-04T12:17:37.001Z</time></trkpt><trkpt lat="41.12890105288107" lon="14.255568259798823"><ele>43.0</ele><time>2026-04-04T12:17:38.001Z</time></trkpt><trkpt lat="41.12899749876813" lon="14.25580378357147"><ele>42.0</ele><time>2026-04-04T12:17:39.001Z</time></trkpt><trkpt lat="41.12906081342631" lon="14.256032180601787"><ele>41.0</ele><time>2026-04-04T12:17:40.001Z</time></trkpt><trkpt lat="41.12912891944095" lon="14.256253834552604"><ele>40.0</ele><time>2026-04-04T12:17:41.001Z</time></trkpt><trkpt lat="41.12918515958969" lon="14.256478482405559"><ele>39.66666666666667</ele><time>2026-04-04T12:17:42.001Z</time></trkpt><trkpt lat="41.129227634635946" lon="14.256694142208202"><ele>39.333333333333336</ele><time>2026-04-04T12:17:43.001Z</time></trkpt><trkpt lat="41.129267358730445" lon="14.256913188629541"><ele>39.0</ele><time>2026-04-04T12:17:44.001Z</time></trkpt><trkpt lat="41.12930255642148" lon="14.257107755112896"><ele>39.0</ele><time>2026-04-04T12:17:45.001Z</time></trkpt><trkpt lat="41.1293390145266" lon="14.257306953152842"><ele>39.0</ele><time>2026-04-04T12:17:46.001Z</time></trkpt><trkpt lat="41.129375996739604" lon="14.257510029591186"><ele>39.0</ele><time>2026-04-04T12:17:47.001Z</time></trkpt><trkpt lat="41.12941144795796" lon="14.257712487703431"><ele>39.0</ele><time>2026-04-04T12:17:48.001Z</time></trkpt><trkpt lat="41.129446237666386" lon="14.257910018848424"><ele>39.0</ele><time>2026-04-04T12:17:49.001Z</time></trkpt><trkpt lat="41.12947821799379" lon="14.258089330742298"><ele>39.0</ele><time>2026-04-04T12:17:50.001Z</time></trkpt><trkpt lat="41.12950958393589" lon="14.258262780382374"><ele>39.0</ele><time>2026-04-04T12:17:51.001Z</time></trkpt><trkpt lat="41.1295398670122" lon="14.258430241953981"><ele>38.75</ele><time>2026-04-04T12:17:52.001Z</time></trkpt><trkpt lat="41.129585128337354" lon="14.258589674175644"><ele>38.5</ele><time>2026-04-04T12:17:53.001Z</time></trkpt><trkpt lat="41.129597507670915" lon="14.258746979795522"><ele>38.25</ele><time>2026-04-04T12:17:54.001Z</time></trkpt><trkpt lat="41.12962192300944" lon="14.258877399229316"><ele>38.0</ele><time>2026-04-04T12:17:55.001Z</time></trkpt><trkpt lat="41.12964711461354" lon="14.259011966042674"><ele>38.0</ele><time>2026-04-04T12:17:56.001Z</time></trkpt><trkpt lat="41.12968741146374" lon="14.259135745248795"><ele>38.0</ele><time>2026-04-04T12:17:57.001Z</time></trkpt><trkpt lat="41.129709173217" lon="14.25925196482896"><ele>38.0</ele><time>2026-04-04T12:17:58.001Z</time></trkpt><trkpt lat="41.129713886192555" lon="14.259371525877462"><ele>38.0</ele><time>2026-04-04T12:17:59Z</time></trkpt><trkpt lat="41.12973154272901" lon="14.259477986842096"><ele>38.0</ele><time>2026-04-04T12:18:00Z</time></trkpt><trkpt lat="41.129747460824454" lon="14.259565415980298"><ele>38.0</ele><time>2026-04-04T12:18:01Z</time></trkpt><trkpt lat="41.12976225626907" lon="14.259651216535666"><ele>38.5</ele><time>2026-04-04T12:18:02Z</time></trkpt><trkpt lat="41.12977697265114" lon="14.25979038019019"><ele>39.0</ele><time>2026-04-04T12:18:04Z</time></trkpt><trkpt lat="41.129923901568084" lon="14.259818805496355"><ele>39.5</ele><time>2026-04-04T12:18:05Z</time></trkpt><trkpt lat="41.13002594471867" lon="14.259862332682276"><ele>40.0</ele><time>2026-04-04T12:18:06Z</time></trkpt><trkpt lat="41.13016248378612" lon="14.259862538341023"><ele>38.333333333333336</ele><time>2026-04-04T12:18:07Z</time></trkpt><trkpt lat="41.13032175908916" lon="14.259922386856738"><ele>36.666666666666664</ele><time>2026-04-04T12:18:08Z</time></trkpt><trkpt lat="41.13048718865374" lon="14.259966082294019"><ele>35.0</ele><time>2026-04-04T12:18:09Z</time></trkpt><trkpt lat="41.13065551572903" lon="14.259999151535405"><ele>33.0</ele><time>2026-04-04T12:18:10Z</time></trkpt><trkpt lat="41.130819318737636" lon="14.260049949319132"><ele>31.0</ele><time>2026-04-04T12:18:11Z</time></trkpt><trkpt lat="41.1309822808387" lon="14.260092832294871"><ele>29.0</ele><time>2026-04-04T12:18:12Z</time></trkpt><trkpt lat="41.13113779863634" lon="14.26013102323162"><ele>29.0</ele><time>2026-04-04T12:18:13Z</time></trkpt><trkpt lat="41.131291951231745" lon="14.26016668306542"><ele>29.0</ele><time>2026-04-04T12:18:14Z</time></trkpt><trkpt lat="41.1314407774844" lon="14.260207260323597"><ele>29.0</ele><time>2026-04-04T12:18:15Z</time></trkpt><trkpt lat="41.13158785364296" lon="14.260237508624423"><ele>27.75</ele><time>2026-04-04T12:18:16Z</time></trkpt><trkpt lat="41.131735366360914" lon="14.260267537435013"><ele>26.5</ele><time>2026-04-04T12:18:17Z</time></trkpt><trkpt lat="41.13188541842783" lon="14.26030941833258"><ele>25.25</ele><time>2026-04-04T12:18:18Z</time></trkpt><trkpt lat="41.1320242036229" lon="14.260353708610232"><ele>24.0</ele><time>2026-04-04T12:18:19Z</time></trkpt><trkpt lat="41.13215301209569" lon="14.260387594872304"><ele>24.0</ele><time>2026-04-04T12:18:20Z</time></trkpt><trkpt lat="41.13227722348207" lon="14.26042039034179"><ele>24.0</ele><time>2026-04-04T12:18:21Z</time></trkpt><trkpt lat="41.13239441466088" lon="14.260452070502154"><ele>24.0</ele><time>2026-04-04T12:18:22Z</time></trkpt><trkpt lat="41.1325019868666" lon="14.26047816428781"><ele>24.0</ele><time>2026-04-04T12:18:23Z</time></trkpt><trkpt lat="41.13259054882807" lon="14.26050059864077"><ele>24.0</ele><time>2026-04-04T12:18:24Z</time></trkpt><trkpt lat="41.13266315457234" lon="14.260529658683975"><ele>25.75</ele><time>2026-04-04T12:18:25Z</time></trkpt><trkpt lat="41.132758864048085" lon="14.260555106246168"><ele>27.5</ele><time>2026-04-04T12:18:27Z</time></trkpt><trkpt lat="41.13278593541517" lon="14.260744816657043"><ele>29.25</ele><time>2026-04-04T12:18:28Z</time></trkpt><trkpt lat="41.13278187800708" lon="14.260920126996263"><ele>31.0</ele><time>2026-04-04T12:18:29Z</time></trkpt><trkpt lat="41.132784889343185" lon="14.261119437797886"><ele>31.0</ele><time>2026-04-04T12:18:30Z</time></trkpt><trkpt lat="41.13278771658181" lon="14.261346275588176"><ele>31.0</ele><time>2026-04-04T12:18:31Z</time></trkpt><trkpt lat="41.13279041771658" lon="14.261589200501863"><ele>31.0</ele><time>2026-04-04T12:18:32Z</time></trkpt><trkpt lat="41.13279359908484" lon="14.261848434376178"><ele>31.333333333333336</ele><time>2026-04-04T12:18:33Z</time></trkpt><trkpt lat="41.13279747501448" lon="14.262125404246147"><ele>31.666666666666664</ele><time>2026-04-04T12:18:34Z</time></trkpt><trkpt lat="41.132800093361936" lon="14.262411890914535"><ele>32.0</ele><time>2026-04-04T12:18:35Z</time></trkpt><trkpt lat="41.1328024308778" lon="14.26270450901515"><ele>32.0</ele><time>2026-04-04T12:18:36Z</time></trkpt><trkpt lat="41.13280485346441" lon="14.26300777382021"><ele>32.0</ele><time>2026-04-04T12:18:37Z</time></trkpt><trkpt lat="41.13280712097315" lon="14.263312209855439"><ele>31.333333333333332</ele><time>2026-04-04T12:18:38Z</time></trkpt><trkpt lat="41.13280983566765" lon="14.26361172637667"><ele>30.666666666666664</ele><time>2026-04-04T12:18:39Z</time></trkpt><trkpt lat="41.13281254742229" lon="14.263908113157845"><ele>30.0</ele><time>2026-04-04T12:18:40Z</time></trkpt><trkpt lat="41.13281522360383" lon="14.264200611869677"><ele>29.666666666666664</ele><time>2026-04-04T12:18:41Z</time></trkpt><trkpt lat="41.13281840128728" lon="14.264488547324547"><ele>29.333333333333332</ele><time>2026-04-04T12:18:42Z</time></trkpt><trkpt lat="41.13282400011663" lon="14.264772594469084"><ele>29.0</ele><time>2026-04-04T12:18:43Z</time></trkpt><trkpt lat="41.1328303439549" lon="14.265054999741253"><ele>28.666666666666664</ele><time>2026-04-04T12:18:44Z</time></trkpt><trkpt lat="41.13285413435819" lon="14.265332259660152"><ele>28.333333333333336</ele><time>2026-04-04T12:18:45Z</time></trkpt><trkpt lat="41.132906728814014" lon="14.2655732453532"><ele>28.0</ele><time>2026-04-04T12:18:46Z</time></trkpt><trkpt lat="41.13290260719672" lon="14.26581274423736"><ele>27.0</ele><time>2026-04-04T12:18:47Z</time></trkpt><trkpt lat="41.132906562821375" lon="14.266039744289278"><ele>26.0</ele><time>2026-04-04T12:18:48Z</time></trkpt><trkpt lat="41.13293035284148" lon="14.266231230468176"><ele>25.0</ele><time>2026-04-04T12:18:49Z</time></trkpt><trkpt lat="41.13294046824357" lon="14.266410294675321"><ele>24.0</ele><time>2026-04-04T12:18:50Z</time></trkpt><trkpt lat="41.13296459836654" lon="14.266585848058261"><ele>23.0</ele><time>2026-04-04T12:18:51Z</time></trkpt><trkpt lat="41.13299420523067" lon="14.266760619707421"><ele>22.0</ele><time>2026-04-04T12:18:52Z</time></trkpt><trkpt lat="41.13302258267533" lon="14.266922923934883"><ele>21.0</ele><time>2026-04-04T12:18:53Z</time></trkpt><trkpt lat="41.133051012678514" lon="14.26706819944339"><ele>21.0</ele><time>2026-04-04T12:18:54Z</time></trkpt><trkpt lat="41.13307573903381" lon="14.26721212460684"><ele>21.0</ele><time>2026-04-04T12:18:55.001Z</time></trkpt><trkpt lat="41.13311350810425" lon="14.267359420160394"><ele>21.0</ele><time>2026-04-04T12:18:56.001Z</time></trkpt><trkpt lat="41.13317264381109" lon="14.267506258041067"><ele>21.0</ele><time>2026-04-04T12:18:57.001Z</time></trkpt><trkpt lat="41.13323765282228" lon="14.267632117178742"><ele>23.0</ele><time>2026-04-04T12:18:58.001Z</time></trkpt><trkpt lat="41.13331247014122" lon="14.267740895736987"><ele>25.0</ele><time>2026-04-04T12:18:59.001Z</time></trkpt><trkpt lat="41.133376087019826" lon="14.267855873913465"><ele>27.0</ele><time>2026-04-04T12:19:00.001Z</time></trkpt><trkpt lat="41.13345595466909" lon="14.267953887250254"><ele>29.0</ele><time>2026-04-04T12:19:01.001Z</time></trkpt><trkpt lat="41.13355541189592" lon="14.2680706772118"><ele>27.666666666666664</ele><time>2026-04-04T12:19:02.001Z</time></trkpt><trkpt lat="41.13367406793424" lon="14.26819783350317"><ele>26.333333333333336</ele><time>2026-04-04T12:19:03.001Z</time></trkpt><trkpt lat="41.13380903255646" lon="14.26834330286137"><ele>25.0</ele><time>2026-04-04T12:19:04.001Z</time></trkpt><trkpt lat="41.133952821715525" lon="14.26849828204055"><ele>27.0</ele><time>2026-04-04T12:19:05.001Z</time></trkpt><trkpt lat="41.13409555984078" lon="14.268621037754627"><ele>29.0</ele><time>2026-04-04T12:19:06.001Z</time></trkpt><trkpt lat="41.13423354561542" lon="14.268754532308296"><ele>31.0</ele><time>2026-04-04T12:19:07.001Z</time></trkpt><trkpt lat="41.13440686242671" lon="14.26886066899349"><ele>31.0</ele><time>2026-04-04T12:19:08.001Z</time></trkpt><trkpt lat="41.13459095193277" lon="14.268942274918011"><ele>31.0</ele><time>2026-04-04T12:19:09.001Z</time></trkpt><trkpt lat="41.13475928157347" lon="14.269009640293099"><ele>31.0</ele><time>2026-04-04T12:19:10.001Z</time></trkpt><trkpt lat="41.134909754260825" lon="14.269096798198227"><ele>30.25</ele><time>2026-04-04T12:19:11.001Z</time></trkpt><trkpt lat="41.13505426167848" lon="14.2691596949374"><ele>29.5</ele><time>2026-04-04T12:19:12.001Z</time></trkpt><trkpt lat="41.1351862881194" lon="14.26919481662323"><ele>28.75</ele><time>2026-04-04T12:19:13.001Z</time></trkpt><trkpt lat="41.135298357783476" lon="14.269254209345553"><ele>28.0</ele><time>2026-04-04T12:19:14.001Z</time></trkpt><trkpt lat="41.1353903441763" lon="14.269327946271744"><ele>28.0</ele><time>2026-04-04T12:19:15.001Z</time></trkpt><trkpt lat="41.13545869395935" lon="14.26943161722966"><ele>27.999999999999996</ele><time>2026-04-04T12:19:16.001Z</time></trkpt><trkpt lat="41.13548988644541" lon="14.269583920872948"><ele>27.999999999999996</ele><time>2026-04-04T12:19:17.001Z</time></trkpt><trkpt lat="41.135547141630155" lon="14.269723513006692"><ele>28.0</ele><time>2026-04-04T12:19:18.001Z</time></trkpt><trkpt lat="41.13561248098525" lon="14.26983587676575"><ele>28.0</ele><time>2026-04-04T12:19:19.001Z</time></trkpt><trkpt lat="41.13570565265497" lon="14.269914270940212"><ele>28.0</ele><time>2026-04-04T12:19:20.001Z</time></trkpt><trkpt lat="41.135810681400386" lon="14.26994747673174"><ele>28.0</ele><time>2026-04-04T12:19:21.001Z</time></trkpt><trkpt lat="41.135940462267705" lon="14.269942074792494"><ele>28.0</ele><time>2026-04-04T12:19:22.001Z</time></trkpt><trkpt lat="41.13609100020076" lon="14.26991638468668"><ele>28.0</ele><time>2026-04-04T12:19:23.001Z</time></trkpt><trkpt lat="41.13626039818412" lon="14.269880599013415"><ele>28.0</ele><time>2026-04-04T12:19:24.001Z</time></trkpt><trkpt lat="41.136444661426445" lon="14.269840896740103"><ele>28.0</ele><time>2026-04-04T12:19:25.001Z</time></trkpt><trkpt lat="41.13664221047526" lon="14.26979232033264"><ele>28.0</ele><time>2026-04-04T12:19:26.001Z</time></trkpt><trkpt lat="41.1368487697757" lon="14.269747229889672"><ele>28.0</ele><time>2026-04-04T12:19:27.001Z</time></trkpt><trkpt lat="41.137064756589204" lon="14.269701028090662"><ele>28.0</ele><time>2026-04-04T12:19:28.001Z</time></trkpt><trkpt lat="41.13728779758788" lon="14.269653244443708"><ele>28.0</ele><time>2026-04-04T12:19:29.001Z</time></trkpt><trkpt lat="41.137513418348476" lon="14.269601938281752"><ele>27.5</ele><time>2026-04-04T12:19:30.001Z</time></trkpt><trkpt lat="41.13774587414381" lon="14.269552871962883"><ele>27.0</ele><time>2026-04-04T12:19:31.001Z</time></trkpt><trkpt lat="41.13798131256748" lon="14.269502582354143"><ele>27.0</ele><time>2026-04-04T12:19:32.001Z</time></trkpt><trkpt lat="41.138215193386365" lon="14.269450954436005"><ele>27.0</ele><time>2026-04-04T12:19:33.001Z</time></trkpt><trkpt lat="41.13844694069364" lon="14.269398789082345"><ele>28.0</ele><time>2026-04-04T12:19:34.001Z</time></trkpt><trkpt lat="41.13867975493299" lon="14.269348976399392"><ele>29.0</ele><time>2026-04-04T12:19:35.001Z</time></trkpt><trkpt lat="41.13891010440319" lon="14.269301186994007"><ele>29.0</ele><time>2026-04-04T12:19:36.001Z</time></trkpt><trkpt lat="41.1391277065388" lon="14.269252161877825"><ele>29.0</ele><time>2026-04-04T12:19:37.001Z</time></trkpt><trkpt lat="41.139329573518204" lon="14.269201621043877"><ele>29.0</ele><time>2026-04-04T12:19:38.001Z</time></trkpt><trkpt lat="41.13952171266795" lon="14.269159938453676"><ele>29.0</ele><time>2026-04-04T12:19:39.001Z</time></trkpt><trkpt lat="41.1397028240134" lon="14.269133063280403"><ele>29.0</ele><time>2026-04-04T12:19:40.001Z</time></trkpt><trkpt lat="41.139895239357166" lon="14.269130882673306"><ele>29.0</ele><time>2026-04-04T12:19:41.001Z</time></trkpt><trkpt lat="41.14009799313607" lon="14.269162587057508"><ele>29.333333333333332</ele><time>2026-04-04T12:19:42.001Z</time></trkpt><trkpt lat="41.14029579160852" lon="14.269226934637576"><ele>29.666666666666664</ele><time>2026-04-04T12:19:43.001Z</time></trkpt><trkpt lat="41.1404885325478" lon="14.269351617449878"><ele>30.0</ele><time>2026-04-04T12:19:44.001Z</time></trkpt><trkpt lat="41.140699579958486" lon="14.269449644104416"><ele>31.5</ele><time>2026-04-04T12:19:45.001Z</time></trkpt><trkpt lat="41.140904173156656" lon="14.269578793088117"><ele>33.0</ele><time>2026-04-04T12:19:46.001Z</time></trkpt><trkpt lat="41.14111072579768" lon="14.269701916296114"><ele>32.0</ele><time>2026-04-04T12:19:47.001Z</time></trkpt><trkpt lat="41.1413204971072" lon="14.269823343962496"><ele>31.0</ele><time>2026-04-04T12:19:48.001Z</time></trkpt><trkpt lat="41.141533869439094" lon="14.269944744152726"><ele>32.0</ele><time>2026-04-04T12:19:49.001Z</time></trkpt><trkpt lat="41.1417567387176" lon="14.270067118017659"><ele>33.0</ele><time>2026-04-04T12:19:50.001Z</time></trkpt><trkpt lat="41.141980237570806" lon="14.270195285302504"><ele>33.0</ele><time>2026-04-04T12:19:51.001Z</time></trkpt><trkpt lat="41.142206059356596" lon="14.270322289874537"><ele>33.0</ele><time>2026-04-04T12:19:52.001Z</time></trkpt><trkpt lat="41.142429655855906" lon="14.270456821775431"><ele>36.0</ele><time>2026-04-04T12:19:53.001Z</time></trkpt><trkpt lat="41.14264547027323" lon="14.270585515349126"><ele>39.0</ele><time>2026-04-04T12:19:54.001Z</time></trkpt><trkpt lat="41.14284425236307" lon="14.270694196577105"><ele>39.333333333333336</ele><time>2026-04-04T12:19:55.001Z</time></trkpt><trkpt lat="41.1430290585333" lon="14.270797141549131"><ele>39.66666666666667</ele><time>2026-04-04T12:19:56.001Z</time></trkpt><trkpt lat="41.14320460584233" lon="14.27091380555982"><ele>40.0</ele><time>2026-04-04T12:19:57.001Z</time></trkpt><trkpt lat="41.14337929157389" lon="14.271058711000713"><ele>40.66666666666667</ele><time>2026-04-04T12:19:58.001Z</time></trkpt><trkpt lat="41.14354668360003" lon="14.271228693036496"><ele>41.333333333333336</ele><time>2026-04-04T12:19:59.001Z</time></trkpt><trkpt lat="41.14369134198926" lon="14.271396074504233"><ele>42.0</ele><time>2026-04-04T12:20:00.001Z</time></trkpt><trkpt lat="41.14382150461745" lon="14.27155149647996"><ele>42.0</ele><time>2026-04-04T12:20:01.001Z</time></trkpt><trkpt lat="41.14393978755581" lon="14.271701617158469"><ele>42.0</ele><time>2026-04-04T12:20:02.001Z</time></trkpt><trkpt lat="41.144039256946684" lon="14.271857020349614"><ele>42.0</ele><time>2026-04-04T12:20:03.001Z</time></trkpt><trkpt lat="41.14410518801653" lon="14.27202444076278"><ele>42.2</ele><time>2026-04-04T12:20:04.001Z</time></trkpt><trkpt lat="41.14413962477937" lon="14.272166337774577"><ele>42.400000000000006</ele><time>2026-04-04T12:20:05Z</time></trkpt><trkpt lat="41.14415724068201" lon="14.272295062707808"><ele>42.599999999999994</ele><time>2026-04-04T12:20:06Z</time></trkpt><trkpt lat="41.144167060095725" lon="14.272405433363543"><ele>42.8</ele><time>2026-04-04T12:20:07Z</time></trkpt><trkpt lat="41.14416215982836" lon="14.272501133394845"><ele>43.0</ele><time>2026-04-04T12:20:08Z</time></trkpt><trkpt lat="41.14411325840252" lon="14.272665899509144"><ele>43.16666666666667</ele><time>2026-04-04T12:20:10Z</time></trkpt><trkpt lat="41.14408815310227" lon="14.272748014972327"><ele>43.333333333333336</ele><time>2026-04-04T12:20:11Z</time></trkpt><trkpt lat="41.14406232660961" lon="14.272897203111885"><ele>43.5</ele><time>2026-04-04T12:20:13Z</time></trkpt><trkpt lat="41.144094704502045" lon="14.27304181500118"><ele>43.666666666666664</ele><time>2026-04-04T12:20:15Z</time></trkpt><trkpt lat="41.144140651066756" lon="14.273101566607131"><ele>43.83333333333333</ele><time>2026-04-04T12:20:16Z</time></trkpt><trkpt lat="41.14420819914585" lon="14.273134854558872"><ele>44.0</ele><time>2026-04-04T12:20:17Z</time></trkpt><trkpt lat="41.144289708649936" lon="14.273122628616298"><ele>44.0</ele><time>2026-04-04T12:20:18Z</time></trkpt><trkpt lat="41.14435945195836" lon="14.273068854856533"><ele>44.0</ele><time>2026-04-04T12:20:19Z</time></trkpt><trkpt lat="41.14440830826911" lon="14.27298154477425"><ele>44.0</ele><time>2026-04-04T12:20:20Z</time></trkpt><trkpt lat="41.14442474350956" lon="14.272866339480315"><ele>44.0</ele><time>2026-04-04T12:20:21Z</time></trkpt><trkpt lat="41.14441569169645" lon="14.27272536364712"><ele>44.0</ele><time>2026-04-04T12:20:22Z</time></trkpt><trkpt lat="41.14440024365322" lon="14.27258768950481"><ele>44.0</ele><time>2026-04-04T12:20:23Z</time></trkpt><trkpt lat="41.14442490878364" lon="14.272442983952054"><ele>44.0</ele><time>2026-04-04T12:20:24Z</time></trkpt><trkpt lat="41.14448998200391" lon="14.2722587940779"><ele>44.0</ele><time>2026-04-04T12:20:25Z</time></trkpt><trkpt lat="41.14458401782514" lon="14.272071607724332"><ele>44.0</ele><time>2026-04-04T12:20:26Z</time></trkpt><trkpt lat="41.144697241117825" lon="14.271909052888471"><ele>43.666666666666664</ele><time>2026-04-04T12:20:27Z</time></trkpt><trkpt lat="41.14482672803507" lon="14.271773091706189"><ele>43.333333333333336</ele><time>2026-04-04T12:20:28Z</time></trkpt><trkpt lat="41.1449816593589" lon="14.27165830827456"><ele>43.0</ele><time>2026-04-04T12:20:29Z</time></trkpt><trkpt lat="41.14516690644522" lon="14.271562563541602"><ele>43.333333333333336</ele><time>2026-04-04T12:20:30Z</time></trkpt><trkpt lat="41.145368062271466" lon="14.271488072810602"><ele>43.666666666666664</ele><time>2026-04-04T12:20:31Z</time></trkpt><trkpt lat="41.14558648263241" lon="14.271419718320093"><ele>44.0</ele><time>2026-04-04T12:20:32Z</time></trkpt><trkpt lat="41.14580177255185" lon="14.271343575854678"><ele>44.5</ele><time>2026-04-04T12:20:33Z</time></trkpt><trkpt lat="41.14602272085826" lon="14.271251975497236"><ele>45.0</ele><time>2026-04-04T12:20:34Z</time></trkpt><trkpt lat="41.146247577164395" lon="14.271163818598934"><ele>45.0</ele><time>2026-04-04T12:20:35Z</time></trkpt><trkpt lat="41.14647213522534" lon="14.27105512683507"><ele>45.0</ele><time>2026-04-04T12:20:36Z</time></trkpt><trkpt lat="41.1466933414293" lon="14.270922202144153"><ele>45.0</ele><time>2026-04-04T12:20:37Z</time></trkpt><trkpt lat="41.146915086900634" lon="14.270777667921683"><ele>45.0</ele><time>2026-04-04T12:20:38Z</time></trkpt><trkpt lat="41.147138846387115" lon="14.270628404110663"><ele>45.5</ele><time>2026-04-04T12:20:39Z</time></trkpt><trkpt lat="41.14736213927084" lon="14.27047012318842"><ele>46.0</ele><time>2026-04-04T12:20:40Z</time></trkpt><trkpt lat="41.14758106351974" lon="14.270309279660118"><ele>47.0</ele><time>2026-04-04T12:20:41Z</time></trkpt><trkpt lat="41.14779178466756" lon="14.270143801909066"><ele>48.0</ele><time>2026-04-04T12:20:42Z</time></trkpt><trkpt lat="41.14799702408625" lon="14.269972810087554"><ele>48.0</ele><time>2026-04-04T12:20:43Z</time></trkpt><trkpt lat="41.148206283838036" lon="14.269806598136233"><ele>48.0</ele><time>2026-04-04T12:20:44Z</time></trkpt><trkpt lat="41.14841935617372" lon="14.269655902037043"><ele>48.5</ele><time>2026-04-04T12:20:45Z</time></trkpt><trkpt lat="41.14863810950005" lon="14.26952041034141"><ele>49.0</ele><time>2026-04-04T12:20:46Z</time></trkpt><trkpt lat="41.14885513075277" lon="14.269425840379517"><ele>48.5</ele><time>2026-04-04T12:20:47Z</time></trkpt><trkpt lat="41.14907635179158" lon="14.269363624322311"><ele>48.0</ele><time>2026-04-04T12:20:48Z</time></trkpt><trkpt lat="41.14929813593268" lon="14.269326206258718"><ele>48.0</ele><time>2026-04-04T12:20:49Z</time></trkpt><trkpt lat="41.14952646872929" lon="14.269312352854163"><ele>48.0</ele><time>2026-04-04T12:20:50Z</time></trkpt><trkpt lat="41.14975248647695" lon="14.26932169336645"><ele>47.5</ele><time>2026-04-04T12:20:51Z</time></trkpt><trkpt lat="41.14997644190228" lon="14.269364828413838"><ele>47.0</ele><time>2026-04-04T12:20:52Z</time></trkpt><trkpt lat="41.150200679502404" lon="14.269433586323274"><ele>47.0</ele><time>2026-04-04T12:20:53Z</time></trkpt><trkpt lat="41.15041316010251" lon="14.269507932209931"><ele>47.0</ele><time>2026-04-04T12:20:54Z</time></trkpt><trkpt lat="41.15061023425359" lon="14.26956849685458"><ele>47.0</ele><time>2026-04-04T12:20:55Z</time></trkpt><trkpt lat="41.15080052523076" lon="14.26960029763972"><ele>45.666666666666664</ele><time>2026-04-04T12:20:56Z</time></trkpt><trkpt lat="41.15099029425116" lon="14.269591812455014"><ele>44.333333333333336</ele><time>2026-04-04T12:20:57Z</time></trkpt><trkpt lat="41.151186194344255" lon="14.269544684088919"><ele>43.0</ele><time>2026-04-04T12:20:58Z</time></trkpt><trkpt lat="41.151388530756094" lon="14.269454092521153"><ele>44.5</ele><time>2026-04-04T12:20:59Z</time></trkpt><trkpt lat="41.15159053237793" lon="14.26932355648367"><ele>46.0</ele><time>2026-04-04T12:21:00Z</time></trkpt><trkpt lat="41.1517918353853" lon="14.269176957698706"><ele>46.0</ele><time>2026-04-04T12:21:01Z</time></trkpt><trkpt lat="41.15198535197715" lon="14.26901260545108"><ele>46.0</ele><time>2026-04-04T12:21:02Z</time></trkpt><trkpt lat="41.15216845930583" lon="14.268859202023664"><ele>46.0</ele><time>2026-04-04T12:21:03Z</time></trkpt><trkpt lat="41.1523385638358" lon="14.268710060601578"><ele>46.0</ele><time>2026-04-04T12:21:04Z</time></trkpt><trkpt lat="41.15249753776383" lon="14.268520097067528"><ele>46.0</ele><time>2026-04-04T12:21:05Z</time></trkpt><trkpt lat="41.1526439617555" lon="14.268291554518774"><ele>46.0</ele><time>2026-04-04T12:21:06Z</time></trkpt><trkpt lat="41.1527709759435" lon="14.26802773220936"><ele>46.0</ele><time>2026-04-04T12:21:07.001Z</time></trkpt><trkpt lat="41.152893737499674" lon="14.267750062211265"><ele>46.0</ele><time>2026-04-04T12:21:08.001Z</time></trkpt><trkpt lat="41.153019462094775" lon="14.267469092604129"><ele>46.5</ele><time>2026-04-04T12:21:09.001Z</time></trkpt><trkpt lat="41.15314716739055" lon="14.26718421525596"><ele>47.0</ele><time>2026-04-04T12:21:10.001Z</time></trkpt><trkpt lat="41.15327392178636" lon="14.266899776172423"><ele>48.5</ele><time>2026-04-04T12:21:11.001Z</time></trkpt><trkpt lat="41.15341250392161" lon="14.26661636933016"><ele>50.0</ele><time>2026-04-04T12:21:12.001Z</time></trkpt><trkpt lat="41.15355825942606" lon="14.266341981105656"><ele>50.0</ele><time>2026-04-04T12:21:13.001Z</time></trkpt><trkpt lat="41.15371044934724" lon="14.266074352261104"><ele>50.0</ele><time>2026-04-04T12:21:14.001Z</time></trkpt><trkpt lat="41.153868815593555" lon="14.26580783623919"><ele>50.5</ele><time>2026-04-04T12:21:15.001Z</time></trkpt><trkpt lat="41.15402694282512" lon="14.265539999463698"><ele>51.0</ele><time>2026-04-04T12:21:16.001Z</time></trkpt><trkpt lat="41.154175869833395" lon="14.265270724326554"><ele>51.5</ele><time>2026-04-04T12:21:17.001Z</time></trkpt><trkpt lat="41.154314326217154" lon="14.26501221461298"><ele>52.0</ele><time>2026-04-04T12:21:18.001Z</time></trkpt><trkpt lat="41.154447744387916" lon="14.26476064030383"><ele>52.33333333333333</ele><time>2026-04-04T12:21:19.001Z</time></trkpt><trkpt lat="41.15457231361137" lon="14.264524995079164"><ele>52.66666666666667</ele><time>2026-04-04T12:21:20.001Z</time></trkpt><trkpt lat="41.15469399527239" lon="14.264297252632424"><ele>53.0</ele><time>2026-04-04T12:21:21.001Z</time></trkpt><trkpt lat="41.154818660802135" lon="14.264077453911458"><ele>53.66666666666667</ele><time>2026-04-04T12:21:22.001Z</time></trkpt><trkpt lat="41.15494793607862" lon="14.263880323587603"><ele>54.33333333333333</ele><time>2026-04-04T12:21:23.001Z</time></trkpt><trkpt lat="41.15509334847444" lon="14.263701822620515"><ele>55.0</ele><time>2026-04-04T12:21:24.001Z</time></trkpt><trkpt lat="41.155249203716714" lon="14.263556268659306"><ele>55.0</ele><time>2026-04-04T12:21:25.001Z</time></trkpt><trkpt lat="41.15543021988848" lon="14.263427286792592"><ele>55.0</ele><time>2026-04-04T12:21:26.001Z</time></trkpt><trkpt lat="41.15563055655109" lon="14.263312109947062"><ele>55.0</ele><time>2026-04-04T12:21:27.001Z</time></trkpt><trkpt lat="41.15584460049723" lon="14.263214615902411"><ele>56.0</ele><time>2026-04-04T12:21:28.001Z</time></trkpt><trkpt lat="41.15606270478329" lon="14.263115233792485"><ele>57.0</ele><time>2026-04-04T12:21:29.001Z</time></trkpt><trkpt lat="41.15627516812745" lon="14.262980958794635"><ele>57.0</ele><time>2026-04-04T12:21:30.001Z</time></trkpt><trkpt lat="41.15648411504105" lon="14.262819645856654"><ele>57.0</ele><time>2026-04-04T12:21:31.001Z</time></trkpt><trkpt lat="41.15668746995634" lon="14.262637777225134"><ele>57.5</ele><time>2026-04-04T12:21:32.001Z</time></trkpt><trkpt lat="41.15688633846647" lon="14.262435876341534"><ele>58.0</ele><time>2026-04-04T12:21:33.001Z</time></trkpt><trkpt lat="41.157073783764375" lon="14.26221414432754"><ele>58.0</ele><time>2026-04-04T12:21:34.001Z</time></trkpt><trkpt lat="41.15725026708133" lon="14.26197771248183"><ele>58.0</ele><time>2026-04-04T12:21:35.001Z</time></trkpt><trkpt lat="41.15741586642767" lon="14.261738256953223"><ele>58.5</ele><time>2026-04-04T12:21:36.001Z</time></trkpt><trkpt lat="41.157569865104115" lon="14.26149539593296"><ele>59.0</ele><time>2026-04-04T12:21:37.001Z</time></trkpt><trkpt lat="41.15770944668352" lon="14.261268090460488"><ele>59.0</ele><time>2026-04-04T12:21:38.001Z</time></trkpt><trkpt lat="41.15784799257364" lon="14.261050322523408"><ele>59.0</ele><time>2026-04-04T12:21:39.001Z</time></trkpt><trkpt lat="41.15798445384375" lon="14.260845090272433"><ele>59.0</ele><time>2026-04-04T12:21:40.001Z</time></trkpt><trkpt lat="41.158116686974" lon="14.260659355660898"><ele>59.66666666666667</ele><time>2026-04-04T12:21:41.001Z</time></trkpt><trkpt lat="41.15825203567468" lon="14.26049623297261"><ele>60.33333333333333</ele><time>2026-04-04T12:21:42.001Z</time></trkpt><trkpt lat="41.158395085079164" lon="14.260359822022293"><ele>61.0</ele><time>2026-04-04T12:21:43.001Z</time></trkpt><trkpt lat="41.15854830281189" lon="14.260256055534963"><ele>61.0</ele><time>2026-04-04T12:21:44.001Z</time></trkpt><trkpt lat="41.158729934250864" lon="14.260169930436044"><ele>61.0</ele><time>2026-04-04T12:21:45.001Z</time></trkpt><trkpt lat="41.158926126634576" lon="14.260101535376176"><ele>61.0</ele><time>2026-04-04T12:21:46.001Z</time></trkpt><trkpt lat="41.1591296791164" lon="14.260046055499734"><ele>61.0</ele><time>2026-04-04T12:21:47.001Z</time></trkpt><trkpt lat="41.15933598952325" lon="14.259989996176374"><ele>61.0</ele><time>2026-04-04T12:21:48.001Z</time></trkpt><trkpt lat="41.15954865539704" lon="14.259929406781534"><ele>61.0</ele><time>2026-04-04T12:21:49.001Z</time></trkpt><trkpt lat="41.15976709165226" lon="14.259865411967883"><ele>62.0</ele><time>2026-04-04T12:21:50.001Z</time></trkpt><trkpt lat="41.15999619999916" lon="14.25979584595759"><ele>63.0</ele><time>2026-04-04T12:21:51.001Z</time></trkpt><trkpt lat="41.16023281682815" lon="14.259735480154347"><ele>64.0</ele><time>2026-04-04T12:21:52.001Z</time></trkpt><trkpt lat="41.16047711821461" lon="14.259666114878671"><ele>65.0</ele><time>2026-04-04T12:21:53.001Z</time></trkpt><trkpt lat="41.16072128308352" lon="14.259595446634485"><ele>66.5</ele><time>2026-04-04T12:21:54.001Z</time></trkpt><trkpt lat="41.160965464592785" lon="14.259510802612626"><ele>68.0</ele><time>2026-04-04T12:21:55.001Z</time></trkpt><trkpt lat="41.1612135676787" lon="14.259444832359241"><ele>68.0</ele><time>2026-04-04T12:21:56.001Z</time></trkpt><trkpt lat="41.16145664527515" lon="14.259372748889422"><ele>68.0</ele><time>2026-04-04T12:21:57.001Z</time></trkpt><trkpt lat="41.161695737827166" lon="14.259295956431647"><ele>67.5</ele><time>2026-04-04T12:21:58.001Z</time></trkpt><trkpt lat="41.161929926274034" lon="14.259216033579408"><ele>67.0</ele><time>2026-04-04T12:21:59.001Z</time></trkpt><trkpt lat="41.16216235756764" lon="14.259141571445662"><ele>67.0</ele><time>2026-04-04T12:22:00.001Z</time></trkpt><trkpt lat="41.16239994681451" lon="14.259075467465538"><ele>67.0</ele><time>2026-04-04T12:22:01.001Z</time></trkpt><trkpt lat="41.16263829453142" lon="14.259018728727849"><ele>67.0</ele><time>2026-04-04T12:22:02.001Z</time></trkpt><trkpt lat="41.16287920837194" lon="14.258966107661635"><ele>67.0</ele><time>2026-04-04T12:22:03.001Z</time></trkpt><trkpt lat="41.16312230973288" lon="14.258909957020142"><ele>68.0</ele><time>2026-04-04T12:22:04.001Z</time></trkpt><trkpt lat="41.16336978314924" lon="14.258854656806415"><ele>69.0</ele><time>2026-04-04T12:22:05.001Z</time></trkpt><trkpt lat="41.16361553240128" lon="14.258803190122999"><ele>69.0</ele><time>2026-04-04T12:22:06.001Z</time></trkpt><trkpt lat="41.16386379875759" lon="14.258762596316094"><ele>69.0</ele><time>2026-04-04T12:22:07.001Z</time></trkpt><trkpt lat="41.1641089785528" lon="14.258729017472957"><ele>68.5</ele><time>2026-04-04T12:22:08.001Z</time></trkpt><trkpt lat="41.16435529734426" lon="14.258702016632846"><ele>68.0</ele><time>2026-04-04T12:22:09.001Z</time></trkpt><trkpt lat="41.164607972711686" lon="14.258680438336874"><ele>68.0</ele><time>2026-04-04T12:22:10.001Z</time></trkpt><trkpt lat="41.16485939974479" lon="14.25866830019424"><ele>68.0</ele><time>2026-04-04T12:22:11Z</time></trkpt><trkpt lat="41.165109497092644" lon="14.258668156709962"><ele>69.0</ele><time>2026-04-04T12:22:12Z</time></trkpt><trkpt lat="41.1653601287261" lon="14.2586835551178"><ele>70.0</ele><time>2026-04-04T12:22:13Z</time></trkpt><trkpt lat="41.16561138956787" lon="14.258698938634"><ele>70.5</ele><time>2026-04-04T12:22:14Z</time></trkpt><trkpt lat="41.165865068027145" lon="14.258708117347568"><ele>71.0</ele><time>2026-04-04T12:22:15Z</time></trkpt><trkpt lat="41.166121241648895" lon="14.258715253002906"><ele>71.0</ele><time>2026-04-04T12:22:16Z</time></trkpt><trkpt lat="41.1663736014872" lon="14.258727209149008"><ele>71.0</ele><time>2026-04-04T12:22:17Z</time></trkpt><trkpt lat="41.166619457847304" lon="14.258745867162478"><ele>71.5</ele><time>2026-04-04T12:22:18Z</time></trkpt><trkpt lat="41.16685180847309" lon="14.258774046217706"><ele>72.0</ele><time>2026-04-04T12:22:19Z</time></trkpt><trkpt lat="41.167077395423256" lon="14.258805955082865"><ele>72.0</ele><time>2026-04-04T12:22:20Z</time></trkpt><trkpt lat="41.16730479482976" lon="14.258847763438188"><ele>72.0</ele><time>2026-04-04T12:22:21Z</time></trkpt><trkpt lat="41.16752777509941" lon="14.258890589506198"><ele>73.0</ele><time>2026-04-04T12:22:22Z</time></trkpt><trkpt lat="41.16776409527226" lon="14.25892358055189"><ele>74.0</ele><time>2026-04-04T12:22:23Z</time></trkpt><trkpt lat="41.16800517113056" lon="14.258942846905553"><ele>74.5</ele><time>2026-04-04T12:22:24Z</time></trkpt><trkpt lat="41.16825066204024" lon="14.258949601196317"><ele>75.0</ele><time>2026-04-04T12:22:25Z</time></trkpt><trkpt lat="41.16849900090006" lon="14.258947921001027"><ele>75.0</ele><time>2026-04-04T12:22:26Z</time></trkpt><trkpt lat="41.16875292554595" lon="14.258932196097149"><ele>75.0</ele><time>2026-04-04T12:22:27Z</time></trkpt><trkpt lat="41.169007381653984" lon="14.258908735751001"><ele>75.5</ele><time>2026-04-04T12:22:28Z</time></trkpt><trkpt lat="41.16925910634635" lon="14.25887876938149"><ele>76.0</ele><time>2026-04-04T12:22:29Z</time></trkpt><trkpt lat="41.16950596265549" lon="14.258842439359773"><ele>76.0</ele><time>2026-04-04T12:22:30Z</time></trkpt><trkpt lat="41.1697322474333" lon="14.258803855473076"><ele>76.0</ele><time>2026-04-04T12:22:31Z</time></trkpt><trkpt lat="41.1699453070527" lon="14.258771995748905"><ele>76.0</ele><time>2026-04-04T12:22:32Z</time></trkpt><trkpt lat="41.17016795115977" lon="14.258751604314615"><ele>76.0</ele><time>2026-04-04T12:22:33Z</time></trkpt><trkpt lat="41.17039921434747" lon="14.25875701983111"><ele>76.0</ele><time>2026-04-04T12:22:34Z</time></trkpt><trkpt lat="41.1706358872095" lon="14.258787210697951"><ele>77.5</ele><time>2026-04-04T12:22:35Z</time></trkpt><trkpt lat="41.17087024007493" lon="14.258842462028595"><ele>79.0</ele><time>2026-04-04T12:22:36Z</time></trkpt><trkpt lat="41.17110481708638" lon="14.25892077738088"><ele>78.0</ele><time>2026-04-04T12:22:37Z</time></trkpt><trkpt lat="41.17133827825758" lon="14.259010718835233"><ele>77.0</ele><time>2026-04-04T12:22:38Z</time></trkpt><trkpt lat="41.17157800950177" lon="14.25908521975318"><ele>79.0</ele><time>2026-04-04T12:22:39Z</time></trkpt><trkpt lat="41.17182605329238" lon="14.259124719598931"><ele>81.0</ele><time>2026-04-04T12:22:40Z</time></trkpt><trkpt lat="41.172071766713955" lon="14.259146344798381"><ele>81.0</ele><time>2026-04-04T12:22:41Z</time></trkpt><trkpt lat="41.17230402878488" lon="14.259168802198634"><ele>81.0</ele><time>2026-04-04T12:22:42Z</time></trkpt><trkpt lat="41.17252887863501" lon="14.25918730663191"><ele>80.66666666666667</ele><time>2026-04-04T12:22:43Z</time></trkpt><trkpt lat="41.172745344446774" lon="14.259200296990576"><ele>80.33333333333334</ele><time>2026-04-04T12:22:44Z</time></trkpt><trkpt lat="41.17294455189544" lon="14.259205181820285"><ele>80.0</ele><time>2026-04-04T12:22:45Z</time></trkpt><trkpt lat="41.17312433832877" lon="14.25920036513033"><ele>81.0</ele><time>2026-04-04T12:22:46Z</time></trkpt><trkpt lat="41.173285339765386" lon="14.259191562797996"><ele>82.0</ele><time>2026-04-04T12:22:47Z</time></trkpt><trkpt lat="41.17343583184911" lon="14.259181671307573"><ele>83.0</ele><time>2026-04-04T12:22:48Z</time></trkpt><trkpt lat="41.173597947492794" lon="14.25915697124891"><ele>83.0</ele><time>2026-04-04T12:22:49Z</time></trkpt><trkpt lat="41.173779753035724" lon="14.259088506880223"><ele>83.0</ele><time>2026-04-04T12:22:50Z</time></trkpt><trkpt lat="41.173970249743434" lon="14.259002784773674"><ele>83.0</ele><time>2026-04-04T12:22:51Z</time></trkpt><trkpt lat="41.17417196778527" lon="14.25890210257659"><ele>83.5</ele><time>2026-04-04T12:22:52Z</time></trkpt><trkpt lat="41.17437786635105" lon="14.25878815124821"><ele>84.0</ele><time>2026-04-04T12:22:53Z</time></trkpt><trkpt lat="41.1745890986907" lon="14.258673161579269"><ele>84.0</ele><time>2026-04-04T12:22:54Z</time></trkpt><trkpt lat="41.17480475189711" lon="14.258545321593"><ele>84.0</ele><time>2026-04-04T12:22:55Z</time></trkpt><trkpt lat="41.17502059274763" lon="14.258406234911327"><ele>85.0</ele><time>2026-04-04T12:22:56Z</time></trkpt><trkpt lat="41.17523029672476" lon="14.258254476226213"><ele>86.0</ele><time>2026-04-04T12:22:57Z</time></trkpt><trkpt lat="41.17542119447422" lon="14.258089300601359"><ele>86.33333333333334</ele><time>2026-04-04T12:22:58Z</time></trkpt><trkpt lat="41.17559448926293" lon="14.257931587585842"><ele>86.66666666666667</ele><time>2026-04-04T12:22:59Z</time></trkpt><trkpt lat="41.17575472334116" lon="14.257784478847734"><ele>87.0</ele><time>2026-04-04T12:23:00Z</time></trkpt><trkpt lat="41.17592756641842" lon="14.257653040722268"><ele>87.33333333333333</ele><time>2026-04-04T12:23:01Z</time></trkpt><trkpt lat="41.17611032438283" lon="14.257553659561534"><ele>87.66666666666666</ele><time>2026-04-04T12:23:02Z</time></trkpt><trkpt lat="41.17630570864267" lon="14.257490748728486"><ele>88.0</ele><time>2026-04-04T12:23:03Z</time></trkpt><trkpt lat="41.176515619733415" lon="14.257455724910212"><ele>88.33333333333333</ele><time>2026-04-04T12:23:04Z</time></trkpt><trkpt lat="41.176735501334186" lon="14.257440020147722"><ele>88.66666666666667</ele><time>2026-04-04T12:23:05Z</time></trkpt><trkpt lat="41.17695935564649" lon="14.257410338879447"><ele>89.0</ele><time>2026-04-04T12:23:06Z</time></trkpt><trkpt lat="41.1771836608715" lon="14.257356005041695"><ele>89.5</ele><time>2026-04-04T12:23:07Z</time></trkpt><trkpt lat="41.17741422349348" lon="14.257283411764483"><ele>90.0</ele><time>2026-04-04T12:23:08Z</time></trkpt><trkpt lat="41.17764746332135" lon="14.257188391189114"><ele>90.0</ele><time>2026-04-04T12:23:09Z</time></trkpt><trkpt lat="41.17787901551726" lon="14.257075416162573"><ele>90.0</ele><time>2026-04-04T12:23:10Z</time></trkpt><trkpt lat="41.178117437245206" lon="14.256962348872872"><ele>90.0</ele><time>2026-04-04T12:23:11Z</time></trkpt><trkpt lat="41.17835838768072" lon="14.256850398892853"><ele>90.0</ele><time>2026-04-04T12:23:12Z</time></trkpt><trkpt lat="41.178589502722495" lon="14.256743723132548"><ele>90.0</ele><time>2026-04-04T12:23:13Z</time></trkpt><trkpt lat="41.17879821009738" lon="14.256639716533039"><ele>90.0</ele><time>2026-04-04T12:23:14.001Z</time></trkpt><trkpt lat="41.17899566558916" lon="14.2565337231635"><ele>90.0</ele><time>2026-04-04T12:23:15.001Z</time></trkpt><trkpt lat="41.17918777881721" lon="14.25642992447576"><ele>91.33333333333333</ele><time>2026-04-04T12:23:16.001Z</time></trkpt><trkpt lat="41.17937501881465" lon="14.25632413970088"><ele>92.66666666666666</ele><time>2026-04-04T12:23:17.001Z</time></trkpt><trkpt lat="41.17955986912268" lon="14.256221730551326"><ele>94.0</ele><time>2026-04-04T12:23:18.001Z</time></trkpt><trkpt lat="41.17973307464684" lon="14.256136720815027"><ele>93.66666666666666</ele><time>2026-04-04T12:23:19.001Z</time></trkpt><trkpt lat="41.179904806496886" lon="14.256065013752721"><ele>93.33333333333333</ele><time>2026-04-04T12:23:20.001Z</time></trkpt><trkpt lat="41.18008372164104" lon="14.256004173919917"><ele>93.0</ele><time>2026-04-04T12:23:21.001Z</time></trkpt><trkpt lat="41.180278960386346" lon="14.25595401701128"><ele>93.0</ele><time>2026-04-04T12:23:22.001Z</time></trkpt><trkpt lat="41.180488607488016" lon="14.255910816675447"><ele>93.0</ele><time>2026-04-04T12:23:23.001Z</time></trkpt><trkpt lat="41.180707378886275" lon="14.255884022573003"><ele>93.0</ele><time>2026-04-04T12:23:24.001Z</time></trkpt><trkpt lat="41.180932971404374" lon="14.255860736208916"><ele>92.33333333333333</ele><time>2026-04-04T12:23:25.001Z</time></trkpt><trkpt lat="41.18115718993926" lon="14.255830719260624"><ele>91.66666666666666</ele><time>2026-04-04T12:23:26.001Z</time></trkpt><trkpt lat="41.1813739131889" lon="14.255796014073708"><ele>91.0</ele><time>2026-04-04T12:23:27.001Z</time></trkpt><trkpt lat="41.181579744951634" lon="14.255757363125873"><ele>90.66666666666666</ele><time>2026-04-04T12:23:28.001Z</time></trkpt><trkpt lat="41.181779387843946" lon="14.25570863664375"><ele>90.33333333333333</ele><time>2026-04-04T12:23:29.001Z</time></trkpt><trkpt lat="41.181979205669776" lon="14.2556487962171"><ele>90.0</ele><time>2026-04-04T12:23:30.001Z</time></trkpt><trkpt lat="41.18219182274065" lon="14.25557501270854"><ele>87.66666666666667</ele><time>2026-04-04T12:23:31.001Z</time></trkpt><trkpt lat="41.18239925315956" lon="14.255490166323511"><ele>85.33333333333334</ele><time>2026-04-04T12:23:32.001Z</time></trkpt><trkpt lat="41.18259225841804" lon="14.25540763672336"><ele>83.0</ele><time>2026-04-04T12:23:33.001Z</time></trkpt><trkpt lat="41.18277621933159" lon="14.255322262719677"><ele>83.0</ele><time>2026-04-04T12:23:34.001Z</time></trkpt><trkpt lat="41.18295038824309" lon="14.255238706652811"><ele>83.0</ele><time>2026-04-04T12:23:35.001Z</time></trkpt><trkpt lat="41.18311337799855" lon="14.25516118885092"><ele>83.0</ele><time>2026-04-04T12:23:36.001Z</time></trkpt><trkpt lat="41.183254606717824" lon="14.255094641953837"><ele>82.25</ele><time>2026-04-04T12:23:37.001Z</time></trkpt><trkpt lat="41.18338511297826" lon="14.25505152942565"><ele>81.5</ele><time>2026-04-04T12:23:38.001Z</time></trkpt><trkpt lat="41.183508183135125" lon="14.255038582573762"><ele>80.75</ele><time>2026-04-04T12:23:39.001Z</time></trkpt><trkpt lat="41.18362511397909" lon="14.255056550678397"><ele>80.0</ele><time>2026-04-04T12:23:40.001Z</time></trkpt><trkpt lat="41.18374117742008" lon="14.255118311525141"><ele>80.0</ele><time>2026-04-04T12:23:41.001Z</time></trkpt><trkpt lat="41.18385752069481" lon="14.255202851629152"><ele>80.0</ele><time>2026-04-04T12:23:42.001Z</time></trkpt><trkpt lat="41.18397347323329" lon="14.255246200627834"><ele>80.0</ele><time>2026-04-04T12:23:43.001Z</time></trkpt><trkpt lat="41.18408752756699" lon="14.25526007568904"><ele>80.0</ele><time>2026-04-04T12:23:44.001Z</time></trkpt><trkpt lat="41.1842041754847" lon="14.255189969495216"><ele>80.75</ele><time>2026-04-04T12:23:45.001Z</time></trkpt><trkpt lat="41.184321884347" lon="14.255178708892872"><ele>81.5</ele><time>2026-04-04T12:23:46.001Z</time></trkpt><trkpt lat="41.1844426491074" lon="14.255244774191043"><ele>82.25</ele><time>2026-04-04T12:23:47.001Z</time></trkpt><trkpt lat="41.18458949281982" lon="14.255311174168135"><ele>83.0</ele><time>2026-04-04T12:23:48.001Z</time></trkpt><trkpt lat="41.18475606287743" lon="14.255360105907673"><ele>85.66666666666667</ele><time>2026-04-04T12:23:49.001Z</time></trkpt><trkpt lat="41.18492622984598" lon="14.255440674985655"><ele>88.33333333333333</ele><time>2026-04-04T12:23:50.001Z</time></trkpt><trkpt lat="41.18510573605362" lon="14.25550895412724"><ele>91.0</ele><time>2026-04-04T12:23:51.001Z</time></trkpt><trkpt lat="41.18529048477477" lon="14.25555890340734"><ele>91.0</ele><time>2026-04-04T12:23:52.001Z</time></trkpt><trkpt lat="41.18548367748375" lon="14.255576398678459"><ele>91.0</ele><time>2026-04-04T12:23:53.001Z</time></trkpt><trkpt lat="41.1856872623816" lon="14.255575166735118"><ele>91.0</ele><time>2026-04-04T12:23:54.001Z</time></trkpt><trkpt lat="41.185892905362486" lon="14.255580046781938"><ele>92.0</ele><time>2026-04-04T12:23:55.001Z</time></trkpt><trkpt lat="41.186104932514056" lon="14.255583613508016"><ele>93.0</ele><time>2026-04-04T12:23:56.001Z</time></trkpt><trkpt lat="41.18631937825387" lon="14.255582302248007"><ele>94.0</ele><time>2026-04-04T12:23:57.001Z</time></trkpt><trkpt lat="41.18653671908585" lon="14.255445044440139"><ele>94.0</ele><time>2026-04-04T12:23:58.001Z</time></trkpt><trkpt lat="41.18676364881061" lon="14.25539923518274"><ele>94.0</ele><time>2026-04-04T12:23:59.001Z</time></trkpt><trkpt lat="41.186973327119674" lon="14.25534729539474"><ele>94.0</ele><time>2026-04-04T12:24:00.001Z</time></trkpt><trkpt lat="41.18718201508791" lon="14.255285269918827"><ele>93.66666666666666</ele><time>2026-04-04T12:24:01.001Z</time></trkpt><trkpt lat="41.18738355232078" lon="14.255216241779154"><ele>93.33333333333333</ele><time>2026-04-04T12:24:02.001Z</time></trkpt><trkpt lat="41.18758198183582" lon="14.25514133567033"><ele>93.0</ele><time>2026-04-04T12:24:03.001Z</time></trkpt><trkpt lat="41.187790866949946" lon="14.255054067134285"><ele>93.0</ele><time>2026-04-04T12:24:04.001Z</time></trkpt><trkpt lat="41.187997390843705" lon="14.255005387697476"><ele>93.0</ele><time>2026-04-04T12:24:05.001Z</time></trkpt><trkpt lat="41.188214734253094" lon="14.254965540453595"><ele>93.0</ele><time>2026-04-04T12:24:06.001Z</time></trkpt><trkpt lat="41.18842140896807" lon="14.254914423658184"><ele>92.0</ele><time>2026-04-04T12:24:07.001Z</time></trkpt><trkpt lat="41.18862218713371" lon="14.254837873321529"><ele>91.0</ele><time>2026-04-04T12:24:08.001Z</time></trkpt><trkpt lat="41.18882579110026" lon="14.254742977547622"><ele>90.0</ele><time>2026-04-04T12:24:09.001Z</time></trkpt><trkpt lat="41.18902551658112" lon="14.254632141199892"><ele>92.33333333333334</ele><time>2026-04-04T12:24:10.001Z</time></trkpt><trkpt lat="41.18922129206" lon="14.254520567203304"><ele>94.66666666666667</ele><time>2026-04-04T12:24:11.001Z</time></trkpt><trkpt lat="41.1894147435927" lon="14.25441788732898"><ele>97.0</ele><time>2026-04-04T12:24:12.001Z</time></trkpt><trkpt lat="41.189605366792186" lon="14.254325889139436"><ele>97.0</ele><time>2026-04-04T12:24:13.001Z</time></trkpt><trkpt lat="41.1897743275462" lon="14.254243832182215"><ele>97.0</ele><time>2026-04-04T12:24:14.001Z</time></trkpt><trkpt lat="41.18993413557132" lon="14.254166741061546"><ele>97.0</ele><time>2026-04-04T12:24:15.001Z</time></trkpt><trkpt lat="41.190078326761075" lon="14.254093582257237"><ele>97.25</ele><time>2026-04-04T12:24:16.001Z</time></trkpt><trkpt lat="41.19020965599578" lon="14.25402262535538"><ele>97.5</ele><time>2026-04-04T12:24:17Z</time></trkpt><trkpt lat="41.19032530171396" lon="14.253952570508206"><ele>97.75</ele><time>2026-04-04T12:24:18Z</time></trkpt><trkpt lat="41.19043910568907" lon="14.25389443905536"><ele>98.0</ele><time>2026-04-04T12:24:19Z</time></trkpt><trkpt lat="41.19054692391783" lon="14.253852099194399"><ele>99.0</ele><time>2026-04-04T12:24:20Z</time></trkpt><trkpt lat="41.19064675528034" lon="14.253821621676277"><ele>100.0</ele><time>2026-04-04T12:24:21Z</time></trkpt><trkpt lat="41.19074268136519" lon="14.253831642650189"><ele>101.0</ele><time>2026-04-04T12:24:22Z</time></trkpt><trkpt lat="41.19085986190564" lon="14.253898306474658"><ele>102.0</ele><time>2026-04-04T12:24:23Z</time></trkpt><trkpt lat="41.190986585455605" lon="14.253969063087244"><ele>102.0</ele><time>2026-04-04T12:24:24Z</time></trkpt><trkpt lat="41.1911140549445" lon="14.253986088818868"><ele>102.0</ele><time>2026-04-04T12:24:25Z</time></trkpt><trkpt lat="41.19123238395915" lon="14.253970923938192"><ele>102.0</ele><time>2026-04-04T12:24:26Z</time></trkpt><trkpt lat="41.19135050111762" lon="14.253922769959594"><ele>102.0</ele><time>2026-04-04T12:24:27Z</time></trkpt><trkpt lat="41.19146227816579" lon="14.253829032636636"><ele>103.0</ele><time>2026-04-04T12:24:28Z</time></trkpt><trkpt lat="41.19156386571752" lon="14.253697165747763"><ele>104.0</ele><time>2026-04-04T12:24:29Z</time></trkpt><trkpt lat="41.1916664544813" lon="14.25355190326734"><ele>105.0</ele><time>2026-04-04T12:24:30Z</time></trkpt><trkpt lat="41.191772867366815" lon="14.253376418988218"><ele>105.0</ele><time>2026-04-04T12:24:31Z</time></trkpt><trkpt lat="41.191905491983306" lon="14.253198678764061"><ele>105.0</ele><time>2026-04-04T12:24:32Z</time></trkpt><trkpt lat="41.192030763364336" lon="14.253028731747492"><ele>105.0</ele><time>2026-04-04T12:24:33Z</time></trkpt><trkpt lat="41.192144997038696" lon="14.252886796724223"><ele>106.5</ele><time>2026-04-04T12:24:34Z</time></trkpt><trkpt lat="41.192232214068824" lon="14.252770890838896"><ele>108.0</ele><time>2026-04-04T12:24:35Z</time></trkpt><trkpt lat="41.1923098403167" lon="14.25267161872468"><ele>109.5</ele><time>2026-04-04T12:24:36Z</time></trkpt><trkpt lat="41.19237153776125" lon="14.252558476373824"><ele>111.0</ele><time>2026-04-04T12:24:37Z</time></trkpt><trkpt lat="41.19243526122617" lon="14.252416869063602"><ele>112.5</ele><time>2026-04-04T12:24:38Z</time></trkpt><trkpt lat="41.19250770043754" lon="14.252267328834433"><ele>114.0</ele><time>2026-04-04T12:24:39Z</time></trkpt><trkpt lat="41.192588817037546" lon="14.252110491168693"><ele>115.5</ele><time>2026-04-04T12:24:40Z</time></trkpt><trkpt lat="41.19267887223891" lon="14.251952422879846"><ele>117.0</ele><time>2026-04-04T12:24:41Z</time></trkpt><trkpt lat="41.19278176398684" lon="14.251807602228636"><ele>117.0</ele><time>2026-04-04T12:24:42Z</time></trkpt><trkpt lat="41.192887326202" lon="14.25168321129727"><ele>117.0</ele><time>2026-04-04T12:24:43Z</time></trkpt><trkpt lat="41.19296973442449" lon="14.251570450660166"><ele>117.0</ele><time>2026-04-04T12:24:44Z</time></trkpt><trkpt lat="41.193029102909534" lon="14.251444717240746"><ele>117.0</ele><time>2026-04-04T12:24:45Z</time></trkpt><trkpt lat="41.19306683391263" lon="14.251290024549059"><ele>116.8</ele><time>2026-04-04T12:24:46Z</time></trkpt><trkpt lat="41.19309693306508" lon="14.251190649490319"><ele>116.6</ele><time>2026-04-04T12:24:47Z</time></trkpt><trkpt lat="41.19315155268396" lon="14.251104103390448"><ele>116.39999999999999</ele><time>2026-04-04T12:24:48Z</time></trkpt><trkpt lat="41.19326736021353" lon="14.2510215691241"><ele>116.19999999999999</ele><time>2026-04-04T12:24:49Z</time></trkpt><trkpt lat="41.19335441621117" lon="14.250944684792561"><ele>116.0</ele><time>2026-04-04T12:24:50Z</time></trkpt><trkpt lat="41.19344699048569" lon="14.25087154514043"><ele>117.8</ele><time>2026-04-04T12:24:51Z</time></trkpt><trkpt lat="41.193551054557155" lon="14.250811765063224"><ele>119.6</ele><time>2026-04-04T12:24:52Z</time></trkpt><trkpt lat="41.193650632734915" lon="14.25076453373725"><ele>121.4</ele><time>2026-04-04T12:24:53Z</time></trkpt><trkpt lat="41.19374154096154" lon="14.250714522923438"><ele>123.2</ele><time>2026-04-04T12:24:54Z</time></trkpt><trkpt lat="41.193837906194375" lon="14.250663420360059"><ele>125.0</ele><time>2026-04-04T12:24:55Z</time></trkpt><trkpt lat="41.1939285197132" lon="14.250560976429739"><ele>125.5</ele><time>2026-04-04T12:24:56Z</time></trkpt><trkpt lat="41.19401017143941" lon="14.250425780531401"><ele>126.0</ele><time>2026-04-04T12:24:57Z</time></trkpt><trkpt lat="41.194080404831" lon="14.250264707234567"><ele>126.5</ele><time>2026-04-04T12:24:58Z</time></trkpt><trkpt lat="41.19415358121983" lon="14.250119629085596"><ele>127.0</ele><time>2026-04-04T12:24:59Z</time></trkpt><trkpt lat="41.19421025827398" lon="14.250000748710876"><ele>127.00000000000001</ele><time>2026-04-04T12:25:00Z</time></trkpt><trkpt lat="41.194255948410564" lon="14.249907529209048"><ele>127.0</ele><time>2026-04-04T12:25:01Z</time></trkpt><trkpt lat="41.194295588605684" lon="14.249827867592414"><ele>127.0</ele><time>2026-04-04T12:25:02Z</time></trkpt><trkpt lat="41.194329236847544" lon="14.249755140993946"><ele>127.0</ele><time>2026-04-04T12:25:03Z</time></trkpt><trkpt lat="41.19436758286053" lon="14.24966796048397"><ele>127.00000000000001</ele><time>2026-04-04T12:25:04Z</time></trkpt><trkpt lat="41.194424322691354" lon="14.249576938720232"><ele>127.0</ele><time>2026-04-04T12:25:05Z</time></trkpt><trkpt lat="41.19450053828216" lon="14.249489655388313"><ele>127.5</ele><time>2026-04-04T12:25:06Z</time></trkpt><trkpt lat="41.1945761560829" lon="14.249390359839946"><ele>128.0</ele><time>2026-04-04T12:25:07Z</time></trkpt><trkpt lat="41.1946534690692" lon="14.24927385195944"><ele>128.5</ele><time>2026-04-04T12:25:08Z</time></trkpt><trkpt lat="41.19474933987495" lon="14.249134757266564"><ele>129.0</ele><time>2026-04-04T12:25:09Z</time></trkpt><trkpt lat="41.19487137782755" lon="14.24899263972667"><ele>131.33333333333334</ele><time>2026-04-04T12:25:10Z</time></trkpt><trkpt lat="41.19502636749537" lon="14.248882362261682"><ele>133.66666666666669</ele><time>2026-04-04T12:25:11Z</time></trkpt><trkpt lat="41.19518661841179" lon="14.248747786898397"><ele>136.0</ele><time>2026-04-04T12:25:12Z</time></trkpt><trkpt lat="41.19535033280372" lon="14.248614915942294"><ele>136.0</ele><time>2026-04-04T12:25:13Z</time></trkpt><trkpt lat="41.195507159378955" lon="14.248477929681155"><ele>136.0</ele><time>2026-04-04T12:25:14Z</time></trkpt><trkpt lat="41.19565281624529" lon="14.248381885856361"><ele>136.0</ele><time>2026-04-04T12:25:15Z</time></trkpt><trkpt lat="41.19580307433843" lon="14.248296176645084"><ele>136.0</ele><time>2026-04-04T12:25:16.001Z</time></trkpt><trkpt lat="41.1959486074936" lon="14.248211705368666"><ele>136.0</ele><time>2026-04-04T12:25:17.001Z</time></trkpt><trkpt lat="41.196089068158585" lon="14.248118515936854"><ele>136.0</ele><time>2026-04-04T12:25:18.001Z</time></trkpt><trkpt lat="41.196246070703346" lon="14.248047289783715"><ele>137.75</ele><time>2026-04-04T12:25:19.001Z</time></trkpt><trkpt lat="41.19638244391491" lon="14.247948242274308"><ele>139.5</ele><time>2026-04-04T12:25:20.001Z</time></trkpt><trkpt lat="41.19651956807414" lon="14.247936261739978"><ele>141.25</ele><time>2026-04-04T12:25:21.001Z</time></trkpt><trkpt lat="41.1966549416417" lon="14.247941012009685"><ele>143.0</ele><time>2026-04-04T12:25:22.001Z</time></trkpt><trkpt lat="41.19678578302916" lon="14.247970514054195"><ele>144.5</ele><time>2026-04-04T12:25:23.001Z</time></trkpt><trkpt lat="41.196919786267486" lon="14.247965880241294"><ele>146.0</ele><time>2026-04-04T12:25:24.001Z</time></trkpt><trkpt lat="41.1970542753965" lon="14.24798733366798"><ele>147.5</ele><time>2026-04-04T12:25:25.001Z</time></trkpt><trkpt lat="41.197194240600155" lon="14.247991460979952"><ele>149.0</ele><time>2026-04-04T12:25:26.001Z</time></trkpt><trkpt lat="41.19734708719331" lon="14.247974298534775"><ele>150.33333333333331</ele><time>2026-04-04T12:25:27.001Z</time></trkpt><trkpt lat="41.197515830634906" lon="14.247945546492783"><ele>151.66666666666666</ele><time>2026-04-04T12:25:28.001Z</time></trkpt><trkpt lat="41.19769893417718" lon="14.2479042524049"><ele>153.0</ele><time>2026-04-04T12:25:29.001Z</time></trkpt><trkpt lat="41.19788873174148" lon="14.24784311276156"><ele>153.0</ele><time>2026-04-04T12:25:30.001Z</time></trkpt><trkpt lat="41.198083989947015" lon="14.247763456528132"><ele>153.0</ele><time>2026-04-04T12:25:31.001Z</time></trkpt><trkpt lat="41.1982815849876" lon="14.247667178648676"><ele>153.0</ele><time>2026-04-04T12:25:32.001Z</time></trkpt><trkpt lat="41.19848272413649" lon="14.24755695584929"><ele>153.33333333333334</ele><time>2026-04-04T12:25:33.001Z</time></trkpt><trkpt lat="41.19868506556468" lon="14.247447769057365"><ele>153.66666666666669</ele><time>2026-04-04T12:25:34.001Z</time></trkpt><trkpt lat="41.1988687602855" lon="14.247352299590133"><ele>154.0</ele><time>2026-04-04T12:25:35.001Z</time></trkpt><trkpt lat="41.19904238178251" lon="14.24726548265871"><ele>154.0</ele><time>2026-04-04T12:25:36.001Z</time></trkpt><trkpt lat="41.19920463446227" lon="14.247195317369115"><ele>154.0</ele><time>2026-04-04T12:25:37.001Z</time></trkpt><trkpt lat="41.19935147066383" lon="14.24713615037778"><ele>154.0</ele><time>2026-04-04T12:25:38.001Z</time></trkpt><trkpt lat="41.19948156198588" lon="14.24707924256245"><ele>154.0</ele><time>2026-04-04T12:25:39.001Z</time></trkpt><trkpt lat="41.1996132155774" lon="14.247027296374007"><ele>154.0</ele><time>2026-04-04T12:25:40.001Z</time></trkpt><trkpt lat="41.199768943444084" lon="14.247035478853794"><ele>154.0</ele><time>2026-04-04T12:25:41.001Z</time></trkpt><trkpt lat="41.199934330117934" lon="14.2470020668781"><ele>154.66666666666669</ele><time>2026-04-04T12:25:42.001Z</time></trkpt><trkpt lat="41.2001101475463" lon="14.24699695916756"><ele>155.33333333333334</ele><time>2026-04-04T12:25:43.001Z</time></trkpt><trkpt lat="41.20029778827966" lon="14.246979729361136"><ele>156.0</ele><time>2026-04-04T12:25:44.001Z</time></trkpt><trkpt lat="41.20048226758763" lon="14.246941069582576"><ele>156.66666666666666</ele><time>2026-04-04T12:25:45.001Z</time></trkpt><trkpt lat="41.20067014254549" lon="14.246881424057904"><ele>157.33333333333331</ele><time>2026-04-04T12:25:46.001Z</time></trkpt><trkpt lat="41.20085606475024" lon="14.246811377106715"><ele>158.0</ele><time>2026-04-04T12:25:47.001Z</time></trkpt><trkpt lat="41.20104578073281" lon="14.246738724765672"><ele>158.0</ele><time>2026-04-04T12:25:48.001Z</time></trkpt><trkpt lat="41.20123688111673" lon="14.246669212979874"><ele>158.0</ele><time>2026-04-04T12:25:49.001Z</time></trkpt><trkpt lat="41.201428121707465" lon="14.246600187179196"><ele>158.0</ele><time>2026-04-04T12:25:50.001Z</time></trkpt><trkpt lat="41.20161760399862" lon="14.246527884837647"><ele>162.0</ele><time>2026-04-04T12:25:51.001Z</time></trkpt><trkpt lat="41.201808148807544" lon="14.24645658981789"><ele>166.0</ele><time>2026-04-04T12:25:52.001Z</time></trkpt><trkpt lat="41.20199839186946" lon="14.246388768725572"><ele>170.0</ele><time>2026-04-04T12:25:53.001Z</time></trkpt><trkpt lat="41.20218867451171" lon="14.246319486194656"><ele>171.66666666666666</ele><time>2026-04-04T12:25:54.001Z</time></trkpt><trkpt lat="41.20236995718047" lon="14.246253502392278"><ele>173.33333333333334</ele><time>2026-04-04T12:25:55.001Z</time></trkpt><trkpt lat="41.202529061366555" lon="14.246196595614446"><ele>175.0</ele><time>2026-04-04T12:25:56.001Z</time></trkpt><trkpt lat="41.202677754874344" lon="14.246144815483474"><ele>175.0</ele><time>2026-04-04T12:25:57.001Z</time></trkpt><trkpt lat="41.2028164197737" lon="14.246089088979241"><ele>175.0</ele><time>2026-04-04T12:25:58.001Z</time></trkpt><trkpt lat="41.2029433602252" lon="14.246039508305241"><ele>175.0</ele><time>2026-04-04T12:25:59.001Z</time></trkpt><trkpt lat="41.2030780073472" lon="14.245974684765121"><ele>175.0</ele><time>2026-04-04T12:26:00.001Z</time></trkpt><trkpt lat="41.20322892989367" lon="14.245876721341212"><ele>175.33333333333334</ele><time>2026-04-04T12:26:01.001Z</time></trkpt><trkpt lat="41.20338214317988" lon="14.245764501384455"><ele>175.66666666666666</ele><time>2026-04-04T12:26:02.001Z</time></trkpt><trkpt lat="41.20354464003241" lon="14.245658871181632"><ele>176.0</ele><time>2026-04-04T12:26:03.001Z</time></trkpt><trkpt lat="41.20370890416468" lon="14.245551058236742"><ele>178.66666666666666</ele><time>2026-04-04T12:26:04.001Z</time></trkpt><trkpt lat="41.20387362447406" lon="14.245440438175821"><ele>181.33333333333334</ele><time>2026-04-04T12:26:05.001Z</time></trkpt><trkpt lat="41.20404330976346" lon="14.245326818402985"><ele>184.0</ele><time>2026-04-04T12:26:06.001Z</time></trkpt><trkpt lat="41.20421338843719" lon="14.245212015709455"><ele>184.0</ele><time>2026-04-04T12:26:07.001Z</time></trkpt><trkpt lat="41.204395865850394" lon="14.245107407619912"><ele>184.0</ele><time>2026-04-04T12:26:08.001Z</time></trkpt><trkpt lat="41.20458756306117" lon="14.245024214445218"><ele>184.0</ele><time>2026-04-04T12:26:09.001Z</time></trkpt><trkpt lat="41.20479107556203" lon="14.24495135903701"><ele>183.66666666666669</ele><time>2026-04-04T12:26:10.001Z</time></trkpt><trkpt lat="41.20500520611783" lon="14.24488667009516"><ele>183.33333333333334</ele><time>2026-04-04T12:26:11.001Z</time></trkpt><trkpt lat="41.205225248532095" lon="14.244828836935907"><ele>183.0</ele><time>2026-04-04T12:26:12.001Z</time></trkpt><trkpt lat="41.20544588382615" lon="14.24477611902361"><ele>186.0</ele><time>2026-04-04T12:26:13.001Z</time></trkpt><trkpt lat="41.205674791442156" lon="14.244721793182835"><ele>189.0</ele><time>2026-04-04T12:26:14.001Z</time></trkpt><trkpt lat="41.20590224687899" lon="14.24466515554156"><ele>189.0</ele><time>2026-04-04T12:26:15.001Z</time></trkpt><trkpt lat="41.20612017551912" lon="14.244603086820582"><ele>189.0</ele><time>2026-04-04T12:26:16.001Z</time></trkpt><trkpt lat="41.20633376730828" lon="14.244539977874705"><ele>189.0</ele><time>2026-04-04T12:26:17.001Z</time></trkpt><trkpt lat="41.206540165086246" lon="14.244480088092926"><ele>191.0</ele><time>2026-04-04T12:26:18.001Z</time></trkpt><trkpt lat="41.20674338182977" lon="14.244428410986842"><ele>193.0</ele><time>2026-04-04T12:26:19.001Z</time></trkpt><trkpt lat="41.20693634097693" lon="14.24438301731388"><ele>195.0</ele><time>2026-04-04T12:26:20.001Z</time></trkpt><trkpt lat="41.207122164090826" lon="14.244331649063515"><ele>195.0</ele><time>2026-04-04T12:26:21.001Z</time></trkpt><trkpt lat="41.20729123768943" lon="14.24427909393075"><ele>195.0</ele><time>2026-04-04T12:26:22.001Z</time></trkpt><trkpt lat="41.20744722836114" lon="14.244239194496522"><ele>195.0</ele><time>2026-04-04T12:26:23Z</time></trkpt><trkpt lat="41.20759121480295" lon="14.24420038368537"><ele>195.25</ele><time>2026-04-04T12:26:24Z</time></trkpt><trkpt lat="41.20771696491968" lon="14.24413778064259"><ele>195.5</ele><time>2026-04-04T12:26:25Z</time></trkpt><trkpt lat="41.207833340020535" lon="14.244040370558501"><ele>195.75</ele><time>2026-04-04T12:26:26Z</time></trkpt><trkpt lat="41.207936913187865" lon="14.243910363133098"><ele>196.0</ele><time>2026-04-04T12:26:27Z</time></trkpt><trkpt lat="41.208023827664796" lon="14.243754184873792"><ele>195.33333333333331</ele><time>2026-04-04T12:26:28Z</time></trkpt><trkpt lat="41.20810947388023" lon="14.24356242550915"><ele>194.66666666666669</ele><time>2026-04-04T12:26:29Z</time></trkpt><trkpt lat="41.2081887323749" lon="14.243330604148044"><ele>194.0</ele><time>2026-04-04T12:26:30Z</time></trkpt><trkpt lat="41.208269578458214" lon="14.243088975336637"><ele>193.0</ele><time>2026-04-04T12:26:31Z</time></trkpt><trkpt lat="41.20835038137459" lon="14.242859958018089"><ele>192.0</ele><time>2026-04-04T12:26:32Z</time></trkpt><trkpt lat="41.20842653020991" lon="14.2426508562534"><ele>191.0</ele><time>2026-04-04T12:26:33Z</time></trkpt><trkpt lat="41.20849198391852" lon="14.242464411249937"><ele>191.0</ele><time>2026-04-04T12:26:34Z</time></trkpt><trkpt lat="41.20854678793348" lon="14.242302657485135"><ele>191.0</ele><time>2026-04-04T12:26:35Z</time></trkpt><trkpt lat="41.208603430728324" lon="14.242147190554514"><ele>191.0</ele><time>2026-04-04T12:26:36Z</time></trkpt><trkpt lat="41.20867008896419" lon="14.2419959867797"><ele>191.0</ele><time>2026-04-04T12:26:37Z</time></trkpt><trkpt lat="41.20876959514266" lon="14.241856906530275"><ele>191.0</ele><time>2026-04-04T12:26:38Z</time></trkpt><trkpt lat="41.20888663459823" lon="14.241745112450449"><ele>191.0</ele><time>2026-04-04T12:26:39Z</time></trkpt><trkpt lat="41.2090316772513" lon="14.241685294721343"><ele>191.0</ele><time>2026-04-04T12:26:40Z</time></trkpt><trkpt lat="41.20918463527748" lon="14.241609227604844"><ele>192.25</ele><time>2026-04-04T12:26:41Z</time></trkpt><trkpt lat="41.209332796792914" lon="14.241573167985486"><ele>193.5</ele><time>2026-04-04T12:26:42Z</time></trkpt><trkpt lat="41.20946626767511" lon="14.241527780267747"><ele>194.75</ele><time>2026-04-04T12:26:43Z</time></trkpt><trkpt lat="41.20958006674713" lon="14.241471848456177"><ele>196.0</ele><time>2026-04-04T12:26:44Z</time></trkpt><trkpt lat="41.20967659444819" lon="14.241389141878603"><ele>196.5</ele><time>2026-04-04T12:26:45Z</time></trkpt><trkpt lat="41.20973939506767" lon="14.241273786164163"><ele>197.0</ele><time>2026-04-04T12:26:46Z</time></trkpt><trkpt lat="41.20978369197243" lon="14.241121689750033"><ele>197.5</ele><time>2026-04-04T12:26:47Z</time></trkpt><trkpt lat="41.209803317045605" lon="14.240926426630425"><ele>198.0</ele><time>2026-04-04T12:26:48Z</time></trkpt><trkpt lat="41.2098081071235" lon="14.24072711002064"><ele>198.25</ele><time>2026-04-04T12:26:49Z</time></trkpt><trkpt lat="41.20981342184107" lon="14.240530574997418"><ele>198.5</ele><time>2026-04-04T12:26:50Z</time></trkpt><trkpt lat="41.20982199102057" lon="14.240350802702157"><ele>198.75</ele><time>2026-04-04T12:26:51Z</time></trkpt><trkpt lat="41.20983075340526" lon="14.240179889091403"><ele>199.0</ele><time>2026-04-04T12:26:52Z</time></trkpt><trkpt lat="41.20984926199726" lon="14.240021237896883"><ele>199.0</ele><time>2026-04-04T12:26:53Z</time></trkpt><trkpt lat="41.209873043961714" lon="14.239854806343784"><ele>199.0</ele><time>2026-04-04T12:26:54Z</time></trkpt><trkpt lat="41.20988724381914" lon="14.239692391831198"><ele>199.0</ele><time>2026-04-04T12:26:55Z</time></trkpt><trkpt lat="41.20989921687886" lon="14.239528430623633"><ele>199.0</ele><time>2026-04-04T12:26:56Z</time></trkpt><trkpt lat="41.20990540776254" lon="14.239363954833763"><ele>199.0</ele><time>2026-04-04T12:26:57Z</time></trkpt><trkpt lat="41.20991433541535" lon="14.23919867613443"><ele>199.0</ele><time>2026-04-04T12:26:58Z</time></trkpt><trkpt lat="41.20992076512563" lon="14.239033884606426"><ele>199.0</ele><time>2026-04-04T12:26:59Z</time></trkpt><trkpt lat="41.20992907901589" lon="14.238868040195012"><ele>199.0</ele><time>2026-04-04T12:27:00Z</time></trkpt><trkpt lat="41.20993553238068" lon="14.23870291060147"><ele>199.0</ele><time>2026-04-04T12:27:01Z</time></trkpt><trkpt lat="41.209942888181864" lon="14.23853902129234"><ele>199.0</ele><time>2026-04-04T12:27:02Z</time></trkpt><trkpt lat="41.209951108412355" lon="14.238376904200866"><ele>199.0</ele><time>2026-04-04T12:27:03Z</time></trkpt><trkpt lat="41.20996204394886" lon="14.238210301547284"><ele>199.0</ele><time>2026-04-04T12:27:04Z</time></trkpt><trkpt lat="41.20996841806025" lon="14.23804902917398"><ele>199.0</ele><time>2026-04-04T12:27:05Z</time></trkpt><trkpt lat="41.20997631998126" lon="14.237886696080025"><ele>199.0</ele><time>2026-04-04T12:27:06Z</time></trkpt><trkpt lat="41.20998673071133" lon="14.237724930924674"><ele>199.0</ele><time>2026-04-04T12:27:07Z</time></trkpt><trkpt lat="41.20999478269366" lon="14.237576013541114"><ele>199.0</ele><time>2026-04-04T12:27:08Z</time></trkpt><trkpt lat="41.210003482158925" lon="14.237437069195247"><ele>198.5</ele><time>2026-04-04T12:27:09Z</time></trkpt><trkpt lat="41.21001541284194" lon="14.237292303430578"><ele>198.0</ele><time>2026-04-04T12:27:10Z</time></trkpt><trkpt lat="41.2100299125559" lon="14.237145130731822"><ele>197.5</ele><time>2026-04-04T12:27:11Z</time></trkpt><trkpt lat="41.21003658452339" lon="14.236972550589556"><ele>197.0</ele><time>2026-04-04T12:27:12Z</time></trkpt><trkpt lat="41.21004411001653" lon="14.236791450843791"><ele>197.0</ele><time>2026-04-04T12:27:13Z</time></trkpt><trkpt lat="41.21005674717419" lon="14.236622930701719"><ele>197.0</ele><time>2026-04-04T12:27:14Z</time></trkpt><trkpt lat="41.21006826106786" lon="14.236455272257619"><ele>197.0</ele><time>2026-04-04T12:27:15Z</time></trkpt><trkpt lat="41.210083105687914" lon="14.23628659476931"><ele>197.0</ele><time>2026-04-04T12:27:16Z</time></trkpt><trkpt lat="41.21009802918841" lon="14.23612044654062"><ele>196.8</ele><time>2026-04-04T12:27:17Z</time></trkpt><trkpt lat="41.21010820480928" lon="14.235953419701012"><ele>196.6</ele><time>2026-04-04T12:27:18Z</time></trkpt><trkpt lat="41.21011660425016" lon="14.235807538211654"><ele>196.4</ele><time>2026-04-04T12:27:19Z</time></trkpt><trkpt lat="41.2101247698173" lon="14.235667479208422"><ele>196.20000000000002</ele><time>2026-04-04T12:27:20.001Z</time></trkpt><trkpt lat="41.210129906457354" lon="14.235542007414134"><ele>196.0</ele><time>2026-04-04T12:27:21.001Z</time></trkpt><trkpt lat="41.21013251709823" lon="14.235430705559384"><ele>196.4</ele><time>2026-04-04T12:27:22.001Z</time></trkpt><trkpt lat="41.210137084540776" lon="14.235338263690101"><ele>196.8</ele><time>2026-04-04T12:27:23.001Z</time></trkpt><trkpt lat="41.21022522020333" lon="14.23518564248579"><ele>197.20000000000002</ele><time>2026-04-04T12:27:25.001Z</time></trkpt><trkpt lat="41.210326091960184" lon="14.235101660791345"><ele>197.60000000000002</ele><time>2026-04-04T12:27:26.001Z</time></trkpt><trkpt lat="41.21041981551032" lon="14.235029038174192"><ele>198.0</ele><time>2026-04-04T12:27:27.001Z</time></trkpt><trkpt lat="41.21048511085179" lon="14.23497819126934"><ele>198.0</ele><time>2026-04-04T12:27:28.001Z</time></trkpt><trkpt lat="41.210543016100765" lon="14.23493552995076"><ele>198.0</ele><time>2026-04-04T12:27:29.001Z</time></trkpt><trkpt lat="41.21061056957959" lon="14.234883587641361"><ele>198.0</ele><time>2026-04-04T12:27:30.001Z</time></trkpt><trkpt lat="41.210683061117514" lon="14.234822016062441"><ele>198.0</ele><time>2026-04-04T12:27:31.001Z</time></trkpt><trkpt lat="41.21075820224306" lon="14.234757289874334"><ele>198.0</ele><time>2026-04-04T12:27:32.001Z</time></trkpt><trkpt lat="41.210837931674334" lon="14.234689776473392"><ele>198.0</ele><time>2026-04-04T12:27:33.001Z</time></trkpt><trkpt lat="41.21091491885345" lon="14.234622460035794"><ele>199.60000000000002</ele><time>2026-04-04T12:27:34.001Z</time></trkpt><trkpt lat="41.210997341056434" lon="14.234551302056365"><ele>201.20000000000002</ele><time>2026-04-04T12:27:35.001Z</time></trkpt><trkpt lat="41.211079245409834" lon="14.234482683835411"><ele>202.8</ele><time>2026-04-04T12:27:36.001Z</time></trkpt><trkpt lat="41.211166087495016" lon="14.234409585021082"><ele>204.4</ele><time>2026-04-04T12:27:37.001Z</time></trkpt><trkpt lat="41.21124906951636" lon="14.234343694100092"><ele>206.0</ele><time>2026-04-04T12:27:38.001Z</time></trkpt><trkpt lat="41.21132067517302" lon="14.234281674545448"><ele>206.0</ele><time>2026-04-04T12:27:39.001Z</time></trkpt><trkpt lat="41.21137772956206" lon="14.234233530003747"><ele>206.0</ele><time>2026-04-04T12:27:40.001Z</time></trkpt><trkpt lat="41.21143919355288" lon="14.23414452128653"><ele>206.0</ele><time>2026-04-04T12:27:42.001Z</time></trkpt><trkpt lat="41.211386479704196" lon="14.234006568707334"><ele>206.0</ele><time>2026-04-04T12:27:44.001Z</time></trkpt><trkpt lat="41.21129986564103" lon="14.233938451754886"><ele>206.0</ele><time>2026-04-04T12:27:46.001Z</time></trkpt><trkpt lat="41.21121657680073" lon="14.233847240959301"><ele>206.16666666666669</ele><time>2026-04-04T12:27:48.001Z</time></trkpt><trkpt lat="41.21117163393221" lon="14.233784645986862"><ele>206.33333333333334</ele><time>2026-04-04T12:27:49.001Z</time></trkpt><trkpt lat="41.21110313233097" lon="14.23370251629311"><ele>206.5</ele><time>2026-04-04T12:27:50.001Z</time></trkpt><trkpt lat="41.211029431375664" lon="14.2336289991812"><ele>206.66666666666669</ele><time>2026-04-04T12:27:51.001Z</time></trkpt><trkpt lat="41.21095170604008" lon="14.233553009144288"><ele>206.83333333333334</ele><time>2026-04-04T12:27:52.001Z</time></trkpt><trkpt lat="41.21087634918462" lon="14.233469648213417"><ele>207.0</ele><time>2026-04-04T12:27:53.001Z</time></trkpt><trkpt lat="41.21081282085614" lon="14.233391386794116"><ele>207.0</ele><time>2026-04-04T12:27:54.001Z</time></trkpt><trkpt lat="41.21075000441286" lon="14.233313413082772"><ele>207.0</ele><time>2026-04-04T12:27:55.001Z</time></trkpt><trkpt lat="41.21069691055573" lon="14.233250085110498"><ele>207.0</ele><time>2026-04-04T12:27:56.001Z</time></trkpt><trkpt lat="41.21059594989903" lon="14.233143116746225"><ele>207.0</ele><time>2026-04-04T12:27:58.001Z</time></trkpt><trkpt lat="41.21054082078653" lon="14.233080581432693"><ele>207.0</ele><time>2026-04-04T12:27:59.001Z</time></trkpt><trkpt lat="41.21045298812574" lon="14.23299909286287"><ele>206.2</ele><time>2026-04-04T12:28:01.001Z</time></trkpt><trkpt lat="41.21039515741386" lon="14.232925803260697"><ele>205.39999999999998</ele><time>2026-04-04T12:28:03.001Z</time></trkpt><trkpt lat="41.210340992063855" lon="14.23285396065891"><ele>204.60000000000002</ele><time>2026-04-04T12:28:06.001Z</time></trkpt><trkpt lat="41.21040845144094" lon="14.232709785881013"><ele>203.8</ele><time>2026-04-04T12:28:08.001Z</time></trkpt><trkpt lat="41.210519004046965" lon="14.232581696086575"><ele>203.0</ele><time>2026-04-04T12:28:10.001Z</time></trkpt><trkpt lat="41.21058870978999" lon="14.232488134105157"><ele>203.4</ele><time>2026-04-04T12:28:11.001Z</time></trkpt><trkpt lat="41.21066808541937" lon="14.23238216713334"><ele>203.8</ele><time>2026-04-04T12:28:12.001Z</time></trkpt><trkpt lat="41.21075158407919" lon="14.232291850730412"><ele>204.2</ele><time>2026-04-04T12:28:13.001Z</time></trkpt><trkpt lat="41.210825336002955" lon="14.232207214680788"><ele>204.6</ele><time>2026-04-04T12:28:14.001Z</time></trkpt><trkpt lat="41.21088452991908" lon="14.232137235702249"><ele>205.0</ele><time>2026-04-04T12:28:15.001Z</time></trkpt><trkpt lat="41.21093926555136" lon="14.232081818917715"><ele>205.16666666666666</ele><time>2026-04-04T12:28:16.001Z</time></trkpt><trkpt lat="41.210997238305985" lon="14.231997740237952"><ele>205.33333333333331</ele><time>2026-04-04T12:28:18.001Z</time></trkpt><trkpt lat="41.21105102513403" lon="14.23194173980172"><ele>205.5</ele><time>2026-04-04T12:28:21.001Z</time></trkpt><trkpt lat="41.21102004886525" lon="14.231829348100721"><ele>205.66666666666669</ele><time>2026-04-04T12:28:24.001Z</time></trkpt><trkpt lat="41.21099116551436" lon="14.231726352016407"><ele>205.83333333333334</ele><time>2026-04-04T12:28:26.001Z</time></trkpt><trkpt lat="41.21100246769044" lon="14.231576578340114"><ele>206.0</ele><time>2026-04-04T12:28:29Z</time></trkpt><trkpt lat="41.21105070372788" lon="14.231511959711304"><ele>206.00000000000003</ele><time>2026-04-04T12:28:59Z</time></trkpt><trkpt lat="41.21110731076418" lon="14.231469505274296"><ele>206.0</ele><time>2026-04-04T12:29:26.001Z</time></trkpt><trkpt lat="41.211198872008765" lon="14.231367206948404"><ele>206.0</ele><time>2026-04-04T12:29:28.001Z</time></trkpt><trkpt lat="41.21125240028917" lon="14.231308600988385"><ele>206.0</ele><time>2026-04-04T12:29:29.001Z</time></trkpt><trkpt lat="41.21130825165294" lon="14.23124745162034"><ele>206.00000000000003</ele><time>2026-04-04T12:29:30.001Z</time></trkpt><trkpt lat="41.2113667951264" lon="14.231185361215985"><ele>206.0</ele><time>2026-04-04T12:29:31.001Z</time></trkpt><trkpt lat="41.21142461008405" lon="14.231100677391307"><ele>206.0</ele><time>2026-04-04T12:29:32.001Z</time></trkpt><trkpt lat="41.211488747270906" lon="14.231049620683478"><ele>206.0</ele><time>2026-04-04T12:29:33.001Z</time></trkpt><trkpt lat="41.21160582452517" lon="14.230947408607015"><ele>206.0</ele><time>2026-04-04T12:29:35.001Z</time></trkpt><trkpt lat="41.211687142201306" lon="14.23086775718498"><ele>206.0</ele><time>2026-04-04T12:29:36.001Z</time></trkpt><trkpt lat="41.21176035502659" lon="14.230784264966154"><ele>206.0</ele><time>2026-04-04T12:29:37.001Z</time></trkpt><trkpt lat="41.21183845089555" lon="14.230706577010466"><ele>207.0</ele><time>2026-04-04T12:29:38.001Z</time></trkpt><trkpt lat="41.211917349263814" lon="14.230638050634314"><ele>208.0</ele><time>2026-04-04T12:29:39.001Z</time></trkpt><trkpt lat="41.211994849626855" lon="14.230564714770225"><ele>209.0</ele><time>2026-04-04T12:29:40.001Z</time></trkpt><trkpt lat="41.21208262915908" lon="14.230491001371785"><ele>210.0</ele><time>2026-04-04T12:29:41.001Z</time></trkpt><trkpt lat="41.21216259527638" lon="14.230429556764294"><ele>211.0</ele><time>2026-04-04T12:29:42.001Z</time></trkpt><trkpt lat="41.21222788468559" lon="14.230373036526101"><ele>210.99999999999997</ele><time>2026-04-04T12:29:43.001Z</time></trkpt><trkpt lat="41.212300698859394" lon="14.230312797646727"><ele>211.0</ele><time>2026-04-04T12:29:44.001Z</time></trkpt><trkpt lat="41.21237288472359" lon="14.23025806332134"><ele>211.0</ele><time>2026-04-04T12:29:45.001Z</time></trkpt><trkpt lat="41.212433183931125" lon="14.230187615913234"><ele>211.0</ele><time>2026-04-04T12:29:46.001Z</time></trkpt><trkpt lat="41.21249505917975" lon="14.230103444875397"><ele>210.99999999999997</ele><time>2026-04-04T12:29:47.001Z</time></trkpt><trkpt lat="41.21254961382162" lon="14.230017318583775"><ele>211.0</ele><time>2026-04-04T12:29:48.001Z</time></trkpt><trkpt lat="41.212606513843916" lon="14.229930212933404"><ele>210.99999999999997</ele><time>2026-04-04T12:29:49.001Z</time></trkpt><trkpt lat="41.21267490957378" lon="14.229865636527222"><ele>211.0</ele><time>2026-04-04T12:29:50.001Z</time></trkpt><trkpt lat="41.212739782183114" lon="14.229793046131293"><ele>211.0</ele><time>2026-04-04T12:29:51.001Z</time></trkpt><trkpt lat="41.212801181519495" lon="14.229722353730757"><ele>211.0</ele><time>2026-04-04T12:29:52.001Z</time></trkpt><trkpt lat="41.21286756752429" lon="14.2296303652959"><ele>210.99999999999997</ele><time>2026-04-04T12:29:54.001Z</time></trkpt><trkpt lat="41.21289914080384" lon="14.229555768012363"><ele>211.0</ele><time>2026-04-04T12:29:55.001Z</time></trkpt><trkpt lat="41.212956336977925" lon="14.229486126632095"><ele>211.0</ele><time>2026-04-04T12:29:56.001Z</time></trkpt><trkpt lat="41.2130244377084" lon="14.229392389171476"><ele>211.0</ele><time>2026-04-04T12:29:57.001Z</time></trkpt><trkpt lat="41.21309214196589" lon="14.22928951311043"><ele>211.0</ele><time>2026-04-04T12:29:58.001Z</time></trkpt><trkpt lat="41.213161903910716" lon="14.229171753917859"><ele>211.0</ele><time>2026-04-04T12:29:59.001Z</time></trkpt><trkpt lat="41.21323390203231" lon="14.229036196070366"><ele>211.0</ele><time>2026-04-04T12:30:00.001Z</time></trkpt><trkpt lat="41.213307269956566" lon="14.228890554873118"><ele>212.5</ele><time>2026-04-04T12:30:01.001Z</time></trkpt><trkpt lat="41.21338144755988" lon="14.22874678478154"><ele>214.0</ele><time>2026-04-04T12:30:02.001Z</time></trkpt><trkpt lat="41.213452918564656" lon="14.228605189087206"><ele>215.5</ele><time>2026-04-04T12:30:03.001Z</time></trkpt><trkpt lat="41.213520444577256" lon="14.228477036768695"><ele>217.0</ele><time>2026-04-04T12:30:04.001Z</time></trkpt><trkpt lat="41.213584524137" lon="14.228369449866378"><ele>217.0</ele><time>2026-04-04T12:30:05.001Z</time></trkpt><trkpt lat="41.213659134675105" lon="14.228270980108753"><ele>217.0</ele><time>2026-04-04T12:30:06.001Z</time></trkpt><trkpt lat="41.21373861070235" lon="14.228209234541564"><ele>217.0</ele><time>2026-04-04T12:30:07.001Z</time></trkpt><trkpt lat="41.21382635851856" lon="14.228165627073897"><ele>217.0</ele><time>2026-04-04T12:30:08.001Z</time></trkpt><trkpt lat="41.21394062870622" lon="14.228181877005142"><ele>217.0</ele><time>2026-04-04T12:30:09.001Z</time></trkpt><trkpt lat="41.21407144042085" lon="14.228188513439667"><ele>218.25</ele><time>2026-04-04T12:30:10.001Z</time></trkpt><trkpt lat="41.21421950887436" lon="14.228194194519943"><ele>219.5</ele><time>2026-04-04T12:30:11.001Z</time></trkpt><trkpt lat="41.21435156386286" lon="14.228206649973904"><ele>220.75</ele><time>2026-04-04T12:30:12.001Z</time></trkpt><trkpt lat="41.21448038137652" lon="14.228205884889219"><ele>222.0</ele><time>2026-04-04T12:30:13.001Z</time></trkpt><trkpt lat="41.214605440995456" lon="14.228207234000537"><ele>222.0</ele><time>2026-04-04T12:30:14.001Z</time></trkpt><trkpt lat="41.21472254970939" lon="14.228214891040523"><ele>222.0</ele><time>2026-04-04T12:30:15.001Z</time></trkpt><trkpt lat="41.21482132116453" lon="14.228229831287788"><ele>222.0</ele><time>2026-04-04T12:30:16.001Z</time></trkpt><trkpt lat="41.21491785059327" lon="14.228247538468324"><ele>222.0</ele><time>2026-04-04T12:30:17.001Z</time></trkpt><trkpt lat="41.21500005656314" lon="14.228280105257694"><ele>222.0</ele><time>2026-04-04T12:30:18.001Z</time></trkpt><trkpt lat="41.215059573056195" lon="14.228335770400042"><ele>222.66666666666666</ele><time>2026-04-04T12:30:19.001Z</time></trkpt><trkpt lat="41.21514719167356" lon="14.228404712548675"><ele>223.33333333333331</ele><time>2026-04-04T12:30:21.001Z</time></trkpt><trkpt lat="41.21520209384074" lon="14.228445765426697"><ele>224.0</ele><time>2026-04-04T12:30:23.001Z</time></trkpt><trkpt lat="41.21528525445368" lon="14.228361050318245"><ele>224.66666666666666</ele><time>2026-04-04T12:30:33.002Z</time></trkpt><trkpt lat="41.21534111149747" lon="14.22829073206683"><ele>225.33333333333331</ele><time>2026-04-04T12:30:34.002Z</time></trkpt><trkpt lat="41.215402049089555" lon="14.228218818979604"><ele>226.0</ele><time>2026-04-04T12:30:35Z</time></trkpt><trkpt lat="41.21546698472213" lon="14.228142872309855"><ele>226.0</ele><time>2026-04-04T12:30:36Z</time></trkpt><trkpt lat="41.21554972350744" lon="14.228079032671472"><ele>226.00000000000003</ele><time>2026-04-04T12:30:37Z</time></trkpt><trkpt lat="41.21562580812594" lon="14.227996323613386"><ele>226.00000000000003</ele><time>2026-04-04T12:30:38Z</time></trkpt><trkpt lat="41.21570861658422" lon="14.227915969626093"><ele>226.0</ele><time>2026-04-04T12:30:39Z</time></trkpt><trkpt lat="41.215785095671556" lon="14.227818574375995"><ele>226.0</ele><time>2026-04-04T12:30:40Z</time></trkpt><trkpt lat="41.215870906115626" lon="14.22773280486794"><ele>227.5</ele><time>2026-04-04T12:30:41Z</time></trkpt><trkpt lat="41.2159579589959" lon="14.227637537775854"><ele>229.0</ele><time>2026-04-04T12:30:42Z</time></trkpt><trkpt lat="41.21605008347803" lon="14.227544878260634"><ele>230.5</ele><time>2026-04-04T12:30:43Z</time></trkpt><trkpt lat="41.216143951994624" lon="14.227446478604714"><ele>232.0</ele><time>2026-04-04T12:30:44Z</time></trkpt><trkpt lat="41.216238380821636" lon="14.227346322893062"><ele>232.25</ele><time>2026-04-04T12:30:45Z</time></trkpt><trkpt lat="41.216331909529934" lon="14.227244265292592"><ele>232.5</ele><time>2026-04-04T12:30:46Z</time></trkpt><trkpt lat="41.216421994366655" lon="14.227135066855478"><ele>232.75</ele><time>2026-04-04T12:30:47Z</time></trkpt><trkpt lat="41.216515667820225" lon="14.227055688013591"><ele>233.0</ele><time>2026-04-04T12:30:48Z</time></trkpt><trkpt lat="41.21660090642713" lon="14.226961979124887"><ele>235.0</ele><time>2026-04-04T12:30:49Z</time></trkpt><trkpt lat="41.21669200546224" lon="14.226834242266861"><ele>237.0</ele><time>2026-04-04T12:30:50Z</time></trkpt><trkpt lat="41.216801255902766" lon="14.22673275540983"><ele>239.0</ele><time>2026-04-04T12:30:51Z</time></trkpt><trkpt lat="41.21690296056887" lon="14.226631934605354"><ele>241.0</ele><time>2026-04-04T12:30:52Z</time></trkpt><trkpt lat="41.217000607285875" lon="14.226531460002835"><ele>242.0</ele><time>2026-04-04T12:30:53Z</time></trkpt><trkpt lat="41.21709503359373" lon="14.226432326643542"><ele>243.00000000000003</ele><time>2026-04-04T12:30:54Z</time></trkpt><trkpt lat="41.21718339949246" lon="14.226340084814115"><ele>244.00000000000003</ele><time>2026-04-04T12:30:55Z</time></trkpt><trkpt lat="41.217259583170254" lon="14.22623364731018"><ele>245.0</ele><time>2026-04-04T12:30:56Z</time></trkpt><trkpt lat="41.217320898394554" lon="14.226122085849159"><ele>246.0</ele><time>2026-04-04T12:30:57Z</time></trkpt><trkpt lat="41.21735962053481" lon="14.225997188510146"><ele>247.0</ele><time>2026-04-04T12:30:58Z</time></trkpt><trkpt lat="41.217379520226075" lon="14.22584322153665"><ele>248.00000000000003</ele><time>2026-04-04T12:30:59Z</time></trkpt><trkpt lat="41.21737657452044" lon="14.225688173188862"><ele>249.00000000000003</ele><time>2026-04-04T12:31:00Z</time></trkpt><trkpt lat="41.21735573901673" lon="14.225559168279219"><ele>250.0</ele><time>2026-04-04T12:31:01Z</time></trkpt><trkpt lat="41.21735124669345" lon="14.225431234768005"><ele>251.0</ele><time>2026-04-04T12:31:02Z</time></trkpt><trkpt lat="41.21736835012475" lon="14.22530707038715"><ele>252.0</ele><time>2026-04-04T12:31:03Z</time></trkpt><trkpt lat="41.21741005256986" lon="14.22518388276737"><ele>253.0</ele><time>2026-04-04T12:31:04Z</time></trkpt><trkpt lat="41.21747598388012" lon="14.225047669350312"><ele>254.0</ele><time>2026-04-04T12:31:05Z</time></trkpt><trkpt lat="41.21754060278448" lon="14.224909427197279"><ele>255.0</ele><time>2026-04-04T12:31:06Z</time></trkpt><trkpt lat="41.21759670290482" lon="14.224777619047595"><ele>255.0</ele><time>2026-04-04T12:31:07Z</time></trkpt><trkpt lat="41.217652729684595" lon="14.224663490518283"><ele>255.0</ele><time>2026-04-04T12:31:08Z</time></trkpt><trkpt lat="41.217712685168614" lon="14.224552924716283"><ele>255.0</ele><time>2026-04-04T12:31:09Z</time></trkpt><trkpt lat="41.217765120191665" lon="14.2244432814504"><ele>255.0</ele><time>2026-04-04T12:31:10Z</time></trkpt><trkpt lat="41.217818518731164" lon="14.224336119841581"><ele>255.0</ele><time>2026-04-04T12:31:11Z</time></trkpt><trkpt lat="41.21787079487015" lon="14.224208860619319"><ele>255.0</ele><time>2026-04-04T12:31:12Z</time></trkpt><trkpt lat="41.2179045301336" lon="14.224072516129137"><ele>255.0</ele><time>2026-04-04T12:31:13Z</time></trkpt><trkpt lat="41.21792827419369" lon="14.223963306677364"><ele>255.0</ele><time>2026-04-04T12:31:14Z</time></trkpt><trkpt lat="41.21795272940796" lon="14.223879508326712"><ele>255.0</ele><time>2026-04-04T12:31:15Z</time></trkpt><trkpt lat="41.218054962847944" lon="14.223746694263225"><ele>255.0</ele><time>2026-04-04T12:31:17Z</time></trkpt><trkpt lat="41.21808356376718" lon="14.223622171176302"><ele>256.0</ele><time>2026-04-04T12:31:18Z</time></trkpt><trkpt lat="41.21822771924137" lon="14.223624070194987"><ele>257.0</ele><time>2026-04-04T12:31:19Z</time></trkpt><trkpt lat="41.218323695923864" lon="14.22355884635429"><ele>258.0</ele><time>2026-04-04T12:31:20Z</time></trkpt><trkpt lat="41.2184293885518" lon="14.223472087589435"><ele>259.0</ele><time>2026-04-04T12:31:21Z</time></trkpt><trkpt lat="41.21853887474985" lon="14.223385972205296"><ele>259.0</ele><time>2026-04-04T12:31:22Z</time></trkpt><trkpt lat="41.218649797188384" lon="14.223294020083523"><ele>259.0</ele><time>2026-04-04T12:31:23Z</time></trkpt><trkpt lat="41.21876915258598" lon="14.223188375629729"><ele>259.0</ele><time>2026-04-04T12:31:24Z</time></trkpt><trkpt lat="41.21889979034108" lon="14.223061030238943"><ele>259.0</ele><time>2026-04-04T12:31:25Z</time></trkpt><trkpt lat="41.21905297272014" lon="14.222924869533685"><ele>262.66666666666663</ele><time>2026-04-04T12:31:26Z</time></trkpt><trkpt lat="41.21921134182234" lon="14.22279953830514"><ele>266.3333333333333</ele><time>2026-04-04T12:31:27Z</time></trkpt><trkpt lat="41.219336142729425" lon="14.222685595925"><ele>270.0</ele><time>2026-04-04T12:31:28Z</time></trkpt><trkpt lat="41.21944903055336" lon="14.22259220710737"><ele>270.0</ele><time>2026-04-04T12:31:29.001Z</time></trkpt><trkpt lat="41.21954449986152" lon="14.222527361988803"><ele>270.0</ele><time>2026-04-04T12:31:30.001Z</time></trkpt><trkpt lat="41.219599254567804" lon="14.222454038848271"><ele>270.0</ele><time>2026-04-04T12:31:31.001Z</time></trkpt><trkpt lat="41.2196152852834" lon="14.222362230884778"><ele>270.0</ele><time>2026-04-04T12:31:32.001Z</time></trkpt><trkpt lat="41.21960624430003" lon="14.222249113123361"><ele>270.0</ele><time>2026-04-04T12:31:33.001Z</time></trkpt><trkpt lat="41.21956494475023" lon="14.222126012987156"><ele>270.0</ele><time>2026-04-04T12:31:34.001Z</time></trkpt><trkpt lat="41.21949075401519" lon="14.221979344490109"><ele>272.6666666666667</ele><time>2026-04-04T12:31:35.001Z</time></trkpt><trkpt lat="41.21940463442158" lon="14.22180980100315"><ele>275.33333333333337</ele><time>2026-04-04T12:31:36.001Z</time></trkpt><trkpt lat="41.219315786967485" lon="14.221629199318627"><ele>278.0</ele><time>2026-04-04T12:31:37.001Z</time></trkpt><trkpt lat="41.219210893908524" lon="14.221437745735871"><ele>278.6666666666667</ele><time>2026-04-04T12:31:38.001Z</time></trkpt><trkpt lat="41.2191194169046" lon="14.221253585468808"><ele>279.3333333333333</ele><time>2026-04-04T12:31:39.001Z</time></trkpt><trkpt lat="41.21896890474799" lon="14.221158840237024"><ele>280.0</ele><time>2026-04-04T12:31:40.001Z</time></trkpt><trkpt lat="41.21886255639336" lon="14.2210614357998"><ele>280.0</ele><time>2026-04-04T12:31:41.001Z</time></trkpt><trkpt lat="41.2187827341576" lon="14.220931985429225"><ele>280.0</ele><time>2026-04-04T12:31:42.001Z</time></trkpt><trkpt lat="41.21872135269757" lon="14.220771216708384"><ele>280.0</ele><time>2026-04-04T12:31:43.001Z</time></trkpt><trkpt lat="41.218682127025076" lon="14.22058130612701"><ele>280.0</ele><time>2026-04-04T12:31:44.001Z</time></trkpt><trkpt lat="41.21866542759163" lon="14.220389314672245"><ele>282.5</ele><time>2026-04-04T12:31:45.001Z</time></trkpt><trkpt lat="41.21861781386849" lon="14.220224050690646"><ele>285.0</ele><time>2026-04-04T12:31:46.001Z</time></trkpt><trkpt lat="41.2185315233955" lon="14.220091731205324"><ele>287.5</ele><time>2026-04-04T12:31:47.001Z</time></trkpt><trkpt lat="41.21840968027851" lon="14.219973845341064"><ele>290.0</ele><time>2026-04-04T12:31:48.001Z</time></trkpt><trkpt lat="41.21827124664153" lon="14.2198736407238"><ele>290.0</ele><time>2026-04-04T12:31:49.001Z</time></trkpt><trkpt lat="41.218170041928076" lon="14.219785374292583"><ele>290.0</ele><time>2026-04-04T12:31:50.001Z</time></trkpt><trkpt lat="41.218101574497354" lon="14.219686858587076"><ele>290.0</ele><time>2026-04-04T12:31:51.001Z</time></trkpt><trkpt lat="41.218066056110466" lon="14.219574211955434"><ele>290.0</ele><time>2026-04-04T12:31:52.001Z</time></trkpt><trkpt lat="41.218077164058826" lon="14.219454512144246"><ele>290.0</ele><time>2026-04-04T12:31:53.001Z</time></trkpt><trkpt lat="41.218125404524905" lon="14.219325608634652"><ele>290.75</ele><time>2026-04-04T12:31:54.001Z</time></trkpt><trkpt lat="41.2182103044876" lon="14.219202941446191"><ele>291.5</ele><time>2026-04-04T12:31:55.001Z</time></trkpt><trkpt lat="41.218317593530735" lon="14.219097961516105"><ele>292.25</ele><time>2026-04-04T12:31:56.001Z</time></trkpt><trkpt lat="41.21845451056041" lon="14.219005363401852"><ele>293.0</ele><time>2026-04-04T12:31:57.001Z</time></trkpt><trkpt lat="41.218619347869186" lon="14.218914446977141"><ele>293.33333333333337</ele><time>2026-04-04T12:31:58.001Z</time></trkpt><trkpt lat="41.21879032611841" lon="14.2188300289905"><ele>293.6666666666667</ele><time>2026-04-04T12:31:59.001Z</time></trkpt><trkpt lat="41.218959023695376" lon="14.21874443747168"><ele>294.0</ele><time>2026-04-04T12:32:00.001Z</time></trkpt><trkpt lat="41.219100061127826" lon="14.218657682473593"><ele>296.0</ele><time>2026-04-04T12:32:01.001Z</time></trkpt><trkpt lat="41.2192266206759" lon="14.218595149801644"><ele>298.0</ele><time>2026-04-04T12:32:02.001Z</time></trkpt><trkpt lat="41.21936382105534" lon="14.218560566471385"><ele>300.0</ele><time>2026-04-04T12:32:03.001Z</time></trkpt><trkpt lat="41.21949307642371" lon="14.218572747040582"><ele>302.0</ele><time>2026-04-04T12:32:04.001Z</time></trkpt><trkpt lat="41.21962312099894" lon="14.218630453205016"><ele>302.0</ele><time>2026-04-04T12:32:05.001Z</time></trkpt><trkpt lat="41.219760720463974" lon="14.218703348649434"><ele>302.0</ele><time>2026-04-04T12:32:06.001Z</time></trkpt><trkpt lat="41.219900300190055" lon="14.218737273882482"><ele>302.0</ele><time>2026-04-04T12:32:07.001Z</time></trkpt><trkpt lat="41.220051288741395" lon="14.218717935966781"><ele>302.0</ele><time>2026-04-04T12:32:08.001Z</time></trkpt><trkpt lat="41.22020619725588" lon="14.218675988424645"><ele>303.0</ele><time>2026-04-04T12:32:09.001Z</time></trkpt><trkpt lat="41.22033447277952" lon="14.218654083649302"><ele>304.0</ele><time>2026-04-04T12:32:10.001Z</time></trkpt><trkpt lat="41.220459843182205" lon="14.218643975764952"><ele>305.0</ele><time>2026-04-04T12:32:11.001Z</time></trkpt><trkpt lat="41.22055812745174" lon="14.218626956479469"><ele>306.0</ele><time>2026-04-04T12:32:12.001Z</time></trkpt><trkpt lat="41.22062260601782" lon="14.218591474659725"><ele>307.0</ele><time>2026-04-04T12:32:13.001Z</time></trkpt><trkpt lat="41.220663610763566" lon="14.218520056044712"><ele>307.0</ele><time>2026-04-04T12:32:14.001Z</time></trkpt><trkpt lat="41.22068440349791" lon="14.218409179728981"><ele>307.0</ele><time>2026-04-04T12:32:15.001Z</time></trkpt><trkpt lat="41.22070123492293" lon="14.218307808767166"><ele>307.0</ele><time>2026-04-04T12:32:16.001Z</time></trkpt><trkpt lat="41.22064657371805" lon="14.21816029456861"><ele>307.0</ele><time>2026-04-04T12:32:18.001Z</time></trkpt><trkpt lat="41.22056728732277" lon="14.218119846597139"><ele>307.0</ele><time>2026-04-04T12:32:19.001Z</time></trkpt><trkpt lat="41.220466902807935" lon="14.218098680141384"><ele>308.0</ele><time>2026-04-04T12:32:20.001Z</time></trkpt><trkpt lat="41.22037667604071" lon="14.218057069034268"><ele>309.0</ele><time>2026-04-04T12:32:21.001Z</time></trkpt><trkpt lat="41.22031595557098" lon="14.217993657604401"><ele>310.0</ele><time>2026-04-04T12:32:22.001Z</time></trkpt><trkpt lat="41.2202793121292" lon="14.217924190111608"><ele>311.0</ele><time>2026-04-04T12:32:23.001Z</time></trkpt><trkpt lat="41.22023728746646" lon="14.217773190298484"><ele>312.0</ele><time>2026-04-04T12:32:25.001Z</time></trkpt><trkpt lat="41.22018920467912" lon="14.217625395408406"><ele>312.0</ele><time>2026-04-04T12:32:27.001Z</time></trkpt><trkpt lat="41.2201138790891" lon="14.217516383578793"><ele>312.0</ele><time>2026-04-04T12:32:29.001Z</time></trkpt><trkpt lat="41.2200476108412" lon="14.217426820195858"><ele>312.0</ele><time>2026-04-04T12:32:31.001Z</time></trkpt><trkpt lat="41.220036168649635" lon="14.21729632831614"><ele>312.0</ele><time>2026-04-04T12:32:33.001Z</time></trkpt><trkpt lat="41.22004121332617" lon="14.217194604199818"><ele>312.0</ele><time>2026-04-04T12:32:34.001Z</time></trkpt><trkpt lat="41.22003190579379" lon="14.217095613989304"><ele>313.2</ele><time>2026-04-04T12:32:35.001Z</time></trkpt><trkpt lat="41.220027363750496" lon="14.21698906566328"><ele>314.4</ele><time>2026-04-04T12:32:36.001Z</time></trkpt><trkpt lat="41.22002429765893" lon="14.216871079942713"><ele>315.6</ele><time>2026-04-04T12:32:37.002Z</time></trkpt><trkpt lat="41.22001480892269" lon="14.216741152758548"><ele>316.8</ele><time>2026-04-04T12:32:38.002Z</time></trkpt><trkpt lat="41.220007220586844" lon="14.216611342389331"><ele>318.0</ele><time>2026-04-04T12:32:39.002Z</time></trkpt><trkpt lat="41.21999625996305" lon="14.216490009854613"><ele>317.5</ele><time>2026-04-04T12:32:40.002Z</time></trkpt><trkpt lat="41.219995359194215" lon="14.216378941217679"><ele>317.0</ele><time>2026-04-04T12:32:41Z</time></trkpt><trkpt lat="41.219964410899934" lon="14.216296885418984"><ele>316.5</ele><time>2026-04-04T12:32:42Z</time></trkpt><trkpt lat="41.219897726032386" lon="14.216220294179086"><ele>316.0</ele><time>2026-04-04T12:32:43Z</time></trkpt><trkpt lat="41.219802515542376" lon="14.216184980229755"><ele>315.5</ele><time>2026-04-04T12:32:44Z</time></trkpt><trkpt lat="41.219702210867524" lon="14.216171847849338"><ele>315.0</ele><time>2026-04-04T12:32:45Z</time></trkpt><trkpt lat="41.21963182271486" lon="14.216132490978135"><ele>315.0</ele><time>2026-04-04T12:32:46Z</time></trkpt><trkpt lat="41.21957668448194" lon="14.215948926685034"><ele>315.0</ele><time>2026-04-04T12:32:48Z</time></trkpt><trkpt lat="41.21956799508965" lon="14.215787567671102"><ele>315.0</ele><time>2026-04-04T12:32:49Z</time></trkpt><trkpt lat="41.219576221302816" lon="14.215612926582692"><ele>315.0</ele><time>2026-04-04T12:32:50Z</time></trkpt><trkpt lat="41.219584233774924" lon="14.215426871743487"><ele>315.0</ele><time>2026-04-04T12:32:51Z</time></trkpt><trkpt lat="41.21959226169159" lon="14.21522123645228"><ele>315.0</ele><time>2026-04-04T12:32:52Z</time></trkpt><trkpt lat="41.219604394671016" lon="14.215055120952217"><ele>315.0</ele><time>2026-04-04T12:32:53Z</time></trkpt><trkpt lat="41.219630960989356" lon="14.214917574956056"><ele>315.0</ele><time>2026-04-04T12:32:54Z</time></trkpt><trkpt lat="41.219684412138534" lon="14.214801894023518"><ele>314.75</ele><time>2026-04-04T12:32:55Z</time></trkpt><trkpt lat="41.21977008837586" lon="14.214681165780757"><ele>314.5</ele><time>2026-04-04T12:32:56Z</time></trkpt><trkpt lat="41.2198699576003" lon="14.214551264001294"><ele>314.25</ele><time>2026-04-04T12:32:57Z</time></trkpt><trkpt lat="41.219982981391524" lon="14.214416340237907"><ele>314.0</ele><time>2026-04-04T12:32:58Z</time></trkpt><trkpt lat="41.220105150030996" lon="14.214273458132524"><ele>317.33333333333337</ele><time>2026-04-04T12:32:59Z</time></trkpt><trkpt lat="41.22021831238536" lon="14.21412104497186"><ele>320.6666666666667</ele><time>2026-04-04T12:33:00Z</time></trkpt><trkpt lat="41.220323082405336" lon="14.213961715834511"><ele>324.0</ele><time>2026-04-04T12:33:01Z</time></trkpt><trkpt lat="41.22043221664084" lon="14.21379678328543"><ele>324.0</ele><time>2026-04-04T12:33:02Z</time></trkpt><trkpt lat="41.220555192230194" lon="14.21362980985253"><ele>324.0</ele><time>2026-04-04T12:33:03Z</time></trkpt><trkpt lat="41.22068294914479" lon="14.21347993305068"><ele>324.0</ele><time>2026-04-04T12:33:04Z</time></trkpt><trkpt lat="41.220772087941" lon="14.21332525711482"><ele>326.0</ele><time>2026-04-04T12:33:05Z</time></trkpt><trkpt lat="41.22086905120002" lon="14.213198556813966"><ele>328.0</ele><time>2026-04-04T12:33:06Z</time></trkpt><trkpt lat="41.22095725132945" lon="14.21307360717628"><ele>330.0</ele><time>2026-04-04T12:33:07Z</time></trkpt><trkpt lat="41.22104118867571" lon="14.212967926402273"><ele>332.0</ele><time>2026-04-04T12:33:08Z</time></trkpt><trkpt lat="41.22111290517432" lon="14.21286756910752"><ele>332.0</ele><time>2026-04-04T12:33:09Z</time></trkpt><trkpt lat="41.221171118970105" lon="14.21277039884375"><ele>332.0</ele><time>2026-04-04T12:33:10Z</time></trkpt><trkpt lat="41.22122162965377" lon="14.212682711001852"><ele>332.0</ele><time>2026-04-04T12:33:11Z</time></trkpt><trkpt lat="41.22125290131489" lon="14.212588863168095"><ele>332.0</ele><time>2026-04-04T12:33:12Z</time></trkpt><trkpt lat="41.22126667801112" lon="14.212491590855894"><ele>332.0</ele><time>2026-04-04T12:33:13Z</time></trkpt><trkpt lat="41.22126968866282" lon="14.212404564306443"><ele>332.0</ele><time>2026-04-04T12:33:14Z</time></trkpt><trkpt lat="41.22128437148482" lon="14.21225615475815"><ele>332.6</ele><time>2026-04-04T12:33:16Z</time></trkpt><trkpt lat="41.221331742067" lon="14.212161224985227"><ele>333.20000000000005</ele><time>2026-04-04T12:33:18Z</time></trkpt><trkpt lat="41.22142376316148" lon="14.21223877378248"><ele>333.8</ele><time>2026-04-04T12:33:19Z</time></trkpt><trkpt lat="41.221519492558365" lon="14.212279042346477"><ele>334.4</ele><time>2026-04-04T12:33:20Z</time></trkpt><trkpt lat="41.221644237997296" lon="14.212299884278815"><ele>335.0</ele><time>2026-04-04T12:33:21Z</time></trkpt><trkpt lat="41.22176971627286" lon="14.212364502922627"><ele>336.25</ele><time>2026-04-04T12:33:22Z</time></trkpt><trkpt lat="41.22188905196732" lon="14.212403210644487"><ele>337.5</ele><time>2026-04-04T12:33:23Z</time></trkpt><trkpt lat="41.22203760827689" lon="14.212436859531516"><ele>338.75</ele><time>2026-04-04T12:33:24Z</time></trkpt><trkpt lat="41.22220106772035" lon="14.21245833133107"><ele>340.0</ele><time>2026-04-04T12:33:25Z</time></trkpt><trkpt lat="41.22237258352408" lon="14.212481445563574"><ele>342.8</ele><time>2026-04-04T12:33:26Z</time></trkpt><trkpt lat="41.222513249241615" lon="14.212496522929385"><ele>345.6</ele><time>2026-04-04T12:33:27Z</time></trkpt><trkpt lat="41.22262721811719" lon="14.212508102000609"><ele>348.4</ele><time>2026-04-04T12:33:28Z</time></trkpt><trkpt lat="41.222720789624915" lon="14.212495266981888"><ele>351.2</ele><time>2026-04-04T12:33:29Z</time></trkpt><trkpt lat="41.22279438761174" lon="14.212445239014281"><ele>354.0</ele><time>2026-04-04T12:33:30.001Z</time></trkpt><trkpt lat="41.22285154221487" lon="14.212355168431056"><ele>354.0</ele><time>2026-04-04T12:33:31.001Z</time></trkpt><trkpt lat="41.22288261055441" lon="14.212225556421371"><ele>354.0</ele><time>2026-04-04T12:33:32.001Z</time></trkpt><trkpt lat="41.22288855610121" lon="14.2120575449133"><ele>354.0</ele><time>2026-04-04T12:33:33.001Z</time></trkpt><trkpt lat="41.22288630577512" lon="14.211865062572956"><ele>354.0</ele><time>2026-04-04T12:33:34.001Z</time></trkpt><trkpt lat="41.2228871670497" lon="14.211645047303712"><ele>355.3333333333333</ele><time>2026-04-04T12:33:35.001Z</time></trkpt><trkpt lat="41.222894488567796" lon="14.211409202669225"><ele>356.66666666666663</ele><time>2026-04-04T12:33:36.001Z</time></trkpt><trkpt lat="41.22290744639086" lon="14.211169100611178"><ele>358.0</ele><time>2026-04-04T12:33:37.001Z</time></trkpt><trkpt lat="41.222922931738104" lon="14.210913438304084"><ele>358.0</ele><time>2026-04-04T12:33:38.001Z</time></trkpt><trkpt lat="41.222931774997356" lon="14.210674573953499"><ele>358.0</ele><time>2026-04-04T12:33:39.001Z</time></trkpt><trkpt lat="41.222942183036324" lon="14.210464074727403"><ele>358.0</ele><time>2026-04-04T12:33:40.001Z</time></trkpt><trkpt lat="41.22295334883855" lon="14.210257782287185"><ele>359.0</ele><time>2026-04-04T12:33:41.001Z</time></trkpt><trkpt lat="41.22297574912728" lon="14.21006214002439"><ele>360.0</ele><time>2026-04-04T12:33:42.001Z</time></trkpt><trkpt lat="41.22302187031527" lon="14.209866405846729"><ele>361.0</ele><time>2026-04-04T12:33:43.001Z</time></trkpt><trkpt lat="41.22308345877529" lon="14.209693025076602"><ele>362.0</ele><time>2026-04-04T12:33:44.001Z</time></trkpt><trkpt lat="41.2231416975444" lon="14.209530608779811"><ele>366.6</ele><time>2026-04-04T12:33:45.001Z</time></trkpt><trkpt lat="41.22318199619632" lon="14.209392680043262"><ele>371.20000000000005</ele><time>2026-04-04T12:33:46.001Z</time></trkpt><trkpt lat="41.22321272780953" lon="14.209256753521837"><ele>375.8</ele><time>2026-04-04T12:33:47.001Z</time></trkpt><trkpt lat="41.2232381867664" lon="14.209116956765929"><ele>380.4</ele><time>2026-04-04T12:33:48.001Z</time></trkpt><trkpt lat="41.22325540658109" lon="14.20897408250059"><ele>385.0</ele><time>2026-04-04T12:33:49.001Z</time></trkpt><trkpt lat="41.223269548569476" lon="14.208815426650672"><ele>385.5</ele><time>2026-04-04T12:33:50.001Z</time></trkpt><trkpt lat="41.22329241521252" lon="14.20864919179031"><ele>386.0</ele><time>2026-04-04T12:33:51.001Z</time></trkpt><trkpt lat="41.223321455104795" lon="14.20847162057519"><ele>386.5</ele><time>2026-04-04T12:33:52.001Z</time></trkpt><trkpt lat="41.223331723635376" lon="14.208278806136988"><ele>387.0</ele><time>2026-04-04T12:33:53.001Z</time></trkpt><trkpt lat="41.22331137290221" lon="14.208075476245519"><ele>389.0</ele><time>2026-04-04T12:33:54.001Z</time></trkpt><trkpt lat="41.22326217583522" lon="14.207877916313224"><ele>391.0</ele><time>2026-04-04T12:33:55.001Z</time></trkpt><trkpt lat="41.22318811569874" lon="14.207669945413366"><ele>393.0</ele><time>2026-04-04T12:33:56.001Z</time></trkpt><trkpt lat="41.22312044758914" lon="14.20745269359381"><ele>392.33333333333337</ele><time>2026-04-04T12:33:57.001Z</time></trkpt><trkpt lat="41.22307532593011" lon="14.20724274058734"><ele>391.6666666666667</ele><time>2026-04-04T12:33:58.001Z</time></trkpt><trkpt lat="41.22305298329618" lon="14.207043586543099"><ele>391.0</ele><time>2026-04-04T12:33:59.001Z</time></trkpt><trkpt lat="41.22303922677031" lon="14.206852658590268"><ele>391.0</ele><time>2026-04-04T12:34:00.001Z</time></trkpt><trkpt lat="41.223044139599125" lon="14.20666624346455"><ele>391.0</ele><time>2026-04-04T12:34:01.001Z</time></trkpt><trkpt lat="41.22303698947194" lon="14.206505160783479"><ele>391.0</ele><time>2026-04-04T12:34:02.001Z</time></trkpt><trkpt lat="41.222998464732015" lon="14.2063558475925"><ele>391.0</ele><time>2026-04-04T12:34:03.001Z</time></trkpt><trkpt lat="41.22292555552668" lon="14.206199400677226"><ele>393.0</ele><time>2026-04-04T12:34:04.001Z</time></trkpt><trkpt lat="41.22282356255696" lon="14.206047080030391"><ele>395.0</ele><time>2026-04-04T12:34:05.001Z</time></trkpt><trkpt lat="41.222720245678296" lon="14.205898595369643"><ele>397.0</ele><time>2026-04-04T12:34:06.001Z</time></trkpt><trkpt lat="41.222637382510094" lon="14.205744962073384"><ele>399.0</ele><time>2026-04-04T12:34:07.001Z</time></trkpt><trkpt lat="41.22258298992699" lon="14.205596588785152"><ele>400.2</ele><time>2026-04-04T12:34:08.001Z</time></trkpt><trkpt lat="41.22254542603682" lon="14.205452865977946"><ele>401.4</ele><time>2026-04-04T12:34:09.001Z</time></trkpt><trkpt lat="41.22251777444965" lon="14.205306257983388"><ele>402.6</ele><time>2026-04-04T12:34:10.001Z</time></trkpt><trkpt lat="41.22250840326025" lon="14.205164384989967"><ele>403.8</ele><time>2026-04-04T12:34:11.001Z</time></trkpt><trkpt lat="41.2225321368198" lon="14.205041081757727"><ele>405.0</ele><time>2026-04-04T12:34:12.001Z</time></trkpt><trkpt lat="41.222572480479045" lon="14.20492906879624"><ele>405.25</ele><time>2026-04-04T12:34:13.001Z</time></trkpt><trkpt lat="41.22263756129128" lon="14.204816362976448"><ele>405.5</ele><time>2026-04-04T12:34:14.001Z</time></trkpt><trkpt lat="41.22272232527" lon="14.204700209861933"><ele>405.75</ele><time>2026-04-04T12:34:15.001Z</time></trkpt><trkpt lat="41.222817771309444" lon="14.20456633768655"><ele>406.0</ele><time>2026-04-04T12:34:16.001Z</time></trkpt><trkpt lat="41.22290567886452" lon="14.204399919813497"><ele>406.0</ele><time>2026-04-04T12:34:17.001Z</time></trkpt><trkpt lat="41.223005290512305" lon="14.204223036545331"><ele>406.0</ele><time>2026-04-04T12:34:18.001Z</time></trkpt><trkpt lat="41.22306484027104" lon="14.204014520935996"><ele>406.0</ele><time>2026-04-04T12:34:19.001Z</time></trkpt><trkpt lat="41.223166522249905" lon="14.203838344610224"><ele>409.6666666666667</ele><time>2026-04-04T12:34:20.001Z</time></trkpt><trkpt lat="41.223276865082966" lon="14.203679924434502"><ele>413.33333333333337</ele><time>2026-04-04T12:34:21.001Z</time></trkpt><trkpt lat="41.22338298950632" lon="14.20352358450986"><ele>417.0</ele><time>2026-04-04T12:34:22.001Z</time></trkpt><trkpt lat="41.2234749329927" lon="14.203348803701182"><ele>417.0</ele><time>2026-04-04T12:34:23.001Z</time></trkpt><trkpt lat="41.223550766500516" lon="14.203153867893889"><ele>417.0</ele><time>2026-04-04T12:34:24.001Z</time></trkpt><trkpt lat="41.22362060221694" lon="14.202938013881747"><ele>417.0</ele><time>2026-04-04T12:34:25.001Z</time></trkpt><trkpt lat="41.223675931504395" lon="14.2027030726168"><ele>417.0</ele><time>2026-04-04T12:34:26.001Z</time></trkpt><trkpt lat="41.223727626226186" lon="14.202460965980446"><ele>417.0</ele><time>2026-04-04T12:34:27.001Z</time></trkpt><trkpt lat="41.22378541384403" lon="14.20222115300585"><ele>417.0</ele><time>2026-04-04T12:34:28.001Z</time></trkpt><trkpt lat="41.22383452135495" lon="14.201985334093152"><ele>418.33333333333337</ele><time>2026-04-04T12:34:29.001Z</time></trkpt><trkpt lat="41.22386002397232" lon="14.20173893467337"><ele>419.6666666666667</ele><time>2026-04-04T12:34:30.001Z</time></trkpt><trkpt lat="41.223864753515635" lon="14.201494769641146"><ele>421.0</ele><time>2026-04-04T12:34:31.001Z</time></trkpt><trkpt lat="41.223859709346385" lon="14.201252720024211"><ele>423.0</ele><time>2026-04-04T12:34:32.001Z</time></trkpt><trkpt lat="41.22386298465302" lon="14.201010581301666"><ele>425.0</ele><time>2026-04-04T12:34:33.001Z</time></trkpt><trkpt lat="41.223877040547904" lon="14.200767065193483"><ele>427.0</ele><time>2026-04-04T12:34:34.001Z</time></trkpt><trkpt lat="41.22390710848453" lon="14.200526845778873"><ele>428.25</ele><time>2026-04-04T12:34:35.001Z</time></trkpt><trkpt lat="41.2239234245109" lon="14.200310398726065"><ele>429.5</ele><time>2026-04-04T12:34:36.001Z</time></trkpt><trkpt lat="41.22393440977757" lon="14.200138289788713"><ele>430.75</ele><time>2026-04-04T12:34:37.002Z</time></trkpt><trkpt lat="41.22392048031474" lon="14.19998576724938"><ele>432.0</ele><time>2026-04-04T12:34:38.002Z</time></trkpt><trkpt lat="41.22387226596838" lon="14.199824193251004"><ele>434.25</ele><time>2026-04-04T12:34:39.002Z</time></trkpt><trkpt lat="41.2237946315949" lon="14.199664568332846"><ele>436.5</ele><time>2026-04-04T12:34:40.002Z</time></trkpt><trkpt lat="41.223699758594044" lon="14.199510624957929"><ele>438.75</ele><time>2026-04-04T12:34:41.002Z</time></trkpt><trkpt lat="41.22363454817191" lon="14.19937412868666"><ele>441.0</ele><time>2026-04-04T12:34:42.002Z</time></trkpt><trkpt lat="41.223591839723944" lon="14.19922628075839"><ele>441.0</ele><time>2026-04-04T12:34:43.002Z</time></trkpt><trkpt lat="41.22357270767265" lon="14.199061638283842"><ele>441.0</ele><time>2026-04-04T12:34:44.002Z</time></trkpt><trkpt lat="41.22359822993379" lon="14.198871235816105"><ele>441.0</ele><time>2026-04-04T12:34:45.002Z</time></trkpt><trkpt lat="41.2236028263332" lon="14.198661119114542"><ele>441.0</ele><time>2026-04-04T12:34:46.002Z</time></trkpt><trkpt lat="41.22362552473887" lon="14.198436791924003"><ele>442.66666666666663</ele><time>2026-04-04T12:34:47Z</time></trkpt><trkpt lat="41.22364339223616" lon="14.198200326731293"><ele>444.3333333333333</ele><time>2026-04-04T12:34:48Z</time></trkpt><trkpt lat="41.223657654657266" lon="14.197952829503071"><ele>446.0</ele><time>2026-04-04T12:34:49Z</time></trkpt><trkpt lat="41.22367636468432" lon="14.197692995832048"><ele>448.3333333333333</ele><time>2026-04-04T12:34:50Z</time></trkpt><trkpt lat="41.223694651295375" lon="14.197422047377547"><ele>450.66666666666663</ele><time>2026-04-04T12:34:51Z</time></trkpt><trkpt lat="41.22371530981019" lon="14.197156448683662"><ele>453.0</ele><time>2026-04-04T12:34:52Z</time></trkpt><trkpt lat="41.223734458674436" lon="14.196910687955"><ele>455.0</ele><time>2026-04-04T12:34:53Z</time></trkpt><trkpt lat="41.22375902659597" lon="14.1966977931316"><ele>457.0</ele><time>2026-04-04T12:34:54Z</time></trkpt><trkpt lat="41.22378697444151" lon="14.19650598295157"><ele>459.0</ele><time>2026-04-04T12:34:55Z</time></trkpt><trkpt lat="41.22382446512428" lon="14.196298450817164"><ele>462.0</ele><time>2026-04-04T12:34:56Z</time></trkpt><trkpt lat="41.223873227016355" lon="14.196090349877686"><ele>465.0</ele><time>2026-04-04T12:34:57Z</time></trkpt><trkpt lat="41.223932367868514" lon="14.195882127644659"><ele>468.0</ele><time>2026-04-04T12:34:58Z</time></trkpt><trkpt lat="41.22399381644363" lon="14.195678104671195"><ele>472.66666666666663</ele><time>2026-04-04T12:34:59Z</time></trkpt><trkpt lat="41.224057064253266" lon="14.195468715529673"><ele>477.3333333333333</ele><time>2026-04-04T12:35:00Z</time></trkpt><trkpt lat="41.2241269559296" lon="14.19525899245925"><ele>482.0</ele><time>2026-04-04T12:35:01Z</time></trkpt><trkpt lat="41.224207787226284" lon="14.19504970925931"><ele>482.0</ele><time>2026-04-04T12:35:02Z</time></trkpt><trkpt lat="41.22429534592741" lon="14.194843021849048"><ele>482.0</ele><time>2026-04-04T12:35:03Z</time></trkpt><trkpt lat="41.22438477804464" lon="14.194637006810696"><ele>482.0</ele><time>2026-04-04T12:35:04Z</time></trkpt><trkpt lat="41.224473112974515" lon="14.194432691837717"><ele>482.66666666666663</ele><time>2026-04-04T12:35:05Z</time></trkpt><trkpt lat="41.22455024673518" lon="14.194230599487309"><ele>483.33333333333337</ele><time>2026-04-04T12:35:06Z</time></trkpt><trkpt lat="41.22461241680122" lon="14.194023222542555"><ele>484.0</ele><time>2026-04-04T12:35:07Z</time></trkpt><trkpt lat="41.224661883316784" lon="14.19379733997967"><ele>484.0</ele><time>2026-04-04T12:35:08Z</time></trkpt><trkpt lat="41.22470890231014" lon="14.193555947992554"><ele>484.0</ele><time>2026-04-04T12:35:09Z</time></trkpt><trkpt lat="41.22475914945422" lon="14.193294718425093"><ele>484.0</ele><time>2026-04-04T12:35:10Z</time></trkpt><trkpt lat="41.22481198052407" lon="14.193019404831144"><ele>491.5</ele><time>2026-04-04T12:35:11Z</time></trkpt><trkpt lat="41.22487056586462" lon="14.192730020918848"><ele>499.0</ele><time>2026-04-04T12:35:12Z</time></trkpt><trkpt lat="41.22493379745491" lon="14.192433157520847"><ele>502.0</ele><time>2026-04-04T12:35:13Z</time></trkpt><trkpt lat="41.22499450081641" lon="14.192132876266767"><ele>505.0</ele><time>2026-04-04T12:35:14Z</time></trkpt><trkpt lat="41.22506015776086" lon="14.191830615345467"><ele>505.0</ele><time>2026-04-04T12:35:15Z</time></trkpt><trkpt lat="41.225121077780884" lon="14.191529937491394"><ele>505.0</ele><time>2026-04-04T12:35:16Z</time></trkpt><trkpt lat="41.225176007485125" lon="14.19123026881729"><ele>506.6666666666667</ele><time>2026-04-04T12:35:17Z</time></trkpt><trkpt lat="41.22523203555923" lon="14.190935104779395"><ele>508.33333333333337</ele><time>2026-04-04T12:35:18Z</time></trkpt><trkpt lat="41.225271087175635" lon="14.190665637288038"><ele>510.0</ele><time>2026-04-04T12:35:19Z</time></trkpt><trkpt lat="41.225305290239156" lon="14.190419044386672"><ele>510.33333333333337</ele><time>2026-04-04T12:35:20Z</time></trkpt><trkpt lat="41.225344263152046" lon="14.190175896620937"><ele>510.6666666666667</ele><time>2026-04-04T12:35:21Z</time></trkpt><trkpt lat="41.2253874506671" lon="14.18994633345896"><ele>511.0</ele><time>2026-04-04T12:35:22Z</time></trkpt><trkpt lat="41.22542563654047" lon="14.189729529706925"><ele>511.0</ele><time>2026-04-04T12:35:23Z</time></trkpt><trkpt lat="41.22548375058131" lon="14.189521861313604"><ele>511.0</ele><time>2026-04-04T12:35:24Z</time></trkpt><trkpt lat="41.22557071125533" lon="14.18931436621266"><ele>511.0</ele><time>2026-04-04T12:35:25Z</time></trkpt><trkpt lat="41.22566581392293" lon="14.189096935519643"><ele>516.0</ele><time>2026-04-04T12:35:26Z</time></trkpt><trkpt lat="41.225755984257376" lon="14.188864246501332"><ele>521.0</ele><time>2026-04-04T12:35:27Z</time></trkpt><trkpt lat="41.225823641622014" lon="14.188617487909635"><ele>526.0</ele><time>2026-04-04T12:35:28Z</time></trkpt><trkpt lat="41.2258755750577" lon="14.188361008903888"><ele>526.0</ele><time>2026-04-04T12:35:29Z</time></trkpt><trkpt lat="41.225930256865134" lon="14.188091755262143"><ele>526.0</ele><time>2026-04-04T12:35:30Z</time></trkpt><trkpt lat="41.22599333358486" lon="14.187824246731449"><ele>526.0</ele><time>2026-04-04T12:35:31Z</time></trkpt><trkpt lat="41.226052099271804" lon="14.187596375219863"><ele>526.0</ele><time>2026-04-04T12:35:32Z</time></trkpt><trkpt lat="41.226101259207" lon="14.187404788927136"><ele>526.0</ele><time>2026-04-04T12:35:33Z</time></trkpt><trkpt lat="41.226142151949524" lon="14.187247829067774"><ele>526.0</ele><time>2026-04-04T12:35:34Z</time></trkpt><trkpt lat="41.22617595649424" lon="14.187115491101244"><ele>526.0</ele><time>2026-04-04T12:35:35Z</time></trkpt><trkpt lat="41.226207014723855" lon="14.187006751604331"><ele>526.2</ele><time>2026-04-04T12:35:36Z</time></trkpt><trkpt lat="41.2262626201472" lon="14.186907240336582"><ele>526.4000000000001</ele><time>2026-04-04T12:35:37Z</time></trkpt><trkpt lat="41.22633537218554" lon="14.186864939830153"><ele>526.6</ele><time>2026-04-04T12:35:38.001Z</time></trkpt><trkpt lat="41.22640300616445" lon="14.186904738003692"><ele>526.8000000000001</ele><time>2026-04-04T12:35:39.001Z</time></trkpt><trkpt lat="41.22649008156439" lon="14.186948726492727"><ele>527.0</ele><time>2026-04-04T12:35:40.001Z</time></trkpt><trkpt lat="41.226566079304654" lon="14.187066119202385"><ele>529.5</ele><time>2026-04-04T12:35:41.001Z</time></trkpt><trkpt lat="41.22663771898363" lon="14.187223697120785"><ele>532.0</ele><time>2026-04-04T12:35:42.001Z</time></trkpt><trkpt lat="41.226728866818064" lon="14.187398814630772"><ele>534.5</ele><time>2026-04-04T12:35:43.001Z</time></trkpt><trkpt lat="41.22680326234608" lon="14.187543608220558"><ele>537.0</ele><time>2026-04-04T12:35:44.001Z</time></trkpt><trkpt lat="41.226861896525534" lon="14.1876788952588"><ele>537.0</ele><time>2026-04-04T12:35:45.001Z</time></trkpt><trkpt lat="41.22691977740267" lon="14.187813881223656"><ele>537.0</ele><time>2026-04-04T12:35:46.001Z</time></trkpt><trkpt lat="41.2269041796428" lon="14.187983120781478"><ele>537.0</ele><time>2026-04-04T12:35:47.001Z</time></trkpt><trkpt lat="41.22687609435591" lon="14.188145172190888"><ele>537.0</ele><time>2026-04-04T12:35:48.001Z</time></trkpt><trkpt lat="41.22685544375462" lon="14.188306983182684"><ele>538.5</ele><time>2026-04-04T12:35:49.001Z</time></trkpt><trkpt lat="41.22683874324953" lon="14.18848916802671"><ele>540.0</ele><time>2026-04-04T12:35:50.001Z</time></trkpt><trkpt lat="41.22681788447691" lon="14.188684265348542"><ele>541.5</ele><time>2026-04-04T12:35:51.001Z</time></trkpt><trkpt lat="41.22683768102274" lon="14.188864402046308"><ele>543.0</ele><time>2026-04-04T12:35:52.001Z</time></trkpt><trkpt lat="41.22687300671855" lon="14.189066703576609"><ele>543.5</ele><time>2026-04-04T12:35:53.001Z</time></trkpt><trkpt lat="41.22689103380599" lon="14.189272812259677"><ele>544.0</ele><time>2026-04-04T12:35:54.001Z</time></trkpt><trkpt lat="41.226903721934924" lon="14.189452267895645"><ele>544.5</ele><time>2026-04-04T12:35:55.001Z</time></trkpt><trkpt lat="41.22691867399635" lon="14.189635370872518"><ele>545.0</ele><time>2026-04-04T12:35:56.001Z</time></trkpt><trkpt lat="41.22694169807811" lon="14.18982568888793"><ele>545.3333333333333</ele><time>2026-04-04T12:35:57.001Z</time></trkpt><trkpt lat="41.2269816140461" lon="14.190028007521532"><ele>545.6666666666666</ele><time>2026-04-04T12:35:58.001Z</time></trkpt><trkpt lat="41.22703437074065" lon="14.190244993867925"><ele>546.0</ele><time>2026-04-04T12:35:59.001Z</time></trkpt><trkpt lat="41.22708177158534" lon="14.190442246515344"><ele>546.0</ele><time>2026-04-04T12:36:00.001Z</time></trkpt><trkpt lat="41.2271244965843" lon="14.190603086161454"><ele>546.0</ele><time>2026-04-04T12:36:01.001Z</time></trkpt><trkpt lat="41.22716591985272" lon="14.190711392905039"><ele>546.0</ele><time>2026-04-04T12:36:02.001Z</time></trkpt><trkpt lat="41.22721698844277" lon="14.190784167272078"><ele>546.0</ele><time>2026-04-04T12:36:03.001Z</time></trkpt><trkpt lat="41.22727493756269" lon="14.190823715932705"><ele>546.0</ele><time>2026-04-04T12:36:04.001Z</time></trkpt><trkpt lat="41.22734457009881" lon="14.190824833451616"><ele>546.0</ele><time>2026-04-04T12:36:05.001Z</time></trkpt><trkpt lat="41.227422116125915" lon="14.190789979740579"><ele>549.25</ele><time>2026-04-04T12:36:06.001Z</time></trkpt><trkpt lat="41.22749628084438" lon="14.19069528817099"><ele>552.5</ele><time>2026-04-04T12:36:07.001Z</time></trkpt><trkpt lat="41.22754722019944" lon="14.190556797246842"><ele>555.75</ele><time>2026-04-04T12:36:08.001Z</time></trkpt><trkpt lat="41.22759087114134" lon="14.190400686436265"><ele>559.0</ele><time>2026-04-04T12:36:09.001Z</time></trkpt><trkpt lat="41.227625389253525" lon="14.190221187583216"><ele>560.25</ele><time>2026-04-04T12:36:10.001Z</time></trkpt><trkpt lat="41.22765638832736" lon="14.190034887605322"><ele>561.5</ele><time>2026-04-04T12:36:11.001Z</time></trkpt><trkpt lat="41.22770965785549" lon="14.189847531544094"><ele>562.75</ele><time>2026-04-04T12:36:12.001Z</time></trkpt><trkpt lat="41.22778578008462" lon="14.189668463452488"><ele>564.0</ele><time>2026-04-04T12:36:13.001Z</time></trkpt><trkpt lat="41.22784538304897" lon="14.189528004975102"><ele>564.2</ele><time>2026-04-04T12:36:14.001Z</time></trkpt><trkpt lat="41.227885703524024" lon="14.189404517301108"><ele>564.4</ele><time>2026-04-04T12:36:15.001Z</time></trkpt><trkpt lat="41.22790966946557" lon="14.189301359476016"><ele>564.6</ele><time>2026-04-04T12:36:16.001Z</time></trkpt><trkpt lat="41.22792121599135" lon="14.18920377258703"><ele>564.8</ele><time>2026-04-04T12:36:17.001Z</time></trkpt><trkpt lat="41.22792732253469" lon="14.189076937459813"><ele>565.0</ele><time>2026-04-04T12:36:18.001Z</time></trkpt><trkpt lat="41.227894368456724" lon="14.188928425327433"><ele>563.5</ele><time>2026-04-04T12:36:19.001Z</time></trkpt><trkpt lat="41.22790954214242" lon="14.188792722529113"><ele>562.0</ele><time>2026-04-04T12:36:20.001Z</time></trkpt><trkpt lat="41.22794337952049" lon="14.188666219495548"><ele>560.5</ele><time>2026-04-04T12:36:21.001Z</time></trkpt><trkpt lat="41.22801602380629" lon="14.188520527038174"><ele>559.0</ele><time>2026-04-04T12:36:22.001Z</time></trkpt><trkpt lat="41.228120448767626" lon="14.188354052440722"><ele>562.3333333333334</ele><time>2026-04-04T12:36:23.001Z</time></trkpt><trkpt lat="41.22823363795658" lon="14.188164182339518"><ele>565.6666666666666</ele><time>2026-04-04T12:36:24.001Z</time></trkpt><trkpt lat="41.22834340009442" lon="14.187954982507563"><ele>569.0</ele><time>2026-04-04T12:36:25.001Z</time></trkpt><trkpt lat="41.22846102574224" lon="14.18772788056819"><ele>569.0</ele><time>2026-04-04T12:36:26.001Z</time></trkpt><trkpt lat="41.22856786144116" lon="14.18747343854554"><ele>569.0</ele><time>2026-04-04T12:36:27.001Z</time></trkpt><trkpt lat="41.22866393848349" lon="14.18721291179217"><ele>569.0</ele><time>2026-04-04T12:36:28.001Z</time></trkpt><trkpt lat="41.22874222403245" lon="14.186958806235836"><ele>569.0</ele><time>2026-04-04T12:36:29.001Z</time></trkpt><trkpt lat="41.22880809918201" lon="14.186691012836798"><ele>569.0</ele><time>2026-04-04T12:36:30.001Z</time></trkpt><trkpt lat="41.228862742003145" lon="14.186416126011478"><ele>569.0</ele><time>2026-04-04T12:36:31.001Z</time></trkpt><trkpt lat="41.22890354962141" lon="14.186169996658307"><ele>569.0</ele><time>2026-04-04T12:36:32.001Z</time></trkpt><trkpt lat="41.22893466131859" lon="14.185953903856769"><ele>569.0</ele><time>2026-04-04T12:36:33.001Z</time></trkpt><trkpt lat="41.228957682821694" lon="14.18578341407768"><ele>569.0</ele><time>2026-04-04T12:36:34.001Z</time></trkpt><trkpt lat="41.2289777485148" lon="14.185640865304448"><ele>569.0</ele><time>2026-04-04T12:36:35.001Z</time></trkpt><trkpt lat="41.22901381196437" lon="14.185527110006102"><ele>572.5</ele><time>2026-04-04T12:36:36.001Z</time></trkpt><trkpt lat="41.22906261393481" lon="14.185437584208975"><ele>576.0</ele><time>2026-04-04T12:36:37.001Z</time></trkpt><trkpt lat="41.22912206725085" lon="14.185350675729845"><ele>579.5</ele><time>2026-04-04T12:36:38.001Z</time></trkpt><trkpt lat="41.22917463715065" lon="14.185263505462459"><ele>583.0</ele><time>2026-04-04T12:36:39.001Z</time></trkpt><trkpt lat="41.22922099152495" lon="14.185172372057673"><ele>586.5</ele><time>2026-04-04T12:36:40.002Z</time></trkpt><trkpt lat="41.22926941402962" lon="14.185093994469039"><ele>590.0</ele><time>2026-04-04T12:36:41.002Z</time></trkpt><trkpt lat="41.22933473722987" lon="14.185014262274402"><ele>590.0</ele><time>2026-04-04T12:36:42.002Z</time></trkpt><trkpt lat="41.22939720235685" lon="14.18493703499481"><ele>590.0</ele><time>2026-04-04T12:36:43.002Z</time></trkpt><trkpt lat="41.22946257916407" lon="14.184830084552264"><ele>590.0</ele><time>2026-04-04T12:36:44.002Z</time></trkpt><trkpt lat="41.229537846837104" lon="14.184699108160759"><ele>590.0</ele><time>2026-04-04T12:36:45.002Z</time></trkpt><trkpt lat="41.22963879870106" lon="14.184552747056848"><ele>587.6666666666666</ele><time>2026-04-04T12:36:46.002Z</time></trkpt><trkpt lat="41.2297540793306" lon="14.184397340212215"><ele>585.3333333333334</ele><time>2026-04-04T12:36:47.002Z</time></trkpt><trkpt lat="41.22986122033684" lon="14.184244420013473"><ele>583.0</ele><time>2026-04-04T12:36:48.002Z</time></trkpt><trkpt lat="41.229945175525515" lon="14.184099327870983"><ele>588.3333333333334</ele><time>2026-04-04T12:36:49.002Z</time></trkpt><trkpt lat="41.23001430755891" lon="14.183934599050344"><ele>593.6666666666666</ele><time>2026-04-04T12:36:50.002Z</time></trkpt><trkpt lat="41.2300688427743" lon="14.183746694072518"><ele>599.0</ele><time>2026-04-04T12:36:51.002Z</time></trkpt><trkpt lat="41.23010129507124" lon="14.18352769191813"><ele>599.0</ele><time>2026-04-04T12:36:52.002Z</time></trkpt><trkpt lat="41.230120853981056" lon="14.183284647024777"><ele>599.0</ele><time>2026-04-04T12:36:53Z</time></trkpt><trkpt lat="41.230117971000446" lon="14.183016062439284"><ele>599.0</ele><time>2026-04-04T12:36:54Z</time></trkpt><trkpt lat="41.2301026515207" lon="14.182738383811667"><ele>601.0</ele><time>2026-04-04T12:36:55Z</time></trkpt><trkpt lat="41.23011057395273" lon="14.182455397267331"><ele>603.0</ele><time>2026-04-04T12:36:56Z</time></trkpt><trkpt lat="41.230091108435644" lon="14.182163811222432"><ele>605.0</ele><time>2026-04-04T12:36:57Z</time></trkpt><trkpt lat="41.230089398218944" lon="14.181882651542276"><ele>606.3333333333333</ele><time>2026-04-04T12:36:58Z</time></trkpt><trkpt lat="41.23007956752899" lon="14.181623765218887"><ele>607.6666666666666</ele><time>2026-04-04T12:36:59Z</time></trkpt><trkpt lat="41.23005156190941" lon="14.181367697025845"><ele>609.0</ele><time>2026-04-04T12:37:00Z</time></trkpt><trkpt lat="41.229995524758536" lon="14.18109576841381"><ele>610.3333333333334</ele><time>2026-04-04T12:37:01Z</time></trkpt><trkpt lat="41.229919359734915" lon="14.180843734529748"><ele>611.6666666666667</ele><time>2026-04-04T12:37:02Z</time></trkpt><trkpt lat="41.229848793357235" lon="14.180626567462191"><ele>613.0</ele><time>2026-04-04T12:37:03Z</time></trkpt><trkpt lat="41.229793840411695" lon="14.180430721002896"><ele>609.0</ele><time>2026-04-04T12:37:04Z</time></trkpt><trkpt lat="41.22974456791738" lon="14.180217165492913"><ele>605.0</ele><time>2026-04-04T12:37:05Z</time></trkpt><trkpt lat="41.22971516790662" lon="14.180008301265584"><ele>601.0</ele><time>2026-04-04T12:37:06Z</time></trkpt><trkpt lat="41.22969252570745" lon="14.17981927588554"><ele>601.0</ele><time>2026-04-04T12:37:07Z</time></trkpt><trkpt lat="41.22968859153153" lon="14.179659914800506"><ele>601.0</ele><time>2026-04-04T12:37:08Z</time></trkpt><trkpt lat="41.22972660395089" lon="14.17949443728689"><ele>601.0</ele><time>2026-04-04T12:37:09Z</time></trkpt><trkpt lat="41.22976553036717" lon="14.179309723625952"><ele>601.0</ele><time>2026-04-04T12:37:10Z</time></trkpt><trkpt lat="41.2297839940464" lon="14.179108160464056"><ele>603.0</ele><time>2026-04-04T12:37:11Z</time></trkpt><trkpt lat="41.22978800310749" lon="14.178874760796036"><ele>605.0</ele><time>2026-04-04T12:37:12Z</time></trkpt><trkpt lat="41.229763857548" lon="14.17861589061776"><ele>607.0</ele><time>2026-04-04T12:37:13Z</time></trkpt><trkpt lat="41.22973343888841" lon="14.178341872646012"><ele>609.3333333333334</ele><time>2026-04-04T12:37:14Z</time></trkpt><trkpt lat="41.22973316089924" lon="14.178091662245984"><ele>611.6666666666666</ele><time>2026-04-04T12:37:15Z</time></trkpt><trkpt lat="41.22972472667849" lon="14.177887216690985"><ele>614.0</ele><time>2026-04-04T12:37:16Z</time></trkpt><trkpt lat="41.2297176003575" lon="14.177680906383301"><ele>614.0</ele><time>2026-04-04T12:37:17Z</time></trkpt><trkpt lat="41.22972290230334" lon="14.177464005820251"><ele>614.0</ele><time>2026-04-04T12:37:18Z</time></trkpt><trkpt lat="41.22973363702992" lon="14.177270457081155"><ele>614.0</ele><time>2026-04-04T12:37:19Z</time></trkpt><trkpt lat="41.22976640114778" lon="14.177120105020638"><ele>614.0</ele><time>2026-04-04T12:37:20Z</time></trkpt><trkpt lat="41.229797645695974" lon="14.177001859369579"><ele>615.5</ele><time>2026-04-04T12:37:21Z</time></trkpt><trkpt lat="41.229844656385595" lon="14.176902007879539"><ele>617.0</ele><time>2026-04-04T12:37:22Z</time></trkpt><trkpt lat="41.2299132730867" lon="14.176803072057321"><ele>618.5</ele><time>2026-04-04T12:37:23Z</time></trkpt><trkpt lat="41.23001389007172" lon="14.176703373533835"><ele>620.0</ele><time>2026-04-04T12:37:24Z</time></trkpt><trkpt lat="41.230153876254725" lon="14.176657749980572"><ele>620.0</ele><time>2026-04-04T12:37:25Z</time></trkpt><trkpt lat="41.23029744996938" lon="14.176573401200278"><ele>620.0</ele><time>2026-04-04T12:37:26Z</time></trkpt><trkpt lat="41.23042823741746" lon="14.176482185360388"><ele>620.0</ele><time>2026-04-04T12:37:27Z</time></trkpt><trkpt lat="41.2305676499334" lon="14.176402152245563"><ele>619.75</ele><time>2026-04-04T12:37:28Z</time></trkpt><trkpt lat="41.23069915917057" lon="14.176347624756268"><ele>619.5</ele><time>2026-04-04T12:37:29Z</time></trkpt><trkpt lat="41.23082352687903" lon="14.176269428237093"><ele>619.25</ele><time>2026-04-04T12:37:30Z</time></trkpt><trkpt lat="41.23093074538255" lon="14.176174684209158"><ele>619.0</ele><time>2026-04-04T12:37:31Z</time></trkpt><trkpt lat="41.231006959903816" lon="14.176041443853586"><ele>619.0</ele><time>2026-04-04T12:37:32Z</time></trkpt><trkpt lat="41.23107814359712" lon="14.175888925928245"><ele>619.0</ele><time>2026-04-04T12:37:33Z</time></trkpt><trkpt lat="41.231137643256325" lon="14.17570538691672"><ele>619.0</ele><time>2026-04-04T12:37:34Z</time></trkpt><trkpt lat="41.23118916477305" lon="14.175505049687137"><ele>619.0</ele><time>2026-04-04T12:37:35Z</time></trkpt><trkpt lat="41.23124156725035" lon="14.175292863723435"><ele>614.75</ele><time>2026-04-04T12:37:36Z</time></trkpt><trkpt lat="41.23130182712953" lon="14.175100508854976"><ele>610.5</ele><time>2026-04-04T12:37:37.001Z</time></trkpt><trkpt lat="41.23134704844271" lon="14.174925829482332"><ele>606.25</ele><time>2026-04-04T12:37:38.001Z</time></trkpt><trkpt lat="41.231391978608315" lon="14.17478882239143"><ele>602.0</ele><time>2026-04-04T12:37:39.001Z</time></trkpt><trkpt lat="41.231450670880285" lon="14.17465949818568"><ele>604.5</ele><time>2026-04-04T12:37:40.001Z</time></trkpt><trkpt lat="41.231528070853315" lon="14.174543465518878"><ele>607.0</ele><time>2026-04-04T12:37:41.001Z</time></trkpt><trkpt lat="41.23162188942845" lon="14.174428995013761"><ele>609.5</ele><time>2026-04-04T12:37:42.001Z</time></trkpt><trkpt lat="41.23172546697831" lon="14.174320714452836"><ele>612.0</ele><time>2026-04-04T12:37:43.001Z</time></trkpt><trkpt lat="41.23182472949192" lon="14.17424182056287"><ele>612.0</ele><time>2026-04-04T12:37:44.001Z</time></trkpt><trkpt lat="41.231916726496124" lon="14.17419207084015"><ele>612.0</ele><time>2026-04-04T12:37:45.001Z</time></trkpt><trkpt lat="41.232018153601814" lon="14.174159604631273"><ele>612.0</ele><time>2026-04-04T12:37:46.001Z</time></trkpt><trkpt lat="41.2321232143236" lon="14.174147763920004"><ele>612.0</ele><time>2026-04-04T12:37:47.001Z</time></trkpt><trkpt lat="41.23223921245025" lon="14.174154479693795"><ele>612.0</ele><time>2026-04-04T12:37:48.001Z</time></trkpt><trkpt lat="41.23235070752587" lon="14.174137275224583"><ele>607.0</ele><time>2026-04-04T12:37:49.001Z</time></trkpt><trkpt lat="41.23246380002477" lon="14.174078162631817"><ele>602.0</ele><time>2026-04-04T12:37:50.001Z</time></trkpt><trkpt lat="41.23257145603095" lon="14.174010117447601"><ele>597.0</ele><time>2026-04-04T12:37:51.001Z</time></trkpt><trkpt lat="41.23268252499627" lon="14.17393850897996"><ele>592.0</ele><time>2026-04-04T12:37:52.001Z</time></trkpt><trkpt lat="41.232799763365264" lon="14.173860992184945"><ele>592.0</ele><time>2026-04-04T12:37:53.001Z</time></trkpt><trkpt lat="41.23291949681117" lon="14.1737945123647"><ele>592.0</ele><time>2026-04-04T12:37:54.001Z</time></trkpt><trkpt lat="41.23304320188531" lon="14.173731367729612"><ele>592.0</ele><time>2026-04-04T12:37:55.001Z</time></trkpt><trkpt lat="41.23317116629199" lon="14.17369757507767"><ele>592.0</ele><time>2026-04-04T12:37:56.001Z</time></trkpt><trkpt lat="41.233294100338114" lon="14.173653143193084"><ele>594.2</ele><time>2026-04-04T12:37:57.001Z</time></trkpt><trkpt lat="41.23340098263526" lon="14.17360800692801"><ele>596.4000000000001</ele><time>2026-04-04T12:37:58.001Z</time></trkpt><trkpt lat="41.23350053896017" lon="14.173571322180225"><ele>598.5999999999999</ele><time>2026-04-04T12:37:59.001Z</time></trkpt><trkpt lat="41.2335956385369" lon="14.173533319821052"><ele>600.8</ele><time>2026-04-04T12:38:00.001Z</time></trkpt><trkpt lat="41.23368592823427" lon="14.173519906743598"><ele>603.0</ele><time>2026-04-04T12:38:01.001Z</time></trkpt><trkpt lat="41.23377346963637" lon="14.17354409561549"><ele>603.0</ele><time>2026-04-04T12:38:02.001Z</time></trkpt><trkpt lat="41.23385844135454" lon="14.173550073917914"><ele>603.0</ele><time>2026-04-04T12:38:03.001Z</time></trkpt><trkpt lat="41.233928901128614" lon="14.173524365416878"><ele>603.0</ele><time>2026-04-04T12:38:04.001Z</time></trkpt><trkpt lat="41.233984885649186" lon="14.173461934512721"><ele>603.0</ele><time>2026-04-04T12:38:05.001Z</time></trkpt><trkpt lat="41.23403001530645" lon="14.173372345626378"><ele>603.0</ele><time>2026-04-04T12:38:06.001Z</time></trkpt><trkpt lat="41.23407923552506" lon="14.173284441303245"><ele>603.0</ele><time>2026-04-04T12:38:07.001Z</time></trkpt><trkpt lat="41.23412139768725" lon="14.173184324824579"><ele>604.4</ele><time>2026-04-04T12:38:08.001Z</time></trkpt><trkpt lat="41.23415384843394" lon="14.173069534370706"><ele>605.8</ele><time>2026-04-04T12:38:09.001Z</time></trkpt><trkpt lat="41.234177886369274" lon="14.172944304652907"><ele>607.2</ele><time>2026-04-04T12:38:10.001Z</time></trkpt><trkpt lat="41.23420791763272" lon="14.172814468848534"><ele>608.6</ele><time>2026-04-04T12:38:11.001Z</time></trkpt><trkpt lat="41.23423704678701" lon="14.172683755328038"><ele>610.0</ele><time>2026-04-04T12:38:12.001Z</time></trkpt><trkpt lat="41.234269693914165" lon="14.172550235754754"><ele>610.0</ele><time>2026-04-04T12:38:13.001Z</time></trkpt><trkpt lat="41.2342913462877" lon="14.172419411412797"><ele>610.0</ele><time>2026-04-04T12:38:14.001Z</time></trkpt><trkpt lat="41.234301137222396" lon="14.172271795931636"><ele>610.0</ele><time>2026-04-04T12:38:15.001Z</time></trkpt><trkpt lat="41.234304738739354" lon="14.172136813680513"><ele>610.0</ele><time>2026-04-04T12:38:16.001Z</time></trkpt><trkpt lat="41.23430615718583" lon="14.171994162450064"><ele>610.0</ele><time>2026-04-04T12:38:17.001Z</time></trkpt><trkpt lat="41.23429919418587" lon="14.171850419045741"><ele>609.6</ele><time>2026-04-04T12:38:18.001Z</time></trkpt><trkpt lat="41.23428395292631" lon="14.171710693056362"><ele>609.2</ele><time>2026-04-04T12:38:19.001Z</time></trkpt><trkpt lat="41.23425523375031" lon="14.171575937998995"><ele>608.8</ele><time>2026-04-04T12:38:20.001Z</time></trkpt><trkpt lat="41.23422926374062" lon="14.171439677516817"><ele>608.4</ele><time>2026-04-04T12:38:21.001Z</time></trkpt><trkpt lat="41.2341835224918" lon="14.171306444884738"><ele>608.0</ele><time>2026-04-04T12:38:22.001Z</time></trkpt><trkpt lat="41.23413988165376" lon="14.171163552784037"><ele>608.0</ele><time>2026-04-04T12:38:23.001Z</time></trkpt><trkpt lat="41.234078387964466" lon="14.171030735439603"><ele>608.0</ele><time>2026-04-04T12:38:24.001Z</time></trkpt><trkpt lat="41.234012325583215" lon="14.170900472585586"><ele>608.0</ele><time>2026-04-04T12:38:25.001Z</time></trkpt><trkpt lat="41.2339416639717" lon="14.170770025217978"><ele>608.0</ele><time>2026-04-04T12:38:26.001Z</time></trkpt><trkpt lat="41.23385671615448" lon="14.170650733264628"><ele>599.0</ele><time>2026-04-04T12:38:27.001Z</time></trkpt><trkpt lat="41.23379305504568" lon="14.17050924781999"><ele>590.0</ele><time>2026-04-04T12:38:28.001Z</time></trkpt><trkpt lat="41.23373224822551" lon="14.17036221246173"><ele>581.0</ele><time>2026-04-04T12:38:29.001Z</time></trkpt><trkpt lat="41.2336697427871" lon="14.170213018455902"><ele>572.0</ele><time>2026-04-04T12:38:30.001Z</time></trkpt><trkpt lat="41.23360799521331" lon="14.17005892127472"><ele>572.0</ele><time>2026-04-04T12:38:31.001Z</time></trkpt><trkpt lat="41.23354050047115" lon="14.169910153916891"><ele>572.0</ele><time>2026-04-04T12:38:32.001Z</time></trkpt><trkpt lat="41.23346497829793" lon="14.169770423478926"><ele>572.0</ele><time>2026-04-04T12:38:33.001Z</time></trkpt><trkpt lat="41.2333811315553" lon="14.169631276463042"><ele>572.0</ele><time>2026-04-04T12:38:34.001Z</time></trkpt><trkpt lat="41.23330028645802" lon="14.169495240493614"><ele>573.2</ele><time>2026-04-04T12:38:35.001Z</time></trkpt><trkpt lat="41.233225174399145" lon="14.16936471437904"><ele>574.4000000000001</ele><time>2026-04-04T12:38:36.001Z</time></trkpt><trkpt lat="41.233161730807296" lon="14.169247559723656"><ele>575.5999999999999</ele><time>2026-04-04T12:38:37.001Z</time></trkpt><trkpt lat="41.23311244106659" lon="14.16914278070865"><ele>576.8</ele><time>2026-04-04T12:38:38.002Z</time></trkpt><trkpt lat="41.23309407209282" lon="14.169050429184027"><ele>578.0</ele><time>2026-04-04T12:38:39.002Z</time></trkpt><trkpt lat="41.23310287747359" lon="14.1689418508645"><ele>574.0</ele><time>2026-04-04T12:38:40.002Z</time></trkpt><trkpt lat="41.23313232629886" lon="14.168834184360945"><ele>570.0</ele><time>2026-04-04T12:38:41.002Z</time></trkpt><trkpt lat="41.23319734369537" lon="14.168752356294341"><ele>566.0</ele><time>2026-04-04T12:38:42.002Z</time></trkpt><trkpt lat="41.23329454372704" lon="14.168678553395361"><ele>562.0</ele><time>2026-04-04T12:38:43.002Z</time></trkpt><trkpt lat="41.23337448895466" lon="14.168609367068909"><ele>558.0</ele><time>2026-04-04T12:38:44.002Z</time></trkpt><trkpt lat="41.23346775822125" lon="14.168512503474112"><ele>558.0</ele><time>2026-04-04T12:38:45.002Z</time></trkpt><trkpt lat="41.23355314915111" lon="14.168394276785905"><ele>558.0</ele><time>2026-04-04T12:38:46.002Z</time></trkpt><trkpt lat="41.23365564091311" lon="14.16828840559566"><ele>558.0</ele><time>2026-04-04T12:38:47.002Z</time></trkpt><trkpt lat="41.23375969244205" lon="14.168173700504802"><ele>558.0</ele><time>2026-04-04T12:38:48.002Z</time></trkpt><trkpt lat="41.233869145478835" lon="14.168051026939947"><ele>553.75</ele><time>2026-04-04T12:38:49.002Z</time></trkpt><trkpt lat="41.23399084718249" lon="14.167937766221657"><ele>549.5</ele><time>2026-04-04T12:38:50.002Z</time></trkpt><trkpt lat="41.2341154978379" lon="14.167841435021813"><ele>545.25</ele><time>2026-04-04T12:38:51.002Z</time></trkpt><trkpt lat="41.23426187056964" lon="14.167791133597076"><ele>541.0</ele><time>2026-04-04T12:38:52.002Z</time></trkpt><trkpt lat="41.23440853365392" lon="14.167720659018618"><ele>541.0</ele><time>2026-04-04T12:38:53.002Z</time></trkpt><trkpt lat="41.2345433004065" lon="14.167615443110645"><ele>541.0</ele><time>2026-04-04T12:38:54.002Z</time></trkpt><trkpt lat="41.23467544473966" lon="14.167540429360539"><ele>541.0</ele><time>2026-04-04T12:38:55.002Z</time></trkpt><trkpt lat="41.234801674613564" lon="14.167447010655156"><ele>541.0</ele><time>2026-04-04T12:38:56.002Z</time></trkpt><trkpt lat="41.234914794447675" lon="14.167344278815994"><ele>536.5</ele><time>2026-04-04T12:38:57.002Z</time></trkpt><trkpt lat="41.23502669912104" lon="14.16722233359899"><ele>532.0</ele><time>2026-04-04T12:38:58.002Z</time></trkpt><trkpt lat="41.23514198307768" lon="14.16710191203144"><ele>527.5</ele><time>2026-04-04T12:38:59Z</time></trkpt><trkpt lat="41.235253894553125" lon="14.166989245425029"><ele>523.0</ele><time>2026-04-04T12:39:00Z</time></trkpt><trkpt lat="41.235365588414" lon="14.16689380344484"><ele>523.0</ele><time>2026-04-04T12:39:01Z</time></trkpt><trkpt lat="41.23549460675618" lon="14.166817234602698"><ele>523.0</ele><time>2026-04-04T12:39:02Z</time></trkpt><trkpt lat="41.235634998905475" lon="14.166753678688146"><ele>523.0</ele><time>2026-04-04T12:39:03Z</time></trkpt><trkpt lat="41.23578337478344" lon="14.166702839718562"><ele>523.0</ele><time>2026-04-04T12:39:04Z</time></trkpt><trkpt lat="41.23593699123949" lon="14.166662130372154"><ele>526.5</ele><time>2026-04-04T12:39:05Z</time></trkpt><trkpt lat="41.23608112255089" lon="14.166628686453082"><ele>530.0</ele><time>2026-04-04T12:39:06Z</time></trkpt><trkpt lat="41.23622034833596" lon="14.16659983056387"><ele>533.5</ele><time>2026-04-04T12:39:07Z</time></trkpt><trkpt lat="41.236342881081185" lon="14.166579110022914"><ele>537.0</ele><time>2026-04-04T12:39:08Z</time></trkpt><trkpt lat="41.236457208552146" lon="14.166557693300105"><ele>537.0</ele><time>2026-04-04T12:39:09Z</time></trkpt><trkpt lat="41.23658667579214" lon="14.166546466506508"><ele>537.0</ele><time>2026-04-04T12:39:10Z</time></trkpt><trkpt lat="41.23671540393514" lon="14.166560776809492"><ele>537.0</ele><time>2026-04-04T12:39:11Z</time></trkpt><trkpt lat="41.236830888278" lon="14.16658245220361"><ele>537.0</ele><time>2026-04-04T12:39:12Z</time></trkpt><trkpt lat="41.23693006605035" lon="14.166585006619568"><ele>537.0</ele><time>2026-04-04T12:39:13Z</time></trkpt><trkpt lat="41.23702920078216" lon="14.166589581861462"><ele>537.0</ele><time>2026-04-04T12:39:14Z</time></trkpt><trkpt lat="41.237128643358226" lon="14.166508758882816"><ele>537.0</ele><time>2026-04-04T12:39:15Z</time></trkpt><trkpt lat="41.237223156794464" lon="14.166416461966012"><ele>537.0</ele><time>2026-04-04T12:39:16Z</time></trkpt><trkpt lat="41.23733136450342" lon="14.166327880311249"><ele>530.0</ele><time>2026-04-04T12:39:17Z</time></trkpt><trkpt lat="41.237427723858964" lon="14.166211006164"><ele>523.0</ele><time>2026-04-04T12:39:18Z</time></trkpt><trkpt lat="41.237554405205216" lon="14.166130323433263"><ele>516.0</ele><time>2026-04-04T12:39:19Z</time></trkpt><trkpt lat="41.237692201775374" lon="14.166035187135293"><ele>509.0</ele><time>2026-04-04T12:39:20Z</time></trkpt><trkpt lat="41.23782722940856" lon="14.165925101543996"><ele>509.0</ele><time>2026-04-04T12:39:21Z</time></trkpt><trkpt lat="41.23797379126001" lon="14.165816568911566"><ele>509.0</ele><time>2026-04-04T12:39:22Z</time></trkpt><trkpt lat="41.238122169090964" lon="14.165706114198331"><ele>509.0</ele><time>2026-04-04T12:39:23Z</time></trkpt><trkpt lat="41.23827028428379" lon="14.165591627769382"><ele>508.0</ele><time>2026-04-04T12:39:24Z</time></trkpt><trkpt lat="41.23841670198775" lon="14.165477506112865"><ele>507.0</ele><time>2026-04-04T12:39:25Z</time></trkpt><trkpt lat="41.2385677772691" lon="14.16536840884366"><ele>506.0</ele><time>2026-04-04T12:39:26Z</time></trkpt><trkpt lat="41.23871569156249" lon="14.16525640546549"><ele>506.0</ele><time>2026-04-04T12:39:27Z</time></trkpt><trkpt lat="41.2388607067644" lon="14.165145391043577"><ele>506.0</ele><time>2026-04-04T12:39:28Z</time></trkpt><trkpt lat="41.239009037408515" lon="14.16503257188705"><ele>506.0</ele><time>2026-04-04T12:39:29Z</time></trkpt><trkpt lat="41.239159467157364" lon="14.164920108847967"><ele>504.0</ele><time>2026-04-04T12:39:30Z</time></trkpt><trkpt lat="41.23930894072785" lon="14.164805783822587"><ele>502.0</ele><time>2026-04-04T12:39:31Z</time></trkpt><trkpt lat="41.23945396098764" lon="14.164687870976328"><ele>500.0</ele><time>2026-04-04T12:39:32Z</time></trkpt><trkpt lat="41.23959794861845" lon="14.164574340907297"><ele>500.0</ele><time>2026-04-04T12:39:33Z</time></trkpt><trkpt lat="41.239726919488376" lon="14.164470539300734"><ele>500.0</ele><time>2026-04-04T12:39:34Z</time></trkpt><trkpt lat="41.23983522992294" lon="14.164387258461483"><ele>500.0</ele><time>2026-04-04T12:39:35Z</time></trkpt><trkpt lat="41.2399163898303" lon="14.164325696085038"><ele>500.0</ele><time>2026-04-04T12:39:36Z</time></trkpt><trkpt lat="41.23998409175178" lon="14.164260659529546"><ele>501.2</ele><time>2026-04-04T12:39:37Z</time></trkpt><trkpt lat="41.240031284978066" lon="14.164188162837384"><ele>502.4</ele><time>2026-04-04T12:39:38.001Z</time></trkpt><trkpt lat="41.24006639826985" lon="14.16410768349713"><ele>503.6</ele><time>2026-04-04T12:39:39.001Z</time></trkpt><trkpt lat="41.24012550432894" lon="14.163959015811816"><ele>504.8</ele><time>2026-04-04T12:39:41.001Z</time></trkpt><trkpt lat="41.24013587789219" lon="14.163876406878703"><ele>506.0</ele><time>2026-04-04T12:39:42.001Z</time></trkpt><trkpt lat="41.24014036268364" lon="14.163713477151733"><ele>506.0</ele><time>2026-04-04T12:39:44.001Z</time></trkpt><trkpt lat="41.24010002211349" lon="14.163602623679894"><ele>506.0</ele><time>2026-04-04T12:39:46.001Z</time></trkpt><trkpt lat="41.24002951598239" lon="14.163516447119065"><ele>506.0</ele><time>2026-04-04T12:39:48.001Z</time></trkpt><trkpt lat="41.239946698216784" lon="14.163411988019032"><ele>506.0</ele><time>2026-04-04T12:39:50.001Z</time></trkpt><trkpt lat="41.239884284256775" lon="14.163377761230308"><ele>506.0</ele><time>2026-04-04T12:39:51.001Z</time></trkpt><trkpt lat="41.23980384129184" lon="14.163356673764554"><ele>504.0</ele><time>2026-04-04T12:39:52.001Z</time></trkpt><trkpt lat="41.239707805131175" lon="14.16334375939108"><ele>502.0</ele><time>2026-04-04T12:39:53.001Z</time></trkpt><trkpt lat="41.239601559489614" lon="14.163370727850339"><ele>500.0</ele><time>2026-04-04T12:39:54.001Z</time></trkpt><trkpt lat="41.23949019571991" lon="14.16342236811302"><ele>498.0</ele><time>2026-04-04T12:39:55.001Z</time></trkpt><trkpt lat="41.239375238495384" lon="14.163480998198064"><ele>496.0</ele><time>2026-04-04T12:39:56.001Z</time></trkpt><trkpt lat="41.239254625652315" lon="14.163540048324426"><ele>496.0</ele><time>2026-04-04T12:39:57.001Z</time></trkpt><trkpt lat="41.23913714078638" lon="14.163597073315495"><ele>496.0</ele><time>2026-04-04T12:39:58.001Z</time></trkpt><trkpt lat="41.23902364363289" lon="14.163651575652487"><ele>496.0</ele><time>2026-04-04T12:39:59.001Z</time></trkpt><trkpt lat="41.23890950420704" lon="14.163695394419342"><ele>496.0</ele><time>2026-04-04T12:40:00.001Z</time></trkpt><trkpt lat="41.23879728944693" lon="14.16374375246204"><ele>491.75</ele><time>2026-04-04T12:40:01.001Z</time></trkpt><trkpt lat="41.2386850386405" lon="14.163793106431877"><ele>487.5</ele><time>2026-04-04T12:40:02.001Z</time></trkpt><trkpt lat="41.2385758807244" lon="14.16384512079062"><ele>483.25</ele><time>2026-04-04T12:40:03.001Z</time></trkpt><trkpt lat="41.23846604397713" lon="14.1638923037894"><ele>479.0</ele><time>2026-04-04T12:40:04.001Z</time></trkpt><trkpt lat="41.23835747286477" lon="14.163933996210037"><ele>479.0</ele><time>2026-04-04T12:40:05.001Z</time></trkpt><trkpt lat="41.23824911779301" lon="14.163977448942754"><ele>479.0</ele><time>2026-04-04T12:40:06.001Z</time></trkpt><trkpt lat="41.238147077669225" lon="14.164026405143227"><ele>479.0</ele><time>2026-04-04T12:40:07.001Z</time></trkpt><trkpt lat="41.23804814423626" lon="14.164073877620488"><ele>479.0</ele><time>2026-04-04T12:40:08.001Z</time></trkpt><trkpt lat="41.23795047314038" lon="14.164117672601812"><ele>479.0</ele><time>2026-04-04T12:40:09.001Z</time></trkpt><trkpt lat="41.23785566304468" lon="14.164171768835976"><ele>478.0</ele><time>2026-04-04T12:40:10.001Z</time></trkpt><trkpt lat="41.237764186848" lon="14.164252818179287"><ele>477.0</ele><time>2026-04-04T12:40:11.001Z</time></trkpt><trkpt lat="41.23768621886267" lon="14.164362378057124"><ele>476.0</ele><time>2026-04-04T12:40:12.001Z</time></trkpt><trkpt lat="41.237616965103186" lon="14.164489693826122"><ele>475.0</ele><time>2026-04-04T12:40:13.001Z</time></trkpt><trkpt lat="41.23755233510753" lon="14.16461315885329"><ele>475.0</ele><time>2026-04-04T12:40:14.001Z</time></trkpt><trkpt lat="41.23749368009266" lon="14.1647291796095"><ele>475.0</ele><time>2026-04-04T12:40:15.001Z</time></trkpt><trkpt lat="41.23743765071367" lon="14.164840635816509"><ele>475.0</ele><time>2026-04-04T12:40:16.001Z</time></trkpt><trkpt lat="41.23738803119298" lon="14.164926250915322"><ele>475.0</ele><time>2026-04-04T12:40:17.001Z</time></trkpt><trkpt lat="41.23733212578265" lon="14.164985224658912"><ele>475.0</ele><time>2026-04-04T12:40:18.001Z</time></trkpt><trkpt lat="41.23722068014785" lon="14.164987621562869"><ele>475.0</ele><time>2026-04-04T12:40:20.001Z</time></trkpt><trkpt lat="41.237177577430316" lon="14.16483233893006"><ele>475.0</ele><time>2026-04-04T12:40:22.001Z</time></trkpt><trkpt lat="41.23718588335922" lon="14.16472506692591"><ele>475.0</ele><time>2026-04-04T12:40:23.001Z</time></trkpt><trkpt lat="41.23727055396515" lon="14.164629872695986"><ele>475.0</ele><time>2026-04-04T12:40:24.001Z</time></trkpt><trkpt lat="41.237305081945024" lon="14.164496406825767"><ele>475.0</ele><time>2026-04-04T12:40:25.001Z</time></trkpt><trkpt lat="41.23733784713179" lon="14.164360207250166"><ele>475.0</ele><time>2026-04-04T12:40:26.001Z</time></trkpt><trkpt lat="41.2373640584989" lon="14.164206562448266"><ele>475.0</ele><time>2026-04-04T12:40:27.001Z</time></trkpt><trkpt lat="41.237406259110195" lon="14.16405004706647"><ele>475.0</ele><time>2026-04-04T12:40:28.001Z</time></trkpt><trkpt lat="41.23744580442873" lon="14.163890903741844"><ele>475.0</ele><time>2026-04-04T12:40:29.001Z</time></trkpt><trkpt lat="41.23749166766532" lon="14.163724690851986"><ele>473.0</ele><time>2026-04-04T12:40:30.001Z</time></trkpt><trkpt lat="41.23754341833837" lon="14.163549037619008"><ele>471.0</ele><time>2026-04-04T12:40:31.001Z</time></trkpt><trkpt lat="41.2375929784711" lon="14.163365226262039"><ele>469.0</ele><time>2026-04-04T12:40:32.001Z</time></trkpt><trkpt lat="41.23763864895646" lon="14.163172618613965"><ele>467.0</ele><time>2026-04-04T12:40:33.001Z</time></trkpt><trkpt lat="41.23768523163807" lon="14.162979854283664"><ele>462.75</ele><time>2026-04-04T12:40:34.001Z</time></trkpt><trkpt lat="41.23773679520283" lon="14.162785805312165"><ele>458.5</ele><time>2026-04-04T12:40:35.001Z</time></trkpt><trkpt lat="41.237787907436136" lon="14.162599639952427"><ele>454.25</ele><time>2026-04-04T12:40:36.001Z</time></trkpt><trkpt lat="41.23783517161449" lon="14.162421418154167"><ele>450.0</ele><time>2026-04-04T12:40:37.001Z</time></trkpt><trkpt lat="41.23788331053258" lon="14.16225336837687"><ele>446.5</ele><time>2026-04-04T12:40:38.002Z</time></trkpt><trkpt lat="41.23794041226703" lon="14.162084518070982"><ele>443.0</ele><time>2026-04-04T12:40:39.002Z</time></trkpt><trkpt lat="41.238006042055844" lon="14.161920764685316"><ele>439.5</ele><time>2026-04-04T12:40:40.002Z</time></trkpt><trkpt lat="41.23807505617095" lon="14.161761262736135"><ele>436.0</ele><time>2026-04-04T12:40:41.002Z</time></trkpt><trkpt lat="41.23814588794305" lon="14.16161114148176"><ele>440.0</ele><time>2026-04-04T12:40:42.002Z</time></trkpt><trkpt lat="41.23821466378201" lon="14.161468911963187"><ele>444.0</ele><time>2026-04-04T12:40:43.002Z</time></trkpt><trkpt lat="41.238277599340506" lon="14.161328798789956"><ele>448.0</ele><time>2026-04-04T12:40:44.002Z</time></trkpt><trkpt lat="41.23833322918645" lon="14.161189800880972"><ele>452.0</ele><time>2026-04-04T12:40:45.002Z</time></trkpt><trkpt lat="41.23839170596555" lon="14.161045557573992"><ele>452.0</ele><time>2026-04-04T12:40:46.002Z</time></trkpt><trkpt lat="41.23846069035788" lon="14.160903280162715"><ele>452.0</ele><time>2026-04-04T12:40:47.002Z</time></trkpt><trkpt lat="41.23853515115496" lon="14.160765329789248"><ele>452.0</ele><time>2026-04-04T12:40:48.002Z</time></trkpt><trkpt lat="41.23861132569204" lon="14.160631701251182"><ele>452.0</ele><time>2026-04-04T12:40:49.002Z</time></trkpt><trkpt lat="41.23870282579208" lon="14.160509126497283"><ele>449.25</ele><time>2026-04-04T12:40:50.002Z</time></trkpt><trkpt lat="41.23877075397718" lon="14.160372376308851"><ele>446.5</ele><time>2026-04-04T12:40:51.002Z</time></trkpt><trkpt lat="41.23884063899497" lon="14.160255252794508"><ele>443.75</ele><time>2026-04-04T12:40:52.002Z</time></trkpt><trkpt lat="41.23889940460768" lon="14.16013494392584"><ele>441.0</ele><time>2026-04-04T12:40:53.002Z</time></trkpt><trkpt lat="41.23894892346776" lon="14.160008246964011"><ele>441.25</ele><time>2026-04-04T12:40:54.002Z</time></trkpt><trkpt lat="41.23897450400484" lon="14.159876150860596"><ele>441.5</ele><time>2026-04-04T12:40:55.002Z</time></trkpt><trkpt lat="41.23897470378567" lon="14.159722703802355"><ele>441.75</ele><time>2026-04-04T12:40:56.002Z</time></trkpt><trkpt lat="41.238954615628145" lon="14.159556513068425"><ele>442.0</ele><time>2026-04-04T12:40:57.002Z</time></trkpt><trkpt lat="41.23893382150274" lon="14.159399793738991"><ele>442.0</ele><time>2026-04-04T12:40:58.002Z</time></trkpt><trkpt lat="41.23891504772818" lon="14.159255633479868"><ele>442.0</ele><time>2026-04-04T12:40:59.002Z</time></trkpt><trkpt lat="41.23887981292586" lon="14.159104151383161"><ele>442.0</ele><time>2026-04-04T12:41:00.002Z</time></trkpt><trkpt lat="41.23881912537763" lon="14.158943482310876"><ele>442.0</ele><time>2026-04-04T12:41:01.002Z</time></trkpt><trkpt lat="41.238742502596935" lon="14.158780867211755"><ele>442.25</ele><time>2026-04-04T12:41:02.002Z</time></trkpt><trkpt lat="41.23867143965454" lon="14.158632402076334"><ele>442.5</ele><time>2026-04-04T12:41:03.002Z</time></trkpt><trkpt lat="41.238607131599245" lon="14.158489950725947"><ele>442.75</ele><time>2026-04-04T12:41:04.002Z</time></trkpt><trkpt lat="41.238553231949844" lon="14.158354102739187"><ele>443.0</ele><time>2026-04-04T12:41:05Z</time></trkpt><trkpt lat="41.238500595690226" lon="14.158213429311553"><ele>443.4</ele><time>2026-04-04T12:41:06Z</time></trkpt><trkpt lat="41.23845159542743" lon="14.158071708067705"><ele>443.79999999999995</ele><time>2026-04-04T12:41:07Z</time></trkpt><trkpt lat="41.23840279831604" lon="14.157950046102949"><ele>444.2</ele><time>2026-04-04T12:41:08Z</time></trkpt><trkpt lat="41.23835157819972" lon="14.157845202689364"><ele>444.6</ele><time>2026-04-04T12:41:09Z</time></trkpt><trkpt lat="41.238280949754106" lon="14.157752732214515"><ele>445.0</ele><time>2026-04-04T12:41:10Z</time></trkpt><trkpt lat="41.23819529078171" lon="14.15768564150822"><ele>443.75</ele><time>2026-04-04T12:41:11Z</time></trkpt><trkpt lat="41.23809554748197" lon="14.157629438752954"><ele>442.5</ele><time>2026-04-04T12:41:12Z</time></trkpt><trkpt lat="41.23798161307537" lon="14.1575756539841"><ele>441.25</ele><time>2026-04-04T12:41:13Z</time></trkpt><trkpt lat="41.237866346367866" lon="14.157530018232183"><ele>440.0</ele><time>2026-04-04T12:41:14Z</time></trkpt><trkpt lat="41.23774468669896" lon="14.157480879929318"><ele>440.0</ele><time>2026-04-04T12:41:15Z</time></trkpt><trkpt lat="41.237627108135044" lon="14.15743221023828"><ele>440.0</ele><time>2026-04-04T12:41:16Z</time></trkpt><trkpt lat="41.23751762766817" lon="14.15739075181227"><ele>440.0</ele><time>2026-04-04T12:41:17Z</time></trkpt><trkpt lat="41.23741347106148" lon="14.157349991894662"><ele>440.0</ele><time>2026-04-04T12:41:18Z</time></trkpt><trkpt lat="41.23732269962991" lon="14.157314909192783"><ele>440.0</ele><time>2026-04-04T12:41:19Z</time></trkpt><trkpt lat="41.23724826570631" lon="14.157276586876941"><ele>439.49999999999994</ele><time>2026-04-04T12:41:20Z</time></trkpt><trkpt lat="41.23714316557424" lon="14.157200049772085"><ele>439.0</ele><time>2026-04-04T12:41:22Z</time></trkpt><trkpt lat="41.237074233004265" lon="14.15715883521642"><ele>438.5</ele><time>2026-04-04T12:41:24Z</time></trkpt><trkpt lat="41.2370107802494" lon="14.15713363424859"><ele>438.0</ele><time>2026-04-04T12:41:26Z</time></trkpt><trkpt lat="41.23696123741162" lon="14.15705885165197"><ele>437.49999999999994</ele><time>2026-04-04T12:41:28Z</time></trkpt><trkpt lat="41.23695400483533" lon="14.156967352674153"><ele>437.0</ele><time>2026-04-04T12:41:30Z</time></trkpt><trkpt lat="41.237058877463454" lon="14.156953097606712"><ele>436.99999999999994</ele><time>2026-04-04T12:41:31Z</time></trkpt><trkpt lat="41.23714082151616" lon="14.156856497148564"><ele>437.0</ele><time>2026-04-04T12:41:33Z</time></trkpt><trkpt lat="41.23719163354486" lon="14.156801013311272"><ele>437.0</ele><time>2026-04-04T12:41:34Z</time></trkpt><trkpt lat="41.237251940390806" lon="14.156728634194408"><ele>437.0</ele><time>2026-04-04T12:41:35Z</time></trkpt><trkpt lat="41.23731191214922" lon="14.156656657181681"><ele>436.99999999999994</ele><time>2026-04-04T12:41:36Z</time></trkpt><trkpt lat="41.23736668364419" lon="14.15656560418578"><ele>437.0</ele><time>2026-04-04T12:41:37Z</time></trkpt><trkpt lat="41.23744381248789" lon="14.156484848781027"><ele>434.40000000000003</ele><time>2026-04-04T12:41:38Z</time></trkpt><trkpt lat="41.23752423029061" lon="14.156395120089051"><ele>431.80000000000007</ele><time>2026-04-04T12:41:39Z</time></trkpt><trkpt lat="41.23760758877076" lon="14.156298666150082"><ele>429.2</ele><time>2026-04-04T12:41:40Z</time></trkpt><trkpt lat="41.237690868748075" lon="14.156205914122955"><ele>426.6</ele><time>2026-04-04T12:41:41Z</time></trkpt><trkpt lat="41.23777507029272" lon="14.156104265649915"><ele>424.0</ele><time>2026-04-04T12:41:42.001Z</time></trkpt><trkpt lat="41.23785651784007" lon="14.156004512101447"><ele>424.00000000000006</ele><time>2026-04-04T12:41:43.001Z</time></trkpt><trkpt lat="41.23793524629615" lon="14.155912920472877"><ele>424.0</ele><time>2026-04-04T12:41:44.001Z</time></trkpt><trkpt lat="41.238004228540376" lon="14.155825988601618"><ele>424.0</ele><time>2026-04-04T12:41:45.001Z</time></trkpt><trkpt lat="41.238061138264655" lon="14.155753633945807"><ele>424.0</ele><time>2026-04-04T12:41:46.001Z</time></trkpt><trkpt lat="41.238108162015166" lon="14.155692467522694"><ele>424.00000000000006</ele><time>2026-04-04T12:41:47.001Z</time></trkpt><trkpt lat="41.23815240400208" lon="14.155620374741769"><ele>424.0</ele><time>2026-04-04T12:41:48.001Z</time></trkpt><trkpt lat="41.23819986157325" lon="14.155526547641353"><ele>423.6</ele><time>2026-04-04T12:41:49.001Z</time></trkpt><trkpt lat="41.23825164691952" lon="14.155411285463142"><ele>423.2</ele><time>2026-04-04T12:41:50.001Z</time></trkpt><trkpt lat="41.23829233929267" lon="14.155276588355852"><ele>422.8</ele><time>2026-04-04T12:41:51.001Z</time></trkpt><trkpt lat="41.23833174871298" lon="14.155133748097937"><ele>422.40000000000003</ele><time>2026-04-04T12:41:52.001Z</time></trkpt><trkpt lat="41.2383721956606" lon="14.154991155449208"><ele>422.0</ele><time>2026-04-04T12:41:53.001Z</time></trkpt><trkpt lat="41.238420077949975" lon="14.1548517132533"><ele>420.99999999999994</ele><time>2026-04-04T12:41:54.001Z</time></trkpt><trkpt lat="41.23846829666587" lon="14.15471969070167"><ele>420.0</ele><time>2026-04-04T12:41:55.001Z</time></trkpt><trkpt lat="41.23851227852051" lon="14.15460500424256"><ele>419.0</ele><time>2026-04-04T12:41:56.001Z</time></trkpt><trkpt lat="41.23855605663911" lon="14.154502772511476"><ele>418.0</ele><time>2026-04-04T12:41:57.001Z</time></trkpt><trkpt lat="41.23860719506694" lon="14.154420719124536"><ele>416.99999999999994</ele><time>2026-04-04T12:41:58.001Z</time></trkpt><trkpt lat="41.23866075196086" lon="14.15436221164592"><ele>416.0</ele><time>2026-04-04T12:41:59.001Z</time></trkpt><trkpt lat="41.23873282665234" lon="14.154319280564431"><ele>416.0</ele><time>2026-04-04T12:42:00.001Z</time></trkpt><trkpt lat="41.23882605755873" lon="14.154317585516758"><ele>416.0</ele><time>2026-04-04T12:42:01.001Z</time></trkpt><trkpt lat="41.23892591936358" lon="14.15429133354621"><ele>416.0</ele><time>2026-04-04T12:42:02.001Z</time></trkpt><trkpt lat="41.23903440453694" lon="14.154264272212798"><ele>416.0</ele><time>2026-04-04T12:42:03.001Z</time></trkpt><trkpt lat="41.23914413894348" lon="14.154237805470746"><ele>416.0</ele><time>2026-04-04T12:42:04.001Z</time></trkpt><trkpt lat="41.23924923054938" lon="14.154211150261911"><ele>415.8</ele><time>2026-04-04T12:42:05.001Z</time></trkpt><trkpt lat="41.23935123060567" lon="14.15416292744971"><ele>415.6</ele><time>2026-04-04T12:42:06.001Z</time></trkpt><trkpt lat="41.23943818254482" lon="14.154080868317175"><ele>415.4</ele><time>2026-04-04T12:42:07.001Z</time></trkpt><trkpt lat="41.23952039108368" lon="14.154006138747338"><ele>415.2</ele><time>2026-04-04T12:42:08.001Z</time></trkpt><trkpt lat="41.2396253792181" lon="14.153929857900744"><ele>415.0</ele><time>2026-04-04T12:42:09.001Z</time></trkpt><trkpt lat="41.23974195034435" lon="14.15384688145754"><ele>417.0</ele><time>2026-04-04T12:42:10.001Z</time></trkpt><trkpt lat="41.23985493641525" lon="14.153760209381822"><ele>419.0</ele><time>2026-04-04T12:42:11.001Z</time></trkpt><trkpt lat="41.23995225656653" lon="14.153662586786103"><ele>421.0</ele><time>2026-04-04T12:42:12.001Z</time></trkpt><trkpt lat="41.240049725346324" lon="14.153585459433543"><ele>423.0</ele><time>2026-04-04T12:42:13.001Z</time></trkpt><trkpt lat="41.240124645367075" lon="14.153500324951793"><ele>423.0</ele><time>2026-04-04T12:42:14.001Z</time></trkpt><trkpt lat="41.24018021483225" lon="14.153381086405886"><ele>423.0</ele><time>2026-04-04T12:42:15.001Z</time></trkpt><trkpt lat="41.24023581153656" lon="14.153230508890324"><ele>423.0</ele><time>2026-04-04T12:42:16.001Z</time></trkpt><trkpt lat="41.24030212976382" lon="14.153078772876732"><ele>423.0</ele><time>2026-04-04T12:42:17.001Z</time></trkpt><trkpt lat="41.24033820630031" lon="14.152893537854139"><ele>422.75</ele><time>2026-04-04T12:42:18.001Z</time></trkpt><trkpt lat="41.24038761010144" lon="14.152717472473094"><ele>422.5</ele><time>2026-04-04T12:42:19.001Z</time></trkpt><trkpt lat="41.240436529764345" lon="14.15254634055065"><ele>422.25</ele><time>2026-04-04T12:42:20.001Z</time></trkpt><trkpt lat="41.240481191631304" lon="14.152374911118198"><ele>422.0</ele><time>2026-04-04T12:42:21.001Z</time></trkpt><trkpt lat="41.24051290308815" lon="14.15221388678067"><ele>421.0</ele><time>2026-04-04T12:42:22.001Z</time></trkpt><trkpt lat="41.24055199025323" lon="14.152062790680478"><ele>420.0</ele><time>2026-04-04T12:42:23.001Z</time></trkpt><trkpt lat="41.240594096423465" lon="14.15192821181534"><ele>419.0</ele><time>2026-04-04T12:42:24.001Z</time></trkpt><trkpt lat="41.24065653823108" lon="14.151812113694078"><ele>418.0</ele><time>2026-04-04T12:42:25.001Z</time></trkpt><trkpt lat="41.24071447963149" lon="14.151700961469619"><ele>417.0</ele><time>2026-04-04T12:42:26.001Z</time></trkpt><trkpt lat="41.24075039024648" lon="14.151565179123535"><ele>420.5</ele><time>2026-04-04T12:42:27.001Z</time></trkpt><trkpt lat="41.240764432233924" lon="14.151397274129145"><ele>424.0</ele><time>2026-04-04T12:42:28.001Z</time></trkpt><trkpt lat="41.24076193236155" lon="14.151220223168087"><ele>427.5</ele><time>2026-04-04T12:42:29.001Z</time></trkpt><trkpt lat="41.240750165301094" lon="14.151046451905996"><ele>431.0</ele><time>2026-04-04T12:42:30.001Z</time></trkpt><trkpt lat="41.24074499219508" lon="14.15088187615721"><ele>431.0</ele><time>2026-04-04T12:42:31.001Z</time></trkpt><trkpt lat="41.24074113991969" lon="14.150726370725438"><ele>431.0</ele><time>2026-04-04T12:42:32.001Z</time></trkpt><trkpt lat="41.24075494443772" lon="14.150577048322107"><ele>431.0</ele><time>2026-04-04T12:42:33.001Z</time></trkpt><trkpt lat="41.240781401695564" lon="14.150449209562074"><ele>431.0</ele><time>2026-04-04T12:42:34.001Z</time></trkpt><trkpt lat="41.24083065452037" lon="14.150322382591781"><ele>431.0</ele><time>2026-04-04T12:42:35.001Z</time></trkpt><trkpt lat="41.24089110268654" lon="14.1501870013876"><ele>430.5</ele><time>2026-04-04T12:42:36.001Z</time></trkpt><trkpt lat="41.24095417296696" lon="14.150044358332497"><ele>430.0</ele><time>2026-04-04T12:42:37.001Z</time></trkpt><trkpt lat="41.240993424522756" lon="14.149892000013422"><ele>429.5</ele><time>2026-04-04T12:42:38.001Z</time></trkpt><trkpt lat="41.24107911314313" lon="14.149766559847883"><ele>429.0</ele><time>2026-04-04T12:42:39.001Z</time></trkpt><trkpt lat="41.2411359914029" lon="14.149619667813157"><ele>428.25</ele><time>2026-04-04T12:42:40.001Z</time></trkpt><trkpt lat="41.241189709936805" lon="14.149467028011015"><ele>427.5</ele><time>2026-04-04T12:42:41.001Z</time></trkpt><trkpt lat="41.241239965944416" lon="14.149322008879304"><ele>426.75</ele><time>2026-04-04T12:42:42.001Z</time></trkpt><trkpt lat="41.2412917248758" lon="14.149181278234952"><ele>426.0</ele><time>2026-04-04T12:42:43.001Z</time></trkpt><trkpt lat="41.2413377141897" lon="14.149038312022663"><ele>425.5</ele><time>2026-04-04T12:42:44.002Z</time></trkpt><trkpt lat="41.2413708993973" lon="14.148887161875352"><ele>425.0</ele><time>2026-04-04T12:42:45.002Z</time></trkpt><trkpt lat="41.241401367435266" lon="14.148728562947733"><ele>424.5</ele><time>2026-04-04T12:42:46.002Z</time></trkpt><trkpt lat="41.241426072102186" lon="14.148575715114077"><ele>424.0</ele><time>2026-04-04T12:42:47.002Z</time></trkpt><trkpt lat="41.241452125779524" lon="14.148438375620296"><ele>422.5</ele><time>2026-04-04T12:42:48.002Z</time></trkpt><trkpt lat="41.241494011282875" lon="14.148303023979008"><ele>421.0</ele><time>2026-04-04T12:42:49.002Z</time></trkpt><trkpt lat="41.241547590045634" lon="14.148171909878723"><ele>419.5</ele><time>2026-04-04T12:42:50.002Z</time></trkpt><trkpt lat="41.241603245246814" lon="14.148036022094924"><ele>418.0</ele><time>2026-04-04T12:42:51.002Z</time></trkpt><trkpt lat="41.24166154566761" lon="14.147894160652925"><ele>416.5</ele><time>2026-04-04T12:42:52.002Z</time></trkpt><trkpt lat="41.241723860064404" lon="14.147756616298278"><ele>415.0</ele><time>2026-04-04T12:42:53.002Z</time></trkpt><trkpt lat="41.241789625440326" lon="14.147623620026781"><ele>413.5</ele><time>2026-04-04T12:42:54.002Z</time></trkpt><trkpt lat="41.2418560655986" lon="14.14749322354624"><ele>412.0</ele><time>2026-04-04T12:42:55.002Z</time></trkpt><trkpt lat="41.24191777875887" lon="14.14736606188844"><ele>409.33333333333337</ele><time>2026-04-04T12:42:56.002Z</time></trkpt><trkpt lat="41.24196571153962" lon="14.147256179494036"><ele>406.6666666666667</ele><time>2026-04-04T12:42:57.002Z</time></trkpt><trkpt lat="41.24200459224035" lon="14.14716638627833"><ele>404.0</ele><time>2026-04-04T12:42:58.002Z</time></trkpt><trkpt lat="41.242031411298846" lon="14.147075817868304"><ele>401.33333333333337</ele><time>2026-04-04T12:42:59.002Z</time></trkpt><trkpt lat="41.24203374217999" lon="14.146977498644647"><ele>398.6666666666667</ele><time>2026-04-04T12:43:00.002Z</time></trkpt><trkpt lat="41.24201742533095" lon="14.146875600517017"><ele>396.0</ele><time>2026-04-04T12:43:01.002Z</time></trkpt><trkpt lat="41.24200640305667" lon="14.146766966853317"><ele>396.0</ele><time>2026-04-04T12:43:02.002Z</time></trkpt><trkpt lat="41.24198576739953" lon="14.146661437557265"><ele>396.0</ele><time>2026-04-04T12:43:03.002Z</time></trkpt><trkpt lat="41.241939425704" lon="14.146558999373314"><ele>396.0</ele><time>2026-04-04T12:43:04.002Z</time></trkpt><trkpt lat="41.24188739244363" lon="14.146461041282377"><ele>396.0</ele><time>2026-04-04T12:43:05.002Z</time></trkpt><trkpt lat="41.24184409014218" lon="14.146367444621053"><ele>396.0</ele><time>2026-04-04T12:43:06.002Z</time></trkpt><trkpt lat="41.2418056372288" lon="14.146264667504306"><ele>396.0</ele><time>2026-04-04T12:43:07.002Z</time></trkpt><trkpt lat="41.241767468199896" lon="14.146150839810705"><ele>393.3333333333333</ele><time>2026-04-04T12:43:08.002Z</time></trkpt><trkpt lat="41.24172391660569" lon="14.146039416477986"><ele>390.6666666666667</ele><time>2026-04-04T12:43:09.002Z</time></trkpt><trkpt lat="41.241678428222976" lon="14.14593786955904"><ele>388.0</ele><time>2026-04-04T12:43:10.002Z</time></trkpt><trkpt lat="41.24165598097437" lon="14.145848300610158"><ele>385.33333333333337</ele><time>2026-04-04T12:43:11Z</time></trkpt><trkpt lat="41.24161827605754" lon="14.145766660328226"><ele>382.6666666666667</ele><time>2026-04-04T12:43:12Z</time></trkpt><trkpt lat="41.241585499986755" lon="14.145676365834603"><ele>380.0</ele><time>2026-04-04T12:43:13Z</time></trkpt><trkpt lat="41.241561491511675" lon="14.145585187732493"><ele>378.0</ele><time>2026-04-04T12:43:14Z</time></trkpt><trkpt lat="41.24159754176259" lon="14.145465839634577"><ele>376.0</ele><time>2026-04-04T12:43:16Z</time></trkpt><trkpt lat="41.241687512725086" lon="14.145450510687589"><ele>374.0</ele><time>2026-04-04T12:43:18Z</time></trkpt><trkpt lat="41.24175529061074" lon="14.14544723899958"><ele>372.0</ele><time>2026-04-04T12:43:19Z</time></trkpt><trkpt lat="41.24185485829361" lon="14.145432966040904"><ele>370.0</ele><time>2026-04-04T12:43:20Z</time></trkpt><trkpt lat="41.24195289655479" lon="14.145415036358012"><ele>370.0</ele><time>2026-04-04T12:43:21Z</time></trkpt><trkpt lat="41.24205712756212" lon="14.14538222139969"><ele>370.0</ele><time>2026-04-04T12:43:22Z</time></trkpt><trkpt lat="41.242145611682844" lon="14.145348700020806"><ele>370.0</ele><time>2026-04-04T12:43:23Z</time></trkpt><trkpt lat="41.24223949097987" lon="14.145295722953916"><ele>370.0</ele><time>2026-04-04T12:43:24Z</time></trkpt><trkpt lat="41.242318981338514" lon="14.14521214873506"><ele>370.0</ele><time>2026-04-04T12:43:25Z</time></trkpt><trkpt lat="41.24239464410106" lon="14.145123188855605"><ele>366.8</ele><time>2026-04-04T12:43:26Z</time></trkpt><trkpt lat="41.24247162140004" lon="14.14503708987657"><ele>363.6</ele><time>2026-04-04T12:43:27Z</time></trkpt><trkpt lat="41.24255085272675" lon="14.144952941876877"><ele>360.4</ele><time>2026-04-04T12:43:28Z</time></trkpt><trkpt lat="41.242616071546955" lon="14.14485343781476"><ele>357.2</ele><time>2026-04-04T12:43:29Z</time></trkpt><trkpt lat="41.2426999663852" lon="14.14478053841243"><ele>354.0</ele><time>2026-04-04T12:43:30Z</time></trkpt><trkpt lat="41.24277327346249" lon="14.1447454636458"><ele>352.8571428571429</ele><time>2026-04-04T12:43:31Z</time></trkpt><trkpt lat="41.24283385109982" lon="14.144711466533264"><ele>351.71428571428567</ele><time>2026-04-04T12:43:32Z</time></trkpt><trkpt lat="41.24287754756776" lon="14.144646388431287"><ele>350.57142857142856</ele><time>2026-04-04T12:43:33Z</time></trkpt><trkpt lat="41.24292746912121" lon="14.144572074041019"><ele>349.42857142857144</ele><time>2026-04-04T12:43:34Z</time></trkpt><trkpt lat="41.242955221627135" lon="14.144472904038842"><ele>348.28571428571433</ele><time>2026-04-04T12:43:35Z</time></trkpt><trkpt lat="41.24298768293628" lon="14.144376865008995"><ele>347.1428571428571</ele><time>2026-04-04T12:43:36Z</time></trkpt><trkpt lat="41.24301905275256" lon="14.144295213997557"><ele>346.0</ele><time>2026-04-04T12:43:37Z</time></trkpt><trkpt lat="41.243072669930726" lon="14.144225581108719"><ele>343.5</ele><time>2026-04-04T12:43:38Z</time></trkpt><trkpt lat="41.243136402339125" lon="14.144158311956375"><ele>341.0</ele><time>2026-04-04T12:43:39Z</time></trkpt><trkpt lat="41.24320325325975" lon="14.14407876546134"><ele>338.5</ele><time>2026-04-04T12:43:40Z</time></trkpt><trkpt lat="41.243265387439216" lon="14.143994390139516"><ele>336.0</ele><time>2026-04-04T12:43:41Z</time></trkpt><trkpt lat="41.243321226563495" lon="14.143899519568455"><ele>333.5</ele><time>2026-04-04T12:43:42Z</time></trkpt><trkpt lat="41.2433763359719" lon="14.143793954284963"><ele>331.0</ele><time>2026-04-04T12:43:43Z</time></trkpt><trkpt lat="41.24342250266582" lon="14.143670847138635"><ele>329.0</ele><time>2026-04-04T12:43:44Z</time></trkpt><trkpt lat="41.24346928133036" lon="14.143533667059577"><ele>327.0</ele><time>2026-04-04T12:43:45Z</time></trkpt><trkpt lat="41.243503979417085" lon="14.143382001395635"><ele>325.0</ele><time>2026-04-04T12:43:46Z</time></trkpt><trkpt lat="41.24353896115765" lon="14.143229180931574"><ele>323.0</ele><time>2026-04-04T12:43:47Z</time></trkpt><trkpt lat="41.24357975602531" lon="14.143082383596946"><ele>320.79999999999995</ele><time>2026-04-04T12:43:48Z</time></trkpt><trkpt lat="41.24362737487491" lon="14.14296517585835"><ele>318.59999999999997</ele><time>2026-04-04T12:43:49.001Z</time></trkpt><trkpt lat="41.24369253477156" lon="14.142914849515744"><ele>316.4</ele><time>2026-04-04T12:43:50.001Z</time></trkpt><trkpt lat="41.24375682450224" lon="14.142876404804115"><ele>314.2</ele><time>2026-04-04T12:43:51.001Z</time></trkpt><trkpt lat="41.24383357521223" lon="14.142788544871015"><ele>312.0</ele><time>2026-04-04T12:43:52.001Z</time></trkpt><trkpt lat="41.2439290759154" lon="14.1427146556558"><ele>311.8</ele><time>2026-04-04T12:43:53.001Z</time></trkpt><trkpt lat="41.24400251856769" lon="14.142643451296696"><ele>311.6</ele><time>2026-04-04T12:43:54.001Z</time></trkpt><trkpt lat="41.24405672312629" lon="14.142584551417226"><ele>311.40000000000003</ele><time>2026-04-04T12:43:55.001Z</time></trkpt><trkpt lat="41.244126146216225" lon="14.142433492993648"><ele>311.2</ele><time>2026-04-04T12:43:57.001Z</time></trkpt><trkpt lat="41.244134804909166" lon="14.14230661005284"><ele>311.0</ele><time>2026-04-04T12:43:58.001Z</time></trkpt><trkpt lat="41.2441419137105" lon="14.142161666786064"><ele>309.0</ele><time>2026-04-04T12:43:59.001Z</time></trkpt><trkpt lat="41.244171545362235" lon="14.142024595783452"><ele>307.0</ele><time>2026-04-04T12:44:00.001Z</time></trkpt><trkpt lat="41.24420961627932" lon="14.141894844263346"><ele>305.0</ele><time>2026-04-04T12:44:01.001Z</time></trkpt><trkpt lat="41.244257682351495" lon="14.141761895128088"><ele>303.0</ele><time>2026-04-04T12:44:02.001Z</time></trkpt><trkpt lat="41.24430853011942" lon="14.141620832067753"><ele>301.0</ele><time>2026-04-04T12:44:03.001Z</time></trkpt><trkpt lat="41.24434989829271" lon="14.141486723599783"><ele>298.8333333333333</ele><time>2026-04-04T12:44:04.001Z</time></trkpt><trkpt lat="41.24438707162754" lon="14.141358622970442"><ele>296.66666666666663</ele><time>2026-04-04T12:44:05.001Z</time></trkpt><trkpt lat="41.24442095755886" lon="14.141244710019324"><ele>294.5</ele><time>2026-04-04T12:44:06.001Z</time></trkpt><trkpt lat="41.244446669018814" lon="14.141139939767816"><ele>292.3333333333333</ele><time>2026-04-04T12:44:07.001Z</time></trkpt><trkpt lat="41.24444955015675" lon="14.141031543580969"><ele>290.1666666666667</ele><time>2026-04-04T12:44:08.001Z</time></trkpt><trkpt lat="41.24441527370079" lon="14.140926566112176"><ele>288.0</ele><time>2026-04-04T12:44:09.001Z</time></trkpt><trkpt lat="41.24435160373042" lon="14.140827217316438"><ele>288.0</ele><time>2026-04-04T12:44:10.001Z</time></trkpt><trkpt lat="41.244284674002536" lon="14.140722013551338"><ele>288.0</ele><time>2026-04-04T12:44:11.001Z</time></trkpt><trkpt lat="41.2442196829636" lon="14.14061495598474"><ele>288.0</ele><time>2026-04-04T12:44:12.001Z</time></trkpt><trkpt lat="41.24415000828567" lon="14.140511552977967"><ele>288.0</ele><time>2026-04-04T12:44:13.001Z</time></trkpt><trkpt lat="41.24408254320405" lon="14.140411611432285"><ele>288.0</ele><time>2026-04-04T12:44:14.001Z</time></trkpt><trkpt lat="41.244012443366046" lon="14.14031184713519"><ele>284.8</ele><time>2026-04-04T12:44:15.001Z</time></trkpt><trkpt lat="41.243930837748564" lon="14.14022302748435"><ele>281.6</ele><time>2026-04-04T12:44:16.001Z</time></trkpt><trkpt lat="41.243839426570055" lon="14.140158922417182"><ele>278.4</ele><time>2026-04-04T12:44:17.001Z</time></trkpt><trkpt lat="41.243744660405966" lon="14.140119784945362"><ele>275.2</ele><time>2026-04-04T12:44:18.001Z</time></trkpt><trkpt lat="41.24365092405978" lon="14.14008364025852"><ele>272.0</ele><time>2026-04-04T12:44:19.001Z</time></trkpt><trkpt lat="41.243565121051645" lon="14.14003665747971"><ele>272.0</ele><time>2026-04-04T12:44:20.001Z</time></trkpt><trkpt lat="41.24349571459232" lon="14.139978615952952"><ele>272.0</ele><time>2026-04-04T12:44:21.001Z</time></trkpt><trkpt lat="41.243435039717916" lon="14.139906225646971"><ele>272.0</ele><time>2026-04-04T12:44:22.001Z</time></trkpt><trkpt lat="41.24335676276893" lon="14.139854357256079"><ele>272.0</ele><time>2026-04-04T12:44:23.001Z</time></trkpt><trkpt lat="41.243267114191546" lon="14.139833373327933"><ele>272.0</ele><time>2026-04-04T12:44:24.001Z</time></trkpt><trkpt lat="41.24316644899729" lon="14.139809229488856"><ele>272.0</ele><time>2026-04-04T12:44:25.001Z</time></trkpt><trkpt lat="41.243073264495244" lon="14.13974957031237"><ele>269.0</ele><time>2026-04-04T12:44:26.001Z</time></trkpt><trkpt lat="41.24299528194633" lon="14.139677358812587"><ele>266.0</ele><time>2026-04-04T12:44:27.001Z</time></trkpt><trkpt lat="41.24290899642249" lon="14.13962531757501"><ele>263.0</ele><time>2026-04-04T12:44:28.001Z</time></trkpt><trkpt lat="41.242821040799065" lon="14.13960257538802"><ele>260.0</ele><time>2026-04-04T12:44:29.001Z</time></trkpt><trkpt lat="41.24274282443999" lon="14.139567569025951"><ele>257.0</ele><time>2026-04-04T12:44:30.001Z</time></trkpt><trkpt lat="41.24268892875375" lon="14.13949446849696"><ele>254.0</ele><time>2026-04-04T12:44:31.001Z</time></trkpt><trkpt lat="41.2426510616168" lon="14.139410158180311"><ele>254.00000000000003</ele><time>2026-04-04T12:44:32.001Z</time></trkpt><trkpt lat="41.24259685586132" lon="14.139311384075686"><ele>254.0</ele><time>2026-04-04T12:44:33.001Z</time></trkpt><trkpt lat="41.24257716594753" lon="14.139212460210537"><ele>254.0</ele><time>2026-04-04T12:44:34.001Z</time></trkpt><trkpt lat="41.24257405070911" lon="14.139128459326223"><ele>254.0</ele><time>2026-04-04T12:44:35.001Z</time></trkpt><trkpt lat="41.242545762147735" lon="14.138989255088385"><ele>254.00000000000003</ele><time>2026-04-04T12:44:37.001Z</time></trkpt><trkpt lat="41.24247227903047" lon="14.138917873024717"><ele>254.0</ele><time>2026-04-04T12:44:39.001Z</time></trkpt><trkpt lat="41.242402326829875" lon="14.138922256115134"><ele>251.66666666666669</ele><time>2026-04-04T12:44:40.001Z</time></trkpt><trkpt lat="41.2423064479788" lon="14.138907434289132"><ele>249.33333333333334</ele><time>2026-04-04T12:44:42.001Z</time></trkpt><trkpt lat="41.242253650929584" lon="14.138815079281489"><ele>247.0</ele><time>2026-04-04T12:44:44.001Z</time></trkpt><trkpt lat="41.242286783530474" lon="14.138728094973805"><ele>244.66666666666669</ele><time>2026-04-04T12:44:45.001Z</time></trkpt><trkpt lat="41.24233250553705" lon="14.13865463519661"><ele>242.33333333333334</ele><time>2026-04-04T12:44:46.001Z</time></trkpt><trkpt lat="41.242383991781985" lon="14.138559051054127"><ele>240.0</ele><time>2026-04-04T12:44:47.001Z</time></trkpt><trkpt lat="41.24244556411456" lon="14.138450083481425"><ele>240.0</ele><time>2026-04-04T12:44:48.001Z</time></trkpt><trkpt lat="41.24250513909795" lon="14.138350341908888"><ele>240.0</ele><time>2026-04-04T12:44:49.001Z</time></trkpt><trkpt lat="41.24256808871834" lon="14.138270940538607"><ele>240.0</ele><time>2026-04-04T12:44:50.001Z</time></trkpt><trkpt lat="41.24263472854154" lon="14.1382189248618"><ele>240.0</ele><time>2026-04-04T12:44:51.001Z</time></trkpt><trkpt lat="41.24270348154021" lon="14.138203359660324"><ele>240.0</ele><time>2026-04-04T12:44:52.002Z</time></trkpt><trkpt lat="41.24278615342827" lon="14.138201823160914"><ele>240.0</ele><time>2026-04-04T12:44:53.002Z</time></trkpt><trkpt lat="41.242877376569226" lon="14.138183517840998"><ele>237.4</ele><time>2026-04-04T12:44:54.002Z</time></trkpt><trkpt lat="41.242963058806396" lon="14.138131443969188"><ele>234.8</ele><time>2026-04-04T12:44:55.002Z</time></trkpt><trkpt lat="41.24302854165924" lon="14.138004481496086"><ele>232.2</ele><time>2026-04-04T12:44:56.002Z</time></trkpt><trkpt lat="41.2430993957789" lon="14.137883327970096"><ele>229.6</ele><time>2026-04-04T12:44:57.002Z</time></trkpt><trkpt lat="41.24313046490534" lon="14.137725995313163"><ele>227.0</ele><time>2026-04-04T12:44:58.002Z</time></trkpt><trkpt lat="41.24314496701323" lon="14.137566030816343"><ele>227.0</ele><time>2026-04-04T12:44:59.002Z</time></trkpt><trkpt lat="41.24316280823451" lon="14.13742342615874"><ele>227.0</ele><time>2026-04-04T12:45:00.002Z</time></trkpt><trkpt lat="41.24319117014233" lon="14.137261251818257"><ele>227.0</ele><time>2026-04-04T12:45:01.002Z</time></trkpt><trkpt lat="41.24321513473009" lon="14.1370900721962"><ele>227.0</ele><time>2026-04-04T12:45:02.002Z</time></trkpt><trkpt lat="41.24323336737874" lon="14.136907798753661"><ele>226.75</ele><time>2026-04-04T12:45:03.002Z</time></trkpt><trkpt lat="41.24328698567223" lon="14.136725138652379"><ele>226.5</ele><time>2026-04-04T12:45:04.002Z</time></trkpt><trkpt lat="41.24329577361791" lon="14.136530772744159"><ele>226.25</ele><time>2026-04-04T12:45:05.002Z</time></trkpt><trkpt lat="41.24330055518579" lon="14.136343910601598"><ele>226.0</ele><time>2026-04-04T12:45:06.002Z</time></trkpt><trkpt lat="41.243299729677226" lon="14.136164741798678"><ele>225.0</ele><time>2026-04-04T12:45:07.002Z</time></trkpt><trkpt lat="41.2432885353701" lon="14.135998763915193"><ele>224.00000000000003</ele><time>2026-04-04T12:45:08.002Z</time></trkpt><trkpt lat="41.24326819450087" lon="14.135858902076395"><ele>223.00000000000003</ele><time>2026-04-04T12:45:09.002Z</time></trkpt><trkpt lat="41.24325413984765" lon="14.135750195899774"><ele>222.0</ele><time>2026-04-04T12:45:10.002Z</time></trkpt><trkpt lat="41.243284573525266" lon="14.135602042388431"><ele>221.0</ele><time>2026-04-04T12:45:12.002Z</time></trkpt><trkpt lat="41.243362956723445" lon="14.135554752364692"><ele>217.60000000000002</ele><time>2026-04-04T12:45:13.002Z</time></trkpt><trkpt lat="41.243442815134756" lon="14.135448259928237"><ele>214.20000000000002</ele><time>2026-04-04T12:45:14.002Z</time></trkpt><trkpt lat="41.243509270950284" lon="14.135308655051372"><ele>210.8</ele><time>2026-04-04T12:45:15.002Z</time></trkpt><trkpt lat="41.24356406777791" lon="14.135191825551924"><ele>207.39999999999998</ele><time>2026-04-04T12:45:16.002Z</time></trkpt><trkpt lat="41.243617183646954" lon="14.135102280987542"><ele>204.0</ele><time>2026-04-04T12:45:17Z</time></trkpt><trkpt lat="41.243679965288884" lon="14.13502683368863"><ele>204.0</ele><time>2026-04-04T12:45:18Z</time></trkpt><trkpt lat="41.243769322189614" lon="14.134950615024044"><ele>204.0</ele><time>2026-04-04T12:45:19Z</time></trkpt><trkpt lat="41.24387860432343" lon="14.13485440832144"><ele>204.0</ele><time>2026-04-04T12:45:20Z</time></trkpt><trkpt lat="41.24398646879698" lon="14.134762718436209"><ele>204.0</ele><time>2026-04-04T12:45:21Z</time></trkpt><trkpt lat="41.24409087453797" lon="14.134666009611609"><ele>200.6</ele><time>2026-04-04T12:45:22Z</time></trkpt><trkpt lat="41.244172571334055" lon="14.134546550423623"><ele>197.2</ele><time>2026-04-04T12:45:23Z</time></trkpt><trkpt lat="41.2442511424337" lon="14.134437761899546"><ele>193.79999999999998</ele><time>2026-04-04T12:45:24Z</time></trkpt><trkpt lat="41.244330832870006" lon="14.134355397700691"><ele>190.39999999999998</ele><time>2026-04-04T12:45:25Z</time></trkpt><trkpt lat="41.244411572974414" lon="14.134280040412412"><ele>187.0</ele><time>2026-04-04T12:45:26Z</time></trkpt><trkpt lat="41.24449022407084" lon="14.13420565391944"><ele>187.0</ele><time>2026-04-04T12:45:27Z</time></trkpt><trkpt lat="41.24455116901643" lon="14.134111312165144"><ele>187.0</ele><time>2026-04-04T12:45:28Z</time></trkpt><trkpt lat="41.24461159334747" lon="14.134024480872327"><ele>187.0</ele><time>2026-04-04T12:45:29Z</time></trkpt><trkpt lat="41.24465943856891" lon="14.133926912972731"><ele>187.0</ele><time>2026-04-04T12:45:30Z</time></trkpt><trkpt lat="41.24468480270241" lon="14.133802467346145"><ele>187.0</ele><time>2026-04-04T12:45:31Z</time></trkpt><trkpt lat="41.244688889703866" lon="14.133648664726165"><ele>184.2</ele><time>2026-04-04T12:45:32Z</time></trkpt><trkpt lat="41.24468642557489" lon="14.133496237447353"><ele>181.39999999999998</ele><time>2026-04-04T12:45:33Z</time></trkpt><trkpt lat="41.244690686197494" lon="14.133363030373134"><ele>178.60000000000002</ele><time>2026-04-04T12:45:34Z</time></trkpt><trkpt lat="41.24469122872137" lon="14.13326136536848"><ele>175.8</ele><time>2026-04-04T12:45:35Z</time></trkpt><trkpt lat="41.24466136143861" lon="14.133160397133981"><ele>173.0</ele><time>2026-04-04T12:45:36Z</time></trkpt><trkpt lat="41.244605284098945" lon="14.133067459000777"><ele>170.4</ele><time>2026-04-04T12:45:37Z</time></trkpt><trkpt lat="41.24453813739599" lon="14.132987385011528"><ele>167.8</ele><time>2026-04-04T12:45:38Z</time></trkpt><trkpt lat="41.24445272222224" lon="14.132891144764152"><ele>165.2</ele><time>2026-04-04T12:45:40Z</time></trkpt><trkpt lat="41.244425277386426" lon="14.132791203134744"><ele>162.6</ele><time>2026-04-04T12:45:42Z</time></trkpt><trkpt lat="41.244513351716066" lon="14.132638293769471"><ele>160.0</ele><time>2026-04-04T12:45:44Z</time></trkpt><trkpt lat="41.24458104385106" lon="14.132536593286991"><ele>160.0</ele><time>2026-04-04T12:45:45Z</time></trkpt><trkpt lat="41.244643497800496" lon="14.132430951328258"><ele>160.0</ele><time>2026-04-04T12:45:46Z</time></trkpt><trkpt lat="41.244697967772304" lon="14.13231914409571"><ele>160.0</ele><time>2026-04-04T12:45:47Z</time></trkpt><trkpt lat="41.244731527976796" lon="14.132216265240416"><ele>160.0</ele><time>2026-04-04T12:45:48Z</time></trkpt><trkpt lat="41.24475234965683" lon="14.132112596508781"><ele>160.0</ele><time>2026-04-04T12:45:49Z</time></trkpt><trkpt lat="41.24474526495781" lon="14.132006487930939"><ele>160.0</ele><time>2026-04-04T12:45:50Z</time></trkpt><trkpt lat="41.2447206583334" lon="14.13191111243027"><ele>158.2</ele><time>2026-04-04T12:45:51Z</time></trkpt><trkpt lat="41.24468343389682" lon="14.131820452137788"><ele>156.4</ele><time>2026-04-04T12:45:52Z</time></trkpt><trkpt lat="41.2446346579876" lon="14.131732167019372"><ele>154.6</ele><time>2026-04-04T12:45:53.001Z</time></trkpt><trkpt lat="41.24457467090513" lon="14.131654391323876"><ele>152.8</ele><time>2026-04-04T12:45:54.001Z</time></trkpt><trkpt lat="41.24450084542804" lon="14.13156253083415"><ele>151.0</ele><time>2026-04-04T12:45:55.001Z</time></trkpt><trkpt lat="41.24442041141659" lon="14.1314610869089"><ele>149.83333333333334</ele><time>2026-04-04T12:45:56.001Z</time></trkpt><trkpt lat="41.244341706232575" lon="14.131371250671041"><ele>148.66666666666669</ele><time>2026-04-04T12:45:57.001Z</time></trkpt><trkpt lat="41.244282889157795" lon="14.131291125708696"><ele>147.5</ele><time>2026-04-04T12:45:58.001Z</time></trkpt><trkpt lat="41.24424113515325" lon="14.131223300673657"><ele>146.33333333333334</ele><time>2026-04-04T12:45:59.001Z</time></trkpt><trkpt lat="41.2442217180458" lon="14.131142147532271"><ele>145.16666666666666</ele><time>2026-04-04T12:46:00.001Z</time></trkpt><trkpt lat="41.24424330697677" lon="14.131046664872953"><ele>144.0</ele><time>2026-04-04T12:46:01.001Z</time></trkpt><trkpt lat="41.244247587474" lon="14.130936634484861"><ele>144.0</ele><time>2026-04-04T12:46:02.001Z</time></trkpt><trkpt lat="41.24423688247019" lon="14.130817937461487"><ele>144.0</ele><time>2026-04-04T12:46:03.001Z</time></trkpt><trkpt lat="41.244240406349554" lon="14.130718951978258"><ele>144.0</ele><time>2026-04-04T12:46:04.001Z</time></trkpt><trkpt lat="41.24423720201798" lon="14.130626277877099"><ele>144.0</ele><time>2026-04-04T12:46:05.001Z</time></trkpt><trkpt lat="41.24423721332467" lon="14.130535778138212"><ele>144.0</ele><time>2026-04-04T12:46:06.001Z</time></trkpt><trkpt lat="41.24423791542201" lon="14.130436800924231"><ele>144.0</ele><time>2026-04-04T12:46:07.001Z</time></trkpt><trkpt lat="41.2442394976602" lon="14.130332639253776"><ele>142.83333333333334</ele><time>2026-04-04T12:46:08.001Z</time></trkpt><trkpt lat="41.24423330553381" lon="14.13022812876311"><ele>141.66666666666666</ele><time>2026-04-04T12:46:09.001Z</time></trkpt><trkpt lat="41.244225415713565" lon="14.130115426233806"><ele>140.5</ele><time>2026-04-04T12:46:10.001Z</time></trkpt><trkpt lat="41.24422399196627" lon="14.130009320452453"><ele>139.33333333333331</ele><time>2026-04-04T12:46:11.001Z</time></trkpt><trkpt lat="41.24425684413713" lon="14.12992143553314"><ele>138.16666666666666</ele><time>2026-04-04T12:46:12.001Z</time></trkpt><trkpt lat="41.244290771278465" lon="14.129842454760835"><ele>137.0</ele><time>2026-04-04T12:46:13.001Z</time></trkpt><trkpt lat="41.24432662339393" lon="14.129758715177847"><ele>136.16666666666666</ele><time>2026-04-04T12:46:14.001Z</time></trkpt><trkpt lat="41.24434615291698" lon="14.12966435978951"><ele>135.33333333333331</ele><time>2026-04-04T12:46:15.001Z</time></trkpt><trkpt lat="41.244379623272394" lon="14.129589953136373"><ele>134.5</ele><time>2026-04-04T12:46:16.001Z</time></trkpt><trkpt lat="41.244408312300024" lon="14.129513536277042"><ele>133.66666666666666</ele><time>2026-04-04T12:46:17.001Z</time></trkpt><trkpt lat="41.244469112940564" lon="14.129392593656124"><ele>132.83333333333334</ele><time>2026-04-04T12:46:19.001Z</time></trkpt><trkpt lat="41.24451134108993" lon="14.129319677780643"><ele>132.0</ele><time>2026-04-04T12:46:21.001Z</time></trkpt><trkpt lat="41.24446384395331" lon="14.129161209060245"><ele>132.0</ele><time>2026-04-04T12:46:23.001Z</time></trkpt><trkpt lat="41.24444165498361" lon="14.129078060530878"><ele>132.0</ele><time>2026-04-04T12:46:24.001Z</time></trkpt><trkpt lat="41.24441681298341" lon="14.128985874800836"><ele>132.0</ele><time>2026-04-04T12:46:25.001Z</time></trkpt><trkpt lat="41.2443872533309" lon="14.128881612123276"><ele>132.0</ele><time>2026-04-04T12:46:26.001Z</time></trkpt><trkpt lat="41.24434805498068" lon="14.128767852750045"><ele>132.0</ele><time>2026-04-04T12:46:27.001Z</time></trkpt><trkpt lat="41.24430987092893" lon="14.128634992006893"><ele>132.0</ele><time>2026-04-04T12:46:28.001Z</time></trkpt><trkpt lat="41.24426839670827" lon="14.128492904135193"><ele>131.0</ele><time>2026-04-04T12:46:29.001Z</time></trkpt><trkpt lat="41.24422397698639" lon="14.128343982507408"><ele>130.0</ele><time>2026-04-04T12:46:30.001Z</time></trkpt><trkpt lat="41.24417996406742" lon="14.128193431741531"><ele>129.0</ele><time>2026-04-04T12:46:31.001Z</time></trkpt><trkpt lat="41.24413541766269" lon="14.128048867284681"><ele>128.0</ele><time>2026-04-04T12:46:32.001Z</time></trkpt><trkpt lat="41.24408954014056" lon="14.127905359015791"><ele>127.25</ele><time>2026-04-04T12:46:33.001Z</time></trkpt><trkpt lat="41.24404498786268" lon="14.127759494394365"><ele>126.5</ele><time>2026-04-04T12:46:34.001Z</time></trkpt><trkpt lat="41.24400954926826" lon="14.127599997345142"><ele>125.75</ele><time>2026-04-04T12:46:35.001Z</time></trkpt><trkpt lat="41.24398336691078" lon="14.127435573786892"><ele>125.0</ele><time>2026-04-04T12:46:36.001Z</time></trkpt><trkpt lat="41.24396709495334" lon="14.12726421166082"><ele>125.25</ele><time>2026-04-04T12:46:37.001Z</time></trkpt><trkpt lat="41.24395196333147" lon="14.127081692495834"><ele>125.5</ele><time>2026-04-04T12:46:38.001Z</time></trkpt><trkpt lat="41.24393439255849" lon="14.126911702154082"><ele>125.75</ele><time>2026-04-04T12:46:39.001Z</time></trkpt><trkpt lat="41.243923845817854" lon="14.12674517976185"><ele>126.0</ele><time>2026-04-04T12:46:40.001Z</time></trkpt><trkpt lat="41.24391118915782" lon="14.12656884267256"><ele>125.5</ele><time>2026-04-04T12:46:41.001Z</time></trkpt><trkpt lat="41.24391445495242" lon="14.12638500513674"><ele>125.0</ele><time>2026-04-04T12:46:42.001Z</time></trkpt><trkpt lat="41.24392232518461" lon="14.126198153045157"><ele>124.5</ele><time>2026-04-04T12:46:43.001Z</time></trkpt><trkpt lat="41.24393016365936" lon="14.12600577570169"><ele>124.0</ele><time>2026-04-04T12:46:44.001Z</time></trkpt><trkpt lat="41.24393505567245" lon="14.125822318862589"><ele>123.5</ele><time>2026-04-04T12:46:45.001Z</time></trkpt><trkpt lat="41.24394134063321" lon="14.125649808643892"><ele>123.0</ele><time>2026-04-04T12:46:46.001Z</time></trkpt><trkpt lat="41.24394904811221" lon="14.125482584590898"><ele>122.5</ele><time>2026-04-04T12:46:47.001Z</time></trkpt><trkpt lat="41.243952514730644" lon="14.125314705451244"><ele>122.0</ele><time>2026-04-04T12:46:48.001Z</time></trkpt><trkpt lat="41.243946003351994" lon="14.125142649389996"><ele>122.0</ele><time>2026-04-04T12:46:49.001Z</time></trkpt><trkpt lat="41.24392667175584" lon="14.124974161953766"><ele>122.0</ele><time>2026-04-04T12:46:50.001Z</time></trkpt><trkpt lat="41.24389018479344" lon="14.124810667638707"><ele>122.0</ele><time>2026-04-04T12:46:51.001Z</time></trkpt><trkpt lat="41.243842930001634" lon="14.124663928318228"><ele>122.0</ele><time>2026-04-04T12:46:52.001Z</time></trkpt><trkpt lat="41.24378172545471" lon="14.124537799963926"><ele>121.25</ele><time>2026-04-04T12:46:53.001Z</time></trkpt><trkpt lat="41.243695347078024" lon="14.124418183872649"><ele>120.5</ele><time>2026-04-04T12:46:54.001Z</time></trkpt><trkpt lat="41.243596198282596" lon="14.12430646147059"><ele>119.75</ele><time>2026-04-04T12:46:55.001Z</time></trkpt><trkpt lat="41.243488796442485" lon="14.124200365947216"><ele>119.0</ele><time>2026-04-04T12:46:56.001Z</time></trkpt><trkpt lat="41.24338217488799" lon="14.12408918595685"><ele>119.0</ele><time>2026-04-04T12:46:57.001Z</time></trkpt><trkpt lat="41.24327680467138" lon="14.12396952141398"><ele>119.0</ele><time>2026-04-04T12:46:58.001Z</time></trkpt><trkpt lat="41.24317414224191" lon="14.123851132890577"><ele>119.0</ele><time>2026-04-04T12:46:59.002Z</time></trkpt><trkpt lat="41.24306945839669" lon="14.123739736934974"><ele>119.0</ele><time>2026-04-04T12:47:00.002Z</time></trkpt><trkpt lat="41.24296080812717" lon="14.123625064445289"><ele>119.0</ele><time>2026-04-04T12:47:01.002Z</time></trkpt><trkpt lat="41.24285304884046" lon="14.123498890597359"><ele>119.0</ele><time>2026-04-04T12:47:02.002Z</time></trkpt><trkpt lat="41.24273943804164" lon="14.123379284260404"><ele>119.0</ele><time>2026-04-04T12:47:03.002Z</time></trkpt><trkpt lat="41.24262340632625" lon="14.123261256482566"><ele>119.0</ele><time>2026-04-04T12:47:04.002Z</time></trkpt><trkpt lat="41.24251061521473" lon="14.123142945265359"><ele>118.75</ele><time>2026-04-04T12:47:05.002Z</time></trkpt><trkpt lat="41.24238734606538" lon="14.123019113910802"><ele>118.5</ele><time>2026-04-04T12:47:06.002Z</time></trkpt><trkpt lat="41.24227917308725" lon="14.122885510277763"><ele>118.25</ele><time>2026-04-04T12:47:07.002Z</time></trkpt><trkpt lat="41.242169924033135" lon="14.122756044367744"><ele>118.0</ele><time>2026-04-04T12:47:08.002Z</time></trkpt><trkpt lat="41.242071168751444" lon="14.122636603471141"><ele>118.0</ele><time>2026-04-04T12:47:09.002Z</time></trkpt><trkpt lat="41.2419714847827" lon="14.122513633265942"><ele>118.0</ele><time>2026-04-04T12:47:10.002Z</time></trkpt><trkpt lat="41.24187832989741" lon="14.12237898027872"><ele>118.0</ele><time>2026-04-04T12:47:11.002Z</time></trkpt><trkpt lat="41.241772343999344" lon="14.122252717630634"><ele>118.0</ele><time>2026-04-04T12:47:12.002Z</time></trkpt><trkpt lat="41.241666874019685" lon="14.122115389524556"><ele>117.75</ele><time>2026-04-04T12:47:13.002Z</time></trkpt><trkpt lat="41.241565173573555" lon="14.121984266938636"><ele>117.5</ele><time>2026-04-04T12:47:14.002Z</time></trkpt><trkpt lat="41.24146033489552" lon="14.121862429551978"><ele>117.25</ele><time>2026-04-04T12:47:15.002Z</time></trkpt><trkpt lat="41.24135227561041" lon="14.121731677868059"><ele>117.0</ele><time>2026-04-04T12:47:16.002Z</time></trkpt><trkpt lat="41.24124942414996" lon="14.12158641841946"><ele>115.5</ele><time>2026-04-04T12:47:17.002Z</time></trkpt><trkpt lat="41.24114994081701" lon="14.121438885548152"><ele>114.0</ele><time>2026-04-04T12:47:18.002Z</time></trkpt><trkpt lat="41.2410553706898" lon="14.121288759896"><ele>112.5</ele><time>2026-04-04T12:47:19.002Z</time></trkpt><trkpt lat="41.24096763570699" lon="14.121145650780804"><ele>111.0</ele><time>2026-04-04T12:47:20.002Z</time></trkpt><trkpt lat="41.24087739362502" lon="14.121012018898936"><ele>111.0</ele><time>2026-04-04T12:47:21.002Z</time></trkpt><trkpt lat="41.24078092341996" lon="14.120880602209528"><ele>111.0</ele><time>2026-04-04T12:47:22.002Z</time></trkpt><trkpt lat="41.24067879154806" lon="14.120749904425265"><ele>111.0</ele><time>2026-04-04T12:47:23Z</time></trkpt><trkpt lat="41.24057068185352" lon="14.120627652577738"><ele>111.0</ele><time>2026-04-04T12:47:24Z</time></trkpt><trkpt lat="41.240455565565206" lon="14.120515295178999"><ele>108.66666666666666</ele><time>2026-04-04T12:47:25Z</time></trkpt><trkpt lat="41.24032896092283" lon="14.120405014097926"><ele>106.33333333333333</ele><time>2026-04-04T12:47:26Z</time></trkpt><trkpt lat="41.24019045445919" lon="14.120292524257662"><ele>104.0</ele><time>2026-04-04T12:47:27Z</time></trkpt><trkpt lat="41.24004340697474" lon="14.120185703684797"><ele>104.0</ele><time>2026-04-04T12:47:28Z</time></trkpt><trkpt lat="41.23989648401403" lon="14.120088402127017"><ele>104.0</ele><time>2026-04-04T12:47:29Z</time></trkpt><trkpt lat="41.23975982483827" lon="14.119999044635351"><ele>104.0</ele><time>2026-04-04T12:47:30Z</time></trkpt><trkpt lat="41.239646592489734" lon="14.11992272586638"><ele>104.0</ele><time>2026-04-04T12:47:31Z</time></trkpt><trkpt lat="41.239530929095835" lon="14.119844717588672"><ele>102.5</ele><time>2026-04-04T12:47:32Z</time></trkpt><trkpt lat="41.23940956530371" lon="14.119770571353007"><ele>101.0</ele><time>2026-04-04T12:47:33Z</time></trkpt><trkpt lat="41.23927766569345" lon="14.119691778366718"><ele>99.5</ele><time>2026-04-04T12:47:34Z</time></trkpt><trkpt lat="41.239148297329926" lon="14.119619606804093"><ele>98.0</ele><time>2026-04-04T12:47:35Z</time></trkpt><trkpt lat="41.23902901163342" lon="14.119549369737904"><ele>98.5</ele><time>2026-04-04T12:47:36Z</time></trkpt><trkpt lat="41.23891833158153" lon="14.119475505143175"><ele>99.0</ele><time>2026-04-04T12:47:37Z</time></trkpt><trkpt lat="41.23882097408256" lon="14.11939321325245"><ele>99.5</ele><time>2026-04-04T12:47:38Z</time></trkpt><trkpt lat="41.238736641024445" lon="14.11930400970639"><ele>100.0</ele><time>2026-04-04T12:47:39Z</time></trkpt><trkpt lat="41.23865237739287" lon="14.119210902206328"><ele>100.0</ele><time>2026-04-04T12:47:40Z</time></trkpt><trkpt lat="41.23856382866197" lon="14.119104452277245"><ele>100.0</ele><time>2026-04-04T12:47:41Z</time></trkpt><trkpt lat="41.238478322282425" lon="14.118989505113403"><ele>100.0</ele><time>2026-04-04T12:47:42Z</time></trkpt><trkpt lat="41.238385583117584" lon="14.118856263386963"><ele>100.0</ele><time>2026-04-04T12:47:43Z</time></trkpt><trkpt lat="41.23828971412688" lon="14.118703129974016"><ele>98.66666666666667</ele><time>2026-04-04T12:47:44Z</time></trkpt><trkpt lat="41.23818061151996" lon="14.118547053017975"><ele>97.33333333333334</ele><time>2026-04-04T12:47:45Z</time></trkpt><trkpt lat="41.23805667423689" lon="14.118395891351774"><ele>96.0</ele><time>2026-04-04T12:47:46Z</time></trkpt><trkpt lat="41.237925031384286" lon="14.118243451432722"><ele>95.0</ele><time>2026-04-04T12:47:47Z</time></trkpt><trkpt lat="41.23780615499744" lon="14.118092422186983"><ele>94.0</ele><time>2026-04-04T12:47:48Z</time></trkpt><trkpt lat="41.23769610213321" lon="14.117944284115115"><ele>93.0</ele><time>2026-04-04T12:47:49Z</time></trkpt><trkpt lat="41.23759380474859" lon="14.117791176386513"><ele>93.0</ele><time>2026-04-04T12:47:50Z</time></trkpt><trkpt lat="41.23748773072237" lon="14.117634836952467"><ele>93.0</ele><time>2026-04-04T12:47:51Z</time></trkpt><trkpt lat="41.23736250480001" lon="14.117498476211109"><ele>93.0</ele><time>2026-04-04T12:47:52Z</time></trkpt><trkpt lat="41.23722830588663" lon="14.117378370981514"><ele>91.66666666666667</ele><time>2026-04-04T12:47:53Z</time></trkpt><trkpt lat="41.23708759149728" lon="14.117259472823939"><ele>90.33333333333334</ele><time>2026-04-04T12:47:54Z</time></trkpt><trkpt lat="41.23694206565327" lon="14.117125189521369"><ele>89.0</ele><time>2026-04-04T12:47:55Z</time></trkpt><trkpt lat="41.23679764742273" lon="14.116991368317931"><ele>89.0</ele><time>2026-04-04T12:47:56Z</time></trkpt><trkpt lat="41.236647215315145" lon="14.116865087525152"><ele>89.0</ele><time>2026-04-04T12:47:57Z</time></trkpt><trkpt lat="41.236495742853386" lon="14.116762826447204"><ele>89.0</ele><time>2026-04-04T12:47:58Z</time></trkpt><trkpt lat="41.23634136225685" lon="14.116675559152247"><ele>89.0</ele><time>2026-04-04T12:47:59Z</time></trkpt><trkpt lat="41.23617538539418" lon="14.116604672643279"><ele>89.0</ele><time>2026-04-04T12:48:00Z</time></trkpt><trkpt lat="41.23601404715409" lon="14.116551522728809"><ele>89.0</ele><time>2026-04-04T12:48:01Z</time></trkpt><trkpt lat="41.23585410072562" lon="14.116493326850282"><ele>89.0</ele><time>2026-04-04T12:48:02Z</time></trkpt><trkpt lat="41.23569516724712" lon="14.116437180391388"><ele>89.0</ele><time>2026-04-04T12:48:03Z</time></trkpt><trkpt lat="41.23553800582975" lon="14.116359650743998"><ele>89.0</ele><time>2026-04-04T12:48:04Z</time></trkpt><trkpt lat="41.235394568544564" lon="14.116257930635916"><ele>90.0</ele><time>2026-04-04T12:48:05Z</time></trkpt><trkpt lat="41.23526176748165" lon="14.116138746769629"><ele>91.0</ele><time>2026-04-04T12:48:06Z</time></trkpt><trkpt lat="41.23512591017447" lon="14.11601010600048"><ele>92.0</ele><time>2026-04-04T12:48:07.001Z</time></trkpt><trkpt lat="41.23498669510431" lon="14.115875181235968"><ele>92.0</ele><time>2026-04-04T12:48:08.001Z</time></trkpt><trkpt lat="41.2348460359284" lon="14.115746014743268"><ele>92.0</ele><time>2026-04-04T12:48:09.001Z</time></trkpt><trkpt lat="41.23470401204046" lon="14.115613437415186"><ele>92.0</ele><time>2026-04-04T12:48:10.001Z</time></trkpt><trkpt lat="41.23455403305785" lon="14.115483718994689"><ele>91.33333333333334</ele><time>2026-04-04T12:48:11.001Z</time></trkpt><trkpt lat="41.23440844237958" lon="14.11536471859535"><ele>90.66666666666667</ele><time>2026-04-04T12:48:12.001Z</time></trkpt><trkpt lat="41.23427136116821" lon="14.115256927687772"><ele>90.0</ele><time>2026-04-04T12:48:13.001Z</time></trkpt><trkpt lat="41.23415107259102" lon="14.11516802458157"><ele>90.0</ele><time>2026-04-04T12:48:14.001Z</time></trkpt><trkpt lat="41.23403235734258" lon="14.115085365996684"><ele>90.0</ele><time>2026-04-04T12:48:15.001Z</time></trkpt><trkpt lat="41.23390450440995" lon="14.114999958650095"><ele>90.0</ele><time>2026-04-04T12:48:16.001Z</time></trkpt><trkpt lat="41.233770518962615" lon="14.114906797878074"><ele>90.0</ele><time>2026-04-04T12:48:17.001Z</time></trkpt><trkpt lat="41.233630811909606" lon="14.114800508199549"><ele>89.0</ele><time>2026-04-04T12:48:18.001Z</time></trkpt><trkpt lat="41.23349124902429" lon="14.114690534679125"><ele>88.0</ele><time>2026-04-04T12:48:19.001Z</time></trkpt><trkpt lat="41.23334059609258" lon="14.114570983017867"><ele>87.0</ele><time>2026-04-04T12:48:20.001Z</time></trkpt><trkpt lat="41.233179641588784" lon="14.11445698618623"><ele>89.0</ele><time>2026-04-04T12:48:21.001Z</time></trkpt><trkpt lat="41.233020201983805" lon="14.114341266876313"><ele>91.0</ele><time>2026-04-04T12:48:22.001Z</time></trkpt><trkpt lat="41.23285713780123" lon="14.114223595912632"><ele>93.0</ele><time>2026-04-04T12:48:23.001Z</time></trkpt><trkpt lat="41.23269531442481" lon="14.114099182162427"><ele>93.33333333333333</ele><time>2026-04-04T12:48:24.001Z</time></trkpt><trkpt lat="41.23253431642235" lon="14.113961290149108"><ele>93.66666666666666</ele><time>2026-04-04T12:48:25.001Z</time></trkpt><trkpt lat="41.23237466428983" lon="14.113822228125798"><ele>94.0</ele><time>2026-04-04T12:48:26.001Z</time></trkpt><trkpt lat="41.232215617129086" lon="14.113679197858124"><ele>94.0</ele><time>2026-04-04T12:48:27.001Z</time></trkpt><trkpt lat="41.232055879264735" lon="14.11353868231565"><ele>94.0</ele><time>2026-04-04T12:48:28.001Z</time></trkpt><trkpt lat="41.23189648538677" lon="14.113396870481383"><ele>94.0</ele><time>2026-04-04T12:48:29.001Z</time></trkpt><trkpt lat="41.23173165541664" lon="14.113243303094674"><ele>92.33333333333333</ele><time>2026-04-04T12:48:30.001Z</time></trkpt><trkpt lat="41.231570024583355" lon="14.113095519136682"><ele>90.66666666666667</ele><time>2026-04-04T12:48:31.001Z</time></trkpt><trkpt lat="41.231411034044086" lon="14.112959723186595"><ele>89.0</ele><time>2026-04-04T12:48:32.001Z</time></trkpt><trkpt lat="41.231264383488046" lon="14.112833242127008"><ele>89.0</ele><time>2026-04-04T12:48:33.001Z</time></trkpt><trkpt lat="41.231125273836106" lon="14.112715586075463"><ele>89.0</ele><time>2026-04-04T12:48:34.001Z</time></trkpt><trkpt lat="41.23098358344394" lon="14.112599940817125"><ele>89.0</ele><time>2026-04-04T12:48:35.001Z</time></trkpt><trkpt lat="41.23083807072523" lon="14.112478131750958"><ele>88.33333333333334</ele><time>2026-04-04T12:48:36.001Z</time></trkpt><trkpt lat="41.230685058445985" lon="14.11234801208969"><ele>87.66666666666667</ele><time>2026-04-04T12:48:37.001Z</time></trkpt><trkpt lat="41.23052937654436" lon="14.112211980352251"><ele>87.0</ele><time>2026-04-04T12:48:38.001Z</time></trkpt><trkpt lat="41.23036654722173" lon="14.112068515251666"><ele>87.0</ele><time>2026-04-04T12:48:39.001Z</time></trkpt><trkpt lat="41.23020081849914" lon="14.111929879123217"><ele>87.0</ele><time>2026-04-04T12:48:40.001Z</time></trkpt><trkpt lat="41.23003434150395" lon="14.111787820760545"><ele>87.0</ele><time>2026-04-04T12:48:41.001Z</time></trkpt><trkpt lat="41.229869073564515" lon="14.111635663937191"><ele>86.66666666666667</ele><time>2026-04-04T12:48:42.001Z</time></trkpt><trkpt lat="41.22970530320527" lon="14.111477329964293"><ele>86.33333333333334</ele><time>2026-04-04T12:48:43.001Z</time></trkpt><trkpt lat="41.2295434198869" lon="14.111311247311612"><ele>86.0</ele><time>2026-04-04T12:48:44.001Z</time></trkpt><trkpt lat="41.22938588533555" lon="14.111138546490542"><ele>86.0</ele><time>2026-04-04T12:48:45.001Z</time></trkpt><trkpt lat="41.229231073112274" lon="14.110967444359538"><ele>86.0</ele><time>2026-04-04T12:48:46.001Z</time></trkpt><trkpt lat="41.22908137996392" lon="14.110803167418313"><ele>86.0</ele><time>2026-04-04T12:48:47.001Z</time></trkpt><trkpt lat="41.228948235096105" lon="14.110655733582027"><ele>88.0</ele><time>2026-04-04T12:48:48.001Z</time></trkpt><trkpt lat="41.22882422994929" lon="14.110510130124977"><ele>90.0</ele><time>2026-04-04T12:48:49.001Z</time></trkpt><trkpt lat="41.22870674653439" lon="14.110368141669754"><ele>92.0</ele><time>2026-04-04T12:48:50.001Z</time></trkpt><trkpt lat="41.22860084759762" lon="14.110230078830153"><ele>92.0</ele><time>2026-04-04T12:48:51.001Z</time></trkpt><trkpt lat="41.228507363596776" lon="14.110097329233747"><ele>92.0</ele><time>2026-04-04T12:48:52.001Z</time></trkpt><trkpt lat="41.2284217658736" lon="14.109961420063438"><ele>92.0</ele><time>2026-04-04T12:48:53.001Z</time></trkpt><trkpt lat="41.22834509647426" lon="14.109811433315818"><ele>92.0</ele><time>2026-04-04T12:48:54.001Z</time></trkpt><trkpt lat="41.228284225672674" lon="14.109645790931582"><ele>89.0</ele><time>2026-04-04T12:48:55.001Z</time></trkpt><trkpt lat="41.228242652500086" lon="14.10945861483526"><ele>86.0</ele><time>2026-04-04T12:48:56.001Z</time></trkpt><trkpt lat="41.22821123982114" lon="14.10926059945128"><ele>83.0</ele><time>2026-04-04T12:48:57.001Z</time></trkpt><trkpt lat="41.228169453749246" lon="14.10905447971171"><ele>84.0</ele><time>2026-04-04T12:48:58.001Z</time></trkpt><trkpt lat="41.228102935947774" lon="14.108842433776946"><ele>85.0</ele><time>2026-04-04T12:48:59.001Z</time></trkpt><trkpt lat="41.22802230986572" lon="14.108625444112773"><ele>86.0</ele><time>2026-04-04T12:49:00.001Z</time></trkpt><trkpt lat="41.22793610531698" lon="14.108405924864623"><ele>85.33333333333334</ele><time>2026-04-04T12:49:01.001Z</time></trkpt><trkpt lat="41.22784554874581" lon="14.108183560563242"><ele>84.66666666666667</ele><time>2026-04-04T12:49:02.001Z</time></trkpt><trkpt lat="41.22775109099001" lon="14.107961914291128"><ele>84.0</ele><time>2026-04-04T12:49:03.001Z</time></trkpt><trkpt lat="41.22765343053774" lon="14.107745615033084"><ele>84.0</ele><time>2026-04-04T12:49:04.001Z</time></trkpt><trkpt lat="41.227547515896276" lon="14.107534931778634"><ele>84.0</ele><time>2026-04-04T12:49:05.001Z</time></trkpt><trkpt lat="41.227438388955854" lon="14.10732550141611"><ele>84.0</ele><time>2026-04-04T12:49:06.001Z</time></trkpt><trkpt lat="41.22732487999451" lon="14.107130327664017"><ele>84.33333333333333</ele><time>2026-04-04T12:49:07.001Z</time></trkpt><trkpt lat="41.22720511616338" lon="14.106937737550394"><ele>84.66666666666666</ele><time>2026-04-04T12:49:08.001Z</time></trkpt><trkpt lat="41.2270736251175" lon="14.106762714076122"><ele>85.0</ele><time>2026-04-04T12:49:09.001Z</time></trkpt><trkpt lat="41.22693574027617" lon="14.106612533908816"><ele>83.66666666666666</ele><time>2026-04-04T12:49:10.001Z</time></trkpt><trkpt lat="41.22679672915153" lon="14.106474261128684"><ele>82.33333333333333</ele><time>2026-04-04T12:49:11.001Z</time></trkpt><trkpt lat="41.226658675740126" lon="14.106354397635021"><ele>81.0</ele><time>2026-04-04T12:49:12.002Z</time></trkpt><trkpt lat="41.22653584659629" lon="14.106250407410393"><ele>82.0</ele><time>2026-04-04T12:49:13.002Z</time></trkpt><trkpt lat="41.2264231350142" lon="14.106144713599432"><ele>83.0</ele><time>2026-04-04T12:49:14.002Z</time></trkpt><trkpt lat="41.22632718471348" lon="14.10602369856667"><ele>84.0</ele><time>2026-04-04T12:49:15.002Z</time></trkpt><trkpt lat="41.22624843773078" lon="14.105892608751018"><ele>85.0</ele><time>2026-04-04T12:49:16.002Z</time></trkpt><trkpt lat="41.22619176142941" lon="14.10576248995278"><ele>84.33333333333333</ele><time>2026-04-04T12:49:17.002Z</time></trkpt><trkpt lat="41.22615225504461" lon="14.105644433011532"><ele>83.66666666666666</ele><time>2026-04-04T12:49:18.002Z</time></trkpt><trkpt lat="41.22612324476308" lon="14.105546490201986"><ele>83.0</ele><time>2026-04-04T12:49:19.002Z</time></trkpt><trkpt lat="41.22607806684797" lon="14.105420435957772"><ele>82.33333333333333</ele><time>2026-04-04T12:49:21.002Z</time></trkpt><trkpt lat="41.226029459540726" lon="14.105347951310396"><ele>81.66666666666667</ele><time>2026-04-04T12:49:23.002Z</time></trkpt><trkpt lat="41.22596813672701" lon="14.105288326910523"><ele>81.0</ele><time>2026-04-04T12:49:24.002Z</time></trkpt><trkpt lat="41.22588310007179" lon="14.105258340783296"><ele>81.0</ele><time>2026-04-04T12:49:25.002Z</time></trkpt><trkpt lat="41.225787929803104" lon="14.105226018985324"><ele>81.0</ele><time>2026-04-04T12:49:26.002Z</time></trkpt><trkpt lat="41.22567808224611" lon="14.105188787142286"><ele>81.0</ele><time>2026-04-04T12:49:27.002Z</time></trkpt><trkpt lat="41.225555229030114" lon="14.105141390161435"><ele>81.0</ele><time>2026-04-04T12:49:28.002Z</time></trkpt><trkpt lat="41.22542700594329" lon="14.105096526218867"><ele>81.0</ele><time>2026-04-04T12:49:29Z</time></trkpt><trkpt lat="41.225285405735605" lon="14.105054424787404"><ele>81.0</ele><time>2026-04-04T12:49:30Z</time></trkpt><trkpt lat="41.225144506747974" lon="14.105011765337848"><ele>81.0</ele><time>2026-04-04T12:49:31Z</time></trkpt><trkpt lat="41.22499126946073" lon="14.104958399645023"><ele>81.0</ele><time>2026-04-04T12:49:32Z</time></trkpt><trkpt lat="41.224834417846715" lon="14.104902780533367"><ele>82.66666666666667</ele><time>2026-04-04T12:49:33Z</time></trkpt><trkpt lat="41.22467491953478" lon="14.104847235397234"><ele>84.33333333333334</ele><time>2026-04-04T12:49:34Z</time></trkpt><trkpt lat="41.22451227886948" lon="14.104790062800197"><ele>86.0</ele><time>2026-04-04T12:49:35Z</time></trkpt><trkpt lat="41.22434840248846" lon="14.104737450156843"><ele>86.0</ele><time>2026-04-04T12:49:36Z</time></trkpt><trkpt lat="41.22418612411496" lon="14.104684696524311"><ele>86.0</ele><time>2026-04-04T12:49:37Z</time></trkpt><trkpt lat="41.22402460943031" lon="14.104635002717124"><ele>86.0</ele><time>2026-04-04T12:49:38Z</time></trkpt><trkpt lat="41.22387697351713" lon="14.10458928713983"><ele>86.75</ele><time>2026-04-04T12:49:39Z</time></trkpt><trkpt lat="41.223743290826704" lon="14.104540014630192"><ele>87.5</ele><time>2026-04-04T12:49:40Z</time></trkpt><trkpt lat="41.2236195104279" lon="14.104495093676059"><ele>88.25</ele><time>2026-04-04T12:49:41Z</time></trkpt><trkpt lat="41.22350650922851" lon="14.104438733333536"><ele>89.0</ele><time>2026-04-04T12:49:42Z</time></trkpt><trkpt lat="41.223399204824204" lon="14.104352497243285"><ele>89.0</ele><time>2026-04-04T12:49:43Z</time></trkpt><trkpt lat="41.223310477815716" lon="14.10425853174054"><ele>89.0</ele><time>2026-04-04T12:49:44Z</time></trkpt><trkpt lat="41.223226912620405" lon="14.104182844585067"><ele>89.0</ele><time>2026-04-04T12:49:45Z</time></trkpt><trkpt lat="41.22313984588766" lon="14.10414524609793"><ele>89.0</ele><time>2026-04-04T12:49:46Z</time></trkpt><trkpt lat="41.22304734725915" lon="14.104141670857354"><ele>89.0</ele><time>2026-04-04T12:49:47Z</time></trkpt><trkpt lat="41.222948597164816" lon="14.104169726476904"><ele>90.25</ele><time>2026-04-04T12:49:48Z</time></trkpt><trkpt lat="41.22283755848865" lon="14.104201064694754"><ele>91.5</ele><time>2026-04-04T12:49:49Z</time></trkpt><trkpt lat="41.22272313814942" lon="14.104184900393824"><ele>92.75</ele><time>2026-04-04T12:49:50Z</time></trkpt><trkpt lat="41.22260445264304" lon="14.104146097690903"><ele>94.0</ele><time>2026-04-04T12:49:51Z</time></trkpt><trkpt lat="41.22248291885453" lon="14.104117598585741"><ele>94.0</ele><time>2026-04-04T12:49:52Z</time></trkpt><trkpt lat="41.222370280624716" lon="14.104100635288203"><ele>94.0</ele><time>2026-04-04T12:49:53Z</time></trkpt><trkpt lat="41.222280680170265" lon="14.104101570761395"><ele>94.0</ele><time>2026-04-04T12:49:54Z</time></trkpt><trkpt lat="41.222208841184965" lon="14.104061049907907"><ele>94.0</ele><time>2026-04-04T12:49:55Z</time></trkpt><trkpt lat="41.22218959051733" lon="14.103964815566524"><ele>94.0</ele><time>2026-04-04T12:49:56Z</time></trkpt><trkpt lat="41.22219298587364" lon="14.103877635247724"><ele>94.0</ele><time>2026-04-04T12:49:57Z</time></trkpt><trkpt lat="41.22221704720705" lon="14.103791910612848"><ele>93.6</ele><time>2026-04-04T12:49:58Z</time></trkpt><trkpt lat="41.22225411060203" lon="14.103709142958472"><ele>93.2</ele><time>2026-04-04T12:49:59Z</time></trkpt><trkpt lat="41.22229361718585" lon="14.103612322728251"><ele>92.8</ele><time>2026-04-04T12:50:00Z</time></trkpt><trkpt lat="41.22233088633006" lon="14.103502247577984"><ele>92.39999999999999</ele><time>2026-04-04T12:50:01Z</time></trkpt><trkpt lat="41.222368987704506" lon="14.103375972241244"><ele>92.0</ele><time>2026-04-04T12:50:02Z</time></trkpt><trkpt lat="41.22240934144814" lon="14.103238020635544"><ele>92.0</ele><time>2026-04-04T12:50:03Z</time></trkpt><trkpt lat="41.22245398926475" lon="14.103089349456287"><ele>92.0</ele><time>2026-04-04T12:50:04Z</time></trkpt><trkpt lat="41.22250577895142" lon="14.102938036942877"><ele>92.0</ele><time>2026-04-04T12:50:05Z</time></trkpt><trkpt lat="41.22255910786532" lon="14.102781797354478"><ele>92.0</ele><time>2026-04-04T12:50:06Z</time></trkpt><trkpt lat="41.222606518204245" lon="14.1026298964707"><ele>92.0</ele><time>2026-04-04T12:50:07Z</time></trkpt><trkpt lat="41.22265070196251" lon="14.102491805201465"><ele>92.0</ele><time>2026-04-04T12:50:08Z</time></trkpt><trkpt lat="41.22271363715098" lon="14.10234708740281"><ele>92.0</ele><time>2026-04-04T12:50:09Z</time></trkpt><trkpt lat="41.22276135972278" lon="14.102189141666358"><ele>92.0</ele><time>2026-04-04T12:50:10Z</time></trkpt><trkpt lat="41.22281684934123" lon="14.102024714310259"><ele>92.5</ele><time>2026-04-04T12:50:11Z</time></trkpt><trkpt lat="41.22287332511634" lon="14.101859659535316"><ele>93.0</ele><time>2026-04-04T12:50:12Z</time></trkpt><trkpt lat="41.2229257764245" lon="14.101694861770778"><ele>93.5</ele><time>2026-04-04T12:50:13Z</time></trkpt><trkpt lat="41.22299323179333" lon="14.101534079788257"><ele>94.0</ele><time>2026-04-04T12:50:14Z</time></trkpt><trkpt lat="41.223063949092264" lon="14.101372281252033"><ele>93.75</ele><time>2026-04-04T12:50:15Z</time></trkpt><trkpt lat="41.22315350042717" lon="14.101213113107715"><ele>93.5</ele><time>2026-04-04T12:50:16Z</time></trkpt><trkpt lat="41.22325898889659" lon="14.101099779313877"><ele>93.25</ele><time>2026-04-04T12:50:17Z</time></trkpt><trkpt lat="41.22338840853108" lon="14.100993242804371"><ele>93.0</ele><time>2026-04-04T12:50:18Z</time></trkpt><trkpt lat="41.22353768561249" lon="14.100889367714219"><ele>93.0</ele><time>2026-04-04T12:50:19Z</time></trkpt><trkpt lat="41.22370136213868" lon="14.100792108427601"><ele>93.0</ele><time>2026-04-04T12:50:20Z</time></trkpt><trkpt lat="41.223876150769684" lon="14.10068590104082"><ele>93.0</ele><time>2026-04-04T12:50:21Z</time></trkpt><trkpt lat="41.22405901715299" lon="14.100573669124163"><ele>86.66666666666667</ele><time>2026-04-04T12:50:22Z</time></trkpt><trkpt lat="41.22425462367605" lon="14.100456514529592"><ele>80.33333333333334</ele><time>2026-04-04T12:50:23Z</time></trkpt><trkpt lat="41.22444969034812" lon="14.100337003870008"><ele>74.0</ele><time>2026-04-04T12:50:24.001Z</time></trkpt><trkpt lat="41.2246505141743" lon="14.10021636813207"><ele>74.0</ele><time>2026-04-04T12:50:25.001Z</time></trkpt><trkpt lat="41.224849544215076" lon="14.100097135491218"><ele>74.0</ele><time>2026-04-04T12:50:26.001Z</time></trkpt><trkpt lat="41.22503854726245" lon="14.100005117573268"><ele>74.0</ele><time>2026-04-04T12:50:27.001Z</time></trkpt><trkpt lat="41.22520309392418" lon="14.09990707427601"><ele>74.0</ele><time>2026-04-04T12:50:28.001Z</time></trkpt><trkpt lat="41.22533517937063" lon="14.099826642204738"><ele>74.0</ele><time>2026-04-04T12:50:29.001Z</time></trkpt><trkpt lat="41.225446526613695" lon="14.099741054974587"><ele>74.0</ele><time>2026-04-04T12:50:30.001Z</time></trkpt><trkpt lat="41.22556259496302" lon="14.09970387028585"><ele>74.0</ele><time>2026-04-04T12:50:31.001Z</time></trkpt><trkpt lat="41.22568319706596" lon="14.099769803380493"><ele>75.0</ele><time>2026-04-04T12:50:32.001Z</time></trkpt><trkpt lat="41.22582717525536" lon="14.09982606446698"><ele>76.0</ele><time>2026-04-04T12:50:33.001Z</time></trkpt><trkpt lat="41.22598572311969" lon="14.099888019218811"><ele>77.0</ele><time>2026-04-04T12:50:34.001Z</time></trkpt><trkpt lat="41.22615477125636" lon="14.099933509219506"><ele>77.0</ele><time>2026-04-04T12:50:35.001Z</time></trkpt><trkpt lat="41.226324901493925" lon="14.100015380156744"><ele>77.0</ele><time>2026-04-04T12:50:36.001Z</time></trkpt><trkpt lat="41.226512028983954" lon="14.100087591638712"><ele>77.0</ele><time>2026-04-04T12:50:37.001Z</time></trkpt><trkpt lat="41.22670345884193" lon="14.100162918057183"><ele>79.66666666666667</ele><time>2026-04-04T12:50:38.001Z</time></trkpt><trkpt lat="41.22690058144594" lon="14.100228268922155"><ele>82.33333333333333</ele><time>2026-04-04T12:50:39.001Z</time></trkpt><trkpt lat="41.22710603511711" lon="14.100266447251814"><ele>85.0</ele><time>2026-04-04T12:50:40.001Z</time></trkpt><trkpt lat="41.22731446673624" lon="14.100279316835033"><ele>87.0</ele><time>2026-04-04T12:50:41.001Z</time></trkpt><trkpt lat="41.227526689496855" lon="14.100262903405818"><ele>89.0</ele><time>2026-04-04T12:50:42.001Z</time></trkpt><trkpt lat="41.227739436757076" lon="14.100228424870904"><ele>91.0</ele><time>2026-04-04T12:50:43.001Z</time></trkpt><trkpt lat="41.22795400522347" lon="14.100188324724416"><ele>92.0</ele><time>2026-04-04T12:50:44.001Z</time></trkpt><trkpt lat="41.22817182575532" lon="14.100144987652897"><ele>93.0</ele><time>2026-04-04T12:50:45.001Z</time></trkpt><trkpt lat="41.22838980170274" lon="14.100103802800819"><ele>94.0</ele><time>2026-04-04T12:50:46.001Z</time></trkpt><trkpt lat="41.228588146005016" lon="14.100064809794542"><ele>94.0</ele><time>2026-04-04T12:50:47.001Z</time></trkpt><trkpt lat="41.22875688229771" lon="14.100029377963894"><ele>94.0</ele><time>2026-04-04T12:50:48.001Z</time></trkpt><trkpt lat="41.22889862223842" lon="14.09999852922777"><ele>94.0</ele><time>2026-04-04T12:50:49.001Z</time></trkpt><trkpt lat="41.22904148366432" lon="14.099954299319318"><ele>95.33333333333333</ele><time>2026-04-04T12:50:50.001Z</time></trkpt><trkpt lat="41.22916401534229" lon="14.099824316330421"><ele>96.66666666666666</ele><time>2026-04-04T12:50:51.001Z</time></trkpt><trkpt lat="41.22926599818238" lon="14.099643283464582"><ele>98.0</ele><time>2026-04-04T12:50:52.001Z</time></trkpt><trkpt lat="41.22937447258135" lon="14.099445992454564"><ele>98.0</ele><time>2026-04-04T12:50:53.001Z</time></trkpt><trkpt lat="41.22950747556499" lon="14.099248416895046"><ele>98.0</ele><time>2026-04-04T12:50:54.001Z</time></trkpt><trkpt lat="41.22963527310925" lon="14.099025008471257"><ele>98.0</ele><time>2026-04-04T12:50:55.001Z</time></trkpt><trkpt lat="41.229767871843684" lon="14.09878978177751"><ele>98.5</ele><time>2026-04-04T12:50:56.001Z</time></trkpt><trkpt lat="41.229905696683765" lon="14.098543369700742"><ele>99.0</ele><time>2026-04-04T12:50:57.001Z</time></trkpt><trkpt lat="41.230035039971696" lon="14.098275017372911"><ele>99.5</ele><time>2026-04-04T12:50:58.001Z</time></trkpt><trkpt lat="41.230192347196045" lon="14.09803235879443"><ele>100.0</ele><time>2026-04-04T12:50:59.001Z</time></trkpt><trkpt lat="41.230329583552596" lon="14.097755996372328"><ele>100.0</ele><time>2026-04-04T12:51:00.001Z</time></trkpt><trkpt lat="41.23047143546462" lon="14.097501256189316"><ele>100.0</ele><time>2026-04-04T12:51:01.001Z</time></trkpt><trkpt lat="41.23060331781533" lon="14.097271807467015"><ele>101.0</ele><time>2026-04-04T12:51:02.001Z</time></trkpt><trkpt lat="41.230723710338594" lon="14.097052174347104"><ele>102.0</ele><time>2026-04-04T12:51:03.001Z</time></trkpt><trkpt lat="41.230841022487944" lon="14.096847164511345"><ele>103.0</ele><time>2026-04-04T12:51:04.001Z</time></trkpt><trkpt lat="41.230956826493596" lon="14.096638975132118"><ele>103.0</ele><time>2026-04-04T12:51:05.001Z</time></trkpt><trkpt lat="41.231058919885314" lon="14.096426782982347"><ele>103.0</ele><time>2026-04-04T12:51:06.001Z</time></trkpt><trkpt lat="41.231143339374725" lon="14.096199007186955"><ele>103.0</ele><time>2026-04-04T12:51:07.001Z</time></trkpt><trkpt lat="41.23120983446935" lon="14.095977435565645"><ele>103.0</ele><time>2026-04-04T12:51:08.001Z</time></trkpt><trkpt lat="41.23125454193627" lon="14.095774079238955"><ele>103.0</ele><time>2026-04-04T12:51:09.001Z</time></trkpt><trkpt lat="41.23127192971343" lon="14.095567193894556"><ele>103.0</ele><time>2026-04-04T12:51:10.001Z</time></trkpt><trkpt lat="41.23126056491821" lon="14.095351243532003"><ele>103.0</ele><time>2026-04-04T12:51:11.001Z</time></trkpt><trkpt lat="41.23122197539746" lon="14.095131468736652"><ele>103.0</ele><time>2026-04-04T12:51:12.001Z</time></trkpt><trkpt lat="41.231165101029546" lon="14.094901281983956"><ele>103.0</ele><time>2026-04-04T12:51:13.001Z</time></trkpt><trkpt lat="41.231105322605444" lon="14.094667184269431"><ele>103.66666666666667</ele><time>2026-04-04T12:51:14.001Z</time></trkpt><trkpt lat="41.23104561736097" lon="14.094427772995259"><ele>104.33333333333334</ele><time>2026-04-04T12:51:15.001Z</time></trkpt><trkpt lat="41.230991281690834" lon="14.094183709762497"><ele>105.0</ele><time>2026-04-04T12:51:16.001Z</time></trkpt><trkpt lat="41.23093937352664" lon="14.09394957646502"><ele>105.0</ele><time>2026-04-04T12:51:17.001Z</time></trkpt><trkpt lat="41.230889174665876" lon="14.09371925631559"><ele>105.0</ele><time>2026-04-04T12:51:18.001Z</time></trkpt><trkpt lat="41.23083418025443" lon="14.093497243063949"><ele>105.0</ele><time>2026-04-04T12:51:19.001Z</time></trkpt><trkpt lat="41.23077735828295" lon="14.09326899304697"><ele>105.0</ele><time>2026-04-04T12:51:20.001Z</time></trkpt><trkpt lat="41.2307232264885" lon="14.093048122404587"><ele>105.0</ele><time>2026-04-04T12:51:21.001Z</time></trkpt><trkpt lat="41.23067476605133" lon="14.092834024483436"><ele>105.0</ele><time>2026-04-04T12:51:22.001Z</time></trkpt><trkpt lat="41.23063057226991" lon="14.092627519346326"><ele>104.33333333333334</ele><time>2026-04-04T12:51:23.002Z</time></trkpt><trkpt lat="41.23059990282652" lon="14.092410253537812"><ele>103.66666666666667</ele><time>2026-04-04T12:51:24.002Z</time></trkpt><trkpt lat="41.23058591330766" lon="14.092172057985984"><ele>103.0</ele><time>2026-04-04T12:51:25.002Z</time></trkpt><trkpt lat="41.230597513934434" lon="14.091929561310772"><ele>103.0</ele><time>2026-04-04T12:51:26.002Z</time></trkpt><trkpt lat="41.2306282363971" lon="14.091667516976019"><ele>103.0</ele><time>2026-04-04T12:51:27.002Z</time></trkpt><trkpt lat="41.23066528214883" lon="14.091391540810134"><ele>103.0</ele><time>2026-04-04T12:51:28.002Z</time></trkpt><trkpt lat="41.2307050134786" lon="14.091108646151257"><ele>102.33333333333334</ele><time>2026-04-04T12:51:29.002Z</time></trkpt><trkpt lat="41.230743872703215" lon="14.090830667018343"><ele>101.66666666666666</ele><time>2026-04-04T12:51:30.002Z</time></trkpt><trkpt lat="41.230777151373886" lon="14.090568795677273"><ele>101.0</ele><time>2026-04-04T12:51:31.002Z</time></trkpt><trkpt lat="41.230809780760715" lon="14.09030901928434"><ele>100.66666666666666</ele><time>2026-04-04T12:51:32.002Z</time></trkpt><trkpt lat="41.2308546544751" lon="14.090056874700736"><ele>100.33333333333334</ele><time>2026-04-04T12:51:33.002Z</time></trkpt><trkpt lat="41.230913833733645" lon="14.08981640610456"><ele>100.0</ele><time>2026-04-04T12:51:34.002Z</time></trkpt><trkpt lat="41.23099152914313" lon="14.089586967377667"><ele>100.0</ele><time>2026-04-04T12:51:35Z</time></trkpt><trkpt lat="41.23109142398383" lon="14.089378992668824"><ele>100.0</ele><time>2026-04-04T12:51:36Z</time></trkpt><trkpt lat="41.23121096414321" lon="14.089194870260366"><ele>100.0</ele><time>2026-04-04T12:51:37Z</time></trkpt><trkpt lat="41.23134999385611" lon="14.089034740979606"><ele>101.0</ele><time>2026-04-04T12:51:38Z</time></trkpt><trkpt lat="41.231496574450254" lon="14.088918807051328"><ele>102.0</ele><time>2026-04-04T12:51:39Z</time></trkpt><trkpt lat="41.231662928186786" lon="14.088834339202306"><ele>103.0</ele><time>2026-04-04T12:51:40Z</time></trkpt><trkpt lat="41.2318449816267" lon="14.088774511181585"><ele>103.0</ele><time>2026-04-04T12:51:41Z</time></trkpt><trkpt lat="41.232038083524586" lon="14.088738377424734"><ele>103.0</ele><time>2026-04-04T12:51:42Z</time></trkpt><trkpt lat="41.23223512699718" lon="14.088713715902754"><ele>103.0</ele><time>2026-04-04T12:51:43Z</time></trkpt><trkpt lat="41.23244771168924" lon="14.088704013051062"><ele>104.0</ele><time>2026-04-04T12:51:44Z</time></trkpt><trkpt lat="41.23266334057467" lon="14.088679864468105"><ele>105.0</ele><time>2026-04-04T12:51:45Z</time></trkpt><trkpt lat="41.23288682602449" lon="14.08865410335999"><ele>106.0</ele><time>2026-04-04T12:51:46Z</time></trkpt><trkpt lat="41.23311521811956" lon="14.088627553555263"><ele>107.0</ele><time>2026-04-04T12:51:47Z</time></trkpt><trkpt lat="41.23334856360528" lon="14.08860030534207"><ele>108.0</ele><time>2026-04-04T12:51:48Z</time></trkpt><trkpt lat="41.233584192036574" lon="14.088572790571044"><ele>108.0</ele><time>2026-04-04T12:51:49Z</time></trkpt><trkpt lat="41.233822251396916" lon="14.088523441328128"><ele>108.0</ele><time>2026-04-04T12:51:50Z</time></trkpt><trkpt lat="41.23405483472234" lon="14.088497755510856"><ele>108.66666666666666</ele><time>2026-04-04T12:51:51Z</time></trkpt><trkpt lat="41.234280703771596" lon="14.088474648750749"><ele>109.33333333333333</ele><time>2026-04-04T12:51:52Z</time></trkpt><trkpt lat="41.234497437692106" lon="14.088449794053426"><ele>110.0</ele><time>2026-04-04T12:51:53Z</time></trkpt><trkpt lat="41.23471146470274" lon="14.088417626269795"><ele>110.0</ele><time>2026-04-04T12:51:54Z</time></trkpt><trkpt lat="41.234911340724274" lon="14.088388241966628"><ele>110.0</ele><time>2026-04-04T12:51:55Z</time></trkpt><trkpt lat="41.23509999320522" lon="14.088311315723223"><ele>110.0</ele><time>2026-04-04T12:51:56Z</time></trkpt><trkpt lat="41.235279992989796" lon="14.088212933903582"><ele>111.0</ele><time>2026-04-04T12:51:57Z</time></trkpt><trkpt lat="41.23544745464174" lon="14.088074719066434"><ele>112.0</ele><time>2026-04-04T12:51:58Z</time></trkpt><trkpt lat="41.23560926331188" lon="14.087922950450762"><ele>113.0</ele><time>2026-04-04T12:51:59Z</time></trkpt><trkpt lat="41.23575707091756" lon="14.08775887225979"><ele>113.0</ele><time>2026-04-04T12:52:00Z</time></trkpt><trkpt lat="41.23588863334052" lon="14.087609516790986"><ele>113.0</ele><time>2026-04-04T12:52:01Z</time></trkpt><trkpt lat="41.236006418540235" lon="14.087474140205615"><ele>113.0</ele><time>2026-04-04T12:52:02Z</time></trkpt><trkpt lat="41.236125890099764" lon="14.087331530509942"><ele>112.66666666666666</ele><time>2026-04-04T12:52:03Z</time></trkpt><trkpt lat="41.23624171141441" lon="14.087158905400674"><ele>112.33333333333334</ele><time>2026-04-04T12:52:04Z</time></trkpt><trkpt lat="41.23635119230403" lon="14.08695606593938"><ele>112.0</ele><time>2026-04-04T12:52:05Z</time></trkpt><trkpt lat="41.23645962229103" lon="14.086739015528641"><ele>113.33333333333334</ele><time>2026-04-04T12:52:06Z</time></trkpt><trkpt lat="41.23657164199907" lon="14.08651712382704"><ele>114.66666666666666</ele><time>2026-04-04T12:52:07Z</time></trkpt><trkpt lat="41.23668361020323" lon="14.086296115030146"><ele>116.0</ele><time>2026-04-04T12:52:08Z</time></trkpt><trkpt lat="41.23678708719312" lon="14.086082031821071"><ele>116.0</ele><time>2026-04-04T12:52:09Z</time></trkpt><trkpt lat="41.23689571500363" lon="14.085868698919262"><ele>116.0</ele><time>2026-04-04T12:52:10Z</time></trkpt><trkpt lat="41.237024669053376" lon="14.085656547732855"><ele>116.0</ele><time>2026-04-04T12:52:11Z</time></trkpt><trkpt lat="41.23715453551218" lon="14.08542518307333"><ele>114.0</ele><time>2026-04-04T12:52:12Z</time></trkpt><trkpt lat="41.23728938229332" lon="14.0851876011952"><ele>112.0</ele><time>2026-04-04T12:52:13Z</time></trkpt><trkpt lat="41.237419145187616" lon="14.08495696715678"><ele>110.0</ele><time>2026-04-04T12:52:14Z</time></trkpt><trkpt lat="41.237555237149586" lon="14.084711732340526"><ele>105.5</ele><time>2026-04-04T12:52:15Z</time></trkpt><trkpt lat="41.237690520581566" lon="14.084463106322168"><ele>101.0</ele><time>2026-04-04T12:52:16Z</time></trkpt><trkpt lat="41.23780370987911" lon="14.084202206953728"><ele>100.0</ele><time>2026-04-04T12:52:17Z</time></trkpt><trkpt lat="41.23792035580704" lon="14.083962312173394"><ele>99.0</ele><time>2026-04-04T12:52:18Z</time></trkpt><trkpt lat="41.23802585673264" lon="14.083728392122465"><ele>98.0</ele><time>2026-04-04T12:52:19Z</time></trkpt><trkpt lat="41.238121406601586" lon="14.083512929783037"><ele>96.75</ele><time>2026-04-04T12:52:20Z</time></trkpt><trkpt lat="41.23820490659645" lon="14.08332710329948"><ele>95.5</ele><time>2026-04-04T12:52:21Z</time></trkpt><trkpt lat="41.23827851034526" lon="14.083160496098857"><ele>94.25</ele><time>2026-04-04T12:52:22.001Z</time></trkpt><trkpt lat="41.238335921927636" lon="14.083024773830644"><ele>93.0</ele><time>2026-04-04T12:52:23.001Z</time></trkpt><trkpt lat="41.238367598093376" lon="14.082880955758272"><ele>93.0</ele><time>2026-04-04T12:52:24.001Z</time></trkpt><trkpt lat="41.23837343464804" lon="14.082693090474338"><ele>93.0</ele><time>2026-04-04T12:52:25.001Z</time></trkpt><trkpt lat="41.238361993888425" lon="14.082486442060308"><ele>93.0</ele><time>2026-04-04T12:52:26.001Z</time></trkpt><trkpt lat="41.23833627293076" lon="14.082296475626984"><ele>93.0</ele><time>2026-04-04T12:52:27.001Z</time></trkpt><trkpt lat="41.23832501240324" lon="14.082135104628286"><ele>94.25</ele><time>2026-04-04T12:52:28.001Z</time></trkpt><trkpt lat="41.238329611429826" lon="14.08198949759187"><ele>95.5</ele><time>2026-04-04T12:52:29.001Z</time></trkpt><trkpt lat="41.23836576896158" lon="14.081832803111832"><ele>96.75</ele><time>2026-04-04T12:52:30.001Z</time></trkpt><trkpt lat="41.23842857773595" lon="14.081671700241047"><ele>98.0</ele><time>2026-04-04T12:52:31.001Z</time></trkpt><trkpt lat="41.2385133697013" lon="14.081510025876222"><ele>101.33333333333333</ele><time>2026-04-04T12:52:32.001Z</time></trkpt><trkpt lat="41.23862304242849" lon="14.081381850154004"><ele>104.66666666666666</ele><time>2026-04-04T12:52:33.001Z</time></trkpt><trkpt lat="41.23877391082159" lon="14.081303920262796"><ele>108.0</ele><time>2026-04-04T12:52:34.001Z</time></trkpt><trkpt lat="41.23892581186569" lon="14.081188068874855"><ele>106.0</ele><time>2026-04-04T12:52:35.001Z</time></trkpt><trkpt lat="41.239078400609586" lon="14.081074205579469"><ele>104.0</ele><time>2026-04-04T12:52:36.001Z</time></trkpt><trkpt lat="41.2392176113274" lon="14.080928873356145"><ele>102.0</ele><time>2026-04-04T12:52:37.001Z</time></trkpt><trkpt lat="41.23935658480195" lon="14.080771616165135"><ele>103.33333333333334</ele><time>2026-04-04T12:52:38.001Z</time></trkpt><trkpt lat="41.23946756560057" lon="14.080611259033992"><ele>104.66666666666667</ele><time>2026-04-04T12:52:39.001Z</time></trkpt><trkpt lat="41.239558729104075" lon="14.080437728843922"><ele>106.0</ele><time>2026-04-04T12:52:40.001Z</time></trkpt><trkpt lat="41.239637923652396" lon="14.08025906852088"><ele>106.0</ele><time>2026-04-04T12:52:41.001Z</time></trkpt><trkpt lat="41.23966500014566" lon="14.08004776599019"><ele>106.0</ele><time>2026-04-04T12:52:42.001Z</time></trkpt><trkpt lat="41.239684368769645" lon="14.07982030462737"><ele>106.0</ele><time>2026-04-04T12:52:43.001Z</time></trkpt><trkpt lat="41.23967686815529" lon="14.079574035929573"><ele>105.33333333333334</ele><time>2026-04-04T12:52:44.001Z</time></trkpt><trkpt lat="41.239657954781926" lon="14.079314315399376"><ele>104.66666666666666</ele><time>2026-04-04T12:52:45.001Z</time></trkpt><trkpt lat="41.23964940374288" lon="14.079035168608975"><ele>104.0</ele><time>2026-04-04T12:52:46.001Z</time></trkpt><trkpt lat="41.23961144980739" lon="14.07877103513237"><ele>105.33333333333333</ele><time>2026-04-04T12:52:47.001Z</time></trkpt><trkpt lat="41.23962210621578" lon="14.078512961739735"><ele>106.66666666666666</ele><time>2026-04-04T12:52:48.001Z</time></trkpt><trkpt lat="41.239645031089154" lon="14.078242698307399"><ele>108.0</ele><time>2026-04-04T12:52:49.001Z</time></trkpt><trkpt lat="41.239680187966854" lon="14.077961908308254"><ele>109.0</ele><time>2026-04-04T12:52:50.001Z</time></trkpt><trkpt lat="41.23972212848314" lon="14.077671141627905"><ele>110.0</ele><time>2026-04-04T12:52:51.001Z</time></trkpt><trkpt lat="41.239766403823836" lon="14.07738059331939"><ele>111.0</ele><time>2026-04-04T12:52:52.001Z</time></trkpt><trkpt lat="41.23980654959988" lon="14.077119260102936"><ele>111.5</ele><time>2026-04-04T12:52:53.001Z</time></trkpt><trkpt lat="41.2398408076735" lon="14.076899603346902"><ele>112.0</ele><time>2026-04-04T12:52:54.001Z</time></trkpt><trkpt lat="41.23985734482263" lon="14.07672072807114"><ele>112.5</ele><time>2026-04-04T12:52:55.001Z</time></trkpt><trkpt lat="41.239891079122984" lon="14.076598937297428"><ele>113.0</ele><time>2026-04-04T12:52:56.001Z</time></trkpt><trkpt lat="41.239922543777254" lon="14.076520029715205"><ele>113.80000000000001</ele><time>2026-04-04T12:52:57.001Z</time></trkpt><trkpt lat="41.240003978687874" lon="14.076452530967389"><ele>114.60000000000001</ele><time>2026-04-04T12:52:59.001Z</time></trkpt><trkpt lat="41.2400823474931" lon="14.076435732938897"><ele>115.39999999999999</ele><time>2026-04-04T12:53:05.001Z</time></trkpt><trkpt lat="41.24016133757932" lon="14.076429251164024"><ele>116.19999999999999</ele><time>2026-04-04T12:53:07.001Z</time></trkpt><trkpt lat="41.24029712170551" lon="14.076421776329227"><ele>117.0</ele><time>2026-04-04T12:53:09.001Z</time></trkpt><trkpt lat="41.24038381870251" lon="14.07640217423978"><ele>117.0</ele><time>2026-04-04T12:53:10.001Z</time></trkpt><trkpt lat="41.24048393490373" lon="14.076412289015325"><ele>116.99999999999999</ele><time>2026-04-04T12:53:11.001Z</time></trkpt><trkpt lat="41.240593512968914" lon="14.076420992648428"><ele>116.99999999999999</ele><time>2026-04-04T12:53:12.001Z</time></trkpt><trkpt lat="41.24070158212551" lon="14.076426044074505"><ele>117.0</ele><time>2026-04-04T12:53:13.001Z</time></trkpt><trkpt lat="41.24079561818589" lon="14.07642616400975"><ele>117.0</ele><time>2026-04-04T12:53:14.001Z</time></trkpt><trkpt lat="41.24087112326477" lon="14.076422153225858"><ele>118.0</ele><time>2026-04-04T12:53:15.001Z</time></trkpt><trkpt lat="41.24099225732625" lon="14.076387474504939"><ele>118.99999999999999</ele><time>2026-04-04T12:53:17.001Z</time></trkpt><trkpt lat="41.241083263721364" lon="14.076319763625254"><ele>119.99999999999999</ele><time>2026-04-04T12:53:19.002Z</time></trkpt><trkpt lat="41.241149902882555" lon="14.076302070140585"><ele>121.0</ele><time>2026-04-04T12:53:21.002Z</time></trkpt><trkpt lat="41.24101327682589" lon="14.076222463401022"><ele>122.0</ele><time>2026-04-04T12:56:15Z</time></trkpt><trkpt lat="41.240926369747925" lon="14.076224865623049"><ele>122.0</ele><time>2026-04-04T12:56:16Z</time></trkpt><trkpt lat="41.240831354555766" lon="14.076223847145947"><ele>121.99999999999999</ele><time>2026-04-04T12:56:17Z</time></trkpt><trkpt lat="41.24072685752845" lon="14.076219498134419"><ele>121.99999999999999</ele><time>2026-04-04T12:56:18Z</time></trkpt><trkpt lat="41.24061779173583" lon="14.076217466235505"><ele>122.0</ele><time>2026-04-04T12:56:19Z</time></trkpt><trkpt lat="41.240516567932346" lon="14.076210776571541"><ele>122.0</ele><time>2026-04-04T12:56:20Z</time></trkpt><trkpt lat="41.24041665146435" lon="14.076198661173903"><ele>121.16666666666666</ele><time>2026-04-04T12:56:21Z</time></trkpt><trkpt lat="41.24032278718747" lon="14.07618664625027"><ele>120.33333333333333</ele><time>2026-04-04T12:56:22Z</time></trkpt><trkpt lat="41.24023879537528" lon="14.07617948794264"><ele>119.5</ele><time>2026-04-04T12:56:23Z</time></trkpt><trkpt lat="41.240153640971364" lon="14.076171040169363"><ele>118.66666666666666</ele><time>2026-04-04T12:56:24Z</time></trkpt><trkpt lat="41.24007494711281" lon="14.07616349254871"><ele>117.83333333333333</ele><time>2026-04-04T12:56:25Z</time></trkpt><trkpt lat="41.2400075346517" lon="14.076162969722958"><ele>117.0</ele><time>2026-04-04T12:56:26Z</time></trkpt><trkpt lat="41.239891065367416" lon="14.07616259867981"><ele>117.0</ele><time>2026-04-04T12:56:28Z</time></trkpt><trkpt lat="41.23983587456405" lon="14.075992608596932"><ele>116.99999999999999</ele><time>2026-04-04T12:56:30Z</time></trkpt><trkpt lat="41.23983722258838" lon="14.075891918660375"><ele>116.99999999999999</ele><time>2026-04-04T12:56:31Z</time></trkpt><trkpt lat="41.239888720675" lon="14.075794820560386"><ele>117.0</ele><time>2026-04-04T12:56:32Z</time></trkpt><trkpt lat="41.23993996511654" lon="14.07567348874149"><ele>117.0</ele><time>2026-04-04T12:56:33Z</time></trkpt><trkpt lat="41.24000010883341" lon="14.075544280487764"><ele>117.0</ele><time>2026-04-04T12:56:34Z</time></trkpt><trkpt lat="41.24005886258566" lon="14.075400295569759"><ele>117.0</ele><time>2026-04-04T12:56:35Z</time></trkpt><trkpt lat="41.240145815049324" lon="14.075280921654302"><ele>117.0</ele><time>2026-04-04T12:56:36Z</time></trkpt><trkpt lat="41.24023753477472" lon="14.075166067437328"><ele>117.0</ele><time>2026-04-04T12:56:37Z</time></trkpt><trkpt lat="41.24033796852163" lon="14.075058365901663"><ele>117.0</ele><time>2026-04-04T12:56:38Z</time></trkpt><trkpt lat="41.240437895903625" lon="14.074951295249924"><ele>117.0</ele><time>2026-04-04T12:56:39Z</time></trkpt><trkpt lat="41.24053267495039" lon="14.074842188036133"><ele>117.0</ele><time>2026-04-04T12:56:40Z</time></trkpt><trkpt lat="41.24063252299964" lon="14.074740442925991"><ele>117.0</ele><time>2026-04-04T12:56:41.001Z</time></trkpt><trkpt lat="41.24073067653517" lon="14.074638947487797"><ele>119.0</ele><time>2026-04-04T12:56:42.001Z</time></trkpt><trkpt lat="41.2408219527768" lon="14.074527818028507"><ele>121.0</ele><time>2026-04-04T12:56:43.001Z</time></trkpt><trkpt lat="41.24091929814556" lon="14.074429345865852"><ele>123.0</ele><time>2026-04-04T12:56:44.001Z</time></trkpt><trkpt lat="41.241016380708984" lon="14.07432292456957"><ele>125.0</ele><time>2026-04-04T12:56:45.001Z</time></trkpt><trkpt lat="41.241124134322135" lon="14.074193246988875"><ele>125.0</ele><time>2026-04-04T12:56:46.001Z</time></trkpt><trkpt lat="41.241233701040045" lon="14.074071003762173"><ele>125.0</ele><time>2026-04-04T12:56:47.001Z</time></trkpt><trkpt lat="41.24134851778895" lon="14.073946267303475"><ele>125.0</ele><time>2026-04-04T12:56:48.001Z</time></trkpt><trkpt lat="41.241460106073355" lon="14.073809675630987"><ele>125.0</ele><time>2026-04-04T12:56:49.001Z</time></trkpt><trkpt lat="41.24158840620051" lon="14.0736625261857"><ele>125.0</ele><time>2026-04-04T12:56:50.001Z</time></trkpt><trkpt lat="41.24172462721687" lon="14.073517830463688"><ele>125.0</ele><time>2026-04-04T12:56:51.001Z</time></trkpt><trkpt lat="41.2418695997548" lon="14.073361146639813"><ele>125.0</ele><time>2026-04-04T12:56:52.001Z</time></trkpt><trkpt lat="41.24202563657516" lon="14.073189793130723"><ele>126.33333333333333</ele><time>2026-04-04T12:56:53.001Z</time></trkpt><trkpt lat="41.24218856292142" lon="14.07300565748515"><ele>127.66666666666666</ele><time>2026-04-04T12:56:54.001Z</time></trkpt><trkpt lat="41.242355979670876" lon="14.072801175704983"><ele>129.0</ele><time>2026-04-04T12:56:55.001Z</time></trkpt><trkpt lat="41.24252106735621" lon="14.072588098207758"><ele>128.0</ele><time>2026-04-04T12:56:56.001Z</time></trkpt><trkpt lat="41.24268876776519" lon="14.072370234211762"><ele>127.0</ele><time>2026-04-04T12:56:57.001Z</time></trkpt><trkpt lat="41.24285585956476" lon="14.07214389671908"><ele>127.0</ele><time>2026-04-04T12:56:58.001Z</time></trkpt><trkpt lat="41.24302238229829" lon="14.071918995965726"><ele>127.0</ele><time>2026-04-04T12:56:59.001Z</time></trkpt><trkpt lat="41.24318142536036" lon="14.071702022260503"><ele>128.66666666666669</ele><time>2026-04-04T12:57:00.001Z</time></trkpt><trkpt lat="41.24332443030722" lon="14.071497303266385"><ele>130.33333333333334</ele><time>2026-04-04T12:57:01.001Z</time></trkpt><trkpt lat="41.24345204571547" lon="14.071307764406562"><ele>132.0</ele><time>2026-04-04T12:57:02.001Z</time></trkpt><trkpt lat="41.243573991722826" lon="14.071134941211412"><ele>132.0</ele><time>2026-04-04T12:57:03.001Z</time></trkpt><trkpt lat="41.2436927994019" lon="14.070991743383296"><ele>132.0</ele><time>2026-04-04T12:57:04.001Z</time></trkpt><trkpt lat="41.24379730118404" lon="14.070842960387205"><ele>132.0</ele><time>2026-04-04T12:57:05.001Z</time></trkpt><trkpt lat="41.243914671310186" lon="14.070690889630447"><ele>135.33333333333334</ele><time>2026-04-04T12:57:06.001Z</time></trkpt><trkpt lat="41.244063986283514" lon="14.070575375009449"><ele>138.66666666666669</ele><time>2026-04-04T12:57:07.001Z</time></trkpt><trkpt lat="41.24420228412567" lon="14.070477889806934"><ele>142.0</ele><time>2026-04-04T12:57:08.001Z</time></trkpt><trkpt lat="41.24434804442656" lon="14.070393402374453"><ele>142.0</ele><time>2026-04-04T12:57:09.001Z</time></trkpt><trkpt lat="41.244500103457774" lon="14.070328164696594"><ele>142.0</ele><time>2026-04-04T12:57:10.001Z</time></trkpt><trkpt lat="41.244653531936" lon="14.070266683550678"><ele>142.0</ele><time>2026-04-04T12:57:11.001Z</time></trkpt><trkpt lat="41.24481933853259" lon="14.070225753596857"><ele>144.66666666666669</ele><time>2026-04-04T12:57:12.001Z</time></trkpt><trkpt lat="41.24497897257131" lon="14.070200649061267"><ele>147.33333333333334</ele><time>2026-04-04T12:57:13.001Z</time></trkpt><trkpt lat="41.245129264589714" lon="14.070159969262747"><ele>150.0</ele><time>2026-04-04T12:57:14.001Z</time></trkpt><trkpt lat="41.24530767015669" lon="14.070103308042158"><ele>150.0</ele><time>2026-04-04T12:57:15.001Z</time></trkpt><trkpt lat="41.24546468940653" lon="14.07000530687656"><ele>150.0</ele><time>2026-04-04T12:57:16.001Z</time></trkpt><trkpt lat="41.245616848176326" lon="14.069912411112737"><ele>150.0</ele><time>2026-04-04T12:57:17.001Z</time></trkpt><trkpt lat="41.24576673381377" lon="14.069809642464968"><ele>152.0</ele><time>2026-04-04T12:57:18.001Z</time></trkpt><trkpt lat="41.24589401598246" lon="14.069688329130557"><ele>154.0</ele><time>2026-04-04T12:57:19.001Z</time></trkpt><trkpt lat="41.24602660535371" lon="14.069542618569235"><ele>156.0</ele><time>2026-04-04T12:57:20.001Z</time></trkpt><trkpt lat="41.24613781885867" lon="14.069364766471399"><ele>156.0</ele><time>2026-04-04T12:57:21.001Z</time></trkpt><trkpt lat="41.24623051382805" lon="14.069174807063026"><ele>156.0</ele><time>2026-04-04T12:57:22.001Z</time></trkpt><trkpt lat="41.246289203196184" lon="14.068975233510216"><ele>156.0</ele><time>2026-04-04T12:57:23.001Z</time></trkpt><trkpt lat="41.246339515183344" lon="14.068771450261314"><ele>155.33333333333334</ele><time>2026-04-04T12:57:24.001Z</time></trkpt><trkpt lat="41.24637454443774" lon="14.068544085534414"><ele>154.66666666666669</ele><time>2026-04-04T12:57:25.001Z</time></trkpt><trkpt lat="41.24639860323664" lon="14.06834159755696"><ele>154.0</ele><time>2026-04-04T12:57:26.001Z</time></trkpt><trkpt lat="41.24642520148514" lon="14.068155106772709"><ele>155.75</ele><time>2026-04-04T12:57:27.001Z</time></trkpt><trkpt lat="41.246461469592184" lon="14.068000034036992"><ele>157.5</ele><time>2026-04-04T12:57:28.001Z</time></trkpt><trkpt lat="41.24651380678802" lon="14.067861399524913"><ele>159.25</ele><time>2026-04-04T12:57:29.001Z</time></trkpt><trkpt lat="41.24657163275582" lon="14.067737569953747"><ele>161.0</ele><time>2026-04-04T12:57:30.001Z</time></trkpt><trkpt lat="41.24665024051773" lon="14.06761540656935"><ele>161.0</ele><time>2026-04-04T12:57:31.002Z</time></trkpt><trkpt lat="41.246738487584324" lon="14.067523436061958"><ele>161.0</ele><time>2026-04-04T12:57:32.002Z</time></trkpt><trkpt lat="41.246845880807975" lon="14.06743317037381"><ele>161.0</ele><time>2026-04-04T12:57:33.002Z</time></trkpt><trkpt lat="41.24695128188509" lon="14.06735262022346"><ele>161.0</ele><time>2026-04-04T12:57:34.002Z</time></trkpt><trkpt lat="41.24704649005827" lon="14.067281536936958"><ele>160.25</ele><time>2026-04-04T12:57:35.002Z</time></trkpt><trkpt lat="41.24713676547104" lon="14.067238660026218"><ele>159.5</ele><time>2026-04-04T12:57:36.002Z</time></trkpt><trkpt lat="41.24721174412559" lon="14.067200144801069"><ele>158.75</ele><time>2026-04-04T12:57:37.002Z</time></trkpt><trkpt lat="41.247300715067674" lon="14.067151281071133"><ele>158.0</ele><time>2026-04-04T12:57:39.002Z</time></trkpt><trkpt lat="41.24741011241627" lon="14.067375617333147"><ele>159.5</ele><time>2026-04-04T12:57:41.002Z</time></trkpt><trkpt lat="41.24745346501426" lon="14.067484957344583"><ele>161.0</ele><time>2026-04-04T12:57:42.002Z</time></trkpt><trkpt lat="41.24750004156225" lon="14.067622145312534"><ele>162.5</ele><time>2026-04-04T12:57:43.002Z</time></trkpt><trkpt lat="41.24755880475387" lon="14.06778150859963"><ele>164.0</ele><time>2026-04-04T12:57:44.002Z</time></trkpt><trkpt lat="41.24762501279284" lon="14.067964924005462"><ele>164.0</ele><time>2026-04-04T12:57:45.002Z</time></trkpt><trkpt lat="41.24769239296738" lon="14.068149444145126"><ele>164.0</ele><time>2026-04-04T12:57:46.002Z</time></trkpt><trkpt lat="41.2477569482483" lon="14.068339249300069"><ele>164.0</ele><time>2026-04-04T12:57:47.002Z</time></trkpt><trkpt lat="41.24782224102663" lon="14.068508587088521"><ele>165.0</ele><time>2026-04-04T12:57:48.002Z</time></trkpt><trkpt lat="41.24788212024269" lon="14.068650152993932"><ele>166.0</ele><time>2026-04-04T12:57:49.002Z</time></trkpt><trkpt lat="41.24794009785159" lon="14.068778195674033"><ele>167.0</ele><time>2026-04-04T12:57:50.002Z</time></trkpt><trkpt lat="41.248000185961175" lon="14.068879427913496"><ele>168.0</ele><time>2026-04-04T12:57:51.002Z</time></trkpt><trkpt lat="41.24804803761968" lon="14.068966752063169"><ele>169.0</ele><time>2026-04-04T12:57:52.002Z</time></trkpt><trkpt lat="41.24808785021969" lon="14.069037388905143"><ele>169.16666666666669</ele><time>2026-04-04T12:57:53Z</time></trkpt><trkpt lat="41.24814620312161" lon="14.069138983936474"><ele>169.33333333333334</ele><time>2026-04-04T12:57:55Z</time></trkpt><trkpt lat="41.24819000390467" lon="14.069204721785132"><ele>169.5</ele><time>2026-04-04T12:57:58Z</time></trkpt><trkpt lat="41.24822436863395" lon="14.069325831490614"><ele>169.66666666666666</ele><time>2026-04-04T12:58:01Z</time></trkpt><trkpt lat="41.2482673484287" lon="14.069399359705681"><ele>169.83333333333331</ele><time>2026-04-04T12:58:03Z</time></trkpt><trkpt lat="41.24836486676957" lon="14.069373208059007"><ele>170.0</ele><time>2026-04-04T12:58:05Z</time></trkpt><trkpt lat="41.248426281881386" lon="14.069337041473966"><ele>170.0</ele><time>2026-04-04T12:58:06Z</time></trkpt><trkpt lat="41.248507330312634" lon="14.069252809703986"><ele>170.0</ele><time>2026-04-04T12:58:08Z</time></trkpt><trkpt lat="41.248614744013416" lon="14.069163336487634"><ele>170.0</ele><time>2026-04-04T12:58:10Z</time></trkpt><trkpt lat="41.24869127271047" lon="14.06912015778332"><ele>170.0</ele><time>2026-04-04T12:58:11Z</time></trkpt><trkpt lat="41.24875685439127" lon="14.069069721256936"><ele>170.0</ele><time>2026-04-04T12:58:12Z</time></trkpt><trkpt lat="41.248814847190566" lon="14.069028704901562"><ele>169.83333333333331</ele><time>2026-04-04T12:58:13Z</time></trkpt><trkpt lat="41.24889056006774" lon="14.068975833933735"><ele>169.66666666666666</ele><time>2026-04-04T12:58:15Z</time></trkpt><trkpt lat="41.24894880233771" lon="14.068934861067795"><ele>169.5</ele><time>2026-04-04T12:58:18Z</time></trkpt><trkpt lat="41.24901202566037" lon="14.068896357008583"><ele>169.33333333333334</ele><time>2026-04-04T12:58:20Z</time></trkpt><trkpt lat="41.249077847220214" lon="14.068858834724013"><ele>169.16666666666669</ele><time>2026-04-04T12:58:22Z</time></trkpt><trkpt lat="41.24917143818132" lon="14.06876465919153"><ele>169.0</ele><time>2026-04-04T12:58:24Z</time></trkpt><trkpt lat="41.24931267910941" lon="14.068823559479316"><ele>170.0</ele><time>2026-04-04T12:58:26Z</time></trkpt><trkpt lat="41.24936888945193" lon="14.068885788531375"><ele>171.0</ele><time>2026-04-04T12:58:27Z</time></trkpt><trkpt lat="41.24940974482534" lon="14.068966312405305"><ele>172.0</ele><time>2026-04-04T12:58:28Z</time></trkpt><trkpt lat="41.249451259343786" lon="14.069041372398642"><ele>173.0</ele><time>2026-04-04T12:58:29Z</time></trkpt><trkpt lat="41.2494991933668" lon="14.069115188999062"><ele>174.0</ele><time>2026-04-04T12:58:30Z</time></trkpt><trkpt lat="41.24954424412785" lon="14.069187126724467"><ele>175.0</ele><time>2026-04-04T12:58:31Z</time></trkpt><trkpt lat="41.24958721770214" lon="14.069250003294725"><ele>176.0</ele><time>2026-04-04T12:58:32Z</time></trkpt><trkpt lat="41.24965526434279" lon="14.069360151498325"><ele>176.16666666666666</ele><time>2026-04-04T12:58:34Z</time></trkpt><trkpt lat="41.24971451155329" lon="14.069426888757505"><ele>176.33333333333331</ele><time>2026-04-04T12:58:35Z</time></trkpt><trkpt lat="41.2497594895029" lon="14.069507371162809"><ele>176.5</ele><time>2026-04-04T12:58:36Z</time></trkpt><trkpt lat="41.24982183000918" lon="14.06956755070942"><ele>176.66666666666666</ele><time>2026-04-04T12:58:37Z</time></trkpt><trkpt lat="41.249895829084366" lon="14.069613853873388"><ele>176.83333333333334</ele><time>2026-04-04T12:58:38.001Z</time></trkpt><trkpt lat="41.24996810969676" lon="14.069651117311848"><ele>177.0</ele><time>2026-04-04T12:58:39.001Z</time></trkpt><trkpt lat="41.25002415806114" lon="14.069696462045252"><ele>177.0</ele><time>2026-04-04T12:58:40.001Z</time></trkpt><trkpt lat="41.250091164207454" lon="14.069745857324548"><ele>177.0</ele><time>2026-04-04T12:58:41.001Z</time></trkpt><trkpt lat="41.250156684937814" lon="14.069812307686172"><ele>177.0</ele><time>2026-04-04T12:58:42.001Z</time></trkpt><trkpt lat="41.250236872476606" lon="14.069864294194296"><ele>177.0</ele><time>2026-04-04T12:58:43.001Z</time></trkpt><trkpt lat="41.25031993137605" lon="14.06991167589569"><ele>177.0</ele><time>2026-04-04T12:58:44.001Z</time></trkpt><trkpt lat="41.25040869468337" lon="14.069962112882585"><ele>177.0</ele><time>2026-04-04T12:58:45.001Z</time></trkpt><trkpt lat="41.25049390229669" lon="14.07000648181545"><ele>174.8</ele><time>2026-04-04T12:58:46.001Z</time></trkpt><trkpt lat="41.25057340131606" lon="14.070051128215649"><ele>172.6</ele><time>2026-04-04T12:58:47.001Z</time></trkpt><trkpt lat="41.25065286653485" lon="14.070091778660961"><ele>170.4</ele><time>2026-04-04T12:58:48.001Z</time></trkpt><trkpt lat="41.25074218650778" lon="14.070127371068354"><ele>168.20000000000002</ele><time>2026-04-04T12:58:49.001Z</time></trkpt><trkpt lat="41.25083413468624" lon="14.070152762756418"><ele>166.0</ele><time>2026-04-04T12:58:50.001Z</time></trkpt><trkpt lat="41.2509261934865" lon="14.070155341812342"><ele>166.0</ele><time>2026-04-04T12:58:51.001Z</time></trkpt><trkpt lat="41.25103803627039" lon="14.07012550351179"><ele>166.0</ele><time>2026-04-04T12:58:52.001Z</time></trkpt><trkpt lat="41.25117478132236" lon="14.070103434363023"><ele>166.0</ele><time>2026-04-04T12:58:53.001Z</time></trkpt><trkpt lat="41.251316943681836" lon="14.070053721790698"><ele>166.0</ele><time>2026-04-04T12:58:54.001Z</time></trkpt><trkpt lat="41.25146463865166" lon="14.069987395288466"><ele>173.66666666666669</ele><time>2026-04-04T12:58:55.001Z</time></trkpt><trkpt lat="41.25162232598937" lon="14.06993571370066"><ele>181.33333333333334</ele><time>2026-04-04T12:58:56.001Z</time></trkpt><trkpt lat="41.251787360618565" lon="14.06988283548982"><ele>189.0</ele><time>2026-04-04T12:58:57.001Z</time></trkpt><trkpt lat="41.25195119142695" lon="14.069846351872998"><ele>189.0</ele><time>2026-04-04T12:58:58.001Z</time></trkpt><trkpt lat="41.25209820021438" lon="14.06979930161297"><ele>189.0</ele><time>2026-04-04T12:58:59.001Z</time></trkpt><trkpt lat="41.25223037500454" lon="14.069750830802224"><ele>189.0</ele><time>2026-04-04T12:59:00.001Z</time></trkpt><trkpt lat="41.252331811167984" lon="14.069706229559452"><ele>189.0</ele><time>2026-04-04T12:59:01.001Z</time></trkpt><trkpt lat="41.25242204249007" lon="14.069643332683048"><ele>188.39999999999998</ele><time>2026-04-04T12:59:02.001Z</time></trkpt><trkpt lat="41.25250962815401" lon="14.06960466483091"><ele>187.8</ele><time>2026-04-04T12:59:03.001Z</time></trkpt><trkpt lat="41.25259673913958" lon="14.069570282592034"><ele>187.2</ele><time>2026-04-04T12:59:04.001Z</time></trkpt><trkpt lat="41.25268282330216" lon="14.06953069634906"><ele>186.60000000000002</ele><time>2026-04-04T12:59:05.001Z</time></trkpt><trkpt lat="41.25277006527054" lon="14.069488260222878"><ele>186.0</ele><time>2026-04-04T12:59:06.001Z</time></trkpt><trkpt lat="41.25285685748089" lon="14.069447726993529"><ele>186.0</ele><time>2026-04-04T12:59:07.001Z</time></trkpt><trkpt lat="41.252953339171064" lon="14.069409439576845"><ele>186.0</ele><time>2026-04-04T12:59:08.001Z</time></trkpt><trkpt lat="41.25308706566087" lon="14.069360033711801"><ele>186.0</ele><time>2026-04-04T12:59:09.001Z</time></trkpt><trkpt lat="41.25321267535768" lon="14.06929313779221"><ele>186.0</ele><time>2026-04-04T12:59:10.001Z</time></trkpt><trkpt lat="41.253318995366705" lon="14.06921480114371"><ele>190.33333333333331</ele><time>2026-04-04T12:59:11.001Z</time></trkpt><trkpt lat="41.253416807121056" lon="14.069094031346838"><ele>194.66666666666666</ele><time>2026-04-04T12:59:12.001Z</time></trkpt><trkpt lat="41.25351293267798" lon="14.06893189389098"><ele>199.0</ele><time>2026-04-04T12:59:13.001Z</time></trkpt><trkpt lat="41.25360620969367" lon="14.068741776315457"><ele>199.0</ele><time>2026-04-04T12:59:14.001Z</time></trkpt><trkpt lat="41.25368308320589" lon="14.06855491168168"><ele>199.0</ele><time>2026-04-04T12:59:15.001Z</time></trkpt><trkpt lat="41.25375348622751" lon="14.068392676726486"><ele>199.0</ele><time>2026-04-04T12:59:16.001Z</time></trkpt><trkpt lat="41.25380891860204" lon="14.068234563758365"><ele>199.0</ele><time>2026-04-04T12:59:17.001Z</time></trkpt><trkpt lat="41.25383831454257" lon="14.068062653221597"><ele>199.0</ele><time>2026-04-04T12:59:18.001Z</time></trkpt><trkpt lat="41.25383233539787" lon="14.067882062059807"><ele>199.0</ele><time>2026-04-04T12:59:19.001Z</time></trkpt><trkpt lat="41.253804018314526" lon="14.067689989530832"><ele>199.0</ele><time>2026-04-04T12:59:20.001Z</time></trkpt><trkpt lat="41.253768380732176" lon="14.067534962472285"><ele>199.0</ele><time>2026-04-04T12:59:21.001Z</time></trkpt><trkpt lat="41.25374686845323" lon="14.067375619302352"><ele>198.99999999999997</ele><time>2026-04-04T12:59:22.001Z</time></trkpt><trkpt lat="41.25371969326654" lon="14.067224812757303"><ele>199.0</ele><time>2026-04-04T12:59:23.001Z</time></trkpt><trkpt lat="41.25369738904372" lon="14.067094715659747"><ele>199.0</ele><time>2026-04-04T12:59:24.001Z</time></trkpt><trkpt lat="41.2536842729081" lon="14.066984447334821"><ele>199.0</ele><time>2026-04-04T12:59:25.002Z</time></trkpt><trkpt lat="41.253678013149" lon="14.066881296113559"><ele>198.99999999999997</ele><time>2026-04-04T12:59:26.002Z</time></trkpt><trkpt lat="41.253677400520615" lon="14.066789907399873"><ele>199.0</ele><time>2026-04-04T12:59:27.002Z</time></trkpt><trkpt lat="41.2536947298077" lon="14.066644965250545"><ele>198.6</ele><time>2026-04-04T12:59:29.002Z</time></trkpt><trkpt lat="41.2537668519595" lon="14.066539198882564"><ele>198.2</ele><time>2026-04-04T12:59:31.002Z</time></trkpt><trkpt lat="41.2538354442648" lon="14.066418462417637"><ele>197.79999999999998</ele><time>2026-04-04T12:59:33.002Z</time></trkpt><trkpt lat="41.25386325472809" lon="14.066322322055594"><ele>197.39999999999998</ele><time>2026-04-04T12:59:34.002Z</time></trkpt><trkpt lat="41.25391048157014" lon="14.06620251750954"><ele>197.0</ele><time>2026-04-04T12:59:35.002Z</time></trkpt><trkpt lat="41.25393524873531" lon="14.066070294655638"><ele>195.0</ele><time>2026-04-04T12:59:36.002Z</time></trkpt><trkpt lat="41.25397302798161" lon="14.06593601376996"><ele>193.0</ele><time>2026-04-04T12:59:37.002Z</time></trkpt><trkpt lat="41.25403738823722" lon="14.065794527293617"><ele>191.0</ele><time>2026-04-04T12:59:38.002Z</time></trkpt><trkpt lat="41.25408558832681" lon="14.065653995005981"><ele>189.0</ele><time>2026-04-04T12:59:39.002Z</time></trkpt><trkpt lat="41.25415024884803" lon="14.065530444029491"><ele>189.0</ele><time>2026-04-04T12:59:40.002Z</time></trkpt><trkpt lat="41.25421995245045" lon="14.065429402693413"><ele>189.0</ele><time>2026-04-04T12:59:41.002Z</time></trkpt><trkpt lat="41.25427956553368" lon="14.06533051522912"><ele>189.0</ele><time>2026-04-04T12:59:42.002Z</time></trkpt><trkpt lat="41.25433584021785" lon="14.065223100955286"><ele>189.0</ele><time>2026-04-04T12:59:43.002Z</time></trkpt><trkpt lat="41.25437206615677" lon="14.06511043151875"><ele>189.0</ele><time>2026-04-04T12:59:44.002Z</time></trkpt><trkpt lat="41.254398672473286" lon="14.065003098612172"><ele>188.79999999999998</ele><time>2026-04-04T12:59:45.002Z</time></trkpt><trkpt lat="41.254426542026" lon="14.064921494374248"><ele>188.6</ele><time>2026-04-04T12:59:46.002Z</time></trkpt><trkpt lat="41.25445120007048" lon="14.064839049372635"><ele>188.4</ele><time>2026-04-04T12:59:47.002Z</time></trkpt><trkpt lat="41.25449230727087" lon="14.064730752674059"><ele>188.2</ele><time>2026-04-04T12:59:48.002Z</time></trkpt><trkpt lat="41.254541288552495" lon="14.064601620420834"><ele>188.0</ele><time>2026-04-04T12:59:49.002Z</time></trkpt><trkpt lat="41.25460121967424" lon="14.064459723709668"><ele>188.0</ele><time>2026-04-04T12:59:50.002Z</time></trkpt><trkpt lat="41.25465584212987" lon="14.064319016705268"><ele>188.0</ele><time>2026-04-04T12:59:51.002Z</time></trkpt><trkpt lat="41.25471832372364" lon="14.064178365015778"><ele>188.0</ele><time>2026-04-04T12:59:52.002Z</time></trkpt><trkpt lat="41.25480029266144" lon="14.064032547889237"><ele>188.0</ele><time>2026-04-04T12:59:53.002Z</time></trkpt><trkpt lat="41.25486552899896" lon="14.063859692206028"><ele>190.33333333333331</ele><time>2026-04-04T12:59:54.002Z</time></trkpt><trkpt lat="41.2549517143656" lon="14.063689680139836"><ele>192.66666666666666</ele><time>2026-04-04T12:59:55.002Z</time></trkpt><trkpt lat="41.25503709644174" lon="14.063515382639054"><ele>195.0</ele><time>2026-04-04T12:59:56.002Z</time></trkpt><trkpt lat="41.25512280505296" lon="14.06331688313383"><ele>193.66666666666666</ele><time>2026-04-04T12:59:57.002Z</time></trkpt><trkpt lat="41.25521014756418" lon="14.063109528655149"><ele>192.33333333333331</ele><time>2026-04-04T12:59:58.002Z</time></trkpt><trkpt lat="41.25528877676805" lon="14.062899774784801"><ele>191.0</ele><time>2026-04-04T12:59:59Z</time></trkpt><trkpt lat="41.255385467516945" lon="14.062687397976287"><ele>191.0</ele><time>2026-04-04T13:00:00Z</time></trkpt><trkpt lat="41.25547089325023" lon="14.062482149961895"><ele>191.0</ele><time>2026-04-04T13:00:01Z</time></trkpt><trkpt lat="41.25556339896965" lon="14.062279444406117"><ele>191.0</ele><time>2026-04-04T13:00:02Z</time></trkpt><trkpt lat="41.255650291827315" lon="14.062091381463466"><ele>192.0</ele><time>2026-04-04T13:00:03Z</time></trkpt><trkpt lat="41.255730564969504" lon="14.061910989342206"><ele>193.0</ele><time>2026-04-04T13:00:04Z</time></trkpt><trkpt lat="41.25580368398066" lon="14.061751987282001"><ele>194.0</ele><time>2026-04-04T13:00:05Z</time></trkpt><trkpt lat="41.25586265594722" lon="14.061610405076948"><ele>195.0</ele><time>2026-04-04T13:00:06Z</time></trkpt><trkpt lat="41.25592008282781" lon="14.061457202640847"><ele>195.0</ele><time>2026-04-04T13:00:07Z</time></trkpt><trkpt lat="41.25599988053548" lon="14.061315877499979"><ele>195.0</ele><time>2026-04-04T13:00:08Z</time></trkpt><trkpt lat="41.25610563239057" lon="14.06117784883273"><ele>195.0</ele><time>2026-04-04T13:00:09Z</time></trkpt><trkpt lat="41.25623758346505" lon="14.061053748194189"><ele>195.0</ele><time>2026-04-04T13:00:10Z</time></trkpt><trkpt lat="41.25639805595534" lon="14.060933531611372"><ele>196.0</ele><time>2026-04-04T13:00:11Z</time></trkpt><trkpt lat="41.256577208626375" lon="14.06080368201665"><ele>197.0</ele><time>2026-04-04T13:00:12Z</time></trkpt><trkpt lat="41.25676544705482" lon="14.060669425179622"><ele>198.0</ele><time>2026-04-04T13:00:13Z</time></trkpt><trkpt lat="41.256958539852675" lon="14.060526756632877"><ele>197.0</ele><time>2026-04-04T13:00:14Z</time></trkpt><trkpt lat="41.257168495983436" lon="14.060378248177804"><ele>196.0</ele><time>2026-04-04T13:00:15Z</time></trkpt><trkpt lat="41.25737387944728" lon="14.060224215245581"><ele>196.0</ele><time>2026-04-04T13:00:16Z</time></trkpt><trkpt lat="41.25757365382793" lon="14.0600803550189"><ele>196.0</ele><time>2026-04-04T13:00:17Z</time></trkpt><trkpt lat="41.25776488398123" lon="14.059936285987199"><ele>196.0</ele><time>2026-04-04T13:00:18Z</time></trkpt><trkpt lat="41.25796100044008" lon="14.059812196210586"><ele>195.33333333333331</ele><time>2026-04-04T13:00:19Z</time></trkpt><trkpt lat="41.25815918792812" lon="14.059678610772787"><ele>194.66666666666669</ele><time>2026-04-04T13:00:20Z</time></trkpt><trkpt lat="41.25834907878525" lon="14.059527324024293"><ele>194.0</ele><time>2026-04-04T13:00:21Z</time></trkpt><trkpt lat="41.258539840088126" lon="14.059380906313455"><ele>194.0</ele><time>2026-04-04T13:00:22Z</time></trkpt><trkpt lat="41.25873505950831" lon="14.059229991054721"><ele>194.0</ele><time>2026-04-04T13:00:23Z</time></trkpt><trkpt lat="41.25893652870659" lon="14.059082543315725"><ele>194.0</ele><time>2026-04-04T13:00:24Z</time></trkpt><trkpt lat="41.25913227681765" lon="14.058925593849878"><ele>194.0</ele><time>2026-04-04T13:00:25Z</time></trkpt><trkpt lat="41.2593138231604" lon="14.058779904601009"><ele>194.0</ele><time>2026-04-04T13:00:26Z</time></trkpt><trkpt lat="41.25951045030928" lon="14.05865205918767"><ele>194.0</ele><time>2026-04-04T13:00:27Z</time></trkpt><trkpt lat="41.25969847046265" lon="14.0584917413014"><ele>194.0</ele><time>2026-04-04T13:00:28Z</time></trkpt><trkpt lat="41.25988602020511" lon="14.05834784496254"><ele>194.0</ele><time>2026-04-04T13:00:29Z</time></trkpt><trkpt lat="41.26006373277343" lon="14.058235016206154"><ele>193.66666666666669</ele><time>2026-04-04T13:00:30Z</time></trkpt><trkpt lat="41.26021706355027" lon="14.058102911770867"><ele>193.33333333333331</ele><time>2026-04-04T13:00:31Z</time></trkpt><trkpt lat="41.26036921573676" lon="14.057994736056552"><ele>193.0</ele><time>2026-04-04T13:00:32Z</time></trkpt><trkpt lat="41.260505682704554" lon="14.057889205030582"><ele>196.0</ele><time>2026-04-04T13:00:33Z</time></trkpt><trkpt lat="41.26064851931361" lon="14.057784747019419"><ele>199.0</ele><time>2026-04-04T13:00:34Z</time></trkpt><trkpt lat="41.260789158840666" lon="14.057682569691808"><ele>202.0</ele><time>2026-04-04T13:00:35Z</time></trkpt><trkpt lat="41.26092523412146" lon="14.057572963848783"><ele>202.0</ele><time>2026-04-04T13:00:36Z</time></trkpt><trkpt lat="41.26106692666849" lon="14.057471181800793"><ele>202.0</ele><time>2026-04-04T13:00:37Z</time></trkpt><trkpt lat="41.26122706982745" lon="14.057405673987391"><ele>202.0</ele><time>2026-04-04T13:00:38.001Z</time></trkpt><trkpt lat="41.26140687185393" lon="14.057335504267174"><ele>202.0</ele><time>2026-04-04T13:00:39.001Z</time></trkpt><trkpt lat="41.261601141623515" lon="14.057311383543142"><ele>202.0</ele><time>2026-04-04T13:00:40.001Z</time></trkpt><trkpt lat="41.26180194367801" lon="14.057268979360853"><ele>202.0</ele><time>2026-04-04T13:00:41.001Z</time></trkpt><trkpt lat="41.26201837983029" lon="14.057223400193626"><ele>202.0</ele><time>2026-04-04T13:00:42.001Z</time></trkpt><trkpt lat="41.26223561999192" lon="14.057168863758667"><ele>202.0</ele><time>2026-04-04T13:00:43.001Z</time></trkpt><trkpt lat="41.26244163205742" lon="14.05712518955465"><ele>202.0</ele><time>2026-04-04T13:00:44.001Z</time></trkpt><trkpt lat="41.26263068344297" lon="14.057089725423655"><ele>204.25</ele><time>2026-04-04T13:00:45.001Z</time></trkpt><trkpt lat="41.26279244948502" lon="14.057056103735672"><ele>206.5</ele><time>2026-04-04T13:00:46.001Z</time></trkpt><trkpt lat="41.262925617515386" lon="14.057016030347203"><ele>208.75</ele><time>2026-04-04T13:00:47.001Z</time></trkpt><trkpt lat="41.263033792314936" lon="14.056954853660287"><ele>211.0</ele><time>2026-04-04T13:00:48.001Z</time></trkpt><trkpt lat="41.26310138247595" lon="14.056858739359775"><ele>216.0</ele><time>2026-04-04T13:00:49.001Z</time></trkpt><trkpt lat="41.26314120262548" lon="14.056747888472357"><ele>221.0</ele><time>2026-04-04T13:00:50.001Z</time></trkpt><trkpt lat="41.26316237977302" lon="14.056585914368839"><ele>226.0</ele><time>2026-04-04T13:00:51.001Z</time></trkpt><trkpt lat="41.263161332894974" lon="14.05639205991376"><ele>231.0</ele><time>2026-04-04T13:00:52.001Z</time></trkpt><trkpt lat="41.26319309770174" lon="14.056192733940016"><ele>231.5</ele><time>2026-04-04T13:00:53.001Z</time></trkpt><trkpt lat="41.26319919148488" lon="14.055977572427752"><ele>232.0</ele><time>2026-04-04T13:00:54.001Z</time></trkpt><trkpt lat="41.26320358310518" lon="14.055781241023384"><ele>232.5</ele><time>2026-04-04T13:00:55.001Z</time></trkpt><trkpt lat="41.26320936782007" lon="14.055604858311128"><ele>233.0</ele><time>2026-04-04T13:00:56.001Z</time></trkpt><trkpt lat="41.26327876445134" lon="14.055466158064634"><ele>230.5</ele><time>2026-04-04T13:00:57.001Z</time></trkpt><trkpt lat="41.26336548668689" lon="14.05535126524442"><ele>228.0</ele><time>2026-04-04T13:00:58.001Z</time></trkpt><trkpt lat="41.26349581390185" lon="14.055249441721184"><ele>225.5</ele><time>2026-04-04T13:00:59.001Z</time></trkpt><trkpt lat="41.26362843465347" lon="14.055135031788966"><ele>223.0</ele><time>2026-04-04T13:01:00.001Z</time></trkpt><trkpt lat="41.263765819795715" lon="14.05503964849259"><ele>220.33333333333331</ele><time>2026-04-04T13:01:01.001Z</time></trkpt><trkpt lat="41.263878616342886" lon="14.054900274240946"><ele>217.66666666666669</ele><time>2026-04-04T13:01:02.001Z</time></trkpt><trkpt lat="41.26397743419225" lon="14.054732441362352"><ele>215.0</ele><time>2026-04-04T13:01:03.001Z</time></trkpt><trkpt lat="41.26403205056711" lon="14.05454946736957"><ele>222.75</ele><time>2026-04-04T13:01:04.001Z</time></trkpt><trkpt lat="41.26406757978134" lon="14.054379223997834"><ele>230.5</ele><time>2026-04-04T13:01:05.001Z</time></trkpt><trkpt lat="41.26407314372655" lon="14.054210011844534"><ele>238.25</ele><time>2026-04-04T13:01:06.001Z</time></trkpt><trkpt lat="41.26404460808445" lon="14.054037321140948"><ele>246.0</ele><time>2026-04-04T13:01:07.001Z</time></trkpt><trkpt lat="41.263990918462504" lon="14.053862858995386"><ele>247.25</ele><time>2026-04-04T13:01:08.001Z</time></trkpt><trkpt lat="41.263953112487265" lon="14.05371424581539"><ele>248.5</ele><time>2026-04-04T13:01:09.001Z</time></trkpt><trkpt lat="41.26394691735759" lon="14.05354563337261"><ele>249.75</ele><time>2026-04-04T13:01:10.001Z</time></trkpt><trkpt lat="41.26395094735104" lon="14.053351147116944"><ele>251.0</ele><time>2026-04-04T13:01:11.001Z</time></trkpt><trkpt lat="41.26396513082201" lon="14.053183024715358"><ele>248.0</ele><time>2026-04-04T13:01:12.001Z</time></trkpt><trkpt lat="41.26400962292502" lon="14.052998731207591"><ele>245.0</ele><time>2026-04-04T13:01:13.001Z</time></trkpt><trkpt lat="41.264086721861034" lon="14.052857436786768"><ele>242.0</ele><time>2026-04-04T13:01:14.001Z</time></trkpt><trkpt lat="41.2641840423671" lon="14.052728401643252"><ele>239.0</ele><time>2026-04-04T13:01:15.001Z</time></trkpt><trkpt lat="41.264313423300344" lon="14.052644168188337"><ele>239.0</ele><time>2026-04-04T13:01:16.001Z</time></trkpt><trkpt lat="41.26445128822037" lon="14.052566838832798"><ele>239.0</ele><time>2026-04-04T13:01:17.001Z</time></trkpt><trkpt lat="41.264598645536786" lon="14.052491961554441"><ele>239.0</ele><time>2026-04-04T13:01:18.001Z</time></trkpt><trkpt lat="41.264753547842254" lon="14.052387001879342"><ele>243.0</ele><time>2026-04-04T13:01:19.001Z</time></trkpt><trkpt lat="41.26490355291141" lon="14.052240841459458"><ele>247.0</ele><time>2026-04-04T13:01:20.001Z</time></trkpt><trkpt lat="41.26503749672272" lon="14.052076836091372"><ele>251.0</ele><time>2026-04-04T13:01:21.001Z</time></trkpt><trkpt lat="41.26513644238653" lon="14.051943173457174"><ele>251.0</ele><time>2026-04-04T13:01:22.001Z</time></trkpt><trkpt lat="41.26522970501943" lon="14.051808391994028"><ele>251.00000000000003</ele><time>2026-04-04T13:01:23.001Z</time></trkpt><trkpt lat="41.26530291624738" lon="14.051701606691527"><ele>251.00000000000003</ele><time>2026-04-04T13:01:24.002Z</time></trkpt><trkpt lat="41.265353305886826" lon="14.05163283399028"><ele>251.0</ele><time>2026-04-04T13:01:25.002Z</time></trkpt><trkpt lat="41.26545563255525" lon="14.051609900970679"><ele>251.0</ele><time>2026-04-04T13:01:27.002Z</time></trkpt><trkpt lat="41.26549820956651" lon="14.051717610862445"><ele>251.0</ele><time>2026-04-04T13:01:29.002Z</time></trkpt><trkpt lat="41.265445927028" lon="14.051821750210204"><ele>251.00000000000003</ele><time>2026-04-04T13:01:30.002Z</time></trkpt><trkpt lat="41.26539568768149" lon="14.051874495596822"><ele>251.00000000000003</ele><time>2026-04-04T13:01:31.002Z</time></trkpt><trkpt lat="41.26532545549996" lon="14.051931364785734"><ele>251.0</ele><time>2026-04-04T13:01:32.002Z</time></trkpt><trkpt lat="41.26524212487586" lon="14.05203282117727"><ele>251.0</ele><time>2026-04-04T13:01:33.002Z</time></trkpt><trkpt lat="41.265139868996776" lon="14.05214045046129"><ele>251.0</ele><time>2026-04-04T13:01:34.002Z</time></trkpt><trkpt lat="41.26505811498383" lon="14.052265286952535"><ele>251.00000000000003</ele><time>2026-04-04T13:01:35.002Z</time></trkpt><trkpt lat="41.26501118350784" lon="14.05236871238043"><ele>251.00000000000003</ele><time>2026-04-04T13:01:36.002Z</time></trkpt><trkpt lat="41.265006799009505" lon="14.052500155498073"><ele>251.0</ele><time>2026-04-04T13:01:38.002Z</time></trkpt><trkpt lat="41.26505743487415" lon="14.052551464037197"><ele>251.0</ele><time>2026-04-04T13:01:39.002Z</time></trkpt><trkpt lat="41.26518686378325" lon="14.052535236646037"><ele>251.0</ele><time>2026-04-04T13:01:41.002Z</time></trkpt><trkpt lat="41.26525253235169" lon="14.05245282455429"><ele>251.0</ele><time>2026-04-04T13:01:42.002Z</time></trkpt><trkpt lat="41.265368089178736" lon="14.052315846593116"><ele>251.0</ele><time>2026-04-04T13:01:43.002Z</time></trkpt><trkpt lat="41.26544331914155" lon="14.0522055126158"><ele>251.0</ele><time>2026-04-04T13:01:44.002Z</time></trkpt><trkpt lat="41.26556930340198" lon="14.052095488110071"><ele>256.6666666666667</ele><time>2026-04-04T13:01:45.002Z</time></trkpt><trkpt lat="41.26569205564818" lon="14.051961614321874"><ele>262.3333333333333</ele><time>2026-04-04T13:01:46.002Z</time></trkpt><trkpt lat="41.265809107656914" lon="14.051811157314965"><ele>268.0</ele><time>2026-04-04T13:01:47.002Z</time></trkpt><trkpt lat="41.26591494755434" lon="14.051665958617614"><ele>267.66666666666663</ele><time>2026-04-04T13:01:48.002Z</time></trkpt><trkpt lat="41.26602178004904" lon="14.051531621611616"><ele>267.3333333333333</ele><time>2026-04-04T13:01:49.002Z</time></trkpt><trkpt lat="41.26613423426632" lon="14.051379436718195"><ele>267.0</ele><time>2026-04-04T13:01:50.002Z</time></trkpt><trkpt lat="41.266219920006826" lon="14.051194352339492"><ele>267.0</ele><time>2026-04-04T13:01:51.002Z</time></trkpt><trkpt lat="41.26630181842608" lon="14.050970585667677"><ele>267.0</ele><time>2026-04-04T13:01:52.002Z</time></trkpt><trkpt lat="41.266373447017536" lon="14.050720465890203"><ele>267.0</ele><time>2026-04-04T13:01:53.002Z</time></trkpt><trkpt lat="41.26643959929642" lon="14.050472172506394"><ele>268.3333333333333</ele><time>2026-04-04T13:01:54.002Z</time></trkpt><trkpt lat="41.266512011483734" lon="14.050214724966052"><ele>269.66666666666663</ele><time>2026-04-04T13:01:55.002Z</time></trkpt><trkpt lat="41.26660390541924" lon="14.049964373144466"><ele>271.0</ele><time>2026-04-04T13:01:56.002Z</time></trkpt><trkpt lat="41.266675467044436" lon="14.04972594800136"><ele>272.0</ele><time>2026-04-04T13:01:57.002Z</time></trkpt><trkpt lat="41.266749388208524" lon="14.049501488352842"><ele>273.0</ele><time>2026-04-04T13:01:58.002Z</time></trkpt><trkpt lat="41.26683793420229" lon="14.049280710282513"><ele>274.0</ele><time>2026-04-04T13:01:59.002Z</time></trkpt><trkpt lat="41.266927127420246" lon="14.049041743660483"><ele>274.0</ele><time>2026-04-04T13:02:00.002Z</time></trkpt><trkpt lat="41.2670526848688" lon="14.048818838282747"><ele>274.0</ele><time>2026-04-04T13:02:01.002Z</time></trkpt><trkpt lat="41.26717706364688" lon="14.048592002455162"><ele>274.0</ele><time>2026-04-04T13:02:02.002Z</time></trkpt><trkpt lat="41.26730312672369" lon="14.048363397060834"><ele>279.0</ele><time>2026-04-04T13:02:03.002Z</time></trkpt><trkpt lat="41.267415918182664" lon="14.048157566134666"><ele>284.0</ele><time>2026-04-04T13:02:04.002Z</time></trkpt><trkpt lat="41.26751564733332" lon="14.047978922995268"><ele>289.0</ele><time>2026-04-04T13:02:05Z</time></trkpt><trkpt lat="41.267598735144205" lon="14.047827545627207"><ele>289.0</ele><time>2026-04-04T13:02:06Z</time></trkpt><trkpt lat="41.26766049855045" lon="14.047639918921805"><ele>289.0</ele><time>2026-04-04T13:02:07Z</time></trkpt><trkpt lat="41.26771220681417" lon="14.047423283491968"><ele>289.0</ele><time>2026-04-04T13:02:08Z</time></trkpt><trkpt lat="41.26774642242461" lon="14.047168977480695"><ele>288.66666666666663</ele><time>2026-04-04T13:02:09Z</time></trkpt><trkpt lat="41.267772772305435" lon="14.046896642110047"><ele>288.3333333333333</ele><time>2026-04-04T13:02:10Z</time></trkpt><trkpt lat="41.26778745133502" lon="14.046602255593612"><ele>288.0</ele><time>2026-04-04T13:02:11Z</time></trkpt><trkpt lat="41.26780357431694" lon="14.046302392975376"><ele>288.6666666666667</ele><time>2026-04-04T13:02:12Z</time></trkpt><trkpt lat="41.26782628034067" lon="14.046022964299317"><ele>289.33333333333337</ele><time>2026-04-04T13:02:13Z</time></trkpt><trkpt lat="41.26785365396162" lon="14.045748815432445"><ele>290.0</ele><time>2026-04-04T13:02:14Z</time></trkpt><trkpt lat="41.26788323472206" lon="14.045481527203671"><ele>291.6666666666667</ele><time>2026-04-04T13:02:15Z</time></trkpt><trkpt lat="41.26791817181124" lon="14.04523453715426"><ele>293.3333333333333</ele><time>2026-04-04T13:02:16Z</time></trkpt><trkpt lat="41.26795643683746" lon="14.045009542601534"><ele>295.0</ele><time>2026-04-04T13:02:17Z</time></trkpt><trkpt lat="41.26800750592538" lon="14.044783635391584"><ele>294.0</ele><time>2026-04-04T13:02:18Z</time></trkpt><trkpt lat="41.26807848345465" lon="14.044558803724394"><ele>293.0</ele><time>2026-04-04T13:02:19Z</time></trkpt><trkpt lat="41.26814631377643" lon="14.044327516833162"><ele>292.0</ele><time>2026-04-04T13:02:20Z</time></trkpt><trkpt lat="41.268210451134166" lon="14.044097815733616"><ele>295.0</ele><time>2026-04-04T13:02:21Z</time></trkpt><trkpt lat="41.268272667230065" lon="14.043874588978747"><ele>298.0</ele><time>2026-04-04T13:02:22Z</time></trkpt><trkpt lat="41.26833619603238" lon="14.043651134749643"><ele>301.0</ele><time>2026-04-04T13:02:23Z</time></trkpt><trkpt lat="41.268395328221466" lon="14.04342889864351"><ele>304.0</ele><time>2026-04-04T13:02:24Z</time></trkpt><trkpt lat="41.26845303546656" lon="14.043206956681772"><ele>307.0</ele><time>2026-04-04T13:02:25Z</time></trkpt><trkpt lat="41.26851567504603" lon="14.042990315993663"><ele>310.0</ele><time>2026-04-04T13:02:26Z</time></trkpt><trkpt lat="41.268560238999115" lon="14.042762549534562"><ele>310.0</ele><time>2026-04-04T13:02:27Z</time></trkpt><trkpt lat="41.268644188561" lon="14.04254983119304"><ele>310.0</ele><time>2026-04-04T13:02:28Z</time></trkpt><trkpt lat="41.26872493470999" lon="14.042334683124263"><ele>310.0</ele><time>2026-04-04T13:02:29Z</time></trkpt><trkpt lat="41.268814679555874" lon="14.042108192673156"><ele>308.66666666666663</ele><time>2026-04-04T13:02:30Z</time></trkpt><trkpt lat="41.26889704500565" lon="14.04187417162684"><ele>307.3333333333333</ele><time>2026-04-04T13:02:31Z</time></trkpt><trkpt lat="41.26900073145819" lon="14.04165060486298"><ele>306.0</ele><time>2026-04-04T13:02:32Z</time></trkpt><trkpt lat="41.26907031475476" lon="14.04142133451004"><ele>306.0</ele><time>2026-04-04T13:02:33Z</time></trkpt><trkpt lat="41.26912023015236" lon="14.041201629045249"><ele>306.0</ele><time>2026-04-04T13:02:34Z</time></trkpt><trkpt lat="41.26913481983138" lon="14.040959589745198"><ele>306.0</ele><time>2026-04-04T13:02:35Z</time></trkpt><trkpt lat="41.26915418529155" lon="14.040702507153735"><ele>307.3333333333333</ele><time>2026-04-04T13:02:36Z</time></trkpt><trkpt lat="41.26914360411849" lon="14.040420391373189"><ele>308.66666666666663</ele><time>2026-04-04T13:02:37Z</time></trkpt><trkpt lat="41.26912906230513" lon="14.040120688866596"><ele>310.0</ele><time>2026-04-04T13:02:38Z</time></trkpt><trkpt lat="41.269104951043" lon="14.039813326294807"><ele>311.0</ele><time>2026-04-04T13:02:39.001Z</time></trkpt><trkpt lat="41.269100763626476" lon="14.039521952648803"><ele>312.0</ele><time>2026-04-04T13:02:40.001Z</time></trkpt><trkpt lat="41.26909599095614" lon="14.03925133035947"><ele>313.0</ele><time>2026-04-04T13:02:41.001Z</time></trkpt><trkpt lat="41.26909094086169" lon="14.038989374013319"><ele>313.3333333333333</ele><time>2026-04-04T13:02:42.001Z</time></trkpt><trkpt lat="41.269090972531004" lon="14.038736522234174"><ele>313.6666666666667</ele><time>2026-04-04T13:02:43.001Z</time></trkpt><trkpt lat="41.26908679860135" lon="14.038511263381439"><ele>314.0</ele><time>2026-04-04T13:02:44.001Z</time></trkpt><trkpt lat="41.26908733624208" lon="14.038314250374652"><ele>315.25</ele><time>2026-04-04T13:02:45.001Z</time></trkpt><trkpt lat="41.2690989768893" lon="14.038141853092068"><ele>316.5</ele><time>2026-04-04T13:02:46.001Z</time></trkpt><trkpt lat="41.2691299111091" lon="14.037990879163779"><ele>317.75</ele><time>2026-04-04T13:02:47.001Z</time></trkpt><trkpt lat="41.26920174819938" lon="14.03785204185982"><ele>319.0</ele><time>2026-04-04T13:02:48.001Z</time></trkpt><trkpt lat="41.26930522476963" lon="14.037728722615945"><ele>319.0</ele><time>2026-04-04T13:02:49.001Z</time></trkpt><trkpt lat="41.26943544050425" lon="14.037616073365843"><ele>319.0</ele><time>2026-04-04T13:02:50.001Z</time></trkpt><trkpt lat="41.26958272215717" lon="14.037515422445281"><ele>319.0</ele><time>2026-04-04T13:02:51.001Z</time></trkpt><trkpt lat="41.26973082646529" lon="14.03740206085554"><ele>321.25</ele><time>2026-04-04T13:02:52.001Z</time></trkpt><trkpt lat="41.2698525974554" lon="14.037302382812456"><ele>323.5</ele><time>2026-04-04T13:02:53.001Z</time></trkpt><trkpt lat="41.269963368737926" lon="14.03719451746842"><ele>325.75</ele><time>2026-04-04T13:02:54.001Z</time></trkpt><trkpt lat="41.270062247561604" lon="14.037063265210953"><ele>328.0</ele><time>2026-04-04T13:02:55.001Z</time></trkpt><trkpt lat="41.27013558807626" lon="14.036903519231716"><ele>328.0</ele><time>2026-04-04T13:02:56.001Z</time></trkpt><trkpt lat="41.27018363499886" lon="14.036709067039956"><ele>328.0</ele><time>2026-04-04T13:02:57.001Z</time></trkpt><trkpt lat="41.27020434161774" lon="14.03649285260561"><ele>328.0</ele><time>2026-04-04T13:02:58.001Z</time></trkpt><trkpt lat="41.27021323043258" lon="14.036260693498347"><ele>330.66666666666663</ele><time>2026-04-04T13:02:59.001Z</time></trkpt><trkpt lat="41.270230895254635" lon="14.03602347502352"><ele>333.3333333333333</ele><time>2026-04-04T13:03:00.001Z</time></trkpt><trkpt lat="41.27027689823459" lon="14.035794485059961"><ele>336.0</ele><time>2026-04-04T13:03:01.001Z</time></trkpt><trkpt lat="41.270328491954324" lon="14.03557583077365"><ele>338.3333333333333</ele><time>2026-04-04T13:03:02.001Z</time></trkpt><trkpt lat="41.27035671991341" lon="14.03535283873281"><ele>340.66666666666663</ele><time>2026-04-04T13:03:03.001Z</time></trkpt><trkpt lat="41.27035549139982" lon="14.035110135502846"><ele>343.0</ele><time>2026-04-04T13:03:04.001Z</time></trkpt><trkpt lat="41.2703344777095" lon="14.034856803259467"><ele>344.0</ele><time>2026-04-04T13:03:05.001Z</time></trkpt><trkpt lat="41.27030484167333" lon="14.034594436831835"><ele>345.0</ele><time>2026-04-04T13:03:06.001Z</time></trkpt><trkpt lat="41.270282327671424" lon="14.034321703532045"><ele>346.0</ele><time>2026-04-04T13:03:07.001Z</time></trkpt><trkpt lat="41.27026737519943" lon="14.034045979953774"><ele>346.3333333333333</ele><time>2026-04-04T13:03:08.001Z</time></trkpt><trkpt lat="41.270256290092526" lon="14.033764971435891"><ele>346.6666666666667</ele><time>2026-04-04T13:03:09.001Z</time></trkpt><trkpt lat="41.270241097230596" lon="14.03352169342209"><ele>347.0</ele><time>2026-04-04T13:03:10.001Z</time></trkpt><trkpt lat="41.270223998295705" lon="14.03329929216412"><ele>348.0</ele><time>2026-04-04T13:03:11.001Z</time></trkpt><trkpt lat="41.270209583064485" lon="14.033097783282868"><ele>349.0</ele><time>2026-04-04T13:03:12.001Z</time></trkpt><trkpt lat="41.270195154569194" lon="14.032927694171242"><ele>350.0</ele><time>2026-04-04T13:03:13.001Z</time></trkpt><trkpt lat="41.270195616170895" lon="14.03278041950049"><ele>351.0</ele><time>2026-04-04T13:03:14.001Z</time></trkpt><trkpt lat="41.270234470302675" lon="14.032640609133983"><ele>351.0</ele><time>2026-04-04T13:03:15.001Z</time></trkpt><trkpt lat="41.27031722604955" lon="14.032504491448352"><ele>351.0</ele><time>2026-04-04T13:03:16.001Z</time></trkpt><trkpt lat="41.270423774765035" lon="14.032371033559649"><ele>351.0</ele><time>2026-04-04T13:03:17.001Z</time></trkpt><trkpt lat="41.2705341513071" lon="14.032224444356542"><ele>351.0</ele><time>2026-04-04T13:03:18.001Z</time></trkpt><trkpt lat="41.27064463483244" lon="14.032034439425754"><ele>351.0</ele><time>2026-04-04T13:03:19.001Z</time></trkpt><trkpt lat="41.27073592100759" lon="14.031820661640978"><ele>351.0</ele><time>2026-04-04T13:03:20.001Z</time></trkpt><trkpt lat="41.270819131527375" lon="14.031581634661443"><ele>351.0</ele><time>2026-04-04T13:03:21.001Z</time></trkpt><trkpt lat="41.27090515394192" lon="14.031344811772508"><ele>353.6666666666667</ele><time>2026-04-04T13:03:22.001Z</time></trkpt><trkpt lat="41.27099629702869" lon="14.031115569340281"><ele>356.33333333333337</ele><time>2026-04-04T13:03:23.001Z</time></trkpt><trkpt lat="41.2710789797876" lon="14.030911615088947"><ele>359.0</ele><time>2026-04-04T13:03:24.001Z</time></trkpt><trkpt lat="41.27115216715269" lon="14.030727796673212"><ele>360.25</ele><time>2026-04-04T13:03:25.001Z</time></trkpt><trkpt lat="41.27122344238148" lon="14.03056220071813"><ele>361.5</ele><time>2026-04-04T13:03:26.001Z</time></trkpt><trkpt lat="41.27128120020071" lon="14.030406075615627"><ele>362.75</ele><time>2026-04-04T13:03:27.001Z</time></trkpt><trkpt lat="41.27131421933067" lon="14.030258690045809"><ele>364.0</ele><time>2026-04-04T13:03:28.002Z</time></trkpt><trkpt lat="41.27131955565608" lon="14.030114024372361"><ele>364.0</ele><time>2026-04-04T13:03:29.002Z</time></trkpt><trkpt lat="41.27128992889003" lon="14.02994821815405"><ele>364.0</ele><time>2026-04-04T13:03:30.002Z</time></trkpt><trkpt lat="41.271218372493884" lon="14.029774716889454"><ele>364.0</ele><time>2026-04-04T13:03:31.002Z</time></trkpt><trkpt lat="41.271132341815516" lon="14.029598812246178"><ele>364.0</ele><time>2026-04-04T13:03:32.002Z</time></trkpt><trkpt lat="41.271027385297494" lon="14.029406031342173"><ele>364.0</ele><time>2026-04-04T13:03:33.002Z</time></trkpt><trkpt lat="41.270917145044656" lon="14.029188720965864"><ele>364.0</ele><time>2026-04-04T13:03:34.002Z</time></trkpt><trkpt lat="41.27082221923606" lon="14.028992918555375"><ele>364.0</ele><time>2026-04-04T13:03:35.002Z</time></trkpt><trkpt lat="41.27072308593482" lon="14.028816401897535"><ele>364.5</ele><time>2026-04-04T13:03:36.002Z</time></trkpt><trkpt lat="41.27063921633305" lon="14.028648839279084"><ele>365.0</ele><time>2026-04-04T13:03:37.002Z</time></trkpt><trkpt lat="41.270565118309094" lon="14.0284951418183"><ele>365.5</ele><time>2026-04-04T13:03:38.002Z</time></trkpt><trkpt lat="41.270505309775025" lon="14.028348408048949"><ele>366.0</ele><time>2026-04-04T13:03:39.002Z</time></trkpt><trkpt lat="41.27048943442471" lon="14.028205406265005"><ele>368.25</ele><time>2026-04-04T13:03:40.002Z</time></trkpt><trkpt lat="41.27050405818477" lon="14.028061512889224"><ele>370.5</ele><time>2026-04-04T13:03:41.002Z</time></trkpt><trkpt lat="41.270554501337905" lon="14.027935602760689"><ele>372.75</ele><time>2026-04-04T13:03:42.002Z</time></trkpt><trkpt lat="41.27063048776877" lon="14.027821417956533"><ele>375.0</ele><time>2026-04-04T13:03:43.002Z</time></trkpt><trkpt lat="41.27074257277646" lon="14.02773706081981"><ele>375.0</ele><time>2026-04-04T13:03:44.002Z</time></trkpt><trkpt lat="41.270878668969495" lon="14.02768045309526"><ele>375.0</ele><time>2026-04-04T13:03:45.002Z</time></trkpt><trkpt lat="41.271016217542176" lon="14.027627900863505"><ele>375.0</ele><time>2026-04-04T13:03:46.002Z</time></trkpt><trkpt lat="41.27112484226217" lon="14.027568372529025"><ele>375.0</ele><time>2026-04-04T13:03:47.002Z</time></trkpt><trkpt lat="41.271221403452316" lon="14.027492203832203"><ele>376.2</ele><time>2026-04-04T13:03:48.002Z</time></trkpt><trkpt lat="41.271279579073095" lon="14.027398027234115"><ele>377.4</ele><time>2026-04-04T13:03:49.002Z</time></trkpt><trkpt lat="41.271297501249954" lon="14.02728430068533"><ele>378.6</ele><time>2026-04-04T13:03:50.002Z</time></trkpt><trkpt lat="41.27128581243658" lon="14.027161378533918"><ele>379.8</ele><time>2026-04-04T13:03:51.002Z</time></trkpt><trkpt lat="41.271233638735495" lon="14.027025257586759"><ele>381.0</ele><time>2026-04-04T13:03:52.002Z</time></trkpt><trkpt lat="41.271154233778304" lon="14.026901453321084"><ele>381.0</ele><time>2026-04-04T13:03:53.002Z</time></trkpt><trkpt lat="41.27102977129328" lon="14.026801149170957"><ele>381.0</ele><time>2026-04-04T13:03:54.002Z</time></trkpt><trkpt lat="41.27088566100222" lon="14.026718200079557"><ele>381.0</ele><time>2026-04-04T13:03:55.002Z</time></trkpt><trkpt lat="41.2707043560454" lon="14.026652064115899"><ele>384.25</ele><time>2026-04-04T13:03:56.002Z</time></trkpt><trkpt lat="41.27056619697395" lon="14.026582458042757"><ele>387.5</ele><time>2026-04-04T13:03:57.002Z</time></trkpt><trkpt lat="41.27044266703061" lon="14.026502606986272"><ele>390.75</ele><time>2026-04-04T13:03:58.002Z</time></trkpt><trkpt lat="41.27035815668207" lon="14.026394471151702"><ele>394.0</ele><time>2026-04-04T13:03:59.002Z</time></trkpt><trkpt lat="41.270306146070205" lon="14.02626875135994"><ele>394.0</ele><time>2026-04-04T13:04:00.002Z</time></trkpt><trkpt lat="41.27029117690198" lon="14.026139415006783"><ele>394.0</ele><time>2026-04-04T13:04:01.002Z</time></trkpt><trkpt lat="41.27031929458991" lon="14.02600063347079"><ele>394.0</ele><time>2026-04-04T13:04:02.002Z</time></trkpt><trkpt lat="41.27038430954529" lon="14.02586813988197"><ele>394.0</ele><time>2026-04-04T13:04:03.002Z</time></trkpt><trkpt lat="41.27048433961774" lon="14.025746617017568"><ele>394.75</ele><time>2026-04-04T13:04:04.002Z</time></trkpt><trkpt lat="41.27060387174655" lon="14.0256492443943"><ele>395.5</ele><time>2026-04-04T13:04:05.002Z</time></trkpt><trkpt lat="41.27069832414664" lon="14.025546338447969"><ele>396.25</ele><time>2026-04-04T13:04:06.002Z</time></trkpt><trkpt lat="41.27075962112699" lon="14.025415935687468"><ele>397.0</ele><time>2026-04-04T13:04:07.002Z</time></trkpt><trkpt lat="41.27079184237747" lon="14.02527810349294"><ele>394.40000000000003</ele><time>2026-04-04T13:04:08.002Z</time></trkpt><trkpt lat="41.2708029960507" lon="14.025151268068154"><ele>391.8</ele><time>2026-04-04T13:04:09.002Z</time></trkpt><trkpt lat="41.27079640602668" lon="14.025041140389279"><ele>389.2</ele><time>2026-04-04T13:04:10.002Z</time></trkpt><trkpt lat="41.27077220538674" lon="14.024937492874756"><ele>386.6</ele><time>2026-04-04T13:04:11Z</time></trkpt><trkpt lat="41.270723093086296" lon="14.02481462834972"><ele>384.0</ele><time>2026-04-04T13:04:12Z</time></trkpt><trkpt lat="41.270668146781865" lon="14.024673536166423"><ele>383.79999999999995</ele><time>2026-04-04T13:04:13Z</time></trkpt><trkpt lat="41.270619122148595" lon="14.024542433745273"><ele>383.59999999999997</ele><time>2026-04-04T13:04:14Z</time></trkpt><trkpt lat="41.27059698967468" lon="14.024428982107937"><ele>383.4</ele><time>2026-04-04T13:04:15Z</time></trkpt><trkpt lat="41.27059989796612" lon="14.024331697453077"><ele>383.2</ele><time>2026-04-04T13:04:16Z</time></trkpt><trkpt lat="41.270626414228346" lon="14.024228886037024"><ele>383.0</ele><time>2026-04-04T13:04:17Z</time></trkpt><trkpt lat="41.27070185255051" lon="14.024102217915503"><ele>384.33333333333337</ele><time>2026-04-04T13:04:18Z</time></trkpt><trkpt lat="41.27080065991331" lon="14.023948934686702"><ele>385.6666666666667</ele><time>2026-04-04T13:04:19Z</time></trkpt><trkpt lat="41.27090757474845" lon="14.023777846770843"><ele>387.0</ele><time>2026-04-04T13:04:20Z</time></trkpt><trkpt lat="41.27102562107249" lon="14.023589663689501"><ele>387.0</ele><time>2026-04-04T13:04:21Z</time></trkpt><trkpt lat="41.27114387450905" lon="14.023390880373006"><ele>387.0</ele><time>2026-04-04T13:04:22Z</time></trkpt><trkpt lat="41.27124902757518" lon="14.023208276995197"><ele>387.0</ele><time>2026-04-04T13:04:23Z</time></trkpt><trkpt lat="41.27135735124576" lon="14.023039978203997"><ele>385.3333333333333</ele><time>2026-04-04T13:04:24Z</time></trkpt><trkpt lat="41.271465966396676" lon="14.02287763779074"><ele>383.66666666666663</ele><time>2026-04-04T13:04:25Z</time></trkpt><trkpt lat="41.27155743427078" lon="14.022698685952065"><ele>382.0</ele><time>2026-04-04T13:04:26Z</time></trkpt><trkpt lat="41.27162618393626" lon="14.022502040974361"><ele>381.0</ele><time>2026-04-04T13:04:27Z</time></trkpt><trkpt lat="41.271677080526" lon="14.022283607629523"><ele>380.0</ele><time>2026-04-04T13:04:28Z</time></trkpt><trkpt lat="41.27171723777018" lon="14.02206407177285"><ele>379.0</ele><time>2026-04-04T13:04:29Z</time></trkpt><trkpt lat="41.2717648883773" lon="14.021849576834361"><ele>379.3333333333333</ele><time>2026-04-04T13:04:30Z</time></trkpt><trkpt lat="41.271815742786295" lon="14.021631370187444"><ele>379.6666666666667</ele><time>2026-04-04T13:04:31Z</time></trkpt><trkpt lat="41.27186216055434" lon="14.021412900116925"><ele>380.0</ele><time>2026-04-04T13:04:32Z</time></trkpt><trkpt lat="41.27191045642828" lon="14.021197993740811"><ele>380.0</ele><time>2026-04-04T13:04:33Z</time></trkpt><trkpt lat="41.27196022648899" lon="14.020987575707165"><ele>380.0</ele><time>2026-04-04T13:04:34Z</time></trkpt><trkpt lat="41.27200354761186" lon="14.020772138957943"><ele>380.0</ele><time>2026-04-04T13:04:35Z</time></trkpt><trkpt lat="41.2720433434904" lon="14.020562985592868"><ele>380.6666666666667</ele><time>2026-04-04T13:04:36Z</time></trkpt><trkpt lat="41.27209262772032" lon="14.02035612903401"><ele>381.3333333333333</ele><time>2026-04-04T13:04:37.001Z</time></trkpt><trkpt lat="41.27214649989874" lon="14.020152497192736"><ele>382.0</ele><time>2026-04-04T13:04:38.001Z</time></trkpt><trkpt lat="41.27221276722516" lon="14.019944365401326"><ele>381.3333333333333</ele><time>2026-04-04T13:04:39.001Z</time></trkpt><trkpt lat="41.27231088156661" lon="14.01973318996506"><ele>380.6666666666667</ele><time>2026-04-04T13:04:40.001Z</time></trkpt><trkpt lat="41.27240849820518" lon="14.019542569457654"><ele>380.0</ele><time>2026-04-04T13:04:41.001Z</time></trkpt><trkpt lat="41.27249391358213" lon="14.019336456057047"><ele>380.6666666666667</ele><time>2026-04-04T13:04:42.001Z</time></trkpt><trkpt lat="41.27257496424395" lon="14.019130771041047"><ele>381.3333333333333</ele><time>2026-04-04T13:04:43.001Z</time></trkpt><trkpt lat="41.2726543230089" lon="14.018925827151353"><ele>382.0</ele><time>2026-04-04T13:04:44.001Z</time></trkpt><trkpt lat="41.272743908846536" lon="14.018734120832468"><ele>382.0</ele><time>2026-04-04T13:04:45.001Z</time></trkpt><trkpt lat="41.272821455547835" lon="14.018542429239327"><ele>382.0</ele><time>2026-04-04T13:04:46.001Z</time></trkpt><trkpt lat="41.27290674230928" lon="14.018345537143555"><ele>382.0</ele><time>2026-04-04T13:04:47.001Z</time></trkpt><trkpt lat="41.27299675926762" lon="14.018151843085855"><ele>383.66666666666663</ele><time>2026-04-04T13:04:48.001Z</time></trkpt><trkpt lat="41.273080928160894" lon="14.017958080880565"><ele>385.3333333333333</ele><time>2026-04-04T13:04:49.001Z</time></trkpt><trkpt lat="41.27315941683617" lon="14.01775604382418"><ele>387.0</ele><time>2026-04-04T13:04:50.001Z</time></trkpt><trkpt lat="41.27322924675757" lon="14.0175456832639"><ele>389.66666666666663</ele><time>2026-04-04T13:04:51.001Z</time></trkpt><trkpt lat="41.27329671204011" lon="14.017338385143894"><ele>392.3333333333333</ele><time>2026-04-04T13:04:52.001Z</time></trkpt><trkpt lat="41.27335411336204" lon="14.017154933140851"><ele>395.0</ele><time>2026-04-04T13:04:53.001Z</time></trkpt><trkpt lat="41.27340774961298" lon="14.01698698510205"><ele>395.0</ele><time>2026-04-04T13:04:54.001Z</time></trkpt><trkpt lat="41.273457260949144" lon="14.016824729272239"><ele>395.0</ele><time>2026-04-04T13:04:55.001Z</time></trkpt><trkpt lat="41.27350849853502" lon="14.016669444845938"><ele>395.0</ele><time>2026-04-04T13:04:56.001Z</time></trkpt><trkpt lat="41.27356261542959" lon="14.016512235418036"><ele>395.0</ele><time>2026-04-04T13:04:57.001Z</time></trkpt><trkpt lat="41.27361732023524" lon="14.01635018510536"><ele>397.0</ele><time>2026-04-04T13:04:58.001Z</time></trkpt><trkpt lat="41.27366534915945" lon="14.016192639596358"><ele>399.0</ele><time>2026-04-04T13:04:59.001Z</time></trkpt><trkpt lat="41.273710769448776" lon="14.016038205407588"><ele>401.0</ele><time>2026-04-04T13:05:00.001Z</time></trkpt><trkpt lat="41.273758606814" lon="14.01588465517445"><ele>403.0</ele><time>2026-04-04T13:05:01.001Z</time></trkpt><trkpt lat="41.273810813960274" lon="14.015732298573651"><ele>403.4</ele><time>2026-04-04T13:05:02.001Z</time></trkpt><trkpt lat="41.27385742947093" lon="14.015581978203663"><ele>403.79999999999995</ele><time>2026-04-04T13:05:03.001Z</time></trkpt><trkpt lat="41.27389469508202" lon="14.015463999379113"><ele>404.2</ele><time>2026-04-04T13:05:04.001Z</time></trkpt><trkpt lat="41.27392862953772" lon="14.015355205024123"><ele>404.6</ele><time>2026-04-04T13:05:05.001Z</time></trkpt><trkpt lat="41.273972449806195" lon="14.015239402705879"><ele>405.0</ele><time>2026-04-04T13:05:06.001Z</time></trkpt><trkpt lat="41.27402128518216" lon="14.015105754644312"><ele>402.0</ele><time>2026-04-04T13:05:07.001Z</time></trkpt><trkpt lat="41.27408148959659" lon="14.014962194947115"><ele>399.0</ele><time>2026-04-04T13:05:08.001Z</time></trkpt><trkpt lat="41.27417298142185" lon="14.014805416144283"><ele>396.0</ele><time>2026-04-04T13:05:09.001Z</time></trkpt><trkpt lat="41.27426635934003" lon="14.01464344106311"><ele>393.0</ele><time>2026-04-04T13:05:10.001Z</time></trkpt><trkpt lat="41.27436639846064" lon="14.014483472145814"><ele>393.0</ele><time>2026-04-04T13:05:11.001Z</time></trkpt><trkpt lat="41.27445680635679" lon="14.014336419472437"><ele>393.0</ele><time>2026-04-04T13:05:12.001Z</time></trkpt><trkpt lat="41.27453297280923" lon="14.01421619682023"><ele>393.0</ele><time>2026-04-04T13:05:13.001Z</time></trkpt><trkpt lat="41.274606247085" lon="14.01409684135114"><ele>393.0</ele><time>2026-04-04T13:05:14.001Z</time></trkpt><trkpt lat="41.27468010004122" lon="14.01397315996563"><ele>392.75</ele><time>2026-04-04T13:05:15.001Z</time></trkpt><trkpt lat="41.27475808874876" lon="14.01385015774553"><ele>392.5</ele><time>2026-04-04T13:05:16.001Z</time></trkpt><trkpt lat="41.27483443863406" lon="14.01372738949208"><ele>392.25</ele><time>2026-04-04T13:05:17.001Z</time></trkpt><trkpt lat="41.274915595777586" lon="14.01358988077123"><ele>392.0</ele><time>2026-04-04T13:05:18.001Z</time></trkpt><trkpt lat="41.274989198321656" lon="14.013438311486736"><ele>393.5</ele><time>2026-04-04T13:05:19.001Z</time></trkpt><trkpt lat="41.27505376985206" lon="14.013278456846605"><ele>395.0</ele><time>2026-04-04T13:05:20.001Z</time></trkpt><trkpt lat="41.275105761399324" lon="14.013106906405769"><ele>396.5</ele><time>2026-04-04T13:05:21.001Z</time></trkpt><trkpt lat="41.27513546595565" lon="14.01291178044446"><ele>398.0</ele><time>2026-04-04T13:05:22.001Z</time></trkpt><trkpt lat="41.2751552148366" lon="14.012702211134906"><ele>397.3333333333333</ele><time>2026-04-04T13:05:23.001Z</time></trkpt><trkpt lat="41.27516653197632" lon="14.012483468470986"><ele>396.66666666666663</ele><time>2026-04-04T13:05:24.001Z</time></trkpt><trkpt lat="41.275173482940566" lon="14.012237712746213"><ele>396.0</ele><time>2026-04-04T13:05:25.001Z</time></trkpt><trkpt lat="41.275177440326495" lon="14.011968099338263"><ele>396.0</ele><time>2026-04-04T13:05:26.001Z</time></trkpt><trkpt lat="41.275209297805524" lon="14.011686616950149"><ele>396.0</ele><time>2026-04-04T13:05:27.001Z</time></trkpt><trkpt lat="41.27524504093036" lon="14.011387845268654"><ele>396.0</ele><time>2026-04-04T13:05:28.001Z</time></trkpt><trkpt lat="41.27527731259431" lon="14.011079278226541"><ele>402.33333333333337</ele><time>2026-04-04T13:05:29.002Z</time></trkpt><trkpt lat="41.27529648847287" lon="14.010774919027032"><ele>408.6666666666667</ele><time>2026-04-04T13:05:30.002Z</time></trkpt><trkpt lat="41.27530624621761" lon="14.010505210339181"><ele>415.0</ele><time>2026-04-04T13:05:31.002Z</time></trkpt><trkpt lat="41.27531745981415" lon="14.010251894136674"><ele>415.0</ele><time>2026-04-04T13:05:32.002Z</time></trkpt><trkpt lat="41.27532343653536" lon="14.01000459766693"><ele>415.0</ele><time>2026-04-04T13:05:33.002Z</time></trkpt><trkpt lat="41.275298629816625" lon="14.009757181735427"><ele>415.0</ele><time>2026-04-04T13:05:34.002Z</time></trkpt><trkpt lat="41.27524318155208" lon="14.009500072608366"><ele>414.5</ele><time>2026-04-04T13:05:35.002Z</time></trkpt><trkpt lat="41.27515926951794" lon="14.009232879838928"><ele>414.0</ele><time>2026-04-04T13:05:36.002Z</time></trkpt><trkpt lat="41.27507705383759" lon="14.008940189996997"><ele>412.0</ele><time>2026-04-04T13:05:37.002Z</time></trkpt><trkpt lat="41.27499734231985" lon="14.008642149870743"><ele>410.0</ele><time>2026-04-04T13:05:38.002Z</time></trkpt><trkpt lat="41.27492141091396" lon="14.008356743899528"><ele>409.0</ele><time>2026-04-04T13:05:39.002Z</time></trkpt><trkpt lat="41.27484974762216" lon="14.008100462874344"><ele>408.0</ele><time>2026-04-04T13:05:40.002Z</time></trkpt><trkpt lat="41.27478518326859" lon="14.007849628540296"><ele>407.0</ele><time>2026-04-04T13:05:41.002Z</time></trkpt><trkpt lat="41.27470668771677" lon="14.007614225676521"><ele>413.0</ele><time>2026-04-04T13:05:42.002Z</time></trkpt><trkpt lat="41.27461629375933" lon="14.007381205243336"><ele>419.0</ele><time>2026-04-04T13:05:43.002Z</time></trkpt><trkpt lat="41.27451758349282" lon="14.007159165114338"><ele>425.0</ele><time>2026-04-04T13:05:44.002Z</time></trkpt><trkpt lat="41.27441822620354" lon="14.006928271584025"><ele>425.0</ele><time>2026-04-04T13:05:45.002Z</time></trkpt><trkpt lat="41.274300196831625" lon="14.006703983358552"><ele>425.0</ele><time>2026-04-04T13:05:46.002Z</time></trkpt><trkpt lat="41.27416004113671" lon="14.006496004249012"><ele>425.0</ele><time>2026-04-04T13:05:47.002Z</time></trkpt><trkpt lat="41.274020602417515" lon="14.006300778181783"><ele>427.0</ele><time>2026-04-04T13:05:48.002Z</time></trkpt><trkpt lat="41.27383455266111" lon="14.006113063465754"><ele>429.0</ele><time>2026-04-04T13:05:49.002Z</time></trkpt><trkpt lat="41.273705262913815" lon="14.005940967880775"><ele>431.0</ele><time>2026-04-04T13:05:50.002Z</time></trkpt><trkpt lat="41.27358996921314" lon="14.00576325749912"><ele>431.0</ele><time>2026-04-04T13:05:51.002Z</time></trkpt><trkpt lat="41.2735029245228" lon="14.005596948073189"><ele>431.0</ele><time>2026-04-04T13:05:52.002Z</time></trkpt><trkpt lat="41.273443284127936" lon="14.005406288515717"><ele>431.0</ele><time>2026-04-04T13:05:53.002Z</time></trkpt><trkpt lat="41.27340180155934" lon="14.005173911180432"><ele>430.0</ele><time>2026-04-04T13:05:54.002Z</time></trkpt><trkpt lat="41.2733473529349" lon="14.004921371443492"><ele>429.0</ele><time>2026-04-04T13:05:55.002Z</time></trkpt><trkpt lat="41.273324876948855" lon="14.004677099980654"><ele>428.0</ele><time>2026-04-04T13:05:56.002Z</time></trkpt><trkpt lat="41.27330420365522" lon="14.00443141199248"><ele>428.0</ele><time>2026-04-04T13:05:57.002Z</time></trkpt><trkpt lat="41.273280846036705" lon="14.004203071619635"><ele>428.0</ele><time>2026-04-04T13:05:58.002Z</time></trkpt><trkpt lat="41.273271240371564" lon="14.003992134086495"><ele>428.0</ele><time>2026-04-04T13:05:59.002Z</time></trkpt><trkpt lat="41.27326841112058" lon="14.003794198888695"><ele>426.3333333333333</ele><time>2026-04-04T13:06:00.002Z</time></trkpt><trkpt lat="41.273232550128014" lon="14.003618926538325"><ele>424.66666666666663</ele><time>2026-04-04T13:06:01.002Z</time></trkpt><trkpt lat="41.27315636339423" lon="14.00344207301375"><ele>423.0</ele><time>2026-04-04T13:06:02.002Z</time></trkpt><trkpt lat="41.27303247160204" lon="14.003275462909011"><ele>426.66666666666663</ele><time>2026-04-04T13:06:03.002Z</time></trkpt><trkpt lat="41.272890957521454" lon="14.003099761092479"><ele>430.3333333333333</ele><time>2026-04-04T13:06:04.002Z</time></trkpt><trkpt lat="41.27275124247395" lon="14.002908420854"><ele>434.0</ele><time>2026-04-04T13:06:05.002Z</time></trkpt><trkpt lat="41.272606531828025" lon="14.002720665690646"><ele>434.0</ele><time>2026-04-04T13:06:06.002Z</time></trkpt><trkpt lat="41.27247915615291" lon="14.00254018092466"><ele>434.0</ele><time>2026-04-04T13:06:07.002Z</time></trkpt><trkpt lat="41.27234091273151" lon="14.002360213754228"><ele>434.0</ele><time>2026-04-04T13:06:08.002Z</time></trkpt><trkpt lat="41.27217245288864" lon="14.002194233997455"><ele>435.3333333333333</ele><time>2026-04-04T13:06:09.002Z</time></trkpt><trkpt lat="41.27199572482499" lon="14.00203217076107"><ele>436.66666666666663</ele><time>2026-04-04T13:06:10.002Z</time></trkpt><trkpt lat="41.27181247603983" lon="14.001894758172446"><ele>438.0</ele><time>2026-04-04T13:06:11.002Z</time></trkpt><trkpt lat="41.27164272867925" lon="14.001767211733318"><ele>439.66666666666663</ele><time>2026-04-04T13:06:12.002Z</time></trkpt><trkpt lat="41.271474268915824" lon="14.00164282649243"><ele>441.3333333333333</ele><time>2026-04-04T13:06:13.002Z</time></trkpt><trkpt lat="41.271310520569976" lon="14.001515719963878"><ele>443.0</ele><time>2026-04-04T13:06:14.002Z</time></trkpt><trkpt lat="41.271157630374915" lon="14.00136655158541"><ele>443.0</ele><time>2026-04-04T13:06:15.002Z</time></trkpt><trkpt lat="41.271041887357605" lon="14.00120712287851"><ele>443.0</ele><time>2026-04-04T13:06:16.002Z</time></trkpt><trkpt lat="41.27091805923059" lon="14.001042620492623"><ele>443.0</ele><time>2026-04-04T13:06:17.001Z</time></trkpt><trkpt lat="41.27079869973248" lon="14.000869857168167"><ele>445.3333333333333</ele><time>2026-04-04T13:06:18.001Z</time></trkpt><trkpt lat="41.27067054280201" lon="14.000702815470682"><ele>447.66666666666663</ele><time>2026-04-04T13:06:19.001Z</time></trkpt><trkpt lat="41.270550754243665" lon="14.000517447653495"><ele>450.0</ele><time>2026-04-04T13:06:20.001Z</time></trkpt><trkpt lat="41.27042670551065" lon="14.000342152529669"><ele>450.0</ele><time>2026-04-04T13:06:21.001Z</time></trkpt><trkpt lat="41.27029619297376" lon="14.00016677604699"><ele>450.0</ele><time>2026-04-04T13:06:22.001Z</time></trkpt><trkpt lat="41.270180394006886" lon="14.000002511268828"><ele>450.0</ele><time>2026-04-04T13:06:23.001Z</time></trkpt><trkpt lat="41.27007454609259" lon="13.999859257080693"><ele>450.0</ele><time>2026-04-04T13:06:24.001Z</time></trkpt><trkpt lat="41.269978826892874" lon="13.99971741244312"><ele>450.0</ele><time>2026-04-04T13:06:25.001Z</time></trkpt><trkpt lat="41.269896462101244" lon="13.99954531976138"><ele>450.0</ele><time>2026-04-04T13:06:26.001Z</time></trkpt><trkpt lat="41.26984337857953" lon="13.99932297531445"><ele>450.0</ele><time>2026-04-04T13:06:27.001Z</time></trkpt><trkpt lat="41.269802100395886" lon="13.999077069706376"><ele>450.0</ele><time>2026-04-04T13:06:28.001Z</time></trkpt><trkpt lat="41.269764041551035" lon="13.998826714200902"><ele>450.0</ele><time>2026-04-04T13:06:29.001Z</time></trkpt><trkpt lat="41.269724895999964" lon="13.998578497070547"><ele>452.66666666666663</ele><time>2026-04-04T13:06:30.001Z</time></trkpt><trkpt lat="41.26968708707707" lon="13.998343331064023"><ele>455.3333333333333</ele><time>2026-04-04T13:06:31.001Z</time></trkpt><trkpt lat="41.269654151215974" lon="13.998110593024329"><ele>458.0</ele><time>2026-04-04T13:06:32.001Z</time></trkpt><trkpt lat="41.26963691482548" lon="13.997866425918021"><ele>458.0</ele><time>2026-04-04T13:06:33.001Z</time></trkpt><trkpt lat="41.269632230481434" lon="13.997614115817221"><ele>458.0</ele><time>2026-04-04T13:06:34.001Z</time></trkpt><trkpt lat="41.269635692507386" lon="13.997365876027056"><ele>458.0</ele><time>2026-04-04T13:06:35.001Z</time></trkpt><trkpt lat="41.26963463652803" lon="13.997118142319408"><ele>458.0</ele><time>2026-04-04T13:06:36.001Z</time></trkpt><trkpt lat="41.269641659723185" lon="13.996868480907125"><ele>458.0</ele><time>2026-04-04T13:06:37.001Z</time></trkpt><trkpt lat="41.269649206763845" lon="13.996620034081355"><ele>458.0</ele><time>2026-04-04T13:06:38.001Z</time></trkpt><trkpt lat="41.269659060621855" lon="13.996379446484728"><ele>458.3333333333333</ele><time>2026-04-04T13:06:39.001Z</time></trkpt><trkpt lat="41.2696709209796" lon="13.996145703578469"><ele>458.66666666666663</ele><time>2026-04-04T13:06:40.001Z</time></trkpt><trkpt lat="41.269689083406035" lon="13.995911484521729"><ele>459.0</ele><time>2026-04-04T13:06:41.001Z</time></trkpt><trkpt lat="41.26972452448955" lon="13.995685951980452"><ele>459.0</ele><time>2026-04-04T13:06:42.001Z</time></trkpt><trkpt lat="41.269770857334805" lon="13.995465194942481"><ele>459.0</ele><time>2026-04-04T13:06:43.001Z</time></trkpt><trkpt lat="41.269823225797076" lon="13.995272262463313"><ele>459.0</ele><time>2026-04-04T13:06:44.001Z</time></trkpt><trkpt lat="41.26989188168859" lon="13.995097211033672"><ele>458.0</ele><time>2026-04-04T13:06:45.001Z</time></trkpt><trkpt lat="41.2699704201394" lon="13.994918711917848"><ele>457.0</ele><time>2026-04-04T13:06:46.001Z</time></trkpt><trkpt lat="41.2700486959041" lon="13.994741131709281"><ele>456.0</ele><time>2026-04-04T13:06:47.001Z</time></trkpt><trkpt lat="41.27012943339525" lon="13.994567702625572"><ele>456.0</ele><time>2026-04-04T13:06:48.001Z</time></trkpt><trkpt lat="41.27020446239914" lon="13.994411528005795"><ele>456.0</ele><time>2026-04-04T13:06:49.001Z</time></trkpt><trkpt lat="41.27027706701559" lon="13.994276142638393"><ele>456.0</ele><time>2026-04-04T13:06:50.001Z</time></trkpt><trkpt lat="41.270356024694095" lon="13.994155727253784"><ele>456.0</ele><time>2026-04-04T13:06:51.001Z</time></trkpt><trkpt lat="41.27045025825248" lon="13.994070147625854"><ele>456.25</ele><time>2026-04-04T13:06:52.001Z</time></trkpt><trkpt lat="41.270564383873236" lon="13.994024382700456"><ele>456.5</ele><time>2026-04-04T13:06:53.001Z</time></trkpt><trkpt lat="41.27068755705554" lon="13.99399606438248"><ele>456.75</ele><time>2026-04-04T13:06:54.001Z</time></trkpt><trkpt lat="41.270809195914126" lon="13.993973322250737"><ele>457.0</ele><time>2026-04-04T13:06:55.001Z</time></trkpt><trkpt lat="41.270913406638776" lon="13.993958810185914"><ele>457.0</ele><time>2026-04-04T13:06:56.001Z</time></trkpt><trkpt lat="41.2710120325645" lon="13.993918676874546"><ele>457.00000000000006</ele><time>2026-04-04T13:06:57.001Z</time></trkpt><trkpt lat="41.27106848469431" lon="13.993850327230872"><ele>457.00000000000006</ele><time>2026-04-04T13:06:58.001Z</time></trkpt><trkpt lat="41.27109188920014" lon="13.99374957819156"><ele>457.0</ele><time>2026-04-04T13:06:59.001Z</time></trkpt><trkpt lat="41.27109445659046" lon="13.993607322315391"><ele>457.0</ele><time>2026-04-04T13:07:00.001Z</time></trkpt><trkpt lat="41.27107125444226" lon="13.993431786052257"><ele>457.6666666666667</ele><time>2026-04-04T13:07:01.001Z</time></trkpt><trkpt lat="41.27104900778041" lon="13.993228768536293"><ele>458.33333333333337</ele><time>2026-04-04T13:07:02.001Z</time></trkpt><trkpt lat="41.27102005459066" lon="13.993012861459118"><ele>459.0</ele><time>2026-04-04T13:07:03.001Z</time></trkpt><trkpt lat="41.27098065477017" lon="13.992786093379914"><ele>459.0</ele><time>2026-04-04T13:07:04.001Z</time></trkpt><trkpt lat="41.27095942193411" lon="13.992561101870228"><ele>459.0</ele><time>2026-04-04T13:07:05.001Z</time></trkpt><trkpt lat="41.270964542417836" lon="13.992317630010563"><ele>459.0</ele><time>2026-04-04T13:07:06.001Z</time></trkpt><trkpt lat="41.27096689087367" lon="13.99205536579822"><ele>460.0</ele><time>2026-04-04T13:07:07.001Z</time></trkpt><trkpt lat="41.27099238899131" lon="13.991764459268614"><ele>461.0</ele><time>2026-04-04T13:07:08.001Z</time></trkpt><trkpt lat="41.27102104767359" lon="13.991448021919645"><ele>462.0</ele><time>2026-04-04T13:07:09.001Z</time></trkpt><trkpt lat="41.27104645676887" lon="13.991114116255927"><ele>463.0</ele><time>2026-04-04T13:07:10.001Z</time></trkpt><trkpt lat="41.27107107679468" lon="13.99080491018411"><ele>464.0</ele><time>2026-04-04T13:07:11.001Z</time></trkpt><trkpt lat="41.27108337865308" lon="13.990520183646787"><ele>465.0</ele><time>2026-04-04T13:07:12.001Z</time></trkpt><trkpt lat="41.27108964811758" lon="13.990270824458825"><ele>466.0</ele><time>2026-04-04T13:07:13.001Z</time></trkpt><trkpt lat="41.27111531768467" lon="13.990041941823566"><ele>466.75</ele><time>2026-04-04T13:07:14.001Z</time></trkpt><trkpt lat="41.271152919882304" lon="13.989857610581248"><ele>467.5</ele><time>2026-04-04T13:07:15.001Z</time></trkpt><trkpt lat="41.27122320590099" lon="13.989694851422819"><ele>468.25</ele><time>2026-04-04T13:07:16.001Z</time></trkpt><trkpt lat="41.271333703170825" lon="13.98953227729124"><ele>469.0</ele><time>2026-04-04T13:07:17.001Z</time></trkpt><trkpt lat="41.27146627303326" lon="13.989366293923455"><ele>472.6666666666667</ele><time>2026-04-04T13:07:18.001Z</time></trkpt><trkpt lat="41.271602333325866" lon="13.98918303900167"><ele>476.33333333333337</ele><time>2026-04-04T13:07:19.001Z</time></trkpt><trkpt lat="41.27174292011145" lon="13.988973460249545"><ele>480.0</ele><time>2026-04-04T13:07:20.001Z</time></trkpt><trkpt lat="41.271898870665225" lon="13.98875148114774"><ele>480.0</ele><time>2026-04-04T13:07:21.001Z</time></trkpt><trkpt lat="41.27206073343396" lon="13.988540677862238"><ele>480.0</ele><time>2026-04-04T13:07:22.001Z</time></trkpt><trkpt lat="41.27221893074291" lon="13.988329977222234"><ele>482.33333333333337</ele><time>2026-04-04T13:07:23.001Z</time></trkpt><trkpt lat="41.27236675200199" lon="13.988150953296568"><ele>484.6666666666667</ele><time>2026-04-04T13:07:24.001Z</time></trkpt><trkpt lat="41.27249631681161" lon="13.98799461488971"><ele>487.0</ele><time>2026-04-04T13:07:25.001Z</time></trkpt><trkpt lat="41.27261049926679" lon="13.987850250214551"><ele>487.0</ele><time>2026-04-04T13:07:26.001Z</time></trkpt><trkpt lat="41.27270354591815" lon="13.98770548048555"><ele>487.0</ele><time>2026-04-04T13:07:27.001Z</time></trkpt><trkpt lat="41.272768723375414" lon="13.987540893067669"><ele>487.0</ele><time>2026-04-04T13:07:28.001Z</time></trkpt><trkpt lat="41.27280189711348" lon="13.987359951208422"><ele>487.0</ele><time>2026-04-04T13:07:29.001Z</time></trkpt><trkpt lat="41.272820532942504" lon="13.987158443974451"><ele>486.6666666666667</ele><time>2026-04-04T13:07:30.001Z</time></trkpt><trkpt lat="41.27280577890713" lon="13.986956255049252"><ele>486.33333333333337</ele><time>2026-04-04T13:07:31.001Z</time></trkpt><trkpt lat="41.27276314001835" lon="13.986746013684819"><ele>486.0</ele><time>2026-04-04T13:07:32.001Z</time></trkpt><trkpt lat="41.272685210839974" lon="13.986555011944683"><ele>487.66666666666663</ele><time>2026-04-04T13:07:33.001Z</time></trkpt><trkpt lat="41.27257685238852" lon="13.986385867229933"><ele>489.3333333333333</ele><time>2026-04-04T13:07:34.001Z</time></trkpt><trkpt lat="41.272461899372246" lon="13.986247524184561"><ele>491.0</ele><time>2026-04-04T13:07:35.001Z</time></trkpt><trkpt lat="41.27234596896421" lon="13.986119032896399"><ele>491.75</ele><time>2026-04-04T13:07:36.002Z</time></trkpt><trkpt lat="41.272203939891234" lon="13.986066003693987"><ele>492.5</ele><time>2026-04-04T13:07:37.002Z</time></trkpt><trkpt lat="41.2720671059308" lon="13.986039200041342"><ele>493.25</ele><time>2026-04-04T13:07:38.002Z</time></trkpt><trkpt lat="41.27191136272139" lon="13.986059851539368"><ele>494.0</ele><time>2026-04-04T13:07:39.002Z</time></trkpt><trkpt lat="41.2717532859364" lon="13.986131798594045"><ele>494.0</ele><time>2026-04-04T13:07:40.002Z</time></trkpt><trkpt lat="41.27159214088753" lon="13.986253226490357"><ele>494.0</ele><time>2026-04-04T13:07:41.002Z</time></trkpt><trkpt lat="41.27143705428208" lon="13.986410694771374"><ele>494.0</ele><time>2026-04-04T13:07:42.002Z</time></trkpt><trkpt lat="41.27130142742032" lon="13.986560049957495"><ele>494.4</ele><time>2026-04-04T13:07:43.002Z</time></trkpt><trkpt lat="41.271190188705845" lon="13.9866632687181"><ele>494.79999999999995</ele><time>2026-04-04T13:07:44.002Z</time></trkpt><trkpt lat="41.27108108499898" lon="13.986731626793874"><ele>495.20000000000005</ele><time>2026-04-04T13:07:45.002Z</time></trkpt><trkpt lat="41.27099884050267" lon="13.986786862124557"><ele>495.6</ele><time>2026-04-04T13:07:46.002Z</time></trkpt><trkpt lat="41.270929690528334" lon="13.98679158057615"><ele>496.0</ele><time>2026-04-04T13:07:47.002Z</time></trkpt><trkpt lat="41.27085253594617" lon="13.986731724576508"><ele>496.0</ele><time>2026-04-04T13:07:48.002Z</time></trkpt><trkpt lat="41.27078871981515" lon="13.986611991875977"><ele>496.0</ele><time>2026-04-04T13:07:49.002Z</time></trkpt><trkpt lat="41.27070438220021" lon="13.986448823595158"><ele>496.0</ele><time>2026-04-04T13:07:50.002Z</time></trkpt><trkpt lat="41.27064838113105" lon="13.986273187195625"><ele>496.0</ele><time>2026-04-04T13:07:51.002Z</time></trkpt><trkpt lat="41.27065206927044" lon="13.9861222106921"><ele>496.0</ele><time>2026-04-04T13:07:52.002Z</time></trkpt><trkpt lat="41.27067173739818" lon="13.986001381474624"><ele>496.0</ele><time>2026-04-04T13:07:53.002Z</time></trkpt><trkpt lat="41.2707332569642" lon="13.985863239147859"><ele>496.0</ele><time>2026-04-04T13:07:54.002Z</time></trkpt><trkpt lat="41.27081556290785" lon="13.985701975299598"><ele>496.0</ele><time>2026-04-04T13:07:55.002Z</time></trkpt><trkpt lat="41.27088813962772" lon="13.985530009473035"><ele>497.75</ele><time>2026-04-04T13:07:56.002Z</time></trkpt><trkpt lat="41.270950880966694" lon="13.98537267997067"><ele>499.5</ele><time>2026-04-04T13:07:57.002Z</time></trkpt><trkpt lat="41.270935916546186" lon="13.985188038896533"><ele>501.25</ele><time>2026-04-04T13:07:58.002Z</time></trkpt><trkpt lat="41.27089991271457" lon="13.984973431457597"><ele>503.0</ele><time>2026-04-04T13:07:59.002Z</time></trkpt><trkpt lat="41.27088494973491" lon="13.984745428329878"><ele>503.5</ele><time>2026-04-04T13:08:00.002Z</time></trkpt><trkpt lat="41.27086464288408" lon="13.984557422747475"><ele>504.0</ele><time>2026-04-04T13:08:01.002Z</time></trkpt><trkpt lat="41.27087251407796" lon="13.984385238552324"><ele>504.5</ele><time>2026-04-04T13:08:02.002Z</time></trkpt><trkpt lat="41.27093201412708" lon="13.984241818165042"><ele>505.0</ele><time>2026-04-04T13:08:03.002Z</time></trkpt><trkpt lat="41.27100217811889" lon="13.984059940860417"><ele>506.0</ele><time>2026-04-04T13:08:04.002Z</time></trkpt><trkpt lat="41.27110527462337" lon="13.983893792818588"><ele>507.0</ele><time>2026-04-04T13:08:05.002Z</time></trkpt><trkpt lat="41.271215750552486" lon="13.98372421858576"><ele>508.0</ele><time>2026-04-04T13:08:06.002Z</time></trkpt><trkpt lat="41.27129989496105" lon="13.983538182788495"><ele>507.6666666666667</ele><time>2026-04-04T13:08:07.002Z</time></trkpt><trkpt lat="41.2713326662459" lon="13.983306003418363"><ele>507.33333333333337</ele><time>2026-04-04T13:08:08.002Z</time></trkpt><trkpt lat="41.27135634938884" lon="13.983106757849594"><ele>507.0</ele><time>2026-04-04T13:08:09.002Z</time></trkpt><trkpt lat="41.2713455647966" lon="13.982926974646016"><ele>507.0</ele><time>2026-04-04T13:08:10.002Z</time></trkpt><trkpt lat="41.27129740587103" lon="13.982764520787049"><ele>507.0</ele><time>2026-04-04T13:08:11.002Z</time></trkpt><trkpt lat="41.27122132689659" lon="13.982648466861518"><ele>507.0</ele><time>2026-04-04T13:08:12.002Z</time></trkpt><trkpt lat="41.27108272767697" lon="13.982549538758754"><ele>507.0</ele><time>2026-04-04T13:08:13.002Z</time></trkpt><trkpt lat="41.27093206014123" lon="13.982503261886828"><ele>507.0</ele><time>2026-04-04T13:08:14.002Z</time></trkpt><trkpt lat="41.27072629587378" lon="13.982468695491628"><ele>507.0</ele><time>2026-04-04T13:08:15.002Z</time></trkpt><trkpt lat="41.270543182531306" lon="13.982444449681273"><ele>507.0</ele><time>2026-04-04T13:08:16.002Z</time></trkpt><trkpt lat="41.27040574379118" lon="13.982421706763674"><ele>507.0</ele><time>2026-04-04T13:08:17.002Z</time></trkpt><trkpt lat="41.27031230707799" lon="13.982365219454106"><ele>507.00000000000006</ele><time>2026-04-04T13:08:18.002Z</time></trkpt><trkpt lat="41.270251627145726" lon="13.982239751106567"><ele>507.00000000000006</ele><time>2026-04-04T13:08:20.002Z</time></trkpt><trkpt lat="41.270309416794255" lon="13.98214571994806"><ele>507.0</ele><time>2026-04-04T13:08:22.002Z</time></trkpt><trkpt lat="41.270416473252276" lon="13.982104009540066"><ele>507.0</ele><time>2026-04-04T13:08:23Z</time></trkpt><trkpt lat="41.270553328710086" lon="13.982132863950174"><ele>510.33333333333337</ele><time>2026-04-04T13:08:24Z</time></trkpt><trkpt lat="41.27070541048729" lon="13.98214542632761"><ele>513.6666666666667</ele><time>2026-04-04T13:08:25Z</time></trkpt><trkpt lat="41.27089107129175" lon="13.982183046829697"><ele>517.0</ele><time>2026-04-04T13:08:26Z</time></trkpt><trkpt lat="41.27108781046026" lon="13.982191593114472"><ele>517.0</ele><time>2026-04-04T13:08:27Z</time></trkpt><trkpt lat="41.271257419971676" lon="13.982214499206277"><ele>517.0</ele><time>2026-04-04T13:08:28Z</time></trkpt><trkpt lat="41.2714017916944" lon="13.98227462373822"><ele>517.0</ele><time>2026-04-04T13:08:29Z</time></trkpt><trkpt lat="41.27151294548953" lon="13.982368986397388"><ele>520.75</ele><time>2026-04-04T13:08:30Z</time></trkpt><trkpt lat="41.271594471515655" lon="13.982495301552095"><ele>524.5</ele><time>2026-04-04T13:08:31Z</time></trkpt><trkpt lat="41.27167140476736" lon="13.982669705462577"><ele>528.25</ele><time>2026-04-04T13:08:32Z</time></trkpt><trkpt lat="41.27173366213663" lon="13.982879109952162"><ele>532.0</ele><time>2026-04-04T13:08:33Z</time></trkpt><trkpt lat="41.271779385153536" lon="13.98307331318692"><ele>532.0</ele><time>2026-04-04T13:08:34Z</time></trkpt><trkpt lat="41.27177960793799" lon="13.983325653236392"><ele>532.0</ele><time>2026-04-04T13:08:35Z</time></trkpt><trkpt lat="41.27176497207028" lon="13.983543310202837"><ele>532.0</ele><time>2026-04-04T13:08:36Z</time></trkpt><trkpt lat="41.2717167962561" lon="13.98374319639744"><ele>532.0</ele><time>2026-04-04T13:08:37Z</time></trkpt><trkpt lat="41.27163159513673" lon="13.983939387495564"><ele>532.0</ele><time>2026-04-04T13:08:38Z</time></trkpt><trkpt lat="41.27155993329237" lon="13.984098464622951"><ele>532.0</ele><time>2026-04-04T13:08:39Z</time></trkpt><trkpt lat="41.271524774540566" lon="13.984220011449084"><ele>532.0</ele><time>2026-04-04T13:08:40Z</time></trkpt><trkpt lat="41.271538155339364" lon="13.984328738473623"><ele>529.6</ele><time>2026-04-04T13:08:41Z</time></trkpt><trkpt lat="41.27157014982743" lon="13.9844382765323"><ele>527.2</ele><time>2026-04-04T13:08:42Z</time></trkpt><trkpt lat="41.271657578974114" lon="13.984519844220438"><ele>524.8</ele><time>2026-04-04T13:08:43Z</time></trkpt><trkpt lat="41.271776137179046" lon="13.984535907987082"><ele>522.4</ele><time>2026-04-04T13:08:44Z</time></trkpt><trkpt lat="41.27190330050909" lon="13.98451066622724"><ele>520.0</ele><time>2026-04-04T13:08:45Z</time></trkpt><trkpt lat="41.272039407591436" lon="13.984456492636875"><ele>520.0</ele><time>2026-04-04T13:08:46Z</time></trkpt><trkpt lat="41.27219720134466" lon="13.984362054147033"><ele>520.0</ele><time>2026-04-04T13:08:47Z</time></trkpt><trkpt lat="41.2723555125715" lon="13.98423198329584"><ele>520.0</ele><time>2026-04-04T13:08:48Z</time></trkpt><trkpt lat="41.27252548182792" lon="13.98408935583476"><ele>530.0</ele><time>2026-04-04T13:08:49Z</time></trkpt><trkpt lat="41.27272343631302" lon="13.983923244938023"><ele>540.0</ele><time>2026-04-04T13:08:50Z</time></trkpt><trkpt lat="41.272930904919825" lon="13.983755084331884"><ele>538.6666666666666</ele><time>2026-04-04T13:08:51Z</time></trkpt><trkpt lat="41.273111315488805" lon="13.983611887896199"><ele>537.3333333333333</ele><time>2026-04-04T13:08:52Z</time></trkpt><trkpt lat="41.273243102809566" lon="13.983507284950564"><ele>536.0</ele><time>2026-04-04T13:08:53Z</time></trkpt><trkpt lat="41.27333514599684" lon="13.983434227952563"><ele>536.0</ele><time>2026-04-04T13:08:54Z</time></trkpt><trkpt lat="41.2734174748606" lon="13.98338245951021"><ele>536.0</ele><time>2026-04-04T13:08:55Z</time></trkpt><trkpt lat="41.273501667947805" lon="13.983406984905857"><ele>536.0</ele><time>2026-04-04T13:08:56Z</time></trkpt><trkpt lat="41.27359721910134" lon="13.983503186356128"><ele>536.0</ele><time>2026-04-04T13:08:57Z</time></trkpt><trkpt lat="41.27368740175436" lon="13.983648363067458"><ele>536.0</ele><time>2026-04-04T13:08:58Z</time></trkpt><trkpt lat="41.273767846267965" lon="13.983833055902775"><ele>536.0</ele><time>2026-04-04T13:08:59Z</time></trkpt><trkpt lat="41.27386159637127" lon="13.984008474217669"><ele>536.0</ele><time>2026-04-04T13:09:00Z</time></trkpt><trkpt lat="41.27397943068359" lon="13.984178349132064"><ele>536.0</ele><time>2026-04-04T13:09:01Z</time></trkpt><trkpt lat="41.27410801545551" lon="13.984350362616379"><ele>537.3333333333333</ele><time>2026-04-04T13:09:02Z</time></trkpt><trkpt lat="41.27423627987867" lon="13.984526099311548"><ele>538.6666666666666</ele><time>2026-04-04T13:09:03Z</time></trkpt><trkpt lat="41.27435126898842" lon="13.984704278196151"><ele>540.0</ele><time>2026-04-04T13:09:04.001Z</time></trkpt><trkpt lat="41.274463512466966" lon="13.984828894146107"><ele>540.0</ele><time>2026-04-04T13:09:05.001Z</time></trkpt><trkpt lat="41.27459368760745" lon="13.984922561787641"><ele>540.0</ele><time>2026-04-04T13:09:06.001Z</time></trkpt><trkpt lat="41.2747304580677" lon="13.98498080852102"><ele>540.0</ele><time>2026-04-04T13:09:07.001Z</time></trkpt><trkpt lat="41.2748522223335" lon="13.985052897945216"><ele>540.0</ele><time>2026-04-04T13:09:08.001Z</time></trkpt><trkpt lat="41.274995252140165" lon="13.985120703311585"><ele>541.3333333333334</ele><time>2026-04-04T13:09:09.001Z</time></trkpt><trkpt lat="41.275159920915726" lon="13.985195374070036"><ele>542.6666666666667</ele><time>2026-04-04T13:09:10.001Z</time></trkpt><trkpt lat="41.27533751750481" lon="13.985257555915714"><ele>544.0</ele><time>2026-04-04T13:09:11.001Z</time></trkpt><trkpt lat="41.27553097943196" lon="13.985311493682143"><ele>548.6666666666667</ele><time>2026-04-04T13:09:12.001Z</time></trkpt><trkpt lat="41.27573488877392" lon="13.985355519900663"><ele>553.3333333333334</ele><time>2026-04-04T13:09:13.001Z</time></trkpt><trkpt lat="41.27593926461604" lon="13.985392840588124"><ele>558.0</ele><time>2026-04-04T13:09:14.001Z</time></trkpt><trkpt lat="41.276144149330534" lon="13.985433998024977"><ele>558.0</ele><time>2026-04-04T13:09:15.001Z</time></trkpt><trkpt lat="41.27635202494534" lon="13.985474792958025"><ele>558.0</ele><time>2026-04-04T13:09:16.001Z</time></trkpt><trkpt lat="41.276530112332" lon="13.985489942503861"><ele>558.0</ele><time>2026-04-04T13:09:17.001Z</time></trkpt><trkpt lat="41.27669521333555" lon="13.985510725703696"><ele>560.3333333333334</ele><time>2026-04-04T13:09:18.001Z</time></trkpt><trkpt lat="41.276853066527586" lon="13.985540136195214"><ele>562.6666666666667</ele><time>2026-04-04T13:09:19.001Z</time></trkpt><trkpt lat="41.27700297971198" lon="13.98556799336038"><ele>565.0</ele><time>2026-04-04T13:09:20.001Z</time></trkpt><trkpt lat="41.27714176714327" lon="13.985563277006282"><ele>567.0</ele><time>2026-04-04T13:09:21.001Z</time></trkpt><trkpt lat="41.277272375630204" lon="13.98555341161862"><ele>569.0</ele><time>2026-04-04T13:09:22.001Z</time></trkpt><trkpt lat="41.277419829385465" lon="13.985489401302535"><ele>571.0</ele><time>2026-04-04T13:09:23.001Z</time></trkpt><trkpt lat="41.27755965393949" lon="13.985377416526294"><ele>573.0</ele><time>2026-04-04T13:09:24.001Z</time></trkpt><trkpt lat="41.277689737954965" lon="13.98521470264502"><ele>573.0</ele><time>2026-04-04T13:09:25.001Z</time></trkpt><trkpt lat="41.277818358145474" lon="13.98509762686803"><ele>573.0</ele><time>2026-04-04T13:09:26.001Z</time></trkpt><trkpt lat="41.277937327499544" lon="13.984962903769794"><ele>573.0</ele><time>2026-04-04T13:09:27.001Z</time></trkpt><trkpt lat="41.278043375268744" lon="13.984818887708558"><ele>575.75</ele><time>2026-04-04T13:09:28.001Z</time></trkpt><trkpt lat="41.27814854801905" lon="13.984714766621279"><ele>578.5</ele><time>2026-04-04T13:09:29.001Z</time></trkpt><trkpt lat="41.278248635972794" lon="13.984621678666281"><ele>581.25</ele><time>2026-04-04T13:09:30.001Z</time></trkpt><trkpt lat="41.278366162746735" lon="13.98450810027749"><ele>584.0</ele><time>2026-04-04T13:09:31.001Z</time></trkpt><trkpt lat="41.27850768316558" lon="13.984403161132468"><ele>584.0</ele><time>2026-04-04T13:09:32.001Z</time></trkpt><trkpt lat="41.27866620987722" lon="13.98430151355013"><ele>584.0</ele><time>2026-04-04T13:09:33.001Z</time></trkpt><trkpt lat="41.2788294632394" lon="13.984195663284845"><ele>584.0</ele><time>2026-04-04T13:09:34.001Z</time></trkpt><trkpt lat="41.27898972695311" lon="13.984094140079945"><ele>584.0</ele><time>2026-04-04T13:09:35.001Z</time></trkpt><trkpt lat="41.27915316392242" lon="13.983996011297622"><ele>584.0</ele><time>2026-04-04T13:09:36.001Z</time></trkpt><trkpt lat="41.27931185098646" lon="13.983899246516293"><ele>584.0</ele><time>2026-04-04T13:09:37.001Z</time></trkpt><trkpt lat="41.27947749954135" lon="13.98380095593034"><ele>584.0</ele><time>2026-04-04T13:09:38.001Z</time></trkpt><trkpt lat="41.279629698539566" lon="13.98370906045913"><ele>584.0</ele><time>2026-04-04T13:09:39.001Z</time></trkpt><trkpt lat="41.27976389506024" lon="13.98359167281638"><ele>584.0</ele><time>2026-04-04T13:09:40.001Z</time></trkpt><trkpt lat="41.27989863723786" lon="13.98344897202435"><ele>583.6666666666666</ele><time>2026-04-04T13:09:41.001Z</time></trkpt><trkpt lat="41.28003252543499" lon="13.983281716290655"><ele>583.3333333333334</ele><time>2026-04-04T13:09:42.001Z</time></trkpt><trkpt lat="41.2801569601367" lon="13.983088670681528"><ele>583.0</ele><time>2026-04-04T13:09:43.001Z</time></trkpt><trkpt lat="41.28030624387377" lon="13.982902789279413"><ele>583.0</ele><time>2026-04-04T13:09:44.001Z</time></trkpt><trkpt lat="41.28045069361462" lon="13.982695228936318"><ele>583.0</ele><time>2026-04-04T13:09:45.001Z</time></trkpt><trkpt lat="41.28058725849923" lon="13.98246842082346"><ele>583.0</ele><time>2026-04-04T13:09:46.001Z</time></trkpt><trkpt lat="41.28074046558338" lon="13.98225356639177"><ele>583.5</ele><time>2026-04-04T13:09:47.001Z</time></trkpt><trkpt lat="41.28089596818796" lon="13.982034092260898"><ele>584.0</ele><time>2026-04-04T13:09:48.001Z</time></trkpt><trkpt lat="41.28105354061478" lon="13.981816342803517"><ele>583.6666666666666</ele><time>2026-04-04T13:09:49.001Z</time></trkpt><trkpt lat="41.281211519091876" lon="13.981603186929375"><ele>583.3333333333334</ele><time>2026-04-04T13:09:50.001Z</time></trkpt><trkpt lat="41.28136374270743" lon="13.981394313458184"><ele>583.0</ele><time>2026-04-04T13:09:51.001Z</time></trkpt><trkpt lat="41.28150318659273" lon="13.981201607459063"><ele>584.0</ele><time>2026-04-04T13:09:52.001Z</time></trkpt><trkpt lat="41.28164260760463" lon="13.981012691693742"><ele>585.0</ele><time>2026-04-04T13:09:53.001Z</time></trkpt><trkpt lat="41.28177194150998" lon="13.980828952434107"><ele>586.0</ele><time>2026-04-04T13:09:54.002Z</time></trkpt><trkpt lat="41.28190575841158" lon="13.980645750056745"><ele>586.0</ele><time>2026-04-04T13:09:55.002Z</time></trkpt><trkpt lat="41.28204020978731" lon="13.980463073447353"><ele>586.0</ele><time>2026-04-04T13:09:56.002Z</time></trkpt><trkpt lat="41.28217565703522" lon="13.980278882764186"><ele>586.0</ele><time>2026-04-04T13:09:57.002Z</time></trkpt><trkpt lat="41.28231259106552" lon="13.980093080082382"><ele>586.6666666666667</ele><time>2026-04-04T13:09:58.002Z</time></trkpt><trkpt lat="41.28245986051696" lon="13.979911224568"><ele>587.3333333333334</ele><time>2026-04-04T13:09:59.002Z</time></trkpt><trkpt lat="41.282598662612685" lon="13.97972056268665"><ele>588.0</ele><time>2026-04-04T13:10:00.002Z</time></trkpt><trkpt lat="41.282753918087884" lon="13.979537400153495"><ele>588.0</ele><time>2026-04-04T13:10:01.002Z</time></trkpt><trkpt lat="41.2829227301356" lon="13.979353630898368"><ele>588.0</ele><time>2026-04-04T13:10:02.002Z</time></trkpt><trkpt lat="41.28308165982278" lon="13.979172964861085"><ele>588.0</ele><time>2026-04-04T13:10:03.002Z</time></trkpt><trkpt lat="41.28322841980437" lon="13.979005476301538"><ele>586.6666666666666</ele><time>2026-04-04T13:10:04.002Z</time></trkpt><trkpt lat="41.28336746313419" lon="13.978842892620081"><ele>585.3333333333333</ele><time>2026-04-04T13:10:05.002Z</time></trkpt><trkpt lat="41.28350738563253" lon="13.978681601452049"><ele>584.0</ele><time>2026-04-04T13:10:06.002Z</time></trkpt><trkpt lat="41.28363352212211" lon="13.978519416613326"><ele>584.0</ele><time>2026-04-04T13:10:07.002Z</time></trkpt><trkpt lat="41.283769443043205" lon="13.978369371906592"><ele>584.0</ele><time>2026-04-04T13:10:08.002Z</time></trkpt><trkpt lat="41.283894545043545" lon="13.97822321283723"><ele>584.0</ele><time>2026-04-04T13:10:09.002Z</time></trkpt><trkpt lat="41.284020396881644" lon="13.978084609386928"><ele>584.5</ele><time>2026-04-04T13:10:10.002Z</time></trkpt><trkpt lat="41.28413380321853" lon="13.97795312172464"><ele>585.0</ele><time>2026-04-04T13:10:11.002Z</time></trkpt><trkpt lat="41.284241305583265" lon="13.97783142383489"><ele>585.5</ele><time>2026-04-04T13:10:12.002Z</time></trkpt><trkpt lat="41.28434587309017" lon="13.977713909452428"><ele>586.0</ele><time>2026-04-04T13:10:13.002Z</time></trkpt><trkpt lat="41.2844400495469" lon="13.977600278261002"><ele>586.3333333333334</ele><time>2026-04-04T13:10:14.002Z</time></trkpt><trkpt lat="41.28452376411068" lon="13.977501428885295"><ele>586.6666666666667</ele><time>2026-04-04T13:10:15.002Z</time></trkpt><trkpt lat="41.28459489730568" lon="13.9774214192658"><ele>587.0</ele><time>2026-04-04T13:10:16.002Z</time></trkpt><trkpt lat="41.28465008514745" lon="13.977367848352813"><ele>587.3333333333334</ele><time>2026-04-04T13:10:17.002Z</time></trkpt><trkpt lat="41.28474556671371" lon="13.977350295790119"><ele>587.6666666666666</ele><time>2026-04-04T13:10:19.002Z</time></trkpt><trkpt lat="41.28480671817521" lon="13.977394449692081"><ele>588.0</ele><time>2026-04-04T13:10:20.002Z</time></trkpt><trkpt lat="41.2848687366531" lon="13.977473398381408"><ele>588.75</ele><time>2026-04-04T13:10:21.002Z</time></trkpt><trkpt lat="41.28493649077724" lon="13.977570665644377"><ele>589.5</ele><time>2026-04-04T13:10:22.002Z</time></trkpt><trkpt lat="41.28502497554129" lon="13.977664760783647"><ele>590.25</ele><time>2026-04-04T13:10:23.002Z</time></trkpt><trkpt lat="41.28512037526368" lon="13.97775397246018"><ele>591.0</ele><time>2026-04-04T13:10:24.002Z</time></trkpt><trkpt lat="41.28520519308109" lon="13.977869243537766"><ele>591.0</ele><time>2026-04-04T13:10:25.002Z</time></trkpt><trkpt lat="41.28528664439318" lon="13.978001158717298"><ele>591.0</ele><time>2026-04-04T13:10:26.002Z</time></trkpt><trkpt lat="41.28537595529379" lon="13.978140547167753"><ele>591.0</ele><time>2026-04-04T13:10:27.002Z</time></trkpt><trkpt lat="41.28548041836558" lon="13.97827885729253"><ele>591.0</ele><time>2026-04-04T13:10:28.002Z</time></trkpt><trkpt lat="41.28560208752902" lon="13.978410438762243"><ele>591.3333333333334</ele><time>2026-04-04T13:10:29Z</time></trkpt><trkpt lat="41.285723219674956" lon="13.978572220545296"><ele>591.6666666666667</ele><time>2026-04-04T13:10:30Z</time></trkpt><trkpt lat="41.285846572830714" lon="13.978734829276911"><ele>592.0</ele><time>2026-04-04T13:10:31Z</time></trkpt><trkpt lat="41.28597456373057" lon="13.978891553871158"><ele>592.0</ele><time>2026-04-04T13:10:32Z</time></trkpt><trkpt lat="41.28610722436479" lon="13.979060719476102"><ele>592.0</ele><time>2026-04-04T13:10:33Z</time></trkpt><trkpt lat="41.28624200709845" lon="13.979220557325768"><ele>592.0</ele><time>2026-04-04T13:10:34Z</time></trkpt><trkpt lat="41.2863787434926" lon="13.979378657181691"><ele>594.3333333333334</ele><time>2026-04-04T13:10:35Z</time></trkpt><trkpt lat="41.28651406681062" lon="13.979533476776393"><ele>596.6666666666666</ele><time>2026-04-04T13:10:36Z</time></trkpt><trkpt lat="41.28664236471424" lon="13.97968282459476"><ele>599.0</ele><time>2026-04-04T13:10:37Z</time></trkpt><trkpt lat="41.28676621082872" lon="13.979823844370044"><ele>599.0</ele><time>2026-04-04T13:10:38Z</time></trkpt><trkpt lat="41.286888330666535" lon="13.97996603912037"><ele>599.0</ele><time>2026-04-04T13:10:39Z</time></trkpt><trkpt lat="41.28700423015921" lon="13.980101282486139"><ele>599.0</ele><time>2026-04-04T13:10:40Z</time></trkpt><trkpt lat="41.28710386360301" lon="13.980206715972088"><ele>599.0</ele><time>2026-04-04T13:10:41Z</time></trkpt><trkpt lat="41.28719121327303" lon="13.980275059592334"><ele>600.1666666666666</ele><time>2026-04-04T13:10:42Z</time></trkpt><trkpt lat="41.287267328227315" lon="13.980346911270649"><ele>601.3333333333333</ele><time>2026-04-04T13:10:43Z</time></trkpt><trkpt lat="41.28730337668805" lon="13.980450118897055"><ele>602.5</ele><time>2026-04-04T13:10:44Z</time></trkpt><trkpt lat="41.28736634910897" lon="13.98049801820753"><ele>603.6666666666666</ele><time>2026-04-04T13:10:45Z</time></trkpt><trkpt lat="41.28743682122069" lon="13.980576805357806"><ele>604.8333333333334</ele><time>2026-04-04T13:10:47Z</time></trkpt><trkpt lat="41.28748529330924" lon="13.980696273450372"><ele>606.0</ele><time>2026-04-04T13:10:49Z</time></trkpt><trkpt lat="41.28750934474409" lon="13.980773962373958"><ele>605.5</ele><time>2026-04-04T13:10:50Z</time></trkpt><trkpt lat="41.28753698715552" lon="13.980850680020552"><ele>605.0</ele><time>2026-04-04T13:10:51Z</time></trkpt><trkpt lat="41.28757388408719" lon="13.980995106742602"><ele>604.5</ele><time>2026-04-04T13:10:53Z</time></trkpt><trkpt lat="41.28753721845438" lon="13.981136482051541"><ele>604.0</ele><time>2026-04-04T13:10:55Z</time></trkpt><trkpt lat="41.28750423616251" lon="13.981224249083725"><ele>603.5</ele><time>2026-04-04T13:10:56Z</time></trkpt><trkpt lat="41.28746826367096" lon="13.98131608528255"><ele>603.0</ele><time>2026-04-04T13:10:57Z</time></trkpt><trkpt lat="41.28744293278804" lon="13.98139834281976"><ele>603.0</ele><time>2026-04-04T13:10:58Z</time></trkpt><trkpt lat="41.287451002467805" lon="13.981552356873614"><ele>603.0</ele><time>2026-04-04T13:11:00Z</time></trkpt><trkpt lat="41.28753227526737" lon="13.981700333087002"><ele>603.0</ele><time>2026-04-04T13:11:02Z</time></trkpt><trkpt lat="41.28759802504086" lon="13.981808023189682"><ele>603.0</ele><time>2026-04-04T13:11:03Z</time></trkpt><trkpt lat="41.28768536628089" lon="13.981934106054991"><ele>602.5</ele><time>2026-04-04T13:11:04Z</time></trkpt><trkpt lat="41.287776967669366" lon="13.98206144233719"><ele>602.0</ele><time>2026-04-04T13:11:05Z</time></trkpt><trkpt lat="41.28785357694468" lon="13.98218857000177"><ele>601.5</ele><time>2026-04-04T13:11:06Z</time></trkpt><trkpt lat="41.28792245569441" lon="13.982303451030207"><ele>601.0</ele><time>2026-04-04T13:11:07.001Z</time></trkpt><trkpt lat="41.28799159661779" lon="13.982409664565392"><ele>601.0</ele><time>2026-04-04T13:11:08.001Z</time></trkpt><trkpt lat="41.288059967901354" lon="13.982496824011365"><ele>601.0</ele><time>2026-04-04T13:11:09.001Z</time></trkpt><trkpt lat="41.28812987574901" lon="13.982584000377225"><ele>601.0</ele><time>2026-04-04T13:11:10.001Z</time></trkpt><trkpt lat="41.288196421103834" lon="13.982683930559993"><ele>601.0</ele><time>2026-04-04T13:11:11.001Z</time></trkpt><trkpt lat="41.288252451446844" lon="13.98277128836375"><ele>601.0</ele><time>2026-04-04T13:11:12.001Z</time></trkpt><trkpt lat="41.2882950048186" lon="13.982837779316423"><ele>601.0</ele><time>2026-04-04T13:11:13.001Z</time></trkpt><trkpt lat="41.28835093640811" lon="13.982923398375046"><ele>600.6</ele><time>2026-04-04T13:11:14.001Z</time></trkpt><trkpt lat="41.28841084137047" lon="13.983015100061793"><ele>600.2</ele><time>2026-04-04T13:11:15.001Z</time></trkpt><trkpt lat="41.28849948273302" lon="13.983149772183973"><ele>599.8</ele><time>2026-04-04T13:11:16.001Z</time></trkpt><trkpt lat="41.28855457276758" lon="13.983229033846841"><ele>599.4</ele><time>2026-04-04T13:11:17.001Z</time></trkpt><trkpt lat="41.288612066359356" lon="13.983311753610563"><ele>599.0</ele><time>2026-04-04T13:11:18.001Z</time></trkpt><trkpt lat="41.28868344926397" lon="13.983385089711508"><ele>599.0</ele><time>2026-04-04T13:11:19.001Z</time></trkpt><trkpt lat="41.2887106155067" lon="13.983460884700754"><ele>599.0</ele><time>2026-04-04T13:11:20.001Z</time></trkpt><trkpt lat="41.28878436810886" lon="13.983567811055561"><ele>599.0</ele><time>2026-04-04T13:11:22.001Z</time></trkpt><trkpt lat="41.28890282723659" lon="13.983543089317738"><ele>599.0</ele><time>2026-04-04T13:11:24.001Z</time></trkpt><trkpt lat="41.28899830591929" lon="13.98352177956008"><ele>599.0</ele><time>2026-04-04T13:11:26.001Z</time></trkpt><trkpt lat="41.289057229420315" lon="13.983555602183372"><ele>600.0</ele><time>2026-04-04T13:11:27.001Z</time></trkpt><trkpt lat="41.28912355759355" lon="13.983549492446526"><ele>601.0</ele><time>2026-04-04T13:11:30.001Z</time></trkpt><trkpt lat="41.28910560460957" lon="13.983468452534884"><ele>602.0</ele><time>2026-04-04T13:11:55.001Z</time></trkpt><trkpt lat="41.28899297890735" lon="13.98342483471999"><ele>603.0</ele><time>2026-04-04T13:11:56.001Z</time></trkpt><trkpt lat="41.289165660248884" lon="13.98350985475048"><ele>604.0</ele><time>2026-04-04T13:11:59.001Z</time></trkpt><trkpt lat="41.2892445664505" lon="13.983553313701513"><ele>604.0</ele><time>2026-04-04T13:12:21.002Z</time></trkpt><trkpt lat="41.28932855332958" lon="13.983575735644928"><ele>604.0</ele><time>2026-04-04T13:12:23.002Z</time></trkpt><trkpt lat="41.28945009103242" lon="13.983485516864958"><ele>604.0</ele><time>2026-04-04T13:12:25.002Z</time></trkpt><trkpt lat="41.2894785047704" lon="13.983373355675582"><ele>604.0</ele><time>2026-04-04T13:12:26.002Z</time></trkpt><trkpt lat="41.28952659823862" lon="13.983256883883422"><ele>604.0</ele><time>2026-04-04T13:12:27.002Z</time></trkpt><trkpt lat="41.28957398215492" lon="13.983120222131566"><ele>605.0</ele><time>2026-04-04T13:12:28.002Z</time></trkpt><trkpt lat="41.289603348220695" lon="13.98300062541665"><ele>606.0</ele><time>2026-04-04T13:12:29.002Z</time></trkpt><trkpt lat="41.28964595229331" lon="13.982905443394243"><ele>607.0</ele><time>2026-04-04T13:12:30.002Z</time></trkpt><trkpt lat="41.289730407707445" lon="13.9828090550262"><ele>608.0</ele><time>2026-04-04T13:12:32.002Z</time></trkpt><trkpt lat="41.28985313600021" lon="13.982891057837362"><ele>609.0</ele><time>2026-04-04T13:12:33.002Z</time></trkpt><trkpt lat="41.28998800557445" lon="13.9829687591309"><ele>610.25</ele><time>2026-04-04T13:12:34.002Z</time></trkpt><trkpt lat="41.29012623229558" lon="13.983039769405273"><ele>611.5</ele><time>2026-04-04T13:12:35Z</time></trkpt><trkpt lat="41.290258810589215" lon="13.983101182405669"><ele>612.75</ele><time>2026-04-04T13:12:36Z</time></trkpt><trkpt lat="41.29037889936805" lon="13.983140285849796"><ele>614.0</ele><time>2026-04-04T13:12:37Z</time></trkpt><trkpt lat="41.29050797906791" lon="13.9831564921572"><ele>615.25</ele><time>2026-04-04T13:12:38Z</time></trkpt><trkpt lat="41.29066263011546" lon="13.983173229994662"><ele>616.5</ele><time>2026-04-04T13:12:39Z</time></trkpt><trkpt lat="41.29081853220844" lon="13.983175976551015"><ele>617.75</ele><time>2026-04-04T13:12:40Z</time></trkpt><trkpt lat="41.29094063720499" lon="13.983153556298756"><ele>619.0</ele><time>2026-04-04T13:12:41Z</time></trkpt><trkpt lat="41.29108774319951" lon="13.983120111101144"><ele>619.0</ele><time>2026-04-04T13:12:42Z</time></trkpt><trkpt lat="41.29119971277607" lon="13.983058401064023"><ele>619.0</ele><time>2026-04-04T13:12:43Z</time></trkpt><trkpt lat="41.29129185636149" lon="13.98300627674539"><ele>619.0</ele><time>2026-04-04T13:12:44Z</time></trkpt><trkpt lat="41.291387093848414" lon="13.982979906154084"><ele>619.0</ele><time>2026-04-04T13:12:45Z</time></trkpt><trkpt lat="41.29147522819966" lon="13.982968446689725"><ele>619.0</ele><time>2026-04-04T13:12:46Z</time></trkpt><trkpt lat="41.291555515103845" lon="13.98297615231065"><ele>619.6</ele><time>2026-04-04T13:12:47Z</time></trkpt><trkpt lat="41.29165436498477" lon="13.982981580845706"><ele>620.2</ele><time>2026-04-04T13:12:48Z</time></trkpt><trkpt lat="41.29174791657478" lon="13.982958202061077"><ele>620.8000000000001</ele><time>2026-04-04T13:12:49Z</time></trkpt><trkpt lat="41.29185052965979" lon="13.982851278916458"><ele>621.4</ele><time>2026-04-04T13:12:50Z</time></trkpt><trkpt lat="41.291954038555986" lon="13.982794713335167"><ele>622.0</ele><time>2026-04-04T13:12:51Z</time></trkpt><trkpt lat="41.29206011404439" lon="13.982822394824742"><ele>622.0</ele><time>2026-04-04T13:12:52Z</time></trkpt><trkpt lat="41.29215997025402" lon="13.982885446394015"><ele>622.0</ele><time>2026-04-04T13:12:53Z</time></trkpt><trkpt lat="41.29235599430626" lon="13.983000116174425"><ele>622.0</ele><time>2026-04-04T13:12:54Z</time></trkpt><trkpt lat="41.292473145311185" lon="13.983080013010557"><ele>621.25</ele><time>2026-04-04T13:12:55Z</time></trkpt><trkpt lat="41.292612179371865" lon="13.983151594960432"><ele>620.5</ele><time>2026-04-04T13:12:56Z</time></trkpt><trkpt lat="41.29273569570565" lon="13.98322816206736"><ele>619.75</ele><time>2026-04-04T13:12:57Z</time></trkpt><trkpt lat="41.29285924045786" lon="13.98329220059161"><ele>619.0</ele><time>2026-04-04T13:12:58Z</time></trkpt><trkpt lat="41.29298885093517" lon="13.983356665159269"><ele>621.3333333333334</ele><time>2026-04-04T13:12:59Z</time></trkpt><trkpt lat="41.29314263461627" lon="13.983419621590032"><ele>623.6666666666666</ele><time>2026-04-04T13:13:00Z</time></trkpt><trkpt lat="41.293277087925595" lon="13.983487651457944"><ele>626.0</ele><time>2026-04-04T13:13:01Z</time></trkpt><trkpt lat="41.293418958009866" lon="13.983576988613146"><ele>626.0</ele><time>2026-04-04T13:13:02Z</time></trkpt><trkpt lat="41.293545118611206" lon="13.983674838512114"><ele>626.0</ele><time>2026-04-04T13:13:03Z</time></trkpt><trkpt lat="41.293659062534054" lon="13.983758144773368"><ele>626.0</ele><time>2026-04-04T13:13:04Z</time></trkpt><trkpt lat="41.29376035421335" lon="13.983846006894865"><ele>626.0</ele><time>2026-04-04T13:13:05Z</time></trkpt><trkpt lat="41.29386295427484" lon="13.983926261038826"><ele>629.5</ele><time>2026-04-04T13:13:06Z</time></trkpt><trkpt lat="41.29396827294699" lon="13.983992111449876"><ele>633.0</ele><time>2026-04-04T13:13:07Z</time></trkpt><trkpt lat="41.29406910126933" lon="13.984053913125756"><ele>636.5</ele><time>2026-04-04T13:13:08Z</time></trkpt><trkpt lat="41.29419772742538" lon="13.984101054778998"><ele>640.0</ele><time>2026-04-04T13:13:09Z</time></trkpt><trkpt lat="41.294328162033864" lon="13.984074952560714"><ele>640.0</ele><time>2026-04-04T13:13:10Z</time></trkpt><trkpt lat="41.29444535764048" lon="13.984036645876982"><ele>640.0</ele><time>2026-04-04T13:13:11Z</time></trkpt><trkpt lat="41.29454944050852" lon="13.983994824963746"><ele>640.0</ele><time>2026-04-04T13:13:12Z</time></trkpt><trkpt lat="41.294650725524704" lon="13.984012597298685"><ele>640.0</ele><time>2026-04-04T13:13:13Z</time></trkpt><trkpt lat="41.294723530666765" lon="13.984108191459553"><ele>640.0</ele><time>2026-04-04T13:13:14Z</time></trkpt><trkpt lat="41.29483070020814" lon="13.984211993212654"><ele>639.5</ele><time>2026-04-04T13:13:15.001Z</time></trkpt><trkpt lat="41.29489988493893" lon="13.98427161908044"><ele>639.0</ele><time>2026-04-04T13:13:16.001Z</time></trkpt><trkpt lat="41.29496391045758" lon="13.984316793277332"><ele>638.5</ele><time>2026-04-04T13:13:17.001Z</time></trkpt><trkpt lat="41.295032084207264" lon="13.984312683963147"><ele>638.0</ele><time>2026-04-04T13:13:18.001Z</time></trkpt><trkpt lat="41.29508089383344" lon="13.98425449887094"><ele>637.5</ele><time>2026-04-04T13:13:19.001Z</time></trkpt><trkpt lat="41.29505288987124" lon="13.984131821295213"><ele>637.0</ele><time>2026-04-04T13:13:20.001Z</time></trkpt><trkpt lat="41.29501056456837" lon="13.984034335233655"><ele>637.75</ele><time>2026-04-04T13:13:21.001Z</time></trkpt><trkpt lat="41.294897462057236" lon="13.98398296636061"><ele>638.5</ele><time>2026-04-04T13:13:22.001Z</time></trkpt><trkpt lat="41.29479311805034" lon="13.983885501263972"><ele>639.25</ele><time>2026-04-04T13:13:23.001Z</time></trkpt><trkpt lat="41.294683560430805" lon="13.983763859365872"><ele>640.0</ele><time>2026-04-04T13:13:24.001Z</time></trkpt><trkpt lat="41.29458348035745" lon="13.983602501275897"><ele>640.0</ele><time>2026-04-04T13:13:25.001Z</time></trkpt><trkpt lat="41.29438193374477" lon="13.983663806898724"><ele>640.0</ele><time>2026-04-04T13:13:26.001Z</time></trkpt><trkpt lat="41.29422608095751" lon="13.98359499543617"><ele>640.0</ele><time>2026-04-04T13:13:27.001Z</time></trkpt><trkpt lat="41.29409362524177" lon="13.983509223546358"><ele>640.0</ele><time>2026-04-04T13:13:28.001Z</time></trkpt><trkpt lat="41.29395270969331" lon="13.98338903120071"><ele>640.0</ele><time>2026-04-04T13:13:29.001Z</time></trkpt><trkpt lat="41.29383815324416" lon="13.98320134146322"><ele>640.0</ele><time>2026-04-04T13:13:30.001Z</time></trkpt><trkpt lat="41.293748153495564" lon="13.983102328200555"><ele>640.6</ele><time>2026-04-04T13:13:31.001Z</time></trkpt><trkpt lat="41.293702060146906" lon="13.983019386921152"><ele>641.2</ele><time>2026-04-04T13:13:32.001Z</time></trkpt><trkpt lat="41.29365758153054" lon="13.982934013581836"><ele>641.8</ele><time>2026-04-04T13:13:33.001Z</time></trkpt><trkpt lat="41.29364492743891" lon="13.982825501868788"><ele>642.4</ele><time>2026-04-04T13:13:34.001Z</time></trkpt><trkpt lat="41.29367851608323" lon="13.982705587892372"><ele>643.0</ele><time>2026-04-04T13:13:35.001Z</time></trkpt><trkpt lat="41.2937136309701" lon="13.982540851006732"><ele>647.6666666666667</ele><time>2026-04-04T13:13:36.001Z</time></trkpt><trkpt lat="41.29376038614156" lon="13.982337032340316"><ele>652.3333333333334</ele><time>2026-04-04T13:13:37.001Z</time></trkpt><trkpt lat="41.29381024876201" lon="13.98213995384221"><ele>657.0</ele><time>2026-04-04T13:13:38.001Z</time></trkpt><trkpt lat="41.29385734900884" lon="13.98195856893568"><ele>657.0</ele><time>2026-04-04T13:13:39.001Z</time></trkpt><trkpt lat="41.29390244861091" lon="13.98180075661175"><ele>657.0</ele><time>2026-04-04T13:13:40.001Z</time></trkpt><trkpt lat="41.29395798385871" lon="13.981639355273995"><ele>657.0</ele><time>2026-04-04T13:13:41.001Z</time></trkpt><trkpt lat="41.29398917602246" lon="13.981534776271726"><ele>657.0</ele><time>2026-04-04T13:13:42.001Z</time></trkpt><trkpt lat="41.29398880412342" lon="13.981347238901305"><ele>658.6</ele><time>2026-04-04T13:13:43.001Z</time></trkpt><trkpt lat="41.29392849573824" lon="13.98116196142211"><ele>660.2</ele><time>2026-04-04T13:13:44.001Z</time></trkpt><trkpt lat="41.29390240825531" lon="13.981043347268805"><ele>661.8</ele><time>2026-04-04T13:13:45.001Z</time></trkpt><trkpt lat="41.293872506697504" lon="13.980949241395699"><ele>663.4</ele><time>2026-04-04T13:13:46.001Z</time></trkpt><trkpt lat="41.29385923288783" lon="13.980859473711424"><ele>665.0</ele><time>2026-04-04T13:13:47.001Z</time></trkpt><trkpt lat="41.293922026999894" lon="13.980784594220852"><ele>669.0</ele><time>2026-04-04T13:13:49.001Z</time></trkpt><trkpt lat="41.29405122683152" lon="13.980801889218046"><ele>673.0</ele><time>2026-04-04T13:13:51.001Z</time></trkpt><trkpt lat="41.29412921142133" lon="13.98096228699209"><ele>677.0</ele><time>2026-04-04T13:13:52.001Z</time></trkpt><trkpt lat="41.29420499131744" lon="13.981111220935567"><ele>681.0</ele><time>2026-04-04T13:13:53.001Z</time></trkpt><trkpt lat="41.294275487767926" lon="13.981266093495604"><ele>681.0</ele><time>2026-04-04T13:13:54.001Z</time></trkpt><trkpt lat="41.29429715359435" lon="13.981398421892953"><ele>681.0</ele><time>2026-04-04T13:13:55.001Z</time></trkpt><trkpt lat="41.29430171822606" lon="13.981532147604417"><ele>681.0</ele><time>2026-04-04T13:13:56.001Z</time></trkpt><trkpt lat="41.29425215429239" lon="13.981607601422203"><ele>681.0</ele><time>2026-04-04T13:13:57.001Z</time></trkpt><trkpt lat="41.29422350517946" lon="13.981779229891803"><ele>681.0</ele><time>2026-04-04T13:13:58.001Z</time></trkpt><trkpt lat="41.294201669654754" lon="13.98191410850616"><ele>680.25</ele><time>2026-04-04T13:13:59.001Z</time></trkpt><trkpt lat="41.29425809926003" lon="13.982042144954738"><ele>679.5</ele><time>2026-04-04T13:14:00.001Z</time></trkpt><trkpt lat="41.294327363648556" lon="13.982188461267446"><ele>678.75</ele><time>2026-04-04T13:14:01.001Z</time></trkpt><trkpt lat="41.294422106244724" lon="13.982318464351748"><ele>678.0</ele><time>2026-04-04T13:14:02.001Z</time></trkpt><trkpt lat="41.294545675034755" lon="13.982422834642415"><ele>675.3333333333334</ele><time>2026-04-04T13:14:03.001Z</time></trkpt><trkpt lat="41.29467425576877" lon="13.982521782618917"><ele>672.6666666666667</ele><time>2026-04-04T13:14:04.001Z</time></trkpt><trkpt lat="41.294830840438436" lon="13.982595277668304"><ele>670.0</ele><time>2026-04-04T13:14:05.001Z</time></trkpt><trkpt lat="41.29502291076954" lon="13.982649429587099"><ele>670.0</ele><time>2026-04-04T13:14:06.001Z</time></trkpt><trkpt lat="41.295225687547735" lon="13.982692469869054"><ele>670.0</ele><time>2026-04-04T13:14:07.001Z</time></trkpt><trkpt lat="41.29544341854267" lon="13.982711894703183"><ele>670.0</ele><time>2026-04-04T13:14:08.001Z</time></trkpt><trkpt lat="41.29563990960803" lon="13.982711708071413"><ele>672.6666666666667</ele><time>2026-04-04T13:14:09.001Z</time></trkpt><trkpt lat="41.29580823128365" lon="13.982743773388735"><ele>675.3333333333334</ele><time>2026-04-04T13:14:10.001Z</time></trkpt><trkpt lat="41.29595142336007" lon="13.982811551869595"><ele>678.0</ele><time>2026-04-04T13:14:11.002Z</time></trkpt><trkpt lat="41.296085319270894" lon="13.982909286981174"><ele>678.0</ele><time>2026-04-04T13:14:12.002Z</time></trkpt><trkpt lat="41.29621679435056" lon="13.982966670048079"><ele>678.0</ele><time>2026-04-04T13:14:13.002Z</time></trkpt><trkpt lat="41.29634282826744" lon="13.983039722983229"><ele>678.0</ele><time>2026-04-04T13:14:14.002Z</time></trkpt><trkpt lat="41.29645125734234" lon="13.983066790589884"><ele>678.0</ele><time>2026-04-04T13:14:15.002Z</time></trkpt><trkpt lat="41.29656284491553" lon="13.983075944573326"><ele>680.0</ele><time>2026-04-04T13:14:16.002Z</time></trkpt><trkpt lat="41.29669469332989" lon="13.98304374603947"><ele>682.0</ele><time>2026-04-04T13:14:17.002Z</time></trkpt><trkpt lat="41.29684817553892" lon="13.982969996835926"><ele>684.0</ele><time>2026-04-04T13:14:18.002Z</time></trkpt><trkpt lat="41.296990463624645" lon="13.982912032790619"><ele>686.0</ele><time>2026-04-04T13:14:19.002Z</time></trkpt><trkpt lat="41.297107266868004" lon="13.982852472100562"><ele>686.0</ele><time>2026-04-04T13:14:20.002Z</time></trkpt><trkpt lat="41.297199789867" lon="13.982762996964182"><ele>686.0</ele><time>2026-04-04T13:14:21.002Z</time></trkpt><trkpt lat="41.29729031474403" lon="13.982661139109766"><ele>686.0</ele><time>2026-04-04T13:14:22.002Z</time></trkpt><trkpt lat="41.297361236992295" lon="13.982554513174236"><ele>686.0</ele><time>2026-04-04T13:14:23.002Z</time></trkpt><trkpt lat="41.297379460817425" lon="13.98244374205042"><ele>686.0</ele><time>2026-04-04T13:14:24.002Z</time></trkpt><trkpt lat="41.297355159785695" lon="13.982310389398846"><ele>688.1999999999999</ele><time>2026-04-04T13:14:25.002Z</time></trkpt><trkpt lat="41.297305948426356" lon="13.982210140636948"><ele>690.4</ele><time>2026-04-04T13:14:26.002Z</time></trkpt><trkpt lat="41.297236712306976" lon="13.982149885795957"><ele>692.6</ele><time>2026-04-04T13:14:27.002Z</time></trkpt><trkpt lat="41.29719778944948" lon="13.982059234287547"><ele>694.8</ele><time>2026-04-04T13:14:28.002Z</time></trkpt><trkpt lat="41.297324516898335" lon="13.981977410367907"><ele>697.0</ele><time>2026-04-04T13:14:30.002Z</time></trkpt><trkpt lat="41.29734823814422" lon="13.981892350604225"><ele>697.0</ele><time>2026-04-04T13:14:31.002Z</time></trkpt><trkpt lat="41.29736831144783" lon="13.981795137351748"><ele>697.0</ele><time>2026-04-04T13:14:32.002Z</time></trkpt><trkpt lat="41.29746700948608" lon="13.981688062027285"><ele>697.0</ele><time>2026-04-04T13:14:33.002Z</time></trkpt><trkpt lat="41.29759584935576" lon="13.981581242544157"><ele>697.0</ele><time>2026-04-04T13:14:34.002Z</time></trkpt><trkpt lat="41.2977270112969" lon="13.981467267842666"><ele>698.75</ele><time>2026-04-04T13:14:35.002Z</time></trkpt><trkpt lat="41.29784321619559" lon="13.981374879791861"><ele>700.5</ele><time>2026-04-04T13:14:36.002Z</time></trkpt><trkpt lat="41.29795578411124" lon="13.981289436090005"><ele>702.25</ele><time>2026-04-04T13:14:37.002Z</time></trkpt><trkpt lat="41.29809297014598" lon="13.981243974390484"><ele>704.0</ele><time>2026-04-04T13:14:38.002Z</time></trkpt><trkpt lat="41.29822437132541" lon="13.981205929864089"><ele>705.0</ele><time>2026-04-04T13:14:39.002Z</time></trkpt><trkpt lat="41.29835364308127" lon="13.981176735721354"><ele>706.0</ele><time>2026-04-04T13:14:40.002Z</time></trkpt><trkpt lat="41.29847205010086" lon="13.981159224571119"><ele>707.0</ele><time>2026-04-04T13:14:41Z</time></trkpt><trkpt lat="41.298575185008765" lon="13.981162082821994"><ele>708.0</ele><time>2026-04-04T13:14:42Z</time></trkpt><trkpt lat="41.29867778304941" lon="13.981179045101007"><ele>708.0</ele><time>2026-04-04T13:14:43Z</time></trkpt><trkpt lat="41.2987613723393" lon="13.981277720783005"><ele>708.0</ele><time>2026-04-04T13:14:44Z</time></trkpt><trkpt lat="41.29882965329861" lon="13.981402629469661"><ele>708.0</ele><time>2026-04-04T13:14:45Z</time></trkpt><trkpt lat="41.29885856427103" lon="13.981554114270583"><ele>708.0</ele><time>2026-04-04T13:14:46Z</time></trkpt><trkpt lat="41.298833568813684" lon="13.981704653935376"><ele>706.3333333333334</ele><time>2026-04-04T13:14:47Z</time></trkpt><trkpt lat="41.298809311117935" lon="13.98188830786899"><ele>704.6666666666667</ele><time>2026-04-04T13:14:48Z</time></trkpt><trkpt lat="41.298761491939224" lon="13.9821229711282"><ele>703.0</ele><time>2026-04-04T13:14:49Z</time></trkpt><trkpt lat="41.298738258257224" lon="13.982339035513576"><ele>702.5</ele><time>2026-04-04T13:14:50Z</time></trkpt><trkpt lat="41.29871597176645" lon="13.982547886049867"><ele>702.0</ele><time>2026-04-04T13:14:51Z</time></trkpt><trkpt lat="41.298691100037836" lon="13.982740105422716"><ele>701.5</ele><time>2026-04-04T13:14:52Z</time></trkpt><trkpt lat="41.29867932903056" lon="13.982910901166724"><ele>701.0</ele><time>2026-04-04T13:14:53Z</time></trkpt><trkpt lat="41.2986940045642" lon="13.983089803776972"><ele>701.0</ele><time>2026-04-04T13:14:54Z</time></trkpt><trkpt lat="41.298739699592275" lon="13.983287703986425"><ele>701.0</ele><time>2026-04-04T13:14:55Z</time></trkpt><trkpt lat="41.29878789874449" lon="13.983496715161523"><ele>701.0</ele><time>2026-04-04T13:14:56Z</time></trkpt><trkpt lat="41.29885758306551" lon="13.983705919548543"><ele>704.6666666666666</ele><time>2026-04-04T13:14:57Z</time></trkpt><trkpt lat="41.29894521560707" lon="13.983914754896695"><ele>708.3333333333334</ele><time>2026-04-04T13:14:58Z</time></trkpt><trkpt lat="41.299029620831604" lon="13.98411799330787"><ele>712.0</ele><time>2026-04-04T13:14:59Z</time></trkpt><trkpt lat="41.299113831717676" lon="13.98431334059516"><ele>712.0</ele><time>2026-04-04T13:15:00Z</time></trkpt><trkpt lat="41.29919861318192" lon="13.984508252340392"><ele>712.0</ele><time>2026-04-04T13:15:01Z</time></trkpt><trkpt lat="41.29930147336982" lon="13.984686035801992"><ele>712.0</ele><time>2026-04-04T13:15:02Z</time></trkpt><trkpt lat="41.29940594294438" lon="13.984846547840041"><ele>712.0</ele><time>2026-04-04T13:15:03Z</time></trkpt><trkpt lat="41.29949753341493" lon="13.985004914132544"><ele>712.0</ele><time>2026-04-04T13:15:04Z</time></trkpt><trkpt lat="41.29961199933274" lon="13.985141471043143"><ele>712.0</ele><time>2026-04-04T13:15:05Z</time></trkpt><trkpt lat="41.29973434929655" lon="13.985285228497919"><ele>717.0</ele><time>2026-04-04T13:15:06Z</time></trkpt><trkpt lat="41.2998776099226" lon="13.985416277082741"><ele>722.0</ele><time>2026-04-04T13:15:07Z</time></trkpt><trkpt lat="41.30002175506172" lon="13.985563865261474"><ele>727.0</ele><time>2026-04-04T13:15:08Z</time></trkpt><trkpt lat="41.30015677297656" lon="13.985728769685544"><ele>718.3333333333334</ele><time>2026-04-04T13:15:09Z</time></trkpt><trkpt lat="41.30030746583482" lon="13.98585675352893"><ele>709.6666666666666</ele><time>2026-04-04T13:15:10Z</time></trkpt><trkpt lat="41.30044016033388" lon="13.985966577140381"><ele>701.0</ele><time>2026-04-04T13:15:11Z</time></trkpt><trkpt lat="41.300559745253054" lon="13.986073690267744"><ele>707.0</ele><time>2026-04-04T13:15:12Z</time></trkpt><trkpt lat="41.3006732930702" lon="13.986162650825689"><ele>713.0</ele><time>2026-04-04T13:15:13Z</time></trkpt><trkpt lat="41.3007971742375" lon="13.986232511765856"><ele>719.0</ele><time>2026-04-04T13:15:14Z</time></trkpt><trkpt lat="41.30091962641158" lon="13.986300463802051"><ele>725.0</ele><time>2026-04-04T13:15:15Z</time></trkpt><trkpt lat="41.30104619265906" lon="13.986338426970274"><ele>725.0</ele><time>2026-04-04T13:15:16Z</time></trkpt><trkpt lat="41.30117738855356" lon="13.986362390307175"><ele>725.0</ele><time>2026-04-04T13:15:17.001Z</time></trkpt><trkpt lat="41.30130240387973" lon="13.986322330550278"><ele>725.0</ele><time>2026-04-04T13:15:18.001Z</time></trkpt><trkpt lat="41.30140619134773" lon="13.986306182434332"><ele>725.0</ele><time>2026-04-04T13:15:19.001Z</time></trkpt><trkpt lat="41.301489610384515" lon="13.986250611508627"><ele>726.2</ele><time>2026-04-04T13:15:20.001Z</time></trkpt><trkpt lat="41.301546465667684" lon="13.986198367914907"><ele>727.4</ele><time>2026-04-04T13:15:21.001Z</time></trkpt><trkpt lat="41.30161628214592" lon="13.98610716162606"><ele>728.5999999999999</ele><time>2026-04-04T13:15:23.001Z</time></trkpt><trkpt lat="41.301693386573454" lon="13.985997043074052"><ele>729.8</ele><time>2026-04-04T13:15:25.001Z</time></trkpt><trkpt lat="41.30173628117132" lon="13.985894241707454"><ele>731.0</ele><time>2026-04-04T13:15:26.001Z</time></trkpt><trkpt lat="41.30181704717323" lon="13.985792751118087"><ele>738.25</ele><time>2026-04-04T13:15:27.001Z</time></trkpt><trkpt lat="41.30189887855275" lon="13.985655483206282"><ele>745.5</ele><time>2026-04-04T13:15:28.001Z</time></trkpt><trkpt lat="41.301984900177814" lon="13.985523302401623"><ele>752.75</ele><time>2026-04-04T13:15:29.001Z</time></trkpt><trkpt lat="41.30207430281092" lon="13.98536059863255"><ele>760.0</ele><time>2026-04-04T13:15:30.001Z</time></trkpt><trkpt lat="41.3021627518588" lon="13.9852135655337"><ele>760.0</ele><time>2026-04-04T13:15:31.001Z</time></trkpt><trkpt lat="41.30223651317344" lon="13.985099552068293"><ele>760.0</ele><time>2026-04-04T13:15:32.001Z</time></trkpt><trkpt lat="41.30230353572903" lon="13.985003446739993"><ele>760.0</ele><time>2026-04-04T13:15:33.001Z</time></trkpt><trkpt lat="41.30235894465668" lon="13.984908722354474"><ele>760.0</ele><time>2026-04-04T13:15:34.001Z</time></trkpt><trkpt lat="41.302381176001894" lon="13.98483017905112"><ele>760.0</ele><time>2026-04-04T13:15:35.001Z</time></trkpt><trkpt lat="41.302451761685546" lon="13.984729913759546"><ele>761.1666666666667</ele><time>2026-04-04T13:15:37.001Z</time></trkpt><trkpt lat="41.30232517092968" lon="13.984782931920234"><ele>762.3333333333334</ele><time>2026-04-04T13:15:42.001Z</time></trkpt><trkpt lat="41.30232405147669" lon="13.984881993660586"><ele>763.5</ele><time>2026-04-04T13:15:44.001Z</time></trkpt><trkpt lat="41.30227943887791" lon="13.985001630576114"><ele>764.6666666666666</ele><time>2026-04-04T13:15:46.001Z</time></trkpt><trkpt lat="41.302318360153535" lon="13.985071879968906"><ele>765.8333333333333</ele><time>2026-04-04T13:15:48.001Z</time></trkpt><trkpt lat="41.30235180153472" lon="13.985154140658913"><ele>767.0</ele><time>2026-04-04T13:16:53Z</time></trkpt><trkpt lat="41.302279621202445" lon="13.985137185656548"><ele>767.0</ele><time>2026-04-04T13:17:17Z</time></trkpt><trkpt lat="41.30226135810252" lon="13.985018771045423"><ele>767.0</ele><time>2026-04-04T13:17:20Z</time></trkpt><trkpt lat="41.30232947844214" lon="13.984910546239622"><ele>767.0</ele><time>2026-04-04T13:17:22Z</time></trkpt><trkpt lat="41.30235677708607" lon="13.984766090269828"><ele>767.0</ele><time>2026-04-04T13:17:24Z</time></trkpt><trkpt lat="41.302294555215006" lon="13.984699430623085"><ele>767.0</ele><time>2026-04-04T13:17:26Z</time></trkpt><trkpt lat="41.302214184850556" lon="13.984751681989968"><ele>767.0</ele><time>2026-04-04T13:17:28Z</time></trkpt><trkpt lat="41.30227920664316" lon="13.984866936726975"><ele>767.0</ele><time>2026-04-04T13:17:29Z</time></trkpt><trkpt lat="41.30224101090251" lon="13.98493615676928"><ele>767.0</ele><time>2026-04-04T13:17:32Z</time></trkpt><trkpt lat="41.30228693473805" lon="13.984852678532441"><ele>767.0</ele><time>2026-04-04T13:17:44.001Z</time></trkpt><trkpt lat="41.30234812569433" lon="13.984739781685088"><ele>767.0</ele><time>2026-04-04T13:17:47.001Z</time></trkpt><trkpt lat="41.30239449641407" lon="13.984635846702096"><ele>767.0</ele><time>2026-04-04T13:17:50.001Z</time></trkpt><trkpt lat="41.30238033905455" lon="13.984720690568055"><ele>767.0</ele><time>2026-04-04T13:17:54.001Z</time></trkpt><trkpt lat="41.30233776127828" lon="13.984796748070496"><ele>767.0</ele><time>2026-04-04T13:17:56.001Z</time></trkpt><trkpt lat="41.30228969557217" lon="13.98488542825568"><ele>767.0</ele><time>2026-04-04T13:17:58.001Z</time></trkpt><trkpt lat="41.30224163988486" lon="13.98497204248287"><ele>767.0</ele><time>2026-04-04T13:18:00.001Z</time></trkpt><trkpt lat="41.30218947351167" lon="13.985063617471322"><ele>767.0</ele><time>2026-04-04T13:18:03.001Z</time></trkpt><trkpt lat="41.3021443262446" lon="13.98515254437982"><ele>767.0</ele><time>2026-04-04T13:18:06.001Z</time></trkpt><trkpt lat="41.3020939619186" lon="13.985233686917843"><ele>765.8333333333333</ele><time>2026-04-04T13:23:26Z</time></trkpt><trkpt lat="41.30202199031806" lon="13.985299408594019"><ele>764.6666666666666</ele><time>2026-04-04T13:23:28Z</time></trkpt><trkpt lat="41.3019574261236" lon="13.985426191858098"><ele>763.5</ele><time>2026-04-04T13:23:30Z</time></trkpt><trkpt lat="41.3019183888143" lon="13.985492584727863"><ele>762.3333333333334</ele><time>2026-04-04T13:23:31Z</time></trkpt><trkpt lat="41.30187251222897" lon="13.9855706095828"><ele>761.1666666666667</ele><time>2026-04-04T13:23:32Z</time></trkpt><trkpt lat="41.30182441955982" lon="13.985655361673578"><ele>760.0</ele><time>2026-04-04T13:23:33Z</time></trkpt><trkpt lat="41.30177296428338" lon="13.985746209432534"><ele>760.0</ele><time>2026-04-04T13:23:34Z</time></trkpt><trkpt lat="41.30172099834007" lon="13.985837958984863"><ele>760.0</ele><time>2026-04-04T13:23:35Z</time></trkpt><trkpt lat="41.301669627983166" lon="13.985928656966474"><ele>760.0</ele><time>2026-04-04T13:23:36Z</time></trkpt><trkpt lat="41.301613924783204" lon="13.986017632449038"><ele>760.0</ele><time>2026-04-04T13:23:37Z</time></trkpt><trkpt lat="41.30155159866557" lon="13.986098685020403"><ele>760.0</ele><time>2026-04-04T13:23:38Z</time></trkpt><trkpt lat="41.30148948084476" lon="13.98617344977155"><ele>760.0</ele><time>2026-04-04T13:23:39Z</time></trkpt><trkpt lat="41.30140809856049" lon="13.986233437821364"><ele>754.1666666666667</ele><time>2026-04-04T13:23:40Z</time></trkpt><trkpt lat="41.30132269491757" lon="13.986271768673848"><ele>748.3333333333334</ele><time>2026-04-04T13:23:41Z</time></trkpt><trkpt lat="41.30124184598053" lon="13.986277505062708"><ele>742.5</ele><time>2026-04-04T13:23:42Z</time></trkpt><trkpt lat="41.30116592211416" lon="13.98628161327279"><ele>736.6666666666666</ele><time>2026-04-04T13:23:43Z</time></trkpt><trkpt lat="41.30108914082976" lon="13.986280692127938"><ele>730.8333333333333</ele><time>2026-04-04T13:23:44Z</time></trkpt><trkpt lat="41.3010062452123" lon="13.986269789771267"><ele>725.0</ele><time>2026-04-04T13:23:45Z</time></trkpt><trkpt lat="41.300920554422035" lon="13.986248559674019"><ele>725.0</ele><time>2026-04-04T13:23:46Z</time></trkpt><trkpt lat="41.30083469246918" lon="13.986210761460965"><ele>725.0</ele><time>2026-04-04T13:23:47Z</time></trkpt><trkpt lat="41.30075304865883" lon="13.986162080546702"><ele>725.0</ele><time>2026-04-04T13:23:48Z</time></trkpt><trkpt lat="41.300672224180296" lon="13.986107719877205"><ele>725.0</ele><time>2026-04-04T13:23:49Z</time></trkpt><trkpt lat="41.3005902152054" lon="13.986046078077065"><ele>725.0</ele><time>2026-04-04T13:23:50Z</time></trkpt><trkpt lat="41.300507838118754" lon="13.985983249760539"><ele>725.4</ele><time>2026-04-04T13:23:51Z</time></trkpt><trkpt lat="41.300425977868294" lon="13.98591892178457"><ele>725.8</ele><time>2026-04-04T13:23:52.001Z</time></trkpt><trkpt lat="41.30034214950644" lon="13.985845269886934"><ele>726.2</ele><time>2026-04-04T13:23:53.001Z</time></trkpt><trkpt lat="41.300262689774364" lon="13.985764021517424"><ele>726.6</ele><time>2026-04-04T13:23:54.001Z</time></trkpt><trkpt lat="41.30018239201463" lon="13.98568676570736"><ele>727.0</ele><time>2026-04-04T13:23:55.001Z</time></trkpt><trkpt lat="41.30009948692201" lon="13.985603946343224"><ele>727.0</ele><time>2026-04-04T13:23:56.001Z</time></trkpt><trkpt lat="41.300016200397884" lon="13.985524972855844"><ele>727.0</ele><time>2026-04-04T13:23:57.001Z</time></trkpt><trkpt lat="41.29993287233167" lon="13.985431544447179"><ele>727.0</ele><time>2026-04-04T13:23:58.001Z</time></trkpt><trkpt lat="41.29985368616109" lon="13.985336792673971"><ele>727.0</ele><time>2026-04-04T13:23:59.001Z</time></trkpt><trkpt lat="41.299779298180084" lon="13.985244989042775"><ele>727.0</ele><time>2026-04-04T13:24:00.001Z</time></trkpt><trkpt lat="41.29970917930705" lon="13.985169941651346"><ele>724.5</ele><time>2026-04-04T13:24:01.001Z</time></trkpt><trkpt lat="41.299639927125305" lon="13.985094069544276"><ele>722.0</ele><time>2026-04-04T13:24:02.001Z</time></trkpt><trkpt lat="41.299574700796946" lon="13.985014907977696"><ele>719.5</ele><time>2026-04-04T13:24:03.001Z</time></trkpt><trkpt lat="41.299514387376455" lon="13.984937720348423"><ele>717.0</ele><time>2026-04-04T13:24:04.001Z</time></trkpt><trkpt lat="41.29945913575634" lon="13.984865439307962"><ele>714.5</ele><time>2026-04-04T13:24:05.001Z</time></trkpt><trkpt lat="41.29940064838683" lon="13.984794082399228"><ele>712.0</ele><time>2026-04-04T13:24:06.001Z</time></trkpt><trkpt lat="41.2993493455402" lon="13.984716374559968"><ele>712.0</ele><time>2026-04-04T13:24:07.001Z</time></trkpt><trkpt lat="41.29930546212452" lon="13.98462270061714"><ele>712.0</ele><time>2026-04-04T13:24:08.001Z</time></trkpt><trkpt lat="41.29926232576592" lon="13.984529358304425"><ele>712.0</ele><time>2026-04-04T13:24:09.001Z</time></trkpt><trkpt lat="41.29921562288818" lon="13.984439127354737"><ele>712.0</ele><time>2026-04-04T13:24:10.001Z</time></trkpt><trkpt lat="41.29918112175165" lon="13.984339007791192"><ele>712.0</ele><time>2026-04-04T13:24:11.001Z</time></trkpt><trkpt lat="41.29914458538406" lon="13.984252000713516"><ele>712.0</ele><time>2026-04-04T13:24:12.001Z</time></trkpt><trkpt lat="41.299103965160405" lon="13.984166261996453"><ele>715.3333333333334</ele><time>2026-04-04T13:24:13.001Z</time></trkpt><trkpt lat="41.299060277378224" lon="13.984081758479133"><ele>718.6666666666667</ele><time>2026-04-04T13:24:14.001Z</time></trkpt><trkpt lat="41.2990216345714" lon="13.983992213458274"><ele>722.0</ele><time>2026-04-04T13:24:15.001Z</time></trkpt><trkpt lat="41.29898405796387" lon="13.983898663079993"><ele>725.3333333333334</ele><time>2026-04-04T13:24:16.001Z</time></trkpt><trkpt lat="41.29894796010365" lon="13.983801752406219"><ele>728.6666666666666</ele><time>2026-04-04T13:24:17.001Z</time></trkpt><trkpt lat="41.298913158750224" lon="13.983715265685035"><ele>732.0</ele><time>2026-04-04T13:24:18.001Z</time></trkpt><trkpt lat="41.29887261304604" lon="13.983622963926667"><ele>726.8333333333334</ele><time>2026-04-04T13:24:19.001Z</time></trkpt><trkpt lat="41.298837955745206" lon="13.983524017493599"><ele>721.6666666666666</ele><time>2026-04-04T13:24:20.001Z</time></trkpt><trkpt lat="41.298811058022004" lon="13.98342584401023"><ele>716.5</ele><time>2026-04-04T13:24:21.001Z</time></trkpt><trkpt lat="41.298789631330884" lon="13.983323101804475"><ele>711.3333333333333</ele><time>2026-04-04T13:24:22.001Z</time></trkpt><trkpt lat="41.29875982725774" lon="13.983220327261408"><ele>706.1666666666666</ele><time>2026-04-04T13:24:23.001Z</time></trkpt><trkpt lat="41.29873159794384" lon="13.983109545143959"><ele>701.0</ele><time>2026-04-04T13:24:24.001Z</time></trkpt><trkpt lat="41.29871715198722" lon="13.982997424984232"><ele>701.0</ele><time>2026-04-04T13:24:25.001Z</time></trkpt><trkpt lat="41.298709870817014" lon="13.982871321722335"><ele>701.0</ele><time>2026-04-04T13:24:26.001Z</time></trkpt><trkpt lat="41.298740762501964" lon="13.98274892089645"><ele>701.0</ele><time>2026-04-04T13:24:27.001Z</time></trkpt><trkpt lat="41.29874058233695" lon="13.982616042411943"><ele>701.0</ele><time>2026-04-04T13:24:28.001Z</time></trkpt><trkpt lat="41.29876587268292" lon="13.98250214227811"><ele>701.0</ele><time>2026-04-04T13:24:29.001Z</time></trkpt><trkpt lat="41.29878771336944" lon="13.982376743678152"><ele>701.4</ele><time>2026-04-04T13:24:30.001Z</time></trkpt><trkpt lat="41.29880757015968" lon="13.982244932800265"><ele>701.8</ele><time>2026-04-04T13:24:31.001Z</time></trkpt><trkpt lat="41.29882448320725" lon="13.982101296009596"><ele>702.1999999999999</ele><time>2026-04-04T13:24:32.002Z</time></trkpt><trkpt lat="41.29884260650007" lon="13.981956553372335"><ele>702.5999999999999</ele><time>2026-04-04T13:24:33.002Z</time></trkpt><trkpt lat="41.29886115695022" lon="13.981819332917999"><ele>703.0</ele><time>2026-04-04T13:24:34.002Z</time></trkpt><trkpt lat="41.29887818648742" lon="13.981695797806454"><ele>703.8333333333334</ele><time>2026-04-04T13:24:35.002Z</time></trkpt><trkpt lat="41.298892278815" lon="13.981578743433452"><ele>704.6666666666667</ele><time>2026-04-04T13:24:36.002Z</time></trkpt><trkpt lat="41.298893384640095" lon="13.981470962300925"><ele>705.5</ele><time>2026-04-04T13:24:37.002Z</time></trkpt><trkpt lat="41.29885580546619" lon="13.981381957181975"><ele>706.3333333333334</ele><time>2026-04-04T13:24:38.002Z</time></trkpt><trkpt lat="41.29883537676068" lon="13.981283594455908"><ele>707.1666666666666</ele><time>2026-04-04T13:24:39.002Z</time></trkpt><trkpt lat="41.298775790352344" lon="13.981216737522349"><ele>708.0</ele><time>2026-04-04T13:24:40.002Z</time></trkpt><trkpt lat="41.298706834669055" lon="13.981160556007367"><ele>708.0</ele><time>2026-04-04T13:24:41.002Z</time></trkpt><trkpt lat="41.29864524749622" lon="13.981115517035555"><ele>708.0</ele><time>2026-04-04T13:24:42.002Z</time></trkpt><trkpt lat="41.29857585752634" lon="13.981100295729783"><ele>708.0</ele><time>2026-04-04T13:24:43.002Z</time></trkpt><trkpt lat="41.298504061142914" lon="13.981095585002173"><ele>708.0</ele><time>2026-04-04T13:24:44.002Z</time></trkpt><trkpt lat="41.29842800245522" lon="13.981104431579345"><ele>708.0</ele><time>2026-04-04T13:24:45.002Z</time></trkpt><trkpt lat="41.29834222892033" lon="13.981128209859053"><ele>708.0</ele><time>2026-04-04T13:24:46.002Z</time></trkpt><trkpt lat="41.298256502010545" lon="13.981153970511686"><ele>708.0</ele><time>2026-04-04T13:24:47.002Z</time></trkpt><trkpt lat="41.29817016106196" lon="13.981175388101306"><ele>708.0</ele><time>2026-04-04T13:24:48.002Z</time></trkpt><trkpt lat="41.29808223037196" lon="13.981186118897684"><ele>708.0</ele><time>2026-04-04T13:24:49.002Z</time></trkpt><trkpt lat="41.29800274089606" lon="13.981216066479547"><ele>708.0</ele><time>2026-04-04T13:24:50.002Z</time></trkpt><trkpt lat="41.29793519094569" lon="13.981255881068208"><ele>708.0</ele><time>2026-04-04T13:24:51.002Z</time></trkpt><trkpt lat="41.2978731659961" lon="13.981310010307428"><ele>708.0</ele><time>2026-04-04T13:24:52.002Z</time></trkpt><trkpt lat="41.29778808105298" lon="13.981383340459534"><ele>707.0</ele><time>2026-04-04T13:24:53.002Z</time></trkpt><trkpt lat="41.297691140892944" lon="13.981467483982378"><ele>706.0</ele><time>2026-04-04T13:24:54.002Z</time></trkpt><trkpt lat="41.29759002082259" lon="13.981551334698096"><ele>705.0</ele><time>2026-04-04T13:24:55.002Z</time></trkpt><trkpt lat="41.2974940716231" lon="13.981631357911553"><ele>704.0</ele><time>2026-04-04T13:24:56.002Z</time></trkpt><trkpt lat="41.29740878492685" lon="13.981704808062739"><ele>704.2</ele><time>2026-04-04T13:24:57.002Z</time></trkpt><trkpt lat="41.297338009118484" lon="13.981777970397614"><ele>704.4000000000001</ele><time>2026-04-04T13:24:58.002Z</time></trkpt><trkpt lat="41.29727116430632" lon="13.981836274633695"><ele>704.6</ele><time>2026-04-04T13:24:59.002Z</time></trkpt><trkpt lat="41.29721266292458" lon="13.981889087820498"><ele>704.8</ele><time>2026-04-04T13:25:00.002Z</time></trkpt><trkpt lat="41.2971235004371" lon="13.981956572239557"><ele>705.0</ele><time>2026-04-04T13:25:02.002Z</time></trkpt><trkpt lat="41.29699952035623" lon="13.981924533622845"><ele>705.0</ele><time>2026-04-04T13:25:04.002Z</time></trkpt><trkpt lat="41.296911872307916" lon="13.981860839271098"><ele>705.0</ele><time>2026-04-04T13:25:05.002Z</time></trkpt><trkpt lat="41.296826735994486" lon="13.981794700360888"><ele>705.0</ele><time>2026-04-04T13:25:06.002Z</time></trkpt><trkpt lat="41.2967463509982" lon="13.981736403316111"><ele>705.0</ele><time>2026-04-04T13:25:07.002Z</time></trkpt><trkpt lat="41.29665195506391" lon="13.981675356851111"><ele>705.0</ele><time>2026-04-04T13:25:08.002Z</time></trkpt><trkpt lat="41.296552028721585" lon="13.981580524666338"><ele>705.5</ele><time>2026-04-04T13:25:09.002Z</time></trkpt><trkpt lat="41.29644347915999" lon="13.981478483251095"><ele>706.0</ele><time>2026-04-04T13:25:10.002Z</time></trkpt><trkpt lat="41.29634336913957" lon="13.981375319231686"><ele>706.5</ele><time>2026-04-04T13:25:11Z</time></trkpt><trkpt lat="41.2962644253531" lon="13.981284362098318"><ele>707.0</ele><time>2026-04-04T13:25:12Z</time></trkpt><trkpt lat="41.29619902670125" lon="13.981206306534334"><ele>707.0</ele><time>2026-04-04T13:25:13Z</time></trkpt><trkpt lat="41.29615998571207" lon="13.98111943406003"><ele>707.0</ele><time>2026-04-04T13:25:15Z</time></trkpt><trkpt lat="41.29627197639278" lon="13.980981835324423"><ele>707.0</ele><time>2026-04-04T13:25:17Z</time></trkpt><trkpt lat="41.29634922715971" lon="13.980931105258946"><ele>707.0</ele><time>2026-04-04T13:25:18Z</time></trkpt><trkpt lat="41.29643774650974" lon="13.980882868394632"><ele>707.0</ele><time>2026-04-04T13:25:19Z</time></trkpt><trkpt lat="41.29652340610114" lon="13.980797377256"><ele>707.5</ele><time>2026-04-04T13:25:20Z</time></trkpt><trkpt lat="41.29662600497826" lon="13.980719346552721"><ele>708.0</ele><time>2026-04-04T13:25:21Z</time></trkpt><trkpt lat="41.29673239295995" lon="13.980636686510879"><ele>708.5</ele><time>2026-04-04T13:25:22Z</time></trkpt><trkpt lat="41.2968332446215" lon="13.98056951378532"><ele>709.0</ele><time>2026-04-04T13:25:23Z</time></trkpt><trkpt lat="41.296927330507884" lon="13.980489697966574"><ele>709.0</ele><time>2026-04-04T13:25:24Z</time></trkpt><trkpt lat="41.2970255153671" lon="13.980408959507386"><ele>709.0</ele><time>2026-04-04T13:25:25Z</time></trkpt><trkpt lat="41.29712002287168" lon="13.980330714076839"><ele>709.0</ele><time>2026-04-04T13:25:26Z</time></trkpt><trkpt lat="41.29722145770066" lon="13.980276212200174"><ele>709.0</ele><time>2026-04-04T13:25:27Z</time></trkpt><trkpt lat="41.2973213779405" lon="13.980183409871579"><ele>708.75</ele><time>2026-04-04T13:25:28Z</time></trkpt><trkpt lat="41.29742808595481" lon="13.980106619276544"><ele>708.5</ele><time>2026-04-04T13:25:29Z</time></trkpt><trkpt lat="41.2975190722241" lon="13.980038651206751"><ele>708.25</ele><time>2026-04-04T13:25:30Z</time></trkpt><trkpt lat="41.29761373597704" lon="13.979977230477653"><ele>708.0</ele><time>2026-04-04T13:25:31Z</time></trkpt><trkpt lat="41.29772894466106" lon="13.979911850911439"><ele>709.0</ele><time>2026-04-04T13:25:32Z</time></trkpt><trkpt lat="41.29785608035491" lon="13.979860441000856"><ele>710.0</ele><time>2026-04-04T13:25:33Z</time></trkpt><trkpt lat="41.29798437967621" lon="13.979795598621655"><ele>711.0</ele><time>2026-04-04T13:25:34Z</time></trkpt><trkpt lat="41.29810862482067" lon="13.97969867339379"><ele>712.0</ele><time>2026-04-04T13:25:35Z</time></trkpt><trkpt lat="41.298239365773085" lon="13.979571682373702"><ele>712.6666666666667</ele><time>2026-04-04T13:25:36Z</time></trkpt><trkpt lat="41.298391795562374" lon="13.979447296046159"><ele>713.3333333333334</ele><time>2026-04-04T13:25:37Z</time></trkpt><trkpt lat="41.29853014581928" lon="13.979271415564112"><ele>714.0</ele><time>2026-04-04T13:25:38Z</time></trkpt><trkpt lat="41.29867708345873" lon="13.979109509189765"><ele>716.6666666666666</ele><time>2026-04-04T13:25:39Z</time></trkpt><trkpt lat="41.29882392528976" lon="13.97894046356477"><ele>719.3333333333333</ele><time>2026-04-04T13:25:40Z</time></trkpt><trkpt lat="41.298973913282296" lon="13.978768873346135"><ele>722.0</ele><time>2026-04-04T13:25:41Z</time></trkpt><trkpt lat="41.299127997879786" lon="13.978589897329915"><ele>723.6666666666666</ele><time>2026-04-04T13:25:42Z</time></trkpt><trkpt lat="41.29928206856078" lon="13.978438915493664"><ele>725.3333333333334</ele><time>2026-04-04T13:25:43Z</time></trkpt><trkpt lat="41.29940587316658" lon="13.978279266457296"><ele>727.0</ele><time>2026-04-04T13:25:44.001Z</time></trkpt><trkpt lat="41.299528165428136" lon="13.978145861294227"><ele>728.0</ele><time>2026-04-04T13:25:45.001Z</time></trkpt><trkpt lat="41.299647891959026" lon="13.978014993711211"><ele>729.0</ele><time>2026-04-04T13:25:46.001Z</time></trkpt><trkpt lat="41.2997637094523" lon="13.977881015389503"><ele>730.0</ele><time>2026-04-04T13:25:47.001Z</time></trkpt><trkpt lat="41.29988287208062" lon="13.97774180911379"><ele>732.3333333333334</ele><time>2026-04-04T13:25:48.001Z</time></trkpt><trkpt lat="41.300010118332125" lon="13.977601824694228"><ele>734.6666666666666</ele><time>2026-04-04T13:25:49.001Z</time></trkpt><trkpt lat="41.300148876776966" lon="13.977479067288662"><ele>737.0</ele><time>2026-04-04T13:25:50.001Z</time></trkpt><trkpt lat="41.30028394548274" lon="13.977343491677289"><ele>737.75</ele><time>2026-04-04T13:25:51.001Z</time></trkpt><trkpt lat="41.3003913687039" lon="13.97721064510711"><ele>738.5</ele><time>2026-04-04T13:25:52.001Z</time></trkpt><trkpt lat="41.30050547614304" lon="13.977101545399025"><ele>739.25</ele><time>2026-04-04T13:25:53.001Z</time></trkpt><trkpt lat="41.30060432845993" lon="13.976996493716324"><ele>740.0</ele><time>2026-04-04T13:25:54.001Z</time></trkpt><trkpt lat="41.300692915105465" lon="13.976873900257694"><ele>740.0</ele><time>2026-04-04T13:25:55.001Z</time></trkpt><trkpt lat="41.30078861520448" lon="13.976750886392376"><ele>740.0</ele><time>2026-04-04T13:25:56.001Z</time></trkpt><trkpt lat="41.30088640961054" lon="13.976626397933506"><ele>740.0</ele><time>2026-04-04T13:25:57.001Z</time></trkpt><trkpt lat="41.30099400991415" lon="13.976489426946673"><ele>740.0</ele><time>2026-04-04T13:25:58.001Z</time></trkpt><trkpt lat="41.30106875017904" lon="13.976293943100632"><ele>740.0</ele><time>2026-04-04T13:25:59.001Z</time></trkpt><trkpt lat="41.30118821513012" lon="13.97615825998289"><ele>740.0</ele><time>2026-04-04T13:26:00.001Z</time></trkpt><trkpt lat="41.30128848688488" lon="13.976023574451263"><ele>740.0</ele><time>2026-04-04T13:26:01.001Z</time></trkpt><trkpt lat="41.30138993502848" lon="13.9758927610851"><ele>740.0</ele><time>2026-04-04T13:26:02.001Z</time></trkpt><trkpt lat="41.30149190378011" lon="13.975752927045194"><ele>737.6666666666666</ele><time>2026-04-04T13:26:03.001Z</time></trkpt><trkpt lat="41.301600959389354" lon="13.975613329520893"><ele>735.3333333333334</ele><time>2026-04-04T13:26:04.001Z</time></trkpt><trkpt lat="41.301710333626566" lon="13.975477278317793"><ele>733.0</ele><time>2026-04-04T13:26:05.001Z</time></trkpt><trkpt lat="41.301822892634476" lon="13.975338070720314"><ele>733.0</ele><time>2026-04-04T13:26:06.001Z</time></trkpt><trkpt lat="41.30193887023158" lon="13.975199527336773"><ele>733.0</ele><time>2026-04-04T13:26:07.001Z</time></trkpt><trkpt lat="41.30204940495481" lon="13.975063670671487"><ele>733.0</ele><time>2026-04-04T13:26:08.001Z</time></trkpt><trkpt lat="41.302153063974814" lon="13.974937745834746"><ele>733.0</ele><time>2026-04-04T13:26:09.001Z</time></trkpt><trkpt lat="41.30226086992977" lon="13.974807785128368"><ele>731.0</ele><time>2026-04-04T13:26:10.001Z</time></trkpt><trkpt lat="41.302369997629256" lon="13.974657703661087"><ele>729.0</ele><time>2026-04-04T13:26:11.001Z</time></trkpt><trkpt lat="41.30246609211783" lon="13.974483723652598"><ele>727.0</ele><time>2026-04-04T13:26:12.001Z</time></trkpt><trkpt lat="41.30256369879077" lon="13.974295187117594"><ele>726.6666666666667</ele><time>2026-04-04T13:26:13.001Z</time></trkpt><trkpt lat="41.30265389619613" lon="13.974099307814"><ele>726.3333333333334</ele><time>2026-04-04T13:26:14.001Z</time></trkpt><trkpt lat="41.30274107359231" lon="13.973900881302662"><ele>726.0</ele><time>2026-04-04T13:26:15.001Z</time></trkpt><trkpt lat="41.30281734017918" lon="13.973699137303921"><ele>726.0</ele><time>2026-04-04T13:26:16.001Z</time></trkpt><trkpt lat="41.30289476036149" lon="13.973493882394804"><ele>726.0</ele><time>2026-04-04T13:26:17.001Z</time></trkpt><trkpt lat="41.30297499709387" lon="13.973296130239515"><ele>726.0</ele><time>2026-04-04T13:26:18.001Z</time></trkpt><trkpt lat="41.30305312358379" lon="13.973111304852756"><ele>723.5</ele><time>2026-04-04T13:26:19.001Z</time></trkpt><trkpt lat="41.30312540417017" lon="13.972935776897769"><ele>721.0</ele><time>2026-04-04T13:26:20.001Z</time></trkpt><trkpt lat="41.303189980591554" lon="13.97276599681048"><ele>718.5</ele><time>2026-04-04T13:26:21.001Z</time></trkpt><trkpt lat="41.30324718826443" lon="13.972586801777929"><ele>716.0</ele><time>2026-04-04T13:26:22.001Z</time></trkpt><trkpt lat="41.30328948523118" lon="13.97239540435395"><ele>716.0</ele><time>2026-04-04T13:26:23.001Z</time></trkpt><trkpt lat="41.303323922527376" lon="13.97221070812892"><ele>716.0</ele><time>2026-04-04T13:26:24.001Z</time></trkpt><trkpt lat="41.30336027713573" lon="13.972040505710986"><ele>716.0</ele><time>2026-04-04T13:26:25.002Z</time></trkpt><trkpt lat="41.30341126620907" lon="13.971891694678773"><ele>716.0</ele><time>2026-04-04T13:26:26.002Z</time></trkpt><trkpt lat="41.303479835439205" lon="13.971769849952809"><ele>715.25</ele><time>2026-04-04T13:26:27.002Z</time></trkpt><trkpt lat="41.303554470765405" lon="13.971686735414966"><ele>714.5</ele><time>2026-04-04T13:26:28.002Z</time></trkpt><trkpt lat="41.303657724207554" lon="13.971615814963082"><ele>713.75</ele><time>2026-04-04T13:26:29.002Z</time></trkpt><trkpt lat="41.303784124017625" lon="13.971566353317991"><ele>713.0</ele><time>2026-04-04T13:26:30.002Z</time></trkpt><trkpt lat="41.30392512327887" lon="13.971530590277833"><ele>711.25</ele><time>2026-04-04T13:26:31.002Z</time></trkpt><trkpt lat="41.30405758263302" lon="13.97150760553067"><ele>709.5</ele><time>2026-04-04T13:26:32.002Z</time></trkpt><trkpt lat="41.30418752850541" lon="13.971470117764012"><ele>707.75</ele><time>2026-04-04T13:26:33.002Z</time></trkpt><trkpt lat="41.30432715014102" lon="13.971411259574843"><ele>706.0</ele><time>2026-04-04T13:26:34.002Z</time></trkpt><trkpt lat="41.30445992139223" lon="13.971328028800702"><ele>706.0</ele><time>2026-04-04T13:26:35.002Z</time></trkpt><trkpt lat="41.30459897959225" lon="13.97124309705617"><ele>706.0</ele><time>2026-04-04T13:26:36.002Z</time></trkpt><trkpt lat="41.30471784412188" lon="13.97117467388511"><ele>706.0</ele><time>2026-04-04T13:26:37.002Z</time></trkpt><trkpt lat="41.30483104092479" lon="13.97108777908587"><ele>706.0</ele><time>2026-04-04T13:26:38.002Z</time></trkpt><trkpt lat="41.304954326971796" lon="13.9709748563745"><ele>704.3333333333334</ele><time>2026-04-04T13:26:39.002Z</time></trkpt><trkpt lat="41.30508199574268" lon="13.970834281256748"><ele>702.6666666666666</ele><time>2026-04-04T13:26:40.002Z</time></trkpt><trkpt lat="41.30520429055792" lon="13.97066259243765"><ele>701.0</ele><time>2026-04-04T13:26:41.002Z</time></trkpt><trkpt lat="41.30532963477672" lon="13.970479992983973"><ele>701.0</ele><time>2026-04-04T13:26:42.002Z</time></trkpt><trkpt lat="41.3054561344355" lon="13.97029407201154"><ele>701.0</ele><time>2026-04-04T13:26:43.002Z</time></trkpt><trkpt lat="41.30559608643009" lon="13.970115275642273"><ele>701.0</ele><time>2026-04-04T13:26:44.002Z</time></trkpt><trkpt lat="41.3057240987675" lon="13.969942339012405"><ele>699.3333333333333</ele><time>2026-04-04T13:26:45.002Z</time></trkpt><trkpt lat="41.305853914943796" lon="13.969770244587407"><ele>697.6666666666666</ele><time>2026-04-04T13:26:46.002Z</time></trkpt><trkpt lat="41.30597621661878" lon="13.969593672786342"><ele>696.0</ele><time>2026-04-04T13:26:47.002Z</time></trkpt><trkpt lat="41.306102743292094" lon="13.969406729143536"><ele>696.0</ele><time>2026-04-04T13:26:48.002Z</time></trkpt><trkpt lat="41.30621330238114" lon="13.969208475889811"><ele>696.0</ele><time>2026-04-04T13:26:49.002Z</time></trkpt><trkpt lat="41.306318029912035" lon="13.96900635311628"><ele>696.0</ele><time>2026-04-04T13:26:50.002Z</time></trkpt><trkpt lat="41.30641960708396" lon="13.96881852946499"><ele>695.0</ele><time>2026-04-04T13:26:51.002Z</time></trkpt><trkpt lat="41.30652503633399" lon="13.96864598957333"><ele>694.0</ele><time>2026-04-04T13:26:52.002Z</time></trkpt><trkpt lat="41.30662661176721" lon="13.968469515510698"><ele>693.0</ele><time>2026-04-04T13:26:53.002Z</time></trkpt><trkpt lat="41.30672870702625" lon="13.968298989517997"><ele>692.0</ele><time>2026-04-04T13:26:54.002Z</time></trkpt><trkpt lat="41.30684385686579" lon="13.968125920986884"><ele>691.0</ele><time>2026-04-04T13:26:55.002Z</time></trkpt><trkpt lat="41.306965096644106" lon="13.967955845045033"><ele>690.0</ele><time>2026-04-04T13:26:56.002Z</time></trkpt><trkpt lat="41.30708129198019" lon="13.967804927304558"><ele>690.0</ele><time>2026-04-04T13:26:57.002Z</time></trkpt><trkpt lat="41.30718863648012" lon="13.967665541773663"><ele>690.0</ele><time>2026-04-04T13:26:58.002Z</time></trkpt><trkpt lat="41.30730292976769" lon="13.967532077157024"><ele>690.0</ele><time>2026-04-04T13:26:59.002Z</time></trkpt><trkpt lat="41.307419427352194" lon="13.967410100611872"><ele>687.3333333333334</ele><time>2026-04-04T13:27:00.002Z</time></trkpt><trkpt lat="41.30754588118882" lon="13.967296192943579"><ele>684.6666666666667</ele><time>2026-04-04T13:27:01.002Z</time></trkpt><trkpt lat="41.30769815294654" lon="13.967182008061949"><ele>682.0</ele><time>2026-04-04T13:27:02.002Z</time></trkpt><trkpt lat="41.30785427601467" lon="13.967074003881386"><ele>682.0</ele><time>2026-04-04T13:27:03.002Z</time></trkpt><trkpt lat="41.30801227751217" lon="13.966966898381605"><ele>682.0</ele><time>2026-04-04T13:27:04.002Z</time></trkpt><trkpt lat="41.30818810960655" lon="13.966857730880758"><ele>682.0</ele><time>2026-04-04T13:27:05.002Z</time></trkpt><trkpt lat="41.30836756563942" lon="13.966740021396756"><ele>678.6666666666667</ele><time>2026-04-04T13:27:06.003Z</time></trkpt><trkpt lat="41.308546738581114" lon="13.966622149803088"><ele>675.3333333333334</ele><time>2026-04-04T13:27:07.003Z</time></trkpt><trkpt lat="41.30872255217807" lon="13.966501757804815"><ele>672.0</ele><time>2026-04-04T13:27:08.003Z</time></trkpt><trkpt lat="41.30888681987106" lon="13.966380459864563"><ele>671.6666666666666</ele><time>2026-04-04T13:27:09.003Z</time></trkpt><trkpt lat="41.3090468928187" lon="13.966258600184101"><ele>671.3333333333333</ele><time>2026-04-04T13:27:10.003Z</time></trkpt><trkpt lat="41.3092104553201" lon="13.966126612815945"><ele>671.0</ele><time>2026-04-04T13:27:11.003Z</time></trkpt><trkpt lat="41.30936529441784" lon="13.965994264060624"><ele>671.0</ele><time>2026-04-04T13:27:12.003Z</time></trkpt><trkpt lat="41.30951429944713" lon="13.96586231493096"><ele>671.0</ele><time>2026-04-04T13:27:13.003Z</time></trkpt><trkpt lat="41.30966020750728" lon="13.965721362951411"><ele>671.0</ele><time>2026-04-04T13:27:14.003Z</time></trkpt><trkpt lat="41.30979256856934" lon="13.96558317564133"><ele>669.5999999999999</ele><time>2026-04-04T13:27:15.003Z</time></trkpt><trkpt lat="41.30989591818633" lon="13.96547511228903"><ele>668.2</ele><time>2026-04-04T13:27:16.003Z</time></trkpt><trkpt lat="41.30998043690377" lon="13.965390190153467"><ele>666.8</ele><time>2026-04-04T13:27:17.001Z</time></trkpt><trkpt lat="41.31004449228426" lon="13.965326720554353"><ele>665.4000000000001</ele><time>2026-04-04T13:27:18.001Z</time></trkpt><trkpt lat="41.310152455491796" lon="13.96531584541361"><ele>664.0</ele><time>2026-04-04T13:27:20.001Z</time></trkpt><trkpt lat="41.31023883231855" lon="13.965462497454041"><ele>664.0</ele><time>2026-04-04T13:27:22.001Z</time></trkpt><trkpt lat="41.3102832757971" lon="13.965565069957048"><ele>664.0</ele><time>2026-04-04T13:27:23.001Z</time></trkpt><trkpt lat="41.31030598818173" lon="13.965670138760292"><ele>664.0</ele><time>2026-04-04T13:27:24.001Z</time></trkpt><trkpt lat="41.3103119246315" lon="13.965786568188491"><ele>664.0</ele><time>2026-04-04T13:27:25.001Z</time></trkpt><trkpt lat="41.31029347727508" lon="13.965912217675168"><ele>664.0</ele><time>2026-04-04T13:27:26.001Z</time></trkpt><trkpt lat="41.31028443130043" lon="13.966040295340381"><ele>664.0</ele><time>2026-04-04T13:27:27.001Z</time></trkpt><trkpt lat="41.31030283236369" lon="13.966184266365188"><ele>664.0</ele><time>2026-04-04T13:27:28.001Z</time></trkpt><trkpt lat="41.310336356450726" lon="13.966300795435778"><ele>664.0</ele><time>2026-04-04T13:27:29.001Z</time></trkpt><trkpt lat="41.31037263424633" lon="13.966423175725154"><ele>664.0</ele><time>2026-04-04T13:27:30.001Z</time></trkpt><trkpt lat="41.310420254137206" lon="13.966546970188553"><ele>664.0</ele><time>2026-04-04T13:27:31.001Z</time></trkpt><trkpt lat="41.31046096464103" lon="13.966663121637723"><ele>663.75</ele><time>2026-04-04T13:27:32.001Z</time></trkpt><trkpt lat="41.31049500224478" lon="13.966833597996333"><ele>663.5</ele><time>2026-04-04T13:27:34.001Z</time></trkpt><trkpt lat="41.31053364945885" lon="13.96696022208348"><ele>663.25</ele><time>2026-04-04T13:27:35.001Z</time></trkpt><trkpt lat="41.31057739996427" lon="13.967106979043432"><ele>663.0</ele><time>2026-04-04T13:27:36.001Z</time></trkpt><trkpt lat="41.310619847110665" lon="13.967263012118638"><ele>662.25</ele><time>2026-04-04T13:27:37.001Z</time></trkpt><trkpt lat="41.31067043078994" lon="13.967433424612306"><ele>661.5</ele><time>2026-04-04T13:27:38.001Z</time></trkpt><trkpt lat="41.31072452552552" lon="13.96761495490366"><ele>660.75</ele><time>2026-04-04T13:27:39.001Z</time></trkpt><trkpt lat="41.31079264815354" lon="13.967805513796005"><ele>660.0</ele><time>2026-04-04T13:27:40.001Z</time></trkpt><trkpt lat="41.31086469301347" lon="13.968010386339875"><ele>659.3333333333334</ele><time>2026-04-04T13:27:41.001Z</time></trkpt><trkpt lat="41.31093146402973" lon="13.96822761839585"><ele>658.6666666666667</ele><time>2026-04-04T13:27:42.001Z</time></trkpt><trkpt lat="41.31100595227368" lon="13.968449528433187"><ele>658.0</ele><time>2026-04-04T13:27:43.001Z</time></trkpt><trkpt lat="41.311084887568846" lon="13.968680322739539"><ele>657.3333333333334</ele><time>2026-04-04T13:27:44.001Z</time></trkpt><trkpt lat="41.31117482878261" lon="13.968916421090022"><ele>656.6666666666666</ele><time>2026-04-04T13:27:45.001Z</time></trkpt><trkpt lat="41.31127506387719" lon="13.969149411688303"><ele>656.0</ele><time>2026-04-04T13:27:46.001Z</time></trkpt><trkpt lat="41.31137653239836" lon="13.969384195994756"><ele>655.3333333333333</ele><time>2026-04-04T13:27:47.001Z</time></trkpt><trkpt lat="41.31148235960715" lon="13.969609712472048"><ele>654.6666666666666</ele><time>2026-04-04T13:27:48.001Z</time></trkpt><trkpt lat="41.31157932894577" lon="13.969836506978389"><ele>654.0</ele><time>2026-04-04T13:27:49.001Z</time></trkpt><trkpt lat="41.3116757086781" lon="13.970071938806791"><ele>653.3333333333334</ele><time>2026-04-04T13:27:50.001Z</time></trkpt><trkpt lat="41.311773934764666" lon="13.970301000426574"><ele>652.6666666666667</ele><time>2026-04-04T13:27:51.001Z</time></trkpt><trkpt lat="41.31187033312646" lon="13.970525982360922"><ele>652.0</ele><time>2026-04-04T13:27:52.001Z</time></trkpt><trkpt lat="41.31196433941389" lon="13.970740169550407"><ele>651.0</ele><time>2026-04-04T13:27:53.001Z</time></trkpt><trkpt lat="41.3120598123844" lon="13.9709550958901"><ele>650.0</ele><time>2026-04-04T13:27:54.001Z</time></trkpt><trkpt lat="41.31214890149585" lon="13.971184180533431"><ele>649.0</ele><time>2026-04-04T13:27:55.001Z</time></trkpt><trkpt lat="41.312233200563234" lon="13.971408021309513"><ele>649.0</ele><time>2026-04-04T13:27:56.001Z</time></trkpt><trkpt lat="41.312305575436106" lon="13.971647185246669"><ele>649.0</ele><time>2026-04-04T13:27:57.001Z</time></trkpt><trkpt lat="41.312365734509484" lon="13.971898606625766"><ele>649.0</ele><time>2026-04-04T13:27:58.001Z</time></trkpt><trkpt lat="41.312413756820355" lon="13.9721544977677"><ele>649.0</ele><time>2026-04-04T13:27:59.001Z</time></trkpt><trkpt lat="41.31245623174842" lon="13.97240984137288"><ele>649.0</ele><time>2026-04-04T13:28:00.001Z</time></trkpt><trkpt lat="41.31249968357382" lon="13.972667801310399"><ele>649.0</ele><time>2026-04-04T13:28:01.001Z</time></trkpt><trkpt lat="41.31254687936133" lon="13.972924094587519"><ele>648.6666666666667</ele><time>2026-04-04T13:28:02.001Z</time></trkpt><trkpt lat="41.31260065192196" lon="13.973187672988717"><ele>648.3333333333334</ele><time>2026-04-04T13:28:03.001Z</time></trkpt><trkpt lat="41.31266353722138" lon="13.97345141550414"><ele>648.0</ele><time>2026-04-04T13:28:04.001Z</time></trkpt><trkpt lat="41.31273865558217" lon="13.973712757977149"><ele>647.0</ele><time>2026-04-04T13:28:05.001Z</time></trkpt><trkpt lat="41.31281342405608" lon="13.973972377546078"><ele>646.0</ele><time>2026-04-04T13:28:06.001Z</time></trkpt><trkpt lat="41.312888970300556" lon="13.974232722827619"><ele>645.0</ele><time>2026-04-04T13:28:07.001Z</time></trkpt><trkpt lat="41.31295839748326" lon="13.974490933768708"><ele>645.0</ele><time>2026-04-04T13:28:08.001Z</time></trkpt><trkpt lat="41.313025925898216" lon="13.974729654178038"><ele>645.0</ele><time>2026-04-04T13:28:09.001Z</time></trkpt><trkpt lat="41.313088369472524" lon="13.974955340738896"><ele>645.0</ele><time>2026-04-04T13:28:10.001Z</time></trkpt><trkpt lat="41.31314118610808" lon="13.975151531168684"><ele>644.8</ele><time>2026-04-04T13:28:11.001Z</time></trkpt><trkpt lat="41.313191177024464" lon="13.975326689626176"><ele>644.6</ele><time>2026-04-04T13:28:12.001Z</time></trkpt><trkpt lat="41.31324133044181" lon="13.975469434018144"><ele>644.4000000000001</ele><time>2026-04-04T13:28:13.001Z</time></trkpt><trkpt lat="41.31329357444352" lon="13.975559035755179"><ele>644.2</ele><time>2026-04-04T13:28:14.001Z</time></trkpt><trkpt lat="41.31336154700402" lon="13.975630194856116"><ele>644.0</ele><time>2026-04-04T13:28:15.001Z</time></trkpt><trkpt lat="41.31344547233888" lon="13.975685558552668"><ele>644.0</ele><time>2026-04-04T13:28:16.001Z</time></trkpt><trkpt lat="41.31353818736587" lon="13.975742893657236"><ele>644.0</ele><time>2026-04-04T13:28:17.002Z</time></trkpt><trkpt lat="41.31364749581397" lon="13.97581091801676"><ele>644.0</ele><time>2026-04-04T13:28:18.002Z</time></trkpt><trkpt lat="41.313779751707244" lon="13.975879490529387"><ele>644.0</ele><time>2026-04-04T13:28:19.002Z</time></trkpt><trkpt lat="41.31391831607744" lon="13.975957909796442"><ele>643.0</ele><time>2026-04-04T13:28:20.002Z</time></trkpt><trkpt lat="41.31403492782231" lon="13.976037911300285"><ele>642.0</ele><time>2026-04-04T13:28:21.002Z</time></trkpt><trkpt lat="41.314149203166984" lon="13.976118610118215"><ele>641.0</ele><time>2026-04-04T13:28:22.002Z</time></trkpt><trkpt lat="41.31425560409912" lon="13.976205373299084"><ele>640.0</ele><time>2026-04-04T13:28:23.002Z</time></trkpt><trkpt lat="41.3143553358365" lon="13.976311372136674"><ele>640.0</ele><time>2026-04-04T13:28:24.002Z</time></trkpt><trkpt lat="41.31443506091963" lon="13.976425780139365"><ele>640.0</ele><time>2026-04-04T13:28:25.002Z</time></trkpt><trkpt lat="41.31450188017202" lon="13.976553106475482"><ele>640.0</ele><time>2026-04-04T13:28:26.002Z</time></trkpt><trkpt lat="41.31455184246463" lon="13.97670198649284"><ele>640.0</ele><time>2026-04-04T13:28:27.002Z</time></trkpt><trkpt lat="41.31458220753437" lon="13.976876418365467"><ele>639.0</ele><time>2026-04-04T13:28:28.002Z</time></trkpt><trkpt lat="41.314594795244275" lon="13.977048805544857"><ele>638.0</ele><time>2026-04-04T13:28:29.002Z</time></trkpt><trkpt lat="41.31461011367462" lon="13.977241060702315"><ele>637.0</ele><time>2026-04-04T13:28:30.002Z</time></trkpt><trkpt lat="41.314616844496705" lon="13.9774363579006"><ele>636.0</ele><time>2026-04-04T13:28:31.002Z</time></trkpt><trkpt lat="41.314599094384675" lon="13.977635639949806"><ele>634.3333333333334</ele><time>2026-04-04T13:28:32.002Z</time></trkpt><trkpt lat="41.31455688157944" lon="13.977841262702464"><ele>632.6666666666667</ele><time>2026-04-04T13:28:33.002Z</time></trkpt><trkpt lat="41.31450322346466" lon="13.978053123969044"><ele>631.0</ele><time>2026-04-04T13:28:34.002Z</time></trkpt><trkpt lat="41.31444328320638" lon="13.978274178305416"><ele>630.0</ele><time>2026-04-04T13:28:35.002Z</time></trkpt><trkpt lat="41.31438539254615" lon="13.978503768398657"><ele>629.0</ele><time>2026-04-04T13:28:36.002Z</time></trkpt><trkpt lat="41.31433112586446" lon="13.97874207169178"><ele>628.0</ele><time>2026-04-04T13:28:37.002Z</time></trkpt><trkpt lat="41.31427740112976" lon="13.978986263632052"><ele>628.3333333333334</ele><time>2026-04-04T13:28:38.002Z</time></trkpt><trkpt lat="41.31422591147278" lon="13.97923343947124"><ele>628.6666666666666</ele><time>2026-04-04T13:28:39.002Z</time></trkpt><trkpt lat="41.31416996454832" lon="13.97948614258544"><ele>629.0</ele><time>2026-04-04T13:28:40.002Z</time></trkpt><trkpt lat="41.31411480135" lon="13.979733453930617"><ele>629.0</ele><time>2026-04-04T13:28:41.002Z</time></trkpt><trkpt lat="41.31405802320025" lon="13.979981034332825"><ele>629.0</ele><time>2026-04-04T13:28:42.002Z</time></trkpt><trkpt lat="41.31400166469939" lon="13.980216404720887"><ele>629.0</ele><time>2026-04-04T13:28:43.002Z</time></trkpt><trkpt lat="41.31395064826742" lon="13.980430642005167"><ele>629.0</ele><time>2026-04-04T13:28:44.002Z</time></trkpt><trkpt lat="41.313902896082844" lon="13.980626498820676"><ele>629.0</ele><time>2026-04-04T13:28:45.002Z</time></trkpt><trkpt lat="41.313867547551595" lon="13.980779203811318"><ele>629.0</ele><time>2026-04-04T13:28:46.002Z</time></trkpt><trkpt lat="41.313837227660386" lon="13.980898139240898"><ele>629.0</ele><time>2026-04-04T13:28:47.002Z</time></trkpt><trkpt lat="41.31380621974516" lon="13.98098484455956"><ele>629.0</ele><time>2026-04-04T13:28:48.002Z</time></trkpt><trkpt lat="41.31376630409768" lon="13.98108605974795"><ele>629.6</ele><time>2026-04-04T13:28:50.002Z</time></trkpt><trkpt lat="41.31380124620552" lon="13.98117035881267"><ele>630.2</ele><time>2026-04-04T13:28:53.002Z</time></trkpt><trkpt lat="41.31392914287579" lon="13.981216133013936"><ele>630.8000000000001</ele><time>2026-04-04T13:28:55.002Z</time></trkpt><trkpt lat="41.314007974248575" lon="13.981212975839227"><ele>631.4</ele><time>2026-04-04T13:28:56.002Z</time></trkpt><trkpt lat="41.31409518750984" lon="13.981230419506371"><ele>632.0</ele><time>2026-04-04T13:28:57.002Z</time></trkpt><trkpt lat="41.31419213560521" lon="13.98125113816716"><ele>633.0</ele><time>2026-04-04T13:28:58.002Z</time></trkpt><trkpt lat="41.314307465587994" lon="13.98127637633764"><ele>634.0</ele><time>2026-04-04T13:28:59.002Z</time></trkpt><trkpt lat="41.31443242735073" lon="13.981311982886067"><ele>635.0</ele><time>2026-04-04T13:29:00.002Z</time></trkpt><trkpt lat="41.31456065719303" lon="13.981344941618143"><ele>636.0</ele><time>2026-04-04T13:29:01.002Z</time></trkpt><trkpt lat="41.314698622527864" lon="13.981382615193922"><ele>636.5</ele><time>2026-04-04T13:29:02.002Z</time></trkpt><trkpt lat="41.31484834690081" lon="13.981417398529873"><ele>637.0</ele><time>2026-04-04T13:29:03.003Z</time></trkpt><trkpt lat="41.3149997009014" lon="13.981445622987337"><ele>637.5</ele><time>2026-04-04T13:29:04.003Z</time></trkpt><trkpt lat="41.31513346267538" lon="13.98143422643156"><ele>638.0</ele><time>2026-04-04T13:29:05.003Z</time></trkpt><trkpt lat="41.31527947584186" lon="13.981387378624436"><ele>638.0</ele><time>2026-04-04T13:29:06.003Z</time></trkpt><trkpt lat="41.3154175098691" lon="13.981301821098366"><ele>638.0</ele><time>2026-04-04T13:29:07.003Z</time></trkpt><trkpt lat="41.31554085645476" lon="13.981216846927783"><ele>638.0</ele><time>2026-04-04T13:29:08.003Z</time></trkpt><trkpt lat="41.31566480434436" lon="13.981139910462721"><ele>638.0</ele><time>2026-04-04T13:29:09.003Z</time></trkpt><trkpt lat="41.31578293881728" lon="13.981067704235578"><ele>639.75</ele><time>2026-04-04T13:29:10.003Z</time></trkpt><trkpt lat="41.315895467148565" lon="13.981001292778448"><ele>641.5</ele><time>2026-04-04T13:29:11.003Z</time></trkpt><trkpt lat="41.3160016325759" lon="13.980924059345906"><ele>643.25</ele><time>2026-04-04T13:29:12.003Z</time></trkpt><trkpt lat="41.31609905229341" lon="13.980837574939818"><ele>645.0</ele><time>2026-04-04T13:29:13.003Z</time></trkpt><trkpt lat="41.31619385303569" lon="13.980748807919067"><ele>645.0</ele><time>2026-04-04T13:29:14.003Z</time></trkpt><trkpt lat="41.31628289346766" lon="13.980669158329283"><ele>645.0</ele><time>2026-04-04T13:29:15.003Z</time></trkpt><trkpt lat="41.31636746557373" lon="13.98058917741207"><ele>645.0</ele><time>2026-04-04T13:29:16.003Z</time></trkpt><trkpt lat="41.31644768258569" lon="13.980498347726474"><ele>645.0</ele><time>2026-04-04T13:29:17.003Z</time></trkpt><trkpt lat="41.31652384598665" lon="13.980397934200392"><ele>645.0</ele><time>2026-04-04T13:29:18.003Z</time></trkpt><trkpt lat="41.31658259523575" lon="13.98028385218022"><ele>645.0</ele><time>2026-04-04T13:29:19.003Z</time></trkpt><trkpt lat="41.31663340299321" lon="13.980161847478211"><ele>645.0</ele><time>2026-04-04T13:29:20.003Z</time></trkpt><trkpt lat="41.316689113886206" lon="13.980041431956048"><ele>645.0</ele><time>2026-04-04T13:29:21.003Z</time></trkpt><trkpt lat="41.31675255193671" lon="13.97992735368096"><ele>645.0</ele><time>2026-04-04T13:29:22.003Z</time></trkpt><trkpt lat="41.316814428643625" lon="13.979808256279705"><ele>645.0</ele><time>2026-04-04T13:29:23.001Z</time></trkpt><trkpt lat="41.31687452017121" lon="13.97968615259471"><ele>645.0</ele><time>2026-04-04T13:29:24.001Z</time></trkpt><trkpt lat="41.316936022093756" lon="13.979561228485462"><ele>645.0</ele><time>2026-04-04T13:29:25.001Z</time></trkpt><trkpt lat="41.317009151512835" lon="13.979417223963981"><ele>645.0</ele><time>2026-04-04T13:29:26.001Z</time></trkpt><trkpt lat="41.31710534024171" lon="13.979260732080922"><ele>645.0</ele><time>2026-04-04T13:29:27.001Z</time></trkpt><trkpt lat="41.31724852904349" lon="13.979107694065856"><ele>643.3333333333334</ele><time>2026-04-04T13:29:28.001Z</time></trkpt><trkpt lat="41.317401040477286" lon="13.97895733237261"><ele>641.6666666666667</ele><time>2026-04-04T13:29:29.001Z</time></trkpt><trkpt lat="41.31755108585521" lon="13.97876946395811"><ele>640.0</ele><time>2026-04-04T13:29:30.001Z</time></trkpt><trkpt lat="41.31768121165892" lon="13.97855552261879"><ele>644.0</ele><time>2026-04-04T13:29:31.001Z</time></trkpt><trkpt lat="41.31780297563383" lon="13.978347958398528"><ele>648.0</ele><time>2026-04-04T13:29:32.001Z</time></trkpt><trkpt lat="41.317926552936825" lon="13.978158926140042"><ele>652.0</ele><time>2026-04-04T13:29:33.001Z</time></trkpt><trkpt lat="41.31805213699823" lon="13.977981739610447"><ele>643.0</ele><time>2026-04-04T13:29:34.001Z</time></trkpt><trkpt lat="41.3181766860929" lon="13.977821669784026"><ele>634.0</ele><time>2026-04-04T13:29:35.001Z</time></trkpt><trkpt lat="41.31829368374714" lon="13.977668642382682"><ele>625.0</ele><time>2026-04-04T13:29:36.001Z</time></trkpt><trkpt lat="41.318423312696545" lon="13.977535509582049"><ele>632.0</ele><time>2026-04-04T13:29:37.001Z</time></trkpt><trkpt lat="41.31856387933465" lon="13.977426829411069"><ele>639.0</ele><time>2026-04-04T13:29:38.001Z</time></trkpt><trkpt lat="41.31870701185145" lon="13.97734374871216"><ele>646.0</ele><time>2026-04-04T13:29:39.001Z</time></trkpt><trkpt lat="41.318831034451385" lon="13.977247424205085"><ele>637.3333333333334</ele><time>2026-04-04T13:29:40.001Z</time></trkpt><trkpt lat="41.31896813660293" lon="13.977097861888215"><ele>628.6666666666666</ele><time>2026-04-04T13:29:41.001Z</time></trkpt><trkpt lat="41.31911298406369" lon="13.976933501183911"><ele>620.0</ele><time>2026-04-04T13:29:42.001Z</time></trkpt><trkpt lat="41.319252111214816" lon="13.976792577247734"><ele>627.0</ele><time>2026-04-04T13:29:43.001Z</time></trkpt><trkpt lat="41.319376370063345" lon="13.97664766204929"><ele>634.0</ele><time>2026-04-04T13:29:44.001Z</time></trkpt><trkpt lat="41.31949280382844" lon="13.976479955756755"><ele>641.0</ele><time>2026-04-04T13:29:45.001Z</time></trkpt><trkpt lat="41.31957732929104" lon="13.976303105103705"><ele>641.0</ele><time>2026-04-04T13:29:46.001Z</time></trkpt><trkpt lat="41.31963771919524" lon="13.976133515891332"><ele>641.0</ele><time>2026-04-04T13:29:47.001Z</time></trkpt><trkpt lat="41.31967739422426" lon="13.975958345935704"><ele>641.0</ele><time>2026-04-04T13:29:48.001Z</time></trkpt><trkpt lat="41.319688912600455" lon="13.975751629099594"><ele>641.0</ele><time>2026-04-04T13:29:49.001Z</time></trkpt><trkpt lat="41.319682997801415" lon="13.975516271002325"><ele>642.0</ele><time>2026-04-04T13:29:50.001Z</time></trkpt><trkpt lat="41.31965931662421" lon="13.975271745836523"><ele>643.0</ele><time>2026-04-04T13:29:51.001Z</time></trkpt><trkpt lat="41.31966169862628" lon="13.975055446226182"><ele>644.0</ele><time>2026-04-04T13:29:52.001Z</time></trkpt><trkpt lat="41.31967111183868" lon="13.97486606732521"><ele>645.0</ele><time>2026-04-04T13:29:53.001Z</time></trkpt><trkpt lat="41.31967811752899" lon="13.974694858228707"><ele>646.0</ele><time>2026-04-04T13:29:54.001Z</time></trkpt><trkpt lat="41.31969428460953" lon="13.97453410513164"><ele>647.0</ele><time>2026-04-04T13:29:55.001Z</time></trkpt><trkpt lat="41.319738444017254" lon="13.9743770159524"><ele>648.0</ele><time>2026-04-04T13:29:56.001Z</time></trkpt><trkpt lat="41.319814717879794" lon="13.974232658983514"><ele>641.6666666666666</ele><time>2026-04-04T13:29:57.001Z</time></trkpt><trkpt lat="41.31991842438869" lon="13.97410767249863"><ele>635.3333333333333</ele><time>2026-04-04T13:29:58.001Z</time></trkpt><trkpt lat="41.32005808566471" lon="13.97400335007886"><ele>629.0</ele><time>2026-04-04T13:29:59.001Z</time></trkpt><trkpt lat="41.32021218821549" lon="13.973910457159029"><ele>629.0</ele><time>2026-04-04T13:30:00.001Z</time></trkpt><trkpt lat="41.32038191628197" lon="13.973816207830273"><ele>629.0</ele><time>2026-04-04T13:30:01.001Z</time></trkpt><trkpt lat="41.32054668615166" lon="13.973724528212754"><ele>629.0</ele><time>2026-04-04T13:30:02.001Z</time></trkpt><trkpt lat="41.32066340832596" lon="13.973633830254784"><ele>629.6</ele><time>2026-04-04T13:30:03.001Z</time></trkpt><trkpt lat="41.32075160616706" lon="13.97354643906933"><ele>630.2</ele><time>2026-04-04T13:30:04.001Z</time></trkpt><trkpt lat="41.32080665810219" lon="13.973442354366627"><ele>630.8000000000001</ele><time>2026-04-04T13:30:05.001Z</time></trkpt><trkpt lat="41.32083788044854" lon="13.973308234502882"><ele>631.4</ele><time>2026-04-04T13:30:06.001Z</time></trkpt><trkpt lat="41.3208392349723" lon="13.973138868084515"><ele>632.0</ele><time>2026-04-04T13:30:07.001Z</time></trkpt><trkpt lat="41.320838802556125" lon="13.972943967575112"><ele>632.0</ele><time>2026-04-04T13:30:08.001Z</time></trkpt><trkpt lat="41.320840368038034" lon="13.972725597369049"><ele>632.0</ele><time>2026-04-04T13:30:09.001Z</time></trkpt><trkpt lat="41.32083546839127" lon="13.97248259955109"><ele>632.0</ele><time>2026-04-04T13:30:10.001Z</time></trkpt><trkpt lat="41.320820825726805" lon="13.97222911469197"><ele>633.6666666666666</ele><time>2026-04-04T13:30:11.001Z</time></trkpt><trkpt lat="41.32078696579932" lon="13.971993281265396"><ele>635.3333333333334</ele><time>2026-04-04T13:30:12.001Z</time></trkpt><trkpt lat="41.32074095986595" lon="13.971783122948013"><ele>637.0</ele><time>2026-04-04T13:30:13.001Z</time></trkpt><trkpt lat="41.32071201996532" lon="13.971598675263087"><ele>637.0</ele><time>2026-04-04T13:30:14.001Z</time></trkpt><trkpt lat="41.32070666597304" lon="13.971458131635186"><ele>637.0</ele><time>2026-04-04T13:30:15.001Z</time></trkpt><trkpt lat="41.32072640564488" lon="13.971335474633317"><ele>637.0</ele><time>2026-04-04T13:30:16.001Z</time></trkpt><trkpt lat="41.320783151088776" lon="13.971208975105379"><ele>637.0</ele><time>2026-04-04T13:30:17.001Z</time></trkpt><trkpt lat="41.32086568108702" lon="13.971119522728577"><ele>637.0</ele><time>2026-04-04T13:30:18.001Z</time></trkpt><trkpt lat="41.32097911240835" lon="13.971063697286908"><ele>637.0</ele><time>2026-04-04T13:30:19.001Z</time></trkpt><trkpt lat="41.32112485818784" lon="13.971040733988861"><ele>637.0</ele><time>2026-04-04T13:30:20.001Z</time></trkpt><trkpt lat="41.32128582253212" lon="13.971024597374802"><ele>637.0</ele><time>2026-04-04T13:30:21.001Z</time></trkpt><trkpt lat="41.321445407709795" lon="13.970998624625208"><ele>636.25</ele><time>2026-04-04T13:30:22.002Z</time></trkpt><trkpt lat="41.32159165754025" lon="13.97096246631853"><ele>635.5</ele><time>2026-04-04T13:30:23.002Z</time></trkpt><trkpt lat="41.321716104854495" lon="13.970898496255954"><ele>634.75</ele><time>2026-04-04T13:30:24.002Z</time></trkpt><trkpt lat="41.32181923194356" lon="13.970791295412944"><ele>634.0</ele><time>2026-04-04T13:30:25.002Z</time></trkpt><trkpt lat="41.32191075780913" lon="13.97064672929205"><ele>634.0</ele><time>2026-04-04T13:30:26.002Z</time></trkpt><trkpt lat="41.321992357836685" lon="13.97044620813388"><ele>634.0</ele><time>2026-04-04T13:30:27.002Z</time></trkpt><trkpt lat="41.32205697592786" lon="13.970226748592182"><ele>634.0</ele><time>2026-04-04T13:30:28.002Z</time></trkpt><trkpt lat="41.32212702571217" lon="13.969987812562195"><ele>635.3333333333334</ele><time>2026-04-04T13:30:29.002Z</time></trkpt><trkpt lat="41.322195400391124" lon="13.969756072920019"><ele>636.6666666666666</ele><time>2026-04-04T13:30:30.002Z</time></trkpt><trkpt lat="41.32226480411768" lon="13.969539571188935"><ele>638.0</ele><time>2026-04-04T13:30:31.002Z</time></trkpt><trkpt lat="41.32232672154637" lon="13.969347515398402"><ele>633.5</ele><time>2026-04-04T13:30:32.002Z</time></trkpt><trkpt lat="41.32237002947383" lon="13.96919376853274"><ele>629.0</ele><time>2026-04-04T13:30:33.002Z</time></trkpt><trkpt lat="41.3223815945442" lon="13.969031813937207"><ele>624.5</ele><time>2026-04-04T13:30:34.002Z</time></trkpt><trkpt lat="41.32235853604351" lon="13.96884674116586"><ele>620.0</ele><time>2026-04-04T13:30:35.002Z</time></trkpt><trkpt lat="41.32230104629411" lon="13.96864671184068"><ele>624.75</ele><time>2026-04-04T13:30:36.002Z</time></trkpt><trkpt lat="41.32222087638397" lon="13.96849070147576"><ele>629.5</ele><time>2026-04-04T13:30:37.002Z</time></trkpt><trkpt lat="41.32216544511221" lon="13.968360279734219"><ele>634.25</ele><time>2026-04-04T13:30:38.002Z</time></trkpt><trkpt lat="41.322132245300025" lon="13.968233218507773"><ele>639.0</ele><time>2026-04-04T13:30:39.002Z</time></trkpt><trkpt lat="41.32213264962401" lon="13.968104296231326"><ele>639.0</ele><time>2026-04-04T13:30:40.002Z</time></trkpt><trkpt lat="41.322175508258624" lon="13.968019076007272"><ele>639.0</ele><time>2026-04-04T13:30:41.002Z</time></trkpt><trkpt lat="41.32224742664478" lon="13.967918842112676"><ele>639.0</ele><time>2026-04-04T13:30:42.002Z</time></trkpt><trkpt lat="41.322348856743545" lon="13.967845657601323"><ele>639.0</ele><time>2026-04-04T13:30:43.002Z</time></trkpt><trkpt lat="41.32247728478634" lon="13.967802272093328"><ele>639.0</ele><time>2026-04-04T13:30:44.002Z</time></trkpt><trkpt lat="41.32263043028148" lon="13.967794029126496"><ele>631.6666666666666</ele><time>2026-04-04T13:30:45.002Z</time></trkpt><trkpt lat="41.32280661683684" lon="13.96780361906286"><ele>624.3333333333333</ele><time>2026-04-04T13:30:46.002Z</time></trkpt><trkpt lat="41.323004166250655" lon="13.967807579637126"><ele>617.0</ele><time>2026-04-04T13:30:47.002Z</time></trkpt><trkpt lat="41.32320449276952" lon="13.967807348879623"><ele>612.3333333333333</ele><time>2026-04-04T13:30:48.002Z</time></trkpt><trkpt lat="41.323389908487286" lon="13.967808227935851"><ele>607.6666666666666</ele><time>2026-04-04T13:30:49.002Z</time></trkpt><trkpt lat="41.3235445461974" lon="13.967801214997127"><ele>603.0</ele><time>2026-04-04T13:30:50.002Z</time></trkpt><trkpt lat="41.32366337184483" lon="13.967798833350297"><ele>603.0</ele><time>2026-04-04T13:30:51.002Z</time></trkpt><trkpt lat="41.323751686014774" lon="13.967786395308131"><ele>603.0</ele><time>2026-04-04T13:30:52.002Z</time></trkpt><trkpt lat="41.323821986775314" lon="13.967747472511824"><ele>603.0</ele><time>2026-04-04T13:30:53.002Z</time></trkpt><trkpt lat="41.323886007001114" lon="13.967673483745926"><ele>603.0</ele><time>2026-04-04T13:30:54.002Z</time></trkpt><trkpt lat="41.32392474870747" lon="13.967547970853703"><ele>603.0</ele><time>2026-04-04T13:30:55.002Z</time></trkpt><trkpt lat="41.323945667624386" lon="13.967375841257033"><ele>602.5</ele><time>2026-04-04T13:30:56.002Z</time></trkpt><trkpt lat="41.3239641410417" lon="13.967209999479179"><ele>602.0</ele><time>2026-04-04T13:30:57.002Z</time></trkpt><trkpt lat="41.32401775292953" lon="13.967062591947341"><ele>601.5</ele><time>2026-04-04T13:30:58.002Z</time></trkpt><trkpt lat="41.32409983793629" lon="13.9669342119876"><ele>601.0</ele><time>2026-04-04T13:30:59.002Z</time></trkpt><trkpt lat="41.32422787430729" lon="13.966858190200316"><ele>601.0</ele><time>2026-04-04T13:31:00.002Z</time></trkpt><trkpt lat="41.32436842227942" lon="13.966754902362483"><ele>601.0</ele><time>2026-04-04T13:31:01.002Z</time></trkpt><trkpt lat="41.32451514075444" lon="13.966691857997441"><ele>601.0</ele><time>2026-04-04T13:31:02.002Z</time></trkpt><trkpt lat="41.32464908483624" lon="13.966607430869734"><ele>597.6666666666667</ele><time>2026-04-04T13:31:03.002Z</time></trkpt><trkpt lat="41.32478538731502" lon="13.96646193919326"><ele>594.3333333333334</ele><time>2026-04-04T13:31:04.002Z</time></trkpt><trkpt lat="41.32490978038919" lon="13.966272301515373"><ele>591.0</ele><time>2026-04-04T13:31:05.002Z</time></trkpt><trkpt lat="41.32502664158666" lon="13.9660639735499"><ele>593.0</ele><time>2026-04-04T13:31:06.002Z</time></trkpt><trkpt lat="41.32514314804039" lon="13.96586082465503"><ele>595.0</ele><time>2026-04-04T13:31:07.002Z</time></trkpt><trkpt lat="41.32525293437078" lon="13.965680527239464"><ele>597.0</ele><time>2026-04-04T13:31:08.002Z</time></trkpt><trkpt lat="41.32535161754522" lon="13.965506506338835"><ele>597.0</ele><time>2026-04-04T13:31:09.002Z</time></trkpt><trkpt lat="41.32542755675178" lon="13.965319673685135"><ele>597.0</ele><time>2026-04-04T13:31:10.002Z</time></trkpt><trkpt lat="41.32546748945753" lon="13.965120726838888"><ele>597.0</ele><time>2026-04-04T13:31:11.002Z</time></trkpt><trkpt lat="41.325479506768325" lon="13.964912951611998"><ele>597.8000000000001</ele><time>2026-04-04T13:31:12.002Z</time></trkpt><trkpt lat="41.3254595123711" lon="13.964733356416403"><ele>598.6</ele><time>2026-04-04T13:31:13.002Z</time></trkpt><trkpt lat="41.32544931897942" lon="13.96459155234684"><ele>599.4000000000001</ele><time>2026-04-04T13:31:14.002Z</time></trkpt><trkpt lat="41.32545381202307" lon="13.96447111630103"><ele>600.2</ele><time>2026-04-04T13:31:15.002Z</time></trkpt><trkpt lat="41.32547070107904" lon="13.964368154908774"><ele>601.0</ele><time>2026-04-04T13:31:16.003Z</time></trkpt><trkpt lat="41.32550979755182" lon="13.964286231736274"><ele>598.1666666666667</ele><time>2026-04-04T13:31:17.003Z</time></trkpt><trkpt lat="41.32556936362557" lon="13.964226212268118"><ele>595.3333333333334</ele><time>2026-04-04T13:31:18.003Z</time></trkpt><trkpt lat="41.32564532918844" lon="13.964217594794082"><ele>592.5</ele><time>2026-04-04T13:31:19.003Z</time></trkpt><trkpt lat="41.325730137053405" lon="13.964195913334375"><ele>589.6666666666666</ele><time>2026-04-04T13:31:20.003Z</time></trkpt><trkpt lat="41.32582698638558" lon="13.964141012004399"><ele>586.8333333333333</ele><time>2026-04-04T13:31:21.003Z</time></trkpt><trkpt lat="41.32592021064351" lon="13.964088902442713"><ele>584.0</ele><time>2026-04-04T13:31:22.003Z</time></trkpt><trkpt lat="41.32597715185237" lon="13.963996118522653"><ele>584.0</ele><time>2026-04-04T13:31:23.003Z</time></trkpt><trkpt lat="41.326011338271684" lon="13.963875621731743"><ele>584.0</ele><time>2026-04-04T13:31:24.003Z</time></trkpt><trkpt lat="41.32601662057929" lon="13.963713620835835"><ele>584.0</ele><time>2026-04-04T13:31:25.003Z</time></trkpt><trkpt lat="41.32601132666897" lon="13.963542751598892"><ele>584.0</ele><time>2026-04-04T13:31:26.003Z</time></trkpt><trkpt lat="41.32599798848789" lon="13.96339688552574"><ele>583.6</ele><time>2026-04-04T13:31:27.003Z</time></trkpt><trkpt lat="41.325968240434165" lon="13.963285192153707"><ele>583.2</ele><time>2026-04-04T13:31:28.003Z</time></trkpt><trkpt lat="41.32589936807863" lon="13.963192049522531"><ele>582.8000000000001</ele><time>2026-04-04T13:31:29.001Z</time></trkpt><trkpt lat="41.325790165352686" lon="13.963112771396526"><ele>582.4</ele><time>2026-04-04T13:31:30.001Z</time></trkpt><trkpt lat="41.325663867456065" lon="13.96305380050957"><ele>582.0</ele><time>2026-04-04T13:31:31.001Z</time></trkpt><trkpt lat="41.325534382088755" lon="13.963004614574698"><ele>584.0</ele><time>2026-04-04T13:31:32.001Z</time></trkpt><trkpt lat="41.325426350837326" lon="13.962949118077168"><ele>586.0</ele><time>2026-04-04T13:31:33.001Z</time></trkpt><trkpt lat="41.32534100870406" lon="13.962918518735727"><ele>588.0</ele><time>2026-04-04T13:31:34.001Z</time></trkpt><trkpt lat="41.32527326414576" lon="13.962859905141308"><ele>590.0</ele><time>2026-04-04T13:31:35.001Z</time></trkpt><trkpt lat="41.32521793985395" lon="13.96279628673893"><ele>592.0</ele><time>2026-04-04T13:31:36.001Z</time></trkpt><trkpt lat="41.32518483469252" lon="13.962716544608016"><ele>594.0</ele><time>2026-04-04T13:31:37.001Z</time></trkpt><trkpt lat="41.3251950601065" lon="13.962585116419415"><ele>592.5</ele><time>2026-04-04T13:31:38.001Z</time></trkpt><trkpt lat="41.32524589868895" lon="13.962460992464003"><ele>591.0</ele><time>2026-04-04T13:31:39.001Z</time></trkpt><trkpt lat="41.32535991676154" lon="13.962352213387604"><ele>589.5</ele><time>2026-04-04T13:31:40.001Z</time></trkpt><trkpt lat="41.325492329521374" lon="13.962216213194052"><ele>588.0</ele><time>2026-04-04T13:31:41.001Z</time></trkpt><trkpt lat="41.32562751549394" lon="13.962058563914736"><ele>584.5</ele><time>2026-04-04T13:31:42.001Z</time></trkpt><trkpt lat="41.32577091108873" lon="13.961922169782058"><ele>581.0</ele><time>2026-04-04T13:31:43.001Z</time></trkpt><trkpt lat="41.32587947844714" lon="13.961811985320495"><ele>577.5</ele><time>2026-04-04T13:31:44.001Z</time></trkpt><trkpt lat="41.32595103772225" lon="13.961724376526574"><ele>574.0</ele><time>2026-04-04T13:31:45.001Z</time></trkpt><trkpt lat="41.32600287724847" lon="13.961627697567005"><ele>574.0</ele><time>2026-04-04T13:31:46.001Z</time></trkpt><trkpt lat="41.32603088250142" lon="13.961496116904131"><ele>574.0</ele><time>2026-04-04T13:31:47.001Z</time></trkpt><trkpt lat="41.32602189974813" lon="13.9613467010299"><ele>574.0</ele><time>2026-04-04T13:31:48.001Z</time></trkpt><trkpt lat="41.32598275576619" lon="13.96119333776297"><ele>574.0</ele><time>2026-04-04T13:31:49.001Z</time></trkpt><trkpt lat="41.325935717727674" lon="13.961059427488427"><ele>574.0</ele><time>2026-04-04T13:31:50.001Z</time></trkpt><trkpt lat="41.32591290352949" lon="13.960929052782983"><ele>574.8</ele><time>2026-04-04T13:31:51.001Z</time></trkpt><trkpt lat="41.32592410795131" lon="13.9608287638766"><ele>575.5999999999999</ele><time>2026-04-04T13:31:52.001Z</time></trkpt><trkpt lat="41.32596007280115" lon="13.96074202523165"><ele>576.4</ele><time>2026-04-04T13:31:53.001Z</time></trkpt><trkpt lat="41.32605128680946" lon="13.960668091744296"><ele>577.1999999999999</ele><time>2026-04-04T13:31:54.001Z</time></trkpt><trkpt lat="41.32616283544837" lon="13.960559769861538"><ele>578.0</ele><time>2026-04-04T13:31:55.001Z</time></trkpt><trkpt lat="41.32629368297425" lon="13.960470385341193"><ele>572.25</ele><time>2026-04-04T13:31:56.001Z</time></trkpt><trkpt lat="41.32639642015298" lon="13.960364470472832"><ele>566.5</ele><time>2026-04-04T13:31:57.001Z</time></trkpt><trkpt lat="41.326477998375815" lon="13.960242007468358"><ele>560.75</ele><time>2026-04-04T13:31:58.001Z</time></trkpt><trkpt lat="41.326522025265184" lon="13.960101820914824"><ele>555.0</ele><time>2026-04-04T13:31:59.001Z</time></trkpt><trkpt lat="41.32653300732785" lon="13.959968157688117"><ele>555.0</ele><time>2026-04-04T13:32:00.001Z</time></trkpt><trkpt lat="41.326496004820065" lon="13.959849021409063"><ele>555.0</ele><time>2026-04-04T13:32:01.001Z</time></trkpt><trkpt lat="41.32642231957686" lon="13.95973006824996"><ele>555.0</ele><time>2026-04-04T13:32:02.001Z</time></trkpt><trkpt lat="41.32631355049855" lon="13.959599324861303"><ele>555.0</ele><time>2026-04-04T13:32:03.001Z</time></trkpt><trkpt lat="41.326168215482255" lon="13.95948921054134"><ele>561.6666666666666</ele><time>2026-04-04T13:32:04.001Z</time></trkpt><trkpt lat="41.3260026930708" lon="13.959392971855154"><ele>568.3333333333333</ele><time>2026-04-04T13:32:05.001Z</time></trkpt><trkpt lat="41.32582564067882" lon="13.959310631347638"><ele>575.0</ele><time>2026-04-04T13:32:06.001Z</time></trkpt><trkpt lat="41.32567419657398" lon="13.95922307483053"><ele>577.0</ele><time>2026-04-04T13:32:07.001Z</time></trkpt><trkpt lat="41.325545216189454" lon="13.95912473378743"><ele>579.0</ele><time>2026-04-04T13:32:08.001Z</time></trkpt><trkpt lat="41.32543961904791" lon="13.958989822136186"><ele>581.0</ele><time>2026-04-04T13:32:09.001Z</time></trkpt><trkpt lat="41.32533492969929" lon="13.958816060021064"><ele>581.0</ele><time>2026-04-04T13:32:10.001Z</time></trkpt><trkpt lat="41.32522836546522" lon="13.958623154595601"><ele>581.0</ele><time>2026-04-04T13:32:11.001Z</time></trkpt><trkpt lat="41.32512513266635" lon="13.958423522521406"><ele>581.0</ele><time>2026-04-04T13:32:12.001Z</time></trkpt><trkpt lat="41.32503239399068" lon="13.958257295794782"><ele>576.75</ele><time>2026-04-04T13:32:13.001Z</time></trkpt><trkpt lat="41.324964831734064" lon="13.958117102991833"><ele>572.5</ele><time>2026-04-04T13:32:14.001Z</time></trkpt><trkpt lat="41.32491486993067" lon="13.957959332963469"><ele>568.25</ele><time>2026-04-04T13:32:15.001Z</time></trkpt><trkpt lat="41.324909793228414" lon="13.957750013518702"><ele>564.0</ele><time>2026-04-04T13:32:16.001Z</time></trkpt><trkpt lat="41.32488743306124" lon="13.957516387946486"><ele>561.6666666666666</ele><time>2026-04-04T13:32:17.001Z</time></trkpt><trkpt lat="41.32488130623843" lon="13.957270235756715"><ele>559.3333333333333</ele><time>2026-04-04T13:32:18.001Z</time></trkpt><trkpt lat="41.32485895441577" lon="13.95702647234613"><ele>557.0</ele><time>2026-04-04T13:32:19.001Z</time></trkpt><trkpt lat="41.324813369942554" lon="13.956770623896857"><ele>555.6666666666666</ele><time>2026-04-04T13:32:20.001Z</time></trkpt><trkpt lat="41.3247496613915" lon="13.956538053713189"><ele>554.3333333333334</ele><time>2026-04-04T13:32:21.001Z</time></trkpt><trkpt lat="41.324707059070064" lon="13.956346095527437"><ele>553.0</ele><time>2026-04-04T13:32:22.001Z</time></trkpt><trkpt lat="41.32467975894566" lon="13.956184592791107"><ele>552.0</ele><time>2026-04-04T13:32:23.001Z</time></trkpt><trkpt lat="41.324675937757206" lon="13.95602953354898"><ele>551.0</ele><time>2026-04-04T13:32:24.001Z</time></trkpt><trkpt lat="41.32470668371007" lon="13.955856345502138"><ele>550.0</ele><time>2026-04-04T13:32:25.001Z</time></trkpt><trkpt lat="41.324767329709616" lon="13.95568491969794"><ele>549.0</ele><time>2026-04-04T13:32:26.001Z</time></trkpt><trkpt lat="41.32483143055791" lon="13.955560626027873"><ele>549.0</ele><time>2026-04-04T13:32:27.001Z</time></trkpt><trkpt lat="41.32485838754549" lon="13.955443068179479"><ele>549.0</ele><time>2026-04-04T13:32:28.001Z</time></trkpt><trkpt lat="41.32485251236996" lon="13.955317800059309"><ele>549.0</ele><time>2026-04-04T13:32:29.001Z</time></trkpt><trkpt lat="41.32480632211669" lon="13.955181629325303"><ele>549.0</ele><time>2026-04-04T13:32:30.001Z</time></trkpt><trkpt lat="41.32473922170878" lon="13.955032535575004"><ele>549.0</ele><time>2026-04-04T13:32:31.001Z</time></trkpt><trkpt lat="41.32470514984033" lon="13.954887994376842"><ele>548.2</ele><time>2026-04-04T13:32:32.001Z</time></trkpt><trkpt lat="41.324716086707056" lon="13.9547669044514"><ele>547.4</ele><time>2026-04-04T13:32:33.001Z</time></trkpt><trkpt lat="41.32475482699544" lon="13.954658006216196"><ele>546.6</ele><time>2026-04-04T13:32:34.001Z</time></trkpt><trkpt lat="41.32483333811119" lon="13.95455282446508"><ele>545.8</ele><time>2026-04-04T13:32:35.001Z</time></trkpt><trkpt lat="41.324938718818174" lon="13.954453803474351"><ele>545.0</ele><time>2026-04-04T13:32:36.001Z</time></trkpt><trkpt lat="41.32502852067068" lon="13.954355477261181"><ele>545.0</ele><time>2026-04-04T13:32:37.001Z</time></trkpt><trkpt lat="41.325084828446" lon="13.954245095012178"><ele>545.0</ele><time>2026-04-04T13:32:38.001Z</time></trkpt><trkpt lat="41.32509939397952" lon="13.954127395114666"><ele>545.0</ele><time>2026-04-04T13:32:39.001Z</time></trkpt><trkpt lat="41.325085670704226" lon="13.95397148763832"><ele>545.0</ele><time>2026-04-04T13:32:40.001Z</time></trkpt><trkpt lat="41.325044808537235" lon="13.953785745709084"><ele>545.3333333333333</ele><time>2026-04-04T13:32:41.001Z</time></trkpt><trkpt lat="41.32499342484549" lon="13.953567398671352"><ele>545.6666666666666</ele><time>2026-04-04T13:32:42.001Z</time></trkpt><trkpt lat="41.32494559291652" lon="13.953328615465512"><ele>546.0</ele><time>2026-04-04T13:32:43.001Z</time></trkpt><trkpt lat="41.32490219296049" lon="13.953107343134043"><ele>546.3333333333334</ele><time>2026-04-04T13:32:44.001Z</time></trkpt><trkpt lat="41.32485083479033" lon="13.952904222270938"><ele>546.6666666666667</ele><time>2026-04-04T13:32:45.001Z</time></trkpt><trkpt lat="41.32475907844659" lon="13.952693102752704"><ele>547.0</ele><time>2026-04-04T13:32:46.001Z</time></trkpt><trkpt lat="41.32463224010853" lon="13.952478166676363"><ele>547.0</ele><time>2026-04-04T13:32:47.001Z</time></trkpt><trkpt lat="41.32449766503321" lon="13.952283694547685"><ele>547.0</ele><time>2026-04-04T13:32:48.001Z</time></trkpt><trkpt lat="41.3243782441674" lon="13.95211362530134"><ele>547.0</ele><time>2026-04-04T13:32:49.002Z</time></trkpt><trkpt lat="41.32428413100543" lon="13.951965041276614"><ele>547.0</ele><time>2026-04-04T13:32:50.002Z</time></trkpt><trkpt lat="41.324214172123966" lon="13.951813410459753"><ele>547.0</ele><time>2026-04-04T13:32:51.002Z</time></trkpt><trkpt lat="41.324145983074985" lon="13.951665569512786"><ele>547.0</ele><time>2026-04-04T13:32:52.002Z</time></trkpt><trkpt lat="41.32412744605506" lon="13.951516131117456"><ele>547.0</ele><time>2026-04-04T13:32:53.002Z</time></trkpt><trkpt lat="41.32413024355123" lon="13.951392505575782"><ele>545.2</ele><time>2026-04-04T13:32:54.002Z</time></trkpt><trkpt lat="41.324157449615264" lon="13.95129718942284"><ele>543.4000000000001</ele><time>2026-04-04T13:32:55.002Z</time></trkpt><trkpt lat="41.32421661024201" lon="13.951226901073797"><ele>541.5999999999999</ele><time>2026-04-04T13:32:56.002Z</time></trkpt><trkpt lat="41.324308596941584" lon="13.951198202690271"><ele>539.8</ele><time>2026-04-04T13:32:57.002Z</time></trkpt><trkpt lat="41.32440467832064" lon="13.951129060636944"><ele>538.0</ele><time>2026-04-04T13:32:58.002Z</time></trkpt><trkpt lat="41.32452739052112" lon="13.951078739779435"><ele>538.0</ele><time>2026-04-04T13:32:59.002Z</time></trkpt><trkpt lat="41.32462044476355" lon="13.950994913905047"><ele>538.0</ele><time>2026-04-04T13:33:00.002Z</time></trkpt><trkpt lat="41.32469990208186" lon="13.950896132839613"><ele>538.0</ele><time>2026-04-04T13:33:01.002Z</time></trkpt><trkpt lat="41.32476160079492" lon="13.950761369100157"><ele>538.0</ele><time>2026-04-04T13:33:02.002Z</time></trkpt><trkpt lat="41.32480927558529" lon="13.950610594672755"><ele>534.5</ele><time>2026-04-04T13:33:03.002Z</time></trkpt><trkpt lat="41.32485029801094" lon="13.950453369908727"><ele>531.0</ele><time>2026-04-04T13:33:04.002Z</time></trkpt><trkpt lat="41.32486845684182" lon="13.950287225070282"><ele>527.5</ele><time>2026-04-04T13:33:05.002Z</time></trkpt><trkpt lat="41.324869375647424" lon="13.95011008526552"><ele>524.0</ele><time>2026-04-04T13:33:06.002Z</time></trkpt><trkpt lat="41.32486436299244" lon="13.949932094864327"><ele>523.25</ele><time>2026-04-04T13:33:07.002Z</time></trkpt><trkpt lat="41.32485965636367" lon="13.949755045713935"><ele>522.5</ele><time>2026-04-04T13:33:08.002Z</time></trkpt><trkpt lat="41.324854659692924" lon="13.949576148263764"><ele>521.75</ele><time>2026-04-04T13:33:09.002Z</time></trkpt><trkpt lat="41.32484324514398" lon="13.949396489510638"><ele>521.0</ele><time>2026-04-04T13:33:10.002Z</time></trkpt><trkpt lat="41.32482844842858" lon="13.949216190705103"><ele>520.5</ele><time>2026-04-04T13:33:11.002Z</time></trkpt><trkpt lat="41.32479911566668" lon="13.949034631795515"><ele>520.0</ele><time>2026-04-04T13:33:12.002Z</time></trkpt><trkpt lat="41.32478044346255" lon="13.948854745054284"><ele>519.5</ele><time>2026-04-04T13:33:13.002Z</time></trkpt><trkpt lat="41.32476052196717" lon="13.948674151414782"><ele>519.0</ele><time>2026-04-04T13:33:14.002Z</time></trkpt><trkpt lat="41.32473685092253" lon="13.948496731941802"><ele>521.2</ele><time>2026-04-04T13:33:15.002Z</time></trkpt><trkpt lat="41.3247055121079" lon="13.948322320566044"><ele>523.4</ele><time>2026-04-04T13:33:16.002Z</time></trkpt><trkpt lat="41.324676656522676" lon="13.948172294982454"><ele>525.6</ele><time>2026-04-04T13:33:17.002Z</time></trkpt><trkpt lat="41.324656880989224" lon="13.948045880264607"><ele>527.8</ele><time>2026-04-04T13:33:18.002Z</time></trkpt><trkpt lat="41.32464123062521" lon="13.947946570344454"><ele>530.0</ele><time>2026-04-04T13:33:19.002Z</time></trkpt><trkpt lat="41.324612544969376" lon="13.94783652647516"><ele>530.0</ele><time>2026-04-04T13:33:21.002Z</time></trkpt><trkpt lat="41.32450151527256" lon="13.947842455347873"><ele>530.0</ele><time>2026-04-04T13:33:24.002Z</time></trkpt><trkpt lat="41.324410189250514" lon="13.947834790825123"><ele>530.0</ele><time>2026-04-04T13:33:26.002Z</time></trkpt><trkpt lat="41.32429290396403" lon="13.947829235941443"><ele>530.0</ele><time>2026-04-04T13:33:28.002Z</time></trkpt><trkpt lat="41.324221181512065" lon="13.94784019295495"><ele>530.0</ele><time>2026-04-04T13:33:29.002Z</time></trkpt><trkpt lat="41.32414677364862" lon="13.94780641710454"><ele>530.0</ele><time>2026-04-04T13:33:30.002Z</time></trkpt><trkpt lat="41.32405893190531" lon="13.947791950449744"><ele>530.0</ele><time>2026-04-04T13:33:31.002Z</time></trkpt><trkpt lat="41.323961047424945" lon="13.947779180561659"><ele>530.0</ele><time>2026-04-04T13:33:32.002Z</time></trkpt><trkpt lat="41.32385737484689" lon="13.94780360483937"><ele>530.0</ele><time>2026-04-04T13:33:33.002Z</time></trkpt><trkpt lat="41.323762008200895" lon="13.947786867835852"><ele>530.0</ele><time>2026-04-04T13:33:34.002Z</time></trkpt><trkpt lat="41.323676852286425" lon="13.947778604262755"><ele>531.3333333333333</ele><time>2026-04-04T13:33:35.001Z</time></trkpt><trkpt lat="41.3235951325341" lon="13.947780671639595"><ele>532.6666666666666</ele><time>2026-04-04T13:33:36Z</time></trkpt><trkpt lat="41.323516772768016" lon="13.947737019977035"><ele>534.0</ele><time>2026-04-04T13:33:37.001Z</time></trkpt><trkpt lat="41.32344243775968" lon="13.947673230432473"><ele>535.3333333333334</ele><time>2026-04-04T13:33:38Z</time></trkpt><trkpt lat="41.32337627018485" lon="13.947603105069955"><ele>536.6666666666667</ele><time>2026-04-04T13:33:39Z</time></trkpt><trkpt lat="41.3233194563525" lon="13.947506101428553"><ele>538.0</ele><time>2026-04-04T13:33:40Z</time></trkpt><trkpt lat="41.32327144362043" lon="13.947391923006792"><ele>538.0</ele><time>2026-04-04T13:33:41Z</time></trkpt><trkpt lat="41.32322271228502" lon="13.947244553654832"><ele>538.0</ele><time>2026-04-04T13:33:42Z</time></trkpt><trkpt lat="41.323164773201405" lon="13.947115693622251"><ele>538.0</ele><time>2026-04-04T13:33:43Z</time></trkpt><trkpt lat="41.32310349125257" lon="13.946995765602757"><ele>538.0</ele><time>2026-04-04T13:33:44Z</time></trkpt><trkpt lat="41.323046074993535" lon="13.94686835355389"><ele>538.6</ele><time>2026-04-04T13:33:45Z</time></trkpt><trkpt lat="41.32299647881525" lon="13.946736150301524"><ele>539.1999999999999</ele><time>2026-04-04T13:33:46Z</time></trkpt><trkpt lat="41.322946524891485" lon="13.946601911640492"><ele>539.8</ele><time>2026-04-04T13:33:47Z</time></trkpt><trkpt lat="41.32290102958676" lon="13.946472237114165"><ele>540.4</ele><time>2026-04-04T13:33:48Z</time></trkpt><trkpt lat="41.322849677721315" lon="13.946354963354109"><ele>541.0</ele><time>2026-04-04T13:33:49Z</time></trkpt><trkpt lat="41.3228056400996" lon="13.946258929372966"><ele>541.0</ele><time>2026-04-04T13:33:50Z</time></trkpt><trkpt lat="41.32275851479102" lon="13.946189962001368"><ele>541.0</ele><time>2026-04-04T13:33:51Z</time></trkpt><trkpt lat="41.32265376177839" lon="13.94611498562503"><ele>541.0</ele><time>2026-04-04T13:33:53Z</time></trkpt><trkpt lat="41.32258597389789" lon="13.94609999543085"><ele>541.0</ele><time>2026-04-04T13:33:54Z</time></trkpt><trkpt lat="41.32251236827386" lon="13.94608130479049"><ele>541.0</ele><time>2026-04-04T13:33:55Z</time></trkpt><trkpt lat="41.32242451905579" lon="13.946137521360342"><ele>541.0</ele><time>2026-04-04T13:33:56Z</time></trkpt><trkpt lat="41.32233169340567" lon="13.946148533851083"><ele>541.0</ele><time>2026-04-04T13:33:57Z</time></trkpt><trkpt lat="41.322240467634074" lon="13.946149664202958"><ele>541.0</ele><time>2026-04-04T13:33:58Z</time></trkpt><trkpt lat="41.32214267638284" lon="13.946140624374422"><ele>541.0</ele><time>2026-04-04T13:33:59Z</time></trkpt><trkpt lat="41.32205708521629" lon="13.946136794151665"><ele>541.0</ele><time>2026-04-04T13:34:00Z</time></trkpt><trkpt lat="41.32198334011443" lon="13.94613385871249"><ele>541.0</ele><time>2026-04-04T13:34:01Z</time></trkpt><trkpt lat="41.32190845799018" lon="13.94610441477892"><ele>541.0</ele><time>2026-04-04T13:34:02Z</time></trkpt><trkpt lat="41.32183468299336" lon="13.946089810981"><ele>540.0</ele><time>2026-04-04T13:34:03Z</time></trkpt><trkpt lat="41.32176850276712" lon="13.94607671061232"><ele>539.0</ele><time>2026-04-04T13:34:04Z</time></trkpt><trkpt lat="41.321667220732806" lon="13.946044625685452"><ele>538.0</ele><time>2026-04-04T13:34:06.001Z</time></trkpt><trkpt lat="41.32163851823938" lon="13.94592512037322"><ele>537.0</ele><time>2026-04-04T13:34:08.001Z</time></trkpt><trkpt lat="41.32169866387668" lon="13.94578326926423"><ele>536.0</ele><time>2026-04-04T13:34:10.001Z</time></trkpt><trkpt lat="41.32175557744847" lon="13.945732225115925"><ele>536.0</ele><time>2026-04-04T13:34:11.001Z</time></trkpt><trkpt lat="41.321809780102036" lon="13.945637641974306"><ele>536.0</ele><time>2026-04-04T13:34:12.001Z</time></trkpt><trkpt lat="41.321875104902084" lon="13.945566145627929"><ele>536.0</ele><time>2026-04-04T13:34:13.001Z</time></trkpt><trkpt lat="41.32193278795885" lon="13.945497622114653"><ele>536.0</ele><time>2026-04-04T13:34:14.001Z</time></trkpt><trkpt lat="41.32198505489174" lon="13.945435546826891"><ele>536.0</ele><time>2026-04-04T13:34:15.001Z</time></trkpt><trkpt lat="41.32203031670196" lon="13.945372787990618"><ele>536.0</ele><time>2026-04-04T13:34:16.001Z</time></trkpt><trkpt lat="41.32207664186725" lon="13.945237534081219"><ele>536.0</ele><time>2026-04-04T13:34:18.001Z</time></trkpt><trkpt lat="41.32209231427022" lon="13.945064432976178"><ele>536.0</ele><time>2026-04-04T13:34:20.001Z</time></trkpt><trkpt lat="41.322106602035085" lon="13.944980836902834"><ele>536.0</ele><time>2026-04-04T13:34:21.001Z</time></trkpt><trkpt lat="41.32218970593494" lon="13.944879621174698"><ele>536.0</ele><time>2026-04-04T13:34:23.001Z</time></trkpt><trkpt lat="41.32224477756109" lon="13.944837382170684"><ele>536.0</ele><time>2026-04-04T13:34:24.001Z</time></trkpt><trkpt lat="41.32234811933473" lon="13.944772004009023"><ele>532.6666666666666</ele><time>2026-04-04T13:34:26.001Z</time></trkpt><trkpt lat="41.322441286682064" lon="13.94472439469287"><ele>529.3333333333333</ele><time>2026-04-04T13:34:28.001Z</time></trkpt><trkpt lat="41.322523348142916" lon="13.94467741009272"><ele>526.0</ele><time>2026-04-04T13:34:30.001Z</time></trkpt><trkpt lat="41.32259671716927" lon="13.94462070372813"><ele>522.6666666666666</ele><time>2026-04-04T13:34:32.001Z</time></trkpt><trkpt lat="41.32267097998767" lon="13.944559777653025"><ele>519.3333333333334</ele><time>2026-04-04T13:34:34.001Z</time></trkpt><trkpt lat="41.322716216995154" lon="13.944485190468281"><ele>516.0</ele><time>2026-04-04T13:34:36.001Z</time></trkpt><trkpt lat="41.322773728519415" lon="13.944431601407267"><ele>516.0</ele><time>2026-04-04T13:34:39.001Z</time></trkpt><trkpt lat="41.32281670879744" lon="13.944355877806096"><ele>516.0</ele><time>2026-04-04T13:35:51Z</time></trkpt><trkpt lat="41.32288625133976" lon="13.944283114665977"><ele>516.0</ele><time>2026-04-04T13:35:53Z</time></trkpt><trkpt lat="41.32294349041686" lon="13.944161269954343"><ele>516.0</ele><time>2026-04-04T13:35:55Z</time></trkpt><trkpt lat="41.322992555144324" lon="13.9440163318762"><ele>516.0</ele><time>2026-04-04T13:35:57Z</time></trkpt><trkpt lat="41.323021375532164" lon="13.943866169136326"><ele>515.8</ele><time>2026-04-04T13:35:59Z</time></trkpt><trkpt lat="41.32304435684266" lon="13.943722461589664"><ele>515.6</ele><time>2026-04-04T13:36:01Z</time></trkpt><trkpt lat="41.3230525323317" lon="13.943601839558148"><ele>515.4</ele><time>2026-04-04T13:36:03Z</time></trkpt><trkpt lat="41.32301496499838" lon="13.943442196677777"><ele>515.2</ele><time>2026-04-04T13:36:05Z</time></trkpt><trkpt lat="41.322989321050564" lon="13.94336061307646"><ele>515.0</ele><time>2026-04-04T13:36:06Z</time></trkpt><trkpt lat="41.322958365372386" lon="13.943280455178204"><ele>515.0</ele><time>2026-04-04T13:36:07Z</time></trkpt><trkpt lat="41.32292049453855" lon="13.943143753935216"><ele>515.0</ele><time>2026-04-04T13:36:09Z</time></trkpt><trkpt lat="41.322876408101855" lon="13.942993689956158"><ele>515.0</ele><time>2026-04-04T13:36:11Z</time></trkpt><trkpt lat="41.32282849138578" lon="13.94284687588332"><ele>515.0</ele><time>2026-04-04T13:36:13Z</time></trkpt><trkpt lat="41.32276909161801" lon="13.942699442364207"><ele>515.0</ele><time>2026-04-04T13:36:15Z</time></trkpt><trkpt lat="41.322734781437845" lon="13.942597022749665"><ele>515.0</ele><time>2026-04-04T13:36:17Z</time></trkpt><trkpt lat="41.32280966769802" lon="13.942694972125857"><ele>515.0</ele><time>2026-04-04T13:36:24Z</time></trkpt><trkpt lat="41.32288554022036" lon="13.942850116954991"><ele>515.0</ele><time>2026-04-04T13:36:26Z</time></trkpt><trkpt lat="41.32290908657696" lon="13.942954131983532"><ele>515.0</ele><time>2026-04-04T13:36:27Z</time></trkpt><trkpt lat="41.322948142767345" lon="13.943041671613937"><ele>515.0</ele><time>2026-04-04T13:36:28Z</time></trkpt><trkpt lat="41.32298038805412" lon="13.943132135995505"><ele>515.0</ele><time>2026-04-04T13:36:29Z</time></trkpt><trkpt lat="41.32301582693962" lon="13.943224831499244"><ele>515.0</ele><time>2026-04-04T13:36:30.001Z</time></trkpt><trkpt lat="41.32304462889434" lon="13.943303976199218"><ele>515.0</ele><time>2026-04-04T13:36:31.001Z</time></trkpt><trkpt lat="41.32308977231567" lon="13.943420997353394"><ele>515.0</ele><time>2026-04-04T13:36:33.001Z</time></trkpt><trkpt lat="41.32311961687317" lon="13.94349751588952"><ele>515.0</ele><time>2026-04-04T13:36:34.001Z</time></trkpt><trkpt lat="41.32315278562373" lon="13.943586388714417"><ele>512.8</ele><time>2026-04-04T13:36:35.001Z</time></trkpt><trkpt lat="41.323184511201276" lon="13.94366502640735"><ele>510.6</ele><time>2026-04-04T13:36:36.001Z</time></trkpt><trkpt lat="41.323241958684" lon="13.94382644635841"><ele>508.4</ele><time>2026-04-04T13:36:38.001Z</time></trkpt><trkpt lat="41.32329220757466" lon="13.94396387825204"><ele>506.2</ele><time>2026-04-04T13:36:40.001Z</time></trkpt><trkpt lat="41.32334830152503" lon="13.944086061305407"><ele>504.0</ele><time>2026-04-04T13:36:42.001Z</time></trkpt><trkpt lat="41.32345060971995" lon="13.94417709381333"><ele>504.0</ele><time>2026-04-04T13:36:44.001Z</time></trkpt><trkpt lat="41.32353598511633" lon="13.944157748782082"><ele>504.0</ele><time>2026-04-04T13:36:45.001Z</time></trkpt><trkpt lat="41.32362135057533" lon="13.944140859093219"><ele>504.0</ele><time>2026-04-04T13:36:46.001Z</time></trkpt><trkpt lat="41.32371351964051" lon="13.944129956256111"><ele>504.0</ele><time>2026-04-04T13:36:47.001Z</time></trkpt><trkpt lat="41.32380200641736" lon="13.944082129817087"><ele>504.0</ele><time>2026-04-04T13:36:48.001Z</time></trkpt><trkpt lat="41.32389854217301" lon="13.944064221036909"><ele>503.3333333333333</ele><time>2026-04-04T13:36:49.001Z</time></trkpt><trkpt lat="41.3239942059522" lon="13.944044207091956"><ele>502.66666666666663</ele><time>2026-04-04T13:36:50.001Z</time></trkpt><trkpt lat="41.32407277332578" lon="13.944012081954716"><ele>502.0</ele><time>2026-04-04T13:36:51.001Z</time></trkpt><trkpt lat="41.32417385179851" lon="13.94404697905051"><ele>501.3333333333333</ele><time>2026-04-04T13:36:52.001Z</time></trkpt><trkpt lat="41.324235459450314" lon="13.944075457865402"><ele>500.66666666666663</ele><time>2026-04-04T13:36:53.001Z</time></trkpt><trkpt lat="41.32432246103807" lon="13.944106140028504"><ele>500.0</ele><time>2026-04-04T13:36:55.001Z</time></trkpt><trkpt lat="41.3243749957905" lon="13.944244712608269"><ele>498.8333333333333</ele><time>2026-04-04T13:36:57.001Z</time></trkpt><trkpt lat="41.32444269493041" lon="13.94431398899549"><ele>497.66666666666663</ele><time>2026-04-04T13:36:59.001Z</time></trkpt><trkpt lat="41.3245058830762" lon="13.944390834376962"><ele>496.5</ele><time>2026-04-04T13:37:01.001Z</time></trkpt><trkpt lat="41.32463306177839" lon="13.9443604122063"><ele>495.33333333333337</ele><time>2026-04-04T13:37:04.001Z</time></trkpt><trkpt lat="41.32468616980144" lon="13.94431400281675"><ele>494.1666666666667</ele><time>2026-04-04T13:37:05.001Z</time></trkpt><trkpt lat="41.324736814916584" lon="13.94426288330747"><ele>493.0</ele><time>2026-04-04T13:37:06.001Z</time></trkpt><trkpt lat="41.32479292060634" lon="13.944208925830821"><ele>492.1666666666667</ele><time>2026-04-04T13:37:07.001Z</time></trkpt><trkpt lat="41.32485451701247" lon="13.94414739084995"><ele>491.33333333333337</ele><time>2026-04-04T13:37:08.001Z</time></trkpt><trkpt lat="41.32489425276287" lon="13.944082290534542"><ele>490.5</ele><time>2026-04-04T13:37:09.001Z</time></trkpt><trkpt lat="41.324980394147396" lon="13.943963067325095"><ele>489.66666666666663</ele><time>2026-04-04T13:37:11.001Z</time></trkpt><trkpt lat="41.32502948357618" lon="13.943897601694271"><ele>488.8333333333333</ele><time>2026-04-04T13:37:12.001Z</time></trkpt><trkpt lat="41.32506763918736" lon="13.943820438523657"><ele>488.0</ele><time>2026-04-04T13:37:13.001Z</time></trkpt><trkpt lat="41.32511337768517" lon="13.943742111435204"><ele>488.0</ele><time>2026-04-04T13:37:14.001Z</time></trkpt><trkpt lat="41.32516567471632" lon="13.943662982337584"><ele>487.99999999999994</ele><time>2026-04-04T13:37:15.001Z</time></trkpt><trkpt lat="41.32525179134395" lon="13.94355568748371"><ele>487.99999999999994</ele><time>2026-04-04T13:37:17.001Z</time></trkpt><trkpt lat="41.32535726822054" lon="13.943473478928269"><ele>488.0</ele><time>2026-04-04T13:37:19.001Z</time></trkpt><trkpt lat="41.32545222201382" lon="13.943430525168921"><ele>488.0</ele><time>2026-04-04T13:37:21.001Z</time></trkpt><trkpt lat="41.32553901379041" lon="13.943434909788103"><ele>486.4</ele><time>2026-04-04T13:37:23.001Z</time></trkpt><trkpt lat="41.32560267686568" lon="13.943464178923431"><ele>484.79999999999995</ele><time>2026-04-04T13:37:24.001Z</time></trkpt><trkpt lat="41.32570507059176" lon="13.943485546115769"><ele>483.2</ele><time>2026-04-04T13:37:26.001Z</time></trkpt><trkpt lat="41.32580998982877" lon="13.943477607270669"><ele>481.6</ele><time>2026-04-04T13:37:28.001Z</time></trkpt><trkpt lat="41.325906969293555" lon="13.943437974200247"><ele>480.0</ele><time>2026-04-04T13:37:30.002Z</time></trkpt><trkpt lat="41.32598697687998" lon="13.943442317944918"><ele>480.0</ele><time>2026-04-04T13:37:33.002Z</time></trkpt><trkpt lat="41.325861194645235" lon="13.943421415393376"><ele>480.0</ele><time>2026-04-04T13:37:42.002Z</time></trkpt><trkpt lat="41.32577144389688" lon="13.943410905005027"><ele>480.0</ele><time>2026-04-04T13:37:44.002Z</time></trkpt><trkpt lat="41.325776482086795" lon="13.943292400959606"><ele>480.0</ele><time>2026-04-04T13:37:48Z</time></trkpt><trkpt lat="41.32577328971711" lon="13.943204318941314"><ele>480.0</ele><time>2026-04-04T13:37:49Z</time></trkpt><trkpt lat="41.325733838971146" lon="13.943107318438875"><ele>478.4</ele><time>2026-04-04T13:37:51Z</time></trkpt><trkpt lat="41.32570973049968" lon="13.942993748151945"><ele>476.8</ele><time>2026-04-04T13:37:53Z</time></trkpt><trkpt lat="41.32576114054793" lon="13.942893037319518"><ele>475.20000000000005</ele><time>2026-04-04T13:37:55Z</time></trkpt><trkpt lat="41.32584628721371" lon="13.942789887969333"><ele>473.6</ele><time>2026-04-04T13:37:57Z</time></trkpt><trkpt lat="41.32591581931918" lon="13.942679481381875"><ele>472.0</ele><time>2026-04-04T13:37:59Z</time></trkpt><trkpt lat="41.32597396978917" lon="13.942550315070324"><ele>470.00000000000006</ele><time>2026-04-04T13:38:01Z</time></trkpt><trkpt lat="41.32603990008579" lon="13.94241486795706"><ele>468.0</ele><time>2026-04-04T13:38:03Z</time></trkpt><trkpt lat="41.32607384260534" lon="13.94234273930092"><ele>466.0</ele><time>2026-04-04T13:38:04Z</time></trkpt><trkpt lat="41.326118765200405" lon="13.942263169502558"><ele>464.0</ele><time>2026-04-04T13:38:05Z</time></trkpt><trkpt lat="41.32615692246292" lon="13.942169167275306"><ele>462.00000000000006</ele><time>2026-04-04T13:38:06Z</time></trkpt><trkpt lat="41.32621400238855" lon="13.94208878512788"><ele>460.0</ele><time>2026-04-04T13:38:07Z</time></trkpt><trkpt lat="41.326266127931156" lon="13.942007204194024"><ele>460.00000000000006</ele><time>2026-04-04T13:38:08Z</time></trkpt><trkpt lat="41.32631887081698" lon="13.941921361741715"><ele>460.0</ele><time>2026-04-04T13:38:09Z</time></trkpt><trkpt lat="41.32637036473813" lon="13.941845603452133"><ele>460.0</ele><time>2026-04-04T13:38:10Z</time></trkpt><trkpt lat="41.32641467148516" lon="13.941783065395452"><ele>460.0</ele><time>2026-04-04T13:38:11Z</time></trkpt><trkpt lat="41.32647447781536" lon="13.94171068588148"><ele>460.00000000000006</ele><time>2026-04-04T13:38:34Z</time></trkpt><trkpt lat="41.326560754694476" lon="13.941653247200891"><ele>460.0</ele><time>2026-04-04T13:38:36Z</time></trkpt><trkpt lat="41.32666413098624" lon="13.941563010780847"><ele>457.50000000000006</ele><time>2026-04-04T13:38:38.001Z</time></trkpt><trkpt lat="41.32670872110278" lon="13.94149869200436"><ele>455.0</ele><time>2026-04-04T13:38:39.001Z</time></trkpt><trkpt lat="41.32676308223828" lon="13.941454375001605"><ele>452.5</ele><time>2026-04-04T13:38:40.001Z</time></trkpt><trkpt lat="41.32682976142895" lon="13.941436893186296"><ele>450.0</ele><time>2026-04-04T13:38:41.001Z</time></trkpt><trkpt lat="41.32693759312422" lon="13.941358135790178"><ele>447.50000000000006</ele><time>2026-04-04T13:38:43.001Z</time></trkpt><trkpt lat="41.32699166349172" lon="13.941310838808654"><ele>445.0</ele><time>2026-04-04T13:38:44.001Z</time></trkpt><trkpt lat="41.32707706826354" lon="13.941192740774552"><ele>445.0</ele><time>2026-04-04T13:38:46.001Z</time></trkpt><trkpt lat="41.32713883281289" lon="13.941052759490708"><ele>445.0</ele><time>2026-04-04T13:38:48.001Z</time></trkpt><trkpt lat="41.327169580341696" lon="13.940972436230258"><ele>445.0</ele><time>2026-04-04T13:38:49.001Z</time></trkpt><trkpt lat="41.3272079448287" lon="13.94090410097453"><ele>445.0</ele><time>2026-04-04T13:38:50.001Z</time></trkpt><trkpt lat="41.327308072853405" lon="13.940809207887416"><ele>445.0</ele><time>2026-04-04T13:38:52.001Z</time></trkpt><trkpt lat="41.32739822286197" lon="13.940724726013045"><ele>443.6666666666667</ele><time>2026-04-04T13:38:54.001Z</time></trkpt><trkpt lat="41.32744651855751" lon="13.940658144573192"><ele>442.33333333333337</ele><time>2026-04-04T13:38:57.001Z</time></trkpt><trkpt lat="41.32742160891075" lon="13.94051335824224"><ele>441.0</ele><time>2026-04-04T13:39:05.001Z</time></trkpt><trkpt lat="41.32736453853509" lon="13.940459404015641"><ele>439.66666666666663</ele><time>2026-04-04T13:39:06.001Z</time></trkpt><trkpt lat="41.32728888602414" lon="13.940385459661496"><ele>438.3333333333333</ele><time>2026-04-04T13:39:07.001Z</time></trkpt><trkpt lat="41.327201999798916" lon="13.940327193593294"><ele>437.0</ele><time>2026-04-04T13:39:08.001Z</time></trkpt><trkpt lat="41.3270993887251" lon="13.940260556168841"><ele>437.0</ele><time>2026-04-04T13:39:09.001Z</time></trkpt><trkpt lat="41.32699803343803" lon="13.940209681745843"><ele>437.00000000000006</ele><time>2026-04-04T13:39:10.001Z</time></trkpt><trkpt lat="41.32688781317353" lon="13.940193919373948"><ele>437.00000000000006</ele><time>2026-04-04T13:39:11.001Z</time></trkpt><trkpt lat="41.326776010069864" lon="13.940208277089845"><ele>437.0</ele><time>2026-04-04T13:39:12.001Z</time></trkpt><trkpt lat="41.32666988614391" lon="13.940272039079039"><ele>437.0</ele><time>2026-04-04T13:39:13.001Z</time></trkpt><trkpt lat="41.32657154022257" lon="13.940374018889193"><ele>437.0</ele><time>2026-04-04T13:39:14.001Z</time></trkpt><trkpt lat="41.32647727204267" lon="13.940493815733891"><ele>437.0</ele><time>2026-04-04T13:39:15.001Z</time></trkpt><trkpt lat="41.32638618044814" lon="13.940611434906415"><ele>437.0</ele><time>2026-04-04T13:39:16.001Z</time></trkpt><trkpt lat="41.3263095966098" lon="13.940725398234486"><ele>437.0</ele><time>2026-04-04T13:39:17.001Z</time></trkpt><trkpt lat="41.326224597657536" lon="13.940806794743466"><ele>436.20000000000005</ele><time>2026-04-04T13:39:18.001Z</time></trkpt><trkpt lat="41.32613475571189" lon="13.940852247875391"><ele>435.40000000000003</ele><time>2026-04-04T13:39:19.001Z</time></trkpt><trkpt lat="41.32602928015825" lon="13.940855911668063"><ele>434.59999999999997</ele><time>2026-04-04T13:39:20.001Z</time></trkpt><trkpt lat="41.32592650963308" lon="13.940823759949104"><ele>433.79999999999995</ele><time>2026-04-04T13:39:21.001Z</time></trkpt><trkpt lat="41.32582085253186" lon="13.940747026001972"><ele>433.0</ele><time>2026-04-04T13:39:22.001Z</time></trkpt><trkpt lat="41.32572596657625" lon="13.940638234116571"><ele>433.0</ele><time>2026-04-04T13:39:23.001Z</time></trkpt><trkpt lat="41.325631243876025" lon="13.94051777009432"><ele>433.0</ele><time>2026-04-04T13:39:24.001Z</time></trkpt><trkpt lat="41.32554015314216" lon="13.940386576186908"><ele>433.0</ele><time>2026-04-04T13:39:25.001Z</time></trkpt><trkpt lat="41.325462128672974" lon="13.94024379236526"><ele>433.0</ele><time>2026-04-04T13:39:26.001Z</time></trkpt><trkpt lat="41.32539902507393" lon="13.94008559042713"><ele>434.25</ele><time>2026-04-04T13:39:27.001Z</time></trkpt><trkpt lat="41.325356303546485" lon="13.939928803439805"><ele>435.5</ele><time>2026-04-04T13:39:28.001Z</time></trkpt><trkpt lat="41.32534111043552" lon="13.93977280127637"><ele>436.75</ele><time>2026-04-04T13:39:29.001Z</time></trkpt><trkpt lat="41.32536117961358" lon="13.939628536495162"><ele>438.0</ele><time>2026-04-04T13:39:30.001Z</time></trkpt><trkpt lat="41.32541797990192" lon="13.939473290028461"><ele>438.0</ele><time>2026-04-04T13:39:31.001Z</time></trkpt><trkpt lat="41.325498496323846" lon="13.939321745899344"><ele>438.0</ele><time>2026-04-04T13:39:32.001Z</time></trkpt><trkpt lat="41.32557867167156" lon="13.939150427101138"><ele>438.0</ele><time>2026-04-04T13:39:33.001Z</time></trkpt><trkpt lat="41.32565356600363" lon="13.938958713594607"><ele>433.33333333333337</ele><time>2026-04-04T13:39:34.002Z</time></trkpt><trkpt lat="41.325720169462485" lon="13.938759151832361"><ele>428.6666666666667</ele><time>2026-04-04T13:39:35.002Z</time></trkpt><trkpt lat="41.325782477475286" lon="13.938564106405444"><ele>424.0</ele><time>2026-04-04T13:39:36.002Z</time></trkpt><trkpt lat="41.32581755821446" lon="13.938379964132267"><ele>424.0</ele><time>2026-04-04T13:39:37.002Z</time></trkpt><trkpt lat="41.32585139731562" lon="13.938212087130642"><ele>424.0</ele><time>2026-04-04T13:39:38.002Z</time></trkpt><trkpt lat="41.325882048897256" lon="13.938035942135945"><ele>424.0</ele><time>2026-04-04T13:39:39.002Z</time></trkpt><trkpt lat="41.325868334514425" lon="13.93785385046638"><ele>424.0</ele><time>2026-04-04T13:39:40.002Z</time></trkpt><trkpt lat="41.325828940992665" lon="13.937682801980339"><ele>423.5</ele><time>2026-04-04T13:39:41.002Z</time></trkpt><trkpt lat="41.32578213453397" lon="13.937525427750654"><ele>423.0</ele><time>2026-04-04T13:39:42.002Z</time></trkpt><trkpt lat="41.32570577431435" lon="13.937390121264068"><ele>422.5</ele><time>2026-04-04T13:39:43.002Z</time></trkpt><trkpt lat="41.32561370700584" lon="13.937277314365492"><ele>422.0</ele><time>2026-04-04T13:39:44.002Z</time></trkpt><trkpt lat="41.32553628557381" lon="13.93721395489733"><ele>423.6</ele><time>2026-04-04T13:39:45.002Z</time></trkpt><trkpt lat="41.32544610407678" lon="13.93719081022689"><ele>425.20000000000005</ele><time>2026-04-04T13:39:46.002Z</time></trkpt><trkpt lat="41.32533681841336" lon="13.93720742977236"><ele>426.8</ele><time>2026-04-04T13:39:47.002Z</time></trkpt><trkpt lat="41.32522250724342" lon="13.937250833996577"><ele>428.4</ele><time>2026-04-04T13:39:48.002Z</time></trkpt><trkpt lat="41.325129631095734" lon="13.937249805381386"><ele>430.0</ele><time>2026-04-04T13:39:49.002Z</time></trkpt><trkpt lat="41.325058617209855" lon="13.937271175185286"><ele>430.00000000000006</ele><time>2026-04-04T13:39:50.002Z</time></trkpt><trkpt lat="41.324992832820556" lon="13.93723378859264"><ele>430.0</ele><time>2026-04-04T13:39:51.002Z</time></trkpt><trkpt lat="41.32494696786422" lon="13.937168829568776"><ele>430.0</ele><time>2026-04-04T13:39:52.002Z</time></trkpt><trkpt lat="41.32491978124687" lon="13.937071876094809"><ele>430.0</ele><time>2026-04-04T13:39:53Z</time></trkpt><trkpt lat="41.324919361136864" lon="13.936959026095142"><ele>430.00000000000006</ele><time>2026-04-04T13:39:54Z</time></trkpt><trkpt lat="41.3249310428755" lon="13.936810761663672"><ele>430.0</ele><time>2026-04-04T13:39:55Z</time></trkpt><trkpt lat="41.32496033800177" lon="13.93664649500244"><ele>428.6</ele><time>2026-04-04T13:39:56Z</time></trkpt><trkpt lat="41.32498995924625" lon="13.936505594830795"><ele>427.2</ele><time>2026-04-04T13:39:57Z</time></trkpt><trkpt lat="41.3250133082165" lon="13.93638748352207"><ele>425.79999999999995</ele><time>2026-04-04T13:39:58Z</time></trkpt><trkpt lat="41.32500906165323" lon="13.936243527712216"><ele>424.4</ele><time>2026-04-04T13:39:59Z</time></trkpt><trkpt lat="41.324976504224075" lon="13.936087695260385"><ele>423.0</ele><time>2026-04-04T13:40:00Z</time></trkpt><trkpt lat="41.324928738235066" lon="13.935940817387406"><ele>424.5</ele><time>2026-04-04T13:40:01Z</time></trkpt><trkpt lat="41.32485462950606" lon="13.935800232466672"><ele>426.0</ele><time>2026-04-04T13:40:02Z</time></trkpt><trkpt lat="41.32475840002558" lon="13.935677094844827"><ele>427.5</ele><time>2026-04-04T13:40:03Z</time></trkpt><trkpt lat="41.324667027768704" lon="13.93555848929694"><ele>429.0</ele><time>2026-04-04T13:40:04Z</time></trkpt><trkpt lat="41.324599034582235" lon="13.935417086262245"><ele>429.0</ele><time>2026-04-04T13:40:05Z</time></trkpt><trkpt lat="41.32455045137369" lon="13.935258350499556"><ele>429.0</ele><time>2026-04-04T13:40:06Z</time></trkpt><trkpt lat="41.324525108544705" lon="13.93512813844987"><ele>429.0</ele><time>2026-04-04T13:40:07Z</time></trkpt><trkpt lat="41.32448983327794" lon="13.935022251092919"><ele>429.0</ele><time>2026-04-04T13:40:08Z</time></trkpt><trkpt lat="41.32443200327512" lon="13.9349447933408"><ele>429.0</ele><time>2026-04-04T13:40:09Z</time></trkpt><trkpt lat="41.324337294738854" lon="13.934882876789429"><ele>427.75</ele><time>2026-04-04T13:40:10Z</time></trkpt><trkpt lat="41.324230586675974" lon="13.934838785350088"><ele>426.5</ele><time>2026-04-04T13:40:11Z</time></trkpt><trkpt lat="41.32411078009963" lon="13.934833544378812"><ele>425.25</ele><time>2026-04-04T13:40:12Z</time></trkpt><trkpt lat="41.32398801635612" lon="13.934857588557628"><ele>424.0</ele><time>2026-04-04T13:40:13Z</time></trkpt><trkpt lat="41.32385392811985" lon="13.934897657567811"><ele>424.0</ele><time>2026-04-04T13:40:14Z</time></trkpt><trkpt lat="41.32373332992294" lon="13.934919260713178"><ele>424.0</ele><time>2026-04-04T13:40:15Z</time></trkpt><trkpt lat="41.32363193876616" lon="13.934962292592779"><ele>424.0</ele><time>2026-04-04T13:40:16Z</time></trkpt><trkpt lat="41.32354279539667" lon="13.934989510162719"><ele>424.0</ele><time>2026-04-04T13:40:17Z</time></trkpt><trkpt lat="41.32345462740481" lon="13.935003678063563"><ele>424.0</ele><time>2026-04-04T13:40:18Z</time></trkpt><trkpt lat="41.32336592032341" lon="13.93494797189459"><ele>424.0</ele><time>2026-04-04T13:40:19Z</time></trkpt><trkpt lat="41.32331785331904" lon="13.934869658731682"><ele>424.0</ele><time>2026-04-04T13:40:20Z</time></trkpt><trkpt lat="41.32329191829852" lon="13.934790248396393"><ele>424.0</ele><time>2026-04-04T13:40:21Z</time></trkpt><trkpt lat="41.32333590545276" lon="13.934646344038754"><ele>424.0</ele><time>2026-04-04T13:40:23Z</time></trkpt><trkpt lat="41.323403974378756" lon="13.934537316226544"><ele>424.0</ele><time>2026-04-04T13:40:24Z</time></trkpt><trkpt lat="41.32349967267479" lon="13.934382668534772"><ele>424.0</ele><time>2026-04-04T13:40:25Z</time></trkpt><trkpt lat="41.32361195439952" lon="13.934243913797292"><ele>424.0</ele><time>2026-04-04T13:40:26Z</time></trkpt><trkpt lat="41.32372172226831" lon="13.934106642615726"><ele>424.0</ele><time>2026-04-04T13:40:27Z</time></trkpt><trkpt lat="41.32383024227676" lon="13.93396724750546"><ele>420.5</ele><time>2026-04-04T13:40:28Z</time></trkpt><trkpt lat="41.32392769633481" lon="13.933837247818932"><ele>417.0</ele><time>2026-04-04T13:40:29Z</time></trkpt><trkpt lat="41.32400615399654" lon="13.933711395549842"><ele>413.5</ele><time>2026-04-04T13:40:30Z</time></trkpt><trkpt lat="41.32408672932747" lon="13.933601002006155"><ele>410.0</ele><time>2026-04-04T13:40:31Z</time></trkpt><trkpt lat="41.324185067096195" lon="13.933528503801877"><ele>410.0</ele><time>2026-04-04T13:40:32Z</time></trkpt><trkpt lat="41.324300640448364" lon="13.933500152313362"><ele>410.0</ele><time>2026-04-04T13:40:33.001Z</time></trkpt><trkpt lat="41.32442521960084" lon="13.933477492184743"><ele>410.0</ele><time>2026-04-04T13:40:34.001Z</time></trkpt><trkpt lat="41.32453648223201" lon="13.933405328338214"><ele>410.0</ele><time>2026-04-04T13:40:35.001Z</time></trkpt><trkpt lat="41.324642130552114" lon="13.93331447739405"><ele>411.4</ele><time>2026-04-04T13:40:36.001Z</time></trkpt><trkpt lat="41.324717387808235" lon="13.933236873544242"><ele>412.8</ele><time>2026-04-04T13:40:37.001Z</time></trkpt><trkpt lat="41.32477823162007" lon="13.933131957328127"><ele>414.20000000000005</ele><time>2026-04-04T13:40:38.001Z</time></trkpt><trkpt lat="41.32480710402369" lon="13.932999560512059"><ele>415.6</ele><time>2026-04-04T13:40:39.001Z</time></trkpt><trkpt lat="41.32480276544768" lon="13.932844138008965"><ele>417.0</ele><time>2026-04-04T13:40:40.001Z</time></trkpt><trkpt lat="41.32477879966665" lon="13.932673505194735"><ele>415.0</ele><time>2026-04-04T13:40:41.001Z</time></trkpt><trkpt lat="41.32476117612681" lon="13.932492583117403"><ele>413.0</ele><time>2026-04-04T13:40:42.001Z</time></trkpt><trkpt lat="41.32478183835852" lon="13.932301829096701"><ele>411.0</ele><time>2026-04-04T13:40:43.001Z</time></trkpt><trkpt lat="41.32478642297583" lon="13.932112554546377"><ele>409.0</ele><time>2026-04-04T13:40:44.001Z</time></trkpt><trkpt lat="41.324789603002685" lon="13.93193293850423"><ele>409.0</ele><time>2026-04-04T13:40:45.001Z</time></trkpt><trkpt lat="41.32477044727891" lon="13.931741698165506"><ele>409.0</ele><time>2026-04-04T13:40:46.001Z</time></trkpt><trkpt lat="41.3247247818845" lon="13.93154178531519"><ele>409.0</ele><time>2026-04-04T13:40:47.001Z</time></trkpt><trkpt lat="41.324659852747075" lon="13.93134323186775"><ele>409.6666666666667</ele><time>2026-04-04T13:40:48.001Z</time></trkpt><trkpt lat="41.32458309353063" lon="13.931146756243187"><ele>410.33333333333337</ele><time>2026-04-04T13:40:49.001Z</time></trkpt><trkpt lat="41.32449812538958" lon="13.930941821149535"><ele>411.0</ele><time>2026-04-04T13:40:50.001Z</time></trkpt><trkpt lat="41.324400881136356" lon="13.930744833149543"><ele>411.0</ele><time>2026-04-04T13:40:51.001Z</time></trkpt><trkpt lat="41.32429880290096" lon="13.930571384520674"><ele>411.0</ele><time>2026-04-04T13:40:52.001Z</time></trkpt><trkpt lat="41.324209315553" lon="13.93040851875269"><ele>411.0</ele><time>2026-04-04T13:40:53.001Z</time></trkpt><trkpt lat="41.32413548902437" lon="13.930239710969126"><ele>409.5</ele><time>2026-04-04T13:40:54.001Z</time></trkpt><trkpt lat="41.32409116137767" lon="13.930048504323372"><ele>408.0</ele><time>2026-04-04T13:40:55.001Z</time></trkpt><trkpt lat="41.3240677983125" lon="13.92983905303464"><ele>406.5</ele><time>2026-04-04T13:40:56.001Z</time></trkpt><trkpt lat="41.324062294320406" lon="13.929653080242508"><ele>405.0</ele><time>2026-04-04T13:40:57.001Z</time></trkpt><trkpt lat="41.32404573319118" lon="13.929511984260325"><ele>405.0</ele><time>2026-04-04T13:40:58.001Z</time></trkpt><trkpt lat="41.32401072260353" lon="13.929400617260065"><ele>405.0</ele><time>2026-04-04T13:40:59.001Z</time></trkpt><trkpt lat="41.32395041212975" lon="13.92928398619085"><ele>405.0</ele><time>2026-04-04T13:41:00.001Z</time></trkpt><trkpt lat="41.323854531904416" lon="13.929230032713036"><ele>405.0</ele><time>2026-04-04T13:41:01.001Z</time></trkpt><trkpt lat="41.323738567023156" lon="13.929192881189032"><ele>405.0</ele><time>2026-04-04T13:41:02.001Z</time></trkpt><trkpt lat="41.32361978456221" lon="13.929159782173542"><ele>405.75</ele><time>2026-04-04T13:41:03.001Z</time></trkpt><trkpt lat="41.32349117545315" lon="13.929115154997245"><ele>406.5</ele><time>2026-04-04T13:41:04.001Z</time></trkpt><trkpt lat="41.323372240197195" lon="13.929037410344113"><ele>407.25</ele><time>2026-04-04T13:41:05.001Z</time></trkpt><trkpt lat="41.323263299068664" lon="13.92897602523533"><ele>408.0</ele><time>2026-04-04T13:41:06.001Z</time></trkpt><trkpt lat="41.32315792256692" lon="13.928940955460028"><ele>407.5</ele><time>2026-04-04T13:41:07.001Z</time></trkpt><trkpt lat="41.32305932659007" lon="13.9289503402301"><ele>407.0</ele><time>2026-04-04T13:41:08.001Z</time></trkpt><trkpt lat="41.322971757692116" lon="13.928983631028284"><ele>406.5</ele><time>2026-04-04T13:41:09.001Z</time></trkpt><trkpt lat="41.32289659829115" lon="13.929042169225406"><ele>406.0</ele><time>2026-04-04T13:41:10.001Z</time></trkpt><trkpt lat="41.32282389917781" lon="13.929079498587672"><ele>405.5</ele><time>2026-04-04T13:41:11.001Z</time></trkpt><trkpt lat="41.32275118936637" lon="13.929113593097396"><ele>405.0</ele><time>2026-04-04T13:41:12.001Z</time></trkpt><trkpt lat="41.32268079568455" lon="13.929139996981442"><ele>404.99999999999994</ele><time>2026-04-04T13:41:13.001Z</time></trkpt><trkpt lat="41.32261238990645" lon="13.92916654629411"><ele>405.0</ele><time>2026-04-04T13:41:14.001Z</time></trkpt><trkpt lat="41.322537827239756" lon="13.929182715822174"><ele>405.0</ele><time>2026-04-04T13:41:15.001Z</time></trkpt><trkpt lat="41.32246313443226" lon="13.929189381085065"><ele>405.0</ele><time>2026-04-04T13:41:16.001Z</time></trkpt><trkpt lat="41.32238932833063" lon="13.929176134795284"><ele>405.0</ele><time>2026-04-04T13:41:17.001Z</time></trkpt><trkpt lat="41.32231933578123" lon="13.92913927100326"><ele>404.99999999999994</ele><time>2026-04-04T13:41:18.001Z</time></trkpt><trkpt lat="41.322255580905725" lon="13.92908347990699"><ele>405.0</ele><time>2026-04-04T13:41:19.001Z</time></trkpt><trkpt lat="41.32219715920763" lon="13.929011655245452"><ele>405.1666666666667</ele><time>2026-04-04T13:41:20.001Z</time></trkpt><trkpt lat="41.322142658802264" lon="13.92893545329477"><ele>405.33333333333337</ele><time>2026-04-04T13:41:21.001Z</time></trkpt><trkpt lat="41.322082504401266" lon="13.9288640648462"><ele>405.5</ele><time>2026-04-04T13:41:22.001Z</time></trkpt><trkpt lat="41.322006978012794" lon="13.928807116222972"><ele>405.6666666666667</ele><time>2026-04-04T13:41:23.001Z</time></trkpt><trkpt lat="41.32191132501007" lon="13.928777518983487"><ele>405.83333333333337</ele><time>2026-04-04T13:41:24.001Z</time></trkpt><trkpt lat="41.32181295075565" lon="13.928771902550006"><ele>406.0</ele><time>2026-04-04T13:41:25.001Z</time></trkpt><trkpt lat="41.321712895115695" lon="13.928774034840243"><ele>406.0</ele><time>2026-04-04T13:41:26.001Z</time></trkpt><trkpt lat="41.3216123641596" lon="13.928760923466482"><ele>406.0</ele><time>2026-04-04T13:41:27.001Z</time></trkpt><trkpt lat="41.321513805121334" lon="13.928720820392165"><ele>406.0</ele><time>2026-04-04T13:41:28.001Z</time></trkpt><trkpt lat="41.32142287014645" lon="13.928654846228701"><ele>406.0</ele><time>2026-04-04T13:41:29.002Z</time></trkpt><trkpt lat="41.32133429403748" lon="13.928549422576982"><ele>406.0</ele><time>2026-04-04T13:41:30.002Z</time></trkpt><trkpt lat="41.32125333454907" lon="13.928410847930975"><ele>405.4</ele><time>2026-04-04T13:41:31.002Z</time></trkpt><trkpt lat="41.32119403508678" lon="13.928275796712413"><ele>404.8</ele><time>2026-04-04T13:41:32.002Z</time></trkpt><trkpt lat="41.32112693938241" lon="13.928163342955818"><ele>404.2</ele><time>2026-04-04T13:41:33.002Z</time></trkpt><trkpt lat="41.32104286960696" lon="13.92809158503619"><ele>403.59999999999997</ele><time>2026-04-04T13:41:34.002Z</time></trkpt><trkpt lat="41.32094619308036" lon="13.928059721521125"><ele>403.0</ele><time>2026-04-04T13:41:35.002Z</time></trkpt><trkpt lat="41.32082559855273" lon="13.92806619067677"><ele>403.0</ele><time>2026-04-04T13:41:36.002Z</time></trkpt><trkpt lat="41.32069227353019" lon="13.928096855969612"><ele>403.0</ele><time>2026-04-04T13:41:37.002Z</time></trkpt><trkpt lat="41.320558981447064" lon="13.928131074880763"><ele>403.0</ele><time>2026-04-04T13:41:38.002Z</time></trkpt><trkpt lat="41.320423155409074" lon="13.928166013099975"><ele>403.0</ele><time>2026-04-04T13:41:39.002Z</time></trkpt><trkpt lat="41.320284313669404" lon="13.928209316221022"><ele>401.75</ele><time>2026-04-04T13:41:40.002Z</time></trkpt><trkpt lat="41.32014646139033" lon="13.92827818338617"><ele>400.5</ele><time>2026-04-04T13:41:41.002Z</time></trkpt><trkpt lat="41.320006613470056" lon="13.9283349891275"><ele>399.25</ele><time>2026-04-04T13:41:42.002Z</time></trkpt><trkpt lat="41.31988299713836" lon="13.928425850725633"><ele>398.0</ele><time>2026-04-04T13:41:43.002Z</time></trkpt><trkpt lat="41.319769593899565" lon="13.928520082162683"><ele>400.5</ele><time>2026-04-04T13:41:44.002Z</time></trkpt><trkpt lat="41.319654613461026" lon="13.928611639853125"><ele>403.0</ele><time>2026-04-04T13:41:45.002Z</time></trkpt><trkpt lat="41.3195463520882" lon="13.92869484710903"><ele>405.5</ele><time>2026-04-04T13:41:46.002Z</time></trkpt><trkpt lat="41.3194486299586" lon="13.92876881341896"><ele>408.0</ele><time>2026-04-04T13:41:47.002Z</time></trkpt><trkpt lat="41.31936031995706" lon="13.928827978082662"><ele>408.0</ele><time>2026-04-04T13:41:48.002Z</time></trkpt><trkpt lat="41.31928424777615" lon="13.928880276351526"><ele>408.0</ele><time>2026-04-04T13:41:49.002Z</time></trkpt><trkpt lat="41.3192057606534" lon="13.928935771829787"><ele>408.0</ele><time>2026-04-04T13:41:50.002Z</time></trkpt><trkpt lat="41.31914094409735" lon="13.928952220664412"><ele>408.0</ele><time>2026-04-04T13:41:51.002Z</time></trkpt><trkpt lat="41.319031301115984" lon="13.928890598475874"><ele>408.0</ele><time>2026-04-04T13:41:53.002Z</time></trkpt><trkpt lat="41.3190048360597" lon="13.928812735614155"><ele>408.0</ele><time>2026-04-04T13:41:54.002Z</time></trkpt><trkpt lat="41.319022524040996" lon="13.928729255448733"><ele>408.0</ele><time>2026-04-04T13:41:55.002Z</time></trkpt><trkpt lat="41.31900646758427" lon="13.928578598564087"><ele>408.0</ele><time>2026-04-04T13:41:57.002Z</time></trkpt><trkpt lat="41.319024331346206" lon="13.928486348985214"><ele>408.0</ele><time>2026-04-04T13:41:58.002Z</time></trkpt><trkpt lat="41.319020742236674" lon="13.928396204233096"><ele>408.0</ele><time>2026-04-04T13:41:59Z</time></trkpt><trkpt lat="41.319060997891235" lon="13.928283496455872"><ele>408.0</ele><time>2026-04-04T13:42:00Z</time></trkpt><trkpt lat="41.31911093030753" lon="13.928171500931345"><ele>408.0</ele><time>2026-04-04T13:42:01Z</time></trkpt><trkpt lat="41.3191849915874" lon="13.928039974483188"><ele>406.75</ele><time>2026-04-04T13:42:02Z</time></trkpt><trkpt lat="41.319258704662616" lon="13.927914335649604"><ele>405.5</ele><time>2026-04-04T13:42:03Z</time></trkpt><trkpt lat="41.319315979532234" lon="13.927776629396622"><ele>404.25</ele><time>2026-04-04T13:42:04Z</time></trkpt><trkpt lat="41.319359130102924" lon="13.927634794046625"><ele>403.0</ele><time>2026-04-04T13:42:05Z</time></trkpt><trkpt lat="41.31937653020519" lon="13.927497984813346"><ele>403.0</ele><time>2026-04-04T13:42:06Z</time></trkpt><trkpt lat="41.319363820507206" lon="13.927370839756463"><ele>403.0</ele><time>2026-04-04T13:42:07Z</time></trkpt><trkpt lat="41.31931911185967" lon="13.927255290021284"><ele>403.0</ele><time>2026-04-04T13:42:08Z</time></trkpt><trkpt lat="41.31924177546026" lon="13.927150188581933"><ele>403.0</ele><time>2026-04-04T13:42:09Z</time></trkpt><trkpt lat="41.319141287117205" lon="13.927046571353314"><ele>403.0</ele><time>2026-04-04T13:42:10Z</time></trkpt><trkpt lat="41.31905438038272" lon="13.92690975671711"><ele>403.0</ele><time>2026-04-04T13:42:11Z</time></trkpt><trkpt lat="41.318990555209524" lon="13.926755416126715"><ele>403.0</ele><time>2026-04-04T13:42:12Z</time></trkpt><trkpt lat="41.31892382886496" lon="13.926591533923174"><ele>403.0</ele><time>2026-04-04T13:42:13Z</time></trkpt><trkpt lat="41.31885440228183" lon="13.926415651027538"><ele>403.0</ele><time>2026-04-04T13:42:14Z</time></trkpt><trkpt lat="41.31874810487136" lon="13.926255022348599"><ele>402.75</ele><time>2026-04-04T13:42:15Z</time></trkpt><trkpt lat="41.31864121222874" lon="13.926107126662247"><ele>402.5</ele><time>2026-04-04T13:42:16Z</time></trkpt><trkpt lat="41.318534930385134" lon="13.925976451418226"><ele>402.25</ele><time>2026-04-04T13:42:17Z</time></trkpt><trkpt lat="41.318445462624375" lon="13.92583607856363"><ele>402.0</ele><time>2026-04-04T13:42:18Z</time></trkpt><trkpt lat="41.318370867892696" lon="13.925671258864002"><ele>402.0</ele><time>2026-04-04T13:42:19Z</time></trkpt><trkpt lat="41.318312878210506" lon="13.925490945260641"><ele>402.0</ele><time>2026-04-04T13:42:20Z</time></trkpt><trkpt lat="41.318260846647725" lon="13.925306156039522"><ele>402.0</ele><time>2026-04-04T13:42:21Z</time></trkpt><trkpt lat="41.31820809744513" lon="13.925116823057685"><ele>402.0</ele><time>2026-04-04T13:42:22Z</time></trkpt><trkpt lat="41.31816436791623" lon="13.92492639310494"><ele>403.5</ele><time>2026-04-04T13:42:23Z</time></trkpt><trkpt lat="41.31813349010609" lon="13.924765198410293"><ele>405.0</ele><time>2026-04-04T13:42:24Z</time></trkpt><trkpt lat="41.318091975693896" lon="13.924643796116818"><ele>406.5</ele><time>2026-04-04T13:42:25Z</time></trkpt><trkpt lat="41.31802883636884" lon="13.924530673660504"><ele>408.0</ele><time>2026-04-04T13:42:26Z</time></trkpt><trkpt lat="41.317927071986276" lon="13.924444919534547"><ele>408.0</ele><time>2026-04-04T13:42:27Z</time></trkpt><trkpt lat="41.3177923846078" lon="13.924407542527371"><ele>408.0</ele><time>2026-04-04T13:42:28Z</time></trkpt><trkpt lat="41.317636883681004" lon="13.924412546911547"><ele>408.0</ele><time>2026-04-04T13:42:29Z</time></trkpt><trkpt lat="41.31747241211708" lon="13.924418478994518"><ele>408.0</ele><time>2026-04-04T13:42:30Z</time></trkpt><trkpt lat="41.317301338430894" lon="13.92439259046977"><ele>408.0</ele><time>2026-04-04T13:42:31Z</time></trkpt><trkpt lat="41.31713871894017" lon="13.924327014117443"><ele>408.0</ele><time>2026-04-04T13:42:32Z</time></trkpt><trkpt lat="41.31697580713043" lon="13.924249257122767"><ele>403.66666666666663</ele><time>2026-04-04T13:42:33Z</time></trkpt><trkpt lat="41.3168119251287" lon="13.92417883719519"><ele>399.3333333333333</ele><time>2026-04-04T13:42:34Z</time></trkpt><trkpt lat="41.31665913716083" lon="13.924124883693661"><ele>395.0</ele><time>2026-04-04T13:42:35Z</time></trkpt><trkpt lat="41.316521522839174" lon="13.924029221130713"><ele>397.25</ele><time>2026-04-04T13:42:36.001Z</time></trkpt><trkpt lat="41.316374531287565" lon="13.923927626279447"><ele>399.5</ele><time>2026-04-04T13:42:37.001Z</time></trkpt><trkpt lat="41.31625455789388" lon="13.923832230888037"><ele>401.75</ele><time>2026-04-04T13:42:38.001Z</time></trkpt><trkpt lat="41.31615732696757" lon="13.923741282081135"><ele>404.0</ele><time>2026-04-04T13:42:39.001Z</time></trkpt><trkpt lat="41.316074446365675" lon="13.92361841708167"><ele>404.0</ele><time>2026-04-04T13:42:40.001Z</time></trkpt><trkpt lat="41.31600864575543" lon="13.923464574264298"><ele>404.0</ele><time>2026-04-04T13:42:41.001Z</time></trkpt><trkpt lat="41.31594299414299" lon="13.923331217690073"><ele>404.0</ele><time>2026-04-04T13:42:42.001Z</time></trkpt><trkpt lat="41.31588245942012" lon="13.92322734308152"><ele>404.0</ele><time>2026-04-04T13:42:43.001Z</time></trkpt><trkpt lat="41.31581446019214" lon="13.92314939048797"><ele>404.0</ele><time>2026-04-04T13:42:44.001Z</time></trkpt><trkpt lat="41.315717276053135" lon="13.923108649051441"><ele>403.4</ele><time>2026-04-04T13:42:45.001Z</time></trkpt><trkpt lat="41.315606054037346" lon="13.923092791837675"><ele>402.79999999999995</ele><time>2026-04-04T13:42:46.001Z</time></trkpt><trkpt lat="41.31548825072015" lon="13.923066493096217"><ele>402.20000000000005</ele><time>2026-04-04T13:42:47.001Z</time></trkpt><trkpt lat="41.31538999584655" lon="13.923022455135161"><ele>401.6</ele><time>2026-04-04T13:42:48.001Z</time></trkpt><trkpt lat="41.31530875733561" lon="13.922950056366284"><ele>401.0</ele><time>2026-04-04T13:42:49.001Z</time></trkpt><trkpt lat="41.31524565088834" lon="13.922836701194868"><ele>401.0</ele><time>2026-04-04T13:42:50.001Z</time></trkpt><trkpt lat="41.31519930653287" lon="13.922685591059123"><ele>401.0</ele><time>2026-04-04T13:42:51.001Z</time></trkpt><trkpt lat="41.31517773910306" lon="13.922519995429054"><ele>401.0</ele><time>2026-04-04T13:42:52.001Z</time></trkpt><trkpt lat="41.315116690637396" lon="13.922362580456399"><ele>401.0</ele><time>2026-04-04T13:42:53.001Z</time></trkpt><trkpt lat="41.31502199110367" lon="13.922215728402975"><ele>398.75</ele><time>2026-04-04T13:42:54.001Z</time></trkpt><trkpt lat="41.31490301726535" lon="13.922088948488705"><ele>396.5</ele><time>2026-04-04T13:42:55.001Z</time></trkpt><trkpt lat="41.314794262479936" lon="13.921951296635648"><ele>394.25</ele><time>2026-04-04T13:42:56.001Z</time></trkpt><trkpt lat="41.31471904264972" lon="13.921792973413512"><ele>392.0</ele><time>2026-04-04T13:42:57.001Z</time></trkpt><trkpt lat="41.314663088872955" lon="13.92167629113142"><ele>389.8</ele><time>2026-04-04T13:42:58.001Z</time></trkpt><trkpt lat="41.31459519935584" lon="13.921612281432685"><ele>387.6</ele><time>2026-04-04T13:42:59.001Z</time></trkpt><trkpt lat="41.31451247638465" lon="13.921578602987305"><ele>385.40000000000003</ele><time>2026-04-04T13:43:00.001Z</time></trkpt><trkpt lat="41.314398773501175" lon="13.921566835182503"><ele>383.20000000000005</ele><time>2026-04-04T13:43:01.001Z</time></trkpt><trkpt lat="41.31428087134935" lon="13.921577531154892"><ele>381.0</ele><time>2026-04-04T13:43:02.001Z</time></trkpt><trkpt lat="41.3141909034356" lon="13.921602378832944"><ele>381.0</ele><time>2026-04-04T13:43:03.001Z</time></trkpt><trkpt lat="41.31412030551588" lon="13.921655916414858"><ele>381.0</ele><time>2026-04-04T13:43:04.001Z</time></trkpt><trkpt lat="41.31403940034606" lon="13.921730998183428"><ele>381.0</ele><time>2026-04-04T13:43:05.001Z</time></trkpt><trkpt lat="41.31398863643748" lon="13.921887829611752"><ele>381.0</ele><time>2026-04-04T13:43:06.001Z</time></trkpt><trkpt lat="41.31391372364907" lon="13.922051521054028"><ele>380.6666666666667</ele><time>2026-04-04T13:43:07.001Z</time></trkpt><trkpt lat="41.313793618153774" lon="13.922200779076865"><ele>380.33333333333337</ele><time>2026-04-04T13:43:08.001Z</time></trkpt><trkpt lat="41.31368781427181" lon="13.922363554992467"><ele>380.0</ele><time>2026-04-04T13:43:09.001Z</time></trkpt><trkpt lat="41.31360514043817" lon="13.92251926524804"><ele>383.5</ele><time>2026-04-04T13:43:10.001Z</time></trkpt><trkpt lat="41.31351372913414" lon="13.922658753612556"><ele>387.0</ele><time>2026-04-04T13:43:11.001Z</time></trkpt><trkpt lat="41.31343063883881" lon="13.922773674408381"><ele>390.5</ele><time>2026-04-04T13:43:12.001Z</time></trkpt><trkpt lat="41.313339328010606" lon="13.922869607701346"><ele>394.0</ele><time>2026-04-04T13:43:13.001Z</time></trkpt><trkpt lat="41.31322064886017" lon="13.922944646386732"><ele>394.0</ele><time>2026-04-04T13:43:14.001Z</time></trkpt><trkpt lat="41.313100483021174" lon="13.92299094097729"><ele>394.0</ele><time>2026-04-04T13:43:15.001Z</time></trkpt><trkpt lat="41.31301200122069" lon="13.923010085972702"><ele>394.0</ele><time>2026-04-04T13:43:16.001Z</time></trkpt><trkpt lat="41.31292234512503" lon="13.923003103186748"><ele>394.0</ele><time>2026-04-04T13:43:17.001Z</time></trkpt><trkpt lat="41.31283654762793" lon="13.922972682254217"><ele>394.0</ele><time>2026-04-04T13:43:18.001Z</time></trkpt><trkpt lat="41.31278194917246" lon="13.922894040510526"><ele>394.6</ele><time>2026-04-04T13:43:19.001Z</time></trkpt><trkpt lat="41.312797264864685" lon="13.922741815971444"><ele>395.2</ele><time>2026-04-04T13:43:21.001Z</time></trkpt><trkpt lat="41.312835379459486" lon="13.922672595986306"><ele>395.8</ele><time>2026-04-04T13:43:22.001Z</time></trkpt><trkpt lat="41.31290009804749" lon="13.922562398270893"><ele>396.40000000000003</ele><time>2026-04-04T13:43:23.001Z</time></trkpt><trkpt lat="41.312975114266145" lon="13.922434964684788"><ele>397.0</ele><time>2026-04-04T13:43:24.001Z</time></trkpt><trkpt lat="41.31302399937263" lon="13.922292065402955"><ele>397.0</ele><time>2026-04-04T13:43:25.001Z</time></trkpt><trkpt lat="41.313046868231766" lon="13.92211911238794"><ele>397.0</ele><time>2026-04-04T13:43:26.001Z</time></trkpt><trkpt lat="41.31305602186827" lon="13.921930725717845"><ele>397.0</ele><time>2026-04-04T13:43:27.001Z</time></trkpt><trkpt lat="41.31307135016819" lon="13.921741408838917"><ele>397.0</ele><time>2026-04-04T13:43:28.001Z</time></trkpt><trkpt lat="41.313090800299854" lon="13.921576103376388"><ele>395.25</ele><time>2026-04-04T13:43:29.001Z</time></trkpt><trkpt lat="41.31309171567174" lon="13.921427889914865"><ele>393.5</ele><time>2026-04-04T13:43:30.001Z</time></trkpt><trkpt lat="41.31307683651109" lon="13.921296659564508"><ele>391.75</ele><time>2026-04-04T13:43:31.001Z</time></trkpt><trkpt lat="41.31303993203435" lon="13.921151829719092"><ele>390.0</ele><time>2026-04-04T13:43:32.001Z</time></trkpt><trkpt lat="41.3129686366533" lon="13.920999484403923"><ele>389.0</ele><time>2026-04-04T13:43:33.001Z</time></trkpt><trkpt lat="41.31288654574614" lon="13.92085175313605"><ele>388.0</ele><time>2026-04-04T13:43:34.002Z</time></trkpt><trkpt lat="41.312818251346144" lon="13.92068836934219"><ele>387.0</ele><time>2026-04-04T13:43:35.002Z</time></trkpt><trkpt lat="41.312759024215225" lon="13.92054787901015"><ele>386.0</ele><time>2026-04-04T13:43:36.002Z</time></trkpt><trkpt lat="41.312721762092735" lon="13.920405825578792"><ele>386.0</ele><time>2026-04-04T13:43:37.002Z</time></trkpt><trkpt lat="41.31270050655393" lon="13.920238573128922"><ele>386.0</ele><time>2026-04-04T13:43:38.002Z</time></trkpt><trkpt lat="41.31270865065978" lon="13.920060570809492"><ele>386.0</ele><time>2026-04-04T13:43:39.002Z</time></trkpt><trkpt lat="41.31271711307105" lon="13.919871926636196"><ele>386.0</ele><time>2026-04-04T13:43:40.002Z</time></trkpt><trkpt lat="41.312731158976256" lon="13.919681787380709"><ele>385.25</ele><time>2026-04-04T13:43:41.002Z</time></trkpt><trkpt lat="41.312721201479064" lon="13.919501447872543"><ele>384.5</ele><time>2026-04-04T13:43:42.002Z</time></trkpt><trkpt lat="41.312725666355966" lon="13.919337303173036"><ele>383.75</ele><time>2026-04-04T13:43:43.002Z</time></trkpt><trkpt lat="41.312697285662686" lon="13.919165859673411"><ele>383.0</ele><time>2026-04-04T13:43:44.002Z</time></trkpt><trkpt lat="41.312616222738555" lon="13.918987315529117"><ele>381.6666666666667</ele><time>2026-04-04T13:43:45.002Z</time></trkpt><trkpt lat="41.31253894302808" lon="13.918806078456981"><ele>380.3333333333333</ele><time>2026-04-04T13:43:46.002Z</time></trkpt><trkpt lat="41.31246550994517" lon="13.918613592164126"><ele>379.0</ele><time>2026-04-04T13:43:47.002Z</time></trkpt><trkpt lat="41.312394458559595" lon="13.918420257156463"><ele>377.0</ele><time>2026-04-04T13:43:48.002Z</time></trkpt><trkpt lat="41.31232645558849" lon="13.918231740176681"><ele>375.0</ele><time>2026-04-04T13:43:49.002Z</time></trkpt><trkpt lat="41.31225608024858" lon="13.918046445026926"><ele>373.0</ele><time>2026-04-04T13:43:50.002Z</time></trkpt><trkpt lat="41.31219034867444" lon="13.917860817768517"><ele>374.25</ele><time>2026-04-04T13:43:51.002Z</time></trkpt><trkpt lat="41.31213442778203" lon="13.917683070677532"><ele>375.5</ele><time>2026-04-04T13:43:52.002Z</time></trkpt><trkpt lat="41.31208741735966" lon="13.91751821193432"><ele>376.75</ele><time>2026-04-04T13:43:53.002Z</time></trkpt><trkpt lat="41.312044224024135" lon="13.917379918887972"><ele>378.0</ele><time>2026-04-04T13:43:54.002Z</time></trkpt><trkpt lat="41.311990713881784" lon="13.91726190795011"><ele>378.0</ele><time>2026-04-04T13:43:55.002Z</time></trkpt><trkpt lat="41.31189318677085" lon="13.917159506341152"><ele>378.0</ele><time>2026-04-04T13:43:56.002Z</time></trkpt><trkpt lat="41.31176611085932" lon="13.91706874836479"><ele>378.0</ele><time>2026-04-04T13:43:57.002Z</time></trkpt><trkpt lat="41.31164071614032" lon="13.917011667676388"><ele>378.0</ele><time>2026-04-04T13:43:58.002Z</time></trkpt><trkpt lat="41.311497174431715" lon="13.91699175571132"><ele>378.25</ele><time>2026-04-04T13:43:59.002Z</time></trkpt><trkpt lat="41.31134574935804" lon="13.916993061963751"><ele>378.5</ele><time>2026-04-04T13:44:00.002Z</time></trkpt><trkpt lat="41.31120125978077" lon="13.916996099819194"><ele>378.75</ele><time>2026-04-04T13:44:01.002Z</time></trkpt><trkpt lat="41.31107010598756" lon="13.917018372478807"><ele>379.0</ele><time>2026-04-04T13:44:02.002Z</time></trkpt><trkpt lat="41.310935226290624" lon="13.917081914001205"><ele>379.0</ele><time>2026-04-04T13:44:03.002Z</time></trkpt><trkpt lat="41.31080331487744" lon="13.917166281241556"><ele>379.0</ele><time>2026-04-04T13:44:04.002Z</time></trkpt><trkpt lat="41.31068280678668" lon="13.917280777381725"><ele>379.0</ele><time>2026-04-04T13:44:05Z</time></trkpt><trkpt lat="41.31056186894167" lon="13.917416497435202"><ele>379.25</ele><time>2026-04-04T13:44:06Z</time></trkpt><trkpt lat="41.3104530259319" lon="13.917560506871009"><ele>379.5</ele><time>2026-04-04T13:44:07Z</time></trkpt><trkpt lat="41.31036335549706" lon="13.917708926772512"><ele>379.75</ele><time>2026-04-04T13:44:08Z</time></trkpt><trkpt lat="41.31029704342338" lon="13.917853964031268"><ele>380.0</ele><time>2026-04-04T13:44:09Z</time></trkpt><trkpt lat="41.31023422259901" lon="13.917995069678748"><ele>380.0</ele><time>2026-04-04T13:44:10Z</time></trkpt><trkpt lat="41.31016566252724" lon="13.918142268631877"><ele>380.0</ele><time>2026-04-04T13:44:11Z</time></trkpt><trkpt lat="41.310088723761446" lon="13.918291709719844"><ele>380.0</ele><time>2026-04-04T13:44:12Z</time></trkpt><trkpt lat="41.31000443008729" lon="13.918447268421222"><ele>380.0</ele><time>2026-04-04T13:44:13Z</time></trkpt><trkpt lat="41.30991938425266" lon="13.918589284987469"><ele>381.75</ele><time>2026-04-04T13:44:14Z</time></trkpt><trkpt lat="41.30983148103034" lon="13.918724618129188"><ele>383.5</ele><time>2026-04-04T13:44:15Z</time></trkpt><trkpt lat="41.30974919154305" lon="13.918842603395541"><ele>385.25</ele><time>2026-04-04T13:44:16Z</time></trkpt><trkpt lat="41.309654023341785" lon="13.918950470872854"><ele>387.0</ele><time>2026-04-04T13:44:17Z</time></trkpt><trkpt lat="41.30955234471029" lon="13.919031524579754"><ele>387.0</ele><time>2026-04-04T13:44:18Z</time></trkpt><trkpt lat="41.30943090730608" lon="13.919110558035632"><ele>387.0</ele><time>2026-04-04T13:44:19Z</time></trkpt><trkpt lat="41.30928914384899" lon="13.91919317432802"><ele>387.0</ele><time>2026-04-04T13:44:20Z</time></trkpt><trkpt lat="41.30914127935015" lon="13.919265182696916"><ele>387.0</ele><time>2026-04-04T13:44:21Z</time></trkpt><trkpt lat="41.30899267652605" lon="13.919336026640265"><ele>387.0</ele><time>2026-04-04T13:44:22Z</time></trkpt><trkpt lat="41.30885080000171" lon="13.919407370539135"><ele>387.0</ele><time>2026-04-04T13:44:23Z</time></trkpt><trkpt lat="41.30871391581343" lon="13.919460618073959"><ele>387.0</ele><time>2026-04-04T13:44:24Z</time></trkpt><trkpt lat="41.3086021435612" lon="13.919508779237772"><ele>387.0</ele><time>2026-04-04T13:44:25Z</time></trkpt><trkpt lat="41.3085078116542" lon="13.919566882372171"><ele>387.0</ele><time>2026-04-04T13:44:26Z</time></trkpt><trkpt lat="41.30843949137433" lon="13.91965535359901"><ele>387.0</ele><time>2026-04-04T13:44:27Z</time></trkpt><trkpt lat="41.30836301815185" lon="13.919781619516893"><ele>387.0</ele><time>2026-04-04T13:44:28Z</time></trkpt><trkpt lat="41.30829580677979" lon="13.91994830322951"><ele>387.0</ele><time>2026-04-04T13:44:29Z</time></trkpt><trkpt lat="41.30821260808764" lon="13.92012858220861"><ele>390.0</ele><time>2026-04-04T13:44:30Z</time></trkpt><trkpt lat="41.30810110059989" lon="13.92028245035228"><ele>393.0</ele><time>2026-04-04T13:44:31Z</time></trkpt><trkpt lat="41.308020860004376" lon="13.920427736239521"><ele>396.0</ele><time>2026-04-04T13:44:32Z</time></trkpt><trkpt lat="41.30797731094882" lon="13.920564814166841"><ele>399.0</ele><time>2026-04-04T13:44:33Z</time></trkpt><trkpt lat="41.30794790446047" lon="13.920666617031038"><ele>399.0</ele><time>2026-04-04T13:44:34Z</time></trkpt><trkpt lat="41.307908747363236" lon="13.920735209977268"><ele>399.0</ele><time>2026-04-04T13:44:35Z</time></trkpt><trkpt lat="41.30784570512918" lon="13.920766532508281"><ele>399.0</ele><time>2026-04-04T13:44:36Z</time></trkpt><trkpt lat="41.307768286308665" lon="13.920748681267254"><ele>399.0</ele><time>2026-04-04T13:44:37Z</time></trkpt><trkpt lat="41.30769052644308" lon="13.920675233219"><ele>399.0</ele><time>2026-04-04T13:44:38Z</time></trkpt><trkpt lat="41.307603256318565" lon="13.920578034803153"><ele>399.0</ele><time>2026-04-04T13:44:39Z</time></trkpt><trkpt lat="41.30753179742996" lon="13.920452518176544"><ele>399.0</ele><time>2026-04-04T13:44:40Z</time></trkpt><trkpt lat="41.30747008099757" lon="13.920354654896071"><ele>399.0</ele><time>2026-04-04T13:44:41Z</time></trkpt><trkpt lat="41.307393287390155" lon="13.920287008951995"><ele>399.0</ele><time>2026-04-04T13:44:42Z</time></trkpt><trkpt lat="41.3072691462454" lon="13.920245947540277"><ele>399.0</ele><time>2026-04-04T13:44:43Z</time></trkpt><trkpt lat="41.307134942031" lon="13.920211793520183"><ele>397.75</ele><time>2026-04-04T13:44:44Z</time></trkpt><trkpt lat="41.30701340901761" lon="13.920172269718718"><ele>396.5</ele><time>2026-04-04T13:44:45Z</time></trkpt><trkpt lat="41.30690271470871" lon="13.920134113706945"><ele>395.25</ele><time>2026-04-04T13:44:46.001Z</time></trkpt><trkpt lat="41.30679428454895" lon="13.920093130017136"><ele>394.0</ele><time>2026-04-04T13:44:47.001Z</time></trkpt><trkpt lat="41.306687591252235" lon="13.920060846705015"><ele>394.0</ele><time>2026-04-04T13:44:48.001Z</time></trkpt><trkpt lat="41.30659484439695" lon="13.920068665883361"><ele>394.0</ele><time>2026-04-04T13:44:49.001Z</time></trkpt><trkpt lat="41.30652090262031" lon="13.920082577434448"><ele>394.0</ele><time>2026-04-04T13:44:50.001Z</time></trkpt><trkpt lat="41.306458793511055" lon="13.920134044244373"><ele>394.0</ele><time>2026-04-04T13:44:51.001Z</time></trkpt><trkpt lat="41.306388286883625" lon="13.920235948106567"><ele>394.0</ele><time>2026-04-04T13:44:52.001Z</time></trkpt><trkpt lat="41.30629842714998" lon="13.92035510044608"><ele>394.0</ele><time>2026-04-04T13:44:53.001Z</time></trkpt><trkpt lat="41.3061958138429" lon="13.920484818825804"><ele>394.0</ele><time>2026-04-04T13:44:54.001Z</time></trkpt><trkpt lat="41.306106300579" lon="13.92059123685978"><ele>394.0</ele><time>2026-04-04T13:44:55.001Z</time></trkpt><trkpt lat="41.30605061343268" lon="13.92073913117794"><ele>394.0</ele><time>2026-04-04T13:44:56.001Z</time></trkpt><trkpt lat="41.30601153267111" lon="13.920897815462295"><ele>398.75</ele><time>2026-04-04T13:44:57.001Z</time></trkpt><trkpt lat="41.305971276683564" lon="13.921042966245054"><ele>403.5</ele><time>2026-04-04T13:44:58.001Z</time></trkpt><trkpt lat="41.30588047487648" lon="13.921145191478443"><ele>408.25</ele><time>2026-04-04T13:44:59.001Z</time></trkpt><trkpt lat="41.30577763170463" lon="13.92120761510754"><ele>413.0</ele><time>2026-04-04T13:45:00.001Z</time></trkpt><trkpt lat="41.3057012225767" lon="13.921305518282614"><ele>413.0</ele><time>2026-04-04T13:45:01.001Z</time></trkpt><trkpt lat="41.30564987362863" lon="13.921445566236072"><ele>413.0</ele><time>2026-04-04T13:45:02.001Z</time></trkpt><trkpt lat="41.30560755933665" lon="13.921637251275662"><ele>413.0</ele><time>2026-04-04T13:45:03.001Z</time></trkpt><trkpt lat="41.305550955226344" lon="13.921838116592832"><ele>413.0</ele><time>2026-04-04T13:45:04.001Z</time></trkpt><trkpt lat="41.30549936067892" lon="13.922036168626304"><ele>412.0</ele><time>2026-04-04T13:45:05.001Z</time></trkpt><trkpt lat="41.30547001300892" lon="13.922246657893135"><ele>411.0</ele><time>2026-04-04T13:45:06.001Z</time></trkpt><trkpt lat="41.305477089381604" lon="13.9224554696354"><ele>410.0</ele><time>2026-04-04T13:45:07.001Z</time></trkpt><trkpt lat="41.30547529905445" lon="13.92263425904839"><ele>410.0</ele><time>2026-04-04T13:45:08.001Z</time></trkpt><trkpt lat="41.30544786847877" lon="13.922776288326542"><ele>410.0</ele><time>2026-04-04T13:45:09.001Z</time></trkpt><trkpt lat="41.30534709748148" lon="13.922885669724131"><ele>410.0</ele><time>2026-04-04T13:45:10.001Z</time></trkpt><trkpt lat="41.30525836584417" lon="13.923022100031474"><ele>410.0</ele><time>2026-04-04T13:45:11.001Z</time></trkpt><trkpt lat="41.30517094697969" lon="13.923199481116662"><ele>410.0</ele><time>2026-04-04T13:45:12.001Z</time></trkpt><trkpt lat="41.30507951874411" lon="13.92337940070919"><ele>410.0</ele><time>2026-04-04T13:45:13.001Z</time></trkpt><trkpt lat="41.304983651959496" lon="13.923543651150432"><ele>410.0</ele><time>2026-04-04T13:45:14.001Z</time></trkpt><trkpt lat="41.30490761816062" lon="13.923673193588007"><ele>410.0</ele><time>2026-04-04T13:45:15.001Z</time></trkpt><trkpt lat="41.30485015180024" lon="13.923766104422052"><ele>414.6</ele><time>2026-04-04T13:45:16.001Z</time></trkpt><trkpt lat="41.304801371802085" lon="13.923831094175334"><ele>419.2</ele><time>2026-04-04T13:45:17.001Z</time></trkpt><trkpt lat="41.30468179258438" lon="13.923840595594797"><ele>423.79999999999995</ele><time>2026-04-04T13:45:19.001Z</time></trkpt><trkpt lat="41.30461843963669" lon="13.923748579959387"><ele>428.4</ele><time>2026-04-04T13:45:20.001Z</time></trkpt><trkpt lat="41.30455666090791" lon="13.923606400674407"><ele>433.0</ele><time>2026-04-04T13:45:21.001Z</time></trkpt><trkpt lat="41.304506224353744" lon="13.923439069114485"><ele>432.0</ele><time>2026-04-04T13:45:22.001Z</time></trkpt><trkpt lat="41.304459308084795" lon="13.923223964372344"><ele>431.0</ele><time>2026-04-04T13:45:23.001Z</time></trkpt><trkpt lat="41.304429243551866" lon="13.9230047763865"><ele>430.0</ele><time>2026-04-04T13:45:24.001Z</time></trkpt><trkpt lat="41.30440723920169" lon="13.922792494837267"><ele>430.0</ele><time>2026-04-04T13:45:25.001Z</time></trkpt><trkpt lat="41.30435120708684" lon="13.922616472647128"><ele>430.0</ele><time>2026-04-04T13:45:26.001Z</time></trkpt><trkpt lat="41.30429987400528" lon="13.922472593260458"><ele>430.0</ele><time>2026-04-04T13:45:27.001Z</time></trkpt><trkpt lat="41.30424902113046" lon="13.92235200828546"><ele>430.0</ele><time>2026-04-04T13:45:28.001Z</time></trkpt><trkpt lat="41.30417758158493" lon="13.92226757256189"><ele>430.8</ele><time>2026-04-04T13:45:29.001Z</time></trkpt><trkpt lat="41.30409254992869" lon="13.922227026185983"><ele>431.6</ele><time>2026-04-04T13:45:30.001Z</time></trkpt><trkpt lat="41.303995756893094" lon="13.922233190746127"><ele>432.4</ele><time>2026-04-04T13:45:31.001Z</time></trkpt><trkpt lat="41.30388626627827" lon="13.922281948851051"><ele>433.2</ele><time>2026-04-04T13:45:32.001Z</time></trkpt><trkpt lat="41.30379248563581" lon="13.922308264240788"><ele>434.0</ele><time>2026-04-04T13:45:33.001Z</time></trkpt><trkpt lat="41.30372025717767" lon="13.922284032214044"><ele>434.0</ele><time>2026-04-04T13:45:34.001Z</time></trkpt><trkpt lat="41.30365098837606" lon="13.922202837830183"><ele>434.0</ele><time>2026-04-04T13:45:35.001Z</time></trkpt><trkpt lat="41.30360025346206" lon="13.922072850570771"><ele>434.0</ele><time>2026-04-04T13:45:36.001Z</time></trkpt><trkpt lat="41.30355409790833" lon="13.921899930343296"><ele>434.0</ele><time>2026-04-04T13:45:37.001Z</time></trkpt><trkpt lat="41.30350880497206" lon="13.921688627953655"><ele>432.0</ele><time>2026-04-04T13:45:38.001Z</time></trkpt><trkpt lat="41.30345668575827" lon="13.921469056597124"><ele>430.0</ele><time>2026-04-04T13:45:39.001Z</time></trkpt><trkpt lat="41.30338114743947" lon="13.921241292939461"><ele>428.0</ele><time>2026-04-04T13:45:40.001Z</time></trkpt><trkpt lat="41.30331782178927" lon="13.920987500799539"><ele>424.0</ele><time>2026-04-04T13:45:41.001Z</time></trkpt><trkpt lat="41.303282651921414" lon="13.920762336966744"><ele>420.0</ele><time>2026-04-04T13:45:42.001Z</time></trkpt><trkpt lat="41.30323702705477" lon="13.920555267304398"><ele>416.0</ele><time>2026-04-04T13:45:43.001Z</time></trkpt><trkpt lat="41.30319653699864" lon="13.92038789871243"><ele>416.0</ele><time>2026-04-04T13:45:44.001Z</time></trkpt><trkpt lat="41.30314033107491" lon="13.92023990739979"><ele>416.0</ele><time>2026-04-04T13:45:45.002Z</time></trkpt><trkpt lat="41.30307381614063" lon="13.920123912175264"><ele>416.0</ele><time>2026-04-04T13:45:46.002Z</time></trkpt><trkpt lat="41.30299289056568" lon="13.920051443194184"><ele>416.0</ele><time>2026-04-04T13:45:47.002Z</time></trkpt><trkpt lat="41.30293088501818" lon="13.920028452788085"><ele>416.0</ele><time>2026-04-04T13:45:48.002Z</time></trkpt><trkpt lat="41.3028521450247" lon="13.920041577890284"><ele>419.25</ele><time>2026-04-04T13:45:49.002Z</time></trkpt><trkpt lat="41.302748912046795" lon="13.920069022678756"><ele>422.5</ele><time>2026-04-04T13:45:50.002Z</time></trkpt><trkpt lat="41.30262501531671" lon="13.92009546155102"><ele>425.75</ele><time>2026-04-04T13:45:51.002Z</time></trkpt><trkpt lat="41.302511222461675" lon="13.920121230962044"><ele>429.0</ele><time>2026-04-04T13:45:52.002Z</time></trkpt><trkpt lat="41.30240777033582" lon="13.92015156193967"><ele>429.0</ele><time>2026-04-04T13:45:53.002Z</time></trkpt><trkpt lat="41.30232206280581" lon="13.920176157785974"><ele>429.0</ele><time>2026-04-04T13:45:54.002Z</time></trkpt><trkpt lat="41.3022360825447" lon="13.920219937612622"><ele>429.0</ele><time>2026-04-04T13:45:55.002Z</time></trkpt><trkpt lat="41.30214313501015" lon="13.920310545454015"><ele>429.0</ele><time>2026-04-04T13:45:56.002Z</time></trkpt><trkpt lat="41.302041158887576" lon="13.920410567062836"><ele>429.0</ele><time>2026-04-04T13:45:57.002Z</time></trkpt><trkpt lat="41.30193424279045" lon="13.920504644083914"><ele>427.6</ele><time>2026-04-04T13:45:58.002Z</time></trkpt><trkpt lat="41.301844738154585" lon="13.920584891436093"><ele>426.2</ele><time>2026-04-04T13:45:59.002Z</time></trkpt><trkpt lat="41.301741945565745" lon="13.920640544493128"><ele>424.8</ele><time>2026-04-04T13:46:00.002Z</time></trkpt><trkpt lat="41.30163727482217" lon="13.920643099498076"><ele>423.40000000000003</ele><time>2026-04-04T13:46:01.002Z</time></trkpt><trkpt lat="41.30153140102055" lon="13.920615325914886"><ele>422.0</ele><time>2026-04-04T13:46:02.002Z</time></trkpt><trkpt lat="41.30144061022946" lon="13.920577436527811"><ele>421.49999999999994</ele><time>2026-04-04T13:46:03.002Z</time></trkpt><trkpt lat="41.3013612567191" lon="13.920562999207386"><ele>421.0</ele><time>2026-04-04T13:46:04.002Z</time></trkpt><trkpt lat="41.30129174221031" lon="13.920576792586095"><ele>420.5</ele><time>2026-04-04T13:46:05.002Z</time></trkpt><trkpt lat="41.301190987380345" lon="13.920652989009588"><ele>420.0</ele><time>2026-04-04T13:46:07.002Z</time></trkpt><trkpt lat="41.30111362528312" lon="13.920774290841045"><ele>419.49999999999994</ele><time>2026-04-04T13:46:09.002Z</time></trkpt><trkpt lat="41.301089521814475" lon="13.920851834127443"><ele>419.0</ele><time>2026-04-04T13:46:10.002Z</time></trkpt><trkpt lat="41.30107214128329" lon="13.920934098135854"><ele>418.99999999999994</ele><time>2026-04-04T13:46:11Z</time></trkpt><trkpt lat="41.3010666567029" lon="13.921029395612257"><ele>419.0</ele><time>2026-04-04T13:46:11.999Z</time></trkpt><trkpt lat="41.30107514174934" lon="13.921122205578762"><ele>419.0</ele><time>2026-04-04T13:46:13Z</time></trkpt><trkpt lat="41.30109357474938" lon="13.921214054706226"><ele>419.0</ele><time>2026-04-04T13:46:14Z</time></trkpt><trkpt lat="41.30109642872889" lon="13.921321683124674"><ele>418.99999999999994</ele><time>2026-04-04T13:46:15Z</time></trkpt><trkpt lat="41.301117240015095" lon="13.921426586152105"><ele>419.0</ele><time>2026-04-04T13:46:16Z</time></trkpt><trkpt lat="41.30114709746776" lon="13.921530960228171"><ele>419.0</ele><time>2026-04-04T13:46:17Z</time></trkpt><trkpt lat="41.30113584025219" lon="13.921647656506414"><ele>419.0</ele><time>2026-04-04T13:46:18Z</time></trkpt><trkpt lat="41.30109743951259" lon="13.921770892183206"><ele>419.0</ele><time>2026-04-04T13:46:19Z</time></trkpt><trkpt lat="41.301014542285145" lon="13.921888343026492"><ele>419.0</ele><time>2026-04-04T13:46:20Z</time></trkpt><trkpt lat="41.30089910627812" lon="13.921976230014275"><ele>419.0</ele><time>2026-04-04T13:46:21Z</time></trkpt><trkpt lat="41.30076217512057" lon="13.922037214237145"><ele>420.5</ele><time>2026-04-04T13:46:22Z</time></trkpt><trkpt lat="41.30062183281443" lon="13.9220654030819"><ele>422.0</ele><time>2026-04-04T13:46:23Z</time></trkpt><trkpt lat="41.300475527825995" lon="13.922047297006797"><ele>423.5</ele><time>2026-04-04T13:46:24Z</time></trkpt><trkpt lat="41.30034489895102" lon="13.921988816122886"><ele>425.0</ele><time>2026-04-04T13:46:25Z</time></trkpt><trkpt lat="41.300254862887556" lon="13.92196003753594"><ele>425.0</ele><time>2026-04-04T13:46:26Z</time></trkpt><trkpt lat="41.30017700504083" lon="13.921982349252708"><ele>425.0</ele><time>2026-04-04T13:46:27Z</time></trkpt><trkpt lat="41.30011176415716" lon="13.922046327044548"><ele>425.0</ele><time>2026-04-04T13:46:28Z</time></trkpt><trkpt lat="41.30006713426322" lon="13.922156666296518"><ele>425.0</ele><time>2026-04-04T13:46:29Z</time></trkpt><trkpt lat="41.30004526343934" lon="13.922297645379247"><ele>425.0</ele><time>2026-04-04T13:46:30Z</time></trkpt><trkpt lat="41.30003721004476" lon="13.922439247979801"><ele>425.0</ele><time>2026-04-04T13:46:31Z</time></trkpt><trkpt lat="41.299998703286036" lon="13.922550533623875"><ele>425.0</ele><time>2026-04-04T13:46:32Z</time></trkpt><trkpt lat="41.29991816143521" lon="13.922634564749771"><ele>425.0</ele><time>2026-04-04T13:46:33Z</time></trkpt><trkpt lat="41.29980176442968" lon="13.922718834476353"><ele>425.0</ele><time>2026-04-04T13:46:34Z</time></trkpt><trkpt lat="41.29966694040705" lon="13.922808757339963"><ele>426.3333333333333</ele><time>2026-04-04T13:46:35Z</time></trkpt><trkpt lat="41.29954425852527" lon="13.92289621306813"><ele>427.66666666666663</ele><time>2026-04-04T13:46:36Z</time></trkpt><trkpt lat="41.299404386833324" lon="13.922995356996724"><ele>429.0</ele><time>2026-04-04T13:46:37Z</time></trkpt><trkpt lat="41.29925959635508" lon="13.923110238512354"><ele>429.0</ele><time>2026-04-04T13:46:38Z</time></trkpt><trkpt lat="41.29913734690237" lon="13.923247621561822"><ele>429.0</ele><time>2026-04-04T13:46:39Z</time></trkpt><trkpt lat="41.29899570592191" lon="13.92336592650651"><ele>429.0</ele><time>2026-04-04T13:46:40Z</time></trkpt><trkpt lat="41.2988592523331" lon="13.923483791436109"><ele>428.25</ele><time>2026-04-04T13:46:41Z</time></trkpt><trkpt lat="41.29873905917486" lon="13.923589635598187"><ele>427.5</ele><time>2026-04-04T13:46:42Z</time></trkpt><trkpt lat="41.29863576798052" lon="13.923677346819382"><ele>426.75</ele><time>2026-04-04T13:46:43Z</time></trkpt><trkpt lat="41.298563765176226" lon="13.923757649153531"><ele>426.0</ele><time>2026-04-04T13:46:44Z</time></trkpt><trkpt lat="41.29851107159696" lon="13.923856858127486"><ele>426.0</ele><time>2026-04-04T13:46:45Z</time></trkpt><trkpt lat="41.298478384789576" lon="13.92399302501013"><ele>426.0</ele><time>2026-04-04T13:46:46Z</time></trkpt><trkpt lat="41.29846148052863" lon="13.924150494127261"><ele>426.0</ele><time>2026-04-04T13:46:47Z</time></trkpt><trkpt lat="41.29846888255227" lon="13.924312626140019"><ele>426.0</ele><time>2026-04-04T13:46:48Z</time></trkpt><trkpt lat="41.298467914613184" lon="13.924451336859756"><ele>427.3333333333333</ele><time>2026-04-04T13:46:49Z</time></trkpt><trkpt lat="41.29845813349469" lon="13.924563224773047"><ele>428.66666666666663</ele><time>2026-04-04T13:46:50Z</time></trkpt><trkpt lat="41.29844386252783" lon="13.924662007112655"><ele>430.0</ele><time>2026-04-04T13:46:51Z</time></trkpt><trkpt lat="41.29841755194318" lon="13.924749992814125"><ele>431.3333333333333</ele><time>2026-04-04T13:46:52Z</time></trkpt><trkpt lat="41.29837514013818" lon="13.924819275376326"><ele>432.66666666666663</ele><time>2026-04-04T13:46:53Z</time></trkpt><trkpt lat="41.298264695885855" lon="13.924876858016011"><ele>434.0</ele><time>2026-04-04T13:46:55Z</time></trkpt><trkpt lat="41.298157039213066" lon="13.924850625809425"><ele>433.79999999999995</ele><time>2026-04-04T13:46:57Z</time></trkpt><trkpt lat="41.2980819662984" lon="13.924747494096453"><ele>433.59999999999997</ele><time>2026-04-04T13:46:59Z</time></trkpt><trkpt lat="41.2980342266287" lon="13.924626695639699"><ele>433.4</ele><time>2026-04-04T13:47:01Z</time></trkpt><trkpt lat="41.297940418327656" lon="13.924494380225061"><ele>433.2</ele><time>2026-04-04T13:47:03.001Z</time></trkpt><trkpt lat="41.29787969718587" lon="13.924419219558251"><ele>433.0</ele><time>2026-04-04T13:47:04.001Z</time></trkpt><trkpt lat="41.29781295675862" lon="13.924360972638736"><ele>433.0</ele><time>2026-04-04T13:47:05.001Z</time></trkpt><trkpt lat="41.29772717682825" lon="13.924328807905951"><ele>432.99999999999994</ele><time>2026-04-04T13:47:06.001Z</time></trkpt><trkpt lat="41.2976288575645" lon="13.924331010359314"><ele>432.99999999999994</ele><time>2026-04-04T13:47:07.001Z</time></trkpt><trkpt lat="41.297530265751014" lon="13.924365491691496"><ele>433.0</ele><time>2026-04-04T13:47:08.001Z</time></trkpt><trkpt lat="41.297424628617215" lon="13.924431083557664"><ele>433.0</ele><time>2026-04-04T13:47:09.001Z</time></trkpt><trkpt lat="41.297315799457785" lon="13.924509172893494"><ele>432.75</ele><time>2026-04-04T13:47:10.001Z</time></trkpt><trkpt lat="41.297191314670066" lon="13.92458507349664"><ele>432.5</ele><time>2026-04-04T13:47:11.001Z</time></trkpt><trkpt lat="41.29707001091206" lon="13.92466705384319"><ele>432.25</ele><time>2026-04-04T13:47:12.001Z</time></trkpt><trkpt lat="41.2969646397462" lon="13.924744261123815"><ele>432.0</ele><time>2026-04-04T13:47:13.001Z</time></trkpt><trkpt lat="41.29686871630346" lon="13.924790454584231"><ele>432.0</ele><time>2026-04-04T13:47:14.001Z</time></trkpt><trkpt lat="41.29676717188269" lon="13.92478669833039"><ele>432.00000000000006</ele><time>2026-04-04T13:47:15.001Z</time></trkpt><trkpt lat="41.29668359157354" lon="13.924704177294386"><ele>432.00000000000006</ele><time>2026-04-04T13:47:16.001Z</time></trkpt><trkpt lat="41.29658905829015" lon="13.924616949440415"><ele>432.0</ele><time>2026-04-04T13:47:17.001Z</time></trkpt><trkpt lat="41.29649880400848" lon="13.924539441173815"><ele>432.0</ele><time>2026-04-04T13:47:18.001Z</time></trkpt><trkpt lat="41.296407435593196" lon="13.924486083330523"><ele>430.8</ele><time>2026-04-04T13:47:19.001Z</time></trkpt><trkpt lat="41.29629936840061" lon="13.924471255927436"><ele>429.6</ele><time>2026-04-04T13:47:20.001Z</time></trkpt><trkpt lat="41.29618951979163" lon="13.924493343447425"><ele>428.40000000000003</ele><time>2026-04-04T13:47:21.001Z</time></trkpt><trkpt lat="41.296096059677225" lon="13.92455655896162"><ele>427.20000000000005</ele><time>2026-04-04T13:47:22.001Z</time></trkpt><trkpt lat="41.296016694365605" lon="13.924665912195545"><ele>426.0</ele><time>2026-04-04T13:47:23.001Z</time></trkpt><trkpt lat="41.29593847995737" lon="13.924812249921597"><ele>426.0</ele><time>2026-04-04T13:47:24.001Z</time></trkpt><trkpt lat="41.295878682437014" lon="13.924960092663042"><ele>426.0</ele><time>2026-04-04T13:47:25.001Z</time></trkpt><trkpt lat="41.295845344059124" lon="13.925106732986013"><ele>426.0</ele><time>2026-04-04T13:47:26.001Z</time></trkpt><trkpt lat="41.29584265082257" lon="13.92528002407632"><ele>426.0</ele><time>2026-04-04T13:47:27.001Z</time></trkpt><trkpt lat="41.29586186680315" lon="13.925460685396121"><ele>426.8</ele><time>2026-04-04T13:47:28.001Z</time></trkpt><trkpt lat="41.295877403774874" lon="13.925608280104454"><ele>427.6</ele><time>2026-04-04T13:47:29.001Z</time></trkpt><trkpt lat="41.29587738693539" lon="13.92572887681945"><ele>428.4</ele><time>2026-04-04T13:47:30.001Z</time></trkpt><trkpt lat="41.29586066733956" lon="13.925828207414064"><ele>429.2</ele><time>2026-04-04T13:47:31.001Z</time></trkpt><trkpt lat="41.29580695594048" lon="13.925923763828196"><ele>430.0</ele><time>2026-04-04T13:47:32.001Z</time></trkpt><trkpt lat="41.295723832715716" lon="13.925997756008417"><ele>433.75</ele><time>2026-04-04T13:47:33.001Z</time></trkpt><trkpt lat="41.29560960168773" lon="13.926038439609194"><ele>437.5</ele><time>2026-04-04T13:47:34.001Z</time></trkpt><trkpt lat="41.29547723673422" lon="13.926060233103923"><ele>441.25</ele><time>2026-04-04T13:47:35.001Z</time></trkpt><trkpt lat="41.29533268873754" lon="13.926049359636256"><ele>445.0</ele><time>2026-04-04T13:47:36.001Z</time></trkpt><trkpt lat="41.295184475248476" lon="13.926023867850802"><ele>445.0</ele><time>2026-04-04T13:47:37.001Z</time></trkpt><trkpt lat="41.29504007049197" lon="13.925983157102726"><ele>445.0</ele><time>2026-04-04T13:47:38.001Z</time></trkpt><trkpt lat="41.294878938302695" lon="13.925974843287808"><ele>445.0</ele><time>2026-04-04T13:47:39.001Z</time></trkpt><trkpt lat="41.29474580202525" lon="13.925940305201298"><ele>445.0</ele><time>2026-04-04T13:47:40.001Z</time></trkpt><trkpt lat="41.29463654366299" lon="13.925921826906539"><ele>443.8</ele><time>2026-04-04T13:47:41.001Z</time></trkpt><trkpt lat="41.29454337578693" lon="13.925929925106084"><ele>442.6</ele><time>2026-04-04T13:47:42.001Z</time></trkpt><trkpt lat="41.29445581166049" lon="13.925958368550445"><ele>441.4</ele><time>2026-04-04T13:47:43.001Z</time></trkpt><trkpt lat="41.294377549975174" lon="13.92601726688006"><ele>440.2</ele><time>2026-04-04T13:47:44.001Z</time></trkpt><trkpt lat="41.29430176723274" lon="13.926101706534125"><ele>439.0</ele><time>2026-04-04T13:47:45.001Z</time></trkpt><trkpt lat="41.29422973333272" lon="13.92619965684856"><ele>439.0</ele><time>2026-04-04T13:47:46.001Z</time></trkpt><trkpt lat="41.29415772092171" lon="13.926278092036322"><ele>439.0</ele><time>2026-04-04T13:47:47.001Z</time></trkpt><trkpt lat="41.29406440737131" lon="13.92633217957201"><ele>439.0</ele><time>2026-04-04T13:47:48.001Z</time></trkpt><trkpt lat="41.29395438676836" lon="13.926368599844064"><ele>439.0</ele><time>2026-04-04T13:47:49.001Z</time></trkpt><trkpt lat="41.2938202601503" lon="13.92638414866483"><ele>439.0</ele><time>2026-04-04T13:47:50.001Z</time></trkpt><trkpt lat="41.29371153131298" lon="13.926410812470625"><ele>437.6</ele><time>2026-04-04T13:47:51.001Z</time></trkpt><trkpt lat="41.29358653640857" lon="13.926369476961376"><ele>436.2</ele><time>2026-04-04T13:47:52.001Z</time></trkpt><trkpt lat="41.293479736569076" lon="13.926342657087973"><ele>434.80000000000007</ele><time>2026-04-04T13:47:53.001Z</time></trkpt><trkpt lat="41.29337757519467" lon="13.92633168983392"><ele>433.40000000000003</ele><time>2026-04-04T13:47:54.001Z</time></trkpt><trkpt lat="41.29328458858214" lon="13.926341793182457"><ele>432.0</ele><time>2026-04-04T13:47:55.001Z</time></trkpt><trkpt lat="41.29318262605541" lon="13.92639395886074"><ele>432.0</ele><time>2026-04-04T13:47:56.002Z</time></trkpt><trkpt lat="41.29307698929887" lon="13.926488954547505"><ele>432.0</ele><time>2026-04-04T13:47:57.002Z</time></trkpt><trkpt lat="41.29296005807715" lon="13.926572915068864"><ele>432.0</ele><time>2026-04-04T13:47:58.002Z</time></trkpt><trkpt lat="41.29286523018978" lon="13.926664273657059"><ele>432.0</ele><time>2026-04-04T13:47:59.002Z</time></trkpt><trkpt lat="41.2927854501551" lon="13.926754524618925"><ele>432.0</ele><time>2026-04-04T13:48:00.002Z</time></trkpt><trkpt lat="41.292719451598714" lon="13.926861730785808"><ele>432.0</ele><time>2026-04-04T13:48:01.002Z</time></trkpt><trkpt lat="41.29266994843136" lon="13.927018019074277"><ele>432.0</ele><time>2026-04-04T13:48:02.002Z</time></trkpt><trkpt lat="41.29263258413775" lon="13.927200461173936"><ele>432.0</ele><time>2026-04-04T13:48:03.002Z</time></trkpt><trkpt lat="41.29259570251879" lon="13.927368892478038"><ele>432.0</ele><time>2026-04-04T13:48:04.002Z</time></trkpt><trkpt lat="41.2925619817373" lon="13.927523580701386"><ele>432.00000000000006</ele><time>2026-04-04T13:48:05.002Z</time></trkpt><trkpt lat="41.29253157900948" lon="13.927661369511776"><ele>432.00000000000006</ele><time>2026-04-04T13:48:06.002Z</time></trkpt><trkpt lat="41.29249554896623" lon="13.927766609844078"><ele>432.0</ele><time>2026-04-04T13:48:07.002Z</time></trkpt><trkpt lat="41.292439926764715" lon="13.9278446500016"><ele>432.0</ele><time>2026-04-04T13:48:08.002Z</time></trkpt><trkpt lat="41.292374211277654" lon="13.92787302237366"><ele>435.0</ele><time>2026-04-04T13:48:09.002Z</time></trkpt><trkpt lat="41.292281590033085" lon="13.92776777802275"><ele>438.00000000000006</ele><time>2026-04-04T13:48:11.002Z</time></trkpt><trkpt lat="41.2922527920239" lon="13.927675130851611"><ele>441.00000000000006</ele><time>2026-04-04T13:48:12.002Z</time></trkpt><trkpt lat="41.29220579121633" lon="13.92756321782175"><ele>444.0</ele><time>2026-04-04T13:48:13.002Z</time></trkpt><trkpt lat="41.29215051428587" lon="13.927428649633406"><ele>447.0</ele><time>2026-04-04T13:48:14.002Z</time></trkpt><trkpt lat="41.29208483718963" lon="13.927250020541772"><ele>448.0</ele><time>2026-04-04T13:48:15.002Z</time></trkpt><trkpt lat="41.292015690435164" lon="13.927040874613292"><ele>449.0</ele><time>2026-04-04T13:48:16.002Z</time></trkpt><trkpt lat="41.291956700300354" lon="13.926861059212687"><ele>450.0</ele><time>2026-04-04T13:48:17Z</time></trkpt><trkpt lat="41.29190067708472" lon="13.926690287772598"><ele>446.0</ele><time>2026-04-04T13:48:18Z</time></trkpt><trkpt lat="41.29183367240924" lon="13.92654917114016"><ele>442.0</ele><time>2026-04-04T13:48:19Z</time></trkpt><trkpt lat="41.29176917349791" lon="13.926412402516931"><ele>438.0</ele><time>2026-04-04T13:48:20Z</time></trkpt><trkpt lat="41.29167198922148" lon="13.926291646960173"><ele>434.0</ele><time>2026-04-04T13:48:21Z</time></trkpt><trkpt lat="41.29154597642645" lon="13.926187005069297"><ele>432.66666666666663</ele><time>2026-04-04T13:48:22Z</time></trkpt><trkpt lat="41.291401396733306" lon="13.926094306018856"><ele>431.33333333333337</ele><time>2026-04-04T13:48:23Z</time></trkpt><trkpt lat="41.29127553464575" lon="13.92600268179003"><ele>430.0</ele><time>2026-04-04T13:48:24Z</time></trkpt><trkpt lat="41.29115056244587" lon="13.925865759563658"><ele>430.0</ele><time>2026-04-04T13:48:25Z</time></trkpt><trkpt lat="41.29104373991858" lon="13.925678298650359"><ele>430.0</ele><time>2026-04-04T13:48:26Z</time></trkpt><trkpt lat="41.29093868406249" lon="13.925511132064914"><ele>430.0</ele><time>2026-04-04T13:48:27Z</time></trkpt><trkpt lat="41.29082643209738" lon="13.925357813497799"><ele>430.0</ele><time>2026-04-04T13:48:28Z</time></trkpt><trkpt lat="41.29072453205731" lon="13.925166254535085"><ele>430.0</ele><time>2026-04-04T13:48:29Z</time></trkpt><trkpt lat="41.29062291067908" lon="13.924985833358242"><ele>430.0</ele><time>2026-04-04T13:48:30Z</time></trkpt><trkpt lat="41.290526921706395" lon="13.924829025679875"><ele>428.4</ele><time>2026-04-04T13:48:31Z</time></trkpt><trkpt lat="41.29044517086833" lon="13.924699614897012"><ele>426.8</ele><time>2026-04-04T13:48:32Z</time></trkpt><trkpt lat="41.29035624568768" lon="13.924599953392926"><ele>425.20000000000005</ele><time>2026-04-04T13:48:33Z</time></trkpt><trkpt lat="41.290273154163025" lon="13.92454298842696"><ele>423.6</ele><time>2026-04-04T13:48:34Z</time></trkpt><trkpt lat="41.2901765088356" lon="13.924535267198266"><ele>422.0</ele><time>2026-04-04T13:48:35Z</time></trkpt><trkpt lat="41.29006652208758" lon="13.92457619382061"><ele>422.0</ele><time>2026-04-04T13:48:36Z</time></trkpt><trkpt lat="41.28994965372648" lon="13.92465867909324"><ele>422.0</ele><time>2026-04-04T13:48:37Z</time></trkpt><trkpt lat="41.28983317313015" lon="13.924779828346304"><ele>422.0</ele><time>2026-04-04T13:48:38Z</time></trkpt><trkpt lat="41.28970662768724" lon="13.924931909350674"><ele>421.66666666666663</ele><time>2026-04-04T13:48:39Z</time></trkpt><trkpt lat="41.28957103062752" lon="13.925101165508908"><ele>421.33333333333337</ele><time>2026-04-04T13:48:40Z</time></trkpt><trkpt lat="41.28943044847134" lon="13.925274711895415"><ele>421.0</ele><time>2026-04-04T13:48:41Z</time></trkpt><trkpt lat="41.28927922464955" lon="13.92543494617806"><ele>421.0</ele><time>2026-04-04T13:48:42Z</time></trkpt><trkpt lat="41.28912225244746" lon="13.92557159467831"><ele>421.0</ele><time>2026-04-04T13:48:43Z</time></trkpt><trkpt lat="41.28898054021237" lon="13.925679240803955"><ele>421.0</ele><time>2026-04-04T13:48:44Z</time></trkpt><trkpt lat="41.28886286205942" lon="13.925782323328612"><ele>418.6</ele><time>2026-04-04T13:48:45Z</time></trkpt><trkpt lat="41.2887800509228" lon="13.925901599399397"><ele>416.20000000000005</ele><time>2026-04-04T13:48:46Z</time></trkpt><trkpt lat="41.28873789308765" lon="13.926022241921961"><ele>413.79999999999995</ele><time>2026-04-04T13:48:47Z</time></trkpt><trkpt lat="41.28873090069453" lon="13.926147049695974"><ele>411.4</ele><time>2026-04-04T13:48:48Z</time></trkpt><trkpt lat="41.28872533031133" lon="13.926314597665524"><ele>409.0</ele><time>2026-04-04T13:48:49Z</time></trkpt><trkpt lat="41.288701274091125" lon="13.92649690872377"><ele>409.0</ele><time>2026-04-04T13:48:50Z</time></trkpt><trkpt lat="41.28868762564212" lon="13.926685384868529"><ele>409.0</ele><time>2026-04-04T13:48:51Z</time></trkpt><trkpt lat="41.288679564853204" lon="13.926856573707965"><ele>409.0</ele><time>2026-04-04T13:48:52Z</time></trkpt><trkpt lat="41.288687218986134" lon="13.927009582052074"><ele>409.0</ele><time>2026-04-04T13:48:53Z</time></trkpt><trkpt lat="41.28869492752844" lon="13.927132093686573"><ele>411.50000000000006</ele><time>2026-04-04T13:48:54Z</time></trkpt><trkpt lat="41.28870618075175" lon="13.92723582463381"><ele>414.0</ele><time>2026-04-04T13:48:55Z</time></trkpt><trkpt lat="41.28866722957874" lon="13.927324402914085"><ele>416.5</ele><time>2026-04-04T13:48:56Z</time></trkpt><trkpt lat="41.2885983094989" lon="13.92738291749663"><ele>419.0</ele><time>2026-04-04T13:48:57Z</time></trkpt><trkpt lat="41.288524142306414" lon="13.927386524654858"><ele>421.50000000000006</ele><time>2026-04-04T13:48:58Z</time></trkpt><trkpt lat="41.28842328336841" lon="13.927347740243913"><ele>424.0</ele><time>2026-04-04T13:48:59Z</time></trkpt><trkpt lat="41.288302478554336" lon="13.927281439088276"><ele>424.0</ele><time>2026-04-04T13:49:00Z</time></trkpt><trkpt lat="41.2881707671374" lon="13.927185274617829"><ele>424.0</ele><time>2026-04-04T13:49:01Z</time></trkpt><trkpt lat="41.28804365083686" lon="13.927051107044145"><ele>424.0</ele><time>2026-04-04T13:49:02Z</time></trkpt><trkpt lat="41.28794182399075" lon="13.926891531246381"><ele>420.75</ele><time>2026-04-04T13:49:03Z</time></trkpt><trkpt lat="41.28785533773394" lon="13.92671912767508"><ele>417.5</ele><time>2026-04-04T13:49:04Z</time></trkpt><trkpt lat="41.28776931928687" lon="13.926606569631778"><ele>414.25</ele><time>2026-04-04T13:49:05.001Z</time></trkpt><trkpt lat="41.287666949535165" lon="13.926518098817683"><ele>411.0</ele><time>2026-04-04T13:49:06.001Z</time></trkpt><trkpt lat="41.28756157707253" lon="13.926462577883887"><ele>411.0</ele><time>2026-04-04T13:49:07.001Z</time></trkpt><trkpt lat="41.28746839097886" lon="13.926444761465838"><ele>411.0</ele><time>2026-04-04T13:49:08.001Z</time></trkpt><trkpt lat="41.28738099714595" lon="13.926466723416517"><ele>411.0</ele><time>2026-04-04T13:49:09.001Z</time></trkpt><trkpt lat="41.28730537551074" lon="13.926546137613544"><ele>411.0</ele><time>2026-04-04T13:49:10.001Z</time></trkpt><trkpt lat="41.28723641160239" lon="13.92665620452626"><ele>411.0</ele><time>2026-04-04T13:49:11.001Z</time></trkpt><trkpt lat="41.28720143387248" lon="13.926839479157014"><ele>410.5</ele><time>2026-04-04T13:49:12.001Z</time></trkpt><trkpt lat="41.28715959889926" lon="13.927029126836432"><ele>410.0</ele><time>2026-04-04T13:49:13.001Z</time></trkpt><trkpt lat="41.28710475118505" lon="13.927210971486943"><ele>409.5</ele><time>2026-04-04T13:49:14.001Z</time></trkpt><trkpt lat="41.28707257932456" lon="13.927378392169384"><ele>409.0</ele><time>2026-04-04T13:49:15.001Z</time></trkpt><trkpt lat="41.28703330706355" lon="13.92750977011559"><ele>411.4</ele><time>2026-04-04T13:49:16.001Z</time></trkpt><trkpt lat="41.28699926032374" lon="13.927619455212616"><ele>413.79999999999995</ele><time>2026-04-04T13:49:17.001Z</time></trkpt><trkpt lat="41.28691851436164" lon="13.927681528591448"><ele>416.20000000000005</ele><time>2026-04-04T13:49:18.001Z</time></trkpt><trkpt lat="41.28680862270869" lon="13.927707590040148"><ele>418.6</ele><time>2026-04-04T13:49:19.001Z</time></trkpt><trkpt lat="41.28668073543379" lon="13.927684986860786"><ele>421.0</ele><time>2026-04-04T13:49:20.001Z</time></trkpt><trkpt lat="41.28654256157571" lon="13.927625437308453"><ele>418.5</ele><time>2026-04-04T13:49:21.001Z</time></trkpt><trkpt lat="41.28638668399017" lon="13.927600974254876"><ele>416.0</ele><time>2026-04-04T13:49:22.001Z</time></trkpt><trkpt lat="41.28623815678007" lon="13.927614461146094"><ele>413.5</ele><time>2026-04-04T13:49:23.001Z</time></trkpt><trkpt lat="41.28611127641026" lon="13.927642856115776"><ele>411.0</ele><time>2026-04-04T13:49:24.001Z</time></trkpt><trkpt lat="41.28599678707551" lon="13.92768766023222"><ele>411.0</ele><time>2026-04-04T13:49:25.001Z</time></trkpt><trkpt lat="41.28590697604907" lon="13.92775995394352"><ele>411.0</ele><time>2026-04-04T13:49:26.001Z</time></trkpt><trkpt lat="41.28585249542608" lon="13.92785655191076"><ele>411.0</ele><time>2026-04-04T13:49:27.001Z</time></trkpt><trkpt lat="41.28582727666703" lon="13.927993612339694"><ele>411.0</ele><time>2026-04-04T13:49:28.001Z</time></trkpt><trkpt lat="41.28583558356392" lon="13.928137878958108"><ele>411.0</ele><time>2026-04-04T13:49:29.001Z</time></trkpt><trkpt lat="41.28583577421543" lon="13.928291762490629"><ele>411.0</ele><time>2026-04-04T13:49:30.001Z</time></trkpt><trkpt lat="41.28584014332381" lon="13.928400945446917"><ele>411.0</ele><time>2026-04-04T13:49:31.001Z</time></trkpt><trkpt lat="41.28583334259407" lon="13.928488253872583"><ele>411.0</ele><time>2026-04-04T13:49:32.001Z</time></trkpt><trkpt lat="41.28577203633275" lon="13.92854563945924"><ele>411.0</ele><time>2026-04-04T13:49:33.001Z</time></trkpt><trkpt lat="41.285689809389304" lon="13.928530270155001"><ele>411.0</ele><time>2026-04-04T13:49:34.001Z</time></trkpt><trkpt lat="41.28559726024716" lon="13.92847957615508"><ele>411.0</ele><time>2026-04-04T13:49:35.001Z</time></trkpt><trkpt lat="41.28549054929781" lon="13.928385615642561"><ele>411.0</ele><time>2026-04-04T13:49:36.001Z</time></trkpt><trkpt lat="41.28537181148572" lon="13.928264439543298"><ele>411.0</ele><time>2026-04-04T13:49:37.001Z</time></trkpt><trkpt lat="41.285240847715514" lon="13.928161351082196"><ele>411.0</ele><time>2026-04-04T13:49:38.001Z</time></trkpt><trkpt lat="41.285112500667424" lon="13.928096553042357"><ele>411.0</ele><time>2026-04-04T13:49:39.001Z</time></trkpt><trkpt lat="41.2849929928077" lon="13.928064107600132"><ele>411.0</ele><time>2026-04-04T13:49:40.001Z</time></trkpt><trkpt lat="41.28486366994936" lon="13.928062302555398"><ele>411.0</ele><time>2026-04-04T13:49:41.001Z</time></trkpt><trkpt lat="41.28471093169868" lon="13.928113313228815"><ele>411.0</ele><time>2026-04-04T13:49:42.001Z</time></trkpt><trkpt lat="41.284549656035466" lon="13.928193791382695"><ele>410.0</ele><time>2026-04-04T13:49:43.001Z</time></trkpt><trkpt lat="41.28436572446229" lon="13.92825172832349"><ele>409.0</ele><time>2026-04-04T13:49:44.001Z</time></trkpt><trkpt lat="41.28418143794107" lon="13.928274838855703"><ele>408.0</ele><time>2026-04-04T13:49:45.001Z</time></trkpt><trkpt lat="41.2840485238356" lon="13.928303014814384"><ele>408.0</ele><time>2026-04-04T13:49:46.001Z</time></trkpt><trkpt lat="41.283945714383236" lon="13.92834608075881"><ele>408.0</ele><time>2026-04-04T13:49:47.001Z</time></trkpt><trkpt lat="41.28385922866656" lon="13.928418125209475"><ele>408.0</ele><time>2026-04-04T13:49:48.001Z</time></trkpt><trkpt lat="41.28378155543955" lon="13.928535264316057"><ele>408.0</ele><time>2026-04-04T13:49:49.001Z</time></trkpt><trkpt lat="41.283709828118894" lon="13.928698459129494"><ele>408.5</ele><time>2026-04-04T13:49:50.001Z</time></trkpt><trkpt lat="41.283644079419894" lon="13.928882999624491"><ele>409.0</ele><time>2026-04-04T13:49:51.001Z</time></trkpt><trkpt lat="41.28359986017467" lon="13.929024618288121"><ele>409.5</ele><time>2026-04-04T13:49:52.001Z</time></trkpt><trkpt lat="41.28356047956581" lon="13.929130681001093"><ele>410.0</ele><time>2026-04-04T13:49:53.001Z</time></trkpt><trkpt lat="41.28345488278164" lon="13.929210215742811"><ele>410.0</ele><time>2026-04-04T13:49:55.002Z</time></trkpt><trkpt lat="41.28336989635516" lon="13.92917710300452"><ele>410.0</ele><time>2026-04-04T13:49:56.002Z</time></trkpt><trkpt lat="41.28326585066622" lon="13.929087366641768"><ele>410.0</ele><time>2026-04-04T13:49:57.002Z</time></trkpt><trkpt lat="41.28315358127412" lon="13.928960802868406"><ele>410.0</ele><time>2026-04-04T13:49:58.002Z</time></trkpt><trkpt lat="41.28303590265418" lon="13.928820140199818"><ele>410.25</ele><time>2026-04-04T13:49:59.002Z</time></trkpt><trkpt lat="41.282930460058296" lon="13.928681986267108"><ele>410.5</ele><time>2026-04-04T13:50:00.002Z</time></trkpt><trkpt lat="41.282846159925505" lon="13.928580005114847"><ele>410.75</ele><time>2026-04-04T13:50:01.002Z</time></trkpt><trkpt lat="41.28275875757186" lon="13.928513930542758"><ele>411.0</ele><time>2026-04-04T13:50:02.002Z</time></trkpt><trkpt lat="41.28265102248422" lon="13.92848823417897"><ele>411.0</ele><time>2026-04-04T13:50:03.002Z</time></trkpt><trkpt lat="41.28254112324088" lon="13.928525075542364"><ele>411.0</ele><time>2026-04-04T13:50:04.002Z</time></trkpt><trkpt lat="41.28244859628113" lon="13.92861005577316"><ele>411.0</ele><time>2026-04-04T13:50:05.002Z</time></trkpt><trkpt lat="41.28234857012986" lon="13.928747876364266"><ele>411.0</ele><time>2026-04-04T13:50:06.002Z</time></trkpt><trkpt lat="41.2822243474072" lon="13.928846085665482"><ele>410.5</ele><time>2026-04-04T13:50:07.002Z</time></trkpt><trkpt lat="41.282116602641466" lon="13.928932843788619"><ele>410.0</ele><time>2026-04-04T13:50:08.002Z</time></trkpt><trkpt lat="41.282011127169596" lon="13.929011397857039"><ele>409.5</ele><time>2026-04-04T13:50:09.002Z</time></trkpt><trkpt lat="41.28193624587469" lon="13.929152679136239"><ele>409.0</ele><time>2026-04-04T13:50:10.002Z</time></trkpt><trkpt lat="41.28187027487825" lon="13.929349491001757"><ele>409.0</ele><time>2026-04-04T13:50:11.002Z</time></trkpt><trkpt lat="41.28180361468551" lon="13.929533863812004"><ele>409.0</ele><time>2026-04-04T13:50:12.002Z</time></trkpt><trkpt lat="41.28172736011431" lon="13.929647003354887"><ele>409.0</ele><time>2026-04-04T13:50:13.002Z</time></trkpt><trkpt lat="41.28165004280431" lon="13.929709875928738"><ele>409.0</ele><time>2026-04-04T13:50:14.002Z</time></trkpt><trkpt lat="41.281575570456575" lon="13.929719135580333"><ele>409.0</ele><time>2026-04-04T13:50:15.002Z</time></trkpt><trkpt lat="41.28148627371414" lon="13.929656464134615"><ele>412.33333333333337</ele><time>2026-04-04T13:50:16.002Z</time></trkpt><trkpt lat="41.28137428482624" lon="13.929574215273496"><ele>415.66666666666663</ele><time>2026-04-04T13:50:17.002Z</time></trkpt><trkpt lat="41.28123023017482" lon="13.929485984375626"><ele>419.0</ele><time>2026-04-04T13:50:18.002Z</time></trkpt><trkpt lat="41.28107913036861" lon="13.929377454018937"><ele>419.0</ele><time>2026-04-04T13:50:19.002Z</time></trkpt><trkpt lat="41.28093191426452" lon="13.929259999097352"><ele>419.0</ele><time>2026-04-04T13:50:20.002Z</time></trkpt><trkpt lat="41.28080536156968" lon="13.929123002459766"><ele>419.0</ele><time>2026-04-04T13:50:21.002Z</time></trkpt><trkpt lat="41.2807029796882" lon="13.92900694798132"><ele>414.0</ele><time>2026-04-04T13:50:22.002Z</time></trkpt><trkpt lat="41.28059585524589" lon="13.928919730999604"><ele>409.0</ele><time>2026-04-04T13:50:23Z</time></trkpt><trkpt lat="41.28045451759582" lon="13.92887651025316"><ele>404.0</ele><time>2026-04-04T13:50:24Z</time></trkpt><trkpt lat="41.28027116231773" lon="13.928859828905862"><ele>404.0</ele><time>2026-04-04T13:50:25Z</time></trkpt><trkpt lat="41.280071867936215" lon="13.928868261716417"><ele>404.0</ele><time>2026-04-04T13:50:26Z</time></trkpt><trkpt lat="41.27986756255926" lon="13.92885927837611"><ele>404.0</ele><time>2026-04-04T13:50:27Z</time></trkpt><trkpt lat="41.27965756174411" lon="13.92881923273905"><ele>403.0</ele><time>2026-04-04T13:50:28Z</time></trkpt><trkpt lat="41.2794835812403" lon="13.92878262646369"><ele>402.0</ele><time>2026-04-04T13:50:29Z</time></trkpt><trkpt lat="41.27934238880027" lon="13.928752686385057"><ele>401.0</ele><time>2026-04-04T13:50:30Z</time></trkpt><trkpt lat="41.279224671564194" lon="13.928736389577367"><ele>400.0</ele><time>2026-04-04T13:50:31Z</time></trkpt><trkpt lat="41.279125554144784" lon="13.928737171929718"><ele>400.0</ele><time>2026-04-04T13:50:32Z</time></trkpt><trkpt lat="41.27904453554557" lon="13.928777490169736"><ele>400.0</ele><time>2026-04-04T13:50:33Z</time></trkpt><trkpt lat="41.27898976318911" lon="13.928845505235575"><ele>400.0</ele><time>2026-04-04T13:50:34Z</time></trkpt><trkpt lat="41.27895072115535" lon="13.928975338615416"><ele>400.0</ele><time>2026-04-04T13:50:35Z</time></trkpt><trkpt lat="41.27894059713933" lon="13.929133769591973"><ele>400.0</ele><time>2026-04-04T13:50:36Z</time></trkpt><trkpt lat="41.27896058742506" lon="13.92932545587606"><ele>400.0</ele><time>2026-04-04T13:50:37Z</time></trkpt><trkpt lat="41.27897836413222" lon="13.929539284128444"><ele>400.0</ele><time>2026-04-04T13:50:38Z</time></trkpt><trkpt lat="41.27899349447986" lon="13.92977384559683"><ele>400.0</ele><time>2026-04-04T13:50:39Z</time></trkpt><trkpt lat="41.27901489226967" lon="13.930002290266701"><ele>400.5</ele><time>2026-04-04T13:50:40Z</time></trkpt><trkpt lat="41.27904906816223" lon="13.930193248717885"><ele>401.0</ele><time>2026-04-04T13:50:41Z</time></trkpt><trkpt lat="41.27905499861298" lon="13.930343809349436"><ele>401.5</ele><time>2026-04-04T13:50:42Z</time></trkpt><trkpt lat="41.27906980780755" lon="13.930470270981123"><ele>402.0</ele><time>2026-04-04T13:50:43Z</time></trkpt><trkpt lat="41.27903580099921" lon="13.930615468298685"><ele>402.0</ele><time>2026-04-04T13:50:44Z</time></trkpt><trkpt lat="41.27898039215521" lon="13.930767209943703"><ele>402.0</ele><time>2026-04-04T13:50:45Z</time></trkpt><trkpt lat="41.278924436723926" lon="13.930922272004137"><ele>402.0</ele><time>2026-04-04T13:50:46Z</time></trkpt><trkpt lat="41.27889970205229" lon="13.931068819911458"><ele>402.0</ele><time>2026-04-04T13:50:47Z</time></trkpt><trkpt lat="41.27889344266833" lon="13.93119067869512"><ele>402.1666666666667</ele><time>2026-04-04T13:50:48Z</time></trkpt><trkpt lat="41.27885835342511" lon="13.931274598773363"><ele>402.33333333333337</ele><time>2026-04-04T13:50:49Z</time></trkpt><trkpt lat="41.27878933952146" lon="13.931306856350732"><ele>402.5</ele><time>2026-04-04T13:50:50Z</time></trkpt><trkpt lat="41.278711143073316" lon="13.931307923741443"><ele>402.6666666666667</ele><time>2026-04-04T13:50:51Z</time></trkpt><trkpt lat="41.2786368006236" lon="13.931283284055839"><ele>402.83333333333337</ele><time>2026-04-04T13:50:52Z</time></trkpt><trkpt lat="41.278571018383474" lon="13.931233723788685"><ele>403.0</ele><time>2026-04-04T13:50:53Z</time></trkpt><trkpt lat="41.278508094033256" lon="13.93118175236679"><ele>403.0</ele><time>2026-04-04T13:50:54Z</time></trkpt><trkpt lat="41.27844354183528" lon="13.931129848438452"><ele>403.0</ele><time>2026-04-04T13:50:55Z</time></trkpt><trkpt lat="41.27837030886399" lon="13.931072181515525"><ele>403.0</ele><time>2026-04-04T13:50:56Z</time></trkpt><trkpt lat="41.27828490515207" lon="13.931011729831503"><ele>403.0</ele><time>2026-04-04T13:50:57Z</time></trkpt><trkpt lat="41.27818846907732" lon="13.930945634490046"><ele>403.0</ele><time>2026-04-04T13:50:58Z</time></trkpt><trkpt lat="41.27809141857366" lon="13.930902941247476"><ele>401.1666666666667</ele><time>2026-04-04T13:50:59Z</time></trkpt><trkpt lat="41.278003255049256" lon="13.930889180262952"><ele>399.33333333333337</ele><time>2026-04-04T13:51:00Z</time></trkpt><trkpt lat="41.277922890357246" lon="13.930909013566819"><ele>397.5</ele><time>2026-04-04T13:51:01Z</time></trkpt><trkpt lat="41.277848719499644" lon="13.930954854802467"><ele>395.66666666666663</ele><time>2026-04-04T13:51:02Z</time></trkpt><trkpt lat="41.277791951639834" lon="13.931031045322968"><ele>393.8333333333333</ele><time>2026-04-04T13:51:03Z</time></trkpt><trkpt lat="41.27774650594781" lon="13.931128308302837"><ele>392.0</ele><time>2026-04-04T13:51:04Z</time></trkpt><trkpt lat="41.27774280405279" lon="13.93122639424431"><ele>392.0</ele><time>2026-04-04T13:51:05Z</time></trkpt><trkpt lat="41.27776951230394" lon="13.931320819651104"><ele>392.0</ele><time>2026-04-04T13:51:06Z</time></trkpt><trkpt lat="41.27781266059616" lon="13.931428193117974"><ele>392.0</ele><time>2026-04-04T13:51:07.001Z</time></trkpt><trkpt lat="41.27784468146948" lon="13.93155054952765"><ele>392.0</ele><time>2026-04-04T13:51:08.001Z</time></trkpt><trkpt lat="41.27785589499982" lon="13.931676653169065"><ele>392.0</ele><time>2026-04-04T13:51:09.001Z</time></trkpt><trkpt lat="41.27786585851949" lon="13.931806216935408"><ele>392.8333333333333</ele><time>2026-04-04T13:51:10.001Z</time></trkpt><trkpt lat="41.277887033168916" lon="13.931936587792597"><ele>393.66666666666663</ele><time>2026-04-04T13:51:11.001Z</time></trkpt><trkpt lat="41.277914667025335" lon="13.932055367816705"><ele>394.5</ele><time>2026-04-04T13:51:12.001Z</time></trkpt><trkpt lat="41.27791153596764" lon="13.932166415002584"><ele>395.33333333333337</ele><time>2026-04-04T13:51:13.001Z</time></trkpt><trkpt lat="41.277883108837216" lon="13.932264331473913"><ele>396.1666666666667</ele><time>2026-04-04T13:51:14.001Z</time></trkpt><trkpt lat="41.27783346189985" lon="13.932344350089226"><ele>397.0</ele><time>2026-04-04T13:51:15.001Z</time></trkpt><trkpt lat="41.27776802909699" lon="13.932406687511548"><ele>397.0</ele><time>2026-04-04T13:51:16.001Z</time></trkpt><trkpt lat="41.27768261215136" lon="13.932474921544621"><ele>397.0</ele><time>2026-04-04T13:51:17.001Z</time></trkpt><trkpt lat="41.27758047861504" lon="13.932568641108267"><ele>397.0</ele><time>2026-04-04T13:51:18.001Z</time></trkpt><trkpt lat="41.27747196271338" lon="13.932694501828044"><ele>397.0</ele><time>2026-04-04T13:51:19.001Z</time></trkpt><trkpt lat="41.27736056350303" lon="13.932838761111196"><ele>395.75</ele><time>2026-04-04T13:51:20.001Z</time></trkpt><trkpt lat="41.277246090336924" lon="13.932977464472174"><ele>394.5</ele><time>2026-04-04T13:51:21.001Z</time></trkpt><trkpt lat="41.277130605625686" lon="13.933121514415783"><ele>393.25</ele><time>2026-04-04T13:51:22.001Z</time></trkpt><trkpt lat="41.27703044320084" lon="13.933244031568737"><ele>392.0</ele><time>2026-04-04T13:51:23.001Z</time></trkpt><trkpt lat="41.27694896651896" lon="13.93335108633265"><ele>393.5</ele><time>2026-04-04T13:51:24.001Z</time></trkpt><trkpt lat="41.27690531804598" lon="13.933482565862576"><ele>395.0</ele><time>2026-04-04T13:51:25.001Z</time></trkpt><trkpt lat="41.276893983878125" lon="13.933652939553673"><ele>396.5</ele><time>2026-04-04T13:51:26.001Z</time></trkpt><trkpt lat="41.27691661506469" lon="13.93384903674987"><ele>398.0</ele><time>2026-04-04T13:51:27.001Z</time></trkpt><trkpt lat="41.27691477608344" lon="13.934057455949276"><ele>399.25</ele><time>2026-04-04T13:51:28.001Z</time></trkpt><trkpt lat="41.2769209432819" lon="13.934250968891456"><ele>400.5</ele><time>2026-04-04T13:51:29.001Z</time></trkpt><trkpt lat="41.27691809633" lon="13.934429593998496"><ele>401.75</ele><time>2026-04-04T13:51:30.001Z</time></trkpt><trkpt lat="41.276861123059774" lon="13.93458758757921"><ele>403.0</ele><time>2026-04-04T13:51:31.001Z</time></trkpt><trkpt lat="41.27677786972358" lon="13.934709513770727"><ele>403.0</ele><time>2026-04-04T13:51:32.001Z</time></trkpt><trkpt lat="41.27670540723111" lon="13.934808757068783"><ele>403.0</ele><time>2026-04-04T13:51:33.001Z</time></trkpt><trkpt lat="41.27667475300623" lon="13.93494607915103"><ele>403.0</ele><time>2026-04-04T13:51:34.001Z</time></trkpt><trkpt lat="41.27667591727442" lon="13.935121470942283"><ele>403.0</ele><time>2026-04-04T13:51:35.001Z</time></trkpt><trkpt lat="41.27666846660609" lon="13.935311449349458"><ele>403.79999999999995</ele><time>2026-04-04T13:51:36.001Z</time></trkpt><trkpt lat="41.27667921575392" lon="13.935464011844308"><ele>404.6</ele><time>2026-04-04T13:51:37.001Z</time></trkpt><trkpt lat="41.276691352650055" lon="13.935603258083834"><ele>405.4</ele><time>2026-04-04T13:51:38.001Z</time></trkpt><trkpt lat="41.27670271154697" lon="13.935723427871961"><ele>406.20000000000005</ele><time>2026-04-04T13:51:39.001Z</time></trkpt><trkpt lat="41.27670823031634" lon="13.935820957911858"><ele>407.0</ele><time>2026-04-04T13:51:40.001Z</time></trkpt><trkpt lat="41.27665618474943" lon="13.935945571983101"><ele>408.75</ele><time>2026-04-04T13:51:42.001Z</time></trkpt><trkpt lat="41.27655886337823" lon="13.935964528754182"><ele>410.5</ele><time>2026-04-04T13:51:43.001Z</time></trkpt><trkpt lat="41.27643810457297" lon="13.935954674328444"><ele>412.25</ele><time>2026-04-04T13:51:44.001Z</time></trkpt><trkpt lat="41.27630149032433" lon="13.93594798712014"><ele>414.0</ele><time>2026-04-04T13:51:45.001Z</time></trkpt><trkpt lat="41.27617054447208" lon="13.935964576356223"><ele>414.0</ele><time>2026-04-04T13:51:46.001Z</time></trkpt><trkpt lat="41.27605847980813" lon="13.935972974399142"><ele>414.0</ele><time>2026-04-04T13:51:47.001Z</time></trkpt><trkpt lat="41.275958545931196" lon="13.935978349706604"><ele>414.0</ele><time>2026-04-04T13:51:48.001Z</time></trkpt><trkpt lat="41.27585467291123" lon="13.935975695243169"><ele>414.0</ele><time>2026-04-04T13:51:49.001Z</time></trkpt><trkpt lat="41.27575563839943" lon="13.935983072555953"><ele>414.0</ele><time>2026-04-04T13:51:50.001Z</time></trkpt><trkpt lat="41.27565578536488" lon="13.935988986836913"><ele>411.5</ele><time>2026-04-04T13:51:51.001Z</time></trkpt><trkpt lat="41.275562467559425" lon="13.935988913043676"><ele>409.0</ele><time>2026-04-04T13:51:52.001Z</time></trkpt><trkpt lat="41.27546057785032" lon="13.936015470597482"><ele>406.5</ele><time>2026-04-04T13:51:53.001Z</time></trkpt><trkpt lat="41.27535852642705" lon="13.936118643394252"><ele>404.0</ele><time>2026-04-04T13:51:54.002Z</time></trkpt><trkpt lat="41.27528331499453" lon="13.936263574713285"><ele>404.0</ele><time>2026-04-04T13:51:55.002Z</time></trkpt><trkpt lat="41.27522919589732" lon="13.936436718103394"><ele>404.0</ele><time>2026-04-04T13:51:56.002Z</time></trkpt><trkpt lat="41.27520100120909" lon="13.936590591993177"><ele>404.0</ele><time>2026-04-04T13:51:57.002Z</time></trkpt><trkpt lat="41.27517147403204" lon="13.936736602959833"><ele>404.0</ele><time>2026-04-04T13:51:58.002Z</time></trkpt><trkpt lat="41.275137004762634" lon="13.936869077583893"><ele>405.6</ele><time>2026-04-04T13:51:59.002Z</time></trkpt><trkpt lat="41.275096389806876" lon="13.937002355145157"><ele>407.2</ele><time>2026-04-04T13:52:00.002Z</time></trkpt><trkpt lat="41.27505201546344" lon="13.937122019740771"><ele>408.8</ele><time>2026-04-04T13:52:01.002Z</time></trkpt><trkpt lat="41.27499321445457" lon="13.937234035040124"><ele>410.40000000000003</ele><time>2026-04-04T13:52:02.002Z</time></trkpt><trkpt lat="41.274926962941734" lon="13.937327756970324"><ele>412.0</ele><time>2026-04-04T13:52:03.002Z</time></trkpt><trkpt lat="41.27486599547919" lon="13.93740900994884"><ele>412.00000000000006</ele><time>2026-04-04T13:52:04.002Z</time></trkpt><trkpt lat="41.27479464930439" lon="13.937491396630657"><ele>412.0</ele><time>2026-04-04T13:52:05.002Z</time></trkpt><trkpt lat="41.27473022332031" lon="13.937565809734805"><ele>412.0</ele><time>2026-04-04T13:52:06.002Z</time></trkpt><trkpt lat="41.27466779855415" lon="13.937633396145621"><ele>412.0</ele><time>2026-04-04T13:52:07.002Z</time></trkpt><trkpt lat="41.27461370743499" lon="13.93770609446356"><ele>412.00000000000006</ele><time>2026-04-04T13:52:08.002Z</time></trkpt><trkpt lat="41.27459510263642" lon="13.937814387415438"><ele>412.0</ele><time>2026-04-04T13:52:09.002Z</time></trkpt><trkpt lat="41.274619883589914" lon="13.93793810046125"><ele>413.0</ele><time>2026-04-04T13:52:10.002Z</time></trkpt><trkpt lat="41.2746762201329" lon="13.93804516299587"><ele>414.0</ele><time>2026-04-04T13:52:11.002Z</time></trkpt><trkpt lat="41.27475249305324" lon="13.93817639231839"><ele>415.0</ele><time>2026-04-04T13:52:12.002Z</time></trkpt><trkpt lat="41.27483166514825" lon="13.938312899448492"><ele>416.0</ele><time>2026-04-04T13:52:13.002Z</time></trkpt><trkpt lat="41.274890315223466" lon="13.938436510879406"><ele>415.20000000000005</ele><time>2026-04-04T13:52:14.002Z</time></trkpt><trkpt lat="41.274923319671835" lon="13.938548212400182"><ele>414.40000000000003</ele><time>2026-04-04T13:52:15.002Z</time></trkpt><trkpt lat="41.27489301722619" lon="13.938649389982102"><ele>413.6</ele><time>2026-04-04T13:52:16.002Z</time></trkpt><trkpt lat="41.27482137562749" lon="13.938751113140603"><ele>412.8</ele><time>2026-04-04T13:52:17.002Z</time></trkpt><trkpt lat="41.274709019002934" lon="13.938833101679839"><ele>412.0</ele><time>2026-04-04T13:52:18.002Z</time></trkpt><trkpt lat="41.274582787044686" lon="13.93890263265335"><ele>412.0</ele><time>2026-04-04T13:52:19.002Z</time></trkpt><trkpt lat="41.274452860094705" lon="13.938976555218726"><ele>412.0</ele><time>2026-04-04T13:52:20.002Z</time></trkpt><trkpt lat="41.274326029984955" lon="13.93905866246319"><ele>412.0</ele><time>2026-04-04T13:52:21.002Z</time></trkpt><trkpt lat="41.274194154720355" lon="13.939129030392706"><ele>412.0</ele><time>2026-04-04T13:52:22.002Z</time></trkpt><trkpt lat="41.27407518026862" lon="13.939187769978743"><ele>411.40000000000003</ele><time>2026-04-04T13:52:23.002Z</time></trkpt><trkpt lat="41.27396858268293" lon="13.939232543992162"><ele>410.8</ele><time>2026-04-04T13:52:24.002Z</time></trkpt><trkpt lat="41.27387215190314" lon="13.939265730446033"><ele>410.2</ele><time>2026-04-04T13:52:25.002Z</time></trkpt><trkpt lat="41.273785114529005" lon="13.939333129428807"><ele>409.6</ele><time>2026-04-04T13:52:26.002Z</time></trkpt><trkpt lat="41.273733121106886" lon="13.939463791895092"><ele>409.0</ele><time>2026-04-04T13:52:27.002Z</time></trkpt><trkpt lat="41.273697868724916" lon="13.939605434424072"><ele>409.0</ele><time>2026-04-04T13:52:28.002Z</time></trkpt><trkpt lat="41.273733666243615" lon="13.939778940359554"><ele>409.0</ele><time>2026-04-04T13:52:29Z</time></trkpt><trkpt lat="41.27379284639639" lon="13.939956009366943"><ele>409.0</ele><time>2026-04-04T13:52:30Z</time></trkpt><trkpt lat="41.27383033019431" lon="13.940122721287219"><ele>409.0</ele><time>2026-04-04T13:52:31Z</time></trkpt><trkpt lat="41.27386921206266" lon="13.9402619438338"><ele>411.6</ele><time>2026-04-04T13:52:32Z</time></trkpt><trkpt lat="41.27389035856557" lon="13.94037504354046"><ele>414.2</ele><time>2026-04-04T13:52:33Z</time></trkpt><trkpt lat="41.27385354554631" lon="13.940520906215932"><ele>416.8</ele><time>2026-04-04T13:52:35Z</time></trkpt><trkpt lat="41.27377966583723" lon="13.940550338227215"><ele>419.40000000000003</ele><time>2026-04-04T13:52:36Z</time></trkpt><trkpt lat="41.273696306046794" lon="13.940526623637046"><ele>422.0</ele><time>2026-04-04T13:52:37Z</time></trkpt><trkpt lat="41.27361310868019" lon="13.940501118219776"><ele>422.0</ele><time>2026-04-04T13:52:38Z</time></trkpt><trkpt lat="41.27352694558283" lon="13.940448578652164"><ele>422.0</ele><time>2026-04-04T13:52:39Z</time></trkpt><trkpt lat="41.273442876528804" lon="13.940406060892458"><ele>422.0</ele><time>2026-04-04T13:52:40Z</time></trkpt><trkpt lat="41.27334858306394" lon="13.940396066725448"><ele>422.0</ele><time>2026-04-04T13:52:41Z</time></trkpt><trkpt lat="41.27325587893148" lon="13.940397993109276"><ele>422.0</ele><time>2026-04-04T13:52:42Z</time></trkpt><trkpt lat="41.27316608775555" lon="13.940423914035916"><ele>421.40000000000003</ele><time>2026-04-04T13:52:43Z</time></trkpt><trkpt lat="41.27307938008079" lon="13.940468627534862"><ele>420.8</ele><time>2026-04-04T13:52:44Z</time></trkpt><trkpt lat="41.27300521956191" lon="13.940537174902937"><ele>420.2</ele><time>2026-04-04T13:52:45Z</time></trkpt><trkpt lat="41.27295827417153" lon="13.94064397121721"><ele>419.6</ele><time>2026-04-04T13:52:46Z</time></trkpt><trkpt lat="41.27295066734288" lon="13.940781374618922"><ele>419.0</ele><time>2026-04-04T13:52:47Z</time></trkpt><trkpt lat="41.272965071439266" lon="13.940944669371188"><ele>419.0</ele><time>2026-04-04T13:52:48Z</time></trkpt><trkpt lat="41.272945455980995" lon="13.941087656105802"><ele>419.0</ele><time>2026-04-04T13:52:49Z</time></trkpt><trkpt lat="41.272899267485734" lon="13.941195128315725"><ele>419.0</ele><time>2026-04-04T13:52:50Z</time></trkpt><trkpt lat="41.272798386772244" lon="13.941259516344664"><ele>419.0</ele><time>2026-04-04T13:52:52Z</time></trkpt><trkpt lat="41.27273864616327" lon="13.94129538223459"><ele>419.0</ele><time>2026-04-04T13:52:53Z</time></trkpt><trkpt lat="41.272669659465194" lon="13.941333600543805"><ele>419.0</ele><time>2026-04-04T13:52:54Z</time></trkpt><trkpt lat="41.27256887255636" lon="13.941396668409936"><ele>419.0</ele><time>2026-04-04T13:52:55Z</time></trkpt><trkpt lat="41.272466598802545" lon="13.94149909459842"><ele>419.0</ele><time>2026-04-04T13:52:56Z</time></trkpt><trkpt lat="41.27237839618626" lon="13.941597973077421"><ele>419.0</ele><time>2026-04-04T13:52:57Z</time></trkpt><trkpt lat="41.27229352365014" lon="13.941710053813413"><ele>418.25</ele><time>2026-04-04T13:52:58Z</time></trkpt><trkpt lat="41.27220028132038" lon="13.941826446591985"><ele>417.5</ele><time>2026-04-04T13:52:59Z</time></trkpt><trkpt lat="41.27215702490161" lon="13.941987768659056"><ele>416.75</ele><time>2026-04-04T13:53:00Z</time></trkpt><trkpt lat="41.27212105143699" lon="13.942132100468402"><ele>416.0</ele><time>2026-04-04T13:53:01Z</time></trkpt><trkpt lat="41.27208523376425" lon="13.942267714250635"><ele>415.99999999999994</ele><time>2026-04-04T13:53:02Z</time></trkpt><trkpt lat="41.27207027592172" lon="13.942395907106208"><ele>416.0</ele><time>2026-04-04T13:53:03Z</time></trkpt><trkpt lat="41.27207025107124" lon="13.94248879700826"><ele>416.0</ele><time>2026-04-04T13:53:04Z</time></trkpt><trkpt lat="41.272065330092474" lon="13.942609406122235"><ele>416.0</ele><time>2026-04-04T13:53:06Z</time></trkpt><trkpt lat="41.272069793734374" lon="13.942701330858128"><ele>415.99999999999994</ele><time>2026-04-04T13:53:09Z</time></trkpt><trkpt lat="41.27205151828226" lon="13.942804637773973"><ele>416.0</ele><time>2026-04-04T13:53:12.001Z</time></trkpt><trkpt lat="41.27201999682803" lon="13.942917452579106"><ele>417.8</ele><time>2026-04-04T13:53:14.001Z</time></trkpt><trkpt lat="41.271941787626474" lon="13.9429921170337"><ele>419.6</ele><time>2026-04-04T13:53:16.001Z</time></trkpt><trkpt lat="41.27185254978387" lon="13.94303209539601"><ele>421.4</ele><time>2026-04-04T13:53:18.001Z</time></trkpt><trkpt lat="41.271773871021225" lon="13.94306625978022"><ele>423.2</ele><time>2026-04-04T13:53:20.001Z</time></trkpt><trkpt lat="41.271693946204" lon="13.943107613569817"><ele>425.0</ele><time>2026-04-04T13:53:22.001Z</time></trkpt><trkpt lat="41.271589875678316" lon="13.943161531361373"><ele>424.99999999999994</ele><time>2026-04-04T13:53:24.001Z</time></trkpt><trkpt lat="41.271485533014314" lon="13.943252772420689"><ele>425.0</ele><time>2026-04-04T13:53:26.001Z</time></trkpt><trkpt lat="41.271421282498764" lon="13.943302414639005"><ele>425.0</ele><time>2026-04-04T13:53:27.001Z</time></trkpt><trkpt lat="41.27134733050951" lon="13.943344273567488"><ele>425.0</ele><time>2026-04-04T13:53:28.001Z</time></trkpt><trkpt lat="41.27130207603777" lon="13.943415527521658"><ele>424.99999999999994</ele><time>2026-04-04T13:53:29.001Z</time></trkpt><trkpt lat="41.27125169454665" lon="13.943480322646417"><ele>425.0</ele><time>2026-04-04T13:53:30.001Z</time></trkpt><trkpt lat="41.27119139679406" lon="13.943537346330084"><ele>425.2857142857143</ele><time>2026-04-04T13:53:31.001Z</time></trkpt><trkpt lat="41.27114032759988" lon="13.943591599572656"><ele>425.57142857142856</ele><time>2026-04-04T13:53:32.001Z</time></trkpt><trkpt lat="41.27107789299702" lon="13.943649979060579"><ele>425.8571428571429</ele><time>2026-04-04T13:53:33.001Z</time></trkpt><trkpt lat="41.27103498569138" lon="13.943731763696444"><ele>426.1428571428571</ele><time>2026-04-04T13:53:34.001Z</time></trkpt><trkpt lat="41.27098009726261" lon="13.943799046677244"><ele>426.42857142857144</ele><time>2026-04-04T13:53:35.001Z</time></trkpt><trkpt lat="41.27093058295869" lon="13.943879685562475"><ele>426.7142857142857</ele><time>2026-04-04T13:53:36.001Z</time></trkpt><trkpt lat="41.27087403763246" lon="13.943946582960596"><ele>427.0</ele><time>2026-04-04T13:53:37.001Z</time></trkpt><trkpt lat="41.27080830913777" lon="13.944035534497933"><ele>427.0</ele><time>2026-04-04T13:53:38.001Z</time></trkpt><trkpt lat="41.27074840371193" lon="13.944129650751881"><ele>427.00000000000006</ele><time>2026-04-04T13:53:39.001Z</time></trkpt><trkpt lat="41.27067018156702" lon="13.944216818501356"><ele>427.00000000000006</ele><time>2026-04-04T13:53:40.001Z</time></trkpt><trkpt lat="41.27060218348705" lon="13.944312561833064"><ele>427.0</ele><time>2026-04-04T13:53:41.001Z</time></trkpt><trkpt lat="41.270538389884734" lon="13.94440203573695"><ele>427.0</ele><time>2026-04-04T13:53:42.001Z</time></trkpt><trkpt lat="41.270500077473606" lon="13.944524345398829"><ele>426.6</ele><time>2026-04-04T13:53:43.001Z</time></trkpt><trkpt lat="41.2704767761087" lon="13.944650449546755"><ele>426.20000000000005</ele><time>2026-04-04T13:53:44.001Z</time></trkpt><trkpt lat="41.27048389885508" lon="13.944783834256688"><ele>425.8</ele><time>2026-04-04T13:53:45.001Z</time></trkpt><trkpt lat="41.270511758766204" lon="13.944928550189168"><ele>425.4</ele><time>2026-04-04T13:53:46.001Z</time></trkpt><trkpt lat="41.27056445393126" lon="13.945096462901136"><ele>425.0</ele><time>2026-04-04T13:53:47.001Z</time></trkpt><trkpt lat="41.270624331271435" lon="13.9452486732923"><ele>427.25</ele><time>2026-04-04T13:53:48.001Z</time></trkpt><trkpt lat="41.270678595071786" lon="13.945382799699685"><ele>429.5</ele><time>2026-04-04T13:53:49.001Z</time></trkpt><trkpt lat="41.27072546326711" lon="13.945511312638345"><ele>431.75</ele><time>2026-04-04T13:53:50.001Z</time></trkpt><trkpt lat="41.270784735777525" lon="13.945634523269797"><ele>434.0</ele><time>2026-04-04T13:53:51.001Z</time></trkpt><trkpt lat="41.270877914573234" lon="13.945734001647907"><ele>434.0</ele><time>2026-04-04T13:53:52.001Z</time></trkpt><trkpt lat="41.27096664195301" lon="13.94580496145188"><ele>434.0</ele><time>2026-04-04T13:53:53.001Z</time></trkpt><trkpt lat="41.27103450986711" lon="13.94585851921438"><ele>434.0</ele><time>2026-04-04T13:53:54.001Z</time></trkpt><trkpt lat="41.27108744510454" lon="13.945910816944078"><ele>434.0</ele><time>2026-04-04T13:53:55.001Z</time></trkpt><trkpt lat="41.27109342089048" lon="13.945999212681853"><ele>434.0</ele><time>2026-04-04T13:53:56.001Z</time></trkpt><trkpt lat="41.27107104766141" lon="13.946084180759351"><ele>434.0</ele><time>2026-04-04T13:53:57.002Z</time></trkpt><trkpt lat="41.27101970112336" lon="13.946134782492729"><ele>434.0</ele><time>2026-04-04T13:53:58.002Z</time></trkpt><trkpt lat="41.270943533616794" lon="13.946153909467787"><ele>433.4</ele><time>2026-04-04T13:53:59.002Z</time></trkpt><trkpt lat="41.2708540692642" lon="13.946154146494457"><ele>432.79999999999995</ele><time>2026-04-04T13:54:00.002Z</time></trkpt><trkpt lat="41.27076705966336" lon="13.946144094813876"><ele>432.20000000000005</ele><time>2026-04-04T13:54:01.002Z</time></trkpt><trkpt lat="41.27066947034991" lon="13.946142952761118"><ele>431.6</ele><time>2026-04-04T13:54:02.002Z</time></trkpt><trkpt lat="41.270562661307025" lon="13.94614620206301"><ele>431.0</ele><time>2026-04-04T13:54:03.002Z</time></trkpt><trkpt lat="41.270455724422284" lon="13.946151386654073"><ele>431.0</ele><time>2026-04-04T13:54:04.002Z</time></trkpt><trkpt lat="41.2703467889968" lon="13.946172483570198"><ele>431.0</ele><time>2026-04-04T13:54:05.002Z</time></trkpt><trkpt lat="41.27025737964599" lon="13.94623535701635"><ele>431.0</ele><time>2026-04-04T13:54:06.002Z</time></trkpt><trkpt lat="41.27017278760246" lon="13.946306984978118"><ele>431.0</ele><time>2026-04-04T13:54:07.002Z</time></trkpt><trkpt lat="41.270128843779325" lon="13.946401470176854"><ele>431.0</ele><time>2026-04-04T13:54:08.002Z</time></trkpt><trkpt lat="41.27011312618954" lon="13.946521013979394"><ele>431.0</ele><time>2026-04-04T13:54:09.002Z</time></trkpt><trkpt lat="41.270130860431316" lon="13.946667479538975"><ele>431.0</ele><time>2026-04-04T13:54:10.002Z</time></trkpt><trkpt lat="41.27017863229972" lon="13.946830612698104"><ele>431.0</ele><time>2026-04-04T13:54:11.002Z</time></trkpt><trkpt lat="41.27025390502396" lon="13.947004262929237"><ele>431.0</ele><time>2026-04-04T13:54:12.002Z</time></trkpt><trkpt lat="41.270348752737554" lon="13.947174350933077"><ele>432.8</ele><time>2026-04-04T13:54:13.002Z</time></trkpt><trkpt lat="41.27042721502949" lon="13.947322208658015"><ele>434.6</ele><time>2026-04-04T13:54:14.002Z</time></trkpt><trkpt lat="41.27048646221685" lon="13.94745072505057"><ele>436.4</ele><time>2026-04-04T13:54:15.002Z</time></trkpt><trkpt lat="41.2705311143789" lon="13.947557644308063"><ele>438.2</ele><time>2026-04-04T13:54:16.002Z</time></trkpt><trkpt lat="41.27055333447245" lon="13.947656967973476"><ele>440.0</ele><time>2026-04-04T13:54:17.002Z</time></trkpt><trkpt lat="41.27053745425378" lon="13.94774189601456"><ele>441.4</ele><time>2026-04-04T13:54:18.002Z</time></trkpt><trkpt lat="41.27042593487519" lon="13.947812936790744"><ele>442.8</ele><time>2026-04-04T13:54:20.002Z</time></trkpt><trkpt lat="41.270357885364824" lon="13.947784292761217"><ele>444.20000000000005</ele><time>2026-04-04T13:54:21.002Z</time></trkpt><trkpt lat="41.270287642688906" lon="13.947738009659703"><ele>445.6</ele><time>2026-04-04T13:54:22.002Z</time></trkpt><trkpt lat="41.27020923943033" lon="13.947695128711652"><ele>447.0</ele><time>2026-04-04T13:54:23.002Z</time></trkpt><trkpt lat="41.27011875063023" lon="13.947655975834843"><ele>447.0</ele><time>2026-04-04T13:54:24.002Z</time></trkpt><trkpt lat="41.27003938391252" lon="13.947658593754452"><ele>447.00000000000006</ele><time>2026-04-04T13:54:25.002Z</time></trkpt><trkpt lat="41.2699610161628" lon="13.947726057439558"><ele>447.00000000000006</ele><time>2026-04-04T13:54:26.002Z</time></trkpt><trkpt lat="41.26989194179512" lon="13.947845574748554"><ele>447.0</ele><time>2026-04-04T13:54:27.002Z</time></trkpt><trkpt lat="41.269844034010696" lon="13.948005518514202"><ele>447.0</ele><time>2026-04-04T13:54:28.002Z</time></trkpt><trkpt lat="41.26981181779072" lon="13.948155625176971"><ele>447.0</ele><time>2026-04-04T13:54:29.002Z</time></trkpt><trkpt lat="41.26980378326594" lon="13.948330680926876"><ele>447.0</ele><time>2026-04-04T13:54:30.002Z</time></trkpt><trkpt lat="41.26984009941955" lon="13.948525591711515"><ele>447.0</ele><time>2026-04-04T13:54:31.002Z</time></trkpt><trkpt lat="41.26990234791694" lon="13.948745646422715"><ele>448.0</ele><time>2026-04-04T13:54:32.002Z</time></trkpt><trkpt lat="41.269986168258136" lon="13.948980691109465"><ele>449.0</ele><time>2026-04-04T13:54:33.002Z</time></trkpt><trkpt lat="41.27006855968362" lon="13.949169259125021"><ele>450.0</ele><time>2026-04-04T13:54:34.002Z</time></trkpt><trkpt lat="41.27012034154154" lon="13.949315488134019"><ele>452.2</ele><time>2026-04-04T13:54:35Z</time></trkpt><trkpt lat="41.27018062670098" lon="13.949422314570633"><ele>454.4</ele><time>2026-04-04T13:54:36Z</time></trkpt><trkpt lat="41.27019219105805" lon="13.949538667817535"><ele>456.6</ele><time>2026-04-04T13:54:37Z</time></trkpt><trkpt lat="41.27017076922863" lon="13.949633498620816"><ele>458.8</ele><time>2026-04-04T13:54:38Z</time></trkpt><trkpt lat="41.27009469792817" lon="13.949719416904827"><ele>461.0</ele><time>2026-04-04T13:54:39Z</time></trkpt><trkpt lat="41.269979582888155" lon="13.949793070652378"><ele>461.0</ele><time>2026-04-04T13:54:40Z</time></trkpt><trkpt lat="41.269842653330116" lon="13.949872946361657"><ele>461.0</ele><time>2026-04-04T13:54:41Z</time></trkpt><trkpt lat="41.269715173548555" lon="13.950002850032678"><ele>461.0</ele><time>2026-04-04T13:54:42Z</time></trkpt><trkpt lat="41.26958851825501" lon="13.950159166657293"><ele>462.25</ele><time>2026-04-04T13:54:43Z</time></trkpt><trkpt lat="41.269455459523805" lon="13.950273154915111"><ele>463.5</ele><time>2026-04-04T13:54:44Z</time></trkpt><trkpt lat="41.2693356959934" lon="13.950347891388486"><ele>464.75</ele><time>2026-04-04T13:54:45Z</time></trkpt><trkpt lat="41.26921745071494" lon="13.950418797821696"><ele>466.0</ele><time>2026-04-04T13:54:46Z</time></trkpt><trkpt lat="41.26910861273777" lon="13.950482280090757"><ele>466.0</ele><time>2026-04-04T13:54:47Z</time></trkpt><trkpt lat="41.26901266946987" lon="13.9505541450862"><ele>466.0</ele><time>2026-04-04T13:54:48Z</time></trkpt><trkpt lat="41.268932172242174" lon="13.950647377099656"><ele>466.0</ele><time>2026-04-04T13:54:49Z</time></trkpt><trkpt lat="41.26887281449552" lon="13.950773171017797"><ele>466.0</ele><time>2026-04-04T13:54:50Z</time></trkpt><trkpt lat="41.268849328588445" lon="13.950954912873765"><ele>458.75</ele><time>2026-04-04T13:54:51Z</time></trkpt><trkpt lat="41.26882215621761" lon="13.951165951311348"><ele>451.5</ele><time>2026-04-04T13:54:52Z</time></trkpt><trkpt lat="41.26881865925989" lon="13.951361843527922"><ele>444.25</ele><time>2026-04-04T13:54:53Z</time></trkpt><trkpt lat="41.26881611117228" lon="13.951539068415954"><ele>437.0</ele><time>2026-04-04T13:54:54Z</time></trkpt><trkpt lat="41.26883519493649" lon="13.951755035823567"><ele>435.0</ele><time>2026-04-04T13:54:55Z</time></trkpt><trkpt lat="41.268891411529516" lon="13.951978413433643"><ele>433.0</ele><time>2026-04-04T13:54:56Z</time></trkpt><trkpt lat="41.268954669323904" lon="13.952206929616704"><ele>431.0</ele><time>2026-04-04T13:54:57Z</time></trkpt><trkpt lat="41.26902863913126" lon="13.952445770663232"><ele>444.66666666666663</ele><time>2026-04-04T13:54:58Z</time></trkpt><trkpt lat="41.26910300268614" lon="13.952692010324746"><ele>458.33333333333337</ele><time>2026-04-04T13:54:59Z</time></trkpt><trkpt lat="41.26916232531733" lon="13.952940132453516"><ele>472.0</ele><time>2026-04-04T13:55:00Z</time></trkpt><trkpt lat="41.26918911280793" lon="13.953179416425161"><ele>474.33333333333337</ele><time>2026-04-04T13:55:01Z</time></trkpt><trkpt lat="41.26919491231006" lon="13.953399231792716"><ele>476.66666666666663</ele><time>2026-04-04T13:55:02Z</time></trkpt><trkpt lat="41.26919281961481" lon="13.953622312543123"><ele>479.0</ele><time>2026-04-04T13:55:03Z</time></trkpt><trkpt lat="41.26914873030655" lon="13.953838491192647"><ele>479.0</ele><time>2026-04-04T13:55:04Z</time></trkpt><trkpt lat="41.269075320598105" lon="13.954004039744603"><ele>479.0</ele><time>2026-04-04T13:55:05Z</time></trkpt><trkpt lat="41.26901074759847" lon="13.954127576149096"><ele>479.0</ele><time>2026-04-04T13:55:06Z</time></trkpt><trkpt lat="41.26898786741612" lon="13.954256868487224"><ele>479.0</ele><time>2026-04-04T13:55:07Z</time></trkpt><trkpt lat="41.26901089706002" lon="13.954395307255778"><ele>480.5</ele><time>2026-04-04T13:55:08Z</time></trkpt><trkpt lat="41.26906938761782" lon="13.954547604595703"><ele>482.0</ele><time>2026-04-04T13:55:09Z</time></trkpt><trkpt lat="41.26912084497185" lon="13.95471654273166"><ele>483.5</ele><time>2026-04-04T13:55:10Z</time></trkpt><trkpt lat="41.26917469078613" lon="13.954846117903585"><ele>485.0</ele><time>2026-04-04T13:55:11Z</time></trkpt><trkpt lat="41.26921532524589" lon="13.954938946328648"><ele>484.8333333333333</ele><time>2026-04-04T13:55:12Z</time></trkpt><trkpt lat="41.26920572177771" lon="13.95504015914603"><ele>484.66666666666663</ele><time>2026-04-04T13:55:13Z</time></trkpt><trkpt lat="41.26916136000213" lon="13.955108138249575"><ele>484.5</ele><time>2026-04-04T13:55:14Z</time></trkpt><trkpt lat="41.26909288294487" lon="13.95513020800114"><ele>484.33333333333337</ele><time>2026-04-04T13:55:15Z</time></trkpt><trkpt lat="41.269008051575625" lon="13.955117905072214"><ele>484.1666666666667</ele><time>2026-04-04T13:55:16.001Z</time></trkpt><trkpt lat="41.26890666019573" lon="13.95508849857069"><ele>484.0</ele><time>2026-04-04T13:55:17.001Z</time></trkpt><trkpt lat="41.268794539707635" lon="13.955050691389292"><ele>482.5</ele><time>2026-04-04T13:55:18.001Z</time></trkpt><trkpt lat="41.26867364423159" lon="13.955008616166712"><ele>481.0</ele><time>2026-04-04T13:55:19.001Z</time></trkpt><trkpt lat="41.26855263629076" lon="13.95497452631175"><ele>479.5</ele><time>2026-04-04T13:55:20.001Z</time></trkpt><trkpt lat="41.268441209137805" lon="13.954934953713485"><ele>478.0</ele><time>2026-04-04T13:55:21.001Z</time></trkpt><trkpt lat="41.268353947802126" lon="13.954920424609613"><ele>478.0</ele><time>2026-04-04T13:55:22.001Z</time></trkpt><trkpt lat="41.26827172682659" lon="13.954954817078669"><ele>477.99999999999994</ele><time>2026-04-04T13:55:23.001Z</time></trkpt><trkpt lat="41.26822397892025" lon="13.955041880099733"><ele>477.99999999999994</ele><time>2026-04-04T13:55:24.001Z</time></trkpt><trkpt lat="41.268215363505696" lon="13.955157359877575"><ele>478.0</ele><time>2026-04-04T13:55:25.001Z</time></trkpt><trkpt lat="41.26823394957096" lon="13.955297287192641"><ele>478.0</ele><time>2026-04-04T13:55:26.001Z</time></trkpt><trkpt lat="41.26826186596856" lon="13.955451072474132"><ele>480.0</ele><time>2026-04-04T13:55:27.001Z</time></trkpt><trkpt lat="41.26828472100482" lon="13.955628587887645"><ele>482.0</ele><time>2026-04-04T13:55:28.001Z</time></trkpt><trkpt lat="41.26829862336915" lon="13.955835659321492"><ele>484.0</ele><time>2026-04-04T13:55:29.001Z</time></trkpt><trkpt lat="41.26832747084538" lon="13.956052967227524"><ele>484.0</ele><time>2026-04-04T13:55:30.001Z</time></trkpt><trkpt lat="41.268369516409315" lon="13.956275734437654"><ele>484.0</ele><time>2026-04-04T13:55:31.001Z</time></trkpt><trkpt lat="41.26842564700294" lon="13.956505636966961"><ele>484.0</ele><time>2026-04-04T13:55:32.001Z</time></trkpt><trkpt lat="41.268498025871125" lon="13.956739244733383"><ele>481.6666666666667</ele><time>2026-04-04T13:55:33.001Z</time></trkpt><trkpt lat="41.268575302198784" lon="13.956974580930087"><ele>479.33333333333337</ele><time>2026-04-04T13:55:34.001Z</time></trkpt><trkpt lat="41.26865868238898" lon="13.957207090965927"><ele>477.0</ele><time>2026-04-04T13:55:35.001Z</time></trkpt><trkpt lat="41.26874467008787" lon="13.957436880619513"><ele>474.66666666666663</ele><time>2026-04-04T13:55:36.001Z</time></trkpt><trkpt lat="41.268832296496775" lon="13.957657121498672"><ele>472.3333333333333</ele><time>2026-04-04T13:55:37.001Z</time></trkpt><trkpt lat="41.26891484022385" lon="13.957853196998673"><ele>470.0</ele><time>2026-04-04T13:55:38.001Z</time></trkpt><trkpt lat="41.26898521225304" lon="13.958028120999566"><ele>475.3333333333333</ele><time>2026-04-04T13:55:39.001Z</time></trkpt><trkpt lat="41.269064511041556" lon="13.958197029251643"><ele>480.66666666666663</ele><time>2026-04-04T13:55:40.001Z</time></trkpt><trkpt lat="41.26918520358389" lon="13.958350419449776"><ele>486.0</ele><time>2026-04-04T13:55:41.001Z</time></trkpt><trkpt lat="41.26930804230239" lon="13.958494550174112"><ele>486.0</ele><time>2026-04-04T13:55:42.001Z</time></trkpt><trkpt lat="41.26939096987202" lon="13.958647911856136"><ele>486.0</ele><time>2026-04-04T13:55:43.001Z</time></trkpt><trkpt lat="41.26945723231822" lon="13.95878918907819"><ele>486.0</ele><time>2026-04-04T13:55:44.001Z</time></trkpt><trkpt lat="41.26953761176101" lon="13.958883647541901"><ele>486.0</ele><time>2026-04-04T13:55:45.001Z</time></trkpt><trkpt lat="41.26965209343084" lon="13.958949459973793"><ele>489.75</ele><time>2026-04-04T13:55:46.001Z</time></trkpt><trkpt lat="41.26978558062113" lon="13.959018196298775"><ele>493.5</ele><time>2026-04-04T13:55:47.001Z</time></trkpt><trkpt lat="41.269920886546615" lon="13.959096532809202"><ele>497.25</ele><time>2026-04-04T13:55:48.001Z</time></trkpt><trkpt lat="41.27004637116794" lon="13.959166964861087"><ele>501.0</ele><time>2026-04-04T13:55:49.001Z</time></trkpt><trkpt lat="41.270142523807785" lon="13.959256105969423"><ele>501.0</ele><time>2026-04-04T13:55:50.001Z</time></trkpt><trkpt lat="41.27020054150142" lon="13.959352844435108"><ele>501.0</ele><time>2026-04-04T13:55:51.001Z</time></trkpt><trkpt lat="41.270236110476425" lon="13.959485268474687"><ele>501.0</ele><time>2026-04-04T13:55:52.001Z</time></trkpt><trkpt lat="41.27023955561327" lon="13.959651851101682"><ele>501.0</ele><time>2026-04-04T13:55:53.001Z</time></trkpt><trkpt lat="41.27020665167009" lon="13.959784679015643"><ele>501.0</ele><time>2026-04-04T13:55:54.001Z</time></trkpt><trkpt lat="41.270118615203444" lon="13.959879824740407"><ele>501.0</ele><time>2026-04-04T13:55:55.001Z</time></trkpt><trkpt lat="41.270068795070536" lon="13.959997293868927"><ele>501.0</ele><time>2026-04-04T13:55:56.001Z</time></trkpt><trkpt lat="41.270084400814284" lon="13.960136496158617"><ele>501.0</ele><time>2026-04-04T13:55:57.001Z</time></trkpt><trkpt lat="41.2701367458151" lon="13.960312631383076"><ele>501.0</ele><time>2026-04-04T13:55:58.001Z</time></trkpt><trkpt lat="41.27021968623343" lon="13.960490437069254"><ele>497.33333333333337</ele><time>2026-04-04T13:55:59.001Z</time></trkpt><trkpt lat="41.2702765107979" lon="13.960697440737734"><ele>493.6666666666667</ele><time>2026-04-04T13:56:00.001Z</time></trkpt><trkpt lat="41.27028739111845" lon="13.960919503046627"><ele>490.0</ele><time>2026-04-04T13:56:01.002Z</time></trkpt><trkpt lat="41.270309412564" lon="13.96109607026965"><ele>487.0</ele><time>2026-04-04T13:56:02.002Z</time></trkpt><trkpt lat="41.270368579823284" lon="13.9612309998533"><ele>484.0</ele><time>2026-04-04T13:56:03.002Z</time></trkpt><trkpt lat="41.27046510511695" lon="13.961354727766025"><ele>481.0</ele><time>2026-04-04T13:56:04.002Z</time></trkpt><trkpt lat="41.27059943848626" lon="13.961467238286307"><ele>478.0</ele><time>2026-04-04T13:56:05.002Z</time></trkpt><trkpt lat="41.27074798371368" lon="13.961568797140695"><ele>488.33333333333337</ele><time>2026-04-04T13:56:06.002Z</time></trkpt><trkpt lat="41.27091380687129" lon="13.961649976737272"><ele>498.66666666666663</ele><time>2026-04-04T13:56:07.002Z</time></trkpt><trkpt lat="41.27108908446885" lon="13.961703827531911"><ele>509.0</ele><time>2026-04-04T13:56:08.002Z</time></trkpt><trkpt lat="41.271269061653825" lon="13.96177147357725"><ele>512.6666666666666</ele><time>2026-04-04T13:56:09.002Z</time></trkpt><trkpt lat="41.271464167806165" lon="13.961806528485548"><ele>516.3333333333334</ele><time>2026-04-04T13:56:10.002Z</time></trkpt><trkpt lat="41.27163364363561" lon="13.961826725099042"><ele>520.0</ele><time>2026-04-04T13:56:11.002Z</time></trkpt><trkpt lat="41.27179625316462" lon="13.961853254394816"><ele>520.0</ele><time>2026-04-04T13:56:12.002Z</time></trkpt><trkpt lat="41.271967677745735" lon="13.961894382010566"><ele>520.0</ele><time>2026-04-04T13:56:13.002Z</time></trkpt><trkpt lat="41.27211221914067" lon="13.961986054251879"><ele>520.0</ele><time>2026-04-04T13:56:14.002Z</time></trkpt><trkpt lat="41.27225770276215" lon="13.962072263917118"><ele>522.3333333333334</ele><time>2026-04-04T13:56:15.002Z</time></trkpt><trkpt lat="41.27240268502314" lon="13.962126923990127"><ele>524.6666666666666</ele><time>2026-04-04T13:56:16.002Z</time></trkpt><trkpt lat="41.27256510769469" lon="13.96215892752166"><ele>527.0</ele><time>2026-04-04T13:56:17.002Z</time></trkpt><trkpt lat="41.27273465969717" lon="13.96213783370043"><ele>527.0</ele><time>2026-04-04T13:56:18.002Z</time></trkpt><trkpt lat="41.27287888101546" lon="13.962125386100103"><ele>527.0</ele><time>2026-04-04T13:56:19.002Z</time></trkpt><trkpt lat="41.27301262870955" lon="13.962155006065968"><ele>527.0</ele><time>2026-04-04T13:56:20.002Z</time></trkpt><trkpt lat="41.273151541305985" lon="13.962193205339108"><ele>527.0</ele><time>2026-04-04T13:56:21.002Z</time></trkpt><trkpt lat="41.273275110946905" lon="13.962232021853954"><ele>529.6</ele><time>2026-04-04T13:56:22.002Z</time></trkpt><trkpt lat="41.27336345648449" lon="13.962277430790909"><ele>532.2</ele><time>2026-04-04T13:56:23.002Z</time></trkpt><trkpt lat="41.27343934532295" lon="13.962316763645944"><ele>534.8</ele><time>2026-04-04T13:56:24.002Z</time></trkpt><trkpt lat="41.27348745818316" lon="13.962415717394466"><ele>537.4</ele><time>2026-04-04T13:56:25.002Z</time></trkpt><trkpt lat="41.27350336717144" lon="13.96252631967298"><ele>540.0</ele><time>2026-04-04T13:56:26.002Z</time></trkpt><trkpt lat="41.273517076487785" lon="13.962660913663242"><ele>543.25</ele><time>2026-04-04T13:56:27.002Z</time></trkpt><trkpt lat="41.2735819947678" lon="13.962777031096454"><ele>546.5</ele><time>2026-04-04T13:56:28.002Z</time></trkpt><trkpt lat="41.27368230394698" lon="13.962865013054005"><ele>549.75</ele><time>2026-04-04T13:56:29.002Z</time></trkpt><trkpt lat="41.273807558372475" lon="13.962928344922837"><ele>553.0</ele><time>2026-04-04T13:56:30.002Z</time></trkpt><trkpt lat="41.2739469294032" lon="13.962962104178072"><ele>553.0</ele><time>2026-04-04T13:56:31.002Z</time></trkpt><trkpt lat="41.274091024451074" lon="13.96298746443055"><ele>553.0</ele><time>2026-04-04T13:56:32.002Z</time></trkpt><trkpt lat="41.27422962249483" lon="13.962950043621257"><ele>553.0</ele><time>2026-04-04T13:56:33.002Z</time></trkpt><trkpt lat="41.274357319133514" lon="13.962887033757545"><ele>553.0</ele><time>2026-04-04T13:56:34.002Z</time></trkpt><trkpt lat="41.27447774870771" lon="13.9628101219944"><ele>553.0</ele><time>2026-04-04T13:56:35.002Z</time></trkpt><trkpt lat="41.27459245084661" lon="13.96270014688552"><ele>553.0</ele><time>2026-04-04T13:56:36.002Z</time></trkpt><trkpt lat="41.27467497800954" lon="13.962551784935439"><ele>553.0</ele><time>2026-04-04T13:56:37.002Z</time></trkpt><trkpt lat="41.274739672976814" lon="13.962403037444924"><ele>553.0</ele><time>2026-04-04T13:56:38.002Z</time></trkpt><trkpt lat="41.274787440652176" lon="13.96228268968411"><ele>553.8</ele><time>2026-04-04T13:56:39.002Z</time></trkpt><trkpt lat="41.27483456435039" lon="13.962180375973908"><ele>554.5999999999999</ele><time>2026-04-04T13:56:40.002Z</time></trkpt><trkpt lat="41.27488822033903" lon="13.96210584645532"><ele>555.4000000000001</ele><time>2026-04-04T13:56:41Z</time></trkpt><trkpt lat="41.274950951706934" lon="13.96204293089414"><ele>556.2</ele><time>2026-04-04T13:56:42Z</time></trkpt><trkpt lat="41.27503566857549" lon="13.96199492946441"><ele>557.0</ele><time>2026-04-04T13:56:43Z</time></trkpt><trkpt lat="41.27516976818172" lon="13.961993440585239"><ele>557.0</ele><time>2026-04-04T13:56:44Z</time></trkpt><trkpt lat="41.27531623558821" lon="13.96201207451615"><ele>557.0</ele><time>2026-04-04T13:56:45Z</time></trkpt><trkpt lat="41.275475575731164" lon="13.962013060626289"><ele>557.0</ele><time>2026-04-04T13:56:46Z</time></trkpt><trkpt lat="41.27563968269014" lon="13.961975112263158"><ele>555.3333333333333</ele><time>2026-04-04T13:56:47Z</time></trkpt><trkpt lat="41.27578588688176" lon="13.961927432429597"><ele>553.6666666666666</ele><time>2026-04-04T13:56:48Z</time></trkpt><trkpt lat="41.27592540456024" lon="13.961817501538404"><ele>552.0</ele><time>2026-04-04T13:56:49Z</time></trkpt><trkpt lat="41.276052920625915" lon="13.96164926518766"><ele>552.0</ele><time>2026-04-04T13:56:50Z</time></trkpt><trkpt lat="41.27616597902828" lon="13.961464038685346"><ele>552.0</ele><time>2026-04-04T13:56:51Z</time></trkpt><trkpt lat="41.27628043667095" lon="13.961293849726262"><ele>552.0</ele><time>2026-04-04T13:56:52Z</time></trkpt><trkpt lat="41.27641384478422" lon="13.96113069549579"><ele>552.6666666666666</ele><time>2026-04-04T13:56:53Z</time></trkpt><trkpt lat="41.276559284631055" lon="13.960987157703867"><ele>553.3333333333333</ele><time>2026-04-04T13:56:54Z</time></trkpt><trkpt lat="41.27670110052078" lon="13.960832857244167"><ele>554.0</ele><time>2026-04-04T13:56:55Z</time></trkpt><trkpt lat="41.276872618844884" lon="13.960716495043672"><ele>554.0</ele><time>2026-04-04T13:56:56Z</time></trkpt><trkpt lat="41.27704601832864" lon="13.960622190541695"><ele>554.0</ele><time>2026-04-04T13:56:57Z</time></trkpt><trkpt lat="41.27719836850717" lon="13.960551446265779"><ele>554.0</ele><time>2026-04-04T13:56:58Z</time></trkpt><trkpt lat="41.277323036106736" lon="13.960492812173282"><ele>556.75</ele><time>2026-04-04T13:56:59Z</time></trkpt><trkpt lat="41.27741623199885" lon="13.960421270549778"><ele>559.5</ele><time>2026-04-04T13:57:00Z</time></trkpt><trkpt lat="41.277493838694575" lon="13.960307606467575"><ele>562.25</ele><time>2026-04-04T13:57:01Z</time></trkpt><trkpt lat="41.277538364076634" lon="13.960146053457095"><ele>565.0</ele><time>2026-04-04T13:57:02Z</time></trkpt><trkpt lat="41.277543124260845" lon="13.95996487932647"><ele>565.0</ele><time>2026-04-04T13:57:03Z</time></trkpt><trkpt lat="41.27754314076742" lon="13.959765072611711"><ele>565.0</ele><time>2026-04-04T13:57:04Z</time></trkpt><trkpt lat="41.27755574341484" lon="13.959574386936703"><ele>565.0</ele><time>2026-04-04T13:57:05Z</time></trkpt><trkpt lat="41.27758207344416" lon="13.959401792155269"><ele>565.0</ele><time>2026-04-04T13:57:06Z</time></trkpt><trkpt lat="41.27762045626146" lon="13.959254472154713"><ele>564.0</ele><time>2026-04-04T13:57:07Z</time></trkpt><trkpt lat="41.27767381662567" lon="13.95909602010579"><ele>563.0</ele><time>2026-04-04T13:57:08Z</time></trkpt><trkpt lat="41.277786278832814" lon="13.958977196907684"><ele>562.0</ele><time>2026-04-04T13:57:09Z</time></trkpt><trkpt lat="41.27790140376449" lon="13.958830609349931"><ele>561.0</ele><time>2026-04-04T13:57:10Z</time></trkpt><trkpt lat="41.278057049987936" lon="13.958729334997074"><ele>565.6666666666666</ele><time>2026-04-04T13:57:11Z</time></trkpt><trkpt lat="41.278221379897374" lon="13.958621747056029"><ele>570.3333333333333</ele><time>2026-04-04T13:57:12Z</time></trkpt><trkpt lat="41.278387141402206" lon="13.958489095151847"><ele>575.0</ele><time>2026-04-04T13:57:13Z</time></trkpt><trkpt lat="41.27857057496923" lon="13.95837980630102"><ele>574.6666666666666</ele><time>2026-04-04T13:57:14Z</time></trkpt><trkpt lat="41.2787513550432" lon="13.958263564524414"><ele>574.3333333333334</ele><time>2026-04-04T13:57:15Z</time></trkpt><trkpt lat="41.278919930881045" lon="13.958143386790274"><ele>574.0</ele><time>2026-04-04T13:57:16.001Z</time></trkpt><trkpt lat="41.27908221264299" lon="13.9580440604321"><ele>574.0</ele><time>2026-04-04T13:57:17.001Z</time></trkpt><trkpt lat="41.27922741545453" lon="13.95799002018981"><ele>574.0</ele><time>2026-04-04T13:57:18.001Z</time></trkpt><trkpt lat="41.27937887087923" lon="13.957966070737383"><ele>574.0</ele><time>2026-04-04T13:57:19.001Z</time></trkpt><trkpt lat="41.27952915963166" lon="13.95797941312459"><ele>574.0</ele><time>2026-04-04T13:57:20.001Z</time></trkpt><trkpt lat="41.27967698589588" lon="13.958016079409997"><ele>574.0</ele><time>2026-04-04T13:57:21.001Z</time></trkpt><trkpt lat="41.279821709797666" lon="13.9580828449878"><ele>574.0</ele><time>2026-04-04T13:57:22.001Z</time></trkpt><trkpt lat="41.27997352594459" lon="13.958185171937592"><ele>575.6666666666667</ele><time>2026-04-04T13:57:23.001Z</time></trkpt><trkpt lat="41.28012741592938" lon="13.958299272777378"><ele>577.3333333333334</ele><time>2026-04-04T13:57:24.001Z</time></trkpt><trkpt lat="41.2802926118895" lon="13.958415734462491"><ele>579.0</ele><time>2026-04-04T13:57:25.001Z</time></trkpt><trkpt lat="41.28047503081425" lon="13.958524323454256"><ele>581.0</ele><time>2026-04-04T13:57:26.001Z</time></trkpt><trkpt lat="41.28066018962553" lon="13.958635711004705"><ele>583.0</ele><time>2026-04-04T13:57:27.001Z</time></trkpt><trkpt lat="41.28082502795006" lon="13.958747070256903"><ele>585.0</ele><time>2026-04-04T13:57:28.001Z</time></trkpt><trkpt lat="41.280969618556604" lon="13.958843302512143"><ele>585.0</ele><time>2026-04-04T13:57:29.001Z</time></trkpt><trkpt lat="41.281096968447216" lon="13.958935591958637"><ele>585.0</ele><time>2026-04-04T13:57:30.001Z</time></trkpt><trkpt lat="41.28121069927626" lon="13.959046901913684"><ele>585.0</ele><time>2026-04-04T13:57:31.001Z</time></trkpt><trkpt lat="41.28131370125749" lon="13.959187942253013"><ele>585.0</ele><time>2026-04-04T13:57:32.001Z</time></trkpt><trkpt lat="41.2814139808846" lon="13.959350219474548"><ele>586.75</ele><time>2026-04-04T13:57:33.001Z</time></trkpt><trkpt lat="41.2815105924832" lon="13.959518035682756"><ele>588.5</ele><time>2026-04-04T13:57:34.001Z</time></trkpt><trkpt lat="41.2815911461469" lon="13.959677439099522"><ele>590.25</ele><time>2026-04-04T13:57:35.001Z</time></trkpt><trkpt lat="41.28165734865532" lon="13.95983808269938"><ele>592.0</ele><time>2026-04-04T13:57:36.001Z</time></trkpt><trkpt lat="41.28170279109099" lon="13.9600135351932"><ele>592.5</ele><time>2026-04-04T13:57:37.001Z</time></trkpt><trkpt lat="41.28174093713855" lon="13.960207064748742"><ele>593.0</ele><time>2026-04-04T13:57:38.001Z</time></trkpt><trkpt lat="41.281779819226074" lon="13.960385898053023"><ele>593.5</ele><time>2026-04-04T13:57:39.001Z</time></trkpt><trkpt lat="41.28180995140151" lon="13.960542683300995"><ele>594.0</ele><time>2026-04-04T13:57:40.001Z</time></trkpt><trkpt lat="41.28183933007004" lon="13.96071414096816"><ele>594.5</ele><time>2026-04-04T13:57:41.001Z</time></trkpt><trkpt lat="41.2818736892961" lon="13.960889206767837"><ele>595.0</ele><time>2026-04-04T13:57:42.001Z</time></trkpt><trkpt lat="41.28191001141942" lon="13.96106735593726"><ele>595.5</ele><time>2026-04-04T13:57:43.001Z</time></trkpt><trkpt lat="41.28195104463748" lon="13.96125931583213"><ele>596.0</ele><time>2026-04-04T13:57:44.001Z</time></trkpt><trkpt lat="41.28199471674306" lon="13.961461616869881"><ele>596.0</ele><time>2026-04-04T13:57:45.001Z</time></trkpt><trkpt lat="41.282034583701225" lon="13.961669966050508"><ele>596.0</ele><time>2026-04-04T13:57:46.001Z</time></trkpt><trkpt lat="41.28207536716515" lon="13.961877670203398"><ele>596.0</ele><time>2026-04-04T13:57:47.001Z</time></trkpt><trkpt lat="41.28212065054506" lon="13.96209315267827"><ele>596.6666666666666</ele><time>2026-04-04T13:57:48.001Z</time></trkpt><trkpt lat="41.28217180297471" lon="13.962306621013127"><ele>597.3333333333334</ele><time>2026-04-04T13:57:49.001Z</time></trkpt><trkpt lat="41.282217088135305" lon="13.96252977732078"><ele>598.0</ele><time>2026-04-04T13:57:50.001Z</time></trkpt><trkpt lat="41.28226343313269" lon="13.962751700067772"><ele>598.0</ele><time>2026-04-04T13:57:51.001Z</time></trkpt><trkpt lat="41.282305929466155" lon="13.962973602825704"><ele>598.0</ele><time>2026-04-04T13:57:52.001Z</time></trkpt><trkpt lat="41.28234483352958" lon="13.963212692884314"><ele>598.0</ele><time>2026-04-04T13:57:53.001Z</time></trkpt><trkpt lat="41.28239485865158" lon="13.963453329096854"><ele>598.0</ele><time>2026-04-04T13:57:54.001Z</time></trkpt><trkpt lat="41.28244292125751" lon="13.963691693850324"><ele>598.0</ele><time>2026-04-04T13:57:55.001Z</time></trkpt><trkpt lat="41.282488944540404" lon="13.96394894598242"><ele>598.0</ele><time>2026-04-04T13:57:56.001Z</time></trkpt><trkpt lat="41.2825401894912" lon="13.964208239682096"><ele>598.0</ele><time>2026-04-04T13:57:57.001Z</time></trkpt><trkpt lat="41.28259107062311" lon="13.964465503094354"><ele>598.0</ele><time>2026-04-04T13:57:58.001Z</time></trkpt><trkpt lat="41.282644472038726" lon="13.964724812304848"><ele>598.0</ele><time>2026-04-04T13:57:59.001Z</time></trkpt><trkpt lat="41.282696436611424" lon="13.96499064199157"><ele>597.3333333333334</ele><time>2026-04-04T13:58:00.001Z</time></trkpt><trkpt lat="41.282751879493205" lon="13.965256254543672"><ele>596.6666666666666</ele><time>2026-04-04T13:58:01.002Z</time></trkpt><trkpt lat="41.28280161963922" lon="13.96551499411576"><ele>596.0</ele><time>2026-04-04T13:58:02.002Z</time></trkpt><trkpt lat="41.28284697703993" lon="13.965757333522513"><ele>596.3333333333333</ele><time>2026-04-04T13:58:03.002Z</time></trkpt><trkpt lat="41.282897674460095" lon="13.965979995122632"><ele>596.6666666666666</ele><time>2026-04-04T13:58:04.002Z</time></trkpt><trkpt lat="41.28294280412155" lon="13.966188353902625"><ele>597.0</ele><time>2026-04-04T13:58:05.002Z</time></trkpt><trkpt lat="41.282979848262094" lon="13.966389079214256"><ele>597.0</ele><time>2026-04-04T13:58:06.002Z</time></trkpt><trkpt lat="41.283018406083876" lon="13.966566537708312"><ele>597.0</ele><time>2026-04-04T13:58:07.002Z</time></trkpt><trkpt lat="41.28305812393718" lon="13.966730362309344"><ele>597.0</ele><time>2026-04-04T13:58:08.002Z</time></trkpt><trkpt lat="41.28308582885535" lon="13.966886972253688"><ele>597.0</ele><time>2026-04-04T13:58:09.002Z</time></trkpt><trkpt lat="41.28309950514041" lon="13.967048872474349"><ele>597.25</ele><time>2026-04-04T13:58:10.002Z</time></trkpt><trkpt lat="41.28308944667109" lon="13.967224274436843"><ele>597.5</ele><time>2026-04-04T13:58:11.002Z</time></trkpt><trkpt lat="41.28306336478096" lon="13.967403115871987"><ele>597.75</ele><time>2026-04-04T13:58:12.002Z</time></trkpt><trkpt lat="41.283021773855204" lon="13.967588188333295"><ele>598.0</ele><time>2026-04-04T13:58:13.002Z</time></trkpt><trkpt lat="41.28296867907665" lon="13.967772019295353"><ele>599.0</ele><time>2026-04-04T13:58:14.002Z</time></trkpt><trkpt lat="41.28290038049963" lon="13.967954775918633"><ele>600.0</ele><time>2026-04-04T13:58:15.002Z</time></trkpt><trkpt lat="41.28282220136962" lon="13.9681395371089"><ele>601.0</ele><time>2026-04-04T13:58:16.002Z</time></trkpt><trkpt lat="41.28274113351904" lon="13.96831769791917"><ele>603.0</ele><time>2026-04-04T13:58:17.002Z</time></trkpt><trkpt lat="41.28265671469376" lon="13.968497070496719"><ele>605.0</ele><time>2026-04-04T13:58:18.002Z</time></trkpt><trkpt lat="41.282567287002536" lon="13.968682905185219"><ele>607.0</ele><time>2026-04-04T13:58:19.002Z</time></trkpt><trkpt lat="41.282471136223585" lon="13.968864508527489"><ele>607.0</ele><time>2026-04-04T13:58:20.002Z</time></trkpt><trkpt lat="41.28237151677042" lon="13.969037499088877"><ele>607.0</ele><time>2026-04-04T13:58:21.002Z</time></trkpt><trkpt lat="41.28227411566869" lon="13.969186547895543"><ele>607.0</ele><time>2026-04-04T13:58:22.002Z</time></trkpt><trkpt lat="41.28218007922398" lon="13.969324375289315"><ele>604.0</ele><time>2026-04-04T13:58:23.002Z</time></trkpt><trkpt lat="41.28209883010276" lon="13.969484216244211"><ele>601.0</ele><time>2026-04-04T13:58:24.002Z</time></trkpt><trkpt lat="41.2820277426274" lon="13.969665081383544"><ele>598.0</ele><time>2026-04-04T13:58:25.002Z</time></trkpt><trkpt lat="41.281955949935856" lon="13.969847167167554"><ele>599.3333333333334</ele><time>2026-04-04T13:58:26.002Z</time></trkpt><trkpt lat="41.281880050911845" lon="13.97003895800414"><ele>600.6666666666666</ele><time>2026-04-04T13:58:27.002Z</time></trkpt><trkpt lat="41.28181280418992" lon="13.970236555285952"><ele>602.0</ele><time>2026-04-04T13:58:28.002Z</time></trkpt><trkpt lat="41.28174999637007" lon="13.970441809666928"><ele>602.0</ele><time>2026-04-04T13:58:29.002Z</time></trkpt><trkpt lat="41.28169682895644" lon="13.970651650881729"><ele>602.0</ele><time>2026-04-04T13:58:30.002Z</time></trkpt><trkpt lat="41.28167051265452" lon="13.970869827694345"><ele>602.0</ele><time>2026-04-04T13:58:31.002Z</time></trkpt><trkpt lat="41.2816614719047" lon="13.97109223886731"><ele>601.3333333333333</ele><time>2026-04-04T13:58:32.002Z</time></trkpt><trkpt lat="41.28167299014341" lon="13.971317218556845"><ele>600.6666666666666</ele><time>2026-04-04T13:58:33.002Z</time></trkpt><trkpt lat="41.28171173957511" lon="13.97153054296227"><ele>600.0</ele><time>2026-04-04T13:58:34.002Z</time></trkpt><trkpt lat="41.281764352489404" lon="13.971750502574716"><ele>598.0</ele><time>2026-04-04T13:58:35.002Z</time></trkpt><trkpt lat="41.28184211324828" lon="13.971956489051996"><ele>596.0</ele><time>2026-04-04T13:58:36.002Z</time></trkpt><trkpt lat="41.281938168716984" lon="13.972147867183242"><ele>594.0</ele><time>2026-04-04T13:58:37.002Z</time></trkpt><trkpt lat="41.28203281036603" lon="13.97232335576561"><ele>594.0</ele><time>2026-04-04T13:58:38.002Z</time></trkpt><trkpt lat="41.28212782824676" lon="13.972473622009023"><ele>594.0</ele><time>2026-04-04T13:58:39.002Z</time></trkpt><trkpt lat="41.2822444595269" lon="13.972607091389676"><ele>594.0</ele><time>2026-04-04T13:58:40.002Z</time></trkpt><trkpt lat="41.2823733022685" lon="13.972708534102741"><ele>593.5</ele><time>2026-04-04T13:58:41.002Z</time></trkpt><trkpt lat="41.28251505055487" lon="13.972800088002549"><ele>593.0</ele><time>2026-04-04T13:58:42.002Z</time></trkpt><trkpt lat="41.28264803000411" lon="13.972880829908464"><ele>592.5</ele><time>2026-04-04T13:58:43.002Z</time></trkpt><trkpt lat="41.282778115286824" lon="13.972934081365858"><ele>592.0</ele><time>2026-04-04T13:58:44.002Z</time></trkpt><trkpt lat="41.282907145076166" lon="13.973002333409282"><ele>592.0</ele><time>2026-04-04T13:58:45.002Z</time></trkpt><trkpt lat="41.28305137967855" lon="13.973034182619164"><ele>592.0</ele><time>2026-04-04T13:58:46.002Z</time></trkpt><trkpt lat="41.28319850307512" lon="13.97305236706879"><ele>592.0</ele><time>2026-04-04T13:58:47Z</time></trkpt><trkpt lat="41.283330930337755" lon="13.973065542745625"><ele>592.0</ele><time>2026-04-04T13:58:48Z</time></trkpt><trkpt lat="41.283470905188814" lon="13.973076546106848"><ele>593.75</ele><time>2026-04-04T13:58:49Z</time></trkpt><trkpt lat="41.283607565917514" lon="13.973084941467997"><ele>595.5</ele><time>2026-04-04T13:58:50Z</time></trkpt><trkpt lat="41.283745883677064" lon="13.97310852873393"><ele>597.25</ele><time>2026-04-04T13:58:51Z</time></trkpt><trkpt lat="41.28387894438206" lon="13.973147001066396"><ele>599.0</ele><time>2026-04-04T13:58:52Z</time></trkpt><trkpt lat="41.28400665643284" lon="13.973207557310007"><ele>598.75</ele><time>2026-04-04T13:58:53Z</time></trkpt><trkpt lat="41.28413334806271" lon="13.97328410461576"><ele>598.5</ele><time>2026-04-04T13:58:54Z</time></trkpt><trkpt lat="41.28424480212469" lon="13.97336733685724"><ele>598.25</ele><time>2026-04-04T13:58:55Z</time></trkpt><trkpt lat="41.28435652648107" lon="13.973473512213591"><ele>598.0</ele><time>2026-04-04T13:58:56Z</time></trkpt><trkpt lat="41.284461441294205" lon="13.973594029250993"><ele>598.0</ele><time>2026-04-04T13:58:57Z</time></trkpt><trkpt lat="41.28456363424952" lon="13.97372776097995"><ele>598.0</ele><time>2026-04-04T13:58:58Z</time></trkpt><trkpt lat="41.2846592810671" lon="13.97386560985122"><ele>598.0</ele><time>2026-04-04T13:58:59Z</time></trkpt><trkpt lat="41.28475730583308" lon="13.973999377279751"><ele>598.0</ele><time>2026-04-04T13:59:00Z</time></trkpt><trkpt lat="41.284856374090495" lon="13.974142619928314"><ele>598.25</ele><time>2026-04-04T13:59:01Z</time></trkpt><trkpt lat="41.284949522629645" lon="13.974274744727435"><ele>598.5</ele><time>2026-04-04T13:59:02Z</time></trkpt><trkpt lat="41.28504130912159" lon="13.97442375361039"><ele>598.75</ele><time>2026-04-04T13:59:03Z</time></trkpt><trkpt lat="41.28512761937942" lon="13.974580878762962"><ele>599.0</ele><time>2026-04-04T13:59:04Z</time></trkpt><trkpt lat="41.28521138188587" lon="13.97472070573818"><ele>599.0</ele><time>2026-04-04T13:59:05Z</time></trkpt><trkpt lat="41.285288645349716" lon="13.974881069350253"><ele>599.0</ele><time>2026-04-04T13:59:06Z</time></trkpt><trkpt lat="41.28535084283046" lon="13.975032610222755"><ele>599.0</ele><time>2026-04-04T13:59:07Z</time></trkpt><trkpt lat="41.285419451747245" lon="13.975208441532315"><ele>599.0</ele><time>2026-04-04T13:59:08Z</time></trkpt><trkpt lat="41.28548553499002" lon="13.975365802550233"><ele>599.2</ele><time>2026-04-04T13:59:09Z</time></trkpt><trkpt lat="41.285543103035195" lon="13.97552957831844"><ele>599.4</ele><time>2026-04-04T13:59:10Z</time></trkpt><trkpt lat="41.285595411779326" lon="13.975673589212377"><ele>599.6</ele><time>2026-04-04T13:59:11Z</time></trkpt><trkpt lat="41.285640960050515" lon="13.975792744708125"><ele>599.8</ele><time>2026-04-04T13:59:12Z</time></trkpt><trkpt lat="41.285680304296676" lon="13.975900955664752"><ele>600.0</ele><time>2026-04-04T13:59:13Z</time></trkpt><trkpt lat="41.28570009103451" lon="13.976028447828613"><ele>600.0</ele><time>2026-04-04T13:59:14Z</time></trkpt><trkpt lat="41.285651579072066" lon="13.976174178602184"><ele>600.0</ele><time>2026-04-04T13:59:16Z</time></trkpt><trkpt lat="41.28559515279552" lon="13.976236513130843"><ele>600.0</ele><time>2026-04-04T13:59:17.001Z</time></trkpt><trkpt lat="41.28552882342827" lon="13.976301732201241"><ele>600.0</ele><time>2026-04-04T13:59:18.001Z</time></trkpt><trkpt lat="41.285463061162794" lon="13.976366012520248"><ele>600.0</ele><time>2026-04-04T13:59:19.001Z</time></trkpt><trkpt lat="41.28539485488913" lon="13.976448303012583"><ele>600.0</ele><time>2026-04-04T13:59:20.001Z</time></trkpt><trkpt lat="41.285317685624314" lon="13.976526731147372"><ele>598.6</ele><time>2026-04-04T13:59:21.001Z</time></trkpt><trkpt lat="41.28522076862525" lon="13.97662540714305"><ele>597.2</ele><time>2026-04-04T13:59:22.001Z</time></trkpt><trkpt lat="41.285145630406646" lon="13.976711964206789"><ele>595.8</ele><time>2026-04-04T13:59:23.001Z</time></trkpt><trkpt lat="41.28507199054774" lon="13.976783496304277"><ele>594.4</ele><time>2026-04-04T13:59:24.001Z</time></trkpt><trkpt lat="41.2850138308205" lon="13.976853469072525"><ele>593.0</ele><time>2026-04-04T13:59:25.001Z</time></trkpt><trkpt lat="41.284957894370706" lon="13.976916090087935"><ele>592.6666666666666</ele><time>2026-04-04T13:59:26.001Z</time></trkpt><trkpt lat="41.28488290367431" lon="13.976994100785252"><ele>592.3333333333333</ele><time>2026-04-04T13:59:28.001Z</time></trkpt><trkpt lat="41.28483652811661" lon="13.977053724856667"><ele>592.0</ele><time>2026-04-04T13:59:35.001Z</time></trkpt><trkpt lat="41.284822763088464" lon="13.977158963577665"><ele>591.6666666666666</ele><time>2026-04-04T14:01:27.001Z</time></trkpt><trkpt lat="41.28474521957421" lon="13.977232355101131"><ele>591.3333333333334</ele><time>2026-04-04T14:01:29.001Z</time></trkpt><trkpt lat="41.284667801584845" lon="13.977296679505368"><ele>591.0</ele><time>2026-04-04T14:01:31.001Z</time></trkpt><trkpt lat="41.28471747508339" lon="13.977187241926872"><ele>591.0</ele><time>2026-04-04T14:01:34.001Z</time></trkpt><trkpt lat="41.28479002780366" lon="13.977099696922267"><ele>591.0</ele><time>2026-04-04T14:01:48.001Z</time></trkpt><trkpt lat="41.28473975692708" lon="13.977190389344722"><ele>591.0</ele><time>2026-04-04T14:01:52.001Z</time></trkpt><trkpt lat="41.284687861922876" lon="13.977274882428866"><ele>591.0</ele><time>2026-04-04T14:01:54.001Z</time></trkpt><trkpt lat="41.284597435514655" lon="13.977318399064883"><ele>591.0</ele><time>2026-04-04T14:01:56.001Z</time></trkpt><trkpt lat="41.28443770028735" lon="13.977200958593757"><ele>590.4</ele><time>2026-04-04T14:01:59.001Z</time></trkpt><trkpt lat="41.284325273515634" lon="13.977099869609777"><ele>589.8</ele><time>2026-04-04T14:02:01.001Z</time></trkpt><trkpt lat="41.28425036726179" lon="13.977063274212737"><ele>589.1999999999999</ele><time>2026-04-04T14:02:02.001Z</time></trkpt><trkpt lat="41.28416679025069" lon="13.977022166445908"><ele>588.6</ele><time>2026-04-04T14:02:03.001Z</time></trkpt><trkpt lat="41.284086316918355" lon="13.976950679472168"><ele>588.0</ele><time>2026-04-04T14:02:04.001Z</time></trkpt><trkpt lat="41.2839960115649" lon="13.976893760601854"><ele>587.8</ele><time>2026-04-04T14:02:05.001Z</time></trkpt><trkpt lat="41.28390176483915" lon="13.976834357463078"><ele>587.5999999999999</ele><time>2026-04-04T14:02:06.001Z</time></trkpt><trkpt lat="41.283821205809915" lon="13.976785163990312"><ele>587.4000000000001</ele><time>2026-04-04T14:02:07.001Z</time></trkpt><trkpt lat="41.283725818416464" lon="13.9767281228842"><ele>587.2</ele><time>2026-04-04T14:02:08.001Z</time></trkpt><trkpt lat="41.28363084024386" lon="13.976671326402972"><ele>587.0</ele><time>2026-04-04T14:02:09.001Z</time></trkpt><trkpt lat="41.28352108570637" lon="13.976632472790325"><ele>587.0</ele><time>2026-04-04T14:02:10.001Z</time></trkpt><trkpt lat="41.28342680600311" lon="13.976583669798949"><ele>587.0</ele><time>2026-04-04T14:02:11.001Z</time></trkpt><trkpt lat="41.283305823408654" lon="13.976527540260976"><ele>587.0</ele><time>2026-04-04T14:02:12.002Z</time></trkpt><trkpt lat="41.283164672394726" lon="13.976477397300014"><ele>587.0</ele><time>2026-04-04T14:02:13.002Z</time></trkpt><trkpt lat="41.28300980638099" lon="13.97643103789673"><ele>587.0</ele><time>2026-04-04T14:02:14.002Z</time></trkpt><trkpt lat="41.28285638742336" lon="13.976378802857441"><ele>587.0</ele><time>2026-04-04T14:02:15.002Z</time></trkpt><trkpt lat="41.28269223432089" lon="13.976341530934395"><ele>587.0</ele><time>2026-04-04T14:02:16.002Z</time></trkpt><trkpt lat="41.2825019254067" lon="13.97633069844913"><ele>587.0</ele><time>2026-04-04T14:02:17.002Z</time></trkpt><trkpt lat="41.282312022153626" lon="13.976320659859459"><ele>587.0</ele><time>2026-04-04T14:02:18.002Z</time></trkpt><trkpt lat="41.282120591308086" lon="13.97630057745097"><ele>587.0</ele><time>2026-04-04T14:02:19.002Z</time></trkpt><trkpt lat="41.28194505805906" lon="13.976306055651497"><ele>587.3333333333333</ele><time>2026-04-04T14:02:20.002Z</time></trkpt><trkpt lat="41.28179915306573" lon="13.976298175651495"><ele>587.6666666666666</ele><time>2026-04-04T14:02:21.002Z</time></trkpt><trkpt lat="41.28163400036265" lon="13.976274780455904"><ele>588.0</ele><time>2026-04-04T14:02:22.002Z</time></trkpt><trkpt lat="41.2814722790209" lon="13.976257218302154"><ele>587.75</ele><time>2026-04-04T14:02:23.002Z</time></trkpt><trkpt lat="41.28131587531703" lon="13.976242493527643"><ele>587.5</ele><time>2026-04-04T14:02:24.002Z</time></trkpt><trkpt lat="41.28115970435091" lon="13.976211048084874"><ele>587.25</ele><time>2026-04-04T14:02:25.002Z</time></trkpt><trkpt lat="41.28104262197075" lon="13.976194907548619"><ele>587.0</ele><time>2026-04-04T14:02:26.002Z</time></trkpt><trkpt lat="41.280913220668104" lon="13.976153422944718"><ele>587.0</ele><time>2026-04-04T14:02:27.002Z</time></trkpt><trkpt lat="41.28080420545548" lon="13.97607178936054"><ele>587.0</ele><time>2026-04-04T14:02:28.002Z</time></trkpt><trkpt lat="41.28070126363126" lon="13.975978774514218"><ele>587.0</ele><time>2026-04-04T14:02:29.002Z</time></trkpt><trkpt lat="41.28059659586791" lon="13.975860623015887"><ele>587.0</ele><time>2026-04-04T14:02:30.002Z</time></trkpt><trkpt lat="41.28048921094862" lon="13.9757231216278"><ele>587.0</ele><time>2026-04-04T14:02:31.002Z</time></trkpt><trkpt lat="41.280360555372724" lon="13.975572499286812"><ele>587.0</ele><time>2026-04-04T14:02:32.002Z</time></trkpt><trkpt lat="41.28023497397137" lon="13.975401962752198"><ele>587.0</ele><time>2026-04-04T14:02:33.002Z</time></trkpt><trkpt lat="41.28011708732739" lon="13.975231002174855"><ele>587.0</ele><time>2026-04-04T14:02:34.002Z</time></trkpt><trkpt lat="41.279993650750114" lon="13.97504154944661"><ele>587.0</ele><time>2026-04-04T14:02:35.002Z</time></trkpt><trkpt lat="41.27987476867606" lon="13.9748465277079"><ele>587.0</ele><time>2026-04-04T14:02:36.002Z</time></trkpt><trkpt lat="41.27976120781003" lon="13.974651982424772"><ele>586.3333333333333</ele><time>2026-04-04T14:02:37.002Z</time></trkpt><trkpt lat="41.279643583321736" lon="13.974447895494711"><ele>585.6666666666666</ele><time>2026-04-04T14:02:38.002Z</time></trkpt><trkpt lat="41.27952919516821" lon="13.974256340627678"><ele>585.0</ele><time>2026-04-04T14:02:39.002Z</time></trkpt><trkpt lat="41.27939816329502" lon="13.974045201633114"><ele>584.3333333333334</ele><time>2026-04-04T14:02:40.002Z</time></trkpt><trkpt lat="41.2792712542775" lon="13.97384524551627"><ele>583.6666666666667</ele><time>2026-04-04T14:02:41.002Z</time></trkpt><trkpt lat="41.27914837499033" lon="13.973657892768541"><ele>583.0</ele><time>2026-04-04T14:02:42.002Z</time></trkpt><trkpt lat="41.279020270757414" lon="13.973463546373953"><ele>583.0</ele><time>2026-04-04T14:02:43.002Z</time></trkpt><trkpt lat="41.27888988795247" lon="13.973270426007387"><ele>583.0</ele><time>2026-04-04T14:02:44.002Z</time></trkpt><trkpt lat="41.27876516768374" lon="13.97307420735881"><ele>583.0</ele><time>2026-04-04T14:02:45.002Z</time></trkpt><trkpt lat="41.27864442351405" lon="13.972931235208204"><ele>583.0</ele><time>2026-04-04T14:02:46.002Z</time></trkpt><trkpt lat="41.27850350120866" lon="13.972807593057796"><ele>583.0</ele><time>2026-04-04T14:02:47.002Z</time></trkpt><trkpt lat="41.27835777634377" lon="13.972684622886076"><ele>583.0</ele><time>2026-04-04T14:02:48.002Z</time></trkpt><trkpt lat="41.27820028355608" lon="13.972583203904712"><ele>584.0</ele><time>2026-04-04T14:02:49.002Z</time></trkpt><trkpt lat="41.278043001448275" lon="13.972495181988373"><ele>585.0</ele><time>2026-04-04T14:02:50.002Z</time></trkpt><trkpt lat="41.27788406484279" lon="13.972372466322975"><ele>586.0</ele><time>2026-04-04T14:02:51.002Z</time></trkpt><trkpt lat="41.27773994178706" lon="13.97221844966913"><ele>586.0</ele><time>2026-04-04T14:02:52.002Z</time></trkpt><trkpt lat="41.27759992357762" lon="13.972065250463741"><ele>586.0</ele><time>2026-04-04T14:02:53.002Z</time></trkpt><trkpt lat="41.27745812273953" lon="13.97189611879485"><ele>586.0</ele><time>2026-04-04T14:02:54.002Z</time></trkpt><trkpt lat="41.27731741380652" lon="13.97173080023705"><ele>587.3333333333334</ele><time>2026-04-04T14:02:55.002Z</time></trkpt><trkpt lat="41.277157998112145" lon="13.971560974419848"><ele>588.6666666666666</ele><time>2026-04-04T14:02:56.002Z</time></trkpt><trkpt lat="41.27700043336345" lon="13.971383241372724"><ele>590.0</ele><time>2026-04-04T14:02:57.002Z</time></trkpt><trkpt lat="41.27684607549524" lon="13.971205990288102"><ele>590.0</ele><time>2026-04-04T14:02:58.002Z</time></trkpt><trkpt lat="41.2766843974574" lon="13.971032418337055"><ele>590.0</ele><time>2026-04-04T14:02:59Z</time></trkpt><trkpt lat="41.27650531497008" lon="13.970846192751102"><ele>590.0</ele><time>2026-04-04T14:03:00Z</time></trkpt><trkpt lat="41.276346858529635" lon="13.970660767645033"><ele>589.0</ele><time>2026-04-04T14:03:01Z</time></trkpt><trkpt lat="41.27618018696619" lon="13.970463044093306"><ele>588.0</ele><time>2026-04-04T14:03:02Z</time></trkpt><trkpt lat="41.276018476734166" lon="13.97026050105329"><ele>587.0</ele><time>2026-04-04T14:03:03Z</time></trkpt><trkpt lat="41.27582677732028" lon="13.970043888247968"><ele>587.0</ele><time>2026-04-04T14:03:04Z</time></trkpt><trkpt lat="41.2756636526166" lon="13.969844301155595"><ele>587.0</ele><time>2026-04-04T14:03:05Z</time></trkpt><trkpt lat="41.27549326246686" lon="13.969649745818336"><ele>587.0</ele><time>2026-04-04T14:03:06Z</time></trkpt><trkpt lat="41.27534477747187" lon="13.969490661867862"><ele>587.3333333333333</ele><time>2026-04-04T14:03:07Z</time></trkpt><trkpt lat="41.27518123752943" lon="13.969326034482494"><ele>587.6666666666666</ele><time>2026-04-04T14:03:08Z</time></trkpt><trkpt lat="41.27502774614589" lon="13.969174616467257"><ele>588.0</ele><time>2026-04-04T14:03:09Z</time></trkpt><trkpt lat="41.274873070155664" lon="13.969040892810165"><ele>587.0</ele><time>2026-04-04T14:03:10Z</time></trkpt><trkpt lat="41.27469648932778" lon="13.968920025742484"><ele>586.0</ele><time>2026-04-04T14:03:11Z</time></trkpt><trkpt lat="41.27452001452594" lon="13.968811175841214"><ele>585.0</ele><time>2026-04-04T14:03:12Z</time></trkpt><trkpt lat="41.27433847862204" lon="13.968693864212497"><ele>585.0</ele><time>2026-04-04T14:03:13Z</time></trkpt><trkpt lat="41.27415865125634" lon="13.96857157928737"><ele>585.0</ele><time>2026-04-04T14:03:14Z</time></trkpt><trkpt lat="41.27398628244781" lon="13.968454740172035"><ele>585.0</ele><time>2026-04-04T14:03:15Z</time></trkpt><trkpt lat="41.27380179643935" lon="13.968337182233718"><ele>588.3333333333334</ele><time>2026-04-04T14:03:16Z</time></trkpt><trkpt lat="41.27362728821644" lon="13.968221206266731"><ele>591.6666666666667</ele><time>2026-04-04T14:03:17Z</time></trkpt><trkpt lat="41.27345375784604" lon="13.968138776769239"><ele>595.0</ele><time>2026-04-04T14:03:18Z</time></trkpt><trkpt lat="41.27330104528723" lon="13.968073661305207"><ele>595.0</ele><time>2026-04-04T14:03:19Z</time></trkpt><trkpt lat="41.273141687846305" lon="13.968035032852072"><ele>595.0</ele><time>2026-04-04T14:03:20Z</time></trkpt><trkpt lat="41.273001798241445" lon="13.968039153807371"><ele>595.0</ele><time>2026-04-04T14:03:21Z</time></trkpt><trkpt lat="41.27288785143877" lon="13.968074729302286"><ele>595.0</ele><time>2026-04-04T14:03:22Z</time></trkpt><trkpt lat="41.27281608821983" lon="13.968154085984155"><ele>597.25</ele><time>2026-04-04T14:03:23Z</time></trkpt><trkpt lat="41.27275811607886" lon="13.968209529213583"><ele>599.5</ele><time>2026-04-04T14:03:24Z</time></trkpt><trkpt lat="41.27269472224285" lon="13.968337390514858"><ele>601.75</ele><time>2026-04-04T14:03:25Z</time></trkpt><trkpt lat="41.272671446570165" lon="13.968518695512188"><ele>604.0</ele><time>2026-04-04T14:03:26Z</time></trkpt><trkpt lat="41.27258534747632" lon="13.96874138998426"><ele>604.0</ele><time>2026-04-04T14:03:27Z</time></trkpt><trkpt lat="41.27250705215334" lon="13.968881433580133"><ele>604.0</ele><time>2026-04-04T14:03:28Z</time></trkpt><trkpt lat="41.272356910989345" lon="13.969101447108457"><ele>604.0</ele><time>2026-04-04T14:03:29Z</time></trkpt><trkpt lat="41.27224269960329" lon="13.969270722311938"><ele>606.5</ele><time>2026-04-04T14:03:30Z</time></trkpt><trkpt lat="41.27212569749497" lon="13.969441318485048"><ele>609.0</ele><time>2026-04-04T14:03:31Z</time></trkpt><trkpt lat="41.27202481157259" lon="13.969599878237023"><ele>611.5</ele><time>2026-04-04T14:03:32Z</time></trkpt><trkpt lat="41.27195300974493" lon="13.969722296920706"><ele>614.0</ele><time>2026-04-04T14:03:33.001Z</time></trkpt><trkpt lat="41.27188328840984" lon="13.96986900844556"><ele>609.5</ele><time>2026-04-04T14:03:34.001Z</time></trkpt><trkpt lat="41.27186262967929" lon="13.970064743961858"><ele>605.0</ele><time>2026-04-04T14:03:35.001Z</time></trkpt><trkpt lat="41.27184585853478" lon="13.970223996554912"><ele>600.5</ele><time>2026-04-04T14:03:36.001Z</time></trkpt><trkpt lat="41.27176826600798" lon="13.970364270777065"><ele>596.0</ele><time>2026-04-04T14:03:37.001Z</time></trkpt><trkpt lat="41.27171644398209" lon="13.970470992646023"><ele>596.0</ele><time>2026-04-04T14:03:38.001Z</time></trkpt><trkpt lat="41.27164401447854" lon="13.970464578564746"><ele>596.0</ele><time>2026-04-04T14:03:39.001Z</time></trkpt><trkpt lat="41.27152355983802" lon="13.97050553039048"><ele>596.0</ele><time>2026-04-04T14:03:40.001Z</time></trkpt><trkpt lat="41.27139960026599" lon="13.970598943719542"><ele>596.0</ele><time>2026-04-04T14:03:41.001Z</time></trkpt><trkpt lat="41.271344945697656" lon="13.97065359801652"><ele>596.0</ele><time>2026-04-04T14:03:42.001Z</time></trkpt><trkpt lat="41.271303666955205" lon="13.970722848337521"><ele>597.75</ele><time>2026-04-04T14:03:43.001Z</time></trkpt><trkpt lat="41.271217030941074" lon="13.970820456312532"><ele>599.5</ele><time>2026-04-04T14:03:44.001Z</time></trkpt><trkpt lat="41.2711726480069" lon="13.97102255036044"><ele>601.25</ele><time>2026-04-04T14:03:45.001Z</time></trkpt><trkpt lat="41.271118162297725" lon="13.971168084583677"><ele>603.0</ele><time>2026-04-04T14:03:46.001Z</time></trkpt><trkpt lat="41.27105825255888" lon="13.971305946484629"><ele>603.0</ele><time>2026-04-04T14:03:47.001Z</time></trkpt><trkpt lat="41.27101337931946" lon="13.971409207080933"><ele>603.0</ele><time>2026-04-04T14:03:48.001Z</time></trkpt><trkpt lat="41.27097378017216" lon="13.971518294582262"><ele>603.0</ele><time>2026-04-04T14:03:50.001Z</time></trkpt><trkpt lat="41.27093524372126" lon="13.971637547716767"><ele>603.0</ele><time>2026-04-04T14:03:51.001Z</time></trkpt><trkpt lat="41.2708722053403" lon="13.971792903097468"><ele>603.0</ele><time>2026-04-04T14:03:52.001Z</time></trkpt><trkpt lat="41.27081897040866" lon="13.971931519183679"><ele>600.5</ele><time>2026-04-04T14:03:53.001Z</time></trkpt><trkpt lat="41.270741164923834" lon="13.972060546164865"><ele>598.0</ele><time>2026-04-04T14:03:54.001Z</time></trkpt><trkpt lat="41.270636924999295" lon="13.972184377528539"><ele>595.5</ele><time>2026-04-04T14:03:55.001Z</time></trkpt><trkpt lat="41.270517800284075" lon="13.97226872058463"><ele>593.0</ele><time>2026-04-04T14:03:56.001Z</time></trkpt><trkpt lat="41.270388465627384" lon="13.972365489290077"><ele>593.0</ele><time>2026-04-04T14:03:57.001Z</time></trkpt><trkpt lat="41.270227593928226" lon="13.972484112186844"><ele>593.0</ele><time>2026-04-04T14:03:58.001Z</time></trkpt><trkpt lat="41.27008791781078" lon="13.972580767221714"><ele>593.0</ele><time>2026-04-04T14:03:59.001Z</time></trkpt><trkpt lat="41.26993683717153" lon="13.972696366980959"><ele>589.0</ele><time>2026-04-04T14:04:00.001Z</time></trkpt><trkpt lat="41.26977973880532" lon="13.972868460470638"><ele>585.0</ele><time>2026-04-04T14:04:01.001Z</time></trkpt><trkpt lat="41.26965371036728" lon="13.973066070177"><ele>581.0</ele><time>2026-04-04T14:04:02.001Z</time></trkpt><trkpt lat="41.26951086258941" lon="13.973238185079456"><ele>578.3333333333333</ele><time>2026-04-04T14:04:03.001Z</time></trkpt><trkpt lat="41.2693731947266" lon="13.973395469152578"><ele>575.6666666666666</ele><time>2026-04-04T14:04:04.001Z</time></trkpt><trkpt lat="41.26922021202552" lon="13.973551698791837"><ele>573.0</ele><time>2026-04-04T14:04:05.001Z</time></trkpt><trkpt lat="41.2690415060203" lon="13.973703690723283"><ele>574.6666666666666</ele><time>2026-04-04T14:04:06.001Z</time></trkpt><trkpt lat="41.26887654912195" lon="13.973837208748261"><ele>576.3333333333333</ele><time>2026-04-04T14:04:07.001Z</time></trkpt><trkpt lat="41.268739257162416" lon="13.974010426707581"><ele>578.0</ele><time>2026-04-04T14:04:08.001Z</time></trkpt><trkpt lat="41.26860058826853" lon="13.974196058562454"><ele>578.0</ele><time>2026-04-04T14:04:09.001Z</time></trkpt><trkpt lat="41.268461690444916" lon="13.974373146638705"><ele>578.0</ele><time>2026-04-04T14:04:10.001Z</time></trkpt><trkpt lat="41.268329311436965" lon="13.974542996115648"><ele>578.0</ele><time>2026-04-04T14:04:11.001Z</time></trkpt><trkpt lat="41.26819736220623" lon="13.97472785147272"><ele>578.0</ele><time>2026-04-04T14:04:12.001Z</time></trkpt><trkpt lat="41.268062169095295" lon="13.974910840443567"><ele>578.0</ele><time>2026-04-04T14:04:13.001Z</time></trkpt><trkpt lat="41.26792705941168" lon="13.97511286776924"><ele>578.0</ele><time>2026-04-04T14:04:14.001Z</time></trkpt><trkpt lat="41.267786560879806" lon="13.975295368563488"><ele>578.0</ele><time>2026-04-04T14:04:15.001Z</time></trkpt><trkpt lat="41.26766041877388" lon="13.975476027387943"><ele>578.0</ele><time>2026-04-04T14:04:16.001Z</time></trkpt><trkpt lat="41.267535218655496" lon="13.975660473775358"><ele>578.0</ele><time>2026-04-04T14:04:17.001Z</time></trkpt><trkpt lat="41.26741359989321" lon="13.97581949518122"><ele>577.3333333333333</ele><time>2026-04-04T14:04:18.001Z</time></trkpt><trkpt lat="41.26727177121494" lon="13.975933614435071"><ele>576.6666666666666</ele><time>2026-04-04T14:04:19.001Z</time></trkpt><trkpt lat="41.26711656171328" lon="13.97604027738182"><ele>576.0</ele><time>2026-04-04T14:04:20.001Z</time></trkpt><trkpt lat="41.26694334893588" lon="13.976164742424897"><ele>576.0</ele><time>2026-04-04T14:04:21.001Z</time></trkpt><trkpt lat="41.26675723519484" lon="13.976260468217065"><ele>576.0</ele><time>2026-04-04T14:04:22.001Z</time></trkpt><trkpt lat="41.26659086479711" lon="13.976378528732635"><ele>576.0</ele><time>2026-04-04T14:04:23.001Z</time></trkpt><trkpt lat="41.26643928927024" lon="13.97648860817367"><ele>573.5</ele><time>2026-04-04T14:04:24.001Z</time></trkpt><trkpt lat="41.26630967690064" lon="13.97658450937253"><ele>571.0</ele><time>2026-04-04T14:04:25.001Z</time></trkpt><trkpt lat="41.26618437382934" lon="13.976653132232215"><ele>568.5</ele><time>2026-04-04T14:04:26.001Z</time></trkpt><trkpt lat="41.26608704123042" lon="13.976737732084253"><ele>566.0</ele><time>2026-04-04T14:04:27.001Z</time></trkpt><trkpt lat="41.26600992117687" lon="13.976872779427548"><ele>566.0</ele><time>2026-04-04T14:04:28.002Z</time></trkpt><trkpt lat="41.26593117632369" lon="13.97701517002373"><ele>566.0</ele><time>2026-04-04T14:04:29.002Z</time></trkpt><trkpt lat="41.26588259968503" lon="13.977204308629897"><ele>566.0</ele><time>2026-04-04T14:04:30.002Z</time></trkpt><trkpt lat="41.26583942917716" lon="13.977427323889849"><ele>565.75</ele><time>2026-04-04T14:04:31.002Z</time></trkpt><trkpt lat="41.26577974042675" lon="13.977637119391494"><ele>565.5</ele><time>2026-04-04T14:04:32.002Z</time></trkpt><trkpt lat="41.26572841081859" lon="13.977805427497852"><ele>565.25</ele><time>2026-04-04T14:04:33.002Z</time></trkpt><trkpt lat="41.26572954394707" lon="13.97797370052033"><ele>565.0</ele><time>2026-04-04T14:04:34.002Z</time></trkpt><trkpt lat="41.265736701539375" lon="13.97815368672595"><ele>565.0</ele><time>2026-04-04T14:04:35.002Z</time></trkpt><trkpt lat="41.265771396205075" lon="13.978336136397209"><ele>565.0</ele><time>2026-04-04T14:04:36.002Z</time></trkpt><trkpt lat="41.26580956774536" lon="13.978525538505043"><ele>565.0</ele><time>2026-04-04T14:04:37.002Z</time></trkpt><trkpt lat="41.26585775066998" lon="13.97872648741929"><ele>565.0</ele><time>2026-04-04T14:04:38.002Z</time></trkpt><trkpt lat="41.26588527465833" lon="13.978920182774191"><ele>564.0</ele><time>2026-04-04T14:04:39.002Z</time></trkpt><trkpt lat="41.26589244365139" lon="13.97909604478725"><ele>563.0</ele><time>2026-04-04T14:04:40.002Z</time></trkpt><trkpt lat="41.26586374561112" lon="13.979278139878163"><ele>562.0</ele><time>2026-04-04T14:04:41.002Z</time></trkpt><trkpt lat="41.26582286925277" lon="13.979471300973103"><ele>561.0</ele><time>2026-04-04T14:04:42.002Z</time></trkpt><trkpt lat="41.265781913860934" lon="13.979660561124623"><ele>561.0</ele><time>2026-04-04T14:04:43.002Z</time></trkpt><trkpt lat="41.26573913550628" lon="13.979834753898379"><ele>561.0</ele><time>2026-04-04T14:04:44.002Z</time></trkpt><trkpt lat="41.265696284069215" lon="13.979973144947914"><ele>561.0</ele><time>2026-04-04T14:04:45.002Z</time></trkpt><trkpt lat="41.26564157121163" lon="13.980078033720853"><ele>561.0</ele><time>2026-04-04T14:04:46.002Z</time></trkpt><trkpt lat="41.26557538260168" lon="13.980161744660231"><ele>561.0</ele><time>2026-04-04T14:04:47.002Z</time></trkpt><trkpt lat="41.26547209937227" lon="13.980188252635196"><ele>562.3333333333334</ele><time>2026-04-04T14:04:48.002Z</time></trkpt><trkpt lat="41.265334692203716" lon="13.980205843472422"><ele>563.6666666666667</ele><time>2026-04-04T14:04:49.002Z</time></trkpt><trkpt lat="41.265192221270766" lon="13.980208152921575"><ele>565.0</ele><time>2026-04-04T14:04:50.002Z</time></trkpt><trkpt lat="41.26501020043736" lon="13.980216534103311"><ele>565.0</ele><time>2026-04-04T14:04:51.002Z</time></trkpt><trkpt lat="41.26486671597192" lon="13.980234371856977"><ele>565.0</ele><time>2026-04-04T14:04:52.002Z</time></trkpt><trkpt lat="41.264722297037714" lon="13.98026032317574"><ele>565.0</ele><time>2026-04-04T14:04:53.002Z</time></trkpt><trkpt lat="41.2645596118024" lon="13.980305330198934"><ele>560.0</ele><time>2026-04-04T14:04:54.002Z</time></trkpt><trkpt lat="41.26440480359123" lon="13.980380016648231"><ele>555.0</ele><time>2026-04-04T14:04:55.002Z</time></trkpt><trkpt lat="41.26423280946287" lon="13.980493351974697"><ele>550.0</ele><time>2026-04-04T14:04:56.002Z</time></trkpt><trkpt lat="41.264061176421" lon="13.980626543294353"><ele>546.0</ele><time>2026-04-04T14:04:57.002Z</time></trkpt><trkpt lat="41.26388018681929" lon="13.980768302897237"><ele>542.0</ele><time>2026-04-04T14:04:58.002Z</time></trkpt><trkpt lat="41.263716763670445" lon="13.9809418040737"><ele>538.0</ele><time>2026-04-04T14:04:59.002Z</time></trkpt><trkpt lat="41.263545932616246" lon="13.981082306495741"><ele>538.0</ele><time>2026-04-04T14:05:00.002Z</time></trkpt><trkpt lat="41.263399367140366" lon="13.9811983279531"><ele>538.0</ele><time>2026-04-04T14:05:01.002Z</time></trkpt><trkpt lat="41.26328044578839" lon="13.981280168035434"><ele>538.0</ele><time>2026-04-04T14:05:02.002Z</time></trkpt><trkpt lat="41.26317941923352" lon="13.981384479555546"><ele>538.0</ele><time>2026-04-04T14:05:03.002Z</time></trkpt><trkpt lat="41.26307605034088" lon="13.981445984125532"><ele>535.25</ele><time>2026-04-04T14:05:04.002Z</time></trkpt><trkpt lat="41.26298364559673" lon="13.981497813913386"><ele>532.5</ele><time>2026-04-04T14:05:05Z</time></trkpt><trkpt lat="41.26286123667415" lon="13.981514692891377"><ele>529.75</ele><time>2026-04-04T14:05:06Z</time></trkpt><trkpt lat="41.26270544741038" lon="13.981541743050013"><ele>527.0</ele><time>2026-04-04T14:05:07Z</time></trkpt><trkpt lat="41.26257675019905" lon="13.981525039304218"><ele>527.0</ele><time>2026-04-04T14:05:08Z</time></trkpt><trkpt lat="41.26244678214311" lon="13.98150512120101"><ele>527.0</ele><time>2026-04-04T14:05:09Z</time></trkpt><trkpt lat="41.26230879880315" lon="13.981456802615034"><ele>527.0</ele><time>2026-04-04T14:05:10Z</time></trkpt><trkpt lat="41.26217076614051" lon="13.981390969405824"><ele>527.0</ele><time>2026-04-04T14:05:11Z</time></trkpt><trkpt lat="41.26204160158669" lon="13.98131202029419"><ele>524.4</ele><time>2026-04-04T14:05:12Z</time></trkpt><trkpt lat="41.26192864285831" lon="13.9812506663395"><ele>521.8000000000001</ele><time>2026-04-04T14:05:13Z</time></trkpt><trkpt lat="41.261833344562085" lon="13.981185795575913"><ele>519.2</ele><time>2026-04-04T14:05:14Z</time></trkpt><trkpt lat="41.26174053314731" lon="13.981135631544301"><ele>516.6</ele><time>2026-04-04T14:05:15Z</time></trkpt><trkpt lat="41.26164419038434" lon="13.981160278228993"><ele>514.0</ele><time>2026-04-04T14:05:17Z</time></trkpt><trkpt lat="41.26160987913775" lon="13.981268636755495"><ele>514.0</ele><time>2026-04-04T14:05:18Z</time></trkpt><trkpt lat="41.26158494240655" lon="13.981346533764194"><ele>514.0</ele><time>2026-04-04T14:05:19Z</time></trkpt><trkpt lat="41.26158357862207" lon="13.981464872558366"><ele>514.0</ele><time>2026-04-04T14:05:20Z</time></trkpt><trkpt lat="41.2616228325088" lon="13.98156577395704"><ele>514.0</ele><time>2026-04-04T14:05:21Z</time></trkpt><trkpt lat="41.261738308011246" lon="13.981618369373717"><ele>514.0</ele><time>2026-04-04T14:05:22Z</time></trkpt><trkpt lat="41.26182526569348" lon="13.981705721131291"><ele>510.0</ele><time>2026-04-04T14:05:23Z</time></trkpt><trkpt lat="41.26192385156883" lon="13.981768621599873"><ele>506.0</ele><time>2026-04-04T14:05:24Z</time></trkpt><trkpt lat="41.26206095332394" lon="13.981906986996496"><ele>502.0</ele><time>2026-04-04T14:05:25Z</time></trkpt><trkpt lat="41.26216837971366" lon="13.982014703569282"><ele>498.0</ele><time>2026-04-04T14:05:26Z</time></trkpt><trkpt lat="41.262270394985414" lon="13.982080971721766"><ele>500.4</ele><time>2026-04-04T14:05:27Z</time></trkpt><trkpt lat="41.26235745077307" lon="13.98217307479845"><ele>502.79999999999995</ele><time>2026-04-04T14:05:28Z</time></trkpt><trkpt lat="41.26241712147363" lon="13.98229569684233"><ele>505.2</ele><time>2026-04-04T14:05:29Z</time></trkpt><trkpt lat="41.262446318217414" lon="13.9824221916205"><ele>507.6</ele><time>2026-04-04T14:05:30Z</time></trkpt><trkpt lat="41.262439807934875" lon="13.982557976615592"><ele>510.0</ele><time>2026-04-04T14:05:31Z</time></trkpt><trkpt lat="41.26241808648095" lon="13.982681596085907"><ele>510.0</ele><time>2026-04-04T14:05:32Z</time></trkpt><trkpt lat="41.2624119530763" lon="13.982801669913911"><ele>510.0</ele><time>2026-04-04T14:05:33Z</time></trkpt><trkpt lat="41.262405721407504" lon="13.982931190625408"><ele>510.0</ele><time>2026-04-04T14:05:34Z</time></trkpt><trkpt lat="41.26242046799534" lon="13.9830712438346"><ele>510.0</ele><time>2026-04-04T14:05:35.001Z</time></trkpt><trkpt lat="41.26248671589043" lon="13.983188303726811"><ele>510.0</ele><time>2026-04-04T14:05:36.001Z</time></trkpt><trkpt lat="41.2625587997577" lon="13.983319457150355"><ele>510.0</ele><time>2026-04-04T14:05:37.001Z</time></trkpt><trkpt lat="41.262605089572766" lon="13.983413237772199"><ele>510.0</ele><time>2026-04-04T14:05:38.001Z</time></trkpt><trkpt lat="41.26265240763079" lon="13.983525379047832"><ele>510.0</ele><time>2026-04-04T14:05:39.001Z</time></trkpt><trkpt lat="41.26268965927601" lon="13.983658153061898"><ele>510.0</ele><time>2026-04-04T14:05:40.001Z</time></trkpt><trkpt lat="41.262686368384855" lon="13.983745776352274"><ele>510.0</ele><time>2026-04-04T14:05:41.001Z</time></trkpt><trkpt lat="41.26263737078323" lon="13.983828097862935"><ele>510.0</ele><time>2026-04-04T14:05:42.001Z</time></trkpt><trkpt lat="41.26254874787702" lon="13.983884022446246"><ele>510.0</ele><time>2026-04-04T14:05:43.001Z</time></trkpt><trkpt lat="41.262439096902696" lon="13.983953858235262"><ele>510.0</ele><time>2026-04-04T14:05:44.001Z</time></trkpt><trkpt lat="41.26231884314599" lon="13.984019363064345"><ele>510.0</ele><time>2026-04-04T14:05:45.001Z</time></trkpt><trkpt lat="41.26218895246904" lon="13.98410251738561"><ele>510.0</ele><time>2026-04-04T14:05:46.001Z</time></trkpt><trkpt lat="41.26206249373253" lon="13.984182562564357"><ele>506.0</ele><time>2026-04-04T14:05:47.001Z</time></trkpt><trkpt lat="41.261946921521826" lon="13.984244853179472"><ele>502.0</ele><time>2026-04-04T14:05:48.001Z</time></trkpt><trkpt lat="41.26184947409083" lon="13.98430386129901"><ele>498.0</ele><time>2026-04-04T14:05:49.001Z</time></trkpt><trkpt lat="41.261754166064556" lon="13.984394236608447"><ele>494.0</ele><time>2026-04-04T14:05:50.001Z</time></trkpt><trkpt lat="41.26167179293553" lon="13.984518747207362"><ele>494.0</ele><time>2026-04-04T14:05:51.001Z</time></trkpt><trkpt lat="41.26161164377825" lon="13.984646468878005"><ele>494.0</ele><time>2026-04-04T14:05:52.001Z</time></trkpt><trkpt lat="41.26155945180327" lon="13.984740741397937"><ele>494.0</ele><time>2026-04-04T14:05:53.001Z</time></trkpt><trkpt lat="41.26150680923129" lon="13.984814469224414"><ele>494.0</ele><time>2026-04-04T14:05:54.001Z</time></trkpt><trkpt lat="41.261432060228735" lon="13.984872464919704"><ele>494.0</ele><time>2026-04-04T14:05:55.001Z</time></trkpt><trkpt lat="41.2613180659958" lon="13.984896541114674"><ele>492.0</ele><time>2026-04-04T14:05:56.001Z</time></trkpt><trkpt lat="41.26118330854125" lon="13.984913755604547"><ele>490.0</ele><time>2026-04-04T14:05:57.001Z</time></trkpt><trkpt lat="41.261032803132416" lon="13.984923141195598"><ele>488.0</ele><time>2026-04-04T14:05:58.001Z</time></trkpt><trkpt lat="41.260890412549315" lon="13.984928920968091"><ele>486.0</ele><time>2026-04-04T14:05:59.001Z</time></trkpt><trkpt lat="41.26073847875981" lon="13.984910288052125"><ele>484.0</ele><time>2026-04-04T14:06:00.001Z</time></trkpt><trkpt lat="41.260593374852036" lon="13.984878421672926"><ele>482.0</ele><time>2026-04-04T14:06:01.001Z</time></trkpt><trkpt lat="41.260453549720125" lon="13.984839352107652"><ele>480.0</ele><time>2026-04-04T14:06:02.001Z</time></trkpt><trkpt lat="41.26032346023096" lon="13.98481598274572"><ele>478.0</ele><time>2026-04-04T14:06:03.001Z</time></trkpt><trkpt lat="41.260191540735164" lon="13.984793202278645"><ele>478.0</ele><time>2026-04-04T14:06:04.001Z</time></trkpt><trkpt lat="41.26007463200629" lon="13.98477427265608"><ele>477.99999999999994</ele><time>2026-04-04T14:06:05.001Z</time></trkpt><trkpt lat="41.25996156406103" lon="13.984754209642874"><ele>477.99999999999994</ele><time>2026-04-04T14:06:06.001Z</time></trkpt><trkpt lat="41.259857818186234" lon="13.984704061382718"><ele>478.0</ele><time>2026-04-04T14:06:07.001Z</time></trkpt><trkpt lat="41.25975711927878" lon="13.984672799772992"><ele>478.0</ele><time>2026-04-04T14:06:08.001Z</time></trkpt><trkpt lat="41.259672898807736" lon="13.984641692887617"><ele>476.50000000000006</ele><time>2026-04-04T14:06:09.001Z</time></trkpt><trkpt lat="41.259594047177096" lon="13.984622126005688"><ele>475.0</ele><time>2026-04-04T14:06:10.001Z</time></trkpt><trkpt lat="41.25951284062846" lon="13.984577932331852"><ele>473.5</ele><time>2026-04-04T14:06:11.001Z</time></trkpt><trkpt lat="41.2594602838216" lon="13.9844755441259"><ele>472.0</ele><time>2026-04-04T14:06:13.001Z</time></trkpt><trkpt lat="41.259428420971105" lon="13.984365495876858"><ele>470.50000000000006</ele><time>2026-04-04T14:06:14.001Z</time></trkpt><trkpt lat="41.25947683939152" lon="13.984261086153197"><ele>469.0</ele><time>2026-04-04T14:06:15.001Z</time></trkpt><trkpt lat="41.259613209840595" lon="13.98427069257731"><ele>469.0</ele><time>2026-04-04T14:06:16.001Z</time></trkpt><trkpt lat="41.259715186406915" lon="13.984245643953951"><ele>469.0</ele><time>2026-04-04T14:06:17.001Z</time></trkpt><trkpt lat="41.259806995025606" lon="13.984217511369383"><ele>469.0</ele><time>2026-04-04T14:06:18.001Z</time></trkpt><trkpt lat="41.25992090654126" lon="13.98420198044968"><ele>469.0</ele><time>2026-04-04T14:06:19.001Z</time></trkpt><trkpt lat="41.2600284892708" lon="13.984180186575333"><ele>469.0</ele><time>2026-04-04T14:06:20.001Z</time></trkpt><trkpt lat="41.26012772776073" lon="13.98412458519647"><ele>470.75</ele><time>2026-04-04T14:06:21.001Z</time></trkpt><trkpt lat="41.260243692394155" lon="13.984034968217298"><ele>472.5</ele><time>2026-04-04T14:06:22.001Z</time></trkpt><trkpt lat="41.26035459105084" lon="13.983933783413267"><ele>474.25</ele><time>2026-04-04T14:06:23.001Z</time></trkpt><trkpt lat="41.26046730119437" lon="13.983835177785867"><ele>476.0</ele><time>2026-04-04T14:06:24.001Z</time></trkpt><trkpt lat="41.26056762215307" lon="13.983751203022699"><ele>475.6</ele><time>2026-04-04T14:06:25.001Z</time></trkpt><trkpt lat="41.260652783253455" lon="13.983670491820842"><ele>475.20000000000005</ele><time>2026-04-04T14:06:26.001Z</time></trkpt><trkpt lat="41.260720461518964" lon="13.98358465532892"><ele>474.79999999999995</ele><time>2026-04-04T14:06:27.001Z</time></trkpt><trkpt lat="41.26075673764696" lon="13.983477329415683"><ele>474.4</ele><time>2026-04-04T14:06:28.001Z</time></trkpt><trkpt lat="41.2607563290869" lon="13.983350270147492"><ele>474.0</ele><time>2026-04-04T14:06:29.001Z</time></trkpt><trkpt lat="41.26071129371819" lon="13.983225923664204"><ele>474.0</ele><time>2026-04-04T14:06:30.001Z</time></trkpt><trkpt lat="41.26063752382661" lon="13.983124323134023"><ele>474.0</ele><time>2026-04-04T14:06:31.001Z</time></trkpt><trkpt lat="41.260539943586515" lon="13.98305173049736"><ele>474.0</ele><time>2026-04-04T14:06:32.001Z</time></trkpt><trkpt lat="41.26041183039999" lon="13.982991671753409"><ele>474.0</ele><time>2026-04-04T14:06:33.002Z</time></trkpt><trkpt lat="41.26027995463793" lon="13.982909182728013"><ele>470.33333333333337</ele><time>2026-04-04T14:06:34.002Z</time></trkpt><trkpt lat="41.26013937884633" lon="13.98280970502251"><ele>466.6666666666667</ele><time>2026-04-04T14:06:35.002Z</time></trkpt><trkpt lat="41.25999595197205" lon="13.982713173094417"><ele>463.0</ele><time>2026-04-04T14:06:36.002Z</time></trkpt><trkpt lat="41.25985344144447" lon="13.982624661417839"><ele>462.0</ele><time>2026-04-04T14:06:37.002Z</time></trkpt><trkpt lat="41.25971671133125" lon="13.982528093736759"><ele>461.0</ele><time>2026-04-04T14:06:38.002Z</time></trkpt><trkpt lat="41.25959036288114" lon="13.982431847428472"><ele>460.0</ele><time>2026-04-04T14:06:39.002Z</time></trkpt><trkpt lat="41.25945316219651" lon="13.982353478422826"><ele>457.25</ele><time>2026-04-04T14:06:40.002Z</time></trkpt><trkpt lat="41.259337882293906" lon="13.982266197276783"><ele>454.5</ele><time>2026-04-04T14:06:41.002Z</time></trkpt><trkpt lat="41.259200781508476" lon="13.982156325395755"><ele>451.75</ele><time>2026-04-04T14:06:42.002Z</time></trkpt><trkpt lat="41.25908173994124" lon="13.982044727462451"><ele>449.0</ele><time>2026-04-04T14:06:43.002Z</time></trkpt><trkpt lat="41.25896410746612" lon="13.981907677465266"><ele>447.3333333333333</ele><time>2026-04-04T14:06:44.002Z</time></trkpt><trkpt lat="41.25885198994877" lon="13.981763452959388"><ele>445.66666666666663</ele><time>2026-04-04T14:06:45.002Z</time></trkpt><trkpt lat="41.258722902635746" lon="13.981630152706664"><ele>444.0</ele><time>2026-04-04T14:06:46.002Z</time></trkpt><trkpt lat="41.25859278444093" lon="13.981470519247669"><ele>442.33333333333337</ele><time>2026-04-04T14:06:47.002Z</time></trkpt><trkpt lat="41.25847514776962" lon="13.981318323758758"><ele>440.6666666666667</ele><time>2026-04-04T14:06:48.002Z</time></trkpt><trkpt lat="41.25833392469357" lon="13.981162159349516"><ele>439.0</ele><time>2026-04-04T14:06:49.002Z</time></trkpt><trkpt lat="41.25819171089626" lon="13.980988726785172"><ele>434.0</ele><time>2026-04-04T14:06:50.002Z</time></trkpt><trkpt lat="41.25803728069578" lon="13.980819987723834"><ele>429.0</ele><time>2026-04-04T14:06:51.002Z</time></trkpt><trkpt lat="41.25790465064045" lon="13.980663364090693"><ele>424.0</ele><time>2026-04-04T14:06:52.002Z</time></trkpt><trkpt lat="41.257765951142744" lon="13.980503040451273"><ele>424.0</ele><time>2026-04-04T14:06:53.002Z</time></trkpt><trkpt lat="41.25764436042744" lon="13.980357122271174"><ele>424.0</ele><time>2026-04-04T14:06:54.002Z</time></trkpt><trkpt lat="41.257530381205214" lon="13.980180822843504"><ele>424.0</ele><time>2026-04-04T14:06:55.002Z</time></trkpt><trkpt lat="41.25740639706539" lon="13.980017647320478"><ele>421.0</ele><time>2026-04-04T14:06:56.002Z</time></trkpt><trkpt lat="41.2572800210073" lon="13.979870186683137"><ele>418.0</ele><time>2026-04-04T14:06:57.002Z</time></trkpt><trkpt lat="41.25714833381314" lon="13.979700876335663"><ele>415.0</ele><time>2026-04-04T14:06:58.002Z</time></trkpt><trkpt lat="41.2570284126438" lon="13.979541590921427"><ele>415.0</ele><time>2026-04-04T14:06:59.002Z</time></trkpt><trkpt lat="41.25690770278997" lon="13.979379133864413"><ele>415.0</ele><time>2026-04-04T14:07:00.002Z</time></trkpt><trkpt lat="41.25680325830706" lon="13.979216822853486"><ele>415.0</ele><time>2026-04-04T14:07:01.002Z</time></trkpt><trkpt lat="41.256688400507876" lon="13.979066549018235"><ele>417.5</ele><time>2026-04-04T14:07:02.002Z</time></trkpt><trkpt lat="41.25658741076024" lon="13.978933669656206"><ele>420.0</ele><time>2026-04-04T14:07:03.002Z</time></trkpt><trkpt lat="41.25648286746597" lon="13.978813324124596"><ele>422.5</ele><time>2026-04-04T14:07:04.002Z</time></trkpt><trkpt lat="41.25639965883569" lon="13.978685574415278"><ele>425.0</ele><time>2026-04-04T14:07:05.002Z</time></trkpt><trkpt lat="41.25632650624726" lon="13.978549255477441"><ele>422.66666666666663</ele><time>2026-04-04T14:07:06.002Z</time></trkpt><trkpt lat="41.256279963324744" lon="13.978409604544725"><ele>420.3333333333333</ele><time>2026-04-04T14:07:07.002Z</time></trkpt><trkpt lat="41.25624253320625" lon="13.978295779869601"><ele>418.0</ele><time>2026-04-04T14:07:08.002Z</time></trkpt><trkpt lat="41.25623944749817" lon="13.978172854163484"><ele>415.66666666666663</ele><time>2026-04-04T14:07:09.002Z</time></trkpt><trkpt lat="41.25622726837332" lon="13.978079171642221"><ele>413.3333333333333</ele><time>2026-04-04T14:07:10.002Z</time></trkpt><trkpt lat="41.25620984532489" lon="13.977988878622023"><ele>411.0</ele><time>2026-04-04T14:07:11Z</time></trkpt><trkpt lat="41.25616890114409" lon="13.977896625884451"><ele>411.0</ele><time>2026-04-04T14:07:12Z</time></trkpt><trkpt lat="41.256105980395496" lon="13.977822497977437"><ele>411.0</ele><time>2026-04-04T14:07:13Z</time></trkpt><trkpt lat="41.256000012446734" lon="13.977743435598828"><ele>411.0</ele><time>2026-04-04T14:07:15Z</time></trkpt><trkpt lat="41.25593477453302" lon="13.977695692187261"><ele>411.0</ele><time>2026-04-04T14:07:16Z</time></trkpt><trkpt lat="41.25582495324175" lon="13.9776158092297"><ele>411.0</ele><time>2026-04-04T14:07:18Z</time></trkpt><trkpt lat="41.255765214159396" lon="13.977585711141282"><ele>411.0</ele><time>2026-04-04T14:07:19Z</time></trkpt><trkpt lat="41.255666150190315" lon="13.977530430231209"><ele>411.0</ele><time>2026-04-04T14:07:21Z</time></trkpt><trkpt lat="41.255568069567076" lon="13.97745904491026"><ele>411.0</ele><time>2026-04-04T14:07:23Z</time></trkpt><trkpt lat="41.25550177249997" lon="13.977408535623692"><ele>411.0</ele><time>2026-04-04T14:07:25Z</time></trkpt><trkpt lat="41.25539019855149" lon="13.977356239132439"><ele>411.0</ele><time>2026-04-04T14:07:27Z</time></trkpt><trkpt lat="41.255303315183426" lon="13.977352485868341"><ele>410.20000000000005</ele><time>2026-04-04T14:07:29Z</time></trkpt><trkpt lat="41.2552289440815" lon="13.97742425777401"><ele>409.40000000000003</ele><time>2026-04-04T14:07:31Z</time></trkpt><trkpt lat="41.25519632588215" lon="13.977547467213078"><ele>408.6</ele><time>2026-04-04T14:07:33Z</time></trkpt><trkpt lat="41.25515980071771" lon="13.977656298361401"><ele>407.8</ele><time>2026-04-04T14:07:35Z</time></trkpt><trkpt lat="41.25521144168949" lon="13.977763802946718"><ele>407.0</ele><time>2026-04-04T14:07:37Z</time></trkpt><trkpt lat="41.25529875268679" lon="13.977874530325737"><ele>405.7142857142857</ele><time>2026-04-04T14:07:39Z</time></trkpt><trkpt lat="41.25534402572706" lon="13.977935511278286"><ele>404.42857142857144</ele><time>2026-04-04T14:07:40Z</time></trkpt><trkpt lat="41.255380680404514" lon="13.978012277511272"><ele>403.1428571428571</ele><time>2026-04-04T14:07:41Z</time></trkpt><trkpt lat="41.25542365999319" lon="13.978077229157336"><ele>401.8571428571429</ele><time>2026-04-04T14:07:42Z</time></trkpt><trkpt lat="41.25546404802452" lon="13.978155323317655"><ele>400.57142857142856</ele><time>2026-04-04T14:07:43Z</time></trkpt><trkpt lat="41.25551027442178" lon="13.97824005186528"><ele>399.2857142857143</ele><time>2026-04-04T14:07:44Z</time></trkpt><trkpt lat="41.255523976439065" lon="13.978349133049624"><ele>398.0</ele><time>2026-04-04T14:07:45Z</time></trkpt><trkpt lat="41.25555461277524" lon="13.978465828217535"><ele>398.0</ele><time>2026-04-04T14:07:46Z</time></trkpt><trkpt lat="41.25558234569231" lon="13.978571464156675"><ele>398.0</ele><time>2026-04-04T14:07:47Z</time></trkpt><trkpt lat="41.255625561705116" lon="13.978680511059256"><ele>398.0</ele><time>2026-04-04T14:07:48Z</time></trkpt><trkpt lat="41.255647293415734" lon="13.978820682007003"><ele>398.0</ele><time>2026-04-04T14:07:49Z</time></trkpt><trkpt lat="41.255684086564244" lon="13.97894044260692"><ele>398.0</ele><time>2026-04-04T14:07:50Z</time></trkpt><trkpt lat="41.25570612700361" lon="13.979050757001366"><ele>398.8333333333333</ele><time>2026-04-04T14:07:51Z</time></trkpt><trkpt lat="41.255730706516644" lon="13.979148395087757"><ele>399.66666666666663</ele><time>2026-04-04T14:07:52Z</time></trkpt><trkpt lat="41.25573057649061" lon="13.979248917073033"><ele>400.5</ele><time>2026-04-04T14:07:53Z</time></trkpt><trkpt lat="41.255720055332155" lon="13.979333432267772"><ele>401.33333333333337</ele><time>2026-04-04T14:07:54Z</time></trkpt><trkpt lat="41.25566312247223" lon="13.979424874500184"><ele>402.1666666666667</ele><time>2026-04-04T14:07:55.001Z</time></trkpt><trkpt lat="41.255575013280136" lon="13.979468508299206"><ele>403.0</ele><time>2026-04-04T14:07:57.001Z</time></trkpt><trkpt lat="41.25551153788569" lon="13.979458149352011"><ele>403.2</ele><time>2026-04-04T14:07:58.001Z</time></trkpt><trkpt lat="41.255396471774795" lon="13.979388097261168"><ele>403.4</ele><time>2026-04-04T14:08:00.001Z</time></trkpt><trkpt lat="41.25533003004512" lon="13.979337156804906"><ele>403.59999999999997</ele><time>2026-04-04T14:08:01.001Z</time></trkpt><trkpt lat="41.25525453449049" lon="13.97927670218498"><ele>403.79999999999995</ele><time>2026-04-04T14:08:02.001Z</time></trkpt><trkpt lat="41.25516803590053" lon="13.979216255792247"><ele>404.0</ele><time>2026-04-04T14:08:03.001Z</time></trkpt><trkpt lat="41.255081867826426" lon="13.979147210163813"><ele>402.79999999999995</ele><time>2026-04-04T14:08:04.001Z</time></trkpt><trkpt lat="41.25499073093919" lon="13.979065185614337"><ele>401.59999999999997</ele><time>2026-04-04T14:08:05.001Z</time></trkpt><trkpt lat="41.254912369272006" lon="13.978996006984316"><ele>400.4</ele><time>2026-04-04T14:08:06.001Z</time></trkpt><trkpt lat="41.25483535164299" lon="13.978936720621876"><ele>399.2</ele><time>2026-04-04T14:08:07.001Z</time></trkpt><trkpt lat="41.254759162161676" lon="13.978877665691595"><ele>398.0</ele><time>2026-04-04T14:08:08.001Z</time></trkpt><trkpt lat="41.25466655200717" lon="13.978839279113538"><ele>397.0</ele><time>2026-04-04T14:08:09.001Z</time></trkpt><trkpt lat="41.25456755551751" lon="13.978818534102778"><ele>396.0</ele><time>2026-04-04T14:08:10.001Z</time></trkpt><trkpt lat="41.25445910700837" lon="13.978816529218749"><ele>395.0</ele><time>2026-04-04T14:08:11.001Z</time></trkpt><trkpt lat="41.25434586219935" lon="13.978826051508841"><ele>394.0</ele><time>2026-04-04T14:08:12.001Z</time></trkpt><trkpt lat="41.25422499261301" lon="13.978825278499594"><ele>393.0</ele><time>2026-04-04T14:08:13.001Z</time></trkpt><trkpt lat="41.254109442849135" lon="13.978836977122484"><ele>393.0</ele><time>2026-04-04T14:08:14.001Z</time></trkpt><trkpt lat="41.25397722020357" lon="13.978835076188346"><ele>393.0</ele><time>2026-04-04T14:08:15.001Z</time></trkpt><trkpt lat="41.25384877904437" lon="13.978825558413378"><ele>393.0</ele><time>2026-04-04T14:08:16.001Z</time></trkpt><trkpt lat="41.25373105291825" lon="13.978820601707453"><ele>393.0</ele><time>2026-04-04T14:08:17.001Z</time></trkpt><trkpt lat="41.25360925190668" lon="13.978811789041734"><ele>392.0</ele><time>2026-04-04T14:08:18.001Z</time></trkpt><trkpt lat="41.25348877881723" lon="13.978821302992804"><ele>391.0</ele><time>2026-04-04T14:08:19.001Z</time></trkpt><trkpt lat="41.25336029866245" lon="13.978810809747962"><ele>390.0</ele><time>2026-04-04T14:08:20.001Z</time></trkpt><trkpt lat="41.25324548278316" lon="13.978805401662253"><ele>389.0</ele><time>2026-04-04T14:08:21.001Z</time></trkpt><trkpt lat="41.25313845104353" lon="13.978805489409138"><ele>388.5</ele><time>2026-04-04T14:08:22.001Z</time></trkpt><trkpt lat="41.25302644722156" lon="13.978791738660536"><ele>388.0</ele><time>2026-04-04T14:08:23.001Z</time></trkpt><trkpt lat="41.25292421537805" lon="13.978770765874586"><ele>387.5</ele><time>2026-04-04T14:08:24.001Z</time></trkpt><trkpt lat="41.252816331725136" lon="13.97873768404406"><ele>387.0</ele><time>2026-04-04T14:08:25.001Z</time></trkpt><trkpt lat="41.25270290056716" lon="13.97867409486919"><ele>387.0</ele><time>2026-04-04T14:08:26.001Z</time></trkpt><trkpt lat="41.25259093049512" lon="13.97861253501419"><ele>387.0</ele><time>2026-04-04T14:08:27.001Z</time></trkpt><trkpt lat="41.25249405756548" lon="13.978550695183834"><ele>387.0</ele><time>2026-04-04T14:08:28.001Z</time></trkpt><trkpt lat="41.25236264482042" lon="13.978472534586853"><ele>387.0</ele><time>2026-04-04T14:08:29.001Z</time></trkpt><trkpt lat="41.25224142690266" lon="13.978386655052445"><ele>383.25</ele><time>2026-04-04T14:08:30.001Z</time></trkpt><trkpt lat="41.25210240302939" lon="13.978305929492084"><ele>379.5</ele><time>2026-04-04T14:08:31.001Z</time></trkpt><trkpt lat="41.25197014459493" lon="13.978221770456043"><ele>375.75</ele><time>2026-04-04T14:08:32.001Z</time></trkpt><trkpt lat="41.25184692099147" lon="13.97814675832551"><ele>372.0</ele><time>2026-04-04T14:08:33.001Z</time></trkpt><trkpt lat="41.25169852993275" lon="13.978066742218447"><ele>372.0</ele><time>2026-04-04T14:08:34.001Z</time></trkpt><trkpt lat="41.25157351376227" lon="13.97799159640459"><ele>372.0</ele><time>2026-04-04T14:08:35.001Z</time></trkpt><trkpt lat="41.251440189937874" lon="13.977903939806803"><ele>372.0</ele><time>2026-04-04T14:08:36.001Z</time></trkpt><trkpt lat="41.251309190379" lon="13.97780863023494"><ele>372.0</ele><time>2026-04-04T14:08:37.001Z</time></trkpt><trkpt lat="41.251179516600345" lon="13.977715436643953"><ele>369.40000000000003</ele><time>2026-04-04T14:08:38.001Z</time></trkpt><trkpt lat="41.25105973645071" lon="13.977627430983892"><ele>366.8</ele><time>2026-04-04T14:08:39.001Z</time></trkpt><trkpt lat="41.25095035192517" lon="13.977545394515603"><ele>364.2</ele><time>2026-04-04T14:08:40.001Z</time></trkpt><trkpt lat="41.25086042425537" lon="13.977507722976506"><ele>361.6</ele><time>2026-04-04T14:08:41.001Z</time></trkpt><trkpt lat="41.250785181271475" lon="13.977491378364071"><ele>359.0</ele><time>2026-04-04T14:08:42.001Z</time></trkpt><trkpt lat="41.250713301604534" lon="13.977507861318916"><ele>359.0</ele><time>2026-04-04T14:08:43.001Z</time></trkpt><trkpt lat="41.25064957475489" lon="13.977547416053651"><ele>359.0</ele><time>2026-04-04T14:08:44.001Z</time></trkpt><trkpt lat="41.25059752416393" lon="13.977626777720682"><ele>359.0</ele><time>2026-04-04T14:08:45.001Z</time></trkpt><trkpt lat="41.250572112909616" lon="13.977731744836532"><ele>359.0</ele><time>2026-04-04T14:08:46.001Z</time></trkpt><trkpt lat="41.2505610468428" lon="13.977843632250881"><ele>359.0</ele><time>2026-04-04T14:08:47.001Z</time></trkpt><trkpt lat="41.25055094901756" lon="13.977961453212357"><ele>359.0</ele><time>2026-04-04T14:08:48.001Z</time></trkpt><trkpt lat="41.25053999215093" lon="13.978090372584118"><ele>358.79999999999995</ele><time>2026-04-04T14:08:49.001Z</time></trkpt><trkpt lat="41.25053119028802" lon="13.978223056405321"><ele>358.59999999999997</ele><time>2026-04-04T14:08:50.001Z</time></trkpt><trkpt lat="41.25052689779923" lon="13.978363516155781"><ele>358.4</ele><time>2026-04-04T14:08:51.001Z</time></trkpt><trkpt lat="41.25053782458548" lon="13.978507691102156"><ele>358.2</ele><time>2026-04-04T14:08:52.002Z</time></trkpt><trkpt lat="41.25058603415777" lon="13.978651264731168"><ele>358.0</ele><time>2026-04-04T14:08:53.002Z</time></trkpt><trkpt lat="41.25064479673381" lon="13.978768866742998"><ele>358.0</ele><time>2026-04-04T14:08:54.002Z</time></trkpt><trkpt lat="41.25070491284145" lon="13.97888479416136"><ele>358.0</ele><time>2026-04-04T14:08:55.002Z</time></trkpt><trkpt lat="41.25076429057932" lon="13.978996767855104"><ele>358.0</ele><time>2026-04-04T14:08:56.002Z</time></trkpt><trkpt lat="41.25082246067038" lon="13.979099921947071"><ele>358.0</ele><time>2026-04-04T14:08:57.002Z</time></trkpt><trkpt lat="41.25088259958201" lon="13.979183360012735"><ele>358.0</ele><time>2026-04-04T14:08:58.002Z</time></trkpt><trkpt lat="41.25091969393497" lon="13.979282828512089"><ele>358.66666666666663</ele><time>2026-04-04T14:08:59.002Z</time></trkpt><trkpt lat="41.25092899920595" lon="13.979381740198992"><ele>359.3333333333333</ele><time>2026-04-04T14:09:00.002Z</time></trkpt><trkpt lat="41.250904243525845" lon="13.979466352927384"><ele>360.0</ele><time>2026-04-04T14:09:01.002Z</time></trkpt><trkpt lat="41.2508498043441" lon="13.97952300840041"><ele>360.6666666666667</ele><time>2026-04-04T14:09:02.002Z</time></trkpt><trkpt lat="41.25072693953029" lon="13.979548720108326"><ele>361.33333333333337</ele><time>2026-04-04T14:09:04.002Z</time></trkpt><trkpt lat="41.25064354597119" lon="13.979506468764516"><ele>362.0</ele><time>2026-04-04T14:09:05.002Z</time></trkpt><trkpt lat="41.25055366099455" lon="13.97946942189023"><ele>361.0</ele><time>2026-04-04T14:09:06.002Z</time></trkpt><trkpt lat="41.25046904699166" lon="13.979408406727988"><ele>360.0</ele><time>2026-04-04T14:09:07.002Z</time></trkpt><trkpt lat="41.25037886732799" lon="13.979331831545219"><ele>359.0</ele><time>2026-04-04T14:09:08.002Z</time></trkpt><trkpt lat="41.25027885667938" lon="13.979258623832505"><ele>358.0</ele><time>2026-04-04T14:09:09.002Z</time></trkpt><trkpt lat="41.250174350832104" lon="13.979179032850986"><ele>357.0</ele><time>2026-04-04T14:09:10.002Z</time></trkpt><trkpt lat="41.25006930962124" lon="13.979097514622817"><ele>357.0</ele><time>2026-04-04T14:09:11.002Z</time></trkpt><trkpt lat="41.24997374831154" lon="13.97899199832717"><ele>357.0</ele><time>2026-04-04T14:09:12.002Z</time></trkpt><trkpt lat="41.24988646974516" lon="13.978869249536594"><ele>357.0</ele><time>2026-04-04T14:09:13.002Z</time></trkpt><trkpt lat="41.24981682192898" lon="13.978726634207518"><ele>357.0</ele><time>2026-04-04T14:09:14.002Z</time></trkpt><trkpt lat="41.24976241761429" lon="13.978572532940063"><ele>357.75</ele><time>2026-04-04T14:09:15.002Z</time></trkpt><trkpt lat="41.24970362777523" lon="13.97841637550826"><ele>358.5</ele><time>2026-04-04T14:09:16.002Z</time></trkpt><trkpt lat="41.249632460499456" lon="13.978252428506961"><ele>359.25</ele><time>2026-04-04T14:09:17Z</time></trkpt><trkpt lat="41.24956077916341" lon="13.978067687023364"><ele>360.0</ele><time>2026-04-04T14:09:18Z</time></trkpt><trkpt lat="41.24948215460369" lon="13.977868242230201"><ele>360.0</ele><time>2026-04-04T14:09:19Z</time></trkpt><trkpt lat="41.24939097668262" lon="13.977673095263471"><ele>360.0</ele><time>2026-04-04T14:09:20Z</time></trkpt><trkpt lat="41.249308698576" lon="13.977531591532681"><ele>360.0</ele><time>2026-04-04T14:09:21Z</time></trkpt><trkpt lat="41.249197522633175" lon="13.977377629906538"><ele>360.25</ele><time>2026-04-04T14:09:22Z</time></trkpt><trkpt lat="41.24906298953751" lon="13.97726725844248"><ele>360.5</ele><time>2026-04-04T14:09:23Z</time></trkpt><trkpt lat="41.24896987809996" lon="13.977135544717445"><ele>360.75</ele><time>2026-04-04T14:09:24Z</time></trkpt><trkpt lat="41.24890289391846" lon="13.976983821514036"><ele>361.0</ele><time>2026-04-04T14:09:25Z</time></trkpt><trkpt lat="41.24883892506974" lon="13.976818441013608"><ele>359.0</ele><time>2026-04-04T14:09:26Z</time></trkpt><trkpt lat="41.24880200311896" lon="13.976634163626478"><ele>357.0</ele><time>2026-04-04T14:09:27Z</time></trkpt><trkpt lat="41.24873864177247" lon="13.976464465951292"><ele>355.0</ele><time>2026-04-04T14:09:28Z</time></trkpt><trkpt lat="41.24864450953727" lon="13.976314308554254"><ele>353.0</ele><time>2026-04-04T14:09:29Z</time></trkpt><trkpt lat="41.24851191455449" lon="13.97618079334644"><ele>353.0</ele><time>2026-04-04T14:09:30Z</time></trkpt><trkpt lat="41.24837512710157" lon="13.976070316723137"><ele>353.0</ele><time>2026-04-04T14:09:31Z</time></trkpt><trkpt lat="41.24825212546682" lon="13.975965393894336"><ele>353.0</ele><time>2026-04-04T14:09:32Z</time></trkpt><trkpt lat="41.24813725956674" lon="13.975868002159457"><ele>353.0</ele><time>2026-04-04T14:09:33Z</time></trkpt><trkpt lat="41.24804871010704" lon="13.975789181512758"><ele>351.0</ele><time>2026-04-04T14:09:34Z</time></trkpt><trkpt lat="41.2479733055185" lon="13.975719149234672"><ele>349.0</ele><time>2026-04-04T14:09:35Z</time></trkpt><trkpt lat="41.247917961359065" lon="13.97563718451364"><ele>347.0</ele><time>2026-04-04T14:09:36Z</time></trkpt><trkpt lat="41.247901760110054" lon="13.975542001478882"><ele>345.0</ele><time>2026-04-04T14:09:37Z</time></trkpt><trkpt lat="41.24792049510852" lon="13.97544738532243"><ele>343.0</ele><time>2026-04-04T14:09:38Z</time></trkpt><trkpt lat="41.24796720276408" lon="13.97536284680223"><ele>341.0</ele><time>2026-04-04T14:09:39Z</time></trkpt><trkpt lat="41.248069113787835" lon="13.975298809326345"><ele>340.0</ele><time>2026-04-04T14:09:40Z</time></trkpt><trkpt lat="41.2481613257165" lon="13.975232704784135"><ele>339.0</ele><time>2026-04-04T14:09:41Z</time></trkpt><trkpt lat="41.24824018714898" lon="13.9751986999793"><ele>338.0</ele><time>2026-04-04T14:09:42Z</time></trkpt><trkpt lat="41.24831690291619" lon="13.975209173536044"><ele>337.0</ele><time>2026-04-04T14:09:43Z</time></trkpt><trkpt lat="41.248396638063134" lon="13.975243525928438"><ele>336.0</ele><time>2026-04-04T14:09:44Z</time></trkpt><trkpt lat="41.248441226196775" lon="13.97538431584773"><ele>336.0</ele><time>2026-04-04T14:09:45Z</time></trkpt><trkpt lat="41.24851139182699" lon="13.975536371913474"><ele>336.0</ele><time>2026-04-04T14:09:46Z</time></trkpt><trkpt lat="41.248587209102375" lon="13.9756660524665"><ele>336.0</ele><time>2026-04-04T14:09:47Z</time></trkpt><trkpt lat="41.24864483368734" lon="13.975781647411738"><ele>336.0</ele><time>2026-04-04T14:09:48Z</time></trkpt><trkpt lat="41.24869029489925" lon="13.975854287190488"><ele>336.0</ele><time>2026-04-04T14:09:49Z</time></trkpt><trkpt lat="41.24880262060521" lon="13.975867148344621"><ele>336.0</ele><time>2026-04-04T14:09:51Z</time></trkpt><trkpt lat="41.248849339789125" lon="13.975807399471428"><ele>336.0</ele><time>2026-04-04T14:09:52Z</time></trkpt><trkpt lat="41.24886187628911" lon="13.975721053235873"><ele>336.0</ele><time>2026-04-04T14:09:53Z</time></trkpt><trkpt lat="41.24883829761154" lon="13.975603540372838"><ele>336.0</ele><time>2026-04-04T14:09:54Z</time></trkpt><trkpt lat="41.24879672019517" lon="13.975471299071243"><ele>336.0</ele><time>2026-04-04T14:09:55Z</time></trkpt><trkpt lat="41.24878087421337" lon="13.975301091881201"><ele>336.0</ele><time>2026-04-04T14:09:56Z</time></trkpt><trkpt lat="41.248795234607314" lon="13.975098850768545"><ele>336.0</ele><time>2026-04-04T14:09:57Z</time></trkpt><trkpt lat="41.248846230189024" lon="13.974884127494951"><ele>336.0</ele><time>2026-04-04T14:09:58Z</time></trkpt><trkpt lat="41.248879809427635" lon="13.974685516720523"><ele>335.0</ele><time>2026-04-04T14:09:59Z</time></trkpt><trkpt lat="41.24891305151461" lon="13.97448675575612"><ele>334.0</ele><time>2026-04-04T14:10:00Z</time></trkpt><trkpt lat="41.24896747484357" lon="13.974286165885431"><ele>333.0</ele><time>2026-04-04T14:10:01Z</time></trkpt><trkpt lat="41.24905622397332" lon="13.97411483554098"><ele>329.75</ele><time>2026-04-04T14:10:02.001Z</time></trkpt><trkpt lat="41.24913128092581" lon="13.973959320797524"><ele>326.5</ele><time>2026-04-04T14:10:03.001Z</time></trkpt><trkpt lat="41.249202069528614" lon="13.973822266527483"><ele>323.25</ele><time>2026-04-04T14:10:04.001Z</time></trkpt><trkpt lat="41.24925073574679" lon="13.973698496437466"><ele>320.0</ele><time>2026-04-04T14:10:05.001Z</time></trkpt><trkpt lat="41.24927572803765" lon="13.973578396856489"><ele>320.0</ele><time>2026-04-04T14:10:06.001Z</time></trkpt><trkpt lat="41.24927422534725" lon="13.973463720661394"><ele>320.0</ele><time>2026-04-04T14:10:07.001Z</time></trkpt><trkpt lat="41.24925547787072" lon="13.973338777156345"><ele>320.0</ele><time>2026-04-04T14:10:08.001Z</time></trkpt><trkpt lat="41.24916768870223" lon="13.973204789938437"><ele>320.0</ele><time>2026-04-04T14:10:09.001Z</time></trkpt><trkpt lat="41.249045885466224" lon="13.973073329177524"><ele>323.6666666666667</ele><time>2026-04-04T14:10:10.001Z</time></trkpt><trkpt lat="41.2489159808966" lon="13.972942630426827"><ele>327.3333333333333</ele><time>2026-04-04T14:10:11.001Z</time></trkpt><trkpt lat="41.248772575748426" lon="13.972843838071572"><ele>331.0</ele><time>2026-04-04T14:10:12.001Z</time></trkpt><trkpt lat="41.24862552792636" lon="13.972752335994526"><ele>331.0</ele><time>2026-04-04T14:10:13.001Z</time></trkpt><trkpt lat="41.2484693034852" lon="13.972677102012412"><ele>331.0</ele><time>2026-04-04T14:10:14.001Z</time></trkpt><trkpt lat="41.24831124155686" lon="13.972642997721735"><ele>331.0</ele><time>2026-04-04T14:10:15.001Z</time></trkpt><trkpt lat="41.248165981984386" lon="13.972608197716077"><ele>330.6</ele><time>2026-04-04T14:10:16.001Z</time></trkpt><trkpt lat="41.24805683517305" lon="13.972576677483149"><ele>330.20000000000005</ele><time>2026-04-04T14:10:17.001Z</time></trkpt><trkpt lat="41.247972084492204" lon="13.9725462833983"><ele>329.79999999999995</ele><time>2026-04-04T14:10:18.001Z</time></trkpt><trkpt lat="41.24787050293651" lon="13.972487888052317"><ele>329.4</ele><time>2026-04-04T14:10:20.001Z</time></trkpt><trkpt lat="41.247869119642495" lon="13.97236319998185"><ele>329.0</ele><time>2026-04-04T14:10:22.001Z</time></trkpt><trkpt lat="41.24799328260588" lon="13.972387649502243"><ele>322.5</ele><time>2026-04-04T14:10:24.001Z</time></trkpt><trkpt lat="41.248085867260166" lon="13.972410324308003"><ele>316.0</ele><time>2026-04-04T14:10:25.001Z</time></trkpt><trkpt lat="41.248198210508846" lon="13.972439360500516"><ele>309.5</ele><time>2026-04-04T14:10:26.001Z</time></trkpt><trkpt lat="41.24832763605062" lon="13.972453433913714"><ele>303.0</ele><time>2026-04-04T14:10:27.001Z</time></trkpt><trkpt lat="41.248466895521595" lon="13.97249722084529"><ele>305.5</ele><time>2026-04-04T14:10:28.001Z</time></trkpt><trkpt lat="41.2486049429296" lon="13.972532895711044"><ele>308.0</ele><time>2026-04-04T14:10:29.001Z</time></trkpt><trkpt lat="41.24873192915581" lon="13.972568378001403"><ele>310.5</ele><time>2026-04-04T14:10:30.001Z</time></trkpt><trkpt lat="41.24886042168257" lon="13.972600396943141"><ele>313.0</ele><time>2026-04-04T14:10:31.001Z</time></trkpt><trkpt lat="41.24898574495332" lon="13.972625265037157"><ele>313.0</ele><time>2026-04-04T14:10:32.001Z</time></trkpt><trkpt lat="41.249103445114834" lon="13.972626395767149"><ele>313.0</ele><time>2026-04-04T14:10:33.001Z</time></trkpt><trkpt lat="41.24922547852449" lon="13.97258575839141"><ele>313.0</ele><time>2026-04-04T14:10:34.001Z</time></trkpt><trkpt lat="41.24932956879464" lon="13.972529925322567"><ele>313.0</ele><time>2026-04-04T14:10:35.001Z</time></trkpt><trkpt lat="41.24940016877863" lon="13.972479201673506"><ele>313.0</ele><time>2026-04-04T14:10:36.001Z</time></trkpt><trkpt lat="41.249433268062816" lon="13.972344089574499"><ele>309.2</ele><time>2026-04-04T14:10:38.001Z</time></trkpt><trkpt lat="41.24933666409649" lon="13.972261294102065"><ele>305.4</ele><time>2026-04-04T14:10:40.001Z</time></trkpt><trkpt lat="41.24925041925347" lon="13.97229171422532"><ele>301.59999999999997</ele><time>2026-04-04T14:10:41.001Z</time></trkpt><trkpt lat="41.2491775412596" lon="13.972360187576886"><ele>297.8</ele><time>2026-04-04T14:10:42.001Z</time></trkpt><trkpt lat="41.24911174734111" lon="13.972413704684756"><ele>294.0</ele><time>2026-04-04T14:10:43.001Z</time></trkpt><trkpt lat="41.24902951996777" lon="13.972435172007433"><ele>295.75</ele><time>2026-04-04T14:10:44.001Z</time></trkpt><trkpt lat="41.24891801078864" lon="13.97241713911289"><ele>297.5</ele><time>2026-04-04T14:10:45.001Z</time></trkpt><trkpt lat="41.24878424733456" lon="13.97234478012017"><ele>299.25</ele><time>2026-04-04T14:10:46.001Z</time></trkpt><trkpt lat="41.24865050805417" lon="13.972236655392845"><ele>301.0</ele><time>2026-04-04T14:10:47.001Z</time></trkpt><trkpt lat="41.248511320569214" lon="13.972137819422068"><ele>301.0</ele><time>2026-04-04T14:10:48.001Z</time></trkpt><trkpt lat="41.248369159014125" lon="13.972043785704823"><ele>301.0</ele><time>2026-04-04T14:10:49.001Z</time></trkpt><trkpt lat="41.24822992347636" lon="13.971961844907637"><ele>301.0</ele><time>2026-04-04T14:10:50.001Z</time></trkpt><trkpt lat="41.24810089341657" lon="13.971877912616"><ele>301.66666666666663</ele><time>2026-04-04T14:10:51.001Z</time></trkpt><trkpt lat="41.24796801687442" lon="13.971798288775373"><ele>302.3333333333333</ele><time>2026-04-04T14:10:52.001Z</time></trkpt><trkpt lat="41.24782838380062" lon="13.971716153492913"><ele>303.0</ele><time>2026-04-04T14:10:53.001Z</time></trkpt><trkpt lat="41.247684923541236" lon="13.97164707784448"><ele>293.6666666666667</ele><time>2026-04-04T14:10:54.001Z</time></trkpt><trkpt lat="41.247526872965196" lon="13.971595336213166"><ele>284.33333333333337</ele><time>2026-04-04T14:10:55.001Z</time></trkpt><trkpt lat="41.2473779140039" lon="13.97154633572003"><ele>275.0</ele><time>2026-04-04T14:10:56.001Z</time></trkpt><trkpt lat="41.24723973715951" lon="13.97149578420413"><ele>273.5</ele><time>2026-04-04T14:10:57.001Z</time></trkpt><trkpt lat="41.24711719769219" lon="13.971455125800745"><ele>272.0</ele><time>2026-04-04T14:10:58.002Z</time></trkpt><trkpt lat="41.24700108448038" lon="13.97142003806435"><ele>270.5</ele><time>2026-04-04T14:10:59.002Z</time></trkpt><trkpt lat="41.246879476658094" lon="13.971408515952461"><ele>269.0</ele><time>2026-04-04T14:11:00.002Z</time></trkpt><trkpt lat="41.2467606404096" lon="13.971438387345943"><ele>269.0</ele><time>2026-04-04T14:11:01.002Z</time></trkpt><trkpt lat="41.24664323762833" lon="13.971513653228437"><ele>269.0</ele><time>2026-04-04T14:11:02.002Z</time></trkpt><trkpt lat="41.24654950209656" lon="13.971616884372434"><ele>269.0</ele><time>2026-04-04T14:11:03.002Z</time></trkpt><trkpt lat="41.246442510338674" lon="13.971681078003266"><ele>269.0</ele><time>2026-04-04T14:11:04.002Z</time></trkpt><trkpt lat="41.24633845557337" lon="13.971735058402912"><ele>270.25</ele><time>2026-04-04T14:11:05.002Z</time></trkpt><trkpt lat="41.246213395804354" lon="13.971737129141381"><ele>271.5</ele><time>2026-04-04T14:11:06.002Z</time></trkpt><trkpt lat="41.246073853386875" lon="13.971742047222449"><ele>272.75</ele><time>2026-04-04T14:11:07.002Z</time></trkpt><trkpt lat="41.245926875485985" lon="13.971713135252342"><ele>274.0</ele><time>2026-04-04T14:11:08.002Z</time></trkpt><trkpt lat="41.245779013774374" lon="13.971693044044025"><ele>269.75</ele><time>2026-04-04T14:11:09.002Z</time></trkpt><trkpt lat="41.2456314982638" lon="13.971648439713404"><ele>265.5</ele><time>2026-04-04T14:11:10.002Z</time></trkpt><trkpt lat="41.24548124591509" lon="13.971630918500063"><ele>261.25</ele><time>2026-04-04T14:11:11.002Z</time></trkpt><trkpt lat="41.245345070496846" lon="13.971609026585368"><ele>257.0</ele><time>2026-04-04T14:11:12.002Z</time></trkpt><trkpt lat="41.245212130342146" lon="13.97155901992059"><ele>257.0</ele><time>2026-04-04T14:11:13.002Z</time></trkpt><trkpt lat="41.245071330446834" lon="13.971469037783695"><ele>257.0</ele><time>2026-04-04T14:11:14.002Z</time></trkpt><trkpt lat="41.24493006525576" lon="13.971369488655418"><ele>257.0</ele><time>2026-04-04T14:11:15.002Z</time></trkpt><trkpt lat="41.24479196160487" lon="13.971261197680462"><ele>258.75</ele><time>2026-04-04T14:11:16.002Z</time></trkpt><trkpt lat="41.244673713850545" lon="13.971158424919485"><ele>260.5</ele><time>2026-04-04T14:11:17.002Z</time></trkpt><trkpt lat="41.24454519214413" lon="13.971081633986236"><ele>262.25</ele><time>2026-04-04T14:11:18.002Z</time></trkpt><trkpt lat="41.24440432461448" lon="13.971024513787212"><ele>264.0</ele><time>2026-04-04T14:11:19.002Z</time></trkpt><trkpt lat="41.24425382450961" lon="13.970973907754612"><ele>264.0</ele><time>2026-04-04T14:11:20.002Z</time></trkpt><trkpt lat="41.2441009041201" lon="13.970935262684677"><ele>264.0</ele><time>2026-04-04T14:11:21.002Z</time></trkpt><trkpt lat="41.24394476585595" lon="13.970906655477588"><ele>264.0</ele><time>2026-04-04T14:11:22.002Z</time></trkpt><trkpt lat="41.24378596201681" lon="13.970872462620298"><ele>258.75</ele><time>2026-04-04T14:11:23Z</time></trkpt><trkpt lat="41.24363662754002" lon="13.97084471207656"><ele>253.5</ele><time>2026-04-04T14:11:24Z</time></trkpt><trkpt lat="41.24349831054704" lon="13.970796893381733"><ele>248.25</ele><time>2026-04-04T14:11:25Z</time></trkpt><trkpt lat="41.2433652864744" lon="13.970718045621922"><ele>243.0</ele><time>2026-04-04T14:11:26Z</time></trkpt><trkpt lat="41.243230328705415" lon="13.970609219006937"><ele>244.25</ele><time>2026-04-04T14:11:27Z</time></trkpt><trkpt lat="41.24310795958537" lon="13.97050919189227"><ele>245.5</ele><time>2026-04-04T14:11:28Z</time></trkpt><trkpt lat="41.242985322983046" lon="13.970425109238828"><ele>246.75</ele><time>2026-04-04T14:11:29Z</time></trkpt><trkpt lat="41.24285124054818" lon="13.970375311928874"><ele>248.0</ele><time>2026-04-04T14:11:30Z</time></trkpt><trkpt lat="41.2426993800174" lon="13.970357196229802"><ele>248.0</ele><time>2026-04-04T14:11:31Z</time></trkpt><trkpt lat="41.242537765138714" lon="13.970349110396961"><ele>248.0</ele><time>2026-04-04T14:11:32Z</time></trkpt><trkpt lat="41.242391692660945" lon="13.97033611574758"><ele>248.0</ele><time>2026-04-04T14:11:33Z</time></trkpt><trkpt lat="41.242256221420355" lon="13.97031634530333"><ele>248.0</ele><time>2026-04-04T14:11:34Z</time></trkpt><trkpt lat="41.24212473896143" lon="13.97029348968413"><ele>248.0</ele><time>2026-04-04T14:11:35Z</time></trkpt><trkpt lat="41.241990819475674" lon="13.970255458760303"><ele>248.0</ele><time>2026-04-04T14:11:36Z</time></trkpt><trkpt lat="41.2418555432519" lon="13.970193617609235"><ele>248.0</ele><time>2026-04-04T14:11:37Z</time></trkpt><trkpt lat="41.241720658974266" lon="13.970106866424624"><ele>248.0</ele><time>2026-04-04T14:11:38Z</time></trkpt><trkpt lat="41.24158928221568" lon="13.970004195286212"><ele>246.25</ele><time>2026-04-04T14:11:39Z</time></trkpt><trkpt lat="41.24145889245055" lon="13.969901384587528"><ele>244.5</ele><time>2026-04-04T14:11:40Z</time></trkpt><trkpt lat="41.241335098123564" lon="13.969807224595368"><ele>242.75</ele><time>2026-04-04T14:11:41Z</time></trkpt><trkpt lat="41.24122582326891" lon="13.969717179750644"><ele>241.0</ele><time>2026-04-04T14:11:42Z</time></trkpt><trkpt lat="41.24113266353803" lon="13.969640213442906"><ele>241.0</ele><time>2026-04-04T14:11:43Z</time></trkpt><trkpt lat="41.24104616553486" lon="13.969558145047682"><ele>241.0</ele><time>2026-04-04T14:11:44Z</time></trkpt><trkpt lat="41.24097213544483" lon="13.969439055448"><ele>241.0</ele><time>2026-04-04T14:11:45Z</time></trkpt><trkpt lat="41.240901289575156" lon="13.969295418983776"><ele>241.0</ele><time>2026-04-04T14:11:46Z</time></trkpt><trkpt lat="41.240830819443936" lon="13.969162073765823"><ele>241.75</ele><time>2026-04-04T14:11:47Z</time></trkpt><trkpt lat="41.240754828472106" lon="13.969016235063414"><ele>242.5</ele><time>2026-04-04T14:11:48Z</time></trkpt><trkpt lat="41.24068435053872" lon="13.968865393478474"><ele>243.25</ele><time>2026-04-04T14:11:49Z</time></trkpt><trkpt lat="41.240611775055434" lon="13.968721524559177"><ele>244.0</ele><time>2026-04-04T14:11:50Z</time></trkpt><trkpt lat="41.24051952653266" lon="13.968597230972422"><ele>244.0</ele><time>2026-04-04T14:11:51Z</time></trkpt><trkpt lat="41.240408852936355" lon="13.968484813842384"><ele>244.0</ele><time>2026-04-04T14:11:52Z</time></trkpt><trkpt lat="41.24029117725989" lon="13.968373857870223"><ele>244.0</ele><time>2026-04-04T14:11:53Z</time></trkpt><trkpt lat="41.24017499274244" lon="13.96826510302507"><ele>244.0</ele><time>2026-04-04T14:11:54Z</time></trkpt><trkpt lat="41.24005533888513" lon="13.968156936840824"><ele>243.0</ele><time>2026-04-04T14:11:55Z</time></trkpt><trkpt lat="41.23992669559104" lon="13.968066552299323"><ele>242.0</ele><time>2026-04-04T14:11:56Z</time></trkpt><trkpt lat="41.23977498438417" lon="13.967982305557937"><ele>241.0</ele><time>2026-04-04T14:11:57Z</time></trkpt><trkpt lat="41.23961410782245" lon="13.967904832448669"><ele>241.0</ele><time>2026-04-04T14:11:58Z</time></trkpt><trkpt lat="41.239453773584636" lon="13.967846355755924"><ele>241.0</ele><time>2026-04-04T14:11:59Z</time></trkpt><trkpt lat="41.23929352486551" lon="13.967787019196171"><ele>241.0</ele><time>2026-04-04T14:12:00.001Z</time></trkpt><trkpt lat="41.239148807363414" lon="13.967732111536955"><ele>241.0</ele><time>2026-04-04T14:12:01.001Z</time></trkpt><trkpt lat="41.23901180642902" lon="13.967694683797415"><ele>241.0</ele><time>2026-04-04T14:12:02.001Z</time></trkpt><trkpt lat="41.23888495928297" lon="13.967663985092646"><ele>241.0</ele><time>2026-04-04T14:12:03.001Z</time></trkpt><trkpt lat="41.23876630497718" lon="13.967646278965535"><ele>241.0</ele><time>2026-04-04T14:12:04.001Z</time></trkpt><trkpt lat="41.238655179357096" lon="13.967627318917982"><ele>240.60000000000002</ele><time>2026-04-04T14:12:05.001Z</time></trkpt><trkpt lat="41.23854677674695" lon="13.96760940327591"><ele>240.20000000000002</ele><time>2026-04-04T14:12:06.001Z</time></trkpt><trkpt lat="41.23844019835984" lon="13.967587548170771"><ele>239.79999999999998</ele><time>2026-04-04T14:12:07.001Z</time></trkpt><trkpt lat="41.23832902775196" lon="13.96756845621781"><ele>239.39999999999998</ele><time>2026-04-04T14:12:08.001Z</time></trkpt><trkpt lat="41.23821755032189" lon="13.967548576259965"><ele>239.0</ele><time>2026-04-04T14:12:09.001Z</time></trkpt><trkpt lat="41.238106583760754" lon="13.967531453566577"><ele>233.0</ele><time>2026-04-04T14:12:10.001Z</time></trkpt><trkpt lat="41.23800187948247" lon="13.967514250803486"><ele>226.99999999999997</ele><time>2026-04-04T14:12:11.001Z</time></trkpt><trkpt lat="41.237892784742016" lon="13.967493829410111"><ele>221.0</ele><time>2026-04-04T14:12:12.001Z</time></trkpt><trkpt lat="41.23778742415169" lon="13.967459666011775"><ele>215.0</ele><time>2026-04-04T14:12:13.001Z</time></trkpt><trkpt lat="41.23768520490664" lon="13.967456167458316"><ele>209.0</ele><time>2026-04-04T14:12:14.001Z</time></trkpt><trkpt lat="41.237588935736" lon="13.967450458443224"><ele>209.0</ele><time>2026-04-04T14:12:15.001Z</time></trkpt><trkpt lat="41.237499348634586" lon="13.967461099778388"><ele>209.0</ele><time>2026-04-04T14:12:16.001Z</time></trkpt><trkpt lat="41.23741099281663" lon="13.967491744265125"><ele>209.0</ele><time>2026-04-04T14:12:17.001Z</time></trkpt><trkpt lat="41.2373270708512" lon="13.967543861913072"><ele>209.0</ele><time>2026-04-04T14:12:18.001Z</time></trkpt><trkpt lat="41.237252731650216" lon="13.967607902099827"><ele>209.0</ele><time>2026-04-04T14:12:19.001Z</time></trkpt><trkpt lat="41.23717654011169" lon="13.967664084122456"><ele>208.83333333333334</ele><time>2026-04-04T14:12:20.001Z</time></trkpt><trkpt lat="41.23710867447627" lon="13.96772074425111"><ele>208.66666666666669</ele><time>2026-04-04T14:12:21.001Z</time></trkpt><trkpt lat="41.23704894894736" lon="13.967789620977857"><ele>208.5</ele><time>2026-04-04T14:12:22.001Z</time></trkpt><trkpt lat="41.23699254495452" lon="13.967881981336012"><ele>208.33333333333331</ele><time>2026-04-04T14:12:23.001Z</time></trkpt><trkpt lat="41.23695006516395" lon="13.96799521043651"><ele>208.16666666666666</ele><time>2026-04-04T14:12:24.001Z</time></trkpt><trkpt lat="41.23691902667735" lon="13.96812422359075"><ele>208.0</ele><time>2026-04-04T14:12:25.001Z</time></trkpt><trkpt lat="41.236889630589936" lon="13.96826186252028"><ele>209.0</ele><time>2026-04-04T14:12:26.001Z</time></trkpt><trkpt lat="41.23686219727021" lon="13.968402313291579"><ele>210.0</ele><time>2026-04-04T14:12:27.001Z</time></trkpt><trkpt lat="41.23683132433436" lon="13.968543413734665"><ele>211.0</ele><time>2026-04-04T14:12:28.001Z</time></trkpt><trkpt lat="41.23679954122505" lon="13.968686176213597"><ele>212.0</ele><time>2026-04-04T14:12:29.001Z</time></trkpt><trkpt lat="41.2367697745457" lon="13.968821452392048"><ele>213.0</ele><time>2026-04-04T14:12:30.001Z</time></trkpt><trkpt lat="41.236735089946485" lon="13.968961110557219"><ele>213.0</ele><time>2026-04-04T14:12:31.001Z</time></trkpt><trkpt lat="41.2366893248423" lon="13.969090789315727"><ele>213.0</ele><time>2026-04-04T14:12:32.001Z</time></trkpt><trkpt lat="41.23664325337616" lon="13.969204458913149"><ele>213.0</ele><time>2026-04-04T14:12:33.001Z</time></trkpt><trkpt lat="41.23659179612733" lon="13.969310842837583"><ele>213.0</ele><time>2026-04-04T14:12:34.001Z</time></trkpt><trkpt lat="41.236539623352556" lon="13.969421163294902"><ele>213.0</ele><time>2026-04-04T14:12:35.001Z</time></trkpt><trkpt lat="41.23650340216942" lon="13.969558384270782"><ele>213.75</ele><time>2026-04-04T14:12:36.001Z</time></trkpt><trkpt lat="41.236478939593376" lon="13.969725224109096"><ele>214.5</ele><time>2026-04-04T14:12:37.001Z</time></trkpt><trkpt lat="41.236451012455966" lon="13.969895306366835"><ele>215.25</ele><time>2026-04-04T14:12:38.001Z</time></trkpt><trkpt lat="41.23641852023432" lon="13.970060423985913"><ele>216.0</ele><time>2026-04-04T14:12:39.001Z</time></trkpt><trkpt lat="41.236390781892766" lon="13.970211487269887"><ele>214.5</ele><time>2026-04-04T14:12:40.001Z</time></trkpt><trkpt lat="41.236358593009" lon="13.970356600801122"><ele>213.0</ele><time>2026-04-04T14:12:41.001Z</time></trkpt><trkpt lat="41.23632184648055" lon="13.970497096109764"><ele>211.5</ele><time>2026-04-04T14:12:42.001Z</time></trkpt><trkpt lat="41.23629293376018" lon="13.97065574583377"><ele>210.0</ele><time>2026-04-04T14:12:43.001Z</time></trkpt><trkpt lat="41.236254661160004" lon="13.970821876543955"><ele>211.25</ele><time>2026-04-04T14:12:44.001Z</time></trkpt><trkpt lat="41.23619214902559" lon="13.970981767334589"><ele>212.5</ele><time>2026-04-04T14:12:45.001Z</time></trkpt><trkpt lat="41.23612060814405" lon="13.971136343775628"><ele>213.75</ele><time>2026-04-04T14:12:46.001Z</time></trkpt><trkpt lat="41.23605356575634" lon="13.9712865590406"><ele>215.0</ele><time>2026-04-04T14:12:47.001Z</time></trkpt><trkpt lat="41.235993919229784" lon="13.971440121776462"><ele>215.0</ele><time>2026-04-04T14:12:48.001Z</time></trkpt><trkpt lat="41.23593639670111" lon="13.971579711721704"><ele>215.0</ele><time>2026-04-04T14:12:49.001Z</time></trkpt><trkpt lat="41.23588047403605" lon="13.971704050429153"><ele>215.0</ele><time>2026-04-04T14:12:50.001Z</time></trkpt><trkpt lat="41.235830102721856" lon="13.971809522483895"><ele>215.0</ele><time>2026-04-04T14:12:51.001Z</time></trkpt><trkpt lat="41.235784881545165" lon="13.97190515561324"><ele>215.0</ele><time>2026-04-04T14:12:52.001Z</time></trkpt><trkpt lat="41.235737763569645" lon="13.971982381131648"><ele>215.50000000000003</ele><time>2026-04-04T14:12:53.001Z</time></trkpt><trkpt lat="41.235683402127584" lon="13.972033273316182"><ele>216.0</ele><time>2026-04-04T14:12:54.001Z</time></trkpt><trkpt lat="41.23559683969512" lon="13.972026666326528"><ele>216.5</ele><time>2026-04-04T14:12:56.001Z</time></trkpt><trkpt lat="41.23553177817635" lon="13.971940580373719"><ele>217.0</ele><time>2026-04-04T14:12:59.002Z</time></trkpt><trkpt lat="41.235547791244294" lon="13.971834447343312"><ele>217.50000000000003</ele><time>2026-04-04T14:13:47Z</time></trkpt><trkpt lat="41.23549730633049" lon="13.971717680085563"><ele>218.0</ele><time>2026-04-04T14:13:49Z</time></trkpt><trkpt lat="41.23546470127851" lon="13.97162381761343"><ele>218.25</ele><time>2026-04-04T14:13:50Z</time></trkpt><trkpt lat="41.23541401408189" lon="13.971516768555826"><ele>218.5</ele><time>2026-04-04T14:13:51Z</time></trkpt><trkpt lat="41.235373844346405" lon="13.97137629225885"><ele>218.75</ele><time>2026-04-04T14:13:52Z</time></trkpt><trkpt lat="41.23531929100069" lon="13.971237693541928"><ele>219.0</ele><time>2026-04-04T14:13:53Z</time></trkpt><trkpt lat="41.23525234526885" lon="13.971096287116005"><ele>219.0</ele><time>2026-04-04T14:13:54Z</time></trkpt><trkpt lat="41.235181246998444" lon="13.970955789583844"><ele>218.99999999999997</ele><time>2026-04-04T14:13:55Z</time></trkpt><trkpt lat="41.23511947187044" lon="13.970836736468227"><ele>218.99999999999997</ele><time>2026-04-04T14:13:56Z</time></trkpt><trkpt lat="41.235058229956564" lon="13.9707262587867"><ele>219.0</ele><time>2026-04-04T14:13:57Z</time></trkpt><trkpt lat="41.234992191072955" lon="13.970611682724298"><ele>219.0</ele><time>2026-04-04T14:13:58Z</time></trkpt><trkpt lat="41.234937797285326" lon="13.970491602086032"><ele>218.2</ele><time>2026-04-04T14:13:59Z</time></trkpt><trkpt lat="41.234882870324775" lon="13.970384074071507"><ele>217.39999999999998</ele><time>2026-04-04T14:14:00Z</time></trkpt><trkpt lat="41.2348305082084" lon="13.970279601254756"><ele>216.6</ele><time>2026-04-04T14:14:01Z</time></trkpt><trkpt lat="41.23477553434623" lon="13.9701791452085"><ele>215.8</ele><time>2026-04-04T14:14:02Z</time></trkpt><trkpt lat="41.23472522125958" lon="13.970087560192981"><ele>215.0</ele><time>2026-04-04T14:14:03Z</time></trkpt><trkpt lat="41.234666618322905" lon="13.96997708734382"><ele>214.0</ele><time>2026-04-04T14:14:04Z</time></trkpt><trkpt lat="41.234616087539194" lon="13.96986452952925"><ele>213.0</ele><time>2026-04-04T14:14:05Z</time></trkpt><trkpt lat="41.23456349709918" lon="13.969754291964906"><ele>212.0</ele><time>2026-04-04T14:14:06Z</time></trkpt><trkpt lat="41.23451248391924" lon="13.969628106382382"><ele>211.0</ele><time>2026-04-04T14:14:07Z</time></trkpt><trkpt lat="41.234454726603666" lon="13.96951350316294"><ele>210.0</ele><time>2026-04-04T14:14:08Z</time></trkpt><trkpt lat="41.23439872448198" lon="13.969399083017876"><ele>210.0</ele><time>2026-04-04T14:14:09Z</time></trkpt><trkpt lat="41.23434609627399" lon="13.969293400027444"><ele>210.0</ele><time>2026-04-04T14:14:10Z</time></trkpt><trkpt lat="41.23430026865411" lon="13.969196533430841"><ele>210.0</ele><time>2026-04-04T14:14:11Z</time></trkpt><trkpt lat="41.234255001135324" lon="13.969100511714442"><ele>210.0</ele><time>2026-04-04T14:14:12Z</time></trkpt><trkpt lat="41.23421561831308" lon="13.96901144263639"><ele>210.0</ele><time>2026-04-04T14:14:13.001Z</time></trkpt><trkpt lat="41.234160255686554" lon="13.9689056134541"><ele>210.0</ele><time>2026-04-04T14:14:14.001Z</time></trkpt><trkpt lat="41.23409010758206" lon="13.96877977161234"><ele>209.75</ele><time>2026-04-04T14:14:15.001Z</time></trkpt><trkpt lat="41.234008238613676" lon="13.968636945774895"><ele>209.5</ele><time>2026-04-04T14:14:16.001Z</time></trkpt><trkpt lat="41.23393646646362" lon="13.968490594014984"><ele>209.25</ele><time>2026-04-04T14:14:17.001Z</time></trkpt><trkpt lat="41.23385528593429" lon="13.968347543470035"><ele>209.0</ele><time>2026-04-04T14:14:18.001Z</time></trkpt><trkpt lat="41.233762484822094" lon="13.96818691620962"><ele>207.66666666666669</ele><time>2026-04-04T14:14:19.001Z</time></trkpt><trkpt lat="41.23365054649065" lon="13.968020959159553"><ele>206.33333333333331</ele><time>2026-04-04T14:14:20.001Z</time></trkpt><trkpt lat="41.23352549028786" lon="13.967840999564862"><ele>205.0</ele><time>2026-04-04T14:14:21.001Z</time></trkpt><trkpt lat="41.23340039752607" lon="13.967623724196834"><ele>204.0</ele><time>2026-04-04T14:14:22.001Z</time></trkpt><trkpt lat="41.23327448102063" lon="13.967405193752551"><ele>203.0</ele><time>2026-04-04T14:14:23.001Z</time></trkpt><trkpt lat="41.233140584243145" lon="13.967197024835915"><ele>202.0</ele><time>2026-04-04T14:14:24.001Z</time></trkpt><trkpt lat="41.233009758641764" lon="13.967003352485937"><ele>202.33333333333331</ele><time>2026-04-04T14:14:25.001Z</time></trkpt><trkpt lat="41.232883527411126" lon="13.966810193516562"><ele>202.66666666666669</ele><time>2026-04-04T14:14:26.001Z</time></trkpt><trkpt lat="41.232774318236906" lon="13.966634859815242"><ele>203.0</ele><time>2026-04-04T14:14:27.001Z</time></trkpt><trkpt lat="41.232671856136" lon="13.96647590807843"><ele>203.0</ele><time>2026-04-04T14:14:28.001Z</time></trkpt><trkpt lat="41.232569978010076" lon="13.966310668216355"><ele>203.0</ele><time>2026-04-04T14:14:29.001Z</time></trkpt><trkpt lat="41.23247772080845" lon="13.966168945577461"><ele>203.0</ele><time>2026-04-04T14:14:30.001Z</time></trkpt><trkpt lat="41.232389823829784" lon="13.966030155352719"><ele>203.0</ele><time>2026-04-04T14:14:31.001Z</time></trkpt><trkpt lat="41.232306949974145" lon="13.965902090634065"><ele>201.8</ele><time>2026-04-04T14:14:32.001Z</time></trkpt><trkpt lat="41.232230958731044" lon="13.965783383476603"><ele>200.60000000000002</ele><time>2026-04-04T14:14:33.001Z</time></trkpt><trkpt lat="41.23215784399519" lon="13.965670633159073"><ele>199.39999999999998</ele><time>2026-04-04T14:14:34.001Z</time></trkpt><trkpt lat="41.232104946467345" lon="13.965583739821884"><ele>198.2</ele><time>2026-04-04T14:14:35.001Z</time></trkpt><trkpt lat="41.2320594274126" lon="13.965497519574134"><ele>197.0</ele><time>2026-04-04T14:14:36.001Z</time></trkpt><trkpt lat="41.23199044023407" lon="13.965407781732162"><ele>197.0</ele><time>2026-04-04T14:14:38.001Z</time></trkpt><trkpt lat="41.231926783912954" lon="13.965325938327842"><ele>197.0</ele><time>2026-04-04T14:14:40.001Z</time></trkpt><trkpt lat="41.23184752334168" lon="13.965243870050607"><ele>197.0</ele><time>2026-04-04T14:14:42.001Z</time></trkpt><trkpt lat="41.23173940609617" lon="13.965128752764583"><ele>197.0</ele><time>2026-04-04T14:14:44.001Z</time></trkpt><trkpt lat="41.23165021628733" lon="13.965065494235676"><ele>197.0</ele><time>2026-04-04T14:14:45.001Z</time></trkpt><trkpt lat="41.23152572525356" lon="13.964983270119951"><ele>194.66666666666669</ele><time>2026-04-04T14:14:46.001Z</time></trkpt><trkpt lat="41.23139050617826" lon="13.96487511819899"><ele>192.33333333333334</ele><time>2026-04-04T14:14:47.001Z</time></trkpt><trkpt lat="41.231254827236235" lon="13.964758983481504"><ele>190.0</ele><time>2026-04-04T14:14:48.001Z</time></trkpt><trkpt lat="41.23110389135822" lon="13.964641262890654"><ele>190.0</ele><time>2026-04-04T14:14:49.001Z</time></trkpt><trkpt lat="41.230954551980425" lon="13.964533878287972"><ele>190.0</ele><time>2026-04-04T14:14:50.001Z</time></trkpt><trkpt lat="41.23082537956033" lon="13.96442875886898"><ele>190.0</ele><time>2026-04-04T14:14:51.001Z</time></trkpt><trkpt lat="41.23069462234132" lon="13.964326223511886"><ele>190.4</ele><time>2026-04-04T14:14:52.001Z</time></trkpt><trkpt lat="41.23058007952854" lon="13.964240145598708"><ele>190.8</ele><time>2026-04-04T14:14:53.001Z</time></trkpt><trkpt lat="41.23048110034686" lon="13.964171184193395"><ele>191.2</ele><time>2026-04-04T14:14:54.001Z</time></trkpt><trkpt lat="41.23039452298376" lon="13.964111860259818"><ele>191.6</ele><time>2026-04-04T14:14:55.001Z</time></trkpt><trkpt lat="41.23033123264903" lon="13.964076128897501"><ele>192.0</ele><time>2026-04-04T14:14:56.001Z</time></trkpt><trkpt lat="41.2302396753517" lon="13.964052585231013"><ele>193.75</ele><time>2026-04-04T14:14:58.001Z</time></trkpt><trkpt lat="41.2301803755378" lon="13.964239444275325"><ele>195.5</ele><time>2026-04-04T14:15:04.001Z</time></trkpt><trkpt lat="41.23022705604199" lon="13.964375388008067"><ele>197.25</ele><time>2026-04-04T14:15:05.001Z</time></trkpt><trkpt lat="41.23025491769829" lon="13.964539324992115"><ele>199.0</ele><time>2026-04-04T14:15:06.001Z</time></trkpt><trkpt lat="41.23030864959835" lon="13.964739794308432"><ele>199.0</ele><time>2026-04-04T14:15:07.001Z</time></trkpt><trkpt lat="41.230325110351636" lon="13.964960312799695"><ele>199.0</ele><time>2026-04-04T14:15:08.002Z</time></trkpt><trkpt lat="41.23035908612935" lon="13.965217350690931"><ele>199.0</ele><time>2026-04-04T14:15:09.002Z</time></trkpt><trkpt lat="41.230395981176315" lon="13.965487728177136"><ele>200.66666666666666</ele><time>2026-04-04T14:15:10.002Z</time></trkpt><trkpt lat="41.23043461542558" lon="13.965754019416655"><ele>202.33333333333331</ele><time>2026-04-04T14:15:11.002Z</time></trkpt><trkpt lat="41.230474213586795" lon="13.966033802557135"><ele>204.0</ele><time>2026-04-04T14:15:12.002Z</time></trkpt><trkpt lat="41.23051734423877" lon="13.966319184025433"><ele>206.5</ele><time>2026-04-04T14:15:13.002Z</time></trkpt><trkpt lat="41.230563469471825" lon="13.966611565801122"><ele>209.0</ele><time>2026-04-04T14:15:14.002Z</time></trkpt><trkpt lat="41.23060545509883" lon="13.966907668888487"><ele>210.0</ele><time>2026-04-04T14:15:15.002Z</time></trkpt><trkpt lat="41.230643985621974" lon="13.96720508294719"><ele>211.0</ele><time>2026-04-04T14:15:16.002Z</time></trkpt><trkpt lat="41.23068257536517" lon="13.967500274837494"><ele>213.0</ele><time>2026-04-04T14:15:17.002Z</time></trkpt><trkpt lat="41.230717679737666" lon="13.967795817424511"><ele>215.0</ele><time>2026-04-04T14:15:18.002Z</time></trkpt><trkpt lat="41.230752825209144" lon="13.96809146255097"><ele>216.33333333333334</ele><time>2026-04-04T14:15:19.002Z</time></trkpt><trkpt lat="41.23078238153839" lon="13.968360891081456"><ele>217.66666666666669</ele><time>2026-04-04T14:15:20.002Z</time></trkpt><trkpt lat="41.23079831715149" lon="13.968595919256002"><ele>219.0</ele><time>2026-04-04T14:15:21.002Z</time></trkpt><trkpt lat="41.230825239591645" lon="13.968813350762971"><ele>219.0</ele><time>2026-04-04T14:15:22.002Z</time></trkpt><trkpt lat="41.230846451861574" lon="13.969000970225485"><ele>219.0</ele><time>2026-04-04T14:15:23.002Z</time></trkpt><trkpt lat="41.23086907524999" lon="13.969192109612578"><ele>219.0</ele><time>2026-04-04T14:15:24.002Z</time></trkpt><trkpt lat="41.23088092409768" lon="13.969385175801959"><ele>219.0</ele><time>2026-04-04T14:15:25.002Z</time></trkpt><trkpt lat="41.23089184081184" lon="13.969584200922776"><ele>220.25</ele><time>2026-04-04T14:15:26.002Z</time></trkpt><trkpt lat="41.23088995146085" lon="13.969778444767785"><ele>221.5</ele><time>2026-04-04T14:15:27.002Z</time></trkpt><trkpt lat="41.2308650859" lon="13.969927067520509"><ele>222.75</ele><time>2026-04-04T14:15:28.002Z</time></trkpt><trkpt lat="41.230860625480844" lon="13.970081510239616"><ele>224.0</ele><time>2026-04-04T14:15:29.002Z</time></trkpt><trkpt lat="41.23085574865979" lon="13.970218274053009"><ele>225.25</ele><time>2026-04-04T14:15:30.002Z</time></trkpt><trkpt lat="41.23086236379669" lon="13.970346544674054"><ele>226.5</ele><time>2026-04-04T14:15:31.002Z</time></trkpt><trkpt lat="41.230877805942036" lon="13.970493737021696"><ele>227.75</ele><time>2026-04-04T14:15:32.002Z</time></trkpt><trkpt lat="41.230878248899295" lon="13.970662285515806"><ele>229.0</ele><time>2026-04-04T14:15:33.002Z</time></trkpt><trkpt lat="41.230862342686805" lon="13.97085391798243"><ele>229.25</ele><time>2026-04-04T14:15:34.002Z</time></trkpt><trkpt lat="41.23085049720878" lon="13.971026111318352"><ele>229.5</ele><time>2026-04-04T14:15:35Z</time></trkpt><trkpt lat="41.23082935486328" lon="13.971194064448698"><ele>229.75</ele><time>2026-04-04T14:15:36Z</time></trkpt><trkpt lat="41.23079912591452" lon="13.971358415915192"><ele>230.0</ele><time>2026-04-04T14:15:37Z</time></trkpt><trkpt lat="41.23075453715255" lon="13.971524230688418"><ele>228.33333333333334</ele><time>2026-04-04T14:15:38Z</time></trkpt><trkpt lat="41.230699525257045" lon="13.971715272767781"><ele>226.66666666666669</ele><time>2026-04-04T14:15:39Z</time></trkpt><trkpt lat="41.23063760650369" lon="13.97192309098647"><ele>225.0</ele><time>2026-04-04T14:15:40Z</time></trkpt><trkpt lat="41.230559090209404" lon="13.972146488911342"><ele>225.0</ele><time>2026-04-04T14:15:41Z</time></trkpt><trkpt lat="41.23046308492446" lon="13.972368261912388"><ele>225.0</ele><time>2026-04-04T14:15:42Z</time></trkpt><trkpt lat="41.230349754963626" lon="13.972593980500482"><ele>225.0</ele><time>2026-04-04T14:15:43Z</time></trkpt><trkpt lat="41.23022981780325" lon="13.972825526713281"><ele>220.33333333333331</ele><time>2026-04-04T14:15:44Z</time></trkpt><trkpt lat="41.23010642710999" lon="13.973065263557256"><ele>215.66666666666666</ele><time>2026-04-04T14:15:45Z</time></trkpt><trkpt lat="41.22998894728517" lon="13.973299913020423"><ele>211.0</ele><time>2026-04-04T14:15:46Z</time></trkpt><trkpt lat="41.22987379328782" lon="13.973537459132919"><ele>207.66666666666666</ele><time>2026-04-04T14:15:47Z</time></trkpt><trkpt lat="41.22976254745418" lon="13.973778417273687"><ele>204.33333333333331</ele><time>2026-04-04T14:15:48Z</time></trkpt><trkpt lat="41.22965876853266" lon="13.974029601307839"><ele>201.0</ele><time>2026-04-04T14:15:49Z</time></trkpt><trkpt lat="41.22955562059092" lon="13.974278382904123"><ele>199.0</ele><time>2026-04-04T14:15:50Z</time></trkpt><trkpt lat="41.22945270270473" lon="13.97452716548896"><ele>197.0</ele><time>2026-04-04T14:15:51Z</time></trkpt><trkpt lat="41.22937116620708" lon="13.974778400367557"><ele>195.0</ele><time>2026-04-04T14:15:52Z</time></trkpt><trkpt lat="41.22926477264883" lon="13.974998710037406"><ele>193.66666666666666</ele><time>2026-04-04T14:15:53Z</time></trkpt><trkpt lat="41.22917857978586" lon="13.975234251772916"><ele>192.33333333333331</ele><time>2026-04-04T14:15:54Z</time></trkpt><trkpt lat="41.229087836198964" lon="13.975463600124447"><ele>191.0</ele><time>2026-04-04T14:15:55Z</time></trkpt><trkpt lat="41.22899028529377" lon="13.975695192322133"><ele>195.66666666666666</ele><time>2026-04-04T14:15:56Z</time></trkpt><trkpt lat="41.228886465382885" lon="13.975936865522371"><ele>200.33333333333331</ele><time>2026-04-04T14:15:57Z</time></trkpt><trkpt lat="41.2287782995786" lon="13.976178394435584"><ele>205.0</ele><time>2026-04-04T14:15:58Z</time></trkpt><trkpt lat="41.228663911559835" lon="13.976424809340314"><ele>205.0</ele><time>2026-04-04T14:15:59Z</time></trkpt><trkpt lat="41.22854863212897" lon="13.976669206566358"><ele>205.0</ele><time>2026-04-04T14:16:00Z</time></trkpt><trkpt lat="41.228434065034264" lon="13.976907553743503"><ele>205.0</ele><time>2026-04-04T14:16:01Z</time></trkpt><trkpt lat="41.22832035529933" lon="13.97713689598113"><ele>201.0</ele><time>2026-04-04T14:16:02Z</time></trkpt><trkpt lat="41.22820795076795" lon="13.977340259670633"><ele>197.0</ele><time>2026-04-04T14:16:03Z</time></trkpt><trkpt lat="41.22807939818745" lon="13.977544145222273"><ele>193.0</ele><time>2026-04-04T14:16:04Z</time></trkpt><trkpt lat="41.22794250013305" lon="13.977743840525296"><ele>193.0</ele><time>2026-04-04T14:16:05Z</time></trkpt><trkpt lat="41.227804419354925" lon="13.977942209661965"><ele>193.0</ele><time>2026-04-04T14:16:06Z</time></trkpt><trkpt lat="41.227661453775305" lon="13.978145793070967"><ele>193.0</ele><time>2026-04-04T14:16:07Z</time></trkpt><trkpt lat="41.2275135880782" lon="13.978351304763756"><ele>190.33333333333331</ele><time>2026-04-04T14:16:08Z</time></trkpt><trkpt lat="41.22735795440215" lon="13.978557695901182"><ele>187.66666666666666</ele><time>2026-04-04T14:16:09Z</time></trkpt><trkpt lat="41.22720370854475" lon="13.978765196977815"><ele>185.0</ele><time>2026-04-04T14:16:10Z</time></trkpt><trkpt lat="41.227072397583825" lon="13.978936761182487"><ele>185.0</ele><time>2026-04-04T14:16:11Z</time></trkpt><trkpt lat="41.226962807179525" lon="13.979076222573124"><ele>185.0</ele><time>2026-04-04T14:16:12Z</time></trkpt><trkpt lat="41.2268644585744" lon="13.979200246124192"><ele>185.0</ele><time>2026-04-04T14:16:13Z</time></trkpt><trkpt lat="41.226793045747094" lon="13.979332828877407"><ele>185.0</ele><time>2026-04-04T14:16:14Z</time></trkpt><trkpt lat="41.226669148590446" lon="13.979454558553478"><ele>183.33333333333331</ele><time>2026-04-04T14:16:15Z</time></trkpt><trkpt lat="41.22654902562595" lon="13.979619651829534"><ele>181.66666666666666</ele><time>2026-04-04T14:16:16Z</time></trkpt><trkpt lat="41.22641709938755" lon="13.979802751164073"><ele>180.0</ele><time>2026-04-04T14:16:17Z</time></trkpt><trkpt lat="41.22627685332782" lon="13.9799990783242"><ele>179.33333333333334</ele><time>2026-04-04T14:16:18Z</time></trkpt><trkpt lat="41.226125715463304" lon="13.980201696049924"><ele>178.66666666666669</ele><time>2026-04-04T14:16:19Z</time></trkpt><trkpt lat="41.22597011197752" lon="13.980422267805377"><ele>178.0</ele><time>2026-04-04T14:16:20Z</time></trkpt><trkpt lat="41.2258093305404" lon="13.98063361664504"><ele>178.0</ele><time>2026-04-04T14:16:21Z</time></trkpt><trkpt lat="41.225647532041926" lon="13.980839081225081"><ele>178.0</ele><time>2026-04-04T14:16:22Z</time></trkpt><trkpt lat="41.22548052266362" lon="13.98104786907005"><ele>180.0</ele><time>2026-04-04T14:16:23Z</time></trkpt><trkpt lat="41.22531109020463" lon="13.981263191846203"><ele>182.0</ele><time>2026-04-04T14:16:24Z</time></trkpt><trkpt lat="41.22513426032926" lon="13.98147893042851"><ele>179.5</ele><time>2026-04-04T14:16:25.001Z</time></trkpt><trkpt lat="41.22496008323464" lon="13.981699003736155"><ele>177.0</ele><time>2026-04-04T14:16:26.001Z</time></trkpt><trkpt lat="41.224787034142594" lon="13.981913666929916"><ele>177.0</ele><time>2026-04-04T14:16:27.001Z</time></trkpt><trkpt lat="41.22460341240031" lon="13.982136575885935"><ele>177.0</ele><time>2026-04-04T14:16:28.001Z</time></trkpt><trkpt lat="41.22441356454053" lon="13.982378348700061"><ele>179.5</ele><time>2026-04-04T14:16:29.001Z</time></trkpt><trkpt lat="41.22421116329092" lon="13.982614625081997"><ele>182.0</ele><time>2026-04-04T14:16:30.001Z</time></trkpt><trkpt lat="41.224012160423584" lon="13.982868055510883"><ele>180.5</ele><time>2026-04-04T14:16:31.001Z</time></trkpt><trkpt lat="41.22381185891942" lon="13.983123931422679"><ele>179.0</ele><time>2026-04-04T14:16:32.001Z</time></trkpt><trkpt lat="41.22361266841827" lon="13.983379308555353"><ele>179.0</ele><time>2026-04-04T14:16:33.001Z</time></trkpt><trkpt lat="41.223417503151715" lon="13.983633581896102"><ele>179.0</ele><time>2026-04-04T14:16:34.001Z</time></trkpt><trkpt lat="41.22323450873656" lon="13.983908545491637"><ele>174.5</ele><time>2026-04-04T14:16:35.001Z</time></trkpt><trkpt lat="41.22304132579884" lon="13.984164836579597"><ele>170.0</ele><time>2026-04-04T14:16:36.001Z</time></trkpt><trkpt lat="41.22286161349531" lon="13.98441135372569"><ele>168.5</ele><time>2026-04-04T14:16:37.001Z</time></trkpt><trkpt lat="41.22268031771455" lon="13.98463400703762"><ele>167.0</ele><time>2026-04-04T14:16:38.001Z</time></trkpt><trkpt lat="41.222516804963824" lon="13.984857814109152"><ele>166.66666666666666</ele><time>2026-04-04T14:16:39.001Z</time></trkpt><trkpt lat="41.2223597830956" lon="13.985072736819049"><ele>166.33333333333334</ele><time>2026-04-04T14:16:40.001Z</time></trkpt><trkpt lat="41.22221055493649" lon="13.985276343189819"><ele>166.0</ele><time>2026-04-04T14:16:41.001Z</time></trkpt><trkpt lat="41.22206934619853" lon="13.985468713264908"><ele>166.0</ele><time>2026-04-04T14:16:42.001Z</time></trkpt><trkpt lat="41.221947974263585" lon="13.98563405953144"><ele>166.0</ele><time>2026-04-04T14:16:43.001Z</time></trkpt><trkpt lat="41.22183062595484" lon="13.985793924367963"><ele>166.0</ele><time>2026-04-04T14:16:44.001Z</time></trkpt><trkpt lat="41.22173323236699" lon="13.985979019100984"><ele>167.66666666666669</ele><time>2026-04-04T14:16:45.001Z</time></trkpt><trkpt lat="41.221594452829116" lon="13.986124949662681"><ele>169.33333333333334</ele><time>2026-04-04T14:16:46.001Z</time></trkpt><trkpt lat="41.22143318834826" lon="13.986231738325493"><ele>171.0</ele><time>2026-04-04T14:16:47.001Z</time></trkpt><trkpt lat="41.221265515951615" lon="13.986297354007183"><ele>171.0</ele><time>2026-04-04T14:16:48.001Z</time></trkpt><trkpt lat="41.22107031148863" lon="13.986329531339823"><ele>171.0</ele><time>2026-04-04T14:16:49.001Z</time></trkpt><trkpt lat="41.22084733493446" lon="13.986325980805606"><ele>171.0</ele><time>2026-04-04T14:16:50.001Z</time></trkpt><trkpt lat="41.22061565293677" lon="13.986315935910552"><ele>170.5</ele><time>2026-04-04T14:16:51.001Z</time></trkpt><trkpt lat="41.220378497633945" lon="13.986303631396568"><ele>170.0</ele><time>2026-04-04T14:16:52.001Z</time></trkpt><trkpt lat="41.22013466073419" lon="13.986302249738879"><ele>170.0</ele><time>2026-04-04T14:16:53.001Z</time></trkpt><trkpt lat="41.21988312944018" lon="13.98630340645669"><ele>170.0</ele><time>2026-04-04T14:16:54.001Z</time></trkpt><trkpt lat="41.219625988723884" lon="13.98630168562667"><ele>171.5</ele><time>2026-04-04T14:16:55.001Z</time></trkpt><trkpt lat="41.21936447514969" lon="13.986301490698297"><ele>173.0</ele><time>2026-04-04T14:16:56.001Z</time></trkpt><trkpt lat="41.219113337439445" lon="13.98629666149767"><ele>170.5</ele><time>2026-04-04T14:16:57.001Z</time></trkpt><trkpt lat="41.21887725945896" lon="13.98628987410292"><ele>168.0</ele><time>2026-04-04T14:16:58.001Z</time></trkpt><trkpt lat="41.21864990742716" lon="13.986295456219517"><ele>168.0</ele><time>2026-04-04T14:16:59.001Z</time></trkpt><trkpt lat="41.218423111148056" lon="13.986302363684059"><ele>168.0</ele><time>2026-04-04T14:17:00.001Z</time></trkpt><trkpt lat="41.21819478104926" lon="13.986323426856973"><ele>165.5</ele><time>2026-04-04T14:17:01.001Z</time></trkpt><trkpt lat="41.217967147316756" lon="13.986366260440136"><ele>163.0</ele><time>2026-04-04T14:17:02.001Z</time></trkpt><trkpt lat="41.21773811170983" lon="13.986438910342807"><ele>163.0</ele><time>2026-04-04T14:17:03.001Z</time></trkpt><trkpt lat="41.217515543373956" lon="13.986542057249709"><ele>163.0</ele><time>2026-04-04T14:17:04.001Z</time></trkpt><trkpt lat="41.21730908526927" lon="13.986678332464194"><ele>166.5</ele><time>2026-04-04T14:17:05.001Z</time></trkpt><trkpt lat="41.21711786948405" lon="13.986855347057032"><ele>170.0</ele><time>2026-04-04T14:17:06.001Z</time></trkpt><trkpt lat="41.216933867914186" lon="13.987067412781638"><ele>170.0</ele><time>2026-04-04T14:17:07.001Z</time></trkpt><trkpt lat="41.21675636295657" lon="13.98729637687696"><ele>170.0</ele><time>2026-04-04T14:17:08.001Z</time></trkpt><trkpt lat="41.216566377243815" lon="13.987529857426683"><ele>170.0</ele><time>2026-04-04T14:17:09.001Z</time></trkpt><trkpt lat="41.216377992361394" lon="13.987769785176543"><ele>170.0</ele><time>2026-04-04T14:17:10.001Z</time></trkpt><trkpt lat="41.21618871392264" lon="13.988017370591695"><ele>170.0</ele><time>2026-04-04T14:17:11.001Z</time></trkpt><trkpt lat="41.2159937982955" lon="13.988270861188989"><ele>170.0</ele><time>2026-04-04T14:17:12.001Z</time></trkpt><trkpt lat="41.2158006592891" lon="13.988528164243498"><ele>167.5</ele><time>2026-04-04T14:17:13.001Z</time></trkpt><trkpt lat="41.21560629773011" lon="13.98878850013607"><ele>165.0</ele><time>2026-04-04T14:17:14.001Z</time></trkpt><trkpt lat="41.21541209353145" lon="13.989050440948441"><ele>161.5</ele><time>2026-04-04T14:17:15.001Z</time></trkpt><trkpt lat="41.21520532473183" lon="13.989320301160761"><ele>158.0</ele><time>2026-04-04T14:17:16.002Z</time></trkpt><trkpt lat="41.21499092134967" lon="13.989595934110673"><ele>157.5</ele><time>2026-04-04T14:17:17.002Z</time></trkpt><trkpt lat="41.21477455056478" lon="13.989876075116015"><ele>157.0</ele><time>2026-04-04T14:17:18.002Z</time></trkpt><trkpt lat="41.214555352186544" lon="13.990158854303305"><ele>155.0</ele><time>2026-04-04T14:17:19.002Z</time></trkpt><trkpt lat="41.21433133406945" lon="13.990448385651149"><ele>153.0</ele><time>2026-04-04T14:17:20.002Z</time></trkpt><trkpt lat="41.21410321953839" lon="13.990747000041756"><ele>148.0</ele><time>2026-04-04T14:17:21.002Z</time></trkpt><trkpt lat="41.21387408186724" lon="13.99104492530833"><ele>143.0</ele><time>2026-04-04T14:17:22.002Z</time></trkpt><trkpt lat="41.21364447375992" lon="13.991347598324705"><ele>143.0</ele><time>2026-04-04T14:17:23.002Z</time></trkpt><trkpt lat="41.21341291435799" lon="13.991651788969632"><ele>143.0</ele><time>2026-04-04T14:17:24.002Z</time></trkpt><trkpt lat="41.213180540794774" lon="13.99195635244251"><ele>138.0</ele><time>2026-04-04T14:17:25.002Z</time></trkpt><trkpt lat="41.21294584699471" lon="13.992265544327395"><ele>133.0</ele><time>2026-04-04T14:17:26.002Z</time></trkpt><trkpt lat="41.21270666926726" lon="13.992575160555246"><ele>130.5</ele><time>2026-04-04T14:17:27.002Z</time></trkpt><trkpt lat="41.2124718455602" lon="13.992884512346123"><ele>128.0</ele><time>2026-04-04T14:17:28.002Z</time></trkpt><trkpt lat="41.21223605472647" lon="13.993202551055363"><ele>125.5</ele><time>2026-04-04T14:17:29.002Z</time></trkpt><trkpt lat="41.21199712981279" lon="13.99352925788217"><ele>123.0</ele><time>2026-04-04T14:17:30.002Z</time></trkpt><trkpt lat="41.211768715026196" lon="13.993846357219242"><ele>123.0</ele><time>2026-04-04T14:17:31.002Z</time></trkpt><trkpt lat="41.21155133071614" lon="13.994148817925616"><ele>123.0</ele><time>2026-04-04T14:17:32.002Z</time></trkpt><trkpt lat="41.21133324725616" lon="13.994442104729401"><ele>124.0</ele><time>2026-04-04T14:17:33.002Z</time></trkpt><trkpt lat="41.21111542257532" lon="13.994729149823577"><ele>125.0</ele><time>2026-04-04T14:17:34.002Z</time></trkpt><trkpt lat="41.21089802231056" lon="13.99501237015322"><ele>124.0</ele><time>2026-04-04T14:17:35.002Z</time></trkpt><trkpt lat="41.21067886799787" lon="13.995300562172707"><ele>123.0</ele><time>2026-04-04T14:17:36.002Z</time></trkpt><trkpt lat="41.21046419155926" lon="13.995587713683337"><ele>125.5</ele><time>2026-04-04T14:17:37.002Z</time></trkpt><trkpt lat="41.21024928672147" lon="13.995873009656156"><ele>128.0</ele><time>2026-04-04T14:17:38.002Z</time></trkpt><trkpt lat="41.21004439933845" lon="13.996145271186027"><ele>128.0</ele><time>2026-04-04T14:17:39.002Z</time></trkpt><trkpt lat="41.20984316351124" lon="13.996405620229934"><ele>128.0</ele><time>2026-04-04T14:17:40.002Z</time></trkpt><trkpt lat="41.209643100761134" lon="13.996668156054007"><ele>124.0</ele><time>2026-04-04T14:17:41Z</time></trkpt><trkpt lat="41.20944198496247" lon="13.996934414086502"><ele>120.0</ele><time>2026-04-04T14:17:42Z</time></trkpt><trkpt lat="41.20923967272389" lon="13.997203150717008"><ele>120.0</ele><time>2026-04-04T14:17:43Z</time></trkpt><trkpt lat="41.209045953447045" lon="13.997464230281418"><ele>120.0</ele><time>2026-04-04T14:17:44Z</time></trkpt><trkpt lat="41.20886238144224" lon="13.997715332738691"><ele>116.5</ele><time>2026-04-04T14:17:45Z</time></trkpt><trkpt lat="41.20867192667294" lon="13.997966142391626"><ele>113.0</ele><time>2026-04-04T14:17:46Z</time></trkpt><trkpt lat="41.20847773539399" lon="13.998216135457767"><ele>110.5</ele><time>2026-04-04T14:17:47Z</time></trkpt><trkpt lat="41.208282811117" lon="13.998470423180628"><ele>108.0</ele><time>2026-04-04T14:17:48Z</time></trkpt><trkpt lat="41.20807320227801" lon="13.998698920023566"><ele>107.0</ele><time>2026-04-04T14:17:49Z</time></trkpt><trkpt lat="41.20788287944527" lon="13.998952820579484"><ele>106.0</ele><time>2026-04-04T14:17:50Z</time></trkpt><trkpt lat="41.207695303440424" lon="13.999203056744603"><ele>105.0</ele><time>2026-04-04T14:17:51Z</time></trkpt><trkpt lat="41.20751705564619" lon="13.999440848586268"><ele>104.0</ele><time>2026-04-04T14:17:52Z</time></trkpt><trkpt lat="41.20733829245587" lon="13.999679327986723"><ele>102.5</ele><time>2026-04-04T14:17:53Z</time></trkpt><trkpt lat="41.20716013377522" lon="13.999916679743459"><ele>101.0</ele><time>2026-04-04T14:17:54Z</time></trkpt><trkpt lat="41.20698710074292" lon="14.000147834830432"><ele>101.0</ele><time>2026-04-04T14:17:55Z</time></trkpt><trkpt lat="41.20681153725847" lon="14.000380248481664"><ele>101.0</ele><time>2026-04-04T14:17:56Z</time></trkpt><trkpt lat="41.206634473873216" lon="14.00061464772222"><ele>100.5</ele><time>2026-04-04T14:17:57Z</time></trkpt><trkpt lat="41.20645611546791" lon="14.000851175354079"><ele>100.0</ele><time>2026-04-04T14:17:58Z</time></trkpt><trkpt lat="41.20627643280208" lon="14.00109003135945"><ele>100.0</ele><time>2026-04-04T14:17:59Z</time></trkpt><trkpt lat="41.206095823247544" lon="14.00133085843939"><ele>100.0</ele><time>2026-04-04T14:18:00Z</time></trkpt><trkpt lat="41.20591884888392" lon="14.001569024258115"><ele>100.5</ele><time>2026-04-04T14:18:01Z</time></trkpt><trkpt lat="41.20574227934491" lon="14.001806645276188"><ele>101.0</ele><time>2026-04-04T14:18:02Z</time></trkpt><trkpt lat="41.2055791448787" lon="14.002026185856893"><ele>101.0</ele><time>2026-04-04T14:18:03Z</time></trkpt><trkpt lat="41.20544997338028" lon="14.0022571079396"><ele>101.0</ele><time>2026-04-04T14:18:04Z</time></trkpt><trkpt lat="41.20531224160048" lon="14.002440386753616"><ele>101.0</ele><time>2026-04-04T14:18:05Z</time></trkpt><trkpt lat="41.205184700702766" lon="14.002610302597509"><ele>101.0</ele><time>2026-04-04T14:18:06Z</time></trkpt><trkpt lat="41.20506180928345" lon="14.002770293134517"><ele>101.0</ele><time>2026-04-04T14:18:07Z</time></trkpt><trkpt lat="41.20493260611244" lon="14.00289036348382"><ele>101.0</ele><time>2026-04-04T14:18:08Z</time></trkpt><trkpt lat="41.20482766282119" lon="14.003030527001563"><ele>101.0</ele><time>2026-04-04T14:18:09Z</time></trkpt><trkpt lat="41.20473557482743" lon="14.003153445865259"><ele>101.0</ele><time>2026-04-04T14:18:10Z</time></trkpt><trkpt lat="41.204657145305184" lon="14.003258599552435"><ele>101.0</ele><time>2026-04-04T14:18:11Z</time></trkpt><trkpt lat="41.20458919276934" lon="14.003348612995499"><ele>101.0</ele><time>2026-04-04T14:18:12Z</time></trkpt><trkpt lat="41.20452902798865" lon="14.003429961860075"><ele>101.0</ele><time>2026-04-04T14:18:13Z</time></trkpt><trkpt lat="41.20448913174885" lon="14.003532489407815"><ele>101.0</ele><time>2026-04-04T14:18:14Z</time></trkpt><trkpt lat="41.20443022499806" lon="14.003602864874946"><ele>101.0</ele><time>2026-04-04T14:18:15Z</time></trkpt><trkpt lat="41.204375508171005" lon="14.003680292663887"><ele>101.0</ele><time>2026-04-04T14:18:16.001Z</time></trkpt><trkpt lat="41.204311628737074" lon="14.003770898585701"><ele>101.0</ele><time>2026-04-04T14:18:17.001Z</time></trkpt><trkpt lat="41.204239556744014" lon="14.003881520424448"><ele>101.0</ele><time>2026-04-04T14:18:18.001Z</time></trkpt><trkpt lat="41.20414354631475" lon="14.003973279866026"><ele>101.0</ele><time>2026-04-04T14:18:19.001Z</time></trkpt><trkpt lat="41.204071364542386" lon="14.00410414779734"><ele>101.0</ele><time>2026-04-04T14:18:20.001Z</time></trkpt><trkpt lat="41.20401117395171" lon="14.004229413717807"><ele>101.0</ele><time>2026-04-04T14:18:21.001Z</time></trkpt><trkpt lat="41.20395175438799" lon="14.00436867309"><ele>101.0</ele><time>2026-04-04T14:18:22.001Z</time></trkpt><trkpt lat="41.203896244391416" lon="14.004509080941677"><ele>100.75</ele><time>2026-04-04T14:18:23.001Z</time></trkpt><trkpt lat="41.20384029246108" lon="14.004651815455144"><ele>100.5</ele><time>2026-04-04T14:18:24.001Z</time></trkpt><trkpt lat="41.20380658021027" lon="14.004801139292754"><ele>100.25</ele><time>2026-04-04T14:18:25.001Z</time></trkpt><trkpt lat="41.20375901605929" lon="14.004926259205313"><ele>100.0</ele><time>2026-04-04T14:18:26.001Z</time></trkpt><trkpt lat="41.20371166987252" lon="14.005057245016927"><ele>100.0</ele><time>2026-04-04T14:18:27.001Z</time></trkpt><trkpt lat="41.20366245977106" lon="14.005179043915597"><ele>100.0</ele><time>2026-04-04T14:18:28.001Z</time></trkpt><trkpt lat="41.20359542173714" lon="14.005279009096144"><ele>100.0</ele><time>2026-04-04T14:18:29.001Z</time></trkpt><trkpt lat="41.20355388336149" lon="14.005384911042112"><ele>100.0</ele><time>2026-04-04T14:18:30.001Z</time></trkpt><trkpt lat="41.203521160983975" lon="14.005467373661286"><ele>100.0</ele><time>2026-04-04T14:18:31.001Z</time></trkpt><trkpt lat="41.203469059341046" lon="14.005598673348647"><ele>100.0</ele><time>2026-04-04T14:18:33.001Z</time></trkpt><trkpt lat="41.20339545827288" lon="14.00578403695887"><ele>100.0</ele><time>2026-04-04T14:18:35.001Z</time></trkpt><trkpt lat="41.203346918692084" lon="14.005906237490686"><ele>100.0</ele><time>2026-04-04T14:18:36.001Z</time></trkpt><trkpt lat="41.20328874604022" lon="14.006053743561818"><ele>100.0</ele><time>2026-04-04T14:18:37.001Z</time></trkpt><trkpt lat="41.20326319267916" lon="14.006281686395722"><ele>98.66666666666667</ele><time>2026-04-04T14:18:38.001Z</time></trkpt><trkpt lat="41.203163238711745" lon="14.0065011316072"><ele>97.33333333333334</ele><time>2026-04-04T14:18:39.001Z</time></trkpt><trkpt lat="41.2030583194459" lon="14.006732585022778"><ele>96.0</ele><time>2026-04-04T14:18:40.001Z</time></trkpt><trkpt lat="41.20295286712991" lon="14.00698209112101"><ele>96.0</ele><time>2026-04-04T14:18:41.001Z</time></trkpt><trkpt lat="41.202826720787854" lon="14.007241272788836"><ele>96.0</ele><time>2026-04-04T14:18:42.001Z</time></trkpt><trkpt lat="41.20271567269392" lon="14.007527426136164"><ele>98.0</ele><time>2026-04-04T14:18:43.001Z</time></trkpt><trkpt lat="41.20260569508948" lon="14.00780339847006"><ele>100.0</ele><time>2026-04-04T14:18:44.001Z</time></trkpt><trkpt lat="41.20250399172654" lon="14.008069897576467"><ele>101.0</ele><time>2026-04-04T14:18:45.001Z</time></trkpt><trkpt lat="41.202398544938376" lon="14.008342492010678"><ele>102.0</ele><time>2026-04-04T14:18:46.001Z</time></trkpt><trkpt lat="41.202293970013706" lon="14.008611444652345"><ele>101.33333333333334</ele><time>2026-04-04T14:18:47.001Z</time></trkpt><trkpt lat="41.20220011004372" lon="14.008852839877425"><ele>100.66666666666667</ele><time>2026-04-04T14:18:48.001Z</time></trkpt><trkpt lat="41.20211025399907" lon="14.009083937534657"><ele>100.0</ele><time>2026-04-04T14:18:49.001Z</time></trkpt><trkpt lat="41.20202172931265" lon="14.009310393140312"><ele>100.0</ele><time>2026-04-04T14:18:50.001Z</time></trkpt><trkpt lat="41.20193127207277" lon="14.009540929374777"><ele>100.0</ele><time>2026-04-04T14:18:51.001Z</time></trkpt><trkpt lat="41.20183594289691" lon="14.009783882059292"><ele>100.0</ele><time>2026-04-04T14:18:52.001Z</time></trkpt><trkpt lat="41.20173245835388" lon="14.01004924676934"><ele>100.5</ele><time>2026-04-04T14:18:53.001Z</time></trkpt><trkpt lat="41.20162607181895" lon="14.010325365203704"><ele>101.0</ele><time>2026-04-04T14:18:54.001Z</time></trkpt><trkpt lat="41.2015163563296" lon="14.01061012369932"><ele>100.5</ele><time>2026-04-04T14:18:55.001Z</time></trkpt><trkpt lat="41.20140245280085" lon="14.010904908313009"><ele>100.0</ele><time>2026-04-04T14:18:56.001Z</time></trkpt><trkpt lat="41.20128469285823" lon="14.011206341418571"><ele>100.0</ele><time>2026-04-04T14:18:57.001Z</time></trkpt><trkpt lat="41.20116503069062" lon="14.01151264370445"><ele>100.0</ele><time>2026-04-04T14:18:58.001Z</time></trkpt><trkpt lat="41.201044825322896" lon="14.01182033642994"><ele>99.0</ele><time>2026-04-04T14:18:59.001Z</time></trkpt><trkpt lat="41.20092375603753" lon="14.01212989503178"><ele>98.0</ele><time>2026-04-04T14:19:00.001Z</time></trkpt><trkpt lat="41.20080451121642" lon="14.012434498568433"><ele>98.0</ele><time>2026-04-04T14:19:01.001Z</time></trkpt><trkpt lat="41.20068906545032" lon="14.012729397661465"><ele>98.0</ele><time>2026-04-04T14:19:02.001Z</time></trkpt><trkpt lat="41.200583841308394" lon="14.013017083183682"><ele>98.0</ele><time>2026-04-04T14:19:03.001Z</time></trkpt><trkpt lat="41.20048830461855" lon="14.013334435700433"><ele>98.0</ele><time>2026-04-04T14:19:04.001Z</time></trkpt><trkpt lat="41.20042257884626" lon="14.013684351709799"><ele>98.0</ele><time>2026-04-04T14:19:05.001Z</time></trkpt><trkpt lat="41.20036619398038" lon="14.014042077800063"><ele>98.0</ele><time>2026-04-04T14:19:06.001Z</time></trkpt><trkpt lat="41.20031015269095" lon="14.014402111832084"><ele>96.5</ele><time>2026-04-04T14:19:07.001Z</time></trkpt><trkpt lat="41.20025381219984" lon="14.014762110022641"><ele>95.0</ele><time>2026-04-04T14:19:08.001Z</time></trkpt><trkpt lat="41.200198271915966" lon="14.015111808088609"><ele>93.5</ele><time>2026-04-04T14:19:09.001Z</time></trkpt><trkpt lat="41.200145844498806" lon="14.015446372764712"><ele>92.0</ele><time>2026-04-04T14:19:10.002Z</time></trkpt><trkpt lat="41.20009609940078" lon="14.015769099751727"><ele>91.5</ele><time>2026-04-04T14:19:11.002Z</time></trkpt><trkpt lat="41.20004204574216" lon="14.016102037454843"><ele>91.0</ele><time>2026-04-04T14:19:12.002Z</time></trkpt><trkpt lat="41.199987467824435" lon="14.01644397347909"><ele>89.5</ele><time>2026-04-04T14:19:13.002Z</time></trkpt><trkpt lat="41.1999363240092" lon="14.016771478441552"><ele>88.0</ele><time>2026-04-04T14:19:14.002Z</time></trkpt><trkpt lat="41.19988858692277" lon="14.017077168366852"><ele>88.0</ele><time>2026-04-04T14:19:15.002Z</time></trkpt><trkpt lat="41.199844501830974" lon="14.017359472328781"><ele>88.0</ele><time>2026-04-04T14:19:16.002Z</time></trkpt><trkpt lat="41.19980580399268" lon="14.017618923896942"><ele>88.0</ele><time>2026-04-04T14:19:17.002Z</time></trkpt><trkpt lat="41.19979270350179" lon="14.017875309799363"><ele>87.66666666666666</ele><time>2026-04-04T14:19:18.002Z</time></trkpt><trkpt lat="41.199747844480726" lon="14.01812140532707"><ele>87.33333333333333</ele><time>2026-04-04T14:19:19.002Z</time></trkpt><trkpt lat="41.19970931576085" lon="14.018363773963449"><ele>87.0</ele><time>2026-04-04T14:19:20.002Z</time></trkpt><trkpt lat="41.1996735253412" lon="14.018599418061779"><ele>86.0</ele><time>2026-04-04T14:19:21.002Z</time></trkpt><trkpt lat="41.19963043165796" lon="14.018852093989624"><ele>85.0</ele><time>2026-04-04T14:19:22.002Z</time></trkpt><trkpt lat="41.19958754933309" lon="14.019122978363374"><ele>84.0</ele><time>2026-04-04T14:19:23.002Z</time></trkpt><trkpt lat="41.19954331679825" lon="14.019410436267528"><ele>83.5</ele><time>2026-04-04T14:19:24.002Z</time></trkpt><trkpt lat="41.19949893285663" lon="14.01969711436252"><ele>83.0</ele><time>2026-04-04T14:19:25.002Z</time></trkpt><trkpt lat="41.19944568547189" lon="14.020005269821294"><ele>83.0</ele><time>2026-04-04T14:19:26.002Z</time></trkpt><trkpt lat="41.19938654938853" lon="14.020332608961054"><ele>83.0</ele><time>2026-04-04T14:19:27.002Z</time></trkpt><trkpt lat="41.1993388048746" lon="14.02067103052238"><ele>82.0</ele><time>2026-04-04T14:19:28.002Z</time></trkpt><trkpt lat="41.19928415729479" lon="14.021007080174979"><ele>81.0</ele><time>2026-04-04T14:19:29.002Z</time></trkpt><trkpt lat="41.19922864910657" lon="14.021348091183155"><ele>80.0</ele><time>2026-04-04T14:19:30.002Z</time></trkpt><trkpt lat="41.19917110424807" lon="14.02170251228456"><ele>79.0</ele><time>2026-04-04T14:19:31.002Z</time></trkpt><trkpt lat="41.19911134535963" lon="14.02206150634779"><ele>79.0</ele><time>2026-04-04T14:19:32.002Z</time></trkpt><trkpt lat="41.1990546457139" lon="14.022422348143532"><ele>79.0</ele><time>2026-04-04T14:19:33.002Z</time></trkpt><trkpt lat="41.198992764881666" lon="14.022784668386954"><ele>79.0</ele><time>2026-04-04T14:19:34.002Z</time></trkpt><trkpt lat="41.19893310837313" lon="14.023147937961992"><ele>79.0</ele><time>2026-04-04T14:19:35.002Z</time></trkpt><trkpt lat="41.19887786290861" lon="14.023514988982487"><ele>78.5</ele><time>2026-04-04T14:19:36.002Z</time></trkpt><trkpt lat="41.19881205042586" lon="14.023880314559362"><ele>78.0</ele><time>2026-04-04T14:19:37.002Z</time></trkpt><trkpt lat="41.19874535607597" lon="14.024228757459703"><ele>77.5</ele><time>2026-04-04T14:19:38.002Z</time></trkpt><trkpt lat="41.19868747545758" lon="14.024548766627658"><ele>77.0</ele><time>2026-04-04T14:19:39.002Z</time></trkpt><trkpt lat="41.19863428255775" lon="14.024836917835225"><ele>76.66666666666667</ele><time>2026-04-04T14:19:40.002Z</time></trkpt><trkpt lat="41.1985873435271" lon="14.025091769613134"><ele>76.33333333333333</ele><time>2026-04-04T14:19:41.002Z</time></trkpt><trkpt lat="41.19854396811295" lon="14.025329035326987"><ele>76.0</ele><time>2026-04-04T14:19:42.002Z</time></trkpt><trkpt lat="41.19850802440112" lon="14.025550142239414"><ele>76.0</ele><time>2026-04-04T14:19:43.002Z</time></trkpt><trkpt lat="41.198466609289774" lon="14.02575800470304"><ele>76.0</ele><time>2026-04-04T14:19:44.002Z</time></trkpt><trkpt lat="41.198431118217755" lon="14.025947335130624"><ele>76.0</ele><time>2026-04-04T14:19:45.002Z</time></trkpt><trkpt lat="41.19840492398027" lon="14.026130222675025"><ele>76.0</ele><time>2026-04-04T14:19:46.002Z</time></trkpt><trkpt lat="41.198389944396254" lon="14.02631545308336"><ele>76.0</ele><time>2026-04-04T14:19:47Z</time></trkpt><trkpt lat="41.19838223137788" lon="14.026512295500051"><ele>76.0</ele><time>2026-04-04T14:19:48Z</time></trkpt><trkpt lat="41.19838946766895" lon="14.026738195646994"><ele>76.0</ele><time>2026-04-04T14:19:49Z</time></trkpt><trkpt lat="41.19841874311159" lon="14.026993408133446"><ele>75.0</ele><time>2026-04-04T14:19:50Z</time></trkpt><trkpt lat="41.198442712131175" lon="14.02726743315573"><ele>74.0</ele><time>2026-04-04T14:19:51Z</time></trkpt><trkpt lat="41.19846666623496" lon="14.027543322006656"><ele>73.0</ele><time>2026-04-04T14:19:52Z</time></trkpt><trkpt lat="41.19849254511587" lon="14.027818398269691"><ele>72.33333333333333</ele><time>2026-04-04T14:19:53Z</time></trkpt><trkpt lat="41.19852529297442" lon="14.028075736334735"><ele>71.66666666666667</ele><time>2026-04-04T14:19:54Z</time></trkpt><trkpt lat="41.19854710719769" lon="14.028333367387463"><ele>71.0</ele><time>2026-04-04T14:19:55Z</time></trkpt><trkpt lat="41.1985609672345" lon="14.028589084449928"><ele>71.0</ele><time>2026-04-04T14:19:56Z</time></trkpt><trkpt lat="41.198569705905065" lon="14.02882138967043"><ele>71.0</ele><time>2026-04-04T14:19:57Z</time></trkpt><trkpt lat="41.198583225341984" lon="14.029073122549576"><ele>71.0</ele><time>2026-04-04T14:19:58Z</time></trkpt><trkpt lat="41.19858762435055" lon="14.029345080987964"><ele>71.0</ele><time>2026-04-04T14:19:59Z</time></trkpt><trkpt lat="41.19858563598837" lon="14.029618632201084"><ele>71.0</ele><time>2026-04-04T14:20:00Z</time></trkpt><trkpt lat="41.19858517137898" lon="14.02989594347793"><ele>71.0</ele><time>2026-04-04T14:20:01Z</time></trkpt><trkpt lat="41.198592937009415" lon="14.030172809809217"><ele>71.33333333333334</ele><time>2026-04-04T14:20:02Z</time></trkpt><trkpt lat="41.19860571503392" lon="14.03043104819386"><ele>71.66666666666667</ele><time>2026-04-04T14:20:03Z</time></trkpt><trkpt lat="41.198612093317706" lon="14.030679653130854"><ele>72.0</ele><time>2026-04-04T14:20:04Z</time></trkpt><trkpt lat="41.19862092554599" lon="14.030922748704686"><ele>72.66666666666667</ele><time>2026-04-04T14:20:05Z</time></trkpt><trkpt lat="41.198628584552004" lon="14.031157275410349"><ele>73.33333333333334</ele><time>2026-04-04T14:20:06Z</time></trkpt><trkpt lat="41.19863128230034" lon="14.031382486988576"><ele>74.0</ele><time>2026-04-04T14:20:07Z</time></trkpt><trkpt lat="41.1986227666481" lon="14.031602218627016"><ele>74.0</ele><time>2026-04-04T14:20:08Z</time></trkpt><trkpt lat="41.19859800856933" lon="14.031827473650408"><ele>74.0</ele><time>2026-04-04T14:20:09Z</time></trkpt><trkpt lat="41.1985471088259" lon="14.032052809965542"><ele>74.0</ele><time>2026-04-04T14:20:10Z</time></trkpt><trkpt lat="41.19846754019903" lon="14.032268174392193"><ele>73.66666666666667</ele><time>2026-04-04T14:20:11Z</time></trkpt><trkpt lat="41.19836671018457" lon="14.032491619616964"><ele>73.33333333333333</ele><time>2026-04-04T14:20:12Z</time></trkpt><trkpt lat="41.19824478420922" lon="14.032724734774181"><ele>73.0</ele><time>2026-04-04T14:20:13Z</time></trkpt><trkpt lat="41.198112230983796" lon="14.032960743818021"><ele>72.0</ele><time>2026-04-04T14:20:14Z</time></trkpt><trkpt lat="41.19797083937753" lon="14.033202144685982"><ele>71.0</ele><time>2026-04-04T14:20:15Z</time></trkpt><trkpt lat="41.197824208817025" lon="14.033454812794862"><ele>71.0</ele><time>2026-04-04T14:20:16Z</time></trkpt><trkpt lat="41.19768127411218" lon="14.03371719954193"><ele>71.0</ele><time>2026-04-04T14:20:17.001Z</time></trkpt><trkpt lat="41.197535215312755" lon="14.033991381588816"><ele>70.5</ele><time>2026-04-04T14:20:18.001Z</time></trkpt><trkpt lat="41.1973864970292" lon="14.034271792623281"><ele>70.0</ele><time>2026-04-04T14:20:19.001Z</time></trkpt><trkpt lat="41.19723949871942" lon="14.034555688628064"><ele>70.0</ele><time>2026-04-04T14:20:20.001Z</time></trkpt><trkpt lat="41.19709166981381" lon="14.03483903001494"><ele>70.0</ele><time>2026-04-04T14:20:21.001Z</time></trkpt><trkpt lat="41.1969378528255" lon="14.035125827396177"><ele>70.0</ele><time>2026-04-04T14:20:22.001Z</time></trkpt><trkpt lat="41.19676103318214" lon="14.035395101112943"><ele>70.0</ele><time>2026-04-04T14:20:23.001Z</time></trkpt><trkpt lat="41.19660308381909" lon="14.03569015372663"><ele>69.0</ele><time>2026-04-04T14:20:24.001Z</time></trkpt><trkpt lat="41.19644294956811" lon="14.035987405380688"><ele>68.0</ele><time>2026-04-04T14:20:25.001Z</time></trkpt><trkpt lat="41.19628299239556" lon="14.036284258429967"><ele>68.0</ele><time>2026-04-04T14:20:26.001Z</time></trkpt><trkpt lat="41.196123425736104" lon="14.036584078649609"><ele>68.0</ele><time>2026-04-04T14:20:27.001Z</time></trkpt><trkpt lat="41.195957964780476" lon="14.036883233705122"><ele>67.5</ele><time>2026-04-04T14:20:28.001Z</time></trkpt><trkpt lat="41.19578657601531" lon="14.03718063278296"><ele>67.0</ele><time>2026-04-04T14:20:29.001Z</time></trkpt><trkpt lat="41.19561236934038" lon="14.037478748162172"><ele>66.5</ele><time>2026-04-04T14:20:30.001Z</time></trkpt><trkpt lat="41.19543430916158" lon="14.037781773712167"><ele>66.0</ele><time>2026-04-04T14:20:31.001Z</time></trkpt><trkpt lat="41.19525963792485" lon="14.038079031907289"><ele>66.0</ele><time>2026-04-04T14:20:32.001Z</time></trkpt><trkpt lat="41.19508371238121" lon="14.038379222266864"><ele>66.0</ele><time>2026-04-04T14:20:33.001Z</time></trkpt><trkpt lat="41.194911492895834" lon="14.038674029485367"><ele>66.0</ele><time>2026-04-04T14:20:34.001Z</time></trkpt><trkpt lat="41.194748527745475" lon="14.038954861254318"><ele>66.0</ele><time>2026-04-04T14:20:35.001Z</time></trkpt><trkpt lat="41.19459438494182" lon="14.039220489800744"><ele>66.0</ele><time>2026-04-04T14:20:36.001Z</time></trkpt><trkpt lat="41.19444214434261" lon="14.039482840349939"><ele>66.0</ele><time>2026-04-04T14:20:37.001Z</time></trkpt><trkpt lat="41.194292755530185" lon="14.039742201629847"><ele>66.0</ele><time>2026-04-04T14:20:38.001Z</time></trkpt><trkpt lat="41.19414114225346" lon="14.040007873821441"><ele>66.0</ele><time>2026-04-04T14:20:39.001Z</time></trkpt><trkpt lat="41.193990228788415" lon="14.040278457318788"><ele>65.5</ele><time>2026-04-04T14:20:40.001Z</time></trkpt><trkpt lat="41.19384004259511" lon="14.040550941341754"><ele>65.0</ele><time>2026-04-04T14:20:41.001Z</time></trkpt><trkpt lat="41.19371128761248" lon="14.040841976301369"><ele>65.0</ele><time>2026-04-04T14:20:42.001Z</time></trkpt><trkpt lat="41.1935633015604" lon="14.041104491128843"><ele>65.0</ele><time>2026-04-04T14:20:43.001Z</time></trkpt><trkpt lat="41.19341802842708" lon="14.041365700123224"><ele>65.0</ele><time>2026-04-04T14:20:44.001Z</time></trkpt><trkpt lat="41.19327771974917" lon="14.041616945915706"><ele>65.0</ele><time>2026-04-04T14:20:45.001Z</time></trkpt><trkpt lat="41.19311899502333" lon="14.041848880136754"><ele>64.66666666666667</ele><time>2026-04-04T14:20:46.001Z</time></trkpt><trkpt lat="41.19298791211356" lon="14.042084054967177"><ele>64.33333333333333</ele><time>2026-04-04T14:20:47.001Z</time></trkpt><trkpt lat="41.19286738410911" lon="14.04230321344837"><ele>64.0</ele><time>2026-04-04T14:20:48.001Z</time></trkpt><trkpt lat="41.19275042813051" lon="14.042514957747434"><ele>64.0</ele><time>2026-04-04T14:20:49.001Z</time></trkpt><trkpt lat="41.19263175579254" lon="14.04272980945108"><ele>64.0</ele><time>2026-04-04T14:20:50.001Z</time></trkpt><trkpt lat="41.19250824970969" lon="14.042952386771406"><ele>64.0</ele><time>2026-04-04T14:20:51.001Z</time></trkpt><trkpt lat="41.19237007563416" lon="14.043185118186495"><ele>63.0</ele><time>2026-04-04T14:20:52.001Z</time></trkpt><trkpt lat="41.19222351986361" lon="14.043422392860306"><ele>62.0</ele><time>2026-04-04T14:20:53.001Z</time></trkpt><trkpt lat="41.19206329352442" lon="14.043665268676195"><ele>62.0</ele><time>2026-04-04T14:20:54.001Z</time></trkpt><trkpt lat="41.19189814008424" lon="14.043913457594886"><ele>62.0</ele><time>2026-04-04T14:20:55.001Z</time></trkpt><trkpt lat="41.19173482630165" lon="14.044158881922275"><ele>61.66666666666667</ele><time>2026-04-04T14:20:56.001Z</time></trkpt><trkpt lat="41.19158517112725" lon="14.044384588807914"><ele>61.33333333333333</ele><time>2026-04-04T14:20:57.001Z</time></trkpt><trkpt lat="41.191440867201685" lon="14.044602871675597"><ele>61.0</ele><time>2026-04-04T14:20:58.001Z</time></trkpt><trkpt lat="41.19129090745365" lon="14.044828478894772"><ele>61.0</ele><time>2026-04-04T14:20:59.001Z</time></trkpt><trkpt lat="41.19114050868733" lon="14.045055882202979"><ele>61.0</ele><time>2026-04-04T14:21:00.001Z</time></trkpt><trkpt lat="41.19098327751612" lon="14.045286312007331"><ele>61.0</ele><time>2026-04-04T14:21:01.001Z</time></trkpt><trkpt lat="41.19081361045015" lon="14.045507484024656"><ele>61.0</ele><time>2026-04-04T14:21:02.001Z</time></trkpt><trkpt lat="41.19063031054409" lon="14.045713735525466"><ele>62.0</ele><time>2026-04-04T14:21:03.001Z</time></trkpt><trkpt lat="41.19044645732826" lon="14.045911052822744"><ele>63.0</ele><time>2026-04-04T14:21:04.001Z</time></trkpt><trkpt lat="41.190273005345524" lon="14.046112341959086"><ele>63.0</ele><time>2026-04-04T14:21:05.001Z</time></trkpt><trkpt lat="41.19008256329546" lon="14.046282626076783"><ele>63.0</ele><time>2026-04-04T14:21:06.001Z</time></trkpt><trkpt lat="41.18988102053837" lon="14.04646042727912"><ele>62.5</ele><time>2026-04-04T14:21:07.001Z</time></trkpt><trkpt lat="41.18967822185174" lon="14.046645039536275"><ele>62.0</ele><time>2026-04-04T14:21:08.001Z</time></trkpt><trkpt lat="41.189472721132574" lon="14.0468316957754"><ele>62.0</ele><time>2026-04-04T14:21:09.001Z</time></trkpt><trkpt lat="41.189263483784934" lon="14.047021929990269"><ele>62.0</ele><time>2026-04-04T14:21:10.001Z</time></trkpt><trkpt lat="41.18905032680161" lon="14.04721513337242"><ele>61.0</ele><time>2026-04-04T14:21:11.001Z</time></trkpt><trkpt lat="41.18884026046593" lon="14.047403130107618"><ele>60.0</ele><time>2026-04-04T14:21:12.001Z</time></trkpt><trkpt lat="41.188634992047874" lon="14.04758897561459"><ele>60.0</ele><time>2026-04-04T14:21:13.001Z</time></trkpt><trkpt lat="41.188437474916775" lon="14.04777018099333"><ele>60.0</ele><time>2026-04-04T14:21:14.001Z</time></trkpt><trkpt lat="41.18825578127788" lon="14.0479385573428"><ele>59.33333333333333</ele><time>2026-04-04T14:21:15.001Z</time></trkpt><trkpt lat="41.188082435854604" lon="14.048096841145588"><ele>58.666666666666664</ele><time>2026-04-04T14:21:16.001Z</time></trkpt><trkpt lat="41.18791853615024" lon="14.048247203970098"><ele>58.0</ele><time>2026-04-04T14:21:17.002Z</time></trkpt><trkpt lat="41.1877388399849" lon="14.048379407824893"><ele>56.33333333333333</ele><time>2026-04-04T14:21:18.002Z</time></trkpt><trkpt lat="41.18754530446614" lon="14.048499798342016"><ele>54.66666666666667</ele><time>2026-04-04T14:21:19.002Z</time></trkpt><trkpt lat="41.187333481045115" lon="14.048607074488254"><ele>53.0</ele><time>2026-04-04T14:21:20.002Z</time></trkpt><trkpt lat="41.187111605481775" lon="14.04868432434903"><ele>51.5</ele><time>2026-04-04T14:21:21.002Z</time></trkpt><trkpt lat="41.18687571403161" lon="14.048761791650747"><ele>50.0</ele><time>2026-04-04T14:21:22.002Z</time></trkpt><trkpt lat="41.18664405350067" lon="14.048842155568284"><ele>47.0</ele><time>2026-04-04T14:21:23.002Z</time></trkpt><trkpt lat="41.186401182765735" lon="14.048945240759691"><ele>44.0</ele><time>2026-04-04T14:21:24.002Z</time></trkpt><trkpt lat="41.18615748573535" lon="14.049026130112269"><ele>45.5</ele><time>2026-04-04T14:21:25.002Z</time></trkpt><trkpt lat="41.1859006647281" lon="14.049132293297355"><ele>47.0</ele><time>2026-04-04T14:21:26.002Z</time></trkpt><trkpt lat="41.185650636047995" lon="14.049223844981551"><ele>49.5</ele><time>2026-04-04T14:21:27.002Z</time></trkpt><trkpt lat="41.18540057518937" lon="14.049316807403384"><ele>52.0</ele><time>2026-04-04T14:21:28.002Z</time></trkpt><trkpt lat="41.1851560409291" lon="14.049416471263427"><ele>52.0</ele><time>2026-04-04T14:21:29.002Z</time></trkpt><trkpt lat="41.18490774705118" lon="14.049524752554301"><ele>52.0</ele><time>2026-04-04T14:21:30.002Z</time></trkpt><trkpt lat="41.18466562448824" lon="14.049657454405848"><ele>54.5</ele><time>2026-04-04T14:21:31.002Z</time></trkpt><trkpt lat="41.184437092456854" lon="14.049811542472929"><ele>57.0</ele><time>2026-04-04T14:21:32.002Z</time></trkpt><trkpt lat="41.18422053582777" lon="14.04998600816042"><ele>59.0</ele><time>2026-04-04T14:21:33.002Z</time></trkpt><trkpt lat="41.18402643045956" lon="14.050176874181934"><ele>61.0</ele><time>2026-04-04T14:21:34.002Z</time></trkpt><trkpt lat="41.18386550721885" lon="14.050372703174892"><ele>61.0</ele><time>2026-04-04T14:21:35.002Z</time></trkpt><trkpt lat="41.18372216051537" lon="14.050586947428643"><ele>61.0</ele><time>2026-04-04T14:21:36.002Z</time></trkpt><trkpt lat="41.18360545769775" lon="14.050798240822413"><ele>61.0</ele><time>2026-04-04T14:21:37.002Z</time></trkpt><trkpt lat="41.18350962012835" lon="14.050979072034341"><ele>61.25</ele><time>2026-04-04T14:21:38.002Z</time></trkpt><trkpt lat="41.18342213817757" lon="14.051121678793365"><ele>61.5</ele><time>2026-04-04T14:21:39.002Z</time></trkpt><trkpt lat="41.18333085366724" lon="14.051228863126745"><ele>61.75</ele><time>2026-04-04T14:21:40.002Z</time></trkpt><trkpt lat="41.183223606556915" lon="14.05130218501714"><ele>62.0</ele><time>2026-04-04T14:21:41.002Z</time></trkpt><trkpt lat="41.18313272751522" lon="14.051364585664937"><ele>62.0</ele><time>2026-04-04T14:21:42.002Z</time></trkpt><trkpt lat="41.183077773666106" lon="14.051459257171969"><ele>62.0</ele><time>2026-04-04T14:21:43.002Z</time></trkpt><trkpt lat="41.183058158650425" lon="14.05157552620184"><ele>62.0</ele><time>2026-04-04T14:21:44.002Z</time></trkpt><trkpt lat="41.18305711308829" lon="14.051726053851665"><ele>62.0</ele><time>2026-04-04T14:21:45.002Z</time></trkpt><trkpt lat="41.18302488927088" lon="14.051901124825715"><ele>62.0</ele><time>2026-04-04T14:21:46.002Z</time></trkpt><trkpt lat="41.18294306450795" lon="14.052089386876364"><ele>62.66666666666667</ele><time>2026-04-04T14:21:47.002Z</time></trkpt><trkpt lat="41.18283704542565" lon="14.052280865509362"><ele>63.33333333333333</ele><time>2026-04-04T14:21:48.002Z</time></trkpt><trkpt lat="41.182726315281464" lon="14.05250295119402"><ele>64.0</ele><time>2026-04-04T14:21:49.002Z</time></trkpt><trkpt lat="41.18259921192194" lon="14.052740808395638"><ele>64.0</ele><time>2026-04-04T14:21:50.002Z</time></trkpt><trkpt lat="41.18246746099029" lon="14.05298478824223"><ele>64.0</ele><time>2026-04-04T14:21:51.002Z</time></trkpt><trkpt lat="41.182340715110065" lon="14.053223799286696"><ele>64.0</ele><time>2026-04-04T14:21:52.002Z</time></trkpt><trkpt lat="41.18221959725813" lon="14.05347006207434"><ele>64.66666666666666</ele><time>2026-04-04T14:21:53Z</time></trkpt><trkpt lat="41.18210390865746" lon="14.05370789578418"><ele>65.33333333333333</ele><time>2026-04-04T14:21:54Z</time></trkpt><trkpt lat="41.18199090079357" lon="14.053936317812648"><ele>66.0</ele><time>2026-04-04T14:21:55Z</time></trkpt><trkpt lat="41.18188627474779" lon="14.054152133292861"><ele>66.66666666666667</ele><time>2026-04-04T14:21:56Z</time></trkpt><trkpt lat="41.18178310356952" lon="14.054358670903433"><ele>67.33333333333334</ele><time>2026-04-04T14:21:57Z</time></trkpt><trkpt lat="41.181689962373255" lon="14.054549381851517"><ele>68.0</ele><time>2026-04-04T14:21:58Z</time></trkpt><trkpt lat="41.181599014130065" lon="14.054733897992405"><ele>68.0</ele><time>2026-04-04T14:21:59Z</time></trkpt><trkpt lat="41.1815091628886" lon="14.054909545654052"><ele>68.0</ele><time>2026-04-04T14:22:00Z</time></trkpt><trkpt lat="41.1814311018288" lon="14.055064910648705"><ele>68.0</ele><time>2026-04-04T14:22:01Z</time></trkpt><trkpt lat="41.181351629855804" lon="14.05520239894772"><ele>68.0</ele><time>2026-04-04T14:22:02Z</time></trkpt><trkpt lat="41.18125756726183" lon="14.055293284255447"><ele>68.0</ele><time>2026-04-04T14:22:03Z</time></trkpt><trkpt lat="41.18114914818523" lon="14.055350834338487"><ele>68.0</ele><time>2026-04-04T14:22:04Z</time></trkpt><trkpt lat="41.18105864799154" lon="14.055404555426147"><ele>68.0</ele><time>2026-04-04T14:22:05Z</time></trkpt><trkpt lat="41.18099450448968" lon="14.055486592358701"><ele>68.0</ele><time>2026-04-04T14:22:06Z</time></trkpt><trkpt lat="41.18095727410396" lon="14.055611739038888"><ele>68.0</ele><time>2026-04-04T14:22:07Z</time></trkpt><trkpt lat="41.18096222718338" lon="14.05575369992618"><ele>68.5</ele><time>2026-04-04T14:22:08Z</time></trkpt><trkpt lat="41.18098303447445" lon="14.055903832634527"><ele>69.0</ele><time>2026-04-04T14:22:09Z</time></trkpt><trkpt lat="41.18096711544196" lon="14.056071422785951"><ele>69.5</ele><time>2026-04-04T14:22:10Z</time></trkpt><trkpt lat="41.18090717317523" lon="14.056264504698365"><ele>70.0</ele><time>2026-04-04T14:22:11Z</time></trkpt><trkpt lat="41.18081727762757" lon="14.056473463164235"><ele>70.66666666666666</ele><time>2026-04-04T14:22:12Z</time></trkpt><trkpt lat="41.18071342284745" lon="14.056689283377489"><ele>71.33333333333333</ele><time>2026-04-04T14:22:13Z</time></trkpt><trkpt lat="41.18060828653709" lon="14.056910724014871"><ele>72.0</ele><time>2026-04-04T14:22:14Z</time></trkpt><trkpt lat="41.18050273979256" lon="14.057156609280254"><ele>68.5</ele><time>2026-04-04T14:22:15Z</time></trkpt><trkpt lat="41.18038897978532" lon="14.057414175299133"><ele>65.0</ele><time>2026-04-04T14:22:16Z</time></trkpt><trkpt lat="41.180272475119544" lon="14.057685210820939"><ele>65.0</ele><time>2026-04-04T14:22:17Z</time></trkpt><trkpt lat="41.1801630779725" lon="14.057956275995725"><ele>65.0</ele><time>2026-04-04T14:22:18Z</time></trkpt><trkpt lat="41.18006822904122" lon="14.058200255330954"><ele>65.0</ele><time>2026-04-04T14:22:19Z</time></trkpt><trkpt lat="41.179974425884744" lon="14.058422513605372"><ele>65.33333333333334</ele><time>2026-04-04T14:22:20Z</time></trkpt><trkpt lat="41.179882574543456" lon="14.058646317397066"><ele>65.66666666666667</ele><time>2026-04-04T14:22:21.001Z</time></trkpt><trkpt lat="41.17980531120471" lon="14.058821983521872"><ele>66.0</ele><time>2026-04-04T14:22:22.001Z</time></trkpt><trkpt lat="41.17971580889195" lon="14.058945003227457"><ele>64.25</ele><time>2026-04-04T14:22:23.001Z</time></trkpt><trkpt lat="41.17966262570615" lon="14.059069849026319"><ele>62.5</ele><time>2026-04-04T14:22:24.001Z</time></trkpt><trkpt lat="41.17961292313215" lon="14.05918652417415"><ele>60.75</ele><time>2026-04-04T14:22:25.001Z</time></trkpt><trkpt lat="41.17954486589988" lon="14.059346286299796"><ele>59.0</ele><time>2026-04-04T14:22:26.001Z</time></trkpt><trkpt lat="41.17946604229153" lon="14.05953132215043"><ele>59.0</ele><time>2026-04-04T14:22:27.001Z</time></trkpt><trkpt lat="41.179389474785445" lon="14.059751229028528"><ele>59.0</ele><time>2026-04-04T14:22:28.001Z</time></trkpt><trkpt lat="41.17927570436615" lon="14.059964533317675"><ele>59.0</ele><time>2026-04-04T14:22:29.001Z</time></trkpt><trkpt lat="41.17916594885483" lon="14.060202589737111"><ele>59.0</ele><time>2026-04-04T14:22:30.001Z</time></trkpt><trkpt lat="41.17905437410929" lon="14.060451673319516"><ele>59.0</ele><time>2026-04-04T14:22:31.001Z</time></trkpt><trkpt lat="41.178938318844594" lon="14.060714342817716"><ele>59.0</ele><time>2026-04-04T14:22:32.001Z</time></trkpt><trkpt lat="41.1788263484505" lon="14.060984430208006"><ele>56.0</ele><time>2026-04-04T14:22:33.001Z</time></trkpt><trkpt lat="41.1787160033015" lon="14.061263770833992"><ele>53.0</ele><time>2026-04-04T14:22:34.001Z</time></trkpt><trkpt lat="41.1786079276217" lon="14.0615556542663"><ele>54.0</ele><time>2026-04-04T14:22:35.001Z</time></trkpt><trkpt lat="41.1785238720643" lon="14.061863301543687"><ele>55.0</ele><time>2026-04-04T14:22:36.001Z</time></trkpt><trkpt lat="41.17846066094683" lon="14.06217262462702"><ele>55.0</ele><time>2026-04-04T14:22:37.001Z</time></trkpt><trkpt lat="41.17840929255096" lon="14.062494972564966"><ele>55.0</ele><time>2026-04-04T14:22:38.001Z</time></trkpt><trkpt lat="41.17835472554289" lon="14.062814300177584"><ele>55.0</ele><time>2026-04-04T14:22:39.001Z</time></trkpt><trkpt lat="41.17834555500375" lon="14.063136917699696"><ele>55.0</ele><time>2026-04-04T14:22:40.001Z</time></trkpt><trkpt lat="41.17832900889539" lon="14.063451455094645"><ele>54.5</ele><time>2026-04-04T14:22:41.001Z</time></trkpt><trkpt lat="41.17830879845316" lon="14.063765733728378"><ele>54.0</ele><time>2026-04-04T14:22:42.001Z</time></trkpt><trkpt lat="41.17828400177807" lon="14.064076512452166"><ele>54.5</ele><time>2026-04-04T14:22:43.001Z</time></trkpt><trkpt lat="41.17826960345236" lon="14.06438460085267"><ele>55.0</ele><time>2026-04-04T14:22:44.001Z</time></trkpt><trkpt lat="41.178262507104854" lon="14.064689701226802"><ele>54.5</ele><time>2026-04-04T14:22:45.001Z</time></trkpt><trkpt lat="41.17826147248796" lon="14.065000597893665"><ele>54.0</ele><time>2026-04-04T14:22:46.001Z</time></trkpt><trkpt lat="41.17826136075159" lon="14.065323250693867"><ele>54.0</ele><time>2026-04-04T14:22:47.001Z</time></trkpt><trkpt lat="41.17826460316402" lon="14.065653547502606"><ele>54.0</ele><time>2026-04-04T14:22:48.001Z</time></trkpt><trkpt lat="41.178268411842666" lon="14.065978819670779"><ele>53.0</ele><time>2026-04-04T14:22:49.001Z</time></trkpt><trkpt lat="41.17827335209132" lon="14.066307299592562"><ele>52.0</ele><time>2026-04-04T14:22:50.001Z</time></trkpt><trkpt lat="41.17827919603446" lon="14.066640208358796"><ele>51.5</ele><time>2026-04-04T14:22:51.001Z</time></trkpt><trkpt lat="41.17828275698358" lon="14.066979703555068"><ele>51.0</ele><time>2026-04-04T14:22:52.001Z</time></trkpt><trkpt lat="41.17828466191286" lon="14.067319974484773"><ele>48.5</ele><time>2026-04-04T14:22:53.001Z</time></trkpt><trkpt lat="41.17828258017595" lon="14.067667953590009"><ele>46.0</ele><time>2026-04-04T14:22:54.001Z</time></trkpt><trkpt lat="41.17826952417504" lon="14.067993394534376"><ele>45.0</ele><time>2026-04-04T14:22:55.001Z</time></trkpt><trkpt lat="41.17824357328781" lon="14.068286734421415"><ele>44.0</ele><time>2026-04-04T14:22:56.001Z</time></trkpt><trkpt lat="41.178188430376665" lon="14.068593669180826"><ele>43.0</ele><time>2026-04-04T14:22:57.001Z</time></trkpt><trkpt lat="41.1781125527034" lon="14.068908848500282"><ele>42.0</ele><time>2026-04-04T14:22:58.001Z</time></trkpt><trkpt lat="41.178036058070724" lon="14.069222175321954"><ele>42.0</ele><time>2026-04-04T14:22:59.001Z</time></trkpt><trkpt lat="41.17796509765298" lon="14.069541042790739"><ele>42.0</ele><time>2026-04-04T14:23:00.001Z</time></trkpt><trkpt lat="41.177893729230824" lon="14.069861062330594"><ele>40.5</ele><time>2026-04-04T14:23:01.001Z</time></trkpt><trkpt lat="41.177831638601205" lon="14.070181530515166"><ele>39.0</ele><time>2026-04-04T14:23:02.001Z</time></trkpt><trkpt lat="41.177789050668736" lon="14.070512008491294"><ele>39.0</ele><time>2026-04-04T14:23:03.001Z</time></trkpt><trkpt lat="41.17777066090776" lon="14.070849516591414"><ele>39.0</ele><time>2026-04-04T14:23:04.001Z</time></trkpt><trkpt lat="41.17775965235874" lon="14.071189201239287"><ele>39.0</ele><time>2026-04-04T14:23:05.001Z</time></trkpt><trkpt lat="41.1777457787016" lon="14.07153358781051"><ele>39.0</ele><time>2026-04-04T14:23:06.001Z</time></trkpt><trkpt lat="41.17773527334746" lon="14.071875957587306"><ele>39.5</ele><time>2026-04-04T14:23:07.001Z</time></trkpt><trkpt lat="41.17772026665034" lon="14.07222256756947"><ele>40.0</ele><time>2026-04-04T14:23:08.001Z</time></trkpt><trkpt lat="41.17770688532748" lon="14.072568795533215"><ele>40.5</ele><time>2026-04-04T14:23:09.001Z</time></trkpt><trkpt lat="41.17769613146364" lon="14.072913476888415"><ele>41.0</ele><time>2026-04-04T14:23:10.001Z</time></trkpt><trkpt lat="41.17768553739205" lon="14.07326162053035"><ele>40.5</ele><time>2026-04-04T14:23:11.001Z</time></trkpt><trkpt lat="41.177676673439485" lon="14.073609957452666"><ele>40.0</ele><time>2026-04-04T14:23:12.001Z</time></trkpt><trkpt lat="41.177668350737086" lon="14.073958502329395"><ele>40.5</ele><time>2026-04-04T14:23:13.001Z</time></trkpt><trkpt lat="41.177660053213316" lon="14.074311624509098"><ele>41.0</ele><time>2026-04-04T14:23:14.001Z</time></trkpt><trkpt lat="41.17765031766549" lon="14.074666442044256"><ele>40.5</ele><time>2026-04-04T14:23:15.001Z</time></trkpt><trkpt lat="41.17764183276605" lon="14.07501898561402"><ele>40.0</ele><time>2026-04-04T14:23:16.001Z</time></trkpt><trkpt lat="41.17763270186015" lon="14.075375370318595"><ele>40.0</ele><time>2026-04-04T14:23:17.001Z</time></trkpt><trkpt lat="41.17762487805357" lon="14.075731657943718"><ele>40.0</ele><time>2026-04-04T14:23:18.001Z</time></trkpt><trkpt lat="41.17761829758549" lon="14.076087798361687"><ele>40.5</ele><time>2026-04-04T14:23:19.001Z</time></trkpt><trkpt lat="41.17760776307891" lon="14.076443916043901"><ele>41.0</ele><time>2026-04-04T14:23:20.001Z</time></trkpt><trkpt lat="41.17759604299386" lon="14.076802756834411"><ele>41.0</ele><time>2026-04-04T14:23:21.001Z</time></trkpt><trkpt lat="41.1775847959469" lon="14.07716196249622"><ele>41.0</ele><time>2026-04-04T14:23:22.001Z</time></trkpt><trkpt lat="41.17757496662459" lon="14.07752168302486"><ele>41.0</ele><time>2026-04-04T14:23:23.001Z</time></trkpt><trkpt lat="41.17756569723761" lon="14.077885521139835"><ele>41.0</ele><time>2026-04-04T14:23:24.002Z</time></trkpt><trkpt lat="41.17755528698008" lon="14.07824835208151"><ele>41.0</ele><time>2026-04-04T14:23:25.002Z</time></trkpt><trkpt lat="41.17754425648663" lon="14.078609178877386"><ele>41.0</ele><time>2026-04-04T14:23:26.002Z</time></trkpt><trkpt lat="41.177533869537044" lon="14.078963866962797"><ele>42.0</ele><time>2026-04-04T14:23:27.002Z</time></trkpt><trkpt lat="41.17752478577427" lon="14.079297692529778"><ele>43.0</ele><time>2026-04-04T14:23:28.002Z</time></trkpt><trkpt lat="41.17751603358811" lon="14.07964037167176"><ele>42.0</ele><time>2026-04-04T14:23:29.002Z</time></trkpt><trkpt lat="41.177507369518864" lon="14.07998824480137"><ele>41.0</ele><time>2026-04-04T14:23:30.002Z</time></trkpt><trkpt lat="41.17749870879247" lon="14.080322828816511"><ele>41.0</ele><time>2026-04-04T14:23:31.002Z</time></trkpt><trkpt lat="41.17749049520198" lon="14.080642916748932"><ele>41.0</ele><time>2026-04-04T14:23:32.002Z</time></trkpt><trkpt lat="41.17748686177413" lon="14.080945354047573"><ele>41.0</ele><time>2026-04-04T14:23:33.002Z</time></trkpt><trkpt lat="41.17747997116805" lon="14.081238281733526"><ele>41.0</ele><time>2026-04-04T14:23:34.002Z</time></trkpt><trkpt lat="41.1774677823691" lon="14.081522912478079"><ele>41.0</ele><time>2026-04-04T14:23:35.002Z</time></trkpt><trkpt lat="41.17745973155554" lon="14.08179406261145"><ele>41.33333333333333</ele><time>2026-04-04T14:23:36.002Z</time></trkpt><trkpt lat="41.17745562650726" lon="14.082054111978199"><ele>41.666666666666664</ele><time>2026-04-04T14:23:37.002Z</time></trkpt><trkpt lat="41.17745040664539" lon="14.082314086369655"><ele>42.0</ele><time>2026-04-04T14:23:38.002Z</time></trkpt><trkpt lat="41.17744578744359" lon="14.082582637829825"><ele>42.0</ele><time>2026-04-04T14:23:39.002Z</time></trkpt><trkpt lat="41.17744276778929" lon="14.08286332373937"><ele>42.0</ele><time>2026-04-04T14:23:40.002Z</time></trkpt><trkpt lat="41.17743620270199" lon="14.08315386994645"><ele>42.0</ele><time>2026-04-04T14:23:41.002Z</time></trkpt><trkpt lat="41.17743012187183" lon="14.083472185967302"><ele>42.0</ele><time>2026-04-04T14:23:42.002Z</time></trkpt><trkpt lat="41.17742132490003" lon="14.083798365411084"><ele>42.0</ele><time>2026-04-04T14:23:43.002Z</time></trkpt><trkpt lat="41.177412343089344" lon="14.084139401090598"><ele>42.5</ele><time>2026-04-04T14:23:44.002Z</time></trkpt><trkpt lat="41.17740579711746" lon="14.084488866074228"><ele>43.0</ele><time>2026-04-04T14:23:45.002Z</time></trkpt><trkpt lat="41.177399061926806" lon="14.084844967001963"><ele>42.5</ele><time>2026-04-04T14:23:46.002Z</time></trkpt><trkpt lat="41.17739048073175" lon="14.085173532061733"><ele>42.0</ele><time>2026-04-04T14:23:47.002Z</time></trkpt><trkpt lat="41.17738282598689" lon="14.085486041498173"><ele>42.0</ele><time>2026-04-04T14:23:48.002Z</time></trkpt><trkpt lat="41.17738053368836" lon="14.085802018034231"><ele>42.0</ele><time>2026-04-04T14:23:49.002Z</time></trkpt><trkpt lat="41.17737714717759" lon="14.086129569303676"><ele>42.0</ele><time>2026-04-04T14:23:50.002Z</time></trkpt><trkpt lat="41.177364441541705" lon="14.086472873946974"><ele>42.0</ele><time>2026-04-04T14:23:51.002Z</time></trkpt><trkpt lat="41.17735032128607" lon="14.086819115156494"><ele>43.0</ele><time>2026-04-04T14:23:52.002Z</time></trkpt><trkpt lat="41.17733136213446" lon="14.087171346608743"><ele>44.0</ele><time>2026-04-04T14:23:53.002Z</time></trkpt><trkpt lat="41.177317155625495" lon="14.087522773021771"><ele>44.0</ele><time>2026-04-04T14:23:54.002Z</time></trkpt><trkpt lat="41.17730917202029" lon="14.087875574729384"><ele>44.0</ele><time>2026-04-04T14:23:55.002Z</time></trkpt><trkpt lat="41.17730358803503" lon="14.088227335371357"><ele>44.0</ele><time>2026-04-04T14:23:56.002Z</time></trkpt><trkpt lat="41.17729575848416" lon="14.088583140698335"><ele>44.0</ele><time>2026-04-04T14:23:57.002Z</time></trkpt><trkpt lat="41.1772881051191" lon="14.088940527709681"><ele>44.0</ele><time>2026-04-04T14:23:58.002Z</time></trkpt><trkpt lat="41.17728073893718" lon="14.089299956335216"><ele>44.0</ele><time>2026-04-04T14:23:59Z</time></trkpt><trkpt lat="41.177269178510336" lon="14.089658600124455"><ele>45.0</ele><time>2026-04-04T14:24:00Z</time></trkpt><trkpt lat="41.1772590527694" lon="14.089998504963516"><ele>46.0</ele><time>2026-04-04T14:24:01Z</time></trkpt><trkpt lat="41.17724994611798" lon="14.090315012736145"><ele>46.0</ele><time>2026-04-04T14:24:02Z</time></trkpt><trkpt lat="41.17724176906432" lon="14.090610605644589"><ele>46.0</ele><time>2026-04-04T14:24:03Z</time></trkpt><trkpt lat="41.177235441125106" lon="14.090877917870996"><ele>46.0</ele><time>2026-04-04T14:24:04Z</time></trkpt><trkpt lat="41.1772275043997" lon="14.091118706132214"><ele>45.333333333333336</ele><time>2026-04-04T14:24:05Z</time></trkpt><trkpt lat="41.17722196646944" lon="14.09133274864433"><ele>44.666666666666664</ele><time>2026-04-04T14:24:06Z</time></trkpt><trkpt lat="41.17721693840123" lon="14.09153705494525"><ele>44.0</ele><time>2026-04-04T14:24:07Z</time></trkpt><trkpt lat="41.17721618387167" lon="14.091726855377132"><ele>44.0</ele><time>2026-04-04T14:24:08Z</time></trkpt><trkpt lat="41.17721424972761" lon="14.091904861835902"><ele>44.0</ele><time>2026-04-04T14:24:09Z</time></trkpt><trkpt lat="41.177212430003294" lon="14.092060341580146"><ele>44.0</ele><time>2026-04-04T14:24:10Z</time></trkpt><trkpt lat="41.17720837252804" lon="14.092189093095705"><ele>44.0</ele><time>2026-04-04T14:24:11Z</time></trkpt><trkpt lat="41.177205080536304" lon="14.092295900889157"><ele>44.0</ele><time>2026-04-04T14:24:12Z</time></trkpt><trkpt lat="41.17719600376592" lon="14.092400182392533"><ele>44.166666666666664</ele><time>2026-04-04T14:24:13Z</time></trkpt><trkpt lat="41.177192371865196" lon="14.092515277084509"><ele>44.33333333333333</ele><time>2026-04-04T14:24:15Z</time></trkpt><trkpt lat="41.177217543240346" lon="14.09260089077275"><ele>44.5</ele><time>2026-04-04T14:24:18Z</time></trkpt><trkpt lat="41.177278850128964" lon="14.092624462855163"><ele>44.666666666666664</ele><time>2026-04-04T14:24:19Z</time></trkpt><trkpt lat="41.17736936436117" lon="14.092606028500956"><ele>44.833333333333336</ele><time>2026-04-04T14:24:20Z</time></trkpt><trkpt lat="41.17745471269261" lon="14.092605722391554"><ele>45.0</ele><time>2026-04-04T14:24:21Z</time></trkpt><trkpt lat="41.1775577452553" lon="14.092611835682643"><ele>45.0</ele><time>2026-04-04T14:24:22Z</time></trkpt><trkpt lat="41.177674152704256" lon="14.092609081076729"><ele>45.0</ele><time>2026-04-04T14:24:23Z</time></trkpt><trkpt lat="41.177804189101046" lon="14.092603363464109"><ele>45.0</ele><time>2026-04-04T14:24:24Z</time></trkpt><trkpt lat="41.17796594239817" lon="14.092599190786677"><ele>45.0</ele><time>2026-04-04T14:24:25Z</time></trkpt><trkpt lat="41.17814720306334" lon="14.092614189939184"><ele>44.666666666666664</ele><time>2026-04-04T14:24:26Z</time></trkpt><trkpt lat="41.17834610044272" lon="14.092638299175952"><ele>44.33333333333333</ele><time>2026-04-04T14:24:27Z</time></trkpt><trkpt lat="41.17856987422875" lon="14.092653828332338"><ele>44.0</ele><time>2026-04-04T14:24:28Z</time></trkpt><trkpt lat="41.178802166266244" lon="14.092663390893009"><ele>45.0</ele><time>2026-04-04T14:24:29Z</time></trkpt><trkpt lat="41.17903981580528" lon="14.092674591290429"><ele>46.0</ele><time>2026-04-04T14:24:30Z</time></trkpt><trkpt lat="41.179279295508174" lon="14.092684713028104"><ele>46.0</ele><time>2026-04-04T14:24:31.001Z</time></trkpt><trkpt lat="41.17952243432202" lon="14.092696710552666"><ele>46.0</ele><time>2026-04-04T14:24:32.001Z</time></trkpt><trkpt lat="41.17974244085615" lon="14.092713372588491"><ele>47.0</ele><time>2026-04-04T14:24:33.001Z</time></trkpt><trkpt lat="41.17997212394641" lon="14.092728033290358"><ele>48.0</ele><time>2026-04-04T14:24:34.001Z</time></trkpt><trkpt lat="41.18020141910553" lon="14.092736650640914"><ele>48.0</ele><time>2026-04-04T14:24:35.001Z</time></trkpt><trkpt lat="41.18039760769929" lon="14.092737433024427"><ele>48.0</ele><time>2026-04-04T14:24:36.001Z</time></trkpt><trkpt lat="41.1805554640367" lon="14.092745719461458"><ele>48.0</ele><time>2026-04-04T14:24:37.001Z</time></trkpt><trkpt lat="41.18071333013845" lon="14.092760345250777"><ele>48.0</ele><time>2026-04-04T14:24:38.001Z</time></trkpt><trkpt lat="41.18086837448652" lon="14.092768151884192"><ele>48.0</ele><time>2026-04-04T14:24:39.001Z</time></trkpt><trkpt lat="41.181042112757744" lon="14.092777107205883"><ele>48.0</ele><time>2026-04-04T14:24:40.001Z</time></trkpt><trkpt lat="41.181237541207814" lon="14.092777479707"><ele>48.0</ele><time>2026-04-04T14:24:41.001Z</time></trkpt><trkpt lat="41.18143993952234" lon="14.092790698738062"><ele>48.0</ele><time>2026-04-04T14:24:42.001Z</time></trkpt><trkpt lat="41.181631901229046" lon="14.09280771409594"><ele>48.0</ele><time>2026-04-04T14:24:43.001Z</time></trkpt><trkpt lat="41.18179700353788" lon="14.092820964504737"><ele>48.33333333333333</ele><time>2026-04-04T14:24:44.001Z</time></trkpt><trkpt lat="41.18195804128074" lon="14.09283426493945"><ele>48.666666666666664</ele><time>2026-04-04T14:24:45.001Z</time></trkpt><trkpt lat="41.182107779923086" lon="14.09284763184618"><ele>49.0</ele><time>2026-04-04T14:24:46.001Z</time></trkpt><trkpt lat="41.18224745760162" lon="14.09285765355047"><ele>50.0</ele><time>2026-04-04T14:24:47.001Z</time></trkpt><trkpt lat="41.18237687681628" lon="14.09287101041472"><ele>51.0</ele><time>2026-04-04T14:24:48.001Z</time></trkpt><trkpt lat="41.182508409560675" lon="14.092888457850957"><ele>52.0</ele><time>2026-04-04T14:24:49.001Z</time></trkpt><trkpt lat="41.18264837580897" lon="14.092905411053653"><ele>53.0</ele><time>2026-04-04T14:24:50.001Z</time></trkpt><trkpt lat="41.18278261115549" lon="14.092963050512548"><ele>53.0</ele><time>2026-04-04T14:24:51.001Z</time></trkpt><trkpt lat="41.18291397670887" lon="14.093000124292942"><ele>53.0</ele><time>2026-04-04T14:24:52.001Z</time></trkpt><trkpt lat="41.18304174554717" lon="14.093057442570018"><ele>53.0</ele><time>2026-04-04T14:24:53.001Z</time></trkpt><trkpt lat="41.183171651225734" lon="14.09311892909088"><ele>53.0</ele><time>2026-04-04T14:24:54.001Z</time></trkpt><trkpt lat="41.18331202201439" lon="14.09317884140319"><ele>53.66666666666667</ele><time>2026-04-04T14:24:55.001Z</time></trkpt><trkpt lat="41.183478455442064" lon="14.093239086802257"><ele>54.33333333333333</ele><time>2026-04-04T14:24:56.001Z</time></trkpt><trkpt lat="41.183658355796766" lon="14.093327697904195"><ele>55.0</ele><time>2026-04-04T14:24:57.001Z</time></trkpt><trkpt lat="41.1838207648459" lon="14.093410554038666"><ele>55.0</ele><time>2026-04-04T14:24:58.001Z</time></trkpt><trkpt lat="41.18397318767248" lon="14.093484511998337"><ele>55.0</ele><time>2026-04-04T14:24:59.001Z</time></trkpt><trkpt lat="41.184117755472194" lon="14.09354210977457"><ele>55.0</ele><time>2026-04-04T14:25:00.001Z</time></trkpt><trkpt lat="41.18425993309885" lon="14.09359957754135"><ele>55.75</ele><time>2026-04-04T14:25:01.001Z</time></trkpt><trkpt lat="41.184389184210076" lon="14.093655341420991"><ele>56.5</ele><time>2026-04-04T14:25:02.001Z</time></trkpt><trkpt lat="41.184497878885985" lon="14.093711028457324"><ele>57.25</ele><time>2026-04-04T14:25:03.001Z</time></trkpt><trkpt lat="41.184608606603305" lon="14.093750401068629"><ele>58.0</ele><time>2026-04-04T14:25:04.001Z</time></trkpt><trkpt lat="41.18472264735363" lon="14.093792104307711"><ele>58.0</ele><time>2026-04-04T14:25:05.001Z</time></trkpt><trkpt lat="41.18484255962769" lon="14.093833180274034"><ele>58.0</ele><time>2026-04-04T14:25:06.001Z</time></trkpt><trkpt lat="41.18496408164568" lon="14.093875415229432"><ele>58.0</ele><time>2026-04-04T14:25:07.001Z</time></trkpt><trkpt lat="41.18508632494796" lon="14.093903156363028"><ele>58.0</ele><time>2026-04-04T14:25:08.001Z</time></trkpt><trkpt lat="41.185215026167704" lon="14.093920202839062"><ele>58.49999999999999</ele><time>2026-04-04T14:25:09.001Z</time></trkpt><trkpt lat="41.185326481553346" lon="14.09392603279051"><ele>59.0</ele><time>2026-04-04T14:25:10.001Z</time></trkpt><trkpt lat="41.18542849568928" lon="14.093933192869018"><ele>59.5</ele><time>2026-04-04T14:25:11.001Z</time></trkpt><trkpt lat="41.1855146210101" lon="14.093944198794544"><ele>60.0</ele><time>2026-04-04T14:25:12.001Z</time></trkpt><trkpt lat="41.18558152368182" lon="14.093956908636033"><ele>60.49999999999999</ele><time>2026-04-04T14:25:13.001Z</time></trkpt><trkpt lat="41.185651561662894" lon="14.093973712618748"><ele>61.0</ele><time>2026-04-04T14:25:14.001Z</time></trkpt><trkpt lat="41.18572361249214" lon="14.093982159423469"><ele>61.49999999999999</ele><time>2026-04-04T14:25:15.001Z</time></trkpt><trkpt lat="41.18580199968171" lon="14.093975796383155"><ele>62.0</ele><time>2026-04-04T14:25:16.001Z</time></trkpt><trkpt lat="41.185890225978056" lon="14.093966451924988"><ele>62.5</ele><time>2026-04-04T14:25:17.001Z</time></trkpt><trkpt lat="41.1859924682903" lon="14.093952423021426"><ele>63.0</ele><time>2026-04-04T14:25:18.001Z</time></trkpt><trkpt lat="41.18608419563964" lon="14.093941419112419"><ele>63.49999999999999</ele><time>2026-04-04T14:25:19.001Z</time></trkpt><trkpt lat="41.186158079041256" lon="14.09393297342045"><ele>64.0</ele><time>2026-04-04T14:25:20.001Z</time></trkpt><trkpt lat="41.18622127535631" lon="14.093923017796758"><ele>63.99999999999999</ele><time>2026-04-04T14:25:21.001Z</time></trkpt><trkpt lat="41.18628375834288" lon="14.093911293505451"><ele>64.0</ele><time>2026-04-04T14:25:22.001Z</time></trkpt><trkpt lat="41.186352325642495" lon="14.093902737451314"><ele>64.0</ele><time>2026-04-04T14:25:24.001Z</time></trkpt><trkpt lat="41.18643235418999" lon="14.093921174543377"><ele>64.0</ele><time>2026-04-04T14:25:31.001Z</time></trkpt><trkpt lat="41.18640871079528" lon="14.094055409226272"><ele>63.99999999999999</ele><time>2026-04-04T14:25:32.001Z</time></trkpt><trkpt lat="41.186397144111126" lon="14.094186298672422"><ele>64.0</ele><time>2026-04-04T14:25:33.001Z</time></trkpt><trkpt lat="41.186380530087405" lon="14.09436061909763"><ele>63.75</ele><time>2026-04-04T14:25:34.001Z</time></trkpt><trkpt lat="41.1863638417304" lon="14.094549057770127"><ele>63.5</ele><time>2026-04-04T14:25:35.001Z</time></trkpt><trkpt lat="41.18634837796317" lon="14.094727030431285"><ele>63.25</ele><time>2026-04-04T14:25:36.001Z</time></trkpt><trkpt lat="41.18633772286788" lon="14.094849659993438"><ele>63.0</ele><time>2026-04-04T14:25:37.002Z</time></trkpt><trkpt lat="41.186338408419374" lon="14.094957628945764"><ele>63.4</ele><time>2026-04-04T14:25:38.002Z</time></trkpt><trkpt lat="41.1863299673441" lon="14.095054046703646"><ele>63.8</ele><time>2026-04-04T14:25:39.002Z</time></trkpt><trkpt lat="41.186314548482144" lon="14.095190757606728"><ele>64.2</ele><time>2026-04-04T14:25:41.002Z</time></trkpt><trkpt lat="41.1863007447934" lon="14.095299300308572"><ele>64.6</ele><time>2026-04-04T14:25:43.002Z</time></trkpt><trkpt lat="41.18629526611396" lon="14.09543163666088"><ele>65.0</ele><time>2026-04-04T14:25:45.002Z</time></trkpt><trkpt lat="41.186278132344086" lon="14.095591348807146"><ele>65.0</ele><time>2026-04-04T14:25:47.002Z</time></trkpt><trkpt lat="41.18627268861596" lon="14.095696135482319"><ele>65.0</ele><time>2026-04-04T14:25:48.002Z</time></trkpt><trkpt lat="41.18624555738099" lon="14.095813443138708"><ele>65.0</ele><time>2026-04-04T14:25:49.002Z</time></trkpt><trkpt lat="41.18623665974679" lon="14.09593453750245"><ele>65.0</ele><time>2026-04-04T14:25:50.002Z</time></trkpt><trkpt lat="41.18622777579358" lon="14.096043720269874"><ele>65.0</ele><time>2026-04-04T14:25:51.002Z</time></trkpt><trkpt lat="41.18621678639324" lon="14.096178778722022"><ele>65.0</ele><time>2026-04-04T14:25:52.002Z</time></trkpt><trkpt lat="41.186203723659844" lon="14.096339318151925"><ele>64.8</ele><time>2026-04-04T14:25:53.002Z</time></trkpt><trkpt lat="41.18619043098376" lon="14.09649741812505"><ele>64.6</ele><time>2026-04-04T14:25:54.002Z</time></trkpt><trkpt lat="41.18617822203725" lon="14.096634290822795"><ele>64.4</ele><time>2026-04-04T14:25:55.002Z</time></trkpt><trkpt lat="41.18616641113165" lon="14.09675193208918"><ele>64.2</ele><time>2026-04-04T14:25:56.002Z</time></trkpt><trkpt lat="41.186155366177346" lon="14.096870018599958"><ele>64.0</ele><time>2026-04-04T14:25:57.002Z</time></trkpt><trkpt lat="41.186143153545494" lon="14.097006589774365"><ele>63.666666666666664</ele><time>2026-04-04T14:25:58.002Z</time></trkpt><trkpt lat="41.18612766058823" lon="14.097179844176674"><ele>63.33333333333333</ele><time>2026-04-04T14:25:59.002Z</time></trkpt><trkpt lat="41.18610879098647" lon="14.097390858863305"><ele>63.0</ele><time>2026-04-04T14:26:00.002Z</time></trkpt><trkpt lat="41.18608802504576" lon="14.097623079892593"><ele>63.0</ele><time>2026-04-04T14:26:01.002Z</time></trkpt><trkpt lat="41.186067740399686" lon="14.09786323634711"><ele>63.0</ele><time>2026-04-04T14:26:02.002Z</time></trkpt><trkpt lat="41.186053186065536" lon="14.098095575492788"><ele>63.0</ele><time>2026-04-04T14:26:03.002Z</time></trkpt><trkpt lat="41.18603018376147" lon="14.098303366764394"><ele>63.25</ele><time>2026-04-04T14:26:04.002Z</time></trkpt><trkpt lat="41.18601120534601" lon="14.09849324673485"><ele>63.5</ele><time>2026-04-04T14:26:05Z</time></trkpt><trkpt lat="41.18599657336955" lon="14.098667334130162"><ele>63.75</ele><time>2026-04-04T14:26:06Z</time></trkpt><trkpt lat="41.18599549045925" lon="14.098838618325846"><ele>64.0</ele><time>2026-04-04T14:26:07Z</time></trkpt><trkpt lat="41.186013314481634" lon="14.098999537079251"><ele>63.75</ele><time>2026-04-04T14:26:08Z</time></trkpt><trkpt lat="41.18605303115141" lon="14.09916758298651"><ele>63.5</ele><time>2026-04-04T14:26:09Z</time></trkpt><trkpt lat="41.18610592074215" lon="14.099324354118723"><ele>63.25</ele><time>2026-04-04T14:26:10Z</time></trkpt><trkpt lat="41.18617388983605" lon="14.099471360477162"><ele>63.0</ele><time>2026-04-04T14:26:11Z</time></trkpt><trkpt lat="41.186266720040706" lon="14.099600259545738"><ele>63.0</ele><time>2026-04-04T14:26:12Z</time></trkpt><trkpt lat="41.18635772960725" lon="14.099762549913"><ele>63.0</ele><time>2026-04-04T14:26:13Z</time></trkpt><trkpt lat="41.18646647106833" lon="14.099909584160422"><ele>63.0</ele><time>2026-04-04T14:26:14Z</time></trkpt><trkpt lat="41.18658269762262" lon="14.100046679892177"><ele>63.75</ele><time>2026-04-04T14:26:15Z</time></trkpt><trkpt lat="41.18668515991066" lon="14.10020555874892"><ele>64.5</ele><time>2026-04-04T14:26:16Z</time></trkpt><trkpt lat="41.186776114934524" lon="14.100332572912107"><ele>65.25</ele><time>2026-04-04T14:26:17Z</time></trkpt><trkpt lat="41.186843138372815" lon="14.10042801655165"><ele>66.0</ele><time>2026-04-04T14:26:18Z</time></trkpt><trkpt lat="41.18691014091779" lon="14.10050986538962"><ele>66.0</ele><time>2026-04-04T14:26:19Z</time></trkpt><trkpt lat="41.186994607614324" lon="14.100617650133996"><ele>66.0</ele><time>2026-04-04T14:26:20Z</time></trkpt><trkpt lat="41.187077205806446" lon="14.100720575864443"><ele>66.0</ele><time>2026-04-04T14:26:21Z</time></trkpt><trkpt lat="41.18716707741123" lon="14.100831018716784"><ele>66.0</ele><time>2026-04-04T14:26:22Z</time></trkpt><trkpt lat="41.1872547895888" lon="14.100980756108129"><ele>66.33333333333333</ele><time>2026-04-04T14:26:23Z</time></trkpt><trkpt lat="41.18738916884692" lon="14.101137175975724"><ele>66.66666666666666</ele><time>2026-04-04T14:26:24Z</time></trkpt><trkpt lat="41.1875077052545" lon="14.101305101919733"><ele>67.0</ele><time>2026-04-04T14:26:25Z</time></trkpt><trkpt lat="41.18763729314983" lon="14.1014864127518"><ele>66.0</ele><time>2026-04-04T14:26:26Z</time></trkpt><trkpt lat="41.18776383662007" lon="14.101664237053571"><ele>65.0</ele><time>2026-04-04T14:26:27Z</time></trkpt><trkpt lat="41.187892314239704" lon="14.101838473888533"><ele>64.0</ele><time>2026-04-04T14:26:28Z</time></trkpt><trkpt lat="41.188007753736365" lon="14.102013051540409"><ele>64.0</ele><time>2026-04-04T14:26:29Z</time></trkpt><trkpt lat="41.18811951183458" lon="14.102158420619904"><ele>64.0</ele><time>2026-04-04T14:26:30Z</time></trkpt><trkpt lat="41.18822533947812" lon="14.102303172610346"><ele>64.0</ele><time>2026-04-04T14:26:31Z</time></trkpt><trkpt lat="41.1883222437294" lon="14.102433610975806"><ele>64.0</ele><time>2026-04-04T14:26:32Z</time></trkpt><trkpt lat="41.188414644319266" lon="14.102573606584995"><ele>63.666666666666664</ele><time>2026-04-04T14:26:33Z</time></trkpt><trkpt lat="41.18851390937412" lon="14.102747050946846"><ele>63.33333333333333</ele><time>2026-04-04T14:26:34Z</time></trkpt><trkpt lat="41.188597931849756" lon="14.102922304117282"><ele>63.0</ele><time>2026-04-04T14:26:35Z</time></trkpt><trkpt lat="41.18868286372164" lon="14.103065960939372"><ele>63.0</ele><time>2026-04-04T14:26:36Z</time></trkpt><trkpt lat="41.18878898979309" lon="14.103193279382204"><ele>63.0</ele><time>2026-04-04T14:26:37Z</time></trkpt><trkpt lat="41.18891417523843" lon="14.103287596990683"><ele>63.0</ele><time>2026-04-04T14:26:38Z</time></trkpt><trkpt lat="41.18906231862692" lon="14.10333698406634"><ele>63.0</ele><time>2026-04-04T14:26:39Z</time></trkpt><trkpt lat="41.189237148229054" lon="14.103348424114309"><ele>62.0</ele><time>2026-04-04T14:26:40Z</time></trkpt><trkpt lat="41.18943006397053" lon="14.103330028461464"><ele>61.0</ele><time>2026-04-04T14:26:41Z</time></trkpt><trkpt lat="41.189637424146596" lon="14.103306283388232"><ele>60.0</ele><time>2026-04-04T14:26:42Z</time></trkpt><trkpt lat="41.189853125333066" lon="14.103275761769908"><ele>60.0</ele><time>2026-04-04T14:26:43Z</time></trkpt><trkpt lat="41.19006989260452" lon="14.103239885333055"><ele>60.0</ele><time>2026-04-04T14:26:44Z</time></trkpt><trkpt lat="41.19028409185305" lon="14.103212514433968"><ele>60.0</ele><time>2026-04-04T14:26:45.001Z</time></trkpt><trkpt lat="41.190500698935274" lon="14.103188577404364"><ele>61.66666666666667</ele><time>2026-04-04T14:26:46.001Z</time></trkpt><trkpt lat="41.19072026541172" lon="14.103176370252381"><ele>63.333333333333336</ele><time>2026-04-04T14:26:47.001Z</time></trkpt><trkpt lat="41.19094515664256" lon="14.103182083186333"><ele>65.0</ele><time>2026-04-04T14:26:48.001Z</time></trkpt><trkpt lat="41.19117963815056" lon="14.103216804332453"><ele>64.0</ele><time>2026-04-04T14:26:49.001Z</time></trkpt><trkpt lat="41.191426550778516" lon="14.103255216696999"><ele>63.0</ele><time>2026-04-04T14:26:50.001Z</time></trkpt><trkpt lat="41.19167781309751" lon="14.103300683453758"><ele>65.0</ele><time>2026-04-04T14:26:51.001Z</time></trkpt><trkpt lat="41.191936926403734" lon="14.103350603100317"><ele>67.0</ele><time>2026-04-04T14:26:52.001Z</time></trkpt><trkpt lat="41.1922004149036" lon="14.103400090355946"><ele>66.0</ele><time>2026-04-04T14:26:53.001Z</time></trkpt><trkpt lat="41.192468479433835" lon="14.10345546009081"><ele>65.0</ele><time>2026-04-04T14:26:54.001Z</time></trkpt><trkpt lat="41.192727466098205" lon="14.103504712232057"><ele>65.0</ele><time>2026-04-04T14:26:55.001Z</time></trkpt><trkpt lat="41.192962023597296" lon="14.103548792174294"><ele>65.0</ele><time>2026-04-04T14:26:56.001Z</time></trkpt><trkpt lat="41.19317880862348" lon="14.103587222642439"><ele>66.33333333333334</ele><time>2026-04-04T14:26:57.001Z</time></trkpt><trkpt lat="41.19337396185382" lon="14.10362433329251"><ele>67.66666666666667</ele><time>2026-04-04T14:26:58.001Z</time></trkpt><trkpt lat="41.19355121996277" lon="14.103659499492311"><ele>69.0</ele><time>2026-04-04T14:26:59.001Z</time></trkpt><trkpt lat="41.19371309232062" lon="14.10369306916505"><ele>69.0</ele><time>2026-04-04T14:27:00.001Z</time></trkpt><trkpt lat="41.19385278847501" lon="14.103719822357455"><ele>69.0</ele><time>2026-04-04T14:27:01.001Z</time></trkpt><trkpt lat="41.193971823378604" lon="14.103737081450793"><ele>69.0</ele><time>2026-04-04T14:27:02.001Z</time></trkpt><trkpt lat="41.194075742038905" lon="14.103759531221185"><ele>69.0</ele><time>2026-04-04T14:27:03.001Z</time></trkpt><trkpt lat="41.19416118823546" lon="14.103778834306251"><ele>70.0</ele><time>2026-04-04T14:27:04.001Z</time></trkpt><trkpt lat="41.19423008275028" lon="14.103789957694943"><ele>71.0</ele><time>2026-04-04T14:27:05.001Z</time></trkpt><trkpt lat="41.19429476007917" lon="14.103802343663995"><ele>72.0</ele><time>2026-04-04T14:27:06.001Z</time></trkpt><trkpt lat="41.19435795842864" lon="14.10381074701879"><ele>73.0</ele><time>2026-04-04T14:27:07.001Z</time></trkpt><trkpt lat="41.194423056115404" lon="14.103818199426746"><ele>74.0</ele><time>2026-04-04T14:27:08.001Z</time></trkpt><trkpt lat="41.19453794593491" lon="14.103843547191328"><ele>75.0</ele><time>2026-04-04T14:27:10.001Z</time></trkpt><trkpt lat="41.19463433113426" lon="14.103880785093656"><ele>75.0</ele><time>2026-04-04T14:27:12.001Z</time></trkpt><trkpt lat="41.19471867091988" lon="14.103908136098646"><ele>75.0</ele><time>2026-04-04T14:27:15.001Z</time></trkpt><trkpt lat="41.19474174676201" lon="14.104049391665972"><ele>75.0</ele><time>2026-04-04T14:27:16.001Z</time></trkpt><trkpt lat="41.194758100694585" lon="14.104171890412438"><ele>75.0</ele><time>2026-04-04T14:27:17.001Z</time></trkpt><trkpt lat="41.19479673678819" lon="14.104315258755108"><ele>75.0</ele><time>2026-04-04T14:27:18.001Z</time></trkpt><trkpt lat="41.194839555277376" lon="14.104473608323095"><ele>75.66666666666667</ele><time>2026-04-04T14:27:19.001Z</time></trkpt><trkpt lat="41.194889166115985" lon="14.104657077461535"><ele>76.33333333333334</ele><time>2026-04-04T14:27:20.001Z</time></trkpt><trkpt lat="41.19494516511538" lon="14.104864170245929"><ele>77.0</ele><time>2026-04-04T14:27:21.001Z</time></trkpt><trkpt lat="41.19500167902878" lon="14.105073167280706"><ele>77.33333333333334</ele><time>2026-04-04T14:27:22.001Z</time></trkpt><trkpt lat="41.195059260392256" lon="14.105285833299181"><ele>77.66666666666667</ele><time>2026-04-04T14:27:23.001Z</time></trkpt><trkpt lat="41.19511674464417" lon="14.10549793986567"><ele>78.0</ele><time>2026-04-04T14:27:24.001Z</time></trkpt><trkpt lat="41.19518801398255" lon="14.105702223547688"><ele>78.66666666666667</ele><time>2026-04-04T14:27:25.001Z</time></trkpt><trkpt lat="41.19524290694187" lon="14.105909831265594"><ele>79.33333333333334</ele><time>2026-04-04T14:27:26.001Z</time></trkpt><trkpt lat="41.19529937589912" lon="14.106131341892253"><ele>80.0</ele><time>2026-04-04T14:27:27.001Z</time></trkpt><trkpt lat="41.19536418119086" lon="14.10636398495982"><ele>79.66666666666667</ele><time>2026-04-04T14:27:28.001Z</time></trkpt><trkpt lat="41.19541791054735" lon="14.106599541680065"><ele>79.33333333333333</ele><time>2026-04-04T14:27:29.001Z</time></trkpt><trkpt lat="41.19548733395255" lon="14.106853442685182"><ele>79.0</ele><time>2026-04-04T14:27:30.001Z</time></trkpt><trkpt lat="41.19556355930792" lon="14.107118907471675"><ele>79.0</ele><time>2026-04-04T14:27:31.001Z</time></trkpt><trkpt lat="41.19564547089391" lon="14.107379944920032"><ele>79.0</ele><time>2026-04-04T14:27:32.001Z</time></trkpt><trkpt lat="41.19575141734901" lon="14.107633672108035"><ele>79.0</ele><time>2026-04-04T14:27:33.001Z</time></trkpt><trkpt lat="41.19585596640772" lon="14.107902712291745"><ele>80.0</ele><time>2026-04-04T14:27:34.001Z</time></trkpt><trkpt lat="41.19596937704635" lon="14.108175778538506"><ele>81.0</ele><time>2026-04-04T14:27:35.001Z</time></trkpt><trkpt lat="41.19608211918112" lon="14.108454473311903"><ele>81.0</ele><time>2026-04-04T14:27:36.001Z</time></trkpt><trkpt lat="41.19618531319148" lon="14.108728284172354"><ele>81.0</ele><time>2026-04-04T14:27:37.001Z</time></trkpt><trkpt lat="41.19627252513895" lon="14.108980487227306"><ele>81.0</ele><time>2026-04-04T14:27:38.001Z</time></trkpt><trkpt lat="41.19635331182623" lon="14.109233163484275"><ele>81.0</ele><time>2026-04-04T14:27:39.001Z</time></trkpt><trkpt lat="41.19642376989389" lon="14.109492895864669"><ele>81.0</ele><time>2026-04-04T14:27:40.001Z</time></trkpt><trkpt lat="41.19646147339602" lon="14.10977570130886"><ele>81.0</ele><time>2026-04-04T14:27:41.001Z</time></trkpt><trkpt lat="41.19650988942422" lon="14.110071170691926"><ele>81.0</ele><time>2026-04-04T14:27:42.001Z</time></trkpt><trkpt lat="41.19655179401595" lon="14.11038371403092"><ele>81.0</ele><time>2026-04-04T14:27:43.001Z</time></trkpt><trkpt lat="41.196588630903285" lon="14.11069594776039"><ele>81.0</ele><time>2026-04-04T14:27:44.001Z</time></trkpt><trkpt lat="41.19664466858009" lon="14.111005674775457"><ele>81.0</ele><time>2026-04-04T14:27:45.001Z</time></trkpt><trkpt lat="41.19671792658743" lon="14.111305037653342"><ele>82.0</ele><time>2026-04-04T14:27:46.001Z</time></trkpt><trkpt lat="41.196799677502554" lon="14.111601339953129"><ele>83.0</ele><time>2026-04-04T14:27:47.001Z</time></trkpt><trkpt lat="41.19688235978003" lon="14.111900715354897"><ele>83.0</ele><time>2026-04-04T14:27:48.001Z</time></trkpt><trkpt lat="41.19696247900196" lon="14.112190516014412"><ele>83.0</ele><time>2026-04-04T14:27:49.001Z</time></trkpt><trkpt lat="41.197045231206026" lon="14.112489411990932"><ele>82.5</ele><time>2026-04-04T14:27:50.001Z</time></trkpt><trkpt lat="41.19712856979515" lon="14.1127906673014"><ele>82.0</ele><time>2026-04-04T14:27:51.001Z</time></trkpt><trkpt lat="41.197209806122046" lon="14.113085312656287"><ele>81.5</ele><time>2026-04-04T14:27:52.001Z</time></trkpt><trkpt lat="41.197290950827096" lon="14.113379625607067"><ele>81.0</ele><time>2026-04-04T14:27:53.001Z</time></trkpt><trkpt lat="41.19736649844044" lon="14.113653637936556"><ele>80.66666666666667</ele><time>2026-04-04T14:27:54.002Z</time></trkpt><trkpt lat="41.19745217241682" lon="14.11390143634987"><ele>80.33333333333334</ele><time>2026-04-04T14:27:55.002Z</time></trkpt><trkpt lat="41.197517086918815" lon="14.114149358696757"><ele>80.0</ele><time>2026-04-04T14:27:56.002Z</time></trkpt><trkpt lat="41.19758368531242" lon="14.114389470479702"><ele>81.0</ele><time>2026-04-04T14:27:57.002Z</time></trkpt><trkpt lat="41.19764988135469" lon="14.114622982906699"><ele>82.0</ele><time>2026-04-04T14:27:58.002Z</time></trkpt><trkpt lat="41.19771588377813" lon="14.11485878103083"><ele>83.0</ele><time>2026-04-04T14:27:59.002Z</time></trkpt><trkpt lat="41.19777551772815" lon="14.115097119273319"><ele>83.33333333333334</ele><time>2026-04-04T14:28:00.002Z</time></trkpt><trkpt lat="41.19783764712345" lon="14.115328558585942"><ele>83.66666666666667</ele><time>2026-04-04T14:28:01.002Z</time></trkpt><trkpt lat="41.19789737242346" lon="14.115548262539196"><ele>84.0</ele><time>2026-04-04T14:28:02.002Z</time></trkpt><trkpt lat="41.197953622932005" lon="14.115750436796874"><ele>84.0</ele><time>2026-04-04T14:28:03.002Z</time></trkpt><trkpt lat="41.19799791197843" lon="14.115953200341322"><ele>84.0</ele><time>2026-04-04T14:28:04.002Z</time></trkpt><trkpt lat="41.198055207410604" lon="14.116162891746491"><ele>84.0</ele><time>2026-04-04T14:28:05.002Z</time></trkpt><trkpt lat="41.19814077709456" lon="14.1163751429906"><ele>84.66666666666667</ele><time>2026-04-04T14:28:06.002Z</time></trkpt><trkpt lat="41.19821413089897" lon="14.1166121431133"><ele>85.33333333333334</ele><time>2026-04-04T14:28:07.002Z</time></trkpt><trkpt lat="41.19828549669004" lon="14.116866185082078"><ele>86.0</ele><time>2026-04-04T14:28:08.002Z</time></trkpt><trkpt lat="41.19836008165212" lon="14.117130454812447"><ele>86.66666666666667</ele><time>2026-04-04T14:28:09.002Z</time></trkpt><trkpt lat="41.19840028628869" lon="14.117418856313867"><ele>87.33333333333333</ele><time>2026-04-04T14:28:10.002Z</time></trkpt><trkpt lat="41.19847543344038" lon="14.117694956326373"><ele>88.0</ele><time>2026-04-04T14:28:11Z</time></trkpt><trkpt lat="41.19858447260016" lon="14.11796192530088"><ele>88.5</ele><time>2026-04-04T14:28:12Z</time></trkpt><trkpt lat="41.198661308425564" lon="14.11824821143654"><ele>89.0</ele><time>2026-04-04T14:28:13Z</time></trkpt><trkpt lat="41.19874193068527" lon="14.118533830347825"><ele>89.0</ele><time>2026-04-04T14:28:14Z</time></trkpt><trkpt lat="41.1988153488624" lon="14.11880147584544"><ele>89.0</ele><time>2026-04-04T14:28:15Z</time></trkpt><trkpt lat="41.1988837901931" lon="14.11906326656712"><ele>89.0</ele><time>2026-04-04T14:28:16Z</time></trkpt><trkpt lat="41.19895493236602" lon="14.119330473240725"><ele>91.66666666666667</ele><time>2026-04-04T14:28:17Z</time></trkpt><trkpt lat="41.19902022231989" lon="14.11960080801513"><ele>94.33333333333334</ele><time>2026-04-04T14:28:18Z</time></trkpt><trkpt lat="41.1990787315372" lon="14.119871967021746"><ele>97.0</ele><time>2026-04-04T14:28:19Z</time></trkpt><trkpt lat="41.19912758551192" lon="14.120148225836054"><ele>97.0</ele><time>2026-04-04T14:28:20Z</time></trkpt><trkpt lat="41.19916676690914" lon="14.120410292971743"><ele>97.0</ele><time>2026-04-04T14:28:21Z</time></trkpt><trkpt lat="41.1991955355105" lon="14.12064282232703"><ele>97.0</ele><time>2026-04-04T14:28:22Z</time></trkpt><trkpt lat="41.199236531398924" lon="14.120861267550259"><ele>96.33333333333334</ele><time>2026-04-04T14:28:23Z</time></trkpt><trkpt lat="41.1993117192405" lon="14.121088739317761"><ele>95.66666666666667</ele><time>2026-04-04T14:28:24Z</time></trkpt><trkpt lat="41.199417905796345" lon="14.121311614361307"><ele>95.0</ele><time>2026-04-04T14:28:25Z</time></trkpt><trkpt lat="41.19954817354195" lon="14.121533585491786"><ele>94.5</ele><time>2026-04-04T14:28:26Z</time></trkpt><trkpt lat="41.199696703343605" lon="14.121753635247458"><ele>94.0</ele><time>2026-04-04T14:28:27Z</time></trkpt><trkpt lat="41.19983624162483" lon="14.121991899842461"><ele>95.0</ele><time>2026-04-04T14:28:28Z</time></trkpt><trkpt lat="41.19996677864661" lon="14.12221379674473"><ele>96.0</ele><time>2026-04-04T14:28:29Z</time></trkpt><trkpt lat="41.2000908526823" lon="14.122414780971871"><ele>97.0</ele><time>2026-04-04T14:28:30Z</time></trkpt><trkpt lat="41.20021807929794" lon="14.122593771881862"><ele>97.0</ele><time>2026-04-04T14:28:31Z</time></trkpt><trkpt lat="41.200356957251735" lon="14.122726972258882"><ele>97.0</ele><time>2026-04-04T14:28:32Z</time></trkpt><trkpt lat="41.20051436399931" lon="14.122826038900808"><ele>97.0</ele><time>2026-04-04T14:28:33Z</time></trkpt><trkpt lat="41.20069247658754" lon="14.122913264210709"><ele>99.33333333333334</ele><time>2026-04-04T14:28:34Z</time></trkpt><trkpt lat="41.20088777435468" lon="14.122975541660749"><ele>101.66666666666666</ele><time>2026-04-04T14:28:35Z</time></trkpt><trkpt lat="41.2010947915132" lon="14.12303273234165"><ele>104.0</ele><time>2026-04-04T14:28:36Z</time></trkpt><trkpt lat="41.2012993645173" lon="14.123099999313135"><ele>108.5</ele><time>2026-04-04T14:28:37Z</time></trkpt><trkpt lat="41.20151880929623" lon="14.123152328826906"><ele>113.0</ele><time>2026-04-04T14:28:38Z</time></trkpt><trkpt lat="41.20174800105267" lon="14.1231842136698"><ele>113.0</ele><time>2026-04-04T14:28:39Z</time></trkpt><trkpt lat="41.2019882729315" lon="14.123193566985288"><ele>113.0</ele><time>2026-04-04T14:28:40Z</time></trkpt><trkpt lat="41.20223513791184" lon="14.1231996929912"><ele>111.5</ele><time>2026-04-04T14:28:41Z</time></trkpt><trkpt lat="41.20248729909468" lon="14.12320279444411"><ele>110.0</ele><time>2026-04-04T14:28:42Z</time></trkpt><trkpt lat="41.20273842644778" lon="14.123211847293854"><ele>110.0</ele><time>2026-04-04T14:28:43Z</time></trkpt><trkpt lat="41.20298613261071" lon="14.12321365041807"><ele>110.0</ele><time>2026-04-04T14:28:44Z</time></trkpt><trkpt lat="41.203244665383146" lon="14.12322841640896"><ele>105.5</ele><time>2026-04-04T14:28:45Z</time></trkpt><trkpt lat="41.203501819233736" lon="14.123236985486713"><ele>101.0</ele><time>2026-04-04T14:28:46Z</time></trkpt><trkpt lat="41.203764353566335" lon="14.123248904216283"><ele>100.5</ele><time>2026-04-04T14:28:47Z</time></trkpt><trkpt lat="41.20400373043918" lon="14.123256240254364"><ele>100.0</ele><time>2026-04-04T14:28:48Z</time></trkpt><trkpt lat="41.20422274967267" lon="14.123261319479614"><ele>100.0</ele><time>2026-04-04T14:28:49Z</time></trkpt><trkpt lat="41.204433474559764" lon="14.1232645298455"><ele>100.0</ele><time>2026-04-04T14:28:50Z</time></trkpt><trkpt lat="41.2046228133068" lon="14.123280235525515"><ele>100.0</ele><time>2026-04-04T14:28:51Z</time></trkpt><trkpt lat="41.20480661281829" lon="14.123323269531392"><ele>99.66666666666667</ele><time>2026-04-04T14:28:52Z</time></trkpt><trkpt lat="41.20499751115677" lon="14.123403182638555"><ele>99.33333333333334</ele><time>2026-04-04T14:28:53Z</time></trkpt><trkpt lat="41.20518913787027" lon="14.123513329537543"><ele>99.0</ele><time>2026-04-04T14:28:54Z</time></trkpt><trkpt lat="41.20537418038359" lon="14.123648792869835"><ele>99.0</ele><time>2026-04-04T14:28:55.001Z</time></trkpt><trkpt lat="41.205560941956115" lon="14.123804660702888"><ele>99.0</ele><time>2026-04-04T14:28:56.001Z</time></trkpt><trkpt lat="41.20572369899586" lon="14.12393969479784"><ele>99.0</ele><time>2026-04-04T14:28:57.001Z</time></trkpt><trkpt lat="41.20586738178261" lon="14.1240513345344"><ele>99.0</ele><time>2026-04-04T14:28:58.001Z</time></trkpt><trkpt lat="41.20600198821756" lon="14.124151749397694"><ele>99.0</ele><time>2026-04-04T14:28:59.001Z</time></trkpt><trkpt lat="41.20611892398651" lon="14.124252012049121"><ele>99.0</ele><time>2026-04-04T14:29:00.001Z</time></trkpt><trkpt lat="41.20622714878311" lon="14.124342609453384"><ele>99.0</ele><time>2026-04-04T14:29:01.001Z</time></trkpt><trkpt lat="41.20633730198331" lon="14.124428186914386"><ele>99.0</ele><time>2026-04-04T14:29:02.001Z</time></trkpt><trkpt lat="41.206453011710664" lon="14.12450328814126"><ele>99.0</ele><time>2026-04-04T14:29:03.001Z</time></trkpt><trkpt lat="41.20657659432137" lon="14.124533367010455"><ele>99.0</ele><time>2026-04-04T14:29:04.001Z</time></trkpt><trkpt lat="41.20668710405069" lon="14.12454549439576"><ele>99.0</ele><time>2026-04-04T14:29:05.001Z</time></trkpt><trkpt lat="41.2067953689749" lon="14.12454228308984"><ele>98.6</ele><time>2026-04-04T14:29:06.001Z</time></trkpt><trkpt lat="41.20690381316965" lon="14.124523995241548"><ele>98.2</ele><time>2026-04-04T14:29:07.001Z</time></trkpt><trkpt lat="41.20700425846763" lon="14.124486545778938"><ele>97.8</ele><time>2026-04-04T14:29:08.001Z</time></trkpt><trkpt lat="41.207098384014024" lon="14.124437008879184"><ele>97.39999999999999</ele><time>2026-04-04T14:29:09.001Z</time></trkpt><trkpt lat="41.20718390962186" lon="14.124371855705705"><ele>97.0</ele><time>2026-04-04T14:29:10.001Z</time></trkpt><trkpt lat="41.207272420216256" lon="14.124290485948316"><ele>96.5</ele><time>2026-04-04T14:29:11.001Z</time></trkpt><trkpt lat="41.20735037968932" lon="14.124186925430385"><ele>96.0</ele><time>2026-04-04T14:29:12.001Z</time></trkpt><trkpt lat="41.20742823514768" lon="14.12406077441009"><ele>95.5</ele><time>2026-04-04T14:29:13.001Z</time></trkpt><trkpt lat="41.20750964677403" lon="14.123906307396755"><ele>95.0</ele><time>2026-04-04T14:29:14.001Z</time></trkpt><trkpt lat="41.207593661496084" lon="14.123728198173277"><ele>95.0</ele><time>2026-04-04T14:29:15.001Z</time></trkpt><trkpt lat="41.207677932380726" lon="14.123545409504363"><ele>95.0</ele><time>2026-04-04T14:29:16.001Z</time></trkpt><trkpt lat="41.20776594489508" lon="14.123363318016317"><ele>95.0</ele><time>2026-04-04T14:29:17.001Z</time></trkpt><trkpt lat="41.20783833494097" lon="14.123194614122959"><ele>95.5</ele><time>2026-04-04T14:29:18.001Z</time></trkpt><trkpt lat="41.20791353388946" lon="14.123031926733933"><ele>96.0</ele><time>2026-04-04T14:29:19.001Z</time></trkpt><trkpt lat="41.207981989787164" lon="14.12287485963335"><ele>96.5</ele><time>2026-04-04T14:29:20.001Z</time></trkpt><trkpt lat="41.20804916597806" lon="14.122725515171046"><ele>97.0</ele><time>2026-04-04T14:29:21.001Z</time></trkpt><trkpt lat="41.20811578568634" lon="14.122582022625272"><ele>96.0</ele><time>2026-04-04T14:29:22.001Z</time></trkpt><trkpt lat="41.20817835864714" lon="14.12244628510943"><ele>95.0</ele><time>2026-04-04T14:29:23.001Z</time></trkpt><trkpt lat="41.208244733199415" lon="14.12230838941672"><ele>94.0</ele><time>2026-04-04T14:29:24.001Z</time></trkpt><trkpt lat="41.20831394511261" lon="14.122165181963362"><ele>93.0</ele><time>2026-04-04T14:29:25.001Z</time></trkpt><trkpt lat="41.20837884207611" lon="14.122025844437667"><ele>93.0</ele><time>2026-04-04T14:29:26.001Z</time></trkpt><trkpt lat="41.20844731362754" lon="14.121893497599636"><ele>93.0</ele><time>2026-04-04T14:29:27.001Z</time></trkpt><trkpt lat="41.20851329315175" lon="14.121765608850254"><ele>93.0</ele><time>2026-04-04T14:29:28.001Z</time></trkpt><trkpt lat="41.20858923520435" lon="14.121643781151192"><ele>93.0</ele><time>2026-04-04T14:29:29.001Z</time></trkpt><trkpt lat="41.20865980902998" lon="14.121534546609093"><ele>92.80000000000001</ele><time>2026-04-04T14:29:30.001Z</time></trkpt><trkpt lat="41.208733889128965" lon="14.12143278471278"><ele>92.6</ele><time>2026-04-04T14:29:31.001Z</time></trkpt><trkpt lat="41.20880780729772" lon="14.121345222113602"><ele>92.4</ele><time>2026-04-04T14:29:32.001Z</time></trkpt><trkpt lat="41.208891184238276" lon="14.121266177640736"><ele>92.19999999999999</ele><time>2026-04-04T14:29:33.001Z</time></trkpt><trkpt lat="41.20897096315582" lon="14.121187008417436"><ele>92.0</ele><time>2026-04-04T14:29:34.001Z</time></trkpt><trkpt lat="41.20905956762869" lon="14.121107947191653"><ele>92.0</ele><time>2026-04-04T14:29:35.001Z</time></trkpt><trkpt lat="41.209132487322535" lon="14.121040845184197"><ele>92.0</ele><time>2026-04-04T14:29:36.001Z</time></trkpt><trkpt lat="41.20923054286191" lon="14.12098062191969"><ele>92.0</ele><time>2026-04-04T14:29:37.001Z</time></trkpt><trkpt lat="41.20932436596466" lon="14.12092864808844"><ele>92.0</ele><time>2026-04-04T14:29:38.001Z</time></trkpt><trkpt lat="41.209408583296614" lon="14.120887455452348"><ele>92.0</ele><time>2026-04-04T14:29:39.001Z</time></trkpt><trkpt lat="41.209473149450744" lon="14.120854060369727"><ele>92.0</ele><time>2026-04-04T14:29:40.001Z</time></trkpt><trkpt lat="41.209540304436096" lon="14.120825032612734"><ele>92.0</ele><time>2026-04-04T14:29:42.001Z</time></trkpt><trkpt lat="41.209621405669914" lon="14.120845458623986"><ele>92.0</ele><time>2026-04-04T14:29:46.001Z</time></trkpt><trkpt lat="41.20968953754134" lon="14.120850265825856"><ele>92.0</ele><time>2026-04-04T14:29:49.001Z</time></trkpt><trkpt lat="41.20976529703443" lon="14.120797476643489"><ele>92.0</ele><time>2026-04-04T14:29:52.001Z</time></trkpt><trkpt lat="41.209824990636044" lon="14.120761901277415"><ele>92.0</ele><time>2026-04-04T14:29:53.001Z</time></trkpt><trkpt lat="41.20991312508111" lon="14.120718907447495"><ele>92.33333333333334</ele><time>2026-04-04T14:29:55.001Z</time></trkpt><trkpt lat="41.21001813335609" lon="14.12066316807657"><ele>92.66666666666667</ele><time>2026-04-04T14:29:57.001Z</time></trkpt><trkpt lat="41.21009050124275" lon="14.120646401287749"><ele>93.0</ele><time>2026-04-04T14:29:58.001Z</time></trkpt><trkpt lat="41.210166370954305" lon="14.12062435373986"><ele>93.33333333333333</ele><time>2026-04-04T14:29:59.001Z</time></trkpt><trkpt lat="41.21024006103661" lon="14.120605282714177"><ele>93.66666666666666</ele><time>2026-04-04T14:30:00.001Z</time></trkpt><trkpt lat="41.21031325120995" lon="14.120580330491606"><ele>94.0</ele><time>2026-04-04T14:30:01.001Z</time></trkpt><trkpt lat="41.2103872188014" lon="14.12055464250997"><ele>94.0</ele><time>2026-04-04T14:30:02.001Z</time></trkpt><trkpt lat="41.210462239990214" lon="14.12053008814235"><ele>94.0</ele><time>2026-04-04T14:30:03.001Z</time></trkpt><trkpt lat="41.21052668570943" lon="14.120509558616163"><ele>94.0</ele><time>2026-04-04T14:30:04.002Z</time></trkpt><trkpt lat="41.21060031366244" lon="14.12048171757864"><ele>94.0</ele><time>2026-04-04T14:30:05.002Z</time></trkpt><trkpt lat="41.21069091854962" lon="14.120452411283521"><ele>94.0</ele><time>2026-04-04T14:30:06.002Z</time></trkpt><trkpt lat="41.21078141817713" lon="14.120422123917965"><ele>94.0</ele><time>2026-04-04T14:30:07.002Z</time></trkpt><trkpt lat="41.2108714692872" lon="14.120395943843732"><ele>94.33333333333333</ele><time>2026-04-04T14:30:08.002Z</time></trkpt><trkpt lat="41.21095875146941" lon="14.120374025770623"><ele>94.66666666666666</ele><time>2026-04-04T14:30:09.002Z</time></trkpt><trkpt lat="41.21105067320132" lon="14.120367391155126"><ele>95.0</ele><time>2026-04-04T14:30:10.002Z</time></trkpt><trkpt lat="41.21113936722255" lon="14.120379500118652"><ele>95.33333333333333</ele><time>2026-04-04T14:30:11.002Z</time></trkpt><trkpt lat="41.21122599333647" lon="14.120408261894667"><ele>95.66666666666667</ele><time>2026-04-04T14:30:12.002Z</time></trkpt><trkpt lat="41.211308537975924" lon="14.120447279490495"><ele>96.0</ele><time>2026-04-04T14:30:13.002Z</time></trkpt><trkpt lat="41.21136842887372" lon="14.120528604493568"><ele>96.0</ele><time>2026-04-04T14:30:14.002Z</time></trkpt><trkpt lat="41.21143599177139" lon="14.120594705525509"><ele>96.0</ele><time>2026-04-04T14:30:15.002Z</time></trkpt><trkpt lat="41.21146559427153" lon="14.120708175103802"><ele>96.0</ele><time>2026-04-04T14:30:16.002Z</time></trkpt><trkpt lat="41.211507648369924" lon="14.120822449789365"><ele>96.0</ele><time>2026-04-04T14:30:17Z</time></trkpt><trkpt lat="41.21154673712521" lon="14.120945138861323"><ele>96.0</ele><time>2026-04-04T14:30:18Z</time></trkpt><trkpt lat="41.211586360833216" lon="14.121069453461393"><ele>97.0</ele><time>2026-04-04T14:30:19Z</time></trkpt><trkpt lat="41.211634215943874" lon="14.121209653154825"><ele>98.0</ele><time>2026-04-04T14:30:20Z</time></trkpt><trkpt lat="41.21168104631475" lon="14.121346453431332"><ele>99.0</ele><time>2026-04-04T14:30:21Z</time></trkpt><trkpt lat="41.211721445987756" lon="14.121465800763247"><ele>100.0</ele><time>2026-04-04T14:30:22Z</time></trkpt><trkpt lat="41.21175731173785" lon="14.121573724993441"><ele>101.0</ele><time>2026-04-04T14:30:23Z</time></trkpt><trkpt lat="41.21179492635928" lon="14.121686911284202"><ele>101.0</ele><time>2026-04-04T14:30:24Z</time></trkpt><trkpt lat="41.21183578685654" lon="14.121810924248603"><ele>101.0</ele><time>2026-04-04T14:30:25Z</time></trkpt><trkpt lat="41.21187696445033" lon="14.121933412442228"><ele>101.0</ele><time>2026-04-04T14:30:26Z</time></trkpt><trkpt lat="41.21191544789713" lon="14.122047357137728"><ele>101.0</ele><time>2026-04-04T14:30:27Z</time></trkpt><trkpt lat="41.21195581856308" lon="14.122161102429716"><ele>101.0</ele><time>2026-04-04T14:30:28Z</time></trkpt><trkpt lat="41.211997985860044" lon="14.122279937396895"><ele>101.0</ele><time>2026-04-04T14:30:29Z</time></trkpt><trkpt lat="41.212037656792624" lon="14.122397505529426"><ele>101.0</ele><time>2026-04-04T14:30:30Z</time></trkpt><trkpt lat="41.212075419285675" lon="14.122513935621047"><ele>101.0</ele><time>2026-04-04T14:30:31Z</time></trkpt><trkpt lat="41.21211319214225" lon="14.122630397794286"><ele>101.0</ele><time>2026-04-04T14:30:32Z</time></trkpt><trkpt lat="41.21215060336584" lon="14.122745744983877"><ele>101.0</ele><time>2026-04-04T14:30:33Z</time></trkpt><trkpt lat="41.21218794236125" lon="14.122860870114842"><ele>101.19999999999999</ele><time>2026-04-04T14:30:34Z</time></trkpt><trkpt lat="41.21222585335837" lon="14.122970114011933"><ele>101.39999999999999</ele><time>2026-04-04T14:30:35Z</time></trkpt><trkpt lat="41.21226781042482" lon="14.123091311857788"><ele>101.6</ele><time>2026-04-04T14:30:36Z</time></trkpt><trkpt lat="41.21230621903802" lon="14.123202259574578"><ele>101.8</ele><time>2026-04-04T14:30:37Z</time></trkpt><trkpt lat="41.212350782091264" lon="14.123331966663827"><ele>102.0</ele><time>2026-04-04T14:30:38Z</time></trkpt><trkpt lat="41.21239671132555" lon="14.123465710993674"><ele>103.25</ele><time>2026-04-04T14:30:39Z</time></trkpt><trkpt lat="41.21245196094976" lon="14.123627831720567"><ele>104.5</ele><time>2026-04-04T14:30:40Z</time></trkpt><trkpt lat="41.21251084199474" lon="14.12380206360154"><ele>105.75</ele><time>2026-04-04T14:30:41Z</time></trkpt><trkpt lat="41.2125710663888" lon="14.123980270506607"><ele>107.0</ele><time>2026-04-04T14:30:42Z</time></trkpt><trkpt lat="41.2126306132812" lon="14.124161589076516"><ele>107.0</ele><time>2026-04-04T14:30:43Z</time></trkpt><trkpt lat="41.21270373056754" lon="14.12434599354045"><ele>107.0</ele><time>2026-04-04T14:30:44Z</time></trkpt><trkpt lat="41.21276467740354" lon="14.124532828417385"><ele>107.0</ele><time>2026-04-04T14:30:45Z</time></trkpt><trkpt lat="41.21282249196573" lon="14.124704918324255"><ele>107.0</ele><time>2026-04-04T14:30:46Z</time></trkpt><trkpt lat="41.212861428618034" lon="14.124878508753183"><ele>107.0</ele><time>2026-04-04T14:30:47Z</time></trkpt><trkpt lat="41.21290802252868" lon="14.12502588104142"><ele>107.0</ele><time>2026-04-04T14:30:48Z</time></trkpt><trkpt lat="41.212953565927684" lon="14.12517475300261"><ele>107.0</ele><time>2026-04-04T14:30:49Z</time></trkpt><trkpt lat="41.213006948621754" lon="14.125291720209159"><ele>107.19999999999999</ele><time>2026-04-04T14:30:50Z</time></trkpt><trkpt lat="41.21303906188289" lon="14.12542040688458"><ele>107.39999999999999</ele><time>2026-04-04T14:30:51Z</time></trkpt><trkpt lat="41.21307382426167" lon="14.125546901968216"><ele>107.60000000000001</ele><time>2026-04-04T14:30:52Z</time></trkpt><trkpt lat="41.21309512414317" lon="14.125683738749764"><ele>107.80000000000001</ele><time>2026-04-04T14:30:53Z</time></trkpt><trkpt lat="41.21310846903561" lon="14.125828140322211"><ele>108.0</ele><time>2026-04-04T14:30:54Z</time></trkpt><trkpt lat="41.21312244441261" lon="14.125974530841647"><ele>108.2</ele><time>2026-04-04T14:30:55Z</time></trkpt><trkpt lat="41.213142444139955" lon="14.126119834376004"><ele>108.4</ele><time>2026-04-04T14:30:56.001Z</time></trkpt><trkpt lat="41.21317456146625" lon="14.126254461463692"><ele>108.60000000000001</ele><time>2026-04-04T14:30:57.001Z</time></trkpt><trkpt lat="41.21321372992679" lon="14.12637631634275"><ele>108.80000000000001</ele><time>2026-04-04T14:30:58.001Z</time></trkpt><trkpt lat="41.213260639975125" lon="14.12648322382404"><ele>109.0</ele><time>2026-04-04T14:30:59.001Z</time></trkpt><trkpt lat="41.21331572982311" lon="14.126575391613253"><ele>109.4</ele><time>2026-04-04T14:31:00.001Z</time></trkpt><trkpt lat="41.21337631831701" lon="14.126663669256766"><ele>109.80000000000001</ele><time>2026-04-04T14:31:01.001Z</time></trkpt><trkpt lat="41.21345471851626" lon="14.126734121188383"><ele>110.19999999999999</ele><time>2026-04-04T14:31:02.001Z</time></trkpt><trkpt lat="41.213542995321575" lon="14.1267945084522"><ele>110.6</ele><time>2026-04-04T14:31:03.001Z</time></trkpt><trkpt lat="41.21363940828483" lon="14.126846000455203"><ele>111.0</ele><time>2026-04-04T14:31:04.001Z</time></trkpt><trkpt lat="41.21374046751063" lon="14.126889047435911"><ele>111.0</ele><time>2026-04-04T14:31:05.001Z</time></trkpt><trkpt lat="41.21384499192367" lon="14.126952977976043"><ele>111.0</ele><time>2026-04-04T14:31:06.001Z</time></trkpt><trkpt lat="41.213950461172985" lon="14.12701639723471"><ele>111.0</ele><time>2026-04-04T14:31:07.001Z</time></trkpt><trkpt lat="41.214059328031745" lon="14.127072744217347"><ele>111.0</ele><time>2026-04-04T14:31:08.001Z</time></trkpt><trkpt lat="41.21412378692988" lon="14.12710006872336"><ele>111.0</ele><time>2026-04-04T14:31:09.001Z</time></trkpt><trkpt lat="41.21422227590946" lon="14.12715194058244"><ele>111.19999999999999</ele><time>2026-04-04T14:31:10.001Z</time></trkpt><trkpt lat="41.21431920939357" lon="14.127203780107706"><ele>111.39999999999999</ele><time>2026-04-04T14:31:11.001Z</time></trkpt><trkpt lat="41.214417745432655" lon="14.127254239515135"><ele>111.6</ele><time>2026-04-04T14:31:12.001Z</time></trkpt><trkpt lat="41.21451297640522" lon="14.12729251472808"><ele>111.8</ele><time>2026-04-04T14:31:13.001Z</time></trkpt><trkpt lat="41.21460796894126" lon="14.127341695234113"><ele>112.0</ele><time>2026-04-04T14:31:14.001Z</time></trkpt><trkpt lat="41.21471085648592" lon="14.127401310797378"><ele>112.0</ele><time>2026-04-04T14:31:15.001Z</time></trkpt><trkpt lat="41.214821108122244" lon="14.127453536489295"><ele>112.0</ele><time>2026-04-04T14:31:16.001Z</time></trkpt><trkpt lat="41.21493285958359" lon="14.12749848712487"><ele>112.0</ele><time>2026-04-04T14:31:17.001Z</time></trkpt><trkpt lat="41.21504274298473" lon="14.127545740462091"><ele>112.0</ele><time>2026-04-04T14:31:18.001Z</time></trkpt><trkpt lat="41.215137870763414" lon="14.127593369663387"><ele>112.00000000000001</ele><time>2026-04-04T14:31:19.001Z</time></trkpt><trkpt lat="41.21522637886494" lon="14.127637343841565"><ele>112.0</ele><time>2026-04-04T14:31:20.001Z</time></trkpt><trkpt lat="41.21530387148645" lon="14.127672917087438"><ele>112.0</ele><time>2026-04-04T14:31:21.001Z</time></trkpt><trkpt lat="41.21538685901219" lon="14.12770576482164"><ele>112.0</ele><time>2026-04-04T14:31:23.001Z</time></trkpt><trkpt lat="41.21542285380813" lon="14.12780361875359"><ele>112.00000000000001</ele><time>2026-04-04T14:31:24.001Z</time></trkpt><trkpt lat="41.21541669944846" lon="14.127902420305709"><ele>112.0</ele><time>2026-04-04T14:31:27.001Z</time></trkpt><trkpt lat="41.21543059621457" lon="14.128024454588614"><ele>112.0</ele><time>2026-04-04T14:31:29.001Z</time></trkpt><trkpt lat="41.21544122362033" lon="14.12811225766351"><ele>111.99999999999999</ele><time>2026-04-04T14:31:30.001Z</time></trkpt><trkpt lat="41.215454973693426" lon="14.12822586003493"><ele>111.99999999999999</ele><time>2026-04-04T14:31:31.001Z</time></trkpt><trkpt lat="41.215469660044235" lon="14.128347197904542"><ele>112.0</ele><time>2026-04-04T14:31:32.001Z</time></trkpt><trkpt lat="41.21550169039616" lon="14.128485222313158"><ele>112.0</ele><time>2026-04-04T14:31:33.001Z</time></trkpt><trkpt lat="41.21552029095492" lon="14.128639974678274"><ele>111.8</ele><time>2026-04-04T14:31:34.001Z</time></trkpt><trkpt lat="41.215539580604116" lon="14.128791108394779"><ele>111.6</ele><time>2026-04-04T14:31:35.001Z</time></trkpt><trkpt lat="41.215552945359896" lon="14.128941378989127"><ele>111.39999999999999</ele><time>2026-04-04T14:31:36.001Z</time></trkpt><trkpt lat="41.21556327675393" lon="14.1290663590113"><ele>111.19999999999999</ele><time>2026-04-04T14:31:37.001Z</time></trkpt><trkpt lat="41.2155719551446" lon="14.129186876861315"><ele>111.0</ele><time>2026-04-04T14:31:38.001Z</time></trkpt><trkpt lat="41.215581492442865" lon="14.129303259219826"><ele>111.0</ele><time>2026-04-04T14:31:39.001Z</time></trkpt><trkpt lat="41.2155858674458" lon="14.12939205642067"><ele>111.0</ele><time>2026-04-04T14:31:40.001Z</time></trkpt><trkpt lat="41.215590218100076" lon="14.12948093561763"><ele>111.0</ele><time>2026-04-04T14:31:41.001Z</time></trkpt><trkpt lat="41.21558820421377" lon="14.129568637120368"><ele>111.0</ele><time>2026-04-04T14:31:42.001Z</time></trkpt><trkpt lat="41.21557673767231" lon="14.129651938844681"><ele>111.0</ele><time>2026-04-04T14:31:43.001Z</time></trkpt><trkpt lat="41.21557452484917" lon="14.129829287103066"><ele>111.0</ele><time>2026-04-04T14:31:45.001Z</time></trkpt><trkpt lat="41.21558654067022" lon="14.129931928311398"><ele>111.19999999999999</ele><time>2026-04-04T14:31:46.001Z</time></trkpt><trkpt lat="41.21560022328116" lon="14.130045031051575"><ele>111.39999999999999</ele><time>2026-04-04T14:31:47.001Z</time></trkpt><trkpt lat="41.21561562093828" lon="14.130166919368165"><ele>111.6</ele><time>2026-04-04T14:31:48.001Z</time></trkpt><trkpt lat="41.21563022519551" lon="14.130295408175803"><ele>111.8</ele><time>2026-04-04T14:31:49.001Z</time></trkpt><trkpt lat="41.215649024976194" lon="14.130426281888148"><ele>112.0</ele><time>2026-04-04T14:31:50.001Z</time></trkpt><trkpt lat="41.21566756387418" lon="14.130558477348327"><ele>112.0</ele><time>2026-04-04T14:31:51.001Z</time></trkpt><trkpt lat="41.215670277753" lon="14.130698529306382"><ele>111.99999999999999</ele><time>2026-04-04T14:31:52.001Z</time></trkpt><trkpt lat="41.215685509448036" lon="14.130835641284117"><ele>111.99999999999999</ele><time>2026-04-04T14:31:53.001Z</time></trkpt><trkpt lat="41.21571639331279" lon="14.130968071508997"><ele>112.0</ele><time>2026-04-04T14:31:54.001Z</time></trkpt><trkpt lat="41.215722298001864" lon="14.131101926457818"><ele>112.0</ele><time>2026-04-04T14:31:55.001Z</time></trkpt><trkpt lat="41.215728499044076" lon="14.131209415055832"><ele>111.66666666666667</ele><time>2026-04-04T14:31:56.001Z</time></trkpt><trkpt lat="41.215735914091304" lon="14.131295669794053"><ele>111.33333333333334</ele><time>2026-04-04T14:31:57.001Z</time></trkpt><trkpt lat="41.215749907480316" lon="14.131399394640786"><ele>111.0</ele><time>2026-04-04T14:31:59.001Z</time></trkpt><trkpt lat="41.21576358577948" lon="14.131533885514521"><ele>110.66666666666666</ele><time>2026-04-04T14:32:36Z</time></trkpt><trkpt lat="41.21577372072218" lon="14.131623385522811"><ele>110.33333333333333</ele><time>2026-04-04T14:32:37Z</time></trkpt><trkpt lat="41.21578553304548" lon="14.131728256663077"><ele>110.0</ele><time>2026-04-04T14:32:38Z</time></trkpt><trkpt lat="41.21580056227672" lon="14.131839012083688"><ele>110.0</ele><time>2026-04-04T14:32:39Z</time></trkpt><trkpt lat="41.215816151482066" lon="14.131960313034227"><ele>110.0</ele><time>2026-04-04T14:32:40Z</time></trkpt><trkpt lat="41.215829193028334" lon="14.132091534489367"><ele>110.0</ele><time>2026-04-04T14:32:41Z</time></trkpt><trkpt lat="41.21584479151566" lon="14.132229556058508"><ele>110.0</ele><time>2026-04-04T14:32:42Z</time></trkpt><trkpt lat="41.21587014595202" lon="14.132352048513852"><ele>110.0</ele><time>2026-04-04T14:32:43Z</time></trkpt><trkpt lat="41.21585664698949" lon="14.132456783229532"><ele>110.25</ele><time>2026-04-04T14:32:44Z</time></trkpt><trkpt lat="41.21583494684614" lon="14.13260500932374"><ele>110.5</ele><time>2026-04-04T14:32:45Z</time></trkpt><trkpt lat="41.215793646949294" lon="14.132746053745372"><ele>110.75</ele><time>2026-04-04T14:32:46Z</time></trkpt><trkpt lat="41.21576426790363" lon="14.132894687537883"><ele>111.0</ele><time>2026-04-04T14:32:47Z</time></trkpt><trkpt lat="41.21573720660608" lon="14.133039711532055"><ele>111.0</ele><time>2026-04-04T14:32:48Z</time></trkpt><trkpt lat="41.215711543255885" lon="14.133193785687805"><ele>111.0</ele><time>2026-04-04T14:32:49Z</time></trkpt><trkpt lat="41.215686476479036" lon="14.133342962071204"><ele>111.0</ele><time>2026-04-04T14:32:50Z</time></trkpt><trkpt lat="41.215659537252314" lon="14.133495002281231"><ele>111.0</ele><time>2026-04-04T14:32:51Z</time></trkpt><trkpt lat="41.215635929854955" lon="14.133653035748528"><ele>110.0</ele><time>2026-04-04T14:32:52Z</time></trkpt><trkpt lat="41.21560751215101" lon="14.13382235147843"><ele>109.0</ele><time>2026-04-04T14:32:53Z</time></trkpt><trkpt lat="41.215577867570886" lon="14.133974731131278"><ele>108.0</ele><time>2026-04-04T14:32:54Z</time></trkpt><trkpt lat="41.215528566809155" lon="14.13412006703297"><ele>107.0</ele><time>2026-04-04T14:32:55Z</time></trkpt><trkpt lat="41.21550674185787" lon="14.134265794387089"><ele>106.75</ele><time>2026-04-04T14:32:56Z</time></trkpt><trkpt lat="41.21548402355971" lon="14.134411597409615"><ele>106.5</ele><time>2026-04-04T14:32:57Z</time></trkpt><trkpt lat="41.215465255298675" lon="14.13455960536446"><ele>106.25</ele><time>2026-04-04T14:32:58Z</time></trkpt><trkpt lat="41.21544161953454" lon="14.134711479978746"><ele>106.0</ele><time>2026-04-04T14:32:59Z</time></trkpt><trkpt lat="41.21541641153173" lon="14.134856727668348"><ele>106.19999999999999</ele><time>2026-04-04T14:33:00Z</time></trkpt><trkpt lat="41.21539049555965" lon="14.135004771129003"><ele>106.39999999999999</ele><time>2026-04-04T14:33:01Z</time></trkpt><trkpt lat="41.21536965722928" lon="14.1351288752498"><ele>106.6</ele><time>2026-04-04T14:33:02Z</time></trkpt><trkpt lat="41.21534695805194" lon="14.135252902645092"><ele>106.8</ele><time>2026-04-04T14:33:03Z</time></trkpt><trkpt lat="41.21532367146619" lon="14.135389323390351"><ele>107.0</ele><time>2026-04-04T14:33:04Z</time></trkpt><trkpt lat="41.2152964970897" lon="14.135526883761182"><ele>107.0</ele><time>2026-04-04T14:33:05Z</time></trkpt><trkpt lat="41.21527034539613" lon="14.135664591213684"><ele>106.99999999999999</ele><time>2026-04-04T14:33:06Z</time></trkpt><trkpt lat="41.21524619192567" lon="14.135804633221536"><ele>106.99999999999999</ele><time>2026-04-04T14:33:07Z</time></trkpt><trkpt lat="41.21522037928353" lon="14.135940905295811"><ele>107.0</ele><time>2026-04-04T14:33:08Z</time></trkpt><trkpt lat="41.215192698708975" lon="14.136081613778883"><ele>107.0</ele><time>2026-04-04T14:33:09Z</time></trkpt><trkpt lat="41.21516512331828" lon="14.136221071121236"><ele>107.0</ele><time>2026-04-04T14:33:10Z</time></trkpt><trkpt lat="41.21513594125191" lon="14.136358873353583"><ele>106.99999999999999</ele><time>2026-04-04T14:33:11Z</time></trkpt><trkpt lat="41.21510727464176" lon="14.136499300994007"><ele>106.99999999999999</ele><time>2026-04-04T14:33:12Z</time></trkpt><trkpt lat="41.215086798701826" lon="14.136637435525115"><ele>107.0</ele><time>2026-04-04T14:33:13Z</time></trkpt><trkpt lat="41.21506726240213" lon="14.13677703388508"><ele>107.0</ele><time>2026-04-04T14:33:14Z</time></trkpt><trkpt lat="41.215045145922325" lon="14.136912398563274"><ele>106.99999999999999</ele><time>2026-04-04T14:33:15Z</time></trkpt><trkpt lat="41.215024552257475" lon="14.137037689289457"><ele>107.0</ele><time>2026-04-04T14:33:16Z</time></trkpt><trkpt lat="41.21500307904318" lon="14.137149155863908"><ele>107.0</ele><time>2026-04-04T14:33:17Z</time></trkpt><trkpt lat="41.21498285916682" lon="14.137256859856697"><ele>107.0</ele><time>2026-04-04T14:33:18Z</time></trkpt><trkpt lat="41.214965617960445" lon="14.137358630078912"><ele>106.99999999999999</ele><time>2026-04-04T14:33:19.001Z</time></trkpt><trkpt lat="41.2149495415757" lon="14.137450002954813"><ele>107.0</ele><time>2026-04-04T14:33:20.001Z</time></trkpt><trkpt lat="41.21492108866377" lon="14.137543156988897"><ele>107.33333333333333</ele><time>2026-04-04T14:33:21.001Z</time></trkpt><trkpt lat="41.214867400441655" lon="14.137621111694754"><ele>107.66666666666666</ele><time>2026-04-04T14:33:22.001Z</time></trkpt><trkpt lat="41.214829565313835" lon="14.137712262465575"><ele>108.0</ele><time>2026-04-04T14:33:23.001Z</time></trkpt><trkpt lat="41.21478169104592" lon="14.137781105484244"><ele>108.33333333333334</ele><time>2026-04-04T14:33:24.001Z</time></trkpt><trkpt lat="41.21473492108049" lon="14.137858326157676"><ele>108.66666666666667</ele><time>2026-04-04T14:33:25.001Z</time></trkpt><trkpt lat="41.21468905394678" lon="14.137946378784276"><ele>109.0</ele><time>2026-04-04T14:33:26.001Z</time></trkpt><trkpt lat="41.21464065759067" lon="14.13804007329918"><ele>109.0</ele><time>2026-04-04T14:33:27.001Z</time></trkpt><trkpt lat="41.21459175446849" lon="14.138132495959841"><ele>109.0</ele><time>2026-04-04T14:33:28.001Z</time></trkpt><trkpt lat="41.21453516813643" lon="14.138227359990399"><ele>109.0</ele><time>2026-04-04T14:33:29.001Z</time></trkpt><trkpt lat="41.214479343179185" lon="14.138336301520896"><ele>109.0</ele><time>2026-04-04T14:33:30.001Z</time></trkpt><trkpt lat="41.214422657832706" lon="14.138441710559317"><ele>109.0</ele><time>2026-04-04T14:33:31.001Z</time></trkpt><trkpt lat="41.21436738823239" lon="14.138545255311993"><ele>109.00000000000001</ele><time>2026-04-04T14:33:32.001Z</time></trkpt><trkpt lat="41.21431775452738" lon="14.138633500496738"><ele>109.0</ele><time>2026-04-04T14:33:33.001Z</time></trkpt><trkpt lat="41.21427270000302" lon="14.138711354920405"><ele>109.0</ele><time>2026-04-04T14:33:34.001Z</time></trkpt><trkpt lat="41.21423260766135" lon="14.13878769659836"><ele>109.0</ele><time>2026-04-04T14:33:35.001Z</time></trkpt><trkpt lat="41.214194366170084" lon="14.138856927607582"><ele>109.00000000000001</ele><time>2026-04-04T14:33:36.001Z</time></trkpt><trkpt lat="41.21413901700999" lon="14.138984850576414"><ele>109.0</ele><time>2026-04-04T14:33:38.001Z</time></trkpt><trkpt lat="41.21409963195277" lon="14.13905553273484"><ele>109.0</ele><time>2026-04-04T14:33:40.001Z</time></trkpt><trkpt lat="41.214121471003686" lon="14.139197372728642"><ele>109.0</ele><time>2026-04-04T14:33:41.001Z</time></trkpt><trkpt lat="41.214190544416454" lon="14.139336367234167"><ele>109.0</ele><time>2026-04-04T14:33:43.001Z</time></trkpt><trkpt lat="41.21423351287695" lon="14.139423610821394"><ele>109.0</ele><time>2026-04-04T14:33:44.001Z</time></trkpt><trkpt lat="41.214278753004585" lon="14.139519446893212"><ele>109.0</ele><time>2026-04-04T14:33:45.001Z</time></trkpt><trkpt lat="41.2143256290754" lon="14.139619354783758"><ele>109.00000000000001</ele><time>2026-04-04T14:33:46.001Z</time></trkpt><trkpt lat="41.21438456299214" lon="14.1397034007789"><ele>109.0</ele><time>2026-04-04T14:33:47.001Z</time></trkpt><trkpt lat="41.2144193508753" lon="14.13981650794429"><ele>109.0</ele><time>2026-04-04T14:33:48.001Z</time></trkpt><trkpt lat="41.214469336292616" lon="14.139915771151536"><ele>109.0</ele><time>2026-04-04T14:33:49.001Z</time></trkpt><trkpt lat="41.21453031922645" lon="14.140000219979118"><ele>109.00000000000001</ele><time>2026-04-04T14:33:50.001Z</time></trkpt><trkpt lat="41.21457851152283" lon="14.140093891903593"><ele>109.0</ele><time>2026-04-04T14:33:51.001Z</time></trkpt><trkpt lat="41.214622351092274" lon="14.140208946147462"><ele>109.0</ele><time>2026-04-04T14:33:52.001Z</time></trkpt><trkpt lat="41.21467976643293" lon="14.140319185980452"><ele>109.0</ele><time>2026-04-04T14:33:53.001Z</time></trkpt><trkpt lat="41.21473880794428" lon="14.140437692076372"><ele>109.0</ele><time>2026-04-04T14:33:54.001Z</time></trkpt><trkpt lat="41.21479791642003" lon="14.140569273690948"><ele>109.0</ele><time>2026-04-04T14:33:55.001Z</time></trkpt><trkpt lat="41.21486521157663" lon="14.140712353188501"><ele>107.75</ele><time>2026-04-04T14:33:56.001Z</time></trkpt><trkpt lat="41.21492586797109" lon="14.14085563899141"><ele>106.5</ele><time>2026-04-04T14:33:57.001Z</time></trkpt><trkpt lat="41.21498420157973" lon="14.140998970350472"><ele>105.25</ele><time>2026-04-04T14:33:58.001Z</time></trkpt><trkpt lat="41.2150379626979" lon="14.141126665686702"><ele>104.0</ele><time>2026-04-04T14:33:59.001Z</time></trkpt><trkpt lat="41.21508551292027" lon="14.141261500791499"><ele>104.0</ele><time>2026-04-04T14:34:00.001Z</time></trkpt><trkpt lat="41.21513305276923" lon="14.141384780174262"><ele>104.0</ele><time>2026-04-04T14:34:01.001Z</time></trkpt><trkpt lat="41.215179204718474" lon="14.141500869520524"><ele>104.0</ele><time>2026-04-04T14:34:02.001Z</time></trkpt><trkpt lat="41.21522115292973" lon="14.141610053928648"><ele>104.0</ele><time>2026-04-04T14:34:03.001Z</time></trkpt><trkpt lat="41.215263830496205" lon="14.141725772091919"><ele>104.0</ele><time>2026-04-04T14:34:04.001Z</time></trkpt><trkpt lat="41.2153034711148" lon="14.141824129377971"><ele>103.66666666666666</ele><time>2026-04-04T14:34:05.001Z</time></trkpt><trkpt lat="41.21533907376496" lon="14.141917500264045"><ele>103.33333333333333</ele><time>2026-04-04T14:34:06.001Z</time></trkpt><trkpt lat="41.215374467074305" lon="14.142000478494811"><ele>103.0</ele><time>2026-04-04T14:34:07.001Z</time></trkpt><trkpt lat="41.2154256652184" lon="14.142111002368187"><ele>102.66666666666666</ele><time>2026-04-04T14:34:09.001Z</time></trkpt><trkpt lat="41.21547465027856" lon="14.142199759562718"><ele>102.33333333333333</ele><time>2026-04-04T14:35:30.001Z</time></trkpt><trkpt lat="41.21553708248956" lon="14.142326978250589"><ele>102.0</ele><time>2026-04-04T14:35:32.001Z</time></trkpt><trkpt lat="41.21557917130501" lon="14.142406286107464"><ele>101.39999999999999</ele><time>2026-04-04T14:35:33.001Z</time></trkpt><trkpt lat="41.21564077943422" lon="14.142480320590805"><ele>100.8</ele><time>2026-04-04T14:35:34.001Z</time></trkpt><trkpt lat="41.21569271812914" lon="14.142609080958705"><ele>100.2</ele><time>2026-04-04T14:35:35.001Z</time></trkpt><trkpt lat="41.21575912258377" lon="14.142689231763098"><ele>99.6</ele><time>2026-04-04T14:35:36.001Z</time></trkpt><trkpt lat="41.215823887235466" lon="14.142787833744082"><ele>99.0</ele><time>2026-04-04T14:35:37.001Z</time></trkpt><trkpt lat="41.215886174429365" lon="14.142869039311766"><ele>99.0</ele><time>2026-04-04T14:35:38.001Z</time></trkpt><trkpt lat="41.21595627351275" lon="14.142958008784747"><ele>99.0</ele><time>2026-04-04T14:35:39.001Z</time></trkpt><trkpt lat="41.21604667305246" lon="14.143062181456186"><ele>99.0</ele><time>2026-04-04T14:35:40.001Z</time></trkpt><trkpt lat="41.21614046222743" lon="14.143151682679843"><ele>99.0</ele><time>2026-04-04T14:35:41.001Z</time></trkpt><trkpt lat="41.216225112843624" lon="14.143242911580181"><ele>99.0</ele><time>2026-04-04T14:35:42.001Z</time></trkpt><trkpt lat="41.216316298625564" lon="14.143330022631273"><ele>99.75</ele><time>2026-04-04T14:35:43.001Z</time></trkpt><trkpt lat="41.21640855429114" lon="14.14342021774205"><ele>100.5</ele><time>2026-04-04T14:35:44.001Z</time></trkpt><trkpt lat="41.21650164760015" lon="14.14351083052221"><ele>101.25</ele><time>2026-04-04T14:35:45.001Z</time></trkpt><trkpt lat="41.21659913323134" lon="14.143604223327133"><ele>102.0</ele><time>2026-04-04T14:35:46.001Z</time></trkpt><trkpt lat="41.21669711717463" lon="14.143702665609275"><ele>102.5</ele><time>2026-04-04T14:35:47.001Z</time></trkpt><trkpt lat="41.216792899185506" lon="14.14380259353236"><ele>103.0</ele><time>2026-04-04T14:35:48.001Z</time></trkpt><trkpt lat="41.21689039228896" lon="14.143906618071112"><ele>103.5</ele><time>2026-04-04T14:35:49.001Z</time></trkpt><trkpt lat="41.21699157910216" lon="14.144008411444348"><ele>104.0</ele><time>2026-04-04T14:35:50.001Z</time></trkpt><trkpt lat="41.217093604089285" lon="14.14410511113173"><ele>104.5</ele><time>2026-04-04T14:35:51.001Z</time></trkpt><trkpt lat="41.21719551936982" lon="14.14420809159181"><ele>105.0</ele><time>2026-04-04T14:35:52.001Z</time></trkpt><trkpt lat="41.217298677425624" lon="14.144308088253062"><ele>105.5</ele><time>2026-04-04T14:35:53.001Z</time></trkpt><trkpt lat="41.21740034867313" lon="14.14440907135143"><ele>106.0</ele><time>2026-04-04T14:35:54.001Z</time></trkpt><trkpt lat="41.21750137844119" lon="14.144501122643304"><ele>106.25</ele><time>2026-04-04T14:35:55.001Z</time></trkpt><trkpt lat="41.21760117810423" lon="14.144594564672975"><ele>106.5</ele><time>2026-04-04T14:35:56.001Z</time></trkpt><trkpt lat="41.21770022785378" lon="14.144687489144621"><ele>106.75</ele><time>2026-04-04T14:35:57.001Z</time></trkpt><trkpt lat="41.21778805917864" lon="14.144778231724207"><ele>107.0</ele><time>2026-04-04T14:35:58.001Z</time></trkpt><trkpt lat="41.21786905147767" lon="14.14485599082487"><ele>107.16666666666666</ele><time>2026-04-04T14:35:59.001Z</time></trkpt><trkpt lat="41.21794213657512" lon="14.144923252024004"><ele>107.33333333333333</ele><time>2026-04-04T14:36:00.001Z</time></trkpt><trkpt lat="41.21801110430223" lon="14.144990631471954"><ele>107.5</ele><time>2026-04-04T14:36:01.001Z</time></trkpt><trkpt lat="41.218076290993636" lon="14.145051302518063"><ele>107.66666666666666</ele><time>2026-04-04T14:36:02.001Z</time></trkpt><trkpt lat="41.21813505720175" lon="14.145101413784845"><ele>107.83333333333333</ele><time>2026-04-04T14:36:03.001Z</time></trkpt><trkpt lat="41.2181887672348" lon="14.145150249418602"><ele>108.0</ele><time>2026-04-04T14:36:04.001Z</time></trkpt><trkpt lat="41.21824174148155" lon="14.145201614223684"><ele>108.66666666666667</ele><time>2026-04-04T14:36:05.001Z</time></trkpt><trkpt lat="41.21834436913854" lon="14.145300325138278"><ele>109.33333333333334</ele><time>2026-04-04T14:36:07.001Z</time></trkpt><trkpt lat="41.21840036517649" lon="14.14534921891539"><ele>110.0</ele><time>2026-04-04T14:36:08.001Z</time></trkpt><trkpt lat="41.21846134724487" lon="14.145396034320772"><ele>110.66666666666667</ele><time>2026-04-04T14:36:09.001Z</time></trkpt><trkpt lat="41.2185264644755" lon="14.145446468957012"><ele>111.33333333333334</ele><time>2026-04-04T14:36:10.001Z</time></trkpt><trkpt lat="41.21859440010292" lon="14.145499558105413"><ele>112.0</ele><time>2026-04-04T14:36:11.001Z</time></trkpt><trkpt lat="41.21866589218395" lon="14.145557952638816"><ele>112.0</ele><time>2026-04-04T14:36:12.001Z</time></trkpt><trkpt lat="41.21873804869172" lon="14.145623572073603"><ele>111.99999999999999</ele><time>2026-04-04T14:36:13.001Z</time></trkpt><trkpt lat="41.21881512274196" lon="14.145690091013693"><ele>111.99999999999999</ele><time>2026-04-04T14:36:14.001Z</time></trkpt><trkpt lat="41.218896007818145" lon="14.14575195783754"><ele>112.0</ele><time>2026-04-04T14:36:15.001Z</time></trkpt><trkpt lat="41.21897773172181" lon="14.1458164610617"><ele>112.0</ele><time>2026-04-04T14:36:16.001Z</time></trkpt><trkpt lat="41.21906496138711" lon="14.14588892321758"><ele>113.0</ele><time>2026-04-04T14:36:17.001Z</time></trkpt><trkpt lat="41.219151986143814" lon="14.145956242014204"><ele>113.99999999999999</ele><time>2026-04-04T14:36:18.001Z</time></trkpt><trkpt lat="41.21923817283451" lon="14.146032658374901"><ele>114.99999999999999</ele><time>2026-04-04T14:36:19.001Z</time></trkpt><trkpt lat="41.21932156939276" lon="14.146109447878816"><ele>116.0</ele><time>2026-04-04T14:36:20.001Z</time></trkpt><trkpt lat="41.21940808715838" lon="14.146189364152763"><ele>117.0</ele><time>2026-04-04T14:36:21.001Z</time></trkpt><trkpt lat="41.219488297805775" lon="14.14626744728596"><ele>117.0</ele><time>2026-04-04T14:36:22.001Z</time></trkpt><trkpt lat="41.219563441657826" lon="14.146335709663095"><ele>117.0</ele><time>2026-04-04T14:36:23.001Z</time></trkpt><trkpt lat="41.219630637551184" lon="14.146398759023063"><ele>117.0</ele><time>2026-04-04T14:36:24.001Z</time></trkpt><trkpt lat="41.21969676856081" lon="14.146457587494542"><ele>117.0</ele><time>2026-04-04T14:36:25.001Z</time></trkpt><trkpt lat="41.219747608662786" lon="14.146512385227783"><ele>117.0</ele><time>2026-04-04T14:36:26.001Z</time></trkpt><trkpt lat="41.21979375295668" lon="14.14656940870451"><ele>117.0</ele><time>2026-04-04T14:36:27.001Z</time></trkpt><trkpt lat="41.21984554253742" lon="14.146646596125965"><ele>118.16666666666667</ele><time>2026-04-04T14:36:28.001Z</time></trkpt><trkpt lat="41.219891026232254" lon="14.146742685160012"><ele>119.33333333333334</ele><time>2026-04-04T14:36:29.001Z</time></trkpt><trkpt lat="41.219928165107525" lon="14.146855321164084"><ele>120.5</ele><time>2026-04-04T14:36:30.001Z</time></trkpt><trkpt lat="41.219949942661074" lon="14.146948701944334"><ele>121.66666666666667</ele><time>2026-04-04T14:36:31.001Z</time></trkpt><trkpt lat="41.219965457973544" lon="14.147032979536219"><ele>122.83333333333334</ele><time>2026-04-04T14:36:32.002Z</time></trkpt><trkpt lat="41.21999209349227" lon="14.147144088494823"><ele>124.0</ele><time>2026-04-04T14:36:34.002Z</time></trkpt><trkpt lat="41.219886368805035" lon="14.147255767468272"><ele>124.0</ele><time>2026-04-04T14:36:35Z</time></trkpt><trkpt lat="41.21982963323622" lon="14.147335686232699"><ele>124.0</ele><time>2026-04-04T14:36:36Z</time></trkpt><trkpt lat="41.219767226431856" lon="14.147415815395547"><ele>124.0</ele><time>2026-04-04T14:36:37Z</time></trkpt><trkpt lat="41.21970231461864" lon="14.147498691843586"><ele>124.0</ele><time>2026-04-04T14:36:38Z</time></trkpt><trkpt lat="41.2196249174122" lon="14.14758857404122"><ele>124.0</ele><time>2026-04-04T14:36:39Z</time></trkpt><trkpt lat="41.21954101841974" lon="14.14767001458435"><ele>123.0</ele><time>2026-04-04T14:36:40Z</time></trkpt><trkpt lat="41.21945151567386" lon="14.147721717984851"><ele>122.0</ele><time>2026-04-04T14:36:41Z</time></trkpt><trkpt lat="41.21934032106761" lon="14.147756677555016"><ele>121.0</ele><time>2026-04-04T14:36:42Z</time></trkpt><trkpt lat="41.219214381187626" lon="14.147780178277078"><ele>120.0</ele><time>2026-04-04T14:36:43Z</time></trkpt><trkpt lat="41.21908841247175" lon="14.147823466545093"><ele>117.5</ele><time>2026-04-04T14:36:44Z</time></trkpt><trkpt lat="41.21865942283365" lon="14.14788339109695"><ele>115.0</ele><time>2026-04-04T14:36:47Z</time></trkpt><trkpt lat="41.21855113433601" lon="14.147922425316452"><ele>115.0</ele><time>2026-04-04T14:36:48Z</time></trkpt><trkpt lat="41.21846605372109" lon="14.147997484391825"><ele>115.0</ele><time>2026-04-04T14:36:49Z</time></trkpt><trkpt lat="41.21836910878963" lon="14.148117303307044"><ele>115.0</ele><time>2026-04-04T14:36:50Z</time></trkpt><trkpt lat="41.218282329862916" lon="14.148270384722737"><ele>115.0</ele><time>2026-04-04T14:36:51Z</time></trkpt><trkpt lat="41.218204588143436" lon="14.148435979804592"><ele>114.0</ele><time>2026-04-04T14:36:52Z</time></trkpt><trkpt lat="41.21813164097385" lon="14.148616967086658"><ele>113.0</ele><time>2026-04-04T14:36:53Z</time></trkpt><trkpt lat="41.21805484436652" lon="14.148795246166575"><ele>112.0</ele><time>2026-04-04T14:36:54Z</time></trkpt><trkpt lat="41.217973822492866" lon="14.148976875941425"><ele>111.66666666666667</ele><time>2026-04-04T14:36:55Z</time></trkpt><trkpt lat="41.21788081089331" lon="14.149161488756413"><ele>111.33333333333334</ele><time>2026-04-04T14:36:56Z</time></trkpt><trkpt lat="41.21777015347395" lon="14.149327980200308"><ele>111.0</ele><time>2026-04-04T14:36:57Z</time></trkpt><trkpt lat="41.217658239845555" lon="14.14949839904545"><ele>111.0</ele><time>2026-04-04T14:36:58Z</time></trkpt><trkpt lat="41.2175541260575" lon="14.149687769386643"><ele>111.0</ele><time>2026-04-04T14:36:59Z</time></trkpt><trkpt lat="41.217440328396506" lon="14.149852431565709"><ele>111.0</ele><time>2026-04-04T14:37:00Z</time></trkpt><trkpt lat="41.217336025996886" lon="14.150013646814513"><ele>109.66666666666666</ele><time>2026-04-04T14:37:01Z</time></trkpt><trkpt lat="41.21722753296092" lon="14.150175256175148"><ele>108.33333333333333</ele><time>2026-04-04T14:37:02Z</time></trkpt><trkpt lat="41.2171285297167" lon="14.150343505881702"><ele>107.0</ele><time>2026-04-04T14:37:03Z</time></trkpt><trkpt lat="41.217032227912405" lon="14.150517672140822"><ele>107.0</ele><time>2026-04-04T14:37:04Z</time></trkpt><trkpt lat="41.216947724668344" lon="14.1507007611704"><ele>107.0</ele><time>2026-04-04T14:37:05Z</time></trkpt><trkpt lat="41.21686319553336" lon="14.150883906296594"><ele>107.0</ele><time>2026-04-04T14:37:06Z</time></trkpt><trkpt lat="41.216898421611205" lon="14.15116374154128"><ele>107.66666666666666</ele><time>2026-04-04T14:37:07Z</time></trkpt><trkpt lat="41.21686171889903" lon="14.151374847047993"><ele>108.33333333333334</ele><time>2026-04-04T14:37:08Z</time></trkpt><trkpt lat="41.216820699559726" lon="14.151587425633187"><ele>109.0</ele><time>2026-04-04T14:37:09Z</time></trkpt><trkpt lat="41.21677649961194" lon="14.151793542240373"><ele>111.0</ele><time>2026-04-04T14:37:10Z</time></trkpt><trkpt lat="41.21671853771447" lon="14.152001525005023"><ele>113.0</ele><time>2026-04-04T14:37:11Z</time></trkpt><trkpt lat="41.21665677843589" lon="14.152199285738929"><ele>115.0</ele><time>2026-04-04T14:37:12Z</time></trkpt><trkpt lat="41.21659273451022" lon="14.15239569610453"><ele>115.66666666666667</ele><time>2026-04-04T14:37:13Z</time></trkpt><trkpt lat="41.216520006108475" lon="14.152583024267562"><ele>116.33333333333334</ele><time>2026-04-04T14:37:14Z</time></trkpt><trkpt lat="41.21644927108621" lon="14.152766358355585"><ele>117.0</ele><time>2026-04-04T14:37:15Z</time></trkpt><trkpt lat="41.21638802203228" lon="14.15294967595418"><ele>117.0</ele><time>2026-04-04T14:37:16Z</time></trkpt><trkpt lat="41.216345537170234" lon="14.153145790827583"><ele>117.0</ele><time>2026-04-04T14:37:17Z</time></trkpt><trkpt lat="41.21632583324327" lon="14.153344425062329"><ele>117.0</ele><time>2026-04-04T14:37:18Z</time></trkpt><trkpt lat="41.21633383907853" lon="14.153519839646046"><ele>117.0</ele><time>2026-04-04T14:37:19Z</time></trkpt><trkpt lat="41.21635595619825" lon="14.153676073807917"><ele>118.5</ele><time>2026-04-04T14:37:20Z</time></trkpt><trkpt lat="41.21640977499878" lon="14.153837469989046"><ele>120.0</ele><time>2026-04-04T14:37:21Z</time></trkpt><trkpt lat="41.21648446040777" lon="14.153989174929592"><ele>121.5</ele><time>2026-04-04T14:37:22Z</time></trkpt><trkpt lat="41.21658198994386" lon="14.154130909703918"><ele>123.0</ele><time>2026-04-04T14:37:23Z</time></trkpt><trkpt lat="41.216689497304394" lon="14.15428065474648"><ele>125.33333333333334</ele><time>2026-04-04T14:37:24Z</time></trkpt><trkpt lat="41.21679977205612" lon="14.154437369796218"><ele>127.66666666666667</ele><time>2026-04-04T14:37:25Z</time></trkpt><trkpt lat="41.216903495593705" lon="14.154591346949195"><ele>130.0</ele><time>2026-04-04T14:37:26Z</time></trkpt><trkpt lat="41.21699131875055" lon="14.154735957440721"><ele>129.5</ele><time>2026-04-04T14:37:27Z</time></trkpt><trkpt lat="41.217069799756324" lon="14.154876450292107"><ele>129.0</ele><time>2026-04-04T14:37:28Z</time></trkpt><trkpt lat="41.2171395569449" lon="14.155043027782101"><ele>128.5</ele><time>2026-04-04T14:37:29Z</time></trkpt><trkpt lat="41.21717769193766" lon="14.155212305065081"><ele>128.0</ele><time>2026-04-04T14:37:30Z</time></trkpt><trkpt lat="41.21719537857315" lon="14.15539413690653"><ele>128.0</ele><time>2026-04-04T14:37:31Z</time></trkpt><trkpt lat="41.21719531715111" lon="14.155573358103576"><ele>128.0</ele><time>2026-04-04T14:37:32Z</time></trkpt><trkpt lat="41.21717918742103" lon="14.155737684979185"><ele>128.0</ele><time>2026-04-04T14:37:33.001Z</time></trkpt><trkpt lat="41.21711798890722" lon="14.155880919766755"><ele>128.0</ele><time>2026-04-04T14:37:34.001Z</time></trkpt><trkpt lat="41.217055379788526" lon="14.156039615739862"><ele>128.0</ele><time>2026-04-04T14:37:35.001Z</time></trkpt><trkpt lat="41.216972432434176" lon="14.156203729138582"><ele>128.0</ele><time>2026-04-04T14:37:36.001Z</time></trkpt><trkpt lat="41.216885210984316" lon="14.15637938594027"><ele>128.0</ele><time>2026-04-04T14:37:37.001Z</time></trkpt><trkpt lat="41.21678224412145" lon="14.156546010705808"><ele>128.0</ele><time>2026-04-04T14:37:38.001Z</time></trkpt><trkpt lat="41.21667704557683" lon="14.15671322482348"><ele>128.0</ele><time>2026-04-04T14:37:39.001Z</time></trkpt><trkpt lat="41.21656883759355" lon="14.156892001840728"><ele>128.0</ele><time>2026-04-04T14:37:40.001Z</time></trkpt><trkpt lat="41.21646140117263" lon="14.157066577977197"><ele>127.0</ele><time>2026-04-04T14:37:41.001Z</time></trkpt><trkpt lat="41.21635063291122" lon="14.15724775731365"><ele>126.0</ele><time>2026-04-04T14:37:42.001Z</time></trkpt><trkpt lat="41.21624176503022" lon="14.157430314317498"><ele>125.0</ele><time>2026-04-04T14:37:43.001Z</time></trkpt><trkpt lat="41.21612968172217" lon="14.157609175411244"><ele>125.0</ele><time>2026-04-04T14:37:44.001Z</time></trkpt><trkpt lat="41.21601582994619" lon="14.157787769003878"><ele>125.0</ele><time>2026-04-04T14:37:45.001Z</time></trkpt><trkpt lat="41.21590077994177" lon="14.157968367349985"><ele>125.0</ele><time>2026-04-04T14:37:46.001Z</time></trkpt><trkpt lat="41.21578873063542" lon="14.158160877347827"><ele>124.66666666666666</ele><time>2026-04-04T14:37:47.001Z</time></trkpt><trkpt lat="41.21568480941074" lon="14.158354122412891"><ele>124.33333333333334</ele><time>2026-04-04T14:37:48.001Z</time></trkpt><trkpt lat="41.215587808686486" lon="14.158557988322857"><ele>124.0</ele><time>2026-04-04T14:37:49.001Z</time></trkpt><trkpt lat="41.21549886733519" lon="14.158772124355677"><ele>123.66666666666667</ele><time>2026-04-04T14:37:50.001Z</time></trkpt><trkpt lat="41.215421005696406" lon="14.158998134638745"><ele>123.33333333333334</ele><time>2026-04-04T14:37:51.001Z</time></trkpt><trkpt lat="41.21534955461567" lon="14.159229832969071"><ele>123.0</ele><time>2026-04-04T14:37:52.001Z</time></trkpt><trkpt lat="41.21528173592949" lon="14.159465596357789"><ele>123.0</ele><time>2026-04-04T14:37:53.001Z</time></trkpt><trkpt lat="41.215218643697625" lon="14.159699457224669"><ele>123.0</ele><time>2026-04-04T14:37:54.001Z</time></trkpt><trkpt lat="41.21515419902856" lon="14.159933791856092"><ele>123.0</ele><time>2026-04-04T14:37:55.001Z</time></trkpt><trkpt lat="41.21507059228956" lon="14.160171440643785"><ele>123.66666666666666</ele><time>2026-04-04T14:37:56.001Z</time></trkpt><trkpt lat="41.215010362076406" lon="14.160426663172919"><ele>124.33333333333333</ele><time>2026-04-04T14:37:57.001Z</time></trkpt><trkpt lat="41.21493400729159" lon="14.16068514780726"><ele>125.0</ele><time>2026-04-04T14:37:58.001Z</time></trkpt><trkpt lat="41.21485962203946" lon="14.160934189593425"><ele>124.66666666666666</ele><time>2026-04-04T14:37:59.001Z</time></trkpt><trkpt lat="41.2147897003667" lon="14.161171247331916"><ele>124.33333333333334</ele><time>2026-04-04T14:38:00.001Z</time></trkpt><trkpt lat="41.21472911045437" lon="14.161395925258994"><ele>124.0</ele><time>2026-04-04T14:38:01.001Z</time></trkpt><trkpt lat="41.21467944048027" lon="14.161624517115419"><ele>125.0</ele><time>2026-04-04T14:38:02.001Z</time></trkpt><trkpt lat="41.214663724276264" lon="14.161843876243838"><ele>126.0</ele><time>2026-04-04T14:38:03.001Z</time></trkpt><trkpt lat="41.21467616841476" lon="14.16207873426861"><ele>127.0</ele><time>2026-04-04T14:38:04.001Z</time></trkpt><trkpt lat="41.214711646109194" lon="14.162317122769768"><ele>127.33333333333334</ele><time>2026-04-04T14:38:05.001Z</time></trkpt><trkpt lat="41.21475400792753" lon="14.16255810088546"><ele>127.66666666666666</ele><time>2026-04-04T14:38:06.001Z</time></trkpt><trkpt lat="41.21475866798787" lon="14.162805911263542"><ele>128.0</ele><time>2026-04-04T14:38:07.001Z</time></trkpt><trkpt lat="41.21476310748806" lon="14.163054316700514"><ele>128.66666666666666</ele><time>2026-04-04T14:38:08.001Z</time></trkpt><trkpt lat="41.21475383010787" lon="14.163306465307102"><ele>129.33333333333334</ele><time>2026-04-04T14:38:09.001Z</time></trkpt><trkpt lat="41.2147301962504" lon="14.163560038344846"><ele>130.0</ele><time>2026-04-04T14:38:10.001Z</time></trkpt><trkpt lat="41.21470316196417" lon="14.163820560461621"><ele>132.33333333333334</ele><time>2026-04-04T14:38:11.001Z</time></trkpt><trkpt lat="41.214687271572345" lon="14.164088993714254"><ele>134.66666666666666</ele><time>2026-04-04T14:38:12.001Z</time></trkpt><trkpt lat="41.21465344884141" lon="14.164362205593749"><ele>137.0</ele><time>2026-04-04T14:38:13.001Z</time></trkpt><trkpt lat="41.21462603261475" lon="14.16464252452895"><ele>138.33333333333331</ele><time>2026-04-04T14:38:14.001Z</time></trkpt><trkpt lat="41.214612257106" lon="14.164931963875482"><ele>139.66666666666666</ele><time>2026-04-04T14:38:15.001Z</time></trkpt><trkpt lat="41.21460453332636" lon="14.165221110765218"><ele>141.0</ele><time>2026-04-04T14:38:16.001Z</time></trkpt><trkpt lat="41.21460535437334" lon="14.165512412768619"><ele>141.0</ele><time>2026-04-04T14:38:17.001Z</time></trkpt><trkpt lat="41.21460599421424" lon="14.165804692346793"><ele>141.0</ele><time>2026-04-04T14:38:18.001Z</time></trkpt><trkpt lat="41.21460678629724" lon="14.166093972333861"><ele>141.0</ele><time>2026-04-04T14:38:19.001Z</time></trkpt><trkpt lat="41.214605346954485" lon="14.166381147993555"><ele>142.0</ele><time>2026-04-04T14:38:20.001Z</time></trkpt><trkpt lat="41.21460362238909" lon="14.166669243516973"><ele>143.0</ele><time>2026-04-04T14:38:21.001Z</time></trkpt><trkpt lat="41.21459938776448" lon="14.16695883839062"><ele>144.0</ele><time>2026-04-04T14:38:22.001Z</time></trkpt><trkpt lat="41.21459469561088" lon="14.167247480596256"><ele>145.0</ele><time>2026-04-04T14:38:23.001Z</time></trkpt><trkpt lat="41.214593453813016" lon="14.167518177433017"><ele>146.0</ele><time>2026-04-04T14:38:24.001Z</time></trkpt><trkpt lat="41.214593317983486" lon="14.16778532433211"><ele>147.0</ele><time>2026-04-04T14:38:25.001Z</time></trkpt><trkpt lat="41.214595370258905" lon="14.16804504138138"><ele>148.66666666666666</ele><time>2026-04-04T14:38:26.001Z</time></trkpt><trkpt lat="41.21459840941866" lon="14.168299079189302"><ele>150.33333333333331</ele><time>2026-04-04T14:38:27.001Z</time></trkpt><trkpt lat="41.214600076291966" lon="14.168530547413113"><ele>152.0</ele><time>2026-04-04T14:38:28.001Z</time></trkpt><trkpt lat="41.21459438021618" lon="14.168732958320808"><ele>152.0</ele><time>2026-04-04T14:38:29.001Z</time></trkpt><trkpt lat="41.21458519324202" lon="14.168916787554275"><ele>152.0</ele><time>2026-04-04T14:38:30.001Z</time></trkpt><trkpt lat="41.21458098465845" lon="14.16909233319851"><ele>152.0</ele><time>2026-04-04T14:38:31.001Z</time></trkpt><trkpt lat="41.21458075732244" lon="14.169243586674892"><ele>152.0</ele><time>2026-04-04T14:38:32.001Z</time></trkpt><trkpt lat="41.21458424722923" lon="14.169392915907848"><ele>153.5</ele><time>2026-04-04T14:38:33.001Z</time></trkpt><trkpt lat="41.214590285890964" lon="14.169536421952447"><ele>155.0</ele><time>2026-04-04T14:38:34.001Z</time></trkpt><trkpt lat="41.21461019266035" lon="14.169686779169057"><ele>156.5</ele><time>2026-04-04T14:38:35.001Z</time></trkpt><trkpt lat="41.21464169005283" lon="14.169832825051284"><ele>158.0</ele><time>2026-04-04T14:38:36.001Z</time></trkpt><trkpt lat="41.21469087101033" lon="14.169998540451232"><ele>158.75</ele><time>2026-04-04T14:38:37.001Z</time></trkpt><trkpt lat="41.214751185862134" lon="14.17016210788359"><ele>159.5</ele><time>2026-04-04T14:38:38.001Z</time></trkpt><trkpt lat="41.21481481634375" lon="14.170329109914423"><ele>160.25</ele><time>2026-04-04T14:38:39.002Z</time></trkpt><trkpt lat="41.21487976041043" lon="14.170499041709636"><ele>161.0</ele><time>2026-04-04T14:38:40.002Z</time></trkpt><trkpt lat="41.21494473639134" lon="14.17066236753386"><ele>162.5</ele><time>2026-04-04T14:38:41Z</time></trkpt><trkpt lat="41.21499083167525" lon="14.170830071095688"><ele>164.0</ele><time>2026-04-04T14:38:42Z</time></trkpt><trkpt lat="41.215039693827684" lon="14.170981631459298"><ele>165.5</ele><time>2026-04-04T14:38:43Z</time></trkpt><trkpt lat="41.21508233251392" lon="14.171118276854594"><ele>167.0</ele><time>2026-04-04T14:38:44Z</time></trkpt><trkpt lat="41.21512578658702" lon="14.171242211468742"><ele>167.0</ele><time>2026-04-04T14:38:45Z</time></trkpt><trkpt lat="41.21516677881539" lon="14.171368989514972"><ele>167.0</ele><time>2026-04-04T14:38:46Z</time></trkpt><trkpt lat="41.21520292782778" lon="14.171497823971741"><ele>167.0</ele><time>2026-04-04T14:38:47Z</time></trkpt><trkpt lat="41.2152284228805" lon="14.17162323661841"><ele>167.0</ele><time>2026-04-04T14:38:48Z</time></trkpt><trkpt lat="41.21524501010808" lon="14.171759425795496"><ele>167.0</ele><time>2026-04-04T14:38:49Z</time></trkpt><trkpt lat="41.21524981667951" lon="14.171891477661704"><ele>168.2</ele><time>2026-04-04T14:38:50Z</time></trkpt><trkpt lat="41.2152452663346" lon="14.17202309390008"><ele>169.39999999999998</ele><time>2026-04-04T14:38:51Z</time></trkpt><trkpt lat="41.215233554246076" lon="14.17215785927405"><ele>170.60000000000002</ele><time>2026-04-04T14:38:52Z</time></trkpt><trkpt lat="41.215220863974906" lon="14.172292012636582"><ele>171.8</ele><time>2026-04-04T14:38:53Z</time></trkpt><trkpt lat="41.21520492803849" lon="14.172434589008787"><ele>173.0</ele><time>2026-04-04T14:38:54Z</time></trkpt><trkpt lat="41.2151873786739" lon="14.172575197811259"><ele>174.75</ele><time>2026-04-04T14:38:55Z</time></trkpt><trkpt lat="41.21516200860921" lon="14.172717279786227"><ele>176.5</ele><time>2026-04-04T14:38:56Z</time></trkpt><trkpt lat="41.215115610730194" lon="14.17285217344828"><ele>178.25</ele><time>2026-04-04T14:38:57Z</time></trkpt><trkpt lat="41.21507518845511" lon="14.173003850395409"><ele>180.0</ele><time>2026-04-04T14:38:58Z</time></trkpt><trkpt lat="41.21502431352883" lon="14.173140926751014"><ele>181.0</ele><time>2026-04-04T14:38:59Z</time></trkpt><trkpt lat="41.21496036234013" lon="14.173287147677891"><ele>182.0</ele><time>2026-04-04T14:39:00Z</time></trkpt><trkpt lat="41.2148718110419" lon="14.173437733762501"><ele>183.0</ele><time>2026-04-04T14:39:01Z</time></trkpt><trkpt lat="41.214761754571995" lon="14.173576645704468"><ele>184.0</ele><time>2026-04-04T14:39:02Z</time></trkpt><trkpt lat="41.21463346257703" lon="14.173736187718495"><ele>184.0</ele><time>2026-04-04T14:39:03Z</time></trkpt><trkpt lat="41.21449418463069" lon="14.173910325495626"><ele>184.0</ele><time>2026-04-04T14:39:04Z</time></trkpt><trkpt lat="41.214354343929344" lon="14.17408386901584"><ele>184.0</ele><time>2026-04-04T14:39:05Z</time></trkpt><trkpt lat="41.21421303923083" lon="14.174258877055358"><ele>187.0</ele><time>2026-04-04T14:39:06Z</time></trkpt><trkpt lat="41.214068245289056" lon="14.174438206775546"><ele>190.0</ele><time>2026-04-04T14:39:07Z</time></trkpt><trkpt lat="41.21392314910523" lon="14.174620325344623"><ele>193.0</ele><time>2026-04-04T14:39:08Z</time></trkpt><trkpt lat="41.213781311807075" lon="14.174798956839066"><ele>197.33333333333331</ele><time>2026-04-04T14:39:09Z</time></trkpt><trkpt lat="41.21364806479688" lon="14.174963749657946"><ele>201.66666666666669</ele><time>2026-04-04T14:39:10Z</time></trkpt><trkpt lat="41.213522136896785" lon="14.175119490589577"><ele>206.0</ele><time>2026-04-04T14:39:11Z</time></trkpt><trkpt lat="41.213413039870794" lon="14.175284996245017"><ele>206.0</ele><time>2026-04-04T14:39:12Z</time></trkpt><trkpt lat="41.21330816017721" lon="14.175431869181587"><ele>206.0</ele><time>2026-04-04T14:39:13Z</time></trkpt><trkpt lat="41.21321332022564" lon="14.17558811008812"><ele>206.0</ele><time>2026-04-04T14:39:14Z</time></trkpt><trkpt lat="41.21314008799667" lon="14.175744290112853"><ele>206.0</ele><time>2026-04-04T14:39:15Z</time></trkpt><trkpt lat="41.21307636446717" lon="14.175883226828699"><ele>210.5</ele><time>2026-04-04T14:39:16Z</time></trkpt><trkpt lat="41.213055414894455" lon="14.17603634318384"><ele>215.0</ele><time>2026-04-04T14:39:17Z</time></trkpt><trkpt lat="41.21302247937836" lon="14.176175464534618"><ele>219.5</ele><time>2026-04-04T14:39:18Z</time></trkpt><trkpt lat="41.21298325026585" lon="14.176309818810969"><ele>224.0</ele><time>2026-04-04T14:39:19Z</time></trkpt><trkpt lat="41.212908540638395" lon="14.176433052036103"><ele>221.0</ele><time>2026-04-04T14:39:20Z</time></trkpt><trkpt lat="41.21280169347728" lon="14.176543309365616"><ele>218.0</ele><time>2026-04-04T14:39:21Z</time></trkpt><trkpt lat="41.21267241592224" lon="14.176657584315995"><ele>215.0</ele><time>2026-04-04T14:39:22Z</time></trkpt><trkpt lat="41.21251089867125" lon="14.176745710468827"><ele>215.0</ele><time>2026-04-04T14:39:23Z</time></trkpt><trkpt lat="41.21234184145467" lon="14.176862729539787"><ele>215.0</ele><time>2026-04-04T14:39:24Z</time></trkpt><trkpt lat="41.2121684003191" lon="14.176982412210014"><ele>215.0</ele><time>2026-04-04T14:39:25Z</time></trkpt><trkpt lat="41.21199568134728" lon="14.177101596470232"><ele>216.66666666666669</ele><time>2026-04-04T14:39:26Z</time></trkpt><trkpt lat="41.21181000342942" lon="14.177227810749207"><ele>218.33333333333331</ele><time>2026-04-04T14:39:27.001Z</time></trkpt><trkpt lat="41.211627527648716" lon="14.177375590514968"><ele>220.0</ele><time>2026-04-04T14:39:28.001Z</time></trkpt><trkpt lat="41.2114369416376" lon="14.177499424952535"><ele>226.33333333333331</ele><time>2026-04-04T14:39:29.001Z</time></trkpt><trkpt lat="41.21124987955551" lon="14.177644435203186"><ele>232.66666666666669</ele><time>2026-04-04T14:39:30.001Z</time></trkpt><trkpt lat="41.21106096669372" lon="14.177797731074188"><ele>239.0</ele><time>2026-04-04T14:39:31.001Z</time></trkpt><trkpt lat="41.21087543535346" lon="14.177965699583307"><ele>239.0</ele><time>2026-04-04T14:39:32.001Z</time></trkpt><trkpt lat="41.21069351229395" lon="14.178139705372805"><ele>239.0</ele><time>2026-04-04T14:39:33.001Z</time></trkpt><trkpt lat="41.210517954509115" lon="14.178335204508015"><ele>239.0</ele><time>2026-04-04T14:39:34.001Z</time></trkpt><trkpt lat="41.210343662583185" lon="14.178539592096813"><ele>239.0</ele><time>2026-04-04T14:39:35.001Z</time></trkpt><trkpt lat="41.210173842747615" lon="14.17874660316213"><ele>239.0</ele><time>2026-04-04T14:39:36.001Z</time></trkpt><trkpt lat="41.210008676988025" lon="14.178939930261643"><ele>239.0</ele><time>2026-04-04T14:39:37.001Z</time></trkpt><trkpt lat="41.2098582855741" lon="14.179119286832703"><ele>239.0</ele><time>2026-04-04T14:39:38.001Z</time></trkpt><trkpt lat="41.20971353722596" lon="14.179281715313053"><ele>240.66666666666669</ele><time>2026-04-04T14:39:39.001Z</time></trkpt><trkpt lat="41.209563466268825" lon="14.17942693523119"><ele>242.33333333333331</ele><time>2026-04-04T14:39:40.001Z</time></trkpt><trkpt lat="41.20940518838605" lon="14.17956468657911"><ele>244.0</ele><time>2026-04-04T14:39:41.001Z</time></trkpt><trkpt lat="41.20924306185525" lon="14.17970303264632"><ele>240.0</ele><time>2026-04-04T14:39:42.001Z</time></trkpt><trkpt lat="41.2088774430617" lon="14.179930201774063"><ele>236.0</ele><time>2026-04-04T14:39:44.001Z</time></trkpt><trkpt lat="41.20868103749993" lon="14.1800293137094"><ele>236.0</ele><time>2026-04-04T14:39:45.001Z</time></trkpt><trkpt lat="41.20849768176739" lon="14.180115636177206"><ele>236.0</ele><time>2026-04-04T14:39:46.001Z</time></trkpt><trkpt lat="41.208320212208996" lon="14.180198443414216"><ele>236.0</ele><time>2026-04-04T14:39:47.001Z</time></trkpt><trkpt lat="41.20814879741657" lon="14.180289758039558"><ele>237.0</ele><time>2026-04-04T14:39:48.001Z</time></trkpt><trkpt lat="41.207987010255664" lon="14.180398052966193"><ele>238.0</ele><time>2026-04-04T14:39:49.001Z</time></trkpt><trkpt lat="41.2078480009721" lon="14.180531606605852"><ele>239.0</ele><time>2026-04-04T14:39:50.001Z</time></trkpt><trkpt lat="41.20772247462188" lon="14.180698395505093"><ele>239.0</ele><time>2026-04-04T14:39:51.001Z</time></trkpt><trkpt lat="41.207615285967805" lon="14.18087410463247"><ele>239.0</ele><time>2026-04-04T14:39:52.001Z</time></trkpt><trkpt lat="41.20751182991469" lon="14.181050066411412"><ele>239.0</ele><time>2026-04-04T14:39:53.001Z</time></trkpt><trkpt lat="41.207403070912044" lon="14.18123463671319"><ele>239.0</ele><time>2026-04-04T14:39:54.001Z</time></trkpt><trkpt lat="41.20729622412454" lon="14.181436749151922"><ele>239.0</ele><time>2026-04-04T14:39:55.001Z</time></trkpt><trkpt lat="41.207197462176126" lon="14.181661874072251"><ele>239.0</ele><time>2026-04-04T14:39:56.001Z</time></trkpt><trkpt lat="41.207108754901654" lon="14.18189814544376"><ele>239.0</ele><time>2026-04-04T14:39:57.001Z</time></trkpt><trkpt lat="41.207020210540406" lon="14.182124229197923"><ele>239.0</ele><time>2026-04-04T14:39:58.001Z</time></trkpt><trkpt lat="41.20693443479709" lon="14.182343614460619"><ele>239.0</ele><time>2026-04-04T14:39:59.001Z</time></trkpt><trkpt lat="41.20684528868111" lon="14.182563823038924"><ele>237.66666666666669</ele><time>2026-04-04T14:40:00.001Z</time></trkpt><trkpt lat="41.206753057519926" lon="14.182778630098511"><ele>236.33333333333331</ele><time>2026-04-04T14:40:01.001Z</time></trkpt><trkpt lat="41.20665124615467" lon="14.18299278911241"><ele>235.0</ele><time>2026-04-04T14:40:02.001Z</time></trkpt><trkpt lat="41.20654609232874" lon="14.183207733620511"><ele>232.33333333333331</ele><time>2026-04-04T14:40:03.001Z</time></trkpt><trkpt lat="41.206434289076874" lon="14.183416140448863"><ele>229.66666666666669</ele><time>2026-04-04T14:40:04.001Z</time></trkpt><trkpt lat="41.20631300258831" lon="14.183620229690234"><ele>227.0</ele><time>2026-04-04T14:40:05.001Z</time></trkpt><trkpt lat="41.20618989774" lon="14.183826626612463"><ele>226.66666666666669</ele><time>2026-04-04T14:40:06.001Z</time></trkpt><trkpt lat="41.20606614184353" lon="14.184035658657033"><ele>226.33333333333331</ele><time>2026-04-04T14:40:07.001Z</time></trkpt><trkpt lat="41.205942166222236" lon="14.184245432674269"><ele>226.0</ele><time>2026-04-04T14:40:08.001Z</time></trkpt><trkpt lat="41.20581597615396" lon="14.184452534668228"><ele>226.0</ele><time>2026-04-04T14:40:09.001Z</time></trkpt><trkpt lat="41.20568777823463" lon="14.184655884988802"><ele>226.0</ele><time>2026-04-04T14:40:10.001Z</time></trkpt><trkpt lat="41.205560334270324" lon="14.184855462194383"><ele>226.0</ele><time>2026-04-04T14:40:11.001Z</time></trkpt><trkpt lat="41.20543091366018" lon="14.185054515741653"><ele>223.66666666666666</ele><time>2026-04-04T14:40:12.001Z</time></trkpt><trkpt lat="41.20530292501582" lon="14.185251071075061"><ele>221.33333333333331</ele><time>2026-04-04T14:40:13.001Z</time></trkpt><trkpt lat="41.205176427014834" lon="14.18544810005345"><ele>219.0</ele><time>2026-04-04T14:40:14.001Z</time></trkpt><trkpt lat="41.20505114415179" lon="14.185648739583797"><ele>218.33333333333331</ele><time>2026-04-04T14:40:15.001Z</time></trkpt><trkpt lat="41.204923035402835" lon="14.185846988217492"><ele>217.66666666666666</ele><time>2026-04-04T14:40:16.001Z</time></trkpt><trkpt lat="41.204792360869085" lon="14.18604348855555"><ele>217.0</ele><time>2026-04-04T14:40:17.001Z</time></trkpt><trkpt lat="41.204656965354296" lon="14.186241633706238"><ele>217.0</ele><time>2026-04-04T14:40:18.001Z</time></trkpt><trkpt lat="41.20452547895942" lon="14.186432322704313"><ele>217.0</ele><time>2026-04-04T14:40:19.001Z</time></trkpt><trkpt lat="41.204396057906656" lon="14.186626352192313"><ele>217.0</ele><time>2026-04-04T14:40:20.001Z</time></trkpt><trkpt lat="41.204272294262715" lon="14.186823235036455"><ele>217.0</ele><time>2026-04-04T14:40:21.001Z</time></trkpt><trkpt lat="41.204149835933144" lon="14.187030070479425"><ele>217.0</ele><time>2026-04-04T14:40:22.001Z</time></trkpt><trkpt lat="41.20403435392861" lon="14.187242052865203"><ele>217.0</ele><time>2026-04-04T14:40:23.001Z</time></trkpt><trkpt lat="41.20391850391623" lon="14.187457915911486"><ele>215.0</ele><time>2026-04-04T14:40:24.001Z</time></trkpt><trkpt lat="41.20380212812536" lon="14.187674733322574"><ele>213.0</ele><time>2026-04-04T14:40:25.001Z</time></trkpt><trkpt lat="41.20368106655252" lon="14.187891276768843"><ele>211.0</ele><time>2026-04-04T14:40:26.001Z</time></trkpt><trkpt lat="41.2035642849087" lon="14.188105410171005"><ele>211.0</ele><time>2026-04-04T14:40:27.001Z</time></trkpt><trkpt lat="41.20344606042987" lon="14.188322440700723"><ele>211.0</ele><time>2026-04-04T14:40:28.001Z</time></trkpt><trkpt lat="41.20333151815185" lon="14.18853034320449"><ele>211.0</ele><time>2026-04-04T14:40:29.001Z</time></trkpt><trkpt lat="41.20322288390277" lon="14.188725052052295"><ele>208.66666666666666</ele><time>2026-04-04T14:40:30.001Z</time></trkpt><trkpt lat="41.20311552851744" lon="14.18892253047405"><ele>206.33333333333331</ele><time>2026-04-04T14:40:31.001Z</time></trkpt><trkpt lat="41.203013963916106" lon="14.189133553233548"><ele>204.0</ele><time>2026-04-04T14:40:32.002Z</time></trkpt><trkpt lat="41.20292957202591" lon="14.18934706901049"><ele>203.66666666666669</ele><time>2026-04-04T14:40:33.002Z</time></trkpt><trkpt lat="41.202859233476595" lon="14.1895719936415"><ele>203.33333333333334</ele><time>2026-04-04T14:40:34.002Z</time></trkpt><trkpt lat="41.20280194463052" lon="14.189807004783036"><ele>203.0</ele><time>2026-04-04T14:40:35.002Z</time></trkpt><trkpt lat="41.20274436302779" lon="14.190039118348311"><ele>203.0</ele><time>2026-04-04T14:40:36.002Z</time></trkpt><trkpt lat="41.20271199859218" lon="14.190285211236079"><ele>203.0</ele><time>2026-04-04T14:40:37.002Z</time></trkpt><trkpt lat="41.202717085800586" lon="14.190532145557176"><ele>203.0</ele><time>2026-04-04T14:40:38.002Z</time></trkpt><trkpt lat="41.202707722036195" lon="14.190771012431222"><ele>202.66666666666669</ele><time>2026-04-04T14:40:39.002Z</time></trkpt><trkpt lat="41.202702639441135" lon="14.19100442134161"><ele>202.33333333333331</ele><time>2026-04-04T14:40:40.002Z</time></trkpt><trkpt lat="41.20269646704947" lon="14.1912310459889"><ele>202.0</ele><time>2026-04-04T14:40:41.002Z</time></trkpt><trkpt lat="41.20265676121532" lon="14.191456433589078"><ele>202.0</ele><time>2026-04-04T14:40:42.002Z</time></trkpt><trkpt lat="41.20264469711245" lon="14.191683887450273"><ele>202.0</ele><time>2026-04-04T14:40:43.002Z</time></trkpt><trkpt lat="41.20263417880634" lon="14.1919029307995"><ele>202.0</ele><time>2026-04-04T14:40:44.002Z</time></trkpt><trkpt lat="41.202625079386536" lon="14.192111500705078"><ele>202.0</ele><time>2026-04-04T14:40:45.002Z</time></trkpt><trkpt lat="41.2026166624465" lon="14.192304427337126"><ele>202.0</ele><time>2026-04-04T14:40:46.002Z</time></trkpt><trkpt lat="41.20260916829275" lon="14.192481738140945"><ele>202.0</ele><time>2026-04-04T14:40:47Z</time></trkpt><trkpt lat="41.202603167198745" lon="14.19265636152643"><ele>202.0</ele><time>2026-04-04T14:40:48Z</time></trkpt><trkpt lat="41.20259556918475" lon="14.192811009693974"><ele>201.8</ele><time>2026-04-04T14:40:49Z</time></trkpt><trkpt lat="41.20258836645948" lon="14.192955911583741"><ele>201.6</ele><time>2026-04-04T14:40:50Z</time></trkpt><trkpt lat="41.202581817587735" lon="14.193087659442504"><ele>201.4</ele><time>2026-04-04T14:40:51Z</time></trkpt><trkpt lat="41.20257489969373" lon="14.19322683127093"><ele>201.20000000000002</ele><time>2026-04-04T14:40:52Z</time></trkpt><trkpt lat="41.202568060114125" lon="14.193358307244582"><ele>201.0</ele><time>2026-04-04T14:40:53Z</time></trkpt><trkpt lat="41.202561420007775" lon="14.193486626352769"><ele>201.4</ele><time>2026-04-04T14:40:54Z</time></trkpt><trkpt lat="41.20255435874771" lon="14.193623084227397"><ele>201.8</ele><time>2026-04-04T14:40:55Z</time></trkpt><trkpt lat="41.202547286714065" lon="14.193759750283492"><ele>202.20000000000002</ele><time>2026-04-04T14:40:56Z</time></trkpt><trkpt lat="41.20254012009146" lon="14.193898244282469"><ele>202.60000000000002</ele><time>2026-04-04T14:40:57Z</time></trkpt><trkpt lat="41.20253062381629" lon="14.194032935419449"><ele>203.0</ele><time>2026-04-04T14:40:58Z</time></trkpt><trkpt lat="41.20252034597569" lon="14.1941598768713"><ele>203.33333333333334</ele><time>2026-04-04T14:40:59Z</time></trkpt><trkpt lat="41.20251176010224" lon="14.194257918271283"><ele>203.66666666666669</ele><time>2026-04-04T14:41:00Z</time></trkpt><trkpt lat="41.20250353906745" lon="14.194350296907068"><ele>204.0</ele><time>2026-04-04T14:41:01Z</time></trkpt><trkpt lat="41.20249367542492" lon="14.194449177491535"><ele>204.33333333333331</ele><time>2026-04-04T14:41:02Z</time></trkpt><trkpt lat="41.20248476046665" lon="14.194538547753918"><ele>204.66666666666666</ele><time>2026-04-04T14:41:03Z</time></trkpt><trkpt lat="41.202462700653754" lon="14.194669891689488"><ele>205.0</ele><time>2026-04-04T14:41:05Z</time></trkpt><trkpt lat="41.20241769333122" lon="14.194771950975166"><ele>205.8</ele><time>2026-04-04T14:41:07Z</time></trkpt><trkpt lat="41.20238032670705" lon="14.194935253064783"><ele>206.6</ele><time>2026-04-04T14:41:09Z</time></trkpt><trkpt lat="41.20238066942793" lon="14.195065349796815"><ele>207.39999999999998</ele><time>2026-04-04T14:41:10Z</time></trkpt><trkpt lat="41.20236854521407" lon="14.195200513029056"><ele>208.2</ele><time>2026-04-04T14:41:11Z</time></trkpt><trkpt lat="41.20235870491559" lon="14.195348785682175"><ele>209.0</ele><time>2026-04-04T14:41:12Z</time></trkpt><trkpt lat="41.20234932226604" lon="14.19549848964671"><ele>209.00000000000003</ele><time>2026-04-04T14:41:13Z</time></trkpt><trkpt lat="41.20234212892502" lon="14.195628651934074"><ele>209.0</ele><time>2026-04-04T14:41:14Z</time></trkpt><trkpt lat="41.20234575357344" lon="14.195743455395784"><ele>209.0</ele><time>2026-04-04T14:41:15Z</time></trkpt><trkpt lat="41.202336459944135" lon="14.195847484964482"><ele>209.0</ele><time>2026-04-04T14:41:16Z</time></trkpt><trkpt lat="41.20233066956663" lon="14.195956364903537"><ele>209.00000000000003</ele><time>2026-04-04T14:41:17Z</time></trkpt><trkpt lat="41.20231986429126" lon="14.196065886507572"><ele>209.0</ele><time>2026-04-04T14:41:18Z</time></trkpt><trkpt lat="41.20230408459785" lon="14.196168721788885"><ele>207.83333333333334</ele><time>2026-04-04T14:41:19Z</time></trkpt><trkpt lat="41.2022865006672" lon="14.19627480668853"><ele>206.66666666666669</ele><time>2026-04-04T14:41:20Z</time></trkpt><trkpt lat="41.20227209387688" lon="14.196371195069029"><ele>205.5</ele><time>2026-04-04T14:41:21Z</time></trkpt><trkpt lat="41.20225423499796" lon="14.196473760065224"><ele>204.33333333333331</ele><time>2026-04-04T14:41:22Z</time></trkpt><trkpt lat="41.202235159443276" lon="14.196557356235159"><ele>203.16666666666666</ele><time>2026-04-04T14:41:23Z</time></trkpt><trkpt lat="41.20219914133093" lon="14.196659460751755"><ele>202.0</ele><time>2026-04-04T14:41:25Z</time></trkpt><trkpt lat="41.20218751582032" lon="14.196744879229673"><ele>202.0</ele><time>2026-04-04T14:41:28Z</time></trkpt><trkpt lat="41.20217163083559" lon="14.196859174851236"><ele>202.0</ele><time>2026-04-04T14:41:30Z</time></trkpt><trkpt lat="41.20213998325265" lon="14.197019075892578"><ele>202.0</ele><time>2026-04-04T14:41:32Z</time></trkpt><trkpt lat="41.20212320207125" lon="14.197122609243097"><ele>202.0</ele><time>2026-04-04T14:41:33Z</time></trkpt><trkpt lat="41.202110544787665" lon="14.19724266649914"><ele>202.0</ele><time>2026-04-04T14:41:34.001Z</time></trkpt><trkpt lat="41.20210241431246" lon="14.197365461085344"><ele>202.0</ele><time>2026-04-04T14:41:35.001Z</time></trkpt><trkpt lat="41.20208978993765" lon="14.19749357960934"><ele>202.0</ele><time>2026-04-04T14:41:36.001Z</time></trkpt><trkpt lat="41.20202885116522" lon="14.197622919688413"><ele>202.0</ele><time>2026-04-04T14:41:37.001Z</time></trkpt><trkpt lat="41.201941742443154" lon="14.19774536948804"><ele>202.0</ele><time>2026-04-04T14:41:38.001Z</time></trkpt><trkpt lat="41.201867786407675" lon="14.197855285151011"><ele>202.0</ele><time>2026-04-04T14:41:39.001Z</time></trkpt><trkpt lat="41.201763679602884" lon="14.197964003315322"><ele>202.0</ele><time>2026-04-04T14:41:40.001Z</time></trkpt><trkpt lat="41.20168868481023" lon="14.198099594143258"><ele>202.0</ele><time>2026-04-04T14:41:41.001Z</time></trkpt><trkpt lat="41.20163517599721" lon="14.19820941982613"><ele>202.0</ele><time>2026-04-04T14:41:42.001Z</time></trkpt><trkpt lat="41.20159235616927" lon="14.198308058621977"><ele>202.0</ele><time>2026-04-04T14:41:43.001Z</time></trkpt><trkpt lat="41.20156048212424" lon="14.198418653549691"><ele>201.2</ele><time>2026-04-04T14:41:44.001Z</time></trkpt><trkpt lat="41.201490108583805" lon="14.19851163426788"><ele>200.39999999999998</ele><time>2026-04-04T14:41:45.001Z</time></trkpt><trkpt lat="41.20141903133331" lon="14.198614402405193"><ele>199.60000000000002</ele><time>2026-04-04T14:41:46.001Z</time></trkpt><trkpt lat="41.20134233560661" lon="14.198729162406464"><ele>198.8</ele><time>2026-04-04T14:41:47.001Z</time></trkpt><trkpt lat="41.20126839028753" lon="14.198866271616394"><ele>198.0</ele><time>2026-04-04T14:41:48.001Z</time></trkpt><trkpt lat="41.201206295484575" lon="14.199017134493804"><ele>198.0</ele><time>2026-04-04T14:41:49.001Z</time></trkpt><trkpt lat="41.20114633350988" lon="14.199165272994575"><ele>198.0</ele><time>2026-04-04T14:41:50.001Z</time></trkpt><trkpt lat="41.2011015688316" lon="14.199319071798538"><ele>198.0</ele><time>2026-04-04T14:41:51.001Z</time></trkpt><trkpt lat="41.201060792869825" lon="14.199464973192635"><ele>198.0</ele><time>2026-04-04T14:41:52.001Z</time></trkpt><trkpt lat="41.20100270975479" lon="14.199597490872463"><ele>198.0</ele><time>2026-04-04T14:41:53.001Z</time></trkpt><trkpt lat="41.200936330343744" lon="14.199724897670485"><ele>198.0</ele><time>2026-04-04T14:41:54.001Z</time></trkpt><trkpt lat="41.200861627446045" lon="14.199876638582136"><ele>198.0</ele><time>2026-04-04T14:41:55.001Z</time></trkpt><trkpt lat="41.20076918732074" lon="14.200018067814629"><ele>198.0</ele><time>2026-04-04T14:41:56.001Z</time></trkpt><trkpt lat="41.20068074064923" lon="14.200149116515579"><ele>197.25</ele><time>2026-04-04T14:41:57.001Z</time></trkpt><trkpt lat="41.20058646081082" lon="14.200287505550074"><ele>196.5</ele><time>2026-04-04T14:41:58.001Z</time></trkpt><trkpt lat="41.200495462078884" lon="14.200427091757449"><ele>195.75</ele><time>2026-04-04T14:41:59.001Z</time></trkpt><trkpt lat="41.20041341713379" lon="14.200588750161236"><ele>195.0</ele><time>2026-04-04T14:42:00.001Z</time></trkpt><trkpt lat="41.20032027278523" lon="14.200735175829331"><ele>195.0</ele><time>2026-04-04T14:42:01.001Z</time></trkpt><trkpt lat="41.200235469061205" lon="14.200890133273452"><ele>195.0</ele><time>2026-04-04T14:42:02.001Z</time></trkpt><trkpt lat="41.200165695160806" lon="14.201068341181708"><ele>195.0</ele><time>2026-04-04T14:42:03.001Z</time></trkpt><trkpt lat="41.20012060967444" lon="14.201278479711595"><ele>195.33333333333331</ele><time>2026-04-04T14:42:04.001Z</time></trkpt><trkpt lat="41.20007557707663" lon="14.20151195535856"><ele>195.66666666666666</ele><time>2026-04-04T14:42:05.001Z</time></trkpt><trkpt lat="41.2000221178613" lon="14.201752613244743"><ele>196.0</ele><time>2026-04-04T14:42:06.001Z</time></trkpt><trkpt lat="41.19995938998276" lon="14.201984076860887"><ele>196.0</ele><time>2026-04-04T14:42:07.001Z</time></trkpt><trkpt lat="41.19987885172156" lon="14.202209846505147"><ele>196.0</ele><time>2026-04-04T14:42:08.001Z</time></trkpt><trkpt lat="41.19977565748002" lon="14.20242291620106"><ele>196.0</ele><time>2026-04-04T14:42:09.001Z</time></trkpt><trkpt lat="41.19970199703278" lon="14.202669486010649"><ele>193.33333333333331</ele><time>2026-04-04T14:42:10.001Z</time></trkpt><trkpt lat="41.199653524703834" lon="14.202915646895637"><ele>190.66666666666666</ele><time>2026-04-04T14:42:11.001Z</time></trkpt><trkpt lat="41.199607351966044" lon="14.203143118000506"><ele>188.0</ele><time>2026-04-04T14:42:12.001Z</time></trkpt><trkpt lat="41.199530559376434" lon="14.203335816872865"><ele>188.0</ele><time>2026-04-04T14:42:13.001Z</time></trkpt><trkpt lat="41.19941980543963" lon="14.203513674848574"><ele>188.0</ele><time>2026-04-04T14:42:14.001Z</time></trkpt><trkpt lat="41.19930661013703" lon="14.20370438916207"><ele>188.0</ele><time>2026-04-04T14:42:15.001Z</time></trkpt><trkpt lat="41.19917730113865" lon="14.203916090405226"><ele>187.33333333333331</ele><time>2026-04-04T14:42:16.001Z</time></trkpt><trkpt lat="41.19904075284804" lon="14.204105167025965"><ele>186.66666666666666</ele><time>2026-04-04T14:42:17.001Z</time></trkpt><trkpt lat="41.19893063690048" lon="14.204282743873001"><ele>186.0</ele><time>2026-04-04T14:42:18.001Z</time></trkpt><trkpt lat="41.198826203405076" lon="14.204468785347503"><ele>186.0</ele><time>2026-04-04T14:42:19.001Z</time></trkpt><trkpt lat="41.198729351439205" lon="14.204665991631044"><ele>186.0</ele><time>2026-04-04T14:42:20.001Z</time></trkpt><trkpt lat="41.198637780914495" lon="14.204857660913984"><ele>186.0</ele><time>2026-04-04T14:42:21.001Z</time></trkpt><trkpt lat="41.19854423214911" lon="14.205040547912292"><ele>186.0</ele><time>2026-04-04T14:42:22.001Z</time></trkpt><trkpt lat="41.198442635095" lon="14.20521089338174"><ele>186.0</ele><time>2026-04-04T14:42:23.001Z</time></trkpt><trkpt lat="41.19833070991485" lon="14.205368920823865"><ele>186.0</ele><time>2026-04-04T14:42:24.001Z</time></trkpt><trkpt lat="41.198209463255495" lon="14.205519224207587"><ele>183.33333333333334</ele><time>2026-04-04T14:42:25.001Z</time></trkpt><trkpt lat="41.19807163226605" lon="14.205662941149415"><ele>180.66666666666669</ele><time>2026-04-04T14:42:26.001Z</time></trkpt><trkpt lat="41.19792727514556" lon="14.205802414830039"><ele>178.0</ele><time>2026-04-04T14:42:27.001Z</time></trkpt><trkpt lat="41.197781083760226" lon="14.20594019648466"><ele>178.0</ele><time>2026-04-04T14:42:28.001Z</time></trkpt><trkpt lat="41.197632293072175" lon="14.206076720624607"><ele>178.0</ele><time>2026-04-04T14:42:29.001Z</time></trkpt><trkpt lat="41.19749328814904" lon="14.206205109793869"><ele>178.0</ele><time>2026-04-04T14:42:30.001Z</time></trkpt><trkpt lat="41.197362885009305" lon="14.206333508312996"><ele>176.66666666666669</ele><time>2026-04-04T14:42:31.001Z</time></trkpt><trkpt lat="41.19722860296148" lon="14.206462657982543"><ele>175.33333333333334</ele><time>2026-04-04T14:42:32.001Z</time></trkpt><trkpt lat="41.19707748388638" lon="14.206556217251778"><ele>174.0</ele><time>2026-04-04T14:42:33.001Z</time></trkpt><trkpt lat="41.196917990249375" lon="14.20663313879402"><ele>174.0</ele><time>2026-04-04T14:42:34.001Z</time></trkpt><trkpt lat="41.196774348363384" lon="14.206717424404191"><ele>174.0</ele><time>2026-04-04T14:42:35.001Z</time></trkpt><trkpt lat="41.196647555305624" lon="14.206815117184936"><ele>174.0</ele><time>2026-04-04T14:42:36.001Z</time></trkpt><trkpt lat="41.19654190552852" lon="14.206915986318375"><ele>174.0</ele><time>2026-04-04T14:42:37.001Z</time></trkpt><trkpt lat="41.19643681572019" lon="14.207023865192477"><ele>173.25</ele><time>2026-04-04T14:42:38.002Z</time></trkpt><trkpt lat="41.19635898143113" lon="14.20717967430142"><ele>172.5</ele><time>2026-04-04T14:42:39.002Z</time></trkpt><trkpt lat="41.196318873434116" lon="14.207384855446968"><ele>171.75</ele><time>2026-04-04T14:42:40.002Z</time></trkpt><trkpt lat="41.196283883669416" lon="14.20757168130627"><ele>171.0</ele><time>2026-04-04T14:42:41.002Z</time></trkpt><trkpt lat="41.19625254988992" lon="14.207735188427558"><ele>171.0</ele><time>2026-04-04T14:42:42.002Z</time></trkpt><trkpt lat="41.196139360040604" lon="14.207833428108692"><ele>171.0</ele><time>2026-04-04T14:42:43.002Z</time></trkpt><trkpt lat="41.1960124171385" lon="14.207940687601523"><ele>171.0</ele><time>2026-04-04T14:42:44.002Z</time></trkpt><trkpt lat="41.195868143464665" lon="14.208041505205678"><ele>171.0</ele><time>2026-04-04T14:42:45.002Z</time></trkpt><trkpt lat="41.1957483775608" lon="14.20814496663824"><ele>170.5</ele><time>2026-04-04T14:42:46.002Z</time></trkpt><trkpt lat="41.19563489365417" lon="14.208237266236425"><ele>170.0</ele><time>2026-04-04T14:42:47.002Z</time></trkpt><trkpt lat="41.195525617641735" lon="14.208363700086437"><ele>169.5</ele><time>2026-04-04T14:42:48.002Z</time></trkpt><trkpt lat="41.195425677052256" lon="14.208517876680455"><ele>169.0</ele><time>2026-04-04T14:42:49.002Z</time></trkpt><trkpt lat="41.195340461947694" lon="14.208690083333348"><ele>169.0</ele><time>2026-04-04T14:42:50.002Z</time></trkpt><trkpt lat="41.19527333800775" lon="14.208887315289363"><ele>169.0</ele><time>2026-04-04T14:42:51.002Z</time></trkpt><trkpt lat="41.195191989670064" lon="14.209066324869818"><ele>169.0</ele><time>2026-04-04T14:42:52.002Z</time></trkpt><trkpt lat="41.1951272243547" lon="14.209252009380265"><ele>168.66666666666669</ele><time>2026-04-04T14:42:53Z</time></trkpt><trkpt lat="41.19507730109957" lon="14.209442164971477"><ele>168.33333333333334</ele><time>2026-04-04T14:42:54Z</time></trkpt><trkpt lat="41.194987546595534" lon="14.209608510819288"><ele>168.0</ele><time>2026-04-04T14:42:55Z</time></trkpt><trkpt lat="41.19489171833143" lon="14.209764426139092"><ele>164.75</ele><time>2026-04-04T14:42:56Z</time></trkpt><trkpt lat="41.19479604757791" lon="14.209910810367546"><ele>161.5</ele><time>2026-04-04T14:42:57Z</time></trkpt><trkpt lat="41.19469340615665" lon="14.21006139495927"><ele>158.25</ele><time>2026-04-04T14:42:58Z</time></trkpt><trkpt lat="41.19459607165148" lon="14.210198172760117"><ele>155.0</ele><time>2026-04-04T14:42:59Z</time></trkpt><trkpt lat="41.194490114657256" lon="14.210322584819105"><ele>155.0</ele><time>2026-04-04T14:43:00Z</time></trkpt><trkpt lat="41.1943688117661" lon="14.210435794980475"><ele>155.0</ele><time>2026-04-04T14:43:01Z</time></trkpt><trkpt lat="41.194240962495776" lon="14.210538922545327"><ele>155.0</ele><time>2026-04-04T14:43:02Z</time></trkpt><trkpt lat="41.19409958897959" lon="14.210629236721559"><ele>149.66666666666666</ele><time>2026-04-04T14:43:03Z</time></trkpt><trkpt lat="41.19395058486088" lon="14.210722572816358"><ele>144.33333333333334</ele><time>2026-04-04T14:43:04Z</time></trkpt><trkpt lat="41.19379421875992" lon="14.210829324171158"><ele>139.0</ele><time>2026-04-04T14:43:05Z</time></trkpt><trkpt lat="41.193638963131086" lon="14.21093660334631"><ele>139.0</ele><time>2026-04-04T14:43:06Z</time></trkpt><trkpt lat="41.1934756091643" lon="14.21104683043677"><ele>139.0</ele><time>2026-04-04T14:43:07Z</time></trkpt><trkpt lat="41.19331623454351" lon="14.21115918679098"><ele>139.0</ele><time>2026-04-04T14:43:08Z</time></trkpt><trkpt lat="41.19315970292291" lon="14.211287590687354"><ele>136.0</ele><time>2026-04-04T14:43:09Z</time></trkpt><trkpt lat="41.19300247982093" lon="14.211417018993256"><ele>133.0</ele><time>2026-04-04T14:43:10Z</time></trkpt><trkpt lat="41.19283373657081" lon="14.211534177519423"><ele>130.0</ele><time>2026-04-04T14:43:11Z</time></trkpt><trkpt lat="41.192667771423515" lon="14.21164636691724"><ele>130.0</ele><time>2026-04-04T14:43:12Z</time></trkpt><trkpt lat="41.1925069598632" lon="14.211741274667544"><ele>130.0</ele><time>2026-04-04T14:43:13Z</time></trkpt><trkpt lat="41.19236980585553" lon="14.211810977710641"><ele>130.0</ele><time>2026-04-04T14:43:14Z</time></trkpt><trkpt lat="41.19222668566102" lon="14.2118636624902"><ele>124.33333333333334</ele><time>2026-04-04T14:43:15Z</time></trkpt><trkpt lat="41.19207221410178" lon="14.211886947915424"><ele>118.66666666666666</ele><time>2026-04-04T14:43:16Z</time></trkpt><trkpt lat="41.19192356985435" lon="14.211875764834602"><ele>113.0</ele><time>2026-04-04T14:43:17Z</time></trkpt><trkpt lat="41.19177641108862" lon="14.21187757858183"><ele>113.0</ele><time>2026-04-04T14:43:18Z</time></trkpt><trkpt lat="41.19162440213282" lon="14.211922233178866"><ele>113.0</ele><time>2026-04-04T14:43:19Z</time></trkpt><trkpt lat="41.191470712739935" lon="14.212006218516498"><ele>113.0</ele><time>2026-04-04T14:43:20Z</time></trkpt><trkpt lat="41.19131231338035" lon="14.212099151245802"><ele>113.0</ele><time>2026-04-04T14:43:21Z</time></trkpt><trkpt lat="41.19115222261879" lon="14.212194746720066"><ele>113.0</ele><time>2026-04-04T14:43:22Z</time></trkpt><trkpt lat="41.19100054319511" lon="14.212304407834491"><ele>113.0</ele><time>2026-04-04T14:43:23Z</time></trkpt><trkpt lat="41.19083768379849" lon="14.212410967846274"><ele>113.0</ele><time>2026-04-04T14:43:24Z</time></trkpt><trkpt lat="41.1906894848388" lon="14.212585714706165"><ele>113.0</ele><time>2026-04-04T14:43:25Z</time></trkpt><trkpt lat="41.19053138111494" lon="14.2127445236751"><ele>113.0</ele><time>2026-04-04T14:43:26Z</time></trkpt><trkpt lat="41.19038610017648" lon="14.212899231354397"><ele>111.66666666666666</ele><time>2026-04-04T14:43:27Z</time></trkpt><trkpt lat="41.19024692449175" lon="14.213030204400216"><ele>110.33333333333334</ele><time>2026-04-04T14:43:28Z</time></trkpt><trkpt lat="41.19012790623708" lon="14.213141304034732"><ele>109.0</ele><time>2026-04-04T14:43:29Z</time></trkpt><trkpt lat="41.18999866207105" lon="14.213235506857643"><ele>109.0</ele><time>2026-04-04T14:43:30Z</time></trkpt><trkpt lat="41.18985124707709" lon="14.213302834971678"><ele>109.0</ele><time>2026-04-04T14:43:31Z</time></trkpt><trkpt lat="41.18968769699357" lon="14.21334398182006"><ele>109.0</ele><time>2026-04-04T14:43:32Z</time></trkpt><trkpt lat="41.189524992122614" lon="14.213403333300985"><ele>106.75</ele><time>2026-04-04T14:43:33Z</time></trkpt><trkpt lat="41.18937427609479" lon="14.21349173094664"><ele>104.5</ele><time>2026-04-04T14:43:34Z</time></trkpt><trkpt lat="41.18924083196877" lon="14.21358334147362"><ele>102.25</ele><time>2026-04-04T14:43:35Z</time></trkpt><trkpt lat="41.18912856791964" lon="14.213667232184084"><ele>100.0</ele><time>2026-04-04T14:43:36Z</time></trkpt><trkpt lat="41.18902035056603" lon="14.213743936395483"><ele>100.0</ele><time>2026-04-04T14:43:37Z</time></trkpt><trkpt lat="41.18890501385738" lon="14.213805534644294"><ele>100.0</ele><time>2026-04-04T14:43:38Z</time></trkpt><trkpt lat="41.188779506512795" lon="14.21383552775802"><ele>100.0</ele><time>2026-04-04T14:43:39Z</time></trkpt><trkpt lat="41.188660866675264" lon="14.213835232328607"><ele>100.0</ele><time>2026-04-04T14:43:40.001Z</time></trkpt><trkpt lat="41.18856048359338" lon="14.213801512189635"><ele>100.0</ele><time>2026-04-04T14:43:41.001Z</time></trkpt><trkpt lat="41.18846245561721" lon="14.213739998063044"><ele>100.0</ele><time>2026-04-04T14:43:42.001Z</time></trkpt><trkpt lat="41.18836823830408" lon="14.21364192457995"><ele>100.0</ele><time>2026-04-04T14:43:43.001Z</time></trkpt><trkpt lat="41.1882740584128" lon="14.213506721565144"><ele>100.0</ele><time>2026-04-04T14:43:44.001Z</time></trkpt><trkpt lat="41.18818161311955" lon="14.213348611283289"><ele>99.5</ele><time>2026-04-04T14:43:45.001Z</time></trkpt><trkpt lat="41.18808022903529" lon="14.213211311376737"><ele>99.0</ele><time>2026-04-04T14:43:46.001Z</time></trkpt><trkpt lat="41.18798629508189" lon="14.213100384994847"><ele>98.5</ele><time>2026-04-04T14:43:47.001Z</time></trkpt><trkpt lat="41.187910133486255" lon="14.213018971837785"><ele>98.0</ele><time>2026-04-04T14:43:48.001Z</time></trkpt><trkpt lat="41.18783910838934" lon="14.212955574031927"><ele>97.33333333333333</ele><time>2026-04-04T14:43:49.001Z</time></trkpt><trkpt lat="41.18776039876214" lon="14.21292540405736"><ele>96.66666666666666</ele><time>2026-04-04T14:43:50.001Z</time></trkpt><trkpt lat="41.18767245205442" lon="14.21293945256212"><ele>96.0</ele><time>2026-04-04T14:43:51.001Z</time></trkpt><trkpt lat="41.187591063776075" lon="14.212989677938149"><ele>95.33333333333333</ele><time>2026-04-04T14:43:52.001Z</time></trkpt><trkpt lat="41.18751441995206" lon="14.21302311368401"><ele>94.66666666666666</ele><time>2026-04-04T14:43:53.001Z</time></trkpt><trkpt lat="41.18743365164811" lon="14.213013795078107"><ele>94.0</ele><time>2026-04-04T14:43:54.001Z</time></trkpt><trkpt lat="41.18736336630201" lon="14.212974313569548"><ele>93.5</ele><time>2026-04-04T14:43:55.001Z</time></trkpt><trkpt lat="41.18729550332909" lon="14.212894817110401"><ele>93.0</ele><time>2026-04-04T14:43:56.001Z</time></trkpt><trkpt lat="41.18723659443725" lon="14.212774874917153"><ele>92.5</ele><time>2026-04-04T14:43:57.001Z</time></trkpt><trkpt lat="41.18717361505153" lon="14.21261649463626"><ele>92.0</ele><time>2026-04-04T14:43:58.001Z</time></trkpt><trkpt lat="41.18708144206427" lon="14.212450233081508"><ele>91.66666666666667</ele><time>2026-04-04T14:43:59.001Z</time></trkpt><trkpt lat="41.18697544576626" lon="14.212287569092638"><ele>91.33333333333333</ele><time>2026-04-04T14:44:00.001Z</time></trkpt><trkpt lat="41.18686805659415" lon="14.212117939913822"><ele>91.0</ele><time>2026-04-04T14:44:01.001Z</time></trkpt><trkpt lat="41.18676254728187" lon="14.211955634681011"><ele>91.0</ele><time>2026-04-04T14:44:02.001Z</time></trkpt><trkpt lat="41.18666217440392" lon="14.211827863813314"><ele>91.0</ele><time>2026-04-04T14:44:03.001Z</time></trkpt><trkpt lat="41.1865588792065" lon="14.211700608222207"><ele>91.0</ele><time>2026-04-04T14:44:04.001Z</time></trkpt><trkpt lat="41.18645957076305" lon="14.211591663540215"><ele>91.0</ele><time>2026-04-04T14:44:05.001Z</time></trkpt><trkpt lat="41.186333914426896" lon="14.211493726900752"><ele>90.0</ele><time>2026-04-04T14:44:06.001Z</time></trkpt><trkpt lat="41.186198985548735" lon="14.211415701082826"><ele>89.0</ele><time>2026-04-04T14:44:07.001Z</time></trkpt><trkpt lat="41.186069193732635" lon="14.211359631229904"><ele>88.0</ele><time>2026-04-04T14:44:08.001Z</time></trkpt><trkpt lat="41.185950511526904" lon="14.211320135740168"><ele>87.0</ele><time>2026-04-04T14:44:09.001Z</time></trkpt><trkpt lat="41.185837553469405" lon="14.211276063076944"><ele>87.0</ele><time>2026-04-04T14:44:10.001Z</time></trkpt><trkpt lat="41.1857376424608" lon="14.211235521481859"><ele>87.0</ele><time>2026-04-04T14:44:11.001Z</time></trkpt><trkpt lat="41.18564613097094" lon="14.21119040516762"><ele>87.0</ele><time>2026-04-04T14:44:12.001Z</time></trkpt><trkpt lat="41.18556960681785" lon="14.211152972316098"><ele>87.0</ele><time>2026-04-04T14:44:13.001Z</time></trkpt><trkpt lat="41.18547285278282" lon="14.21110660398466"><ele>87.0</ele><time>2026-04-04T14:44:15.001Z</time></trkpt><trkpt lat="41.185397573394134" lon="14.21107352263937"><ele>87.0</ele><time>2026-04-04T14:44:17.001Z</time></trkpt><trkpt lat="41.18529821529285" lon="14.21121380231784"><ele>87.0</ele><time>2026-04-04T14:44:20.001Z</time></trkpt><trkpt lat="41.185259804416454" lon="14.211292590195423"><ele>87.0</ele><time>2026-04-04T14:44:22.001Z</time></trkpt><trkpt lat="41.185216720555474" lon="14.211374205691865"><ele>87.0</ele><time>2026-04-04T14:44:24.001Z</time></trkpt><trkpt lat="41.18514244822107" lon="14.211524803532724"><ele>87.0</ele><time>2026-04-04T14:45:11Z</time></trkpt><trkpt lat="41.1851004758916" lon="14.211604384267766"><ele>87.0</ele><time>2026-04-04T14:45:12Z</time></trkpt><trkpt lat="41.185050630003246" lon="14.211694495095468"><ele>87.0</ele><time>2026-04-04T14:45:13Z</time></trkpt><trkpt lat="41.1849984175801" lon="14.211795539718631"><ele>87.0</ele><time>2026-04-04T14:45:14Z</time></trkpt><trkpt lat="41.184950130369444" lon="14.211891871026129"><ele>87.0</ele><time>2026-04-04T14:45:15Z</time></trkpt><trkpt lat="41.18490273450867" lon="14.2119888491894"><ele>87.0</ele><time>2026-04-04T14:45:16Z</time></trkpt><trkpt lat="41.18485570702557" lon="14.212080742283273"><ele>87.0</ele><time>2026-04-04T14:45:17Z</time></trkpt><trkpt lat="41.18481084601801" lon="14.212167031098549"><ele>87.0</ele><time>2026-04-04T14:45:18Z</time></trkpt><trkpt lat="41.184762944872396" lon="14.212243947277116"><ele>87.0</ele><time>2026-04-04T14:45:19Z</time></trkpt><trkpt lat="41.18472541592515" lon="14.212331492765593"><ele>87.0</ele><time>2026-04-04T14:45:21Z</time></trkpt><trkpt lat="41.184684144403796" lon="14.212413085472615"><ele>87.0</ele><time>2026-04-04T14:45:22Z</time></trkpt><trkpt lat="41.184635500070264" lon="14.21250370381531"><ele>87.0</ele><time>2026-04-04T14:45:23Z</time></trkpt><trkpt lat="41.18459561980468" lon="14.21258294387916"><ele>87.0</ele><time>2026-04-04T14:45:24Z</time></trkpt><trkpt lat="41.18453294130449" lon="14.21266336311812"><ele>87.19999999999999</ele><time>2026-04-04T14:45:25Z</time></trkpt><trkpt lat="41.18445130446334" lon="14.212826025340057"><ele>87.4</ele><time>2026-04-04T14:45:27Z</time></trkpt><trkpt lat="41.18439898290057" lon="14.212919189609995"><ele>87.6</ele><time>2026-04-04T14:45:28Z</time></trkpt><trkpt lat="41.1843631413223" lon="14.213019036908532"><ele>87.80000000000001</ele><time>2026-04-04T14:45:29Z</time></trkpt><trkpt lat="41.184296800734344" lon="14.213088625408371"><ele>88.0</ele><time>2026-04-04T14:45:30Z</time></trkpt><trkpt lat="41.184245167849156" lon="14.213184152453135"><ele>88.16666666666666</ele><time>2026-04-04T14:45:31Z</time></trkpt><trkpt lat="41.18419662987237" lon="14.213276234787415"><ele>88.33333333333333</ele><time>2026-04-04T14:45:32Z</time></trkpt><trkpt lat="41.18414710494654" lon="14.213365790956017"><ele>88.5</ele><time>2026-04-04T14:45:33Z</time></trkpt><trkpt lat="41.18412676769385" lon="14.213445917362025"><ele>88.66666666666667</ele><time>2026-04-04T14:45:34Z</time></trkpt><trkpt lat="41.18409890092236" lon="14.213523111058684"><ele>88.83333333333334</ele><time>2026-04-04T14:45:35Z</time></trkpt><trkpt lat="41.1840631888005" lon="14.213628661584774"><ele>89.0</ele><time>2026-04-04T14:45:36Z</time></trkpt><trkpt lat="41.18402063843883" lon="14.213738890797439"><ele>88.80000000000001</ele><time>2026-04-04T14:45:37Z</time></trkpt><trkpt lat="41.18396715975866" lon="14.213858100665927"><ele>88.60000000000001</ele><time>2026-04-04T14:45:38Z</time></trkpt><trkpt lat="41.18391036555602" lon="14.213977817862885"><ele>88.4</ele><time>2026-04-04T14:45:39Z</time></trkpt><trkpt lat="41.183854020783976" lon="14.214095071224124"><ele>88.2</ele><time>2026-04-04T14:45:40Z</time></trkpt><trkpt lat="41.18379161130669" lon="14.214204197662301"><ele>88.0</ele><time>2026-04-04T14:45:41Z</time></trkpt><trkpt lat="41.1837527252327" lon="14.214305897581996"><ele>88.0</ele><time>2026-04-04T14:45:42Z</time></trkpt><trkpt lat="41.18371020390938" lon="14.214390362817857"><ele>88.0</ele><time>2026-04-04T14:45:43.001Z</time></trkpt><trkpt lat="41.183670447923305" lon="14.214462621085794"><ele>88.0</ele><time>2026-04-04T14:45:44.001Z</time></trkpt><trkpt lat="41.18360741220143" lon="14.214553105811488"><ele>88.0</ele><time>2026-04-04T14:45:46.001Z</time></trkpt><trkpt lat="41.18352270665308" lon="14.214594037177594"><ele>88.0</ele><time>2026-04-04T14:45:48.001Z</time></trkpt><trkpt lat="41.18345328300441" lon="14.21459483414054"><ele>88.0</ele><time>2026-04-04T14:45:49.001Z</time></trkpt><trkpt lat="41.183380334811545" lon="14.21457968799575"><ele>88.0</ele><time>2026-04-04T14:45:50.001Z</time></trkpt><trkpt lat="41.18329954435979" lon="14.214551112315167"><ele>88.0</ele><time>2026-04-04T14:45:51.001Z</time></trkpt><trkpt lat="41.18324010489425" lon="14.214522378913307"><ele>88.0</ele><time>2026-04-04T14:45:52.001Z</time></trkpt><trkpt lat="41.18318064691243" lon="14.214465374336239"><ele>88.0</ele><time>2026-04-04T14:45:54.001Z</time></trkpt><trkpt lat="41.18313486273479" lon="14.214310511920106"><ele>88.0</ele><time>2026-04-04T14:45:57.001Z</time></trkpt><trkpt lat="41.18312156297571" lon="14.214217694878991"><ele>88.0</ele><time>2026-04-04T14:45:58.001Z</time></trkpt><trkpt lat="41.18309934637533" lon="14.214116553509777"><ele>88.2</ele><time>2026-04-04T14:45:59.001Z</time></trkpt><trkpt lat="41.183072659071385" lon="14.21402999386566"><ele>88.4</ele><time>2026-04-04T14:46:00.001Z</time></trkpt><trkpt lat="41.1830038292662" lon="14.213936909139415"><ele>88.60000000000001</ele><time>2026-04-04T14:46:01.001Z</time></trkpt><trkpt lat="41.182932777160936" lon="14.213842467014743"><ele>88.80000000000001</ele><time>2026-04-04T14:46:02.001Z</time></trkpt><trkpt lat="41.18286158928902" lon="14.213739185568604"><ele>89.0</ele><time>2026-04-04T14:46:03.001Z</time></trkpt><trkpt lat="41.18276753191974" lon="14.21365846449748"><ele>88.0</ele><time>2026-04-04T14:46:04.001Z</time></trkpt><trkpt lat="41.18265845777303" lon="14.213596249923738"><ele>87.0</ele><time>2026-04-04T14:46:05.001Z</time></trkpt><trkpt lat="41.18254684191206" lon="14.213535290470148"><ele>86.0</ele><time>2026-04-04T14:46:06.001Z</time></trkpt><trkpt lat="41.182436191856326" lon="14.213468979117467"><ele>85.0</ele><time>2026-04-04T14:46:07.001Z</time></trkpt><trkpt lat="41.18234496836214" lon="14.21341728004161"><ele>85.0</ele><time>2026-04-04T14:46:08.001Z</time></trkpt><trkpt lat="41.182261907183786" lon="14.213378823368116"><ele>85.0</ele><time>2026-04-04T14:46:09.001Z</time></trkpt><trkpt lat="41.18218623369805" lon="14.213344144967772"><ele>85.0</ele><time>2026-04-04T14:46:10.001Z</time></trkpt><trkpt lat="41.182129086378154" lon="14.213289361094041"><ele>85.0</ele><time>2026-04-04T14:46:11.001Z</time></trkpt><trkpt lat="41.18206738410109" lon="14.213270398291662"><ele>85.0</ele><time>2026-04-04T14:46:12.001Z</time></trkpt><trkpt lat="41.18196294472139" lon="14.213183339726939"><ele>85.0</ele><time>2026-04-04T14:46:14.001Z</time></trkpt><trkpt lat="41.181886683696355" lon="14.213138768848273"><ele>84.8</ele><time>2026-04-04T14:46:15.001Z</time></trkpt><trkpt lat="41.181806299783474" lon="14.213069302542854"><ele>84.6</ele><time>2026-04-04T14:46:16.001Z</time></trkpt><trkpt lat="41.18172691546598" lon="14.212993195955663"><ele>84.4</ele><time>2026-04-04T14:46:17.001Z</time></trkpt><trkpt lat="41.18164545122013" lon="14.212907376664639"><ele>84.2</ele><time>2026-04-04T14:46:18.001Z</time></trkpt><trkpt lat="41.181560105081324" lon="14.212828822127449"><ele>84.0</ele><time>2026-04-04T14:46:19.001Z</time></trkpt><trkpt lat="41.18149122461618" lon="14.21276777348797"><ele>84.0</ele><time>2026-04-04T14:46:20.001Z</time></trkpt><trkpt lat="41.18143680497772" lon="14.212714666130472"><ele>84.0</ele><time>2026-04-04T14:46:21.001Z</time></trkpt><trkpt lat="41.18135582200579" lon="14.212641170396383"><ele>84.0</ele><time>2026-04-04T14:46:23.001Z</time></trkpt><trkpt lat="41.18127982360007" lon="14.212604996068"><ele>84.0</ele><time>2026-04-04T14:46:25.001Z</time></trkpt><trkpt lat="41.181183742899584" lon="14.212560118521328"><ele>84.0</ele><time>2026-04-04T14:46:27.001Z</time></trkpt><trkpt lat="41.181091869003296" lon="14.212480776700016"><ele>84.0</ele><time>2026-04-04T14:46:29.001Z</time></trkpt><trkpt lat="41.18101293806605" lon="14.212399419333579"><ele>84.0</ele><time>2026-04-04T14:46:31.001Z</time></trkpt><trkpt lat="41.180943747222926" lon="14.212348503947243"><ele>84.0</ele><time>2026-04-04T14:46:33.001Z</time></trkpt><trkpt lat="41.180868596673555" lon="14.21227829857555"><ele>84.0</ele><time>2026-04-04T14:46:35.001Z</time></trkpt><trkpt lat="41.18079245518642" lon="14.212190610019128"><ele>84.0</ele><time>2026-04-04T14:46:37.001Z</time></trkpt><trkpt lat="41.18073413139348" lon="14.212095966528171"><ele>83.4</ele><time>2026-04-04T14:46:39.001Z</time></trkpt><trkpt lat="41.18064908862147" lon="14.212034187501091"><ele>82.80000000000001</ele><time>2026-04-04T14:46:41.001Z</time></trkpt><trkpt lat="41.18060591243569" lon="14.211956643066445"><ele>82.19999999999999</ele><time>2026-04-04T14:46:44.001Z</time></trkpt><trkpt lat="41.18052256828147" lon="14.212070138503398"><ele>81.6</ele><time>2026-04-04T14:46:46.001Z</time></trkpt><trkpt lat="41.18048435502121" lon="14.212178731309852"><ele>81.0</ele><time>2026-04-04T14:46:47.001Z</time></trkpt><trkpt lat="41.180434851917816" lon="14.212296364612767"><ele>81.5</ele><time>2026-04-04T14:46:48.001Z</time></trkpt><trkpt lat="41.180370257279485" lon="14.212423331145988"><ele>82.0</ele><time>2026-04-04T14:46:49.002Z</time></trkpt><trkpt lat="41.180321987269345" lon="14.212564746150903"><ele>82.5</ele><time>2026-04-04T14:46:50.002Z</time></trkpt><trkpt lat="41.180263287234254" lon="14.212702592645625"><ele>83.0</ele><time>2026-04-04T14:46:51.002Z</time></trkpt><trkpt lat="41.18020029314066" lon="14.212837126155861"><ele>83.0</ele><time>2026-04-04T14:46:52.002Z</time></trkpt><trkpt lat="41.1801296287359" lon="14.2129814108968"><ele>83.0</ele><time>2026-04-04T14:46:53.002Z</time></trkpt><trkpt lat="41.18005016243041" lon="14.213138350487158"><ele>83.0</ele><time>2026-04-04T14:46:54.002Z</time></trkpt><trkpt lat="41.17996495904296" lon="14.213293944421757"><ele>83.0</ele><time>2026-04-04T14:46:55.002Z</time></trkpt><trkpt lat="41.17987540720544" lon="14.213448726716695"><ele>83.0</ele><time>2026-04-04T14:46:56.002Z</time></trkpt><trkpt lat="41.17978573134496" lon="14.21361623380491"><ele>83.0</ele><time>2026-04-04T14:46:57.002Z</time></trkpt><trkpt lat="41.17968746316619" lon="14.213773026997293"><ele>83.0</ele><time>2026-04-04T14:46:58.002Z</time></trkpt><trkpt lat="41.179612906697706" lon="14.213941684100867"><ele>83.33333333333334</ele><time>2026-04-04T14:46:59.002Z</time></trkpt><trkpt lat="41.17952167542234" lon="14.214098851564563"><ele>83.66666666666667</ele><time>2026-04-04T14:47:00.002Z</time></trkpt><trkpt lat="41.17942970033721" lon="14.214255306339464"><ele>84.0</ele><time>2026-04-04T14:47:01.002Z</time></trkpt><trkpt lat="41.179334975653475" lon="14.2144176706495"><ele>84.0</ele><time>2026-04-04T14:47:02.002Z</time></trkpt><trkpt lat="41.179229047073946" lon="14.214570427341366"><ele>84.0</ele><time>2026-04-04T14:47:03.002Z</time></trkpt><trkpt lat="41.17913531098026" lon="14.214737146260365"><ele>84.0</ele><time>2026-04-04T14:47:04.002Z</time></trkpt><trkpt lat="41.17904495718186" lon="14.21490873970602"><ele>84.0</ele><time>2026-04-04T14:47:05Z</time></trkpt><trkpt lat="41.17895277728167" lon="14.215078851476811"><ele>84.0</ele><time>2026-04-04T14:47:06Z</time></trkpt><trkpt lat="41.178863732847255" lon="14.2152486404551"><ele>84.0</ele><time>2026-04-04T14:47:07Z</time></trkpt><trkpt lat="41.178774456603804" lon="14.215415527803211"><ele>84.0</ele><time>2026-04-04T14:47:08Z</time></trkpt><trkpt lat="41.178689386595174" lon="14.215580663470082"><ele>84.0</ele><time>2026-04-04T14:47:09Z</time></trkpt><trkpt lat="41.1785974179989" lon="14.215743420405257"><ele>84.0</ele><time>2026-04-04T14:47:10Z</time></trkpt><trkpt lat="41.178510167187305" lon="14.215898418619354"><ele>84.0</ele><time>2026-04-04T14:47:11Z</time></trkpt><trkpt lat="41.17842562641758" lon="14.216052084140589"><ele>84.5</ele><time>2026-04-04T14:47:12Z</time></trkpt><trkpt lat="41.17833745125261" lon="14.216201721674038"><ele>85.0</ele><time>2026-04-04T14:47:13Z</time></trkpt><trkpt lat="41.178257933127476" lon="14.216345482450933"><ele>85.5</ele><time>2026-04-04T14:47:14Z</time></trkpt><trkpt lat="41.17817060247903" lon="14.216500240496773"><ele>86.0</ele><time>2026-04-04T14:47:15Z</time></trkpt><trkpt lat="41.17808670422423" lon="14.216651678653033"><ele>86.25</ele><time>2026-04-04T14:47:16Z</time></trkpt><trkpt lat="41.17799872456231" lon="14.216809189346646"><ele>86.5</ele><time>2026-04-04T14:47:17Z</time></trkpt><trkpt lat="41.17791351415216" lon="14.216956562849917"><ele>86.75</ele><time>2026-04-04T14:47:18Z</time></trkpt><trkpt lat="41.177827269698085" lon="14.217103256556353"><ele>87.0</ele><time>2026-04-04T14:47:19Z</time></trkpt><trkpt lat="41.177736397293266" lon="14.217249037170777"><ele>87.25</ele><time>2026-04-04T14:47:20Z</time></trkpt><trkpt lat="41.177646698453565" lon="14.217394947405444"><ele>87.5</ele><time>2026-04-04T14:47:21Z</time></trkpt><trkpt lat="41.177556391470716" lon="14.217543871861345"><ele>87.75</ele><time>2026-04-04T14:47:22Z</time></trkpt><trkpt lat="41.17747879114345" lon="14.217680771964767"><ele>88.0</ele><time>2026-04-04T14:47:23Z</time></trkpt><trkpt lat="41.177406735399366" lon="14.2178042723937"><ele>87.75</ele><time>2026-04-04T14:47:24Z</time></trkpt><trkpt lat="41.177342431058285" lon="14.217917906510015"><ele>87.5</ele><time>2026-04-04T14:47:25Z</time></trkpt><trkpt lat="41.17727496404845" lon="14.218034441006093"><ele>87.25</ele><time>2026-04-04T14:47:26Z</time></trkpt><trkpt lat="41.177197507360546" lon="14.218163714863682"><ele>87.0</ele><time>2026-04-04T14:47:27Z</time></trkpt><trkpt lat="41.17711543558148" lon="14.218296491835046"><ele>87.75</ele><time>2026-04-04T14:47:28Z</time></trkpt><trkpt lat="41.17703008570707" lon="14.218438955712555"><ele>88.5</ele><time>2026-04-04T14:47:29Z</time></trkpt><trkpt lat="41.176940100859085" lon="14.218583643806582"><ele>89.25</ele><time>2026-04-04T14:47:30Z</time></trkpt><trkpt lat="41.17685500748915" lon="14.218729610545259"><ele>90.0</ele><time>2026-04-04T14:47:31Z</time></trkpt><trkpt lat="41.17676723897903" lon="14.218879739609898"><ele>90.5</ele><time>2026-04-04T14:47:32Z</time></trkpt><trkpt lat="41.17667547296619" lon="14.219030416696043"><ele>91.0</ele><time>2026-04-04T14:47:33Z</time></trkpt><trkpt lat="41.17658962879529" lon="14.219180341647368"><ele>91.5</ele><time>2026-04-04T14:47:34Z</time></trkpt><trkpt lat="41.176498312883155" lon="14.21932893877989"><ele>92.0</ele><time>2026-04-04T14:47:35Z</time></trkpt><trkpt lat="41.17640440955264" lon="14.21947828586317"><ele>92.0</ele><time>2026-04-04T14:47:36Z</time></trkpt><trkpt lat="41.17631635880921" lon="14.219631611792964"><ele>92.0</ele><time>2026-04-04T14:47:37Z</time></trkpt><trkpt lat="41.17622628130991" lon="14.219782867372425"><ele>92.0</ele><time>2026-04-04T14:47:38Z</time></trkpt><trkpt lat="41.17614361634649" lon="14.219930882135166"><ele>92.0</ele><time>2026-04-04T14:47:39Z</time></trkpt><trkpt lat="41.17607244518361" lon="14.220049621779403"><ele>92.8</ele><time>2026-04-04T14:47:40Z</time></trkpt><trkpt lat="41.17600242608566" lon="14.22014583357219"><ele>93.6</ele><time>2026-04-04T14:47:41Z</time></trkpt><trkpt lat="41.175939939702054" lon="14.220237249153902"><ele>94.39999999999999</ele><time>2026-04-04T14:47:42Z</time></trkpt><trkpt lat="41.17589287065367" lon="14.220316496184312"><ele>95.19999999999999</ele><time>2026-04-04T14:47:43Z</time></trkpt><trkpt lat="41.17582578817539" lon="14.220432760760032"><ele>96.0</ele><time>2026-04-04T14:47:45Z</time></trkpt><trkpt lat="41.175784538427166" lon="14.22051311285293"><ele>96.0</ele><time>2026-04-04T14:47:47Z</time></trkpt><trkpt lat="41.175735081238244" lon="14.220596142111283"><ele>96.0</ele><time>2026-04-04T14:47:50.001Z</time></trkpt><trkpt lat="41.175821323980564" lon="14.22070319401638"><ele>96.0</ele><time>2026-04-04T14:47:51.001Z</time></trkpt><trkpt lat="41.17588034063797" lon="14.220745063139512"><ele>96.0</ele><time>2026-04-04T14:47:52.001Z</time></trkpt><trkpt lat="41.17594744853178" lon="14.220797083123754"><ele>96.0</ele><time>2026-04-04T14:47:53.001Z</time></trkpt><trkpt lat="41.17600936070825" lon="14.22087296957245"><ele>96.0</ele><time>2026-04-04T14:47:54.001Z</time></trkpt><trkpt lat="41.17608188423447" lon="14.220932175276266"><ele>96.6</ele><time>2026-04-04T14:47:55.001Z</time></trkpt><trkpt lat="41.17616315738742" lon="14.220985128584248"><ele>97.19999999999999</ele><time>2026-04-04T14:47:56.001Z</time></trkpt><trkpt lat="41.17624617099013" lon="14.221051575955624"><ele>97.80000000000001</ele><time>2026-04-04T14:47:57.001Z</time></trkpt><trkpt lat="41.1763356580771" lon="14.221117938009835"><ele>98.4</ele><time>2026-04-04T14:47:58.001Z</time></trkpt><trkpt lat="41.176425982662956" lon="14.221192563292458"><ele>99.0</ele><time>2026-04-04T14:47:59.001Z</time></trkpt><trkpt lat="41.17651311113769" lon="14.221270418076092"><ele>99.0</ele><time>2026-04-04T14:48:00.001Z</time></trkpt><trkpt lat="41.17659573615439" lon="14.22135600997494"><ele>99.0</ele><time>2026-04-04T14:48:01.001Z</time></trkpt><trkpt lat="41.176661639550716" lon="14.22144719558248"><ele>99.0</ele><time>2026-04-04T14:48:02.001Z</time></trkpt><trkpt lat="41.176723668196026" lon="14.221537732188631"><ele>99.0</ele><time>2026-04-04T14:48:03.001Z</time></trkpt><trkpt lat="41.176808358496174" lon="14.221622302515952"><ele>99.0</ele><time>2026-04-04T14:48:04.001Z</time></trkpt><trkpt lat="41.17688679690398" lon="14.221712912728782"><ele>99.0</ele><time>2026-04-04T14:48:05.001Z</time></trkpt><trkpt lat="41.17696929653174" lon="14.221792781034857"><ele>99.0</ele><time>2026-04-04T14:48:06.001Z</time></trkpt><trkpt lat="41.177041272607575" lon="14.22185477280502"><ele>99.0</ele><time>2026-04-04T14:48:07.001Z</time></trkpt><trkpt lat="41.17710369408089" lon="14.221907473208585"><ele>99.0</ele><time>2026-04-04T14:48:08.001Z</time></trkpt><trkpt lat="41.17717901271741" lon="14.221960727787186"><ele>99.0</ele><time>2026-04-04T14:48:09.001Z</time></trkpt><trkpt lat="41.17724909247895" lon="14.222018491313166"><ele>99.0</ele><time>2026-04-04T14:48:10.001Z</time></trkpt><trkpt lat="41.177333034471864" lon="14.222092121463884"><ele>99.33333333333333</ele><time>2026-04-04T14:48:11.001Z</time></trkpt><trkpt lat="41.17739580791662" lon="14.22214163449232"><ele>99.66666666666666</ele><time>2026-04-04T14:48:12.001Z</time></trkpt><trkpt lat="41.17746276566363" lon="14.222200084497235"><ele>100.0</ele><time>2026-04-04T14:48:13.001Z</time></trkpt><trkpt lat="41.17753183913488" lon="14.2222515346843"><ele>100.33333333333333</ele><time>2026-04-04T14:48:14.001Z</time></trkpt><trkpt lat="41.17759950173889" lon="14.222304881606174"><ele>100.66666666666666</ele><time>2026-04-04T14:48:15.001Z</time></trkpt><trkpt lat="41.17766494663993" lon="14.222365361321964"><ele>101.0</ele><time>2026-04-04T14:48:16.001Z</time></trkpt><trkpt lat="41.17773267832211" lon="14.22242029343698"><ele>101.33333333333333</ele><time>2026-04-04T14:48:17.001Z</time></trkpt><trkpt lat="41.177798697831975" lon="14.22248058311233"><ele>101.66666666666666</ele><time>2026-04-04T14:48:18.001Z</time></trkpt><trkpt lat="41.17786219315935" lon="14.222543819081269"><ele>102.0</ele><time>2026-04-04T14:48:19.001Z</time></trkpt><trkpt lat="41.17792837548662" lon="14.22259975439683"><ele>102.33333333333334</ele><time>2026-04-04T14:48:20.001Z</time></trkpt><trkpt lat="41.17799214711717" lon="14.222656588618928"><ele>102.66666666666667</ele><time>2026-04-04T14:48:21.001Z</time></trkpt><trkpt lat="41.17805667563613" lon="14.22271204798987"><ele>103.0</ele><time>2026-04-04T14:48:22.001Z</time></trkpt><trkpt lat="41.17811921737907" lon="14.22276895403331"><ele>105.33333333333334</ele><time>2026-04-04T14:48:23.001Z</time></trkpt><trkpt lat="41.17819274348676" lon="14.222825551205801"><ele>107.66666666666667</ele><time>2026-04-04T14:48:24.001Z</time></trkpt><trkpt lat="41.17827001698666" lon="14.222882302448353"><ele>110.0</ele><time>2026-04-04T14:48:25.001Z</time></trkpt><trkpt lat="41.17832936217172" lon="14.222964350325036"><ele>112.33333333333334</ele><time>2026-04-04T14:48:26.001Z</time></trkpt><trkpt lat="41.178357111218496" lon="14.223074435432855"><ele>114.66666666666667</ele><time>2026-04-04T14:48:27.001Z</time></trkpt><trkpt lat="41.17836819373804" lon="14.223196708499625"><ele>117.0</ele><time>2026-04-04T14:48:28.001Z</time></trkpt><trkpt lat="41.17836429935414" lon="14.223306277476164"><ele>117.19999999999999</ele><time>2026-04-04T14:48:29.001Z</time></trkpt><trkpt lat="41.1783477817521" lon="14.223394024327787"><ele>117.39999999999999</ele><time>2026-04-04T14:48:30.001Z</time></trkpt><trkpt lat="41.178361781517665" lon="14.223513403345489"><ele>117.60000000000001</ele><time>2026-04-04T14:48:32.001Z</time></trkpt><trkpt lat="41.17844366892402" lon="14.223536457717165"><ele>117.80000000000001</ele><time>2026-04-04T14:48:34.001Z</time></trkpt><trkpt lat="41.17851479348001" lon="14.223438336971633"><ele>118.0</ele><time>2026-04-04T14:48:36.001Z</time></trkpt><trkpt lat="41.1786034335702" lon="14.223313273321155"><ele>118.0</ele><time>2026-04-04T14:48:38.001Z</time></trkpt><trkpt lat="41.17866517074957" lon="14.2232600478645"><ele>118.0</ele><time>2026-04-04T14:48:39.001Z</time></trkpt><trkpt lat="41.17872666209262" lon="14.223203016625636"><ele>118.0</ele><time>2026-04-04T14:48:40.001Z</time></trkpt><trkpt lat="41.17879735873817" lon="14.223151445092572"><ele>118.0</ele><time>2026-04-04T14:48:41.001Z</time></trkpt><trkpt lat="41.17886765501182" lon="14.223103137200582"><ele>118.0</ele><time>2026-04-04T14:48:42.001Z</time></trkpt><trkpt lat="41.17893676177882" lon="14.223102469490437"><ele>118.0</ele><time>2026-04-04T14:48:44.001Z</time></trkpt><trkpt lat="41.17893958792181" lon="14.223195969821848"><ele>118.0</ele><time>2026-04-04T14:48:46.001Z</time></trkpt><trkpt lat="41.17886552987816" lon="14.223306360107284"><ele>118.00000000000001</ele><time>2026-04-04T14:48:48.001Z</time></trkpt><trkpt lat="41.17882516776824" lon="14.223372184494913"><ele>118.0</ele><time>2026-04-04T14:48:49.001Z</time></trkpt><trkpt lat="41.178787955469325" lon="14.223460932756334"><ele>118.0</ele><time>2026-04-04T14:48:50.001Z</time></trkpt><trkpt lat="41.1787511410895" lon="14.223556822819852"><ele>118.0</ele><time>2026-04-04T14:48:51.001Z</time></trkpt><trkpt lat="41.17870410721439" lon="14.223651750697904"><ele>118.00000000000001</ele><time>2026-04-04T14:48:52.001Z</time></trkpt><trkpt lat="41.178670801713515" lon="14.223754017239884"><ele>118.0</ele><time>2026-04-04T14:48:53.002Z</time></trkpt><trkpt lat="41.17864218770557" lon="14.223848539607262"><ele>118.0</ele><time>2026-04-04T14:48:54.002Z</time></trkpt><trkpt lat="41.1786166750155" lon="14.22393637000602"><ele>118.0</ele><time>2026-04-04T14:48:55.002Z</time></trkpt><trkpt lat="41.17859140664541" lon="14.224022959685659"><ele>118.0</ele><time>2026-04-04T14:48:56.002Z</time></trkpt><trkpt lat="41.17857430322689" lon="14.224107212752811"><ele>118.0</ele><time>2026-04-04T14:48:57.002Z</time></trkpt><trkpt lat="41.17855692791584" lon="14.224194215846829"><ele>118.0</ele><time>2026-04-04T14:48:58.002Z</time></trkpt><trkpt lat="41.17854569484495" lon="14.224279246530429"><ele>118.0</ele><time>2026-04-04T14:48:59.002Z</time></trkpt><trkpt lat="41.17853167417143" lon="14.22436667999449"><ele>118.0</ele><time>2026-04-04T14:49:00.002Z</time></trkpt><trkpt lat="41.17851735638591" lon="14.22445740032941"><ele>119.16666666666667</ele><time>2026-04-04T14:49:01.002Z</time></trkpt><trkpt lat="41.17849836354891" lon="14.224550625163792"><ele>120.33333333333334</ele><time>2026-04-04T14:49:02.002Z</time></trkpt><trkpt lat="41.178472582374226" lon="14.22464963218503"><ele>121.5</ele><time>2026-04-04T14:49:03.002Z</time></trkpt><trkpt lat="41.17843917866524" lon="14.224747464531562"><ele>122.66666666666666</ele><time>2026-04-04T14:49:04.002Z</time></trkpt><trkpt lat="41.17840674510277" lon="14.224850481377798"><ele>123.83333333333333</ele><time>2026-04-04T14:49:05.002Z</time></trkpt><trkpt lat="41.17837129352043" lon="14.224962759227324"><ele>125.0</ele><time>2026-04-04T14:49:06.002Z</time></trkpt><trkpt lat="41.17834081151512" lon="14.225073410054891"><ele>126.4</ele><time>2026-04-04T14:49:07.002Z</time></trkpt><trkpt lat="41.17830867725102" lon="14.225200245390514"><ele>127.8</ele><time>2026-04-04T14:49:08.002Z</time></trkpt><trkpt lat="41.178272228415985" lon="14.225330392662269"><ele>129.2</ele><time>2026-04-04T14:49:09.002Z</time></trkpt><trkpt lat="41.17823621810763" lon="14.225471404091035"><ele>130.6</ele><time>2026-04-04T14:49:10.002Z</time></trkpt><trkpt lat="41.17819605725378" lon="14.225612814684778"><ele>132.0</ele><time>2026-04-04T14:49:11Z</time></trkpt><trkpt lat="41.17814456902425" lon="14.22575664443914"><ele>137.25</ele><time>2026-04-04T14:49:12Z</time></trkpt><trkpt lat="41.178101114947616" lon="14.225897267042425"><ele>142.5</ele><time>2026-04-04T14:49:13Z</time></trkpt><trkpt lat="41.17806081378288" lon="14.226044545854833"><ele>147.75</ele><time>2026-04-04T14:49:14Z</time></trkpt><trkpt lat="41.178014271117725" lon="14.226187929942977"><ele>153.0</ele><time>2026-04-04T14:49:15Z</time></trkpt><trkpt lat="41.17797385046449" lon="14.226330136654205"><ele>153.25</ele><time>2026-04-04T14:49:16Z</time></trkpt><trkpt lat="41.17794341326251" lon="14.226478365743136"><ele>153.5</ele><time>2026-04-04T14:49:17Z</time></trkpt><trkpt lat="41.17792063159035" lon="14.226625412072444"><ele>153.75</ele><time>2026-04-04T14:49:18Z</time></trkpt><trkpt lat="41.17790139357361" lon="14.226771943501449"><ele>154.0</ele><time>2026-04-04T14:49:19Z</time></trkpt><trkpt lat="41.17788596962213" lon="14.226924504603323"><ele>154.0</ele><time>2026-04-04T14:49:20Z</time></trkpt><trkpt lat="41.17787031883754" lon="14.227076869516768"><ele>154.0</ele><time>2026-04-04T14:49:21Z</time></trkpt><trkpt lat="41.17784535211035" lon="14.227224723446941"><ele>154.0</ele><time>2026-04-04T14:49:22Z</time></trkpt><trkpt lat="41.17781464874698" lon="14.227370316708495"><ele>154.0</ele><time>2026-04-04T14:49:23Z</time></trkpt><trkpt lat="41.177781939631174" lon="14.227518325919219"><ele>153.75</ele><time>2026-04-04T14:49:24Z</time></trkpt><trkpt lat="41.17774339594652" lon="14.227668132894927"><ele>153.5</ele><time>2026-04-04T14:49:25Z</time></trkpt><trkpt lat="41.177699875509546" lon="14.227816415626648"><ele>153.25</ele><time>2026-04-04T14:49:26Z</time></trkpt><trkpt lat="41.17765396605615" lon="14.22796354845491"><ele>153.0</ele><time>2026-04-04T14:49:27Z</time></trkpt><trkpt lat="41.17760780823559" lon="14.228107741275533"><ele>152.25</ele><time>2026-04-04T14:49:28Z</time></trkpt><trkpt lat="41.177562155064614" lon="14.22825529234249"><ele>151.5</ele><time>2026-04-04T14:49:29Z</time></trkpt><trkpt lat="41.1775136446887" lon="14.22839813401986"><ele>150.75</ele><time>2026-04-04T14:49:30Z</time></trkpt><trkpt lat="41.17747095215479" lon="14.228530258821198"><ele>150.0</ele><time>2026-04-04T14:49:31Z</time></trkpt><trkpt lat="41.17742836790338" lon="14.228655978968101"><ele>150.0</ele><time>2026-04-04T14:49:32Z</time></trkpt><trkpt lat="41.17738549268304" lon="14.22877339017453"><ele>150.0</ele><time>2026-04-04T14:49:33Z</time></trkpt><trkpt lat="41.17733399014405" lon="14.22888530009229"><ele>150.0</ele><time>2026-04-04T14:49:34Z</time></trkpt><trkpt lat="41.17727801852686" lon="14.22898810246278"><ele>150.0</ele><time>2026-04-04T14:49:35Z</time></trkpt><trkpt lat="41.17721968337303" lon="14.229088045166032"><ele>150.0</ele><time>2026-04-04T14:49:36Z</time></trkpt><trkpt lat="41.177166282838336" lon="14.229184623114767"><ele>153.6</ele><time>2026-04-04T14:49:37Z</time></trkpt><trkpt lat="41.177108584469835" lon="14.229283733476342"><ele>157.2</ele><time>2026-04-04T14:49:38Z</time></trkpt><trkpt lat="41.17704819589626" lon="14.229378200982634"><ele>160.8</ele><time>2026-04-04T14:49:39Z</time></trkpt><trkpt lat="41.17698085253523" lon="14.229483575655273"><ele>164.4</ele><time>2026-04-04T14:49:40Z</time></trkpt><trkpt lat="41.17691719369843" lon="14.229590818200789"><ele>168.0</ele><time>2026-04-04T14:49:41Z</time></trkpt><trkpt lat="41.17685051547067" lon="14.229693055848703"><ele>168.0</ele><time>2026-04-04T14:49:42Z</time></trkpt><trkpt lat="41.17677977528032" lon="14.229786655315827"><ele>168.0</ele><time>2026-04-04T14:49:43Z</time></trkpt><trkpt lat="41.17671149492962" lon="14.229881097148223"><ele>168.0</ele><time>2026-04-04T14:49:44Z</time></trkpt><trkpt lat="41.1766432646111" lon="14.22997735028431"><ele>168.0</ele><time>2026-04-04T14:49:45Z</time></trkpt><trkpt lat="41.17657317487174" lon="14.2300694543886"><ele>168.0</ele><time>2026-04-04T14:49:46Z</time></trkpt><trkpt lat="41.17650433074923" lon="14.230158122028346"><ele>170.4</ele><time>2026-04-04T14:49:47Z</time></trkpt><trkpt lat="41.17643696460844" lon="14.230248260497975"><ele>172.8</ele><time>2026-04-04T14:49:48Z</time></trkpt><trkpt lat="41.17637065058246" lon="14.230338572989158"><ele>175.2</ele><time>2026-04-04T14:49:49.001Z</time></trkpt><trkpt lat="41.17630064066197" lon="14.23042324256092"><ele>177.6</ele><time>2026-04-04T14:49:50.001Z</time></trkpt><trkpt lat="41.176224287591" lon="14.230494090973677"><ele>180.0</ele><time>2026-04-04T14:49:51.001Z</time></trkpt><trkpt lat="41.17615021560526" lon="14.230558612829979"><ele>180.0</ele><time>2026-04-04T14:49:52.001Z</time></trkpt><trkpt lat="41.176074458306296" lon="14.230621514630661"><ele>180.0</ele><time>2026-04-04T14:49:53.001Z</time></trkpt><trkpt lat="41.1760001866624" lon="14.230684696546806"><ele>180.0</ele><time>2026-04-04T14:49:54.001Z</time></trkpt><trkpt lat="41.175928487234536" lon="14.230754453042094"><ele>180.0</ele><time>2026-04-04T14:49:55.001Z</time></trkpt><trkpt lat="41.17585926563211" lon="14.230828728992043"><ele>180.0</ele><time>2026-04-04T14:49:56.001Z</time></trkpt><trkpt lat="41.17579712557131" lon="14.23091176012698"><ele>180.0</ele><time>2026-04-04T14:49:57.001Z</time></trkpt><trkpt lat="41.17573448708515" lon="14.230993757329813"><ele>180.66666666666666</ele><time>2026-04-04T14:49:58.001Z</time></trkpt><trkpt lat="41.1756730642772" lon="14.231077572013797"><ele>181.33333333333334</ele><time>2026-04-04T14:49:59.001Z</time></trkpt><trkpt lat="41.17561675285847" lon="14.231155303084043"><ele>182.0</ele><time>2026-04-04T14:50:00.001Z</time></trkpt><trkpt lat="41.17556596387981" lon="14.23123223371097"><ele>182.66666666666669</ele><time>2026-04-04T14:50:01.001Z</time></trkpt><trkpt lat="41.17551856523434" lon="14.23131288626219"><ele>183.33333333333334</ele><time>2026-04-04T14:50:02.001Z</time></trkpt><trkpt lat="41.1754749112132" lon="14.231384960104782"><ele>184.0</ele><time>2026-04-04T14:50:03.001Z</time></trkpt><trkpt lat="41.17543021252551" lon="14.231444689867182"><ele>181.2</ele><time>2026-04-04T14:50:04.001Z</time></trkpt><trkpt lat="41.17534262412167" lon="14.231558457863375"><ele>178.39999999999998</ele><time>2026-04-04T14:50:06.001Z</time></trkpt><trkpt lat="41.17525516921078" lon="14.231655409113051"><ele>175.6</ele><time>2026-04-04T14:50:08.001Z</time></trkpt><trkpt lat="41.17515838613084" lon="14.231735974467504"><ele>172.8</ele><time>2026-04-04T14:50:10.001Z</time></trkpt><trkpt lat="41.1751000654319" lon="14.23177747230175"><ele>170.0</ele><time>2026-04-04T14:50:11.001Z</time></trkpt><trkpt lat="41.17503729821358" lon="14.231825358124615"><ele>170.0</ele><time>2026-04-04T14:50:12.001Z</time></trkpt><trkpt lat="41.17497249796798" lon="14.231881422954586"><ele>170.0</ele><time>2026-04-04T14:50:13.001Z</time></trkpt><trkpt lat="41.174906146493285" lon="14.231943010988683"><ele>170.0</ele><time>2026-04-04T14:50:14.001Z</time></trkpt><trkpt lat="41.174838188429966" lon="14.232003824311834"><ele>170.0</ele><time>2026-04-04T14:50:15.001Z</time></trkpt><trkpt lat="41.17477593325593" lon="14.232073471476303"><ele>170.0</ele><time>2026-04-04T14:50:16.001Z</time></trkpt><trkpt lat="41.17471802297922" lon="14.232151469134008"><ele>170.0</ele><time>2026-04-04T14:50:17.001Z</time></trkpt><trkpt lat="41.17466592576865" lon="14.232241456370518"><ele>170.83333333333331</ele><time>2026-04-04T14:50:18.001Z</time></trkpt><trkpt lat="41.17461927777956" lon="14.232333724606105"><ele>171.66666666666666</ele><time>2026-04-04T14:50:19.001Z</time></trkpt><trkpt lat="41.17457521253227" lon="14.232428702674223"><ele>172.5</ele><time>2026-04-04T14:50:20.001Z</time></trkpt><trkpt lat="41.174531498112394" lon="14.232518558987167"><ele>173.33333333333334</ele><time>2026-04-04T14:50:21.001Z</time></trkpt><trkpt lat="41.174494286433685" lon="14.232604067780567"><ele>174.16666666666669</ele><time>2026-04-04T14:50:22.001Z</time></trkpt><trkpt lat="41.17446225393943" lon="14.232685144759238"><ele>175.0</ele><time>2026-04-04T14:50:23.001Z</time></trkpt><trkpt lat="41.174428705307776" lon="14.232761293118605"><ele>175.0</ele><time>2026-04-04T14:50:24.001Z</time></trkpt><trkpt lat="41.17439558382359" lon="14.232836782769786"><ele>175.0</ele><time>2026-04-04T14:50:25.001Z</time></trkpt><trkpt lat="41.174334564391074" lon="14.232982352540068"><ele>175.0</ele><time>2026-04-04T14:50:27.001Z</time></trkpt><trkpt lat="41.17426736736461" lon="14.233124099600161"><ele>175.0</ele><time>2026-04-04T14:50:29.001Z</time></trkpt><trkpt lat="41.174200707750636" lon="14.233260499650235"><ele>175.0</ele><time>2026-04-04T14:50:31.001Z</time></trkpt><trkpt lat="41.17416430251822" lon="14.233339946600319"><ele>174.66666666666669</ele><time>2026-04-04T14:50:32.001Z</time></trkpt><trkpt lat="41.17412841765736" lon="14.23342653826805"><ele>174.33333333333334</ele><time>2026-04-04T14:50:33.001Z</time></trkpt><trkpt lat="41.17409231928925" lon="14.233517050773703"><ele>174.0</ele><time>2026-04-04T14:50:34.001Z</time></trkpt><trkpt lat="41.174049053632885" lon="14.233605621016912"><ele>173.66666666666666</ele><time>2026-04-04T14:50:35.001Z</time></trkpt><trkpt lat="41.1740088273582" lon="14.233671869161586"><ele>173.33333333333331</ele><time>2026-04-04T14:50:36.001Z</time></trkpt><trkpt lat="41.173955473049695" lon="14.233745789621498"><ele>173.0</ele><time>2026-04-04T14:50:38.001Z</time></trkpt><trkpt lat="41.17389481657972" lon="14.233845420568903"><ele>173.4</ele><time>2026-04-04T14:50:40.001Z</time></trkpt><trkpt lat="41.17384066344394" lon="14.233977835021573"><ele>173.8</ele><time>2026-04-04T14:50:42.001Z</time></trkpt><trkpt lat="41.173779988055735" lon="14.23412532932948"><ele>174.2</ele><time>2026-04-04T14:50:44.001Z</time></trkpt><trkpt lat="41.173745056613726" lon="14.23421720280988"><ele>174.6</ele><time>2026-04-04T14:50:45.001Z</time></trkpt><trkpt lat="41.17372641990052" lon="14.234326044804035"><ele>175.0</ele><time>2026-04-04T14:50:46.001Z</time></trkpt><trkpt lat="41.173710701737534" lon="14.234441060236616"><ele>175.0</ele><time>2026-04-04T14:50:47.001Z</time></trkpt><trkpt lat="41.17369032432266" lon="14.234561923922843"><ele>175.0</ele><time>2026-04-04T14:50:48.001Z</time></trkpt><trkpt lat="41.17367374290034" lon="14.23468505051627"><ele>175.0</ele><time>2026-04-04T14:50:49.001Z</time></trkpt><trkpt lat="41.1736624014753" lon="14.234806475260564"><ele>175.0</ele><time>2026-04-04T14:50:50.001Z</time></trkpt><trkpt lat="41.17364285989329" lon="14.234929038371233"><ele>175.0</ele><time>2026-04-04T14:50:51.001Z</time></trkpt><trkpt lat="41.173622502283386" lon="14.235039863643133"><ele>175.33333333333334</ele><time>2026-04-04T14:50:52.001Z</time></trkpt><trkpt lat="41.173606090485016" lon="14.235153542588401"><ele>175.66666666666669</ele><time>2026-04-04T14:50:53.001Z</time></trkpt><trkpt lat="41.17361973453905" lon="14.235262490928221"><ele>176.0</ele><time>2026-04-04T14:50:54.001Z</time></trkpt><trkpt lat="41.17365405279341" lon="14.235360910228575"><ele>176.33333333333334</ele><time>2026-04-04T14:50:55.002Z</time></trkpt><trkpt lat="41.17369622718167" lon="14.235448397215608"><ele>176.66666666666666</ele><time>2026-04-04T14:50:56.002Z</time></trkpt><trkpt lat="41.17372361270369" lon="14.235531116741875"><ele>177.0</ele><time>2026-04-04T14:50:57.002Z</time></trkpt><trkpt lat="41.17370993712049" lon="14.235674421273163"><ele>177.83333333333334</ele><time>2026-04-04T14:50:59.002Z</time></trkpt><trkpt lat="41.17361628323241" lon="14.235785782902017"><ele>178.66666666666666</ele><time>2026-04-04T14:51:01.002Z</time></trkpt><trkpt lat="41.17353009779706" lon="14.235854222101896"><ele>179.5</ele><time>2026-04-04T14:51:02.002Z</time></trkpt><trkpt lat="41.17346035873561" lon="14.235892728236713"><ele>180.33333333333331</ele><time>2026-04-04T14:51:03.002Z</time></trkpt><trkpt lat="41.17339138524797" lon="14.235923844003453"><ele>181.16666666666666</ele><time>2026-04-04T14:51:04.002Z</time></trkpt><trkpt lat="41.17332583095258" lon="14.235954006026596"><ele>182.0</ele><time>2026-04-04T14:51:05.002Z</time></trkpt><trkpt lat="41.173211688353256" lon="14.235991569586266"><ele>180.2</ele><time>2026-04-04T14:51:07.002Z</time></trkpt><trkpt lat="41.173131281360774" lon="14.23597690184126"><ele>178.39999999999998</ele><time>2026-04-04T14:51:08.002Z</time></trkpt><trkpt lat="41.17304320875086" lon="14.235953342024361"><ele>176.60000000000002</ele><time>2026-04-04T14:51:09.002Z</time></trkpt><trkpt lat="41.17294534477055" lon="14.235903029352045"><ele>174.8</ele><time>2026-04-04T14:51:10.002Z</time></trkpt><trkpt lat="41.17284194569597" lon="14.235845930081004"><ele>173.0</ele><time>2026-04-04T14:51:11.002Z</time></trkpt><trkpt lat="41.17272612980755" lon="14.235779125510348"><ele>173.0</ele><time>2026-04-04T14:51:12.002Z</time></trkpt><trkpt lat="41.172610871442664" lon="14.235752300069857"><ele>173.0</ele><time>2026-04-04T14:51:13.002Z</time></trkpt><trkpt lat="41.17249972734493" lon="14.235751714008062"><ele>173.0</ele><time>2026-04-04T14:51:14.002Z</time></trkpt><trkpt lat="41.17238060597423" lon="14.235737064450356"><ele>173.0</ele><time>2026-04-04T14:51:15.002Z</time></trkpt><trkpt lat="41.17226626271501" lon="14.235721807916013"><ele>172.60000000000002</ele><time>2026-04-04T14:51:16.002Z</time></trkpt><trkpt lat="41.172156213433105" lon="14.23570280103589"><ele>172.20000000000002</ele><time>2026-04-04T14:51:17Z</time></trkpt><trkpt lat="41.172051721855944" lon="14.23567873960973"><ele>171.8</ele><time>2026-04-04T14:51:18Z</time></trkpt><trkpt lat="41.171950263005336" lon="14.235653745864841"><ele>171.4</ele><time>2026-04-04T14:51:19Z</time></trkpt><trkpt lat="41.171847221072795" lon="14.235614835093466"><ele>171.0</ele><time>2026-04-04T14:51:20Z</time></trkpt><trkpt lat="41.1717444611597" lon="14.235569334737429"><ele>171.0</ele><time>2026-04-04T14:51:21Z</time></trkpt><trkpt lat="41.171644051131736" lon="14.235519888756448"><ele>171.0</ele><time>2026-04-04T14:51:22Z</time></trkpt><trkpt lat="41.17155442502356" lon="14.235461325142413"><ele>171.0</ele><time>2026-04-04T14:51:23Z</time></trkpt><trkpt lat="41.171478182849484" lon="14.235411311576385"><ele>171.0</ele><time>2026-04-04T14:51:24Z</time></trkpt><trkpt lat="41.17140431786811" lon="14.235351780261784"><ele>171.0</ele><time>2026-04-04T14:51:25Z</time></trkpt><trkpt lat="41.17133976069993" lon="14.23527963253111"><ele>167.8</ele><time>2026-04-04T14:51:26Z</time></trkpt><trkpt lat="41.17127780906577" lon="14.235188582278298"><ele>164.60000000000002</ele><time>2026-04-04T14:51:27Z</time></trkpt><trkpt lat="41.17122890310881" lon="14.235085511155702"><ele>161.4</ele><time>2026-04-04T14:51:28Z</time></trkpt><trkpt lat="41.17119564545361" lon="14.234973198924683"><ele>158.2</ele><time>2026-04-04T14:51:29Z</time></trkpt><trkpt lat="41.171169315550365" lon="14.234859166835513"><ele>155.0</ele><time>2026-04-04T14:51:30Z</time></trkpt><trkpt lat="41.17115071206553" lon="14.234747674914967"><ele>155.0</ele><time>2026-04-04T14:51:31Z</time></trkpt><trkpt lat="41.17112960802029" lon="14.234636134234394"><ele>155.0</ele><time>2026-04-04T14:51:32Z</time></trkpt><trkpt lat="41.17110233377561" lon="14.234524051684689"><ele>155.0</ele><time>2026-04-04T14:51:33Z</time></trkpt><trkpt lat="41.17106996051551" lon="14.234411932001493"><ele>155.0</ele><time>2026-04-04T14:51:34Z</time></trkpt><trkpt lat="41.1710334541712" lon="14.234309628595017"><ele>155.0</ele><time>2026-04-04T14:51:35Z</time></trkpt><trkpt lat="41.170980679062865" lon="14.234210920849817"><ele>155.0</ele><time>2026-04-04T14:51:36Z</time></trkpt><trkpt lat="41.17091174536321" lon="14.234114277997785"><ele>155.0</ele><time>2026-04-04T14:51:37Z</time></trkpt><trkpt lat="41.1708323625511" lon="14.234026313688663"><ele>155.0</ele><time>2026-04-04T14:51:38Z</time></trkpt><trkpt lat="41.17075575248956" lon="14.23395330772635"><ele>155.0</ele><time>2026-04-04T14:51:39Z</time></trkpt><trkpt lat="41.17067774430623" lon="14.233896224390248"><ele>155.0</ele><time>2026-04-04T14:51:40Z</time></trkpt><trkpt lat="41.170593614920605" lon="14.23385463246365"><ele>155.0</ele><time>2026-04-04T14:51:41Z</time></trkpt><trkpt lat="41.17050295480423" lon="14.233810267663795"><ele>155.33333333333331</ele><time>2026-04-04T14:51:42Z</time></trkpt><trkpt lat="41.170415798401855" lon="14.233759061595629"><ele>155.66666666666666</ele><time>2026-04-04T14:51:43Z</time></trkpt><trkpt lat="41.17032585737867" lon="14.233712266328732"><ele>156.0</ele><time>2026-04-04T14:51:44Z</time></trkpt><trkpt lat="41.17023954034183" lon="14.233672189719444"><ele>156.33333333333334</ele><time>2026-04-04T14:51:45Z</time></trkpt><trkpt lat="41.17015609277072" lon="14.233647956685443"><ele>156.66666666666669</ele><time>2026-04-04T14:51:46Z</time></trkpt><trkpt lat="41.17007605179927" lon="14.233649821345736"><ele>157.0</ele><time>2026-04-04T14:51:47Z</time></trkpt><trkpt lat="41.169994041933464" lon="14.233674032908123"><ele>157.0</ele><time>2026-04-04T14:51:48Z</time></trkpt><trkpt lat="41.169911312094285" lon="14.23368084826004"><ele>157.0</ele><time>2026-04-04T14:51:49Z</time></trkpt><trkpt lat="41.16982308715697" lon="14.233668702270897"><ele>157.0</ele><time>2026-04-04T14:51:50Z</time></trkpt><trkpt lat="41.16973911226148" lon="14.233662413853928"><ele>157.0</ele><time>2026-04-04T14:51:51Z</time></trkpt><trkpt lat="41.16965606773053" lon="14.233657271922441"><ele>157.0</ele><time>2026-04-04T14:51:52Z</time></trkpt><trkpt lat="41.169574490815435" lon="14.23364455121169"><ele>157.0</ele><time>2026-04-04T14:51:53Z</time></trkpt><trkpt lat="41.16949235862817" lon="14.233637828350348"><ele>154.79999999999998</ele><time>2026-04-04T14:51:54Z</time></trkpt><trkpt lat="41.16940501470058" lon="14.233629255758773"><ele>152.6</ele><time>2026-04-04T14:51:55Z</time></trkpt><trkpt lat="41.1693205796772" lon="14.233604947302931"><ele>150.39999999999998</ele><time>2026-04-04T14:51:56Z</time></trkpt><trkpt lat="41.16923207865829" lon="14.233560358613648"><ele>148.2</ele><time>2026-04-04T14:51:57Z</time></trkpt><trkpt lat="41.16914248772777" lon="14.233496648707884"><ele>146.0</ele><time>2026-04-04T14:51:58Z</time></trkpt><trkpt lat="41.169063612436055" lon="14.233423302188331"><ele>144.4</ele><time>2026-04-04T14:51:59.001Z</time></trkpt><trkpt lat="41.16898746419059" lon="14.233345767764746"><ele>142.8</ele><time>2026-04-04T14:52:00.001Z</time></trkpt><trkpt lat="41.168915898378934" lon="14.233265812454544"><ele>141.20000000000002</ele><time>2026-04-04T14:52:01.001Z</time></trkpt><trkpt lat="41.16884469929222" lon="14.233185371836322"><ele>139.6</ele><time>2026-04-04T14:52:02.001Z</time></trkpt><trkpt lat="41.16876292880161" lon="14.233112984297922"><ele>138.0</ele><time>2026-04-04T14:52:03.001Z</time></trkpt><trkpt lat="41.1686896310028" lon="14.233031723425212"><ele>138.0</ele><time>2026-04-04T14:52:04.001Z</time></trkpt><trkpt lat="41.168606951350014" lon="14.232978272972334"><ele>138.0</ele><time>2026-04-04T14:52:05.001Z</time></trkpt><trkpt lat="41.168531759138574" lon="14.232913547733428"><ele>138.0</ele><time>2026-04-04T14:52:06.001Z</time></trkpt><trkpt lat="41.16845861405843" lon="14.232853352703124"><ele>138.0</ele><time>2026-04-04T14:52:07.001Z</time></trkpt><trkpt lat="41.16838808622008" lon="14.232790151326622"><ele>138.0</ele><time>2026-04-04T14:52:08.001Z</time></trkpt><trkpt lat="41.16830938051328" lon="14.232726612631593"><ele>138.0</ele><time>2026-04-04T14:52:09.001Z</time></trkpt><trkpt lat="41.16822449378518" lon="14.232686622839612"><ele>135.4</ele><time>2026-04-04T14:52:10.001Z</time></trkpt><trkpt lat="41.16813161160511" lon="14.232658942467541"><ele>132.8</ele><time>2026-04-04T14:52:11.001Z</time></trkpt><trkpt lat="41.168030690319796" lon="14.232641558831016"><ele>130.2</ele><time>2026-04-04T14:52:12.001Z</time></trkpt><trkpt lat="41.167925504896175" lon="14.232626195653099"><ele>127.6</ele><time>2026-04-04T14:52:13.001Z</time></trkpt><trkpt lat="41.167829397620295" lon="14.232621048448353"><ele>125.0</ele><time>2026-04-04T14:52:14.001Z</time></trkpt><trkpt lat="41.167732570375875" lon="14.232605712544391"><ele>125.0</ele><time>2026-04-04T14:52:15.001Z</time></trkpt><trkpt lat="41.16763780318565" lon="14.232592865127131"><ele>125.0</ele><time>2026-04-04T14:52:16.001Z</time></trkpt><trkpt lat="41.16754008328835" lon="14.232576334318289"><ele>125.0</ele><time>2026-04-04T14:52:17.001Z</time></trkpt><trkpt lat="41.167451654280015" lon="14.232559977139472"><ele>125.0</ele><time>2026-04-04T14:52:18.001Z</time></trkpt><trkpt lat="41.16736530507308" lon="14.23253743746043"><ele>125.0</ele><time>2026-04-04T14:52:19.001Z</time></trkpt><trkpt lat="41.16728016422464" lon="14.232508637633417"><ele>124.8</ele><time>2026-04-04T14:52:20.001Z</time></trkpt><trkpt lat="41.16719848659941" lon="14.232474637176907"><ele>124.6</ele><time>2026-04-04T14:52:21.001Z</time></trkpt><trkpt lat="41.16711106606941" lon="14.23243767745023"><ele>124.4</ele><time>2026-04-04T14:52:22.001Z</time></trkpt><trkpt lat="41.1670212118817" lon="14.232389435815781"><ele>124.2</ele><time>2026-04-04T14:52:23.001Z</time></trkpt><trkpt lat="41.16693358360652" lon="14.232342234883335"><ele>124.0</ele><time>2026-04-04T14:52:24.001Z</time></trkpt><trkpt lat="41.16684695390424" lon="14.232294816232441"><ele>124.0</ele><time>2026-04-04T14:52:25.001Z</time></trkpt><trkpt lat="41.166760685990205" lon="14.232251917784396"><ele>124.0</ele><time>2026-04-04T14:52:26.001Z</time></trkpt><trkpt lat="41.166674444592466" lon="14.23220901557082"><ele>124.0</ele><time>2026-04-04T14:52:27.001Z</time></trkpt><trkpt lat="41.16658590801734" lon="14.232167783557669"><ele>124.0</ele><time>2026-04-04T14:52:28.001Z</time></trkpt><trkpt lat="41.166496118946924" lon="14.232123319924108"><ele>124.0</ele><time>2026-04-04T14:52:29.001Z</time></trkpt><trkpt lat="41.16640995820732" lon="14.232078380815244"><ele>119.83333333333334</ele><time>2026-04-04T14:52:30.001Z</time></trkpt><trkpt lat="41.16633381765038" lon="14.232032633807027"><ele>115.66666666666667</ele><time>2026-04-04T14:52:31.001Z</time></trkpt><trkpt lat="41.16627048668344" lon="14.231988621414674"><ele>111.5</ele><time>2026-04-04T14:52:32.001Z</time></trkpt><trkpt lat="41.166200843018565" lon="14.23195332468184"><ele>107.33333333333334</ele><time>2026-04-04T14:52:33.001Z</time></trkpt><trkpt lat="41.16612322017968" lon="14.23191729153016"><ele>103.16666666666667</ele><time>2026-04-04T14:52:35.001Z</time></trkpt><trkpt lat="41.16606487049798" lon="14.232065645726275"><ele>99.0</ele><time>2026-04-04T14:52:36.001Z</time></trkpt><trkpt lat="41.16602961754165" lon="14.232144864412996"><ele>99.0</ele><time>2026-04-04T14:52:37.001Z</time></trkpt><trkpt lat="41.16600397061334" lon="14.232247800532543"><ele>99.0</ele><time>2026-04-04T14:52:38.001Z</time></trkpt><trkpt lat="41.165969530093015" lon="14.232350914951558"><ele>99.0</ele><time>2026-04-04T14:52:39.001Z</time></trkpt><trkpt lat="41.16593548101958" lon="14.232457886952835"><ele>99.0</ele><time>2026-04-04T14:52:40.001Z</time></trkpt><trkpt lat="41.16590912389195" lon="14.232551339192108"><ele>99.0</ele><time>2026-04-04T14:52:41.001Z</time></trkpt><trkpt lat="41.165914508521084" lon="14.23263936211241"><ele>99.0</ele><time>2026-04-04T14:52:42.001Z</time></trkpt><trkpt lat="41.16592723749188" lon="14.232790565401908"><ele>98.4</ele><time>2026-04-04T14:52:44.001Z</time></trkpt><trkpt lat="41.165879035695056" lon="14.232917164530514"><ele>97.80000000000001</ele><time>2026-04-04T14:52:46.001Z</time></trkpt><trkpt lat="41.165789492686784" lon="14.232935177759162"><ele>97.19999999999999</ele><time>2026-04-04T14:52:47.001Z</time></trkpt><trkpt lat="41.165716426792926" lon="14.232959465245168"><ele>96.6</ele><time>2026-04-04T14:52:48.001Z</time></trkpt><trkpt lat="41.165627193765694" lon="14.23299429777071"><ele>96.0</ele><time>2026-04-04T14:52:49.001Z</time></trkpt><trkpt lat="41.165537515912646" lon="14.233040173117397"><ele>94.4</ele><time>2026-04-04T14:52:50.001Z</time></trkpt><trkpt lat="41.16545583611155" lon="14.233060532991518"><ele>92.8</ele><time>2026-04-04T14:52:51.001Z</time></trkpt><trkpt lat="41.165367178519766" lon="14.233094480496044"><ele>91.2</ele><time>2026-04-04T14:52:52.001Z</time></trkpt><trkpt lat="41.16527776135487" lon="14.233131208584382"><ele>89.60000000000001</ele><time>2026-04-04T14:52:53.001Z</time></trkpt><trkpt lat="41.16519521518925" lon="14.233162234762323"><ele>88.0</ele><time>2026-04-04T14:52:54.001Z</time></trkpt><trkpt lat="41.16509017209535" lon="14.233196804968127"><ele>88.0</ele><time>2026-04-04T14:52:55.001Z</time></trkpt><trkpt lat="41.164994802146424" lon="14.233238865521775"><ele>88.0</ele><time>2026-04-04T14:52:56.001Z</time></trkpt><trkpt lat="41.16490665923349" lon="14.233280965909945"><ele>88.0</ele><time>2026-04-04T14:52:57.001Z</time></trkpt><trkpt lat="41.16482197399718" lon="14.233317411654635"><ele>88.0</ele><time>2026-04-04T14:52:58.001Z</time></trkpt><trkpt lat="41.16473936401803" lon="14.23335935968199"><ele>88.0</ele><time>2026-04-04T14:52:59.001Z</time></trkpt><trkpt lat="41.164663369386176" lon="14.233392059416225"><ele>86.66666666666666</ele><time>2026-04-04T14:53:00.001Z</time></trkpt><trkpt lat="41.16458103148211" lon="14.233428041162108"><ele>85.33333333333333</ele><time>2026-04-04T14:53:01.001Z</time></trkpt><trkpt lat="41.164505906325324" lon="14.233470675390091"><ele>84.0</ele><time>2026-04-04T14:53:02.001Z</time></trkpt><trkpt lat="41.164439062279754" lon="14.233516430414607"><ele>82.66666666666667</ele><time>2026-04-04T14:53:03.001Z</time></trkpt><trkpt lat="41.16435802817341" lon="14.233557223545418"><ele>81.33333333333334</ele><time>2026-04-04T14:53:04.001Z</time></trkpt><trkpt lat="41.16428622216178" lon="14.233585521589887"><ele>80.0</ele><time>2026-04-04T14:53:05.001Z</time></trkpt><trkpt lat="41.1641914589382" lon="14.233616817852761"><ele>80.0</ele><time>2026-04-04T14:53:07.001Z</time></trkpt><trkpt lat="41.16412441139426" lon="14.233533121523063"><ele>80.0</ele><time>2026-04-04T14:53:11.002Z</time></trkpt><trkpt lat="41.16406682264318" lon="14.23345446859864"><ele>80.0</ele><time>2026-04-04T14:53:13.002Z</time></trkpt><trkpt lat="41.16404260167728" lon="14.233371108165992"><ele>80.0</ele><time>2026-04-04T14:53:15.002Z</time></trkpt><trkpt lat="41.16394841667785" lon="14.233298489711977"><ele>80.0</ele><time>2026-04-04T14:53:18.002Z</time></trkpt><trkpt lat="41.16384330555237" lon="14.233260270378707"><ele>80.2</ele><time>2026-04-04T14:53:20.002Z</time></trkpt><trkpt lat="41.16374478332479" lon="14.233219348064406"><ele>80.4</ele><time>2026-04-04T14:53:22.002Z</time></trkpt><trkpt lat="41.16363829405836" lon="14.233134854882973"><ele>80.6</ele><time>2026-04-04T14:53:24Z</time></trkpt><trkpt lat="41.16355292636003" lon="14.233110824869497"><ele>80.8</ele><time>2026-04-04T14:53:26Z</time></trkpt><trkpt lat="41.16348175700186" lon="14.233074321350003"><ele>81.0</ele><time>2026-04-04T14:53:28Z</time></trkpt><trkpt lat="41.1633999281978" lon="14.233006394060512"><ele>80.5</ele><time>2026-04-04T14:53:30Z</time></trkpt><trkpt lat="41.16331860848501" lon="14.232922569535669"><ele>80.0</ele><time>2026-04-04T14:53:32Z</time></trkpt><trkpt lat="41.16323049541897" lon="14.2328242010774"><ele>79.5</ele><time>2026-04-04T14:53:34Z</time></trkpt><trkpt lat="41.16313055079795" lon="14.232759057233014"><ele>79.0</ele><time>2026-04-04T14:53:36Z</time></trkpt><trkpt lat="41.16301190822385" lon="14.232710780605101"><ele>78.8</ele><time>2026-04-04T14:53:38Z</time></trkpt><trkpt lat="41.16289187623438" lon="14.232673897766"><ele>78.60000000000001</ele><time>2026-04-04T14:53:40Z</time></trkpt><trkpt lat="41.16279247769377" lon="14.23263125756277"><ele>78.4</ele><time>2026-04-04T14:53:42Z</time></trkpt><trkpt lat="41.16273038361941" lon="14.232590699591261"><ele>78.2</ele><time>2026-04-04T14:53:44Z</time></trkpt><trkpt lat="41.16265226388818" lon="14.232535584461404"><ele>78.0</ele><time>2026-04-04T14:53:46Z</time></trkpt><trkpt lat="41.162570254103365" lon="14.232477724750645"><ele>78.0</ele><time>2026-04-04T14:53:48Z</time></trkpt><trkpt lat="41.16246508346298" lon="14.232405733050191"><ele>78.0</ele><time>2026-04-04T14:53:50Z</time></trkpt><trkpt lat="41.16235446062947" lon="14.232331983261464"><ele>78.0</ele><time>2026-04-04T14:53:52Z</time></trkpt><trkpt lat="41.162294549000556" lon="14.232292358226724"><ele>78.0</ele><time>2026-04-04T14:53:53Z</time></trkpt><trkpt lat="41.16223580457184" lon="14.232253505152922"><ele>78.0</ele><time>2026-04-04T14:53:54Z</time></trkpt><trkpt lat="41.162165111527656" lon="14.2321986433151"><ele>77.33333333333333</ele><time>2026-04-04T14:53:55Z</time></trkpt><trkpt lat="41.16209339013432" lon="14.23215637159474"><ele>76.66666666666667</ele><time>2026-04-04T14:53:56Z</time></trkpt><trkpt lat="41.16203454568913" lon="14.232126435505547"><ele>76.0</ele><time>2026-04-04T14:53:57Z</time></trkpt><trkpt lat="41.161967187844716" lon="14.232088732125534"><ele>75.33333333333334</ele><time>2026-04-04T14:53:58Z</time></trkpt><trkpt lat="41.16184870273894" lon="14.232022062734984"><ele>74.66666666666667</ele><time>2026-04-04T14:54:00Z</time></trkpt><trkpt lat="41.16178033876833" lon="14.231995724387408"><ele>74.0</ele><time>2026-04-04T14:54:02Z</time></trkpt><trkpt lat="41.16169405282452" lon="14.231937872890482"><ele>74.0</ele><time>2026-04-04T14:54:04Z</time></trkpt><trkpt lat="41.16161644601376" lon="14.231883064073948"><ele>74.0</ele><time>2026-04-04T14:54:07Z</time></trkpt><trkpt lat="41.16153445024966" lon="14.23187874921792"><ele>74.0</ele><time>2026-04-04T14:54:10.001Z</time></trkpt><trkpt lat="41.16146167128122" lon="14.231870286288645"><ele>74.0</ele><time>2026-04-04T14:54:12.001Z</time></trkpt><trkpt lat="41.16135497928044" lon="14.231858441773399"><ele>74.0</ele><time>2026-04-04T14:54:14.001Z</time></trkpt><trkpt lat="41.161235550589545" lon="14.231845183279829"><ele>73.0</ele><time>2026-04-04T14:54:16.001Z</time></trkpt><trkpt lat="41.16117023422555" lon="14.231837932117022"><ele>72.0</ele><time>2026-04-04T14:54:17.001Z</time></trkpt><trkpt lat="41.16105053919068" lon="14.231827026267732"><ele>71.0</ele><time>2026-04-04T14:54:19.001Z</time></trkpt><trkpt lat="41.16098489718077" lon="14.231821088244113"><ele>70.0</ele><time>2026-04-04T14:54:20.001Z</time></trkpt><trkpt lat="41.16084843847289" lon="14.23180874408151"><ele>69.0</ele><time>2026-04-04T14:54:22.001Z</time></trkpt><trkpt lat="41.160782320832375" lon="14.231802763035251"><ele>68.5</ele><time>2026-04-04T14:54:23.001Z</time></trkpt><trkpt lat="41.16066093555332" lon="14.231791782433936"><ele>68.0</ele><time>2026-04-04T14:54:25.001Z</time></trkpt><trkpt lat="41.16058591128764" lon="14.231763013696867"><ele>67.5</ele><time>2026-04-04T14:54:26.001Z</time></trkpt><trkpt lat="41.16052279521777" lon="14.231773074818397"><ele>67.0</ele><time>2026-04-04T14:54:27.001Z</time></trkpt><trkpt lat="41.16045370722978" lon="14.231772433826558"><ele>66.5</ele><time>2026-04-04T14:54:28.001Z</time></trkpt><trkpt lat="41.16034523034695" lon="14.231775042200269"><ele>66.0</ele><time>2026-04-04T14:54:30.001Z</time></trkpt><trkpt lat="41.160228111416245" lon="14.231776729405263"><ele>66.0</ele><time>2026-04-04T14:54:32.001Z</time></trkpt><trkpt lat="41.1601208620028" lon="14.2317758545536"><ele>66.0</ele><time>2026-04-04T14:54:34.001Z</time></trkpt><trkpt lat="41.160011368414494" lon="14.23177229414748"><ele>66.0</ele><time>2026-04-04T14:54:36.001Z</time></trkpt><trkpt lat="41.15991244816677" lon="14.231761440264666"><ele>66.0</ele><time>2026-04-04T14:54:38.001Z</time></trkpt><trkpt lat="41.159794082151116" lon="14.231756373308865"><ele>66.0</ele><time>2026-04-04T14:54:40.001Z</time></trkpt><trkpt lat="41.15971896419988" lon="14.231727085080257"><ele>66.0</ele><time>2026-04-04T14:54:41.001Z</time></trkpt><trkpt lat="41.1596386584536" lon="14.231711820515702"><ele>66.0</ele><time>2026-04-04T14:54:42.001Z</time></trkpt><trkpt lat="41.1595599551108" lon="14.23170992171965"><ele>66.0</ele><time>2026-04-04T14:54:43.001Z</time></trkpt><trkpt lat="41.15946883544844" lon="14.231713984394526"><ele>66.0</ele><time>2026-04-04T14:54:44.001Z</time></trkpt><trkpt lat="41.15938285917838" lon="14.231677253604207"><ele>66.0</ele><time>2026-04-04T14:54:45.001Z</time></trkpt><trkpt lat="41.15931021874566" lon="14.231663054302079"><ele>66.0</ele><time>2026-04-04T14:54:46.001Z</time></trkpt><trkpt lat="41.15918940350299" lon="14.231668021293302"><ele>66.0</ele><time>2026-04-04T14:54:48.001Z</time></trkpt><trkpt lat="41.15911459862486" lon="14.231657919533724"><ele>66.0</ele><time>2026-04-04T14:54:49.001Z</time></trkpt><trkpt lat="41.15900305067988" lon="14.231645926015029"><ele>66.0</ele><time>2026-04-04T14:54:51.001Z</time></trkpt><trkpt lat="41.15888192176821" lon="14.231623095884162"><ele>66.0</ele><time>2026-04-04T14:54:53.001Z</time></trkpt><trkpt lat="41.15881286304874" lon="14.231616079664652"><ele>66.0</ele><time>2026-04-04T14:54:54.001Z</time></trkpt><trkpt lat="41.15874783809335" lon="14.231608848212957"><ele>66.0</ele><time>2026-04-04T14:54:55.001Z</time></trkpt><trkpt lat="41.158635665883196" lon="14.231613626757387"><ele>65.5</ele><time>2026-04-04T14:54:57.001Z</time></trkpt><trkpt lat="41.15854131677262" lon="14.231599984523085"><ele>65.0</ele><time>2026-04-04T14:54:59.001Z</time></trkpt><trkpt lat="41.15844044949828" lon="14.231590150603568"><ele>64.5</ele><time>2026-04-04T14:55:01.001Z</time></trkpt><trkpt lat="41.15837780981457" lon="14.231575248081434"><ele>64.0</ele><time>2026-04-04T14:55:02.001Z</time></trkpt><trkpt lat="41.158274017906905" lon="14.231581878157016"><ele>63.5</ele><time>2026-04-04T14:55:04.001Z</time></trkpt><trkpt lat="41.15820580048729" lon="14.231585444033032"><ele>63.0</ele><time>2026-04-04T14:55:06.001Z</time></trkpt><trkpt lat="41.158132876309566" lon="14.231601192065837"><ele>62.5</ele><time>2026-04-04T14:55:09.001Z</time></trkpt><trkpt lat="41.158058234091385" lon="14.231555988473614"><ele>62.0</ele><time>2026-04-04T14:55:15.001Z</time></trkpt><trkpt lat="41.15798302708391" lon="14.231562964863373"><ele>61.5</ele><time>2026-04-04T14:55:18.002Z</time></trkpt><trkpt lat="41.157915285240804" lon="14.231541758379203"><ele>61.0</ele><time>2026-04-04T14:55:21.002Z</time></trkpt><trkpt lat="41.15783355968514" lon="14.23152173590142"><ele>60.5</ele><time>2026-04-04T14:55:23.002Z</time></trkpt><trkpt lat="41.157717330551925" lon="14.231527080905298"><ele>60.0</ele><time>2026-04-04T14:55:25.002Z</time></trkpt><trkpt lat="41.15762349281666" lon="14.231513929810685"><ele>60.0</ele><time>2026-04-04T14:55:27.002Z</time></trkpt><trkpt lat="41.1575551036252" lon="14.231498547662236"><ele>60.0</ele><time>2026-04-04T14:55:29Z</time></trkpt><trkpt lat="41.157438357659274" lon="14.23146329689798"><ele>60.0</ele><time>2026-04-04T14:55:31Z</time></trkpt><trkpt lat="41.15738314977605" lon="14.231416417334957"><ele>60.0</ele><time>2026-04-04T14:55:32Z</time></trkpt><trkpt lat="41.157279227565326" lon="14.231362249171447"><ele>60.0</ele><time>2026-04-04T14:55:34Z</time></trkpt><trkpt lat="41.1572139363444" lon="14.231332656016466"><ele>60.0</ele><time>2026-04-04T14:55:35Z</time></trkpt><trkpt lat="41.15715023202528" lon="14.231297046977675"><ele>59.666666666666664</ele><time>2026-04-04T14:55:36Z</time></trkpt><trkpt lat="41.15708885480105" lon="14.231261554379767"><ele>59.33333333333333</ele><time>2026-04-04T14:55:37Z</time></trkpt><trkpt lat="41.15701935817135" lon="14.23122062663186"><ele>59.0</ele><time>2026-04-04T14:55:38Z</time></trkpt><trkpt lat="41.15694706118631" lon="14.231178035399122"><ele>58.666666666666664</ele><time>2026-04-04T14:55:39Z</time></trkpt><trkpt lat="41.15688319569323" lon="14.231163044009442"><ele>58.33333333333333</ele><time>2026-04-04T14:55:40Z</time></trkpt><trkpt lat="41.15678742514084" lon="14.231103771880411"><ele>58.0</ele><time>2026-04-04T14:55:42Z</time></trkpt><trkpt lat="41.15672208329199" lon="14.231073242442257"><ele>57.99999999999999</ele><time>2026-04-04T14:55:44Z</time></trkpt><trkpt lat="41.15664852624429" lon="14.231024571710341"><ele>58.0</ele><time>2026-04-04T14:55:55Z</time></trkpt><trkpt lat="41.156569623389935" lon="14.230989444832455"><ele>58.0</ele><time>2026-04-04T14:55:59Z</time></trkpt><trkpt lat="41.15650867517257" lon="14.23092029826353"><ele>58.0</ele><time>2026-04-04T14:56:01Z</time></trkpt><trkpt lat="41.156432416405345" lon="14.23095689871328"><ele>57.99999999999999</ele><time>2026-04-04T14:56:03Z</time></trkpt><trkpt lat="41.15634687973535" lon="14.231071277465533"><ele>58.0</ele><time>2026-04-04T14:56:05Z</time></trkpt><trkpt lat="41.15637433717138" lon="14.231188833480669"><ele>57.8</ele><time>2026-04-04T14:56:06Z</time></trkpt><trkpt lat="41.15630985176071" lon="14.23126848399481"><ele>57.599999999999994</ele><time>2026-04-04T14:56:07.001Z</time></trkpt><trkpt lat="41.15626530383837" lon="14.231380113406939"><ele>57.400000000000006</ele><time>2026-04-04T14:56:08.001Z</time></trkpt><trkpt lat="41.15620758366928" lon="14.231482460872458"><ele>57.2</ele><time>2026-04-04T14:56:09.001Z</time></trkpt><trkpt lat="41.156155052581134" lon="14.231602669467478"><ele>57.0</ele><time>2026-04-04T14:56:10.001Z</time></trkpt><trkpt lat="41.15609891817296" lon="14.231722382774286"><ele>57.0</ele><time>2026-04-04T14:56:11.001Z</time></trkpt><trkpt lat="41.15604196693503" lon="14.231852970854325"><ele>57.0</ele><time>2026-04-04T14:56:12.001Z</time></trkpt><trkpt lat="41.155974965500526" lon="14.23198582647487"><ele>57.0</ele><time>2026-04-04T14:56:13.001Z</time></trkpt><trkpt lat="41.1559035852554" lon="14.232112517053366"><ele>57.0</ele><time>2026-04-04T14:56:14.001Z</time></trkpt><trkpt lat="41.15583478197176" lon="14.232253019118408"><ele>57.0</ele><time>2026-04-04T14:56:15.001Z</time></trkpt><trkpt lat="41.155768684209036" lon="14.232408803234511"><ele>57.0</ele><time>2026-04-04T14:56:16.001Z</time></trkpt><trkpt lat="41.155692406971916" lon="14.232561796718931"><ele>57.0</ele><time>2026-04-04T14:56:17.001Z</time></trkpt><trkpt lat="41.1556277396204" lon="14.232724054185526"><ele>57.0</ele><time>2026-04-04T14:56:18.001Z</time></trkpt><trkpt lat="41.155567558322424" lon="14.232897118455513"><ele>56.66666666666667</ele><time>2026-04-04T14:56:19.001Z</time></trkpt><trkpt lat="41.15549757242823" lon="14.233078365264534"><ele>56.333333333333336</ele><time>2026-04-04T14:56:20.001Z</time></trkpt><trkpt lat="41.15542296694821" lon="14.233269404409887"><ele>56.0</ele><time>2026-04-04T14:56:21.001Z</time></trkpt><trkpt lat="41.15535247287568" lon="14.233473446473559"><ele>56.0</ele><time>2026-04-04T14:56:22.001Z</time></trkpt><trkpt lat="41.15527509294817" lon="14.233668862516781"><ele>56.0</ele><time>2026-04-04T14:56:23.001Z</time></trkpt><trkpt lat="41.15520141703451" lon="14.233854536998665"><ele>56.0</ele><time>2026-04-04T14:56:24.001Z</time></trkpt><trkpt lat="41.15513405880687" lon="14.234043651342983"><ele>56.0</ele><time>2026-04-04T14:56:25.001Z</time></trkpt><trkpt lat="41.155057771312705" lon="14.234227902136663"><ele>56.0</ele><time>2026-04-04T14:56:26.001Z</time></trkpt><trkpt lat="41.154982372704524" lon="14.234403235637702"><ele>56.0</ele><time>2026-04-04T14:56:27.001Z</time></trkpt><trkpt lat="41.154887598839316" lon="14.234563669322663"><ele>55.66666666666667</ele><time>2026-04-04T14:56:28.001Z</time></trkpt><trkpt lat="41.154779544025004" lon="14.234708922978292"><ele>55.33333333333333</ele><time>2026-04-04T14:56:29.001Z</time></trkpt><trkpt lat="41.15466635305714" lon="14.234860340618336"><ele>55.0</ele><time>2026-04-04T14:56:30.001Z</time></trkpt><trkpt lat="41.154553414393476" lon="14.235026342943355"><ele>55.0</ele><time>2026-04-04T14:56:31.001Z</time></trkpt><trkpt lat="41.15444242274584" lon="14.235199184085044"><ele>55.0</ele><time>2026-04-04T14:56:32.001Z</time></trkpt><trkpt lat="41.15432555209956" lon="14.235370711234625"><ele>55.0</ele><time>2026-04-04T14:56:33.001Z</time></trkpt><trkpt lat="41.15420536137394" lon="14.235546493212686"><ele>54.33333333333333</ele><time>2026-04-04T14:56:34.001Z</time></trkpt><trkpt lat="41.154083269580326" lon="14.23571798439379"><ele>53.66666666666667</ele><time>2026-04-04T14:56:35.001Z</time></trkpt><trkpt lat="41.153958831610886" lon="14.235892513819364"><ele>53.0</ele><time>2026-04-04T14:56:36.001Z</time></trkpt><trkpt lat="41.15382583141297" lon="14.236067694347735"><ele>53.0</ele><time>2026-04-04T14:56:37.001Z</time></trkpt><trkpt lat="41.153691156341345" lon="14.236235781976731"><ele>53.0</ele><time>2026-04-04T14:56:38.001Z</time></trkpt><trkpt lat="41.15356092109205" lon="14.236416288703623"><ele>53.0</ele><time>2026-04-04T14:56:39.001Z</time></trkpt><trkpt lat="41.15342811863433" lon="14.23659238369252"><ele>52.333333333333336</ele><time>2026-04-04T14:56:40.001Z</time></trkpt><trkpt lat="41.15330241815203" lon="14.236766886753975"><ele>51.66666666666667</ele><time>2026-04-04T14:56:41.001Z</time></trkpt><trkpt lat="41.153180373052585" lon="14.236934827344415"><ele>51.0</ele><time>2026-04-04T14:56:42.001Z</time></trkpt><trkpt lat="41.15306038110239" lon="14.237097621490888"><ele>50.66666666666667</ele><time>2026-04-04T14:56:43.001Z</time></trkpt><trkpt lat="41.152941873935355" lon="14.237255759254927"><ele>50.333333333333336</ele><time>2026-04-04T14:56:44.001Z</time></trkpt><trkpt lat="41.152828726907195" lon="14.237412734173137"><ele>50.0</ele><time>2026-04-04T14:56:45.001Z</time></trkpt><trkpt lat="41.15271839325954" lon="14.237564990790641"><ele>50.0</ele><time>2026-04-04T14:56:46.001Z</time></trkpt><trkpt lat="41.152610727261106" lon="14.23771354001707"><ele>50.0</ele><time>2026-04-04T14:56:47.001Z</time></trkpt><trkpt lat="41.15250489626649" lon="14.237857773078577"><ele>50.0</ele><time>2026-04-04T14:56:48.001Z</time></trkpt><trkpt lat="41.152400045536744" lon="14.237999256820148"><ele>49.66666666666667</ele><time>2026-04-04T14:56:49.001Z</time></trkpt><trkpt lat="41.152298224218335" lon="14.238138631496238"><ele>49.33333333333333</ele><time>2026-04-04T14:56:50.001Z</time></trkpt><trkpt lat="41.15219152138468" lon="14.238286843699562"><ele>49.0</ele><time>2026-04-04T14:56:51.001Z</time></trkpt><trkpt lat="41.15207764907586" lon="14.238448968650877"><ele>49.0</ele><time>2026-04-04T14:56:52.001Z</time></trkpt><trkpt lat="41.15196448437203" lon="14.238637781467624"><ele>49.0</ele><time>2026-04-04T14:56:53.001Z</time></trkpt><trkpt lat="41.151834081331565" lon="14.238820584966708"><ele>49.0</ele><time>2026-04-04T14:56:54.001Z</time></trkpt><trkpt lat="41.15170495204912" lon="14.239024015557982"><ele>48.666666666666664</ele><time>2026-04-04T14:56:55.001Z</time></trkpt><trkpt lat="41.15156915777053" lon="14.239211984952469"><ele>48.33333333333333</ele><time>2026-04-04T14:56:56.001Z</time></trkpt><trkpt lat="41.15143133262759" lon="14.239390131930138"><ele>48.0</ele><time>2026-04-04T14:56:57.001Z</time></trkpt><trkpt lat="41.15131232068762" lon="14.23955898576019"><ele>48.0</ele><time>2026-04-04T14:56:58.001Z</time></trkpt><trkpt lat="41.15117863087845" lon="14.239745217990933"><ele>48.0</ele><time>2026-04-04T14:56:59.001Z</time></trkpt><trkpt lat="41.151041092009805" lon="14.239931326940576"><ele>48.0</ele><time>2026-04-04T14:57:00.001Z</time></trkpt><trkpt lat="41.15089946843463" lon="14.24012225370885"><ele>47.666666666666664</ele><time>2026-04-04T14:57:01.001Z</time></trkpt><trkpt lat="41.15075470469834" lon="14.240319585263645"><ele>47.33333333333333</ele><time>2026-04-04T14:57:02.001Z</time></trkpt><trkpt lat="41.15061213967112" lon="14.240522002374336"><ele>47.0</ele><time>2026-04-04T14:57:03.001Z</time></trkpt><trkpt lat="41.15046621154265" lon="14.240725424342756"><ele>46.666666666666664</ele><time>2026-04-04T14:57:04.001Z</time></trkpt><trkpt lat="41.150315945853315" lon="14.240912153592372"><ele>46.333333333333336</ele><time>2026-04-04T14:57:05.001Z</time></trkpt><trkpt lat="41.15017192757279" lon="14.241098822315625"><ele>46.0</ele><time>2026-04-04T14:57:06.001Z</time></trkpt><trkpt lat="41.15003970406835" lon="14.241277167259108"><ele>46.0</ele><time>2026-04-04T14:57:07.001Z</time></trkpt><trkpt lat="41.14991431446872" lon="14.241447179192175"><ele>46.0</ele><time>2026-04-04T14:57:08.001Z</time></trkpt><trkpt lat="41.14979949098697" lon="14.241615531807305"><ele>46.0</ele><time>2026-04-04T14:57:09.001Z</time></trkpt><trkpt lat="41.149696300051815" lon="14.241773951833654"><ele>46.333333333333336</ele><time>2026-04-04T14:57:10.001Z</time></trkpt><trkpt lat="41.14959679243937" lon="14.241935554847062"><ele>46.666666666666664</ele><time>2026-04-04T14:57:11.001Z</time></trkpt><trkpt lat="41.1494965439701" lon="14.242085796069368"><ele>47.0</ele><time>2026-04-04T14:57:12.001Z</time></trkpt><trkpt lat="41.149402908188506" lon="14.242233685169287"><ele>46.666666666666664</ele><time>2026-04-04T14:57:13.001Z</time></trkpt><trkpt lat="41.14931197261874" lon="14.2423855021201"><ele>46.333333333333336</ele><time>2026-04-04T14:57:14.001Z</time></trkpt><trkpt lat="41.14922229720679" lon="14.242553772086158"><ele>46.0</ele><time>2026-04-04T14:57:15.001Z</time></trkpt><trkpt lat="41.14912532956481" lon="14.24275148235717"><ele>45.333333333333336</ele><time>2026-04-04T14:57:16.002Z</time></trkpt><trkpt lat="41.14901166857705" lon="14.242942287974461"><ele>44.666666666666664</ele><time>2026-04-04T14:57:17.002Z</time></trkpt><trkpt lat="41.14890989545278" lon="14.243111530294508"><ele>44.0</ele><time>2026-04-04T14:57:18.002Z</time></trkpt><trkpt lat="41.14880858437609" lon="14.24327781211499"><ele>43.666666666666664</ele><time>2026-04-04T14:57:19.002Z</time></trkpt><trkpt lat="41.14871488182169" lon="14.243427261610353"><ele>43.333333333333336</ele><time>2026-04-04T14:57:20.002Z</time></trkpt><trkpt lat="41.14861912391943" lon="14.243586099295337"><ele>43.0</ele><time>2026-04-04T14:57:21.002Z</time></trkpt><trkpt lat="41.14851222759739" lon="14.243768000051569"><ele>43.0</ele><time>2026-04-04T14:57:22.002Z</time></trkpt><trkpt lat="41.14838887398956" lon="14.24395077264639"><ele>43.0</ele><time>2026-04-04T14:57:23.002Z</time></trkpt><trkpt lat="41.14825779341247" lon="14.244131737932141"><ele>43.0</ele><time>2026-04-04T14:57:24.002Z</time></trkpt><trkpt lat="41.148124378511795" lon="14.244315225529894"><ele>43.0</ele><time>2026-04-04T14:57:25.002Z</time></trkpt><trkpt lat="41.14799754856515" lon="14.244503309986122"><ele>43.0</ele><time>2026-04-04T14:57:26.002Z</time></trkpt><trkpt lat="41.1478663264583" lon="14.244686107979879"><ele>43.0</ele><time>2026-04-04T14:57:27.002Z</time></trkpt><trkpt lat="41.147719496237144" lon="14.24485892700421"><ele>43.333333333333336</ele><time>2026-04-04T14:57:28.002Z</time></trkpt><trkpt lat="41.14755894485493" lon="14.245032921978224"><ele>43.666666666666664</ele><time>2026-04-04T14:57:29.002Z</time></trkpt><trkpt lat="41.14739466983465" lon="14.245199037441859"><ele>44.0</ele><time>2026-04-04T14:57:30.002Z</time></trkpt><trkpt lat="41.14722098112723" lon="14.245358473012793"><ele>44.0</ele><time>2026-04-04T14:57:31.002Z</time></trkpt><trkpt lat="41.14703725820275" lon="14.245503841385075"><ele>44.0</ele><time>2026-04-04T14:57:32.002Z</time></trkpt><trkpt lat="41.146845014287614" lon="14.245647895116774"><ele>44.0</ele><time>2026-04-04T14:57:33.002Z</time></trkpt><trkpt lat="41.14664492736576" lon="14.245782332686362"><ele>43.5</ele><time>2026-04-04T14:57:34.002Z</time></trkpt><trkpt lat="41.146443344209054" lon="14.245912318036776"><ele>43.0</ele><time>2026-04-04T14:57:35Z</time></trkpt><trkpt lat="41.146239886461586" lon="14.246041992255492"><ele>43.0</ele><time>2026-04-04T14:57:36Z</time></trkpt><trkpt lat="41.14603804219977" lon="14.246167424645755"><ele>43.0</ele><time>2026-04-04T14:57:37Z</time></trkpt><trkpt lat="41.145831132544366" lon="14.246290180933034"><ele>43.0</ele><time>2026-04-04T14:57:38Z</time></trkpt><trkpt lat="41.14561425889346" lon="14.246409035775658"><ele>42.0</ele><time>2026-04-04T14:57:39Z</time></trkpt><trkpt lat="41.1453958547687" lon="14.246535122838413"><ele>41.0</ele><time>2026-04-04T14:57:40Z</time></trkpt><trkpt lat="41.14518414533495" lon="14.246667340489866"><ele>41.0</ele><time>2026-04-04T14:57:41Z</time></trkpt><trkpt lat="41.144961481261355" lon="14.24680218211494"><ele>41.0</ele><time>2026-04-04T14:57:42Z</time></trkpt><trkpt lat="41.14474079028772" lon="14.246941034662234"><ele>41.5</ele><time>2026-04-04T14:57:43Z</time></trkpt><trkpt lat="41.144524569864934" lon="14.247073615592825"><ele>42.0</ele><time>2026-04-04T14:57:44Z</time></trkpt><trkpt lat="41.14431332943587" lon="14.247194888647376"><ele>42.0</ele><time>2026-04-04T14:57:45Z</time></trkpt><trkpt lat="41.14410490008582" lon="14.24731026018871"><ele>42.0</ele><time>2026-04-04T14:57:46Z</time></trkpt><trkpt lat="41.1438922064832" lon="14.247418465962298"><ele>42.0</ele><time>2026-04-04T14:57:47Z</time></trkpt><trkpt lat="41.143676834001404" lon="14.24752966281935"><ele>42.0</ele><time>2026-04-04T14:57:48Z</time></trkpt><trkpt lat="41.143459606953094" lon="14.247637630177428"><ele>42.0</ele><time>2026-04-04T14:57:49Z</time></trkpt><trkpt lat="41.143246596860145" lon="14.2477531052689"><ele>42.0</ele><time>2026-04-04T14:57:50Z</time></trkpt><trkpt lat="41.14302921245763" lon="14.2478674060052"><ele>41.0</ele><time>2026-04-04T14:57:51Z</time></trkpt><trkpt lat="41.14281465668146" lon="14.247981904691342"><ele>40.0</ele><time>2026-04-04T14:57:52Z</time></trkpt><trkpt lat="41.14259744365638" lon="14.248097442155407"><ele>41.0</ele><time>2026-04-04T14:57:53Z</time></trkpt><trkpt lat="41.14237946611301" lon="14.248214384372597"><ele>42.0</ele><time>2026-04-04T14:57:54Z</time></trkpt><trkpt lat="41.142165713515936" lon="14.248333117985412"><ele>42.0</ele><time>2026-04-04T14:57:55Z</time></trkpt><trkpt lat="41.1419473183866" lon="14.248445577647757"><ele>42.0</ele><time>2026-04-04T14:57:56Z</time></trkpt><trkpt lat="41.14172657195016" lon="14.24856085094481"><ele>41.666666666666664</ele><time>2026-04-04T14:57:57Z</time></trkpt><trkpt lat="41.141512072535164" lon="14.248675379186539"><ele>41.33333333333333</ele><time>2026-04-04T14:57:58Z</time></trkpt><trkpt lat="41.141310879083925" lon="14.24878261539477"><ele>41.0</ele><time>2026-04-04T14:57:59Z</time></trkpt><trkpt lat="41.14112547761736" lon="14.248883782977583"><ele>41.33333333333333</ele><time>2026-04-04T14:58:00Z</time></trkpt><trkpt lat="41.14094273160122" lon="14.248981021209717"><ele>41.666666666666664</ele><time>2026-04-04T14:58:01Z</time></trkpt><trkpt lat="41.14076772293975" lon="14.249072521755917"><ele>42.0</ele><time>2026-04-04T14:58:02Z</time></trkpt><trkpt lat="41.140607615707204" lon="14.24916284629826"><ele>42.0</ele><time>2026-04-04T14:58:03Z</time></trkpt><trkpt lat="41.14046031634933" lon="14.249261202498996"><ele>42.0</ele><time>2026-04-04T14:58:04Z</time></trkpt><trkpt lat="41.14032626402679" lon="14.249380786572916"><ele>42.0</ele><time>2026-04-04T14:58:05Z</time></trkpt><trkpt lat="41.14019687461339" lon="14.249528314716484"><ele>42.0</ele><time>2026-04-04T14:58:06Z</time></trkpt><trkpt lat="41.14007225879006" lon="14.249688830451603"><ele>42.0</ele><time>2026-04-04T14:58:07Z</time></trkpt><trkpt lat="41.139951033772576" lon="14.249846166497028"><ele>42.0</ele><time>2026-04-04T14:58:08Z</time></trkpt><trkpt lat="41.13982677943304" lon="14.249973082858672"><ele>43.333333333333336</ele><time>2026-04-04T14:58:09Z</time></trkpt><trkpt lat="41.13969159124978" lon="14.25007490716014"><ele>44.66666666666667</ele><time>2026-04-04T14:58:10Z</time></trkpt><trkpt lat="41.13955152971242" lon="14.250162048906393"><ele>46.0</ele><time>2026-04-04T14:58:11Z</time></trkpt><trkpt lat="41.13941346701519" lon="14.250231944646428"><ele>46.0</ele><time>2026-04-04T14:58:12Z</time></trkpt><trkpt lat="41.139288345900226" lon="14.250284712578937"><ele>46.0</ele><time>2026-04-04T14:58:13Z</time></trkpt><trkpt lat="41.139160405230704" lon="14.250331448158512"><ele>46.0</ele><time>2026-04-04T14:58:14Z</time></trkpt><trkpt lat="41.1390176428458" lon="14.250359972576423"><ele>46.0</ele><time>2026-04-04T14:58:15Z</time></trkpt><trkpt lat="41.13886521244833" lon="14.250370917728754"><ele>46.0</ele><time>2026-04-04T14:58:16Z</time></trkpt><trkpt lat="41.13871455125788" lon="14.250370087932172"><ele>46.0</ele><time>2026-04-04T14:58:17Z</time></trkpt><trkpt lat="41.13858487206709" lon="14.250372388924506"><ele>46.0</ele><time>2026-04-04T14:58:18Z</time></trkpt><trkpt lat="41.13846107823055" lon="14.250379529172847"><ele>46.0</ele><time>2026-04-04T14:58:19Z</time></trkpt><trkpt lat="41.13833243768782" lon="14.25040412299033"><ele>46.0</ele><time>2026-04-04T14:58:20.001Z</time></trkpt><trkpt lat="41.13819751421023" lon="14.25045288990743"><ele>46.0</ele><time>2026-04-04T14:58:21.001Z</time></trkpt><trkpt lat="41.138054349805074" lon="14.250526080812422"><ele>46.0</ele><time>2026-04-04T14:58:22.001Z</time></trkpt><trkpt lat="41.13789362584546" lon="14.25062637133102"><ele>47.0</ele><time>2026-04-04T14:58:23.001Z</time></trkpt><trkpt lat="41.137736064321444" lon="14.250740574740584"><ele>48.0</ele><time>2026-04-04T14:58:24.001Z</time></trkpt><trkpt lat="41.13759144288501" lon="14.250844717801039"><ele>49.0</ele><time>2026-04-04T14:58:25.001Z</time></trkpt><trkpt lat="41.13744800449639" lon="14.250937330664193"><ele>47.75</ele><time>2026-04-04T14:58:26.001Z</time></trkpt><trkpt lat="41.13731816812513" lon="14.25102827832314"><ele>46.5</ele><time>2026-04-04T14:58:27.001Z</time></trkpt><trkpt lat="41.137212073429545" lon="14.251121149281605"><ele>45.25</ele><time>2026-04-04T14:58:28.001Z</time></trkpt><trkpt lat="41.137123660655185" lon="14.25122322916156"><ele>44.0</ele><time>2026-04-04T14:58:29.001Z</time></trkpt><trkpt lat="41.137033120892" lon="14.251349904138136"><ele>44.25</ele><time>2026-04-04T14:58:30.001Z</time></trkpt><trkpt lat="41.136994928069576" lon="14.251492895668635"><ele>44.5</ele><time>2026-04-04T14:58:31.001Z</time></trkpt><trkpt lat="41.13695717224679" lon="14.251659216962475"><ele>44.75</ele><time>2026-04-04T14:58:32.001Z</time></trkpt><trkpt lat="41.13692929343314" lon="14.251824742386734"><ele>45.0</ele><time>2026-04-04T14:58:33.001Z</time></trkpt><trkpt lat="41.13690534724282" lon="14.252003330915933"><ele>45.0</ele><time>2026-04-04T14:58:34.001Z</time></trkpt><trkpt lat="41.136935635698926" lon="14.252184679857658"><ele>45.0</ele><time>2026-04-04T14:58:35.001Z</time></trkpt><trkpt lat="41.13696647558335" lon="14.25236987211039"><ele>45.0</ele><time>2026-04-04T14:58:36.001Z</time></trkpt><trkpt lat="41.137011641302074" lon="14.25253658996318"><ele>45.0</ele><time>2026-04-04T14:58:37.001Z</time></trkpt><trkpt lat="41.13703836785653" lon="14.252676330736307"><ele>43.833333333333336</ele><time>2026-04-04T14:58:38.001Z</time></trkpt><trkpt lat="41.137061084752794" lon="14.252796658573665"><ele>42.666666666666664</ele><time>2026-04-04T14:58:39.001Z</time></trkpt><trkpt lat="41.137068385075324" lon="14.252900031682504"><ele>41.5</ele><time>2026-04-04T14:58:40.001Z</time></trkpt><trkpt lat="41.137066167832955" lon="14.253010723041182"><ele>40.33333333333333</ele><time>2026-04-04T14:58:42.001Z</time></trkpt><trkpt lat="41.13705223127936" lon="14.253145835377241"><ele>39.166666666666664</ele><time>2026-04-04T14:58:45.001Z</time></trkpt><trkpt lat="41.13703861003494" lon="14.253239156167416"><ele>38.0</ele><time>2026-04-04T14:58:46.001Z</time></trkpt><trkpt lat="41.13707795625321" lon="14.253346379537405"><ele>36.4</ele><time>2026-04-04T14:58:47.001Z</time></trkpt><trkpt lat="41.13709420381765" lon="14.253488130940157"><ele>34.8</ele><time>2026-04-04T14:58:48.001Z</time></trkpt><trkpt lat="41.13709158203058" lon="14.253644664408315"><ele>33.2</ele><time>2026-04-04T14:58:49.001Z</time></trkpt><trkpt lat="41.137063462369156" lon="14.253792048414395"><ele>31.6</ele><time>2026-04-04T14:58:50.001Z</time></trkpt><trkpt lat="41.13701202926574" lon="14.253913598597498"><ele>30.0</ele><time>2026-04-04T14:58:51.001Z</time></trkpt><trkpt lat="41.136945574430015" lon="14.254035652347364"><ele>30.0</ele><time>2026-04-04T14:58:52.001Z</time></trkpt><trkpt lat="41.13686752024035" lon="14.254157223210148"><ele>30.0</ele><time>2026-04-04T14:58:53.001Z</time></trkpt><trkpt lat="41.13677183723258" lon="14.254270780180942"><ele>30.0</ele><time>2026-04-04T14:58:54.001Z</time></trkpt><trkpt lat="41.13666986174536" lon="14.25435301264516"><ele>30.0</ele><time>2026-04-04T14:58:55.001Z</time></trkpt><trkpt lat="41.136579071570154" lon="14.254433751578054"><ele>29.8</ele><time>2026-04-04T14:58:56.001Z</time></trkpt><trkpt lat="41.13650077533738" lon="14.254512997472053"><ele>29.6</ele><time>2026-04-04T14:58:57.001Z</time></trkpt><trkpt lat="41.136417631873925" lon="14.254601120059142"><ele>29.4</ele><time>2026-04-04T14:58:58.001Z</time></trkpt><trkpt lat="41.13633337612387" lon="14.254686187569115"><ele>29.2</ele><time>2026-04-04T14:58:59.001Z</time></trkpt><trkpt lat="41.136254763580354" lon="14.254776339954091"><ele>29.0</ele><time>2026-04-04T14:59:00.001Z</time></trkpt><trkpt lat="41.13618937335773" lon="14.254859544478505"><ele>28.999999999999996</ele><time>2026-04-04T14:59:01.001Z</time></trkpt><trkpt lat="41.13611998061226" lon="14.2549228428791"><ele>29.0</ele><time>2026-04-04T14:59:02.001Z</time></trkpt><trkpt lat="41.13604944941955" lon="14.254987120460159"><ele>29.0</ele><time>2026-04-04T14:59:03.001Z</time></trkpt><trkpt lat="41.13597711719828" lon="14.255058953836995"><ele>29.0</ele><time>2026-04-04T14:59:04.001Z</time></trkpt><trkpt lat="41.135907064245515" lon="14.25512871172684"><ele>28.999999999999996</ele><time>2026-04-04T14:59:05.001Z</time></trkpt><trkpt lat="41.13584214475451" lon="14.255200090801663"><ele>29.0</ele><time>2026-04-04T14:59:06.001Z</time></trkpt><trkpt lat="41.135773274758904" lon="14.25527664524649"><ele>29.2</ele><time>2026-04-04T14:59:07.001Z</time></trkpt><trkpt lat="41.135700626606265" lon="14.255354644056375"><ele>29.4</ele><time>2026-04-04T14:59:08.001Z</time></trkpt><trkpt lat="41.13562965406989" lon="14.255428023856878"><ele>29.6</ele><time>2026-04-04T14:59:09.001Z</time></trkpt><trkpt lat="41.13555413928122" lon="14.255509588613448"><ele>29.8</ele><time>2026-04-04T14:59:10.001Z</time></trkpt><trkpt lat="41.13547797004565" lon="14.25559093359426"><ele>30.0</ele><time>2026-04-04T14:59:11.001Z</time></trkpt><trkpt lat="41.13539042974992" lon="14.25569051783203"><ele>30.5</ele><time>2026-04-04T14:59:12.001Z</time></trkpt><trkpt lat="41.13529208505805" lon="14.25580844997673"><ele>31.0</ele><time>2026-04-04T14:59:13.001Z</time></trkpt><trkpt lat="41.135186941196494" lon="14.255926441736817"><ele>31.5</ele><time>2026-04-04T14:59:14.001Z</time></trkpt><trkpt lat="41.135087925986305" lon="14.256039576022129"><ele>32.0</ele><time>2026-04-04T14:59:15.001Z</time></trkpt><trkpt lat="41.13499836825351" lon="14.256129076706644"><ele>32.0</ele><time>2026-04-04T14:59:16.001Z</time></trkpt><trkpt lat="41.134921701430855" lon="14.256204945099675"><ele>32.0</ele><time>2026-04-04T14:59:17.001Z</time></trkpt><trkpt lat="41.13484499083773" lon="14.256283184947252"><ele>32.0</ele><time>2026-04-04T14:59:18.001Z</time></trkpt><trkpt lat="41.13476205168278" lon="14.256369453862318"><ele>32.0</ele><time>2026-04-04T14:59:19.001Z</time></trkpt><trkpt lat="41.13467121667501" lon="14.256461151135953"><ele>32.0</ele><time>2026-04-04T14:59:20.001Z</time></trkpt><trkpt lat="41.13459278549578" lon="14.256569962225825"><ele>31.75</ele><time>2026-04-04T14:59:21.001Z</time></trkpt><trkpt lat="41.13451161076977" lon="14.256678433661548"><ele>31.5</ele><time>2026-04-04T14:59:22.001Z</time></trkpt><trkpt lat="41.13441794119261" lon="14.256779136148394"><ele>31.25</ele><time>2026-04-04T14:59:23.001Z</time></trkpt><trkpt lat="41.134316574594656" lon="14.256879199775046"><ele>31.0</ele><time>2026-04-04T14:59:24.001Z</time></trkpt><trkpt lat="41.13420896136683" lon="14.257011611832148"><ele>31.0</ele><time>2026-04-04T14:59:25.001Z</time></trkpt><trkpt lat="41.13408622811604" lon="14.257159303900636"><ele>31.0</ele><time>2026-04-04T14:59:26.001Z</time></trkpt><trkpt lat="41.13397265208884" lon="14.257320914821948"><ele>31.0</ele><time>2026-04-04T14:59:27.001Z</time></trkpt><trkpt lat="41.13385899339273" lon="14.257505202204085"><ele>30.333333333333336</ele><time>2026-04-04T14:59:28.001Z</time></trkpt><trkpt lat="41.133748796121665" lon="14.257695006976958"><ele>29.666666666666664</ele><time>2026-04-04T14:59:29.001Z</time></trkpt><trkpt lat="41.13364141814097" lon="14.257889059901547"><ele>29.0</ele><time>2026-04-04T14:59:30.001Z</time></trkpt><trkpt lat="41.13352928446468" lon="14.25806969187223"><ele>30.333333333333332</ele><time>2026-04-04T14:59:31.002Z</time></trkpt><trkpt lat="41.13343124589939" lon="14.258254754401886"><ele>31.666666666666664</ele><time>2026-04-04T14:59:32.002Z</time></trkpt><trkpt lat="41.13333545320982" lon="14.258436462586308"><ele>33.0</ele><time>2026-04-04T14:59:33.002Z</time></trkpt><trkpt lat="41.13325690906787" lon="14.258627964567282"><ele>32.25</ele><time>2026-04-04T14:59:34.002Z</time></trkpt><trkpt lat="41.133186669231705" lon="14.258803958046727"><ele>31.5</ele><time>2026-04-04T14:59:35.002Z</time></trkpt><trkpt lat="41.133129248245154" lon="14.258966059952643"><ele>30.75</ele><time>2026-04-04T14:59:36.002Z</time></trkpt><trkpt lat="41.13308040224805" lon="14.259106547779085"><ele>30.0</ele><time>2026-04-04T14:59:37.002Z</time></trkpt><trkpt lat="41.133039895681044" lon="14.25923366535471"><ele>30.0</ele><time>2026-04-04T14:59:38.002Z</time></trkpt><trkpt lat="41.13300162541179" lon="14.259362034622773"><ele>30.0</ele><time>2026-04-04T14:59:39.002Z</time></trkpt><trkpt lat="41.13296449678625" lon="14.259491380562554"><ele>30.0</ele><time>2026-04-04T14:59:40.002Z</time></trkpt><trkpt lat="41.132935724880824" lon="14.259599859898225"><ele>30.0</ele><time>2026-04-04T14:59:41Z</time></trkpt><trkpt lat="41.1329106647853" lon="14.259699228056267"><ele>30.0</ele><time>2026-04-04T14:59:42Z</time></trkpt><trkpt lat="41.1328843975699" lon="14.259850106315975"><ele>30.2</ele><time>2026-04-04T14:59:44Z</time></trkpt><trkpt lat="41.13284469220676" lon="14.260005705876766"><ele>30.4</ele><time>2026-04-04T14:59:46Z</time></trkpt><trkpt lat="41.132828662749226" lon="14.260087435248066"><ele>30.6</ele><time>2026-04-04T14:59:47Z</time></trkpt><trkpt lat="41.13281073677645" lon="14.26016793729082"><ele>30.8</ele><time>2026-04-04T14:59:48Z</time></trkpt><trkpt lat="41.13276650391194" lon="14.260319660231882"><ele>31.0</ele><time>2026-04-04T14:59:50Z</time></trkpt><trkpt lat="41.132726297970116" lon="14.260440099261938"><ele>31.0</ele><time>2026-04-04T14:59:52Z</time></trkpt><trkpt lat="41.1325478155206" lon="14.260433615311936"><ele>31.0</ele><time>2026-04-04T14:59:54Z</time></trkpt><trkpt lat="41.13247501066134" lon="14.260419649915784"><ele>31.0</ele><time>2026-04-04T14:59:55Z</time></trkpt><trkpt lat="41.13238180626951" lon="14.260407423731078"><ele>31.0</ele><time>2026-04-04T14:59:56Z</time></trkpt><trkpt lat="41.13226531630587" lon="14.260383514606094"><ele>29.25</ele><time>2026-04-04T14:59:57Z</time></trkpt><trkpt lat="41.13214080330349" lon="14.260336887949242"><ele>27.5</ele><time>2026-04-04T14:59:58Z</time></trkpt><trkpt lat="41.132004819814" lon="14.260287844540422"><ele>25.75</ele><time>2026-04-04T14:59:59Z</time></trkpt><trkpt lat="41.13185814719717" lon="14.260238243216506"><ele>24.0</ele><time>2026-04-04T15:00:00Z</time></trkpt><trkpt lat="41.131697539963966" lon="14.260197196547866"><ele>25.25</ele><time>2026-04-04T15:00:01Z</time></trkpt><trkpt lat="41.13155294245889" lon="14.260163201510634"><ele>26.5</ele><time>2026-04-04T15:00:02Z</time></trkpt><trkpt lat="41.1314213048815" lon="14.260130041620359"><ele>27.75</ele><time>2026-04-04T15:00:03Z</time></trkpt><trkpt lat="41.13129908034828" lon="14.260109567139985"><ele>29.0</ele><time>2026-04-04T15:00:04Z</time></trkpt><trkpt lat="41.13120378281859" lon="14.26009147137899"><ele>29.0</ele><time>2026-04-04T15:00:05Z</time></trkpt><trkpt lat="41.13111194111415" lon="14.26006106325575"><ele>29.0</ele><time>2026-04-04T15:00:06Z</time></trkpt><trkpt lat="41.13100410606591" lon="14.260027228992072"><ele>29.0</ele><time>2026-04-04T15:00:07Z</time></trkpt><trkpt lat="41.13089083100769" lon="14.259992306471085"><ele>29.0</ele><time>2026-04-04T15:00:08Z</time></trkpt><trkpt lat="41.13078166612671" lon="14.25996864235233"><ele>29.0</ele><time>2026-04-04T15:00:09Z</time></trkpt><trkpt lat="41.130681394874465" lon="14.259942283285394"><ele>30.2</ele><time>2026-04-04T15:00:10Z</time></trkpt><trkpt lat="41.13058384940643" lon="14.259922353293968"><ele>31.4</ele><time>2026-04-04T15:00:11Z</time></trkpt><trkpt lat="41.13049023889432" lon="14.259903176872253"><ele>32.6</ele><time>2026-04-04T15:00:12Z</time></trkpt><trkpt lat="41.130397359389335" lon="14.259877017639644"><ele>33.8</ele><time>2026-04-04T15:00:13Z</time></trkpt><trkpt lat="41.13030495377282" lon="14.259853010800521"><ele>35.0</ele><time>2026-04-04T15:00:14Z</time></trkpt><trkpt lat="41.130218490038736" lon="14.259827832578857"><ele>35.0</ele><time>2026-04-04T15:00:15Z</time></trkpt><trkpt lat="41.13013962741348" lon="14.259806665615587"><ele>35.0</ele><time>2026-04-04T15:00:16Z</time></trkpt><trkpt lat="41.130072478175414" lon="14.259796855611702"><ele>35.0</ele><time>2026-04-04T15:00:17Z</time></trkpt><trkpt lat="41.13000778430916" lon="14.259776614994047"><ele>35.0</ele><time>2026-04-04T15:00:18Z</time></trkpt><trkpt lat="41.12991970212118" lon="14.259748735056501"><ele>35.0</ele><time>2026-04-04T15:00:20Z</time></trkpt><trkpt lat="41.129851770716" lon="14.259742823498911"><ele>35.0</ele><time>2026-04-04T15:00:22Z</time></trkpt><trkpt lat="41.12980365680291" lon="14.259547329262668"><ele>35.6</ele><time>2026-04-04T15:00:24Z</time></trkpt><trkpt lat="41.12979038762893" lon="14.259440718040372"><ele>36.2</ele><time>2026-04-04T15:00:25Z</time></trkpt><trkpt lat="41.12976486549523" lon="14.259313926128153"><ele>36.8</ele><time>2026-04-04T15:00:26.001Z</time></trkpt><trkpt lat="41.129727077649214" lon="14.259165392506022"><ele>37.4</ele><time>2026-04-04T15:00:27.001Z</time></trkpt><trkpt lat="41.12969866300854" lon="14.259006977917027"><ele>38.0</ele><time>2026-04-04T15:00:28.001Z</time></trkpt><trkpt lat="41.12967650199128" lon="14.258846321072513"><ele>38.0</ele><time>2026-04-04T15:00:29.001Z</time></trkpt><trkpt lat="41.12964917219708" lon="14.258684062175911"><ele>38.0</ele><time>2026-04-04T15:00:30.001Z</time></trkpt><trkpt lat="41.129619604860224" lon="14.258529110074207"><ele>38.0</ele><time>2026-04-04T15:00:31.001Z</time></trkpt><trkpt lat="41.12959443643465" lon="14.258392479235987"><ele>38.0</ele><time>2026-04-04T15:00:32.001Z</time></trkpt><trkpt lat="41.129574690520236" lon="14.258250335775838"><ele>38.25</ele><time>2026-04-04T15:00:33.001Z</time></trkpt><trkpt lat="41.12954496565471" lon="14.258103646743306"><ele>38.5</ele><time>2026-04-04T15:00:34.001Z</time></trkpt><trkpt lat="41.12951236264519" lon="14.257921502830088"><ele>38.75</ele><time>2026-04-04T15:00:35.001Z</time></trkpt><trkpt lat="41.12948594136451" lon="14.257707287723065"><ele>39.0</ele><time>2026-04-04T15:00:36.001Z</time></trkpt><trkpt lat="41.12945598062446" lon="14.25747442458301"><ele>39.0</ele><time>2026-04-04T15:00:37.001Z</time></trkpt><trkpt lat="41.129421916553305" lon="14.25724620486093"><ele>39.0</ele><time>2026-04-04T15:00:38.001Z</time></trkpt><trkpt lat="41.12936301229662" lon="14.25701667201701"><ele>39.0</ele><time>2026-04-04T15:00:39.001Z</time></trkpt><trkpt lat="41.12932057700774" lon="14.256780044904918"><ele>39.0</ele><time>2026-04-04T15:00:40.001Z</time></trkpt><trkpt lat="41.129275494157575" lon="14.25653844588938"><ele>39.0</ele><time>2026-04-04T15:00:41.001Z</time></trkpt><trkpt lat="41.12923567239859" lon="14.2562959756555"><ele>39.0</ele><time>2026-04-04T15:00:42.001Z</time></trkpt><trkpt lat="41.129165208011855" lon="14.256067022480162"><ele>39.333333333333336</ele><time>2026-04-04T15:00:43.001Z</time></trkpt><trkpt lat="41.129093715885446" lon="14.255846694167895"><ele>39.66666666666667</ele><time>2026-04-04T15:00:44.001Z</time></trkpt><trkpt lat="41.129015272483336" lon="14.255660189767221"><ele>40.0</ele><time>2026-04-04T15:00:45.001Z</time></trkpt><trkpt lat="41.12894036781187" lon="14.255487842880845"><ele>41.0</ele><time>2026-04-04T15:00:46.001Z</time></trkpt><trkpt lat="41.12885404556244" lon="14.255328630507629"><ele>42.0</ele><time>2026-04-04T15:00:47.001Z</time></trkpt><trkpt lat="41.12875255638001" lon="14.25516484210359"><ele>43.0</ele><time>2026-04-04T15:00:48.001Z</time></trkpt><trkpt lat="41.12866561621617" lon="14.254972914687915"><ele>42.66666666666667</ele><time>2026-04-04T15:00:49.001Z</time></trkpt><trkpt lat="41.128580194430654" lon="14.254781343690357"><ele>42.333333333333336</ele><time>2026-04-04T15:00:50.001Z</time></trkpt><trkpt lat="41.128491713291645" lon="14.25460118366868"><ele>42.0</ele><time>2026-04-04T15:00:51.001Z</time></trkpt><trkpt lat="41.12839457127953" lon="14.254427909530794"><ele>42.0</ele><time>2026-04-04T15:00:52.001Z</time></trkpt><trkpt lat="41.12830218263108" lon="14.254273193735829"><ele>42.0</ele><time>2026-04-04T15:00:53.001Z</time></trkpt><trkpt lat="41.128216861173286" lon="14.254132430131172"><ele>42.0</ele><time>2026-04-04T15:00:54.001Z</time></trkpt><trkpt lat="41.128129137467766" lon="14.253983122912363"><ele>42.0</ele><time>2026-04-04T15:00:55.001Z</time></trkpt><trkpt lat="41.128040127163324" lon="14.253850219885756"><ele>42.25</ele><time>2026-04-04T15:00:56.001Z</time></trkpt><trkpt lat="41.12794895165391" lon="14.253726128569776"><ele>42.5</ele><time>2026-04-04T15:00:57.001Z</time></trkpt><trkpt lat="41.127861842715646" lon="14.253597981661919"><ele>42.75</ele><time>2026-04-04T15:00:58.001Z</time></trkpt><trkpt lat="41.12777065771615" lon="14.25346910274365"><ele>43.0</ele><time>2026-04-04T15:00:59.001Z</time></trkpt><trkpt lat="41.12767355544608" lon="14.253348762980446"><ele>43.0</ele><time>2026-04-04T15:01:00.001Z</time></trkpt><trkpt lat="41.12757332057875" lon="14.25321609438716"><ele>43.0</ele><time>2026-04-04T15:01:01.001Z</time></trkpt><trkpt lat="41.127469057259326" lon="14.25307773963325"><ele>43.0</ele><time>2026-04-04T15:01:02.001Z</time></trkpt><trkpt lat="41.12735693732115" lon="14.252947334386084"><ele>43.0</ele><time>2026-04-04T15:01:03.001Z</time></trkpt><trkpt lat="41.12723173264498" lon="14.252795456564453"><ele>44.333333333333336</ele><time>2026-04-04T15:01:04.001Z</time></trkpt><trkpt lat="41.127109540986936" lon="14.252642916035354"><ele>45.666666666666664</ele><time>2026-04-04T15:01:05.001Z</time></trkpt><trkpt lat="41.126999687146885" lon="14.252505209830506"><ele>47.0</ele><time>2026-04-04T15:01:06.001Z</time></trkpt><trkpt lat="41.12689046819309" lon="14.252385183510679"><ele>46.5</ele><time>2026-04-04T15:01:07.001Z</time></trkpt><trkpt lat="41.126781073561624" lon="14.25227022282697"><ele>46.0</ele><time>2026-04-04T15:01:08.001Z</time></trkpt><trkpt lat="41.12667782311544" lon="14.252180208017828"><ele>45.5</ele><time>2026-04-04T15:01:09.001Z</time></trkpt><trkpt lat="41.12657281189495" lon="14.252093829043668"><ele>45.0</ele><time>2026-04-04T15:01:10.001Z</time></trkpt><trkpt lat="41.12647749329938" lon="14.25201784458888"><ele>46.0</ele><time>2026-04-04T15:01:11.001Z</time></trkpt><trkpt lat="41.12637029975804" lon="14.251949142546485"><ele>47.0</ele><time>2026-04-04T15:01:12.001Z</time></trkpt><trkpt lat="41.12626160067416" lon="14.251879075925038"><ele>48.0</ele><time>2026-04-04T15:01:13.001Z</time></trkpt><trkpt lat="41.12615312309934" lon="14.251831458616538"><ele>49.0</ele><time>2026-04-04T15:01:14.001Z</time></trkpt><trkpt lat="41.12605170031195" lon="14.25177578835743"><ele>49.0</ele><time>2026-04-04T15:01:15.001Z</time></trkpt><trkpt lat="41.12594555907978" lon="14.251731513175514"><ele>49.0</ele><time>2026-04-04T15:01:16.001Z</time></trkpt><trkpt lat="41.12584097290654" lon="14.25168122675399"><ele>49.0</ele><time>2026-04-04T15:01:17.001Z</time></trkpt><trkpt lat="41.125741159216076" lon="14.251634253702369"><ele>49.0</ele><time>2026-04-04T15:01:18.001Z</time></trkpt><trkpt lat="41.1256560257227" lon="14.251588651782134"><ele>49.0</ele><time>2026-04-04T15:01:19.001Z</time></trkpt><trkpt lat="41.12557587666273" lon="14.2515538695206"><ele>49.2</ele><time>2026-04-04T15:01:20.001Z</time></trkpt><trkpt lat="41.12548910667907" lon="14.251494387987366"><ele>49.400000000000006</ele><time>2026-04-04T15:01:21.001Z</time></trkpt><trkpt lat="41.12540757727391" lon="14.251454771110492"><ele>49.6</ele><time>2026-04-04T15:01:22.001Z</time></trkpt><trkpt lat="41.1253163435332" lon="14.251411399486456"><ele>49.8</ele><time>2026-04-04T15:01:23.001Z</time></trkpt><trkpt lat="41.125211711415474" lon="14.251358834602193"><ele>50.0</ele><time>2026-04-04T15:01:24.001Z</time></trkpt><trkpt lat="41.1250988824162" lon="14.251325046631749"><ele>49.5</ele><time>2026-04-04T15:01:25.001Z</time></trkpt><trkpt lat="41.12497765145272" lon="14.251303322125134"><ele>49.0</ele><time>2026-04-04T15:01:26.001Z</time></trkpt><trkpt lat="41.124850306360095" lon="14.251279661152415"><ele>48.5</ele><time>2026-04-04T15:01:27.001Z</time></trkpt><trkpt lat="41.12471485996149" lon="14.251262051907874"><ele>48.0</ele><time>2026-04-04T15:01:28.001Z</time></trkpt><trkpt lat="41.12457948621808" lon="14.251234066085413"><ele>48.0</ele><time>2026-04-04T15:01:29.001Z</time></trkpt><trkpt lat="41.124443216486895" lon="14.25121670917398"><ele>48.0</ele><time>2026-04-04T15:01:30.001Z</time></trkpt><trkpt lat="41.124307333987765" lon="14.251193178660554"><ele>48.0</ele><time>2026-04-04T15:01:31.001Z</time></trkpt><trkpt lat="41.12417490343586" lon="14.251175858334715"><ele>48.0</ele><time>2026-04-04T15:01:32.001Z</time></trkpt><trkpt lat="41.12404374632308" lon="14.25115867203751"><ele>48.25</ele><time>2026-04-04T15:01:33.001Z</time></trkpt><trkpt lat="41.12391645380614" lon="14.251143356660856"><ele>48.5</ele><time>2026-04-04T15:01:34.001Z</time></trkpt><trkpt lat="41.12379958500377" lon="14.251131359779167"><ele>48.75</ele><time>2026-04-04T15:01:35.001Z</time></trkpt><trkpt lat="41.12369048473623" lon="14.251121532792716"><ele>49.0</ele><time>2026-04-04T15:01:36.001Z</time></trkpt><trkpt lat="41.12357105261899" lon="14.251103596720558"><ele>49.0</ele><time>2026-04-04T15:01:37.001Z</time></trkpt><trkpt lat="41.12345237935551" lon="14.251081115872156"><ele>49.0</ele><time>2026-04-04T15:01:38.001Z</time></trkpt><trkpt lat="41.12333256247935" lon="14.25106284448538"><ele>49.0</ele><time>2026-04-04T15:01:39.001Z</time></trkpt><trkpt lat="41.123217778197514" lon="14.251055777815063"><ele>49.0</ele><time>2026-04-04T15:01:40.002Z</time></trkpt><trkpt lat="41.12310870390727" lon="14.251031819652042"><ele>48.800000000000004</ele><time>2026-04-04T15:01:41.002Z</time></trkpt><trkpt lat="41.122994778181486" lon="14.251019025712496"><ele>48.6</ele><time>2026-04-04T15:01:42.002Z</time></trkpt><trkpt lat="41.12289370500263" lon="14.2510163224018"><ele>48.4</ele><time>2026-04-04T15:01:43.002Z</time></trkpt><trkpt lat="41.12278888503479" lon="14.2510027121564"><ele>48.2</ele><time>2026-04-04T15:01:44.002Z</time></trkpt><trkpt lat="41.12267512166906" lon="14.250986924967805"><ele>48.0</ele><time>2026-04-04T15:01:45.002Z</time></trkpt><trkpt lat="41.12257918434781" lon="14.25095790219196"><ele>48.0</ele><time>2026-04-04T15:01:46.002Z</time></trkpt><trkpt lat="41.12247271899428" lon="14.250948746535071"><ele>48.0</ele><time>2026-04-04T15:01:47Z</time></trkpt><trkpt lat="41.122367375285954" lon="14.250937688143665"><ele>48.0</ele><time>2026-04-04T15:01:48Z</time></trkpt><trkpt lat="41.12226045799766" lon="14.2509284193105"><ele>48.0</ele><time>2026-04-04T15:01:49Z</time></trkpt><trkpt lat="41.122161417360964" lon="14.250920719235607"><ele>48.0</ele><time>2026-04-04T15:01:50Z</time></trkpt><trkpt lat="41.122058204458135" lon="14.250911161202275"><ele>48.0</ele><time>2026-04-04T15:01:51Z</time></trkpt><trkpt lat="41.12195056200852" lon="14.25089173956674"><ele>48.0</ele><time>2026-04-04T15:01:52Z</time></trkpt><trkpt lat="41.12184932173839" lon="14.250872286575925"><ele>48.0</ele><time>2026-04-04T15:01:53Z</time></trkpt><trkpt lat="41.121753277027686" lon="14.250841941339864"><ele>48.0</ele><time>2026-04-04T15:01:54Z</time></trkpt><trkpt lat="41.121684092100566" lon="14.250816418618331"><ele>48.0</ele><time>2026-04-04T15:01:55Z</time></trkpt><trkpt lat="41.121603362094895" lon="14.250847955434955"><ele>47.833333333333336</ele><time>2026-04-04T15:01:56Z</time></trkpt><trkpt lat="41.12152673999847" lon="14.250839405558118"><ele>47.666666666666664</ele><time>2026-04-04T15:01:57Z</time></trkpt><trkpt lat="41.121449074098315" lon="14.25083060970394"><ele>47.5</ele><time>2026-04-04T15:01:58Z</time></trkpt><trkpt lat="41.12136330000414" lon="14.250812919645504"><ele>47.33333333333333</ele><time>2026-04-04T15:01:59Z</time></trkpt><trkpt lat="41.121288737253046" lon="14.250797061226997"><ele>47.166666666666664</ele><time>2026-04-04T15:02:00Z</time></trkpt><trkpt lat="41.121216546642536" lon="14.250792378059636"><ele>47.0</ele><time>2026-04-04T15:02:01Z</time></trkpt><trkpt lat="41.121149641804216" lon="14.250786088350985"><ele>47.0</ele><time>2026-04-04T15:02:03Z</time></trkpt><trkpt lat="41.12108535426574" lon="14.250759185769873"><ele>47.0</ele><time>2026-04-04T15:02:07Z</time></trkpt><trkpt lat="41.120998666059286" lon="14.250743858092493"><ele>47.0</ele><time>2026-04-04T15:02:09Z</time></trkpt><trkpt lat="41.120889904408834" lon="14.250736591797745"><ele>47.0</ele><time>2026-04-04T15:02:11Z</time></trkpt><trkpt lat="41.120770156905074" lon="14.25070477388482"><ele>47.0</ele><time>2026-04-04T15:02:13Z</time></trkpt><trkpt lat="41.120689397594624" lon="14.250688424850678"><ele>47.2</ele><time>2026-04-04T15:02:14Z</time></trkpt><trkpt lat="41.12060968151748" lon="14.250685539088915"><ele>47.400000000000006</ele><time>2026-04-04T15:02:15Z</time></trkpt><trkpt lat="41.120543467421406" lon="14.250667017594294"><ele>47.599999999999994</ele><time>2026-04-04T15:02:16Z</time></trkpt><trkpt lat="41.12043294475796" lon="14.250650661226222"><ele>47.8</ele><time>2026-04-04T15:02:18Z</time></trkpt><trkpt lat="41.12031813766124" lon="14.250636736847255"><ele>48.0</ele><time>2026-04-04T15:02:20Z</time></trkpt><trkpt lat="41.120198548525295" lon="14.250615880153164"><ele>48.0</ele><time>2026-04-04T15:02:22Z</time></trkpt><trkpt lat="41.1200973221308" lon="14.250603110543445"><ele>48.0</ele><time>2026-04-04T15:02:24Z</time></trkpt><trkpt lat="41.12000448146798" lon="14.250597318819688"><ele>48.0</ele><time>2026-04-04T15:02:26Z</time></trkpt><trkpt lat="41.119926028848795" lon="14.250610301191905"><ele>48.0</ele><time>2026-04-04T15:02:28Z</time></trkpt><trkpt lat="41.11985313457296" lon="14.250603964723716"><ele>48.0</ele><time>2026-04-04T15:02:30Z</time></trkpt><trkpt lat="41.1197858014902" lon="14.250567969632966"><ele>48.0</ele><time>2026-04-04T15:02:37.001Z</time></trkpt><trkpt lat="41.119704394136754" lon="14.250572164478847"><ele>47.833333333333336</ele><time>2026-04-04T15:02:39.001Z</time></trkpt><trkpt lat="41.119642217347206" lon="14.250619523100422"><ele>47.666666666666664</ele><time>2026-04-04T15:02:41.001Z</time></trkpt><trkpt lat="41.11961925424821" lon="14.250731782565733"><ele>47.5</ele><time>2026-04-04T15:02:42.001Z</time></trkpt><trkpt lat="41.11962747581288" lon="14.250820081006605"><ele>47.33333333333333</ele><time>2026-04-04T15:02:43.001Z</time></trkpt><trkpt lat="41.11963384603694" lon="14.250912518204931"><ele>47.166666666666664</ele><time>2026-04-04T15:02:44.001Z</time></trkpt><trkpt lat="41.11962262602482" lon="14.251037835059494"><ele>47.0</ele><time>2026-04-04T15:02:46.001Z</time></trkpt><trkpt lat="41.1196277784556" lon="14.251127346270863"><ele>47.0</ele><time>2026-04-04T15:02:47.001Z</time></trkpt><trkpt lat="41.11962718598869" lon="14.25127739361453"><ele>47.0</ele><time>2026-04-04T15:02:49.001Z</time></trkpt><trkpt lat="41.119621973346675" lon="14.251447253266214"><ele>47.0</ele><time>2026-04-04T15:02:51.001Z</time></trkpt><trkpt lat="41.119616967614725" lon="14.251630938867477"><ele>47.0</ele><time>2026-04-04T15:02:53.001Z</time></trkpt><trkpt lat="41.11961473416636" lon="14.251725276141848"><ele>47.166666666666664</ele><time>2026-04-04T15:02:54.001Z</time></trkpt><trkpt lat="41.119613176481266" lon="14.251810503915825"><ele>47.33333333333333</ele><time>2026-04-04T15:02:55.001Z</time></trkpt><trkpt lat="41.119615843641284" lon="14.251897141962367"><ele>47.5</ele><time>2026-04-04T15:02:56.001Z</time></trkpt><trkpt lat="41.119616404664406" lon="14.2519943654417"><ele>47.666666666666664</ele><time>2026-04-04T15:02:57.001Z</time></trkpt><trkpt lat="41.1196163181273" lon="14.252104109082012"><ele>47.833333333333336</ele><time>2026-04-04T15:02:58.001Z</time></trkpt><trkpt lat="41.11960143919178" lon="14.252213669448777"><ele>48.0</ele><time>2026-04-04T15:02:59.001Z</time></trkpt><trkpt lat="41.119615223563805" lon="14.252329797355385"><ele>48.333333333333336</ele><time>2026-04-04T15:03:00.001Z</time></trkpt><trkpt lat="41.11960371589626" lon="14.252453795917283"><ele>48.66666666666667</ele><time>2026-04-04T15:03:01.001Z</time></trkpt><trkpt lat="41.11959760182011" lon="14.252566833378454"><ele>49.0</ele><time>2026-04-04T15:03:02.001Z</time></trkpt><trkpt lat="41.11959681349518" lon="14.252667161923036"><ele>49.333333333333336</ele><time>2026-04-04T15:03:03.001Z</time></trkpt><trkpt lat="41.11958650855889" lon="14.252757597293536"><ele>49.66666666666667</ele><time>2026-04-04T15:03:04.001Z</time></trkpt><trkpt lat="41.119585780156136" lon="14.252891285594306"><ele>50.0</ele><time>2026-04-04T15:03:06.001Z</time></trkpt><trkpt lat="41.1195795640045" lon="14.253008808136007"><ele>50.00000000000001</ele><time>2026-04-04T15:03:08.001Z</time></trkpt><trkpt lat="41.119567659500255" lon="14.253095220277595"><ele>50.0</ele><time>2026-04-04T15:03:09.001Z</time></trkpt><trkpt lat="41.119557765966015" lon="14.253203625350844"><ele>50.0</ele><time>2026-04-04T15:03:10.001Z</time></trkpt><trkpt lat="41.11956476504353" lon="14.253322057982357"><ele>50.0</ele><time>2026-04-04T15:03:11.001Z</time></trkpt><trkpt lat="41.11957106368569" lon="14.25344266378452"><ele>50.00000000000001</ele><time>2026-04-04T15:03:12.001Z</time></trkpt><trkpt lat="41.11959837925017" lon="14.253572325726171"><ele>50.0</ele><time>2026-04-04T15:03:13.001Z</time></trkpt><trkpt lat="41.11964469064973" lon="14.253698399548536"><ele>50.333333333333336</ele><time>2026-04-04T15:03:14.001Z</time></trkpt><trkpt lat="41.11969123425819" lon="14.253831105511528"><ele>50.66666666666667</ele><time>2026-04-04T15:03:15.001Z</time></trkpt><trkpt lat="41.11973441827912" lon="14.253934467318315"><ele>51.0</ele><time>2026-04-04T15:03:16.001Z</time></trkpt><trkpt lat="41.11976685790398" lon="14.254028127516621"><ele>51.33333333333333</ele><time>2026-04-04T15:03:17.001Z</time></trkpt><trkpt lat="41.1198035720042" lon="14.254099672236228"><ele>51.666666666666664</ele><time>2026-04-04T15:03:18.001Z</time></trkpt><trkpt lat="41.11984243207153" lon="14.254180691235524"><ele>52.0</ele><time>2026-04-04T15:03:19.001Z</time></trkpt><trkpt lat="41.119875681606146" lon="14.25425515686025"><ele>52.400000000000006</ele><time>2026-04-04T15:03:20.001Z</time></trkpt><trkpt lat="41.11993287093758" lon="14.254396675725246"><ele>52.800000000000004</ele><time>2026-04-04T15:03:22.001Z</time></trkpt><trkpt lat="41.11997059837414" lon="14.25448366159396"><ele>53.2</ele><time>2026-04-04T15:03:24.001Z</time></trkpt><trkpt lat="41.12000466888916" lon="14.254560147089379"><ele>53.6</ele><time>2026-04-04T15:03:26.001Z</time></trkpt><trkpt lat="41.12004856563813" lon="14.254665758878076"><ele>54.0</ele><time>2026-04-04T15:03:28.001Z</time></trkpt><trkpt lat="41.12008423861196" lon="14.254798025178946"><ele>54.5</ele><time>2026-04-04T15:03:30.001Z</time></trkpt><trkpt lat="41.120105202408965" lon="14.254883814982035"><ele>55.0</ele><time>2026-04-04T15:03:31.001Z</time></trkpt><trkpt lat="41.120125673578734" lon="14.254963695107948"><ele>55.5</ele><time>2026-04-04T15:03:32.001Z</time></trkpt><trkpt lat="41.12015984161167" lon="14.255086787238623"><ele>56.0</ele><time>2026-04-04T15:03:34.001Z</time></trkpt><trkpt lat="41.120169334624485" lon="14.255196939603954"><ele>56.5</ele><time>2026-04-04T15:03:36.001Z</time></trkpt><trkpt lat="41.12023770586812" lon="14.255106849803829"><ele>57.0</ele><time>2026-04-04T15:03:41.001Z</time></trkpt><trkpt lat="41.12025087045246" lon="14.255003493779704"><ele>57.0</ele><time>2026-04-04T15:03:54Z</time></trkpt><trkpt lat="41.12030707498288" lon="14.25494070938519"><ele>57.0</ele><time>2026-04-04T15:04:28Z</time></trkpt></trkseg></trk></gpx>